<?xml version="1.0" encoding="UTF-8" standalone="no" ?>
<gpx xmlns="http://www.topografix.com/GPX/1/1" xmlns:xsi="http://www.w3.org/2001/XMLSchema-instance" xsi:schemaLocation="http://www.topografix.com/GPX/1/1 http://www.topografix.com/GPX/1/1/gpx.xsd" version="1.1" creator="VisuGPX - https://www.visugpx.com">
  <metadata>
    <name>2017-07-01 Bike ride-Chatillon-Limas</name>
    <desc><![CDATA[2017-07-01 Bike ride-Chatillon-Limas]]></desc>
  </metadata>
  <wpt lat="45.92483" lon="4.73737">
    <ele>174</ele>
    <name><![CDATA[2017-07-01 10:44 (Start)]]></name>
  </wpt>
  <wpt lat="45.92465" lon="4.73706">
    <ele>174</ele>
    <name><![CDATA[2017-07-01 10:44 (End)]]></name>
    <desc><![CDATA[Created by Google My Tracks on Android  Name: 2017-07-01 10:44 Activity type: biking Description: - Total distance: 38.72 km (24.1 mi) Total time: 2:03:07 Moving time: 2:00:30 Average speed: 18.87 km/h (11.7 mi/h) Average moving speed: 19.28 km/h (12.0 mi/h) Max speed: 51.11 km/h (31.8 mi/h) Average pace: 3:11 min/km (5:07 min/mi) Average moving pace: 3:07 min/km (5:01 min/mi) Fastest pace: 1:10 min/km (1:53 min/mi) Max elevation: 427 m (1400 ft) Min elevation: 158 m (518 ft) Elevation gain: 631 m (2069 ft) Max grade: 25 % Min grade: -8 % Recorded: 01/07/2017 10:44]]></desc>
  </wpt>
  <trk>
    <name><![CDATA[2017-07-01 10:44]]></name>
    <trkseg>
      <trkpt lat="45.92483" lon="4.73737">
        <ele>174</ele>
        <time>2017-07-01T08:44:20.033Z</time>
      </trkpt>
      <trkpt lat="45.92481" lon="4.73736">
        <ele>174</ele>
        <time>2017-07-01T08:44:42Z</time>
      </trkpt>
      <trkpt lat="45.92481" lon="4.73736">
        <ele>174</ele>
        <time>2017-07-01T08:44:43Z</time>
      </trkpt>
      <trkpt lat="45.92473" lon="4.73734">
        <ele>174</ele>
        <time>2017-07-01T08:45:01Z</time>
      </trkpt>
      <trkpt lat="45.92468" lon="4.7372">
        <ele>174</ele>
        <time>2017-07-01T08:45:02Z</time>
      </trkpt>
      <trkpt lat="45.92466" lon="4.73707">
        <ele>174</ele>
        <time>2017-07-01T08:45:29Z</time>
      </trkpt>
      <trkpt lat="45.92467" lon="4.73705">
        <ele>174</ele>
        <time>2017-07-01T08:45:30Z</time>
      </trkpt>
      <trkpt lat="45.92468" lon="4.73694">
        <ele>174</ele>
        <time>2017-07-01T08:45:34Z</time>
      </trkpt>
      <trkpt lat="45.92468" lon="4.73691">
        <ele>174</ele>
        <time>2017-07-01T08:45:35Z</time>
      </trkpt>
      <trkpt lat="45.9247" lon="4.73683">
        <ele>174</ele>
        <time>2017-07-01T08:45:37Z</time>
      </trkpt>
      <trkpt lat="45.9247" lon="4.73677">
        <ele>174</ele>
        <time>2017-07-01T08:45:38Z</time>
      </trkpt>
      <trkpt lat="45.92471" lon="4.73666">
        <ele>174</ele>
        <time>2017-07-01T08:45:40Z</time>
      </trkpt>
      <trkpt lat="45.92471" lon="4.7366">
        <ele>174</ele>
        <time>2017-07-01T08:45:41Z</time>
      </trkpt>
      <trkpt lat="45.92472" lon="4.73654">
        <ele>174</ele>
        <time>2017-07-01T08:45:42Z</time>
      </trkpt>
      <trkpt lat="45.92472" lon="4.73647">
        <ele>174</ele>
        <time>2017-07-01T08:45:43Z</time>
      </trkpt>
      <trkpt lat="45.92472" lon="4.73639">
        <ele>174</ele>
        <time>2017-07-01T08:45:44Z</time>
      </trkpt>
      <trkpt lat="45.92471" lon="4.73631">
        <ele>174</ele>
        <time>2017-07-01T08:45:45Z</time>
      </trkpt>
      <trkpt lat="45.92471" lon="4.73623">
        <ele>174</ele>
        <time>2017-07-01T08:45:46Z</time>
      </trkpt>
      <trkpt lat="45.9247" lon="4.73615">
        <ele>174</ele>
        <time>2017-07-01T08:45:47Z</time>
      </trkpt>
      <trkpt lat="45.92469" lon="4.73607">
        <ele>174</ele>
        <time>2017-07-01T08:45:48Z</time>
      </trkpt>
      <trkpt lat="45.92468" lon="4.736">
        <ele>174</ele>
        <time>2017-07-01T08:45:49Z</time>
      </trkpt>
      <trkpt lat="45.92467" lon="4.73592">
        <ele>174</ele>
        <time>2017-07-01T08:45:50Z</time>
      </trkpt>
      <trkpt lat="45.92467" lon="4.73585">
        <ele>174</ele>
        <time>2017-07-01T08:45:51Z</time>
      </trkpt>
      <trkpt lat="45.92466" lon="4.73577">
        <ele>173</ele>
        <time>2017-07-01T08:45:52Z</time>
      </trkpt>
      <trkpt lat="45.92467" lon="4.7357">
        <ele>173</ele>
        <time>2017-07-01T08:45:53Z</time>
      </trkpt>
      <trkpt lat="45.92467" lon="4.73563">
        <ele>173</ele>
        <time>2017-07-01T08:45:54Z</time>
      </trkpt>
      <trkpt lat="45.92467" lon="4.73557">
        <ele>173</ele>
        <time>2017-07-01T08:45:55Z</time>
      </trkpt>
      <trkpt lat="45.92464" lon="4.73548">
        <ele>173</ele>
        <time>2017-07-01T08:45:57Z</time>
      </trkpt>
      <trkpt lat="45.92461" lon="4.73546">
        <ele>173</ele>
        <time>2017-07-01T08:45:58Z</time>
      </trkpt>
      <trkpt lat="45.92452" lon="4.73548">
        <ele>174</ele>
        <time>2017-07-01T08:46:00Z</time>
      </trkpt>
      <trkpt lat="45.92448" lon="4.7355">
        <ele>174</ele>
        <time>2017-07-01T08:46:01Z</time>
      </trkpt>
      <trkpt lat="45.92443" lon="4.73552">
        <ele>174</ele>
        <time>2017-07-01T08:46:02Z</time>
      </trkpt>
      <trkpt lat="45.92439" lon="4.73555">
        <ele>174</ele>
        <time>2017-07-01T08:46:03Z</time>
      </trkpt>
      <trkpt lat="45.92434" lon="4.73557">
        <ele>174</ele>
        <time>2017-07-01T08:46:04Z</time>
      </trkpt>
      <trkpt lat="45.9243" lon="4.73559">
        <ele>174</ele>
        <time>2017-07-01T08:46:05Z</time>
      </trkpt>
      <trkpt lat="45.92425" lon="4.73562">
        <ele>174</ele>
        <time>2017-07-01T08:46:06Z</time>
      </trkpt>
      <trkpt lat="45.9242" lon="4.73564">
        <ele>174</ele>
        <time>2017-07-01T08:46:07Z</time>
      </trkpt>
      <trkpt lat="45.92415" lon="4.73567">
        <ele>173</ele>
        <time>2017-07-01T08:46:08Z</time>
      </trkpt>
      <trkpt lat="45.9241" lon="4.73569">
        <ele>173</ele>
        <time>2017-07-01T08:46:09Z</time>
      </trkpt>
      <trkpt lat="45.92405" lon="4.73572">
        <ele>173</ele>
        <time>2017-07-01T08:46:10Z</time>
      </trkpt>
      <trkpt lat="45.92401" lon="4.73574">
        <ele>173</ele>
        <time>2017-07-01T08:46:11Z</time>
      </trkpt>
      <trkpt lat="45.92396" lon="4.73577">
        <ele>173</ele>
        <time>2017-07-01T08:46:12Z</time>
      </trkpt>
      <trkpt lat="45.92391" lon="4.73579">
        <ele>173</ele>
        <time>2017-07-01T08:46:13Z</time>
      </trkpt>
      <trkpt lat="45.92385" lon="4.73581">
        <ele>173</ele>
        <time>2017-07-01T08:46:14Z</time>
      </trkpt>
      <trkpt lat="45.9238" lon="4.73584">
        <ele>173</ele>
        <time>2017-07-01T08:46:15Z</time>
      </trkpt>
      <trkpt lat="45.92375" lon="4.73587">
        <ele>173</ele>
        <time>2017-07-01T08:46:16Z</time>
      </trkpt>
      <trkpt lat="45.92371" lon="4.73589">
        <ele>173</ele>
        <time>2017-07-01T08:46:17Z</time>
      </trkpt>
      <trkpt lat="45.92366" lon="4.73592">
        <ele>173</ele>
        <time>2017-07-01T08:46:18Z</time>
      </trkpt>
      <trkpt lat="45.92361" lon="4.73594">
        <ele>173</ele>
        <time>2017-07-01T08:46:19Z</time>
      </trkpt>
      <trkpt lat="45.92356" lon="4.73596">
        <ele>173</ele>
        <time>2017-07-01T08:46:20Z</time>
      </trkpt>
      <trkpt lat="45.92351" lon="4.73599">
        <ele>173</ele>
        <time>2017-07-01T08:46:21Z</time>
      </trkpt>
      <trkpt lat="45.92346" lon="4.73601">
        <ele>173</ele>
        <time>2017-07-01T08:46:22Z</time>
      </trkpt>
      <trkpt lat="45.92342" lon="4.73604">
        <ele>173</ele>
        <time>2017-07-01T08:46:23Z</time>
      </trkpt>
      <trkpt lat="45.92337" lon="4.73608">
        <ele>173</ele>
        <time>2017-07-01T08:46:24Z</time>
      </trkpt>
      <trkpt lat="45.92332" lon="4.73611">
        <ele>172</ele>
        <time>2017-07-01T08:46:25Z</time>
      </trkpt>
      <trkpt lat="45.92327" lon="4.73613">
        <ele>172</ele>
        <time>2017-07-01T08:46:26Z</time>
      </trkpt>
      <trkpt lat="45.92321" lon="4.73615">
        <ele>172</ele>
        <time>2017-07-01T08:46:27Z</time>
      </trkpt>
      <trkpt lat="45.92316" lon="4.73618">
        <ele>172</ele>
        <time>2017-07-01T08:46:28Z</time>
      </trkpt>
      <trkpt lat="45.92311" lon="4.73621">
        <ele>172</ele>
        <time>2017-07-01T08:46:29Z</time>
      </trkpt>
      <trkpt lat="45.92305" lon="4.73624">
        <ele>172</ele>
        <time>2017-07-01T08:46:30Z</time>
      </trkpt>
      <trkpt lat="45.923" lon="4.73627">
        <ele>172</ele>
        <time>2017-07-01T08:46:31Z</time>
      </trkpt>
      <trkpt lat="45.92295" lon="4.7363">
        <ele>172</ele>
        <time>2017-07-01T08:46:32Z</time>
      </trkpt>
      <trkpt lat="45.92289" lon="4.73633">
        <ele>172</ele>
        <time>2017-07-01T08:46:33Z</time>
      </trkpt>
      <trkpt lat="45.92284" lon="4.73637">
        <ele>172</ele>
        <time>2017-07-01T08:46:34Z</time>
      </trkpt>
      <trkpt lat="45.92278" lon="4.7364">
        <ele>172</ele>
        <time>2017-07-01T08:46:35Z</time>
      </trkpt>
      <trkpt lat="45.92273" lon="4.73643">
        <ele>172</ele>
        <time>2017-07-01T08:46:36Z</time>
      </trkpt>
      <trkpt lat="45.92268" lon="4.73646">
        <ele>172</ele>
        <time>2017-07-01T08:46:37Z</time>
      </trkpt>
      <trkpt lat="45.92262" lon="4.73649">
        <ele>171</ele>
        <time>2017-07-01T08:46:38Z</time>
      </trkpt>
      <trkpt lat="45.92257" lon="4.73652">
        <ele>171</ele>
        <time>2017-07-01T08:46:39Z</time>
      </trkpt>
      <trkpt lat="45.92252" lon="4.73654">
        <ele>171</ele>
        <time>2017-07-01T08:46:40Z</time>
      </trkpt>
      <trkpt lat="45.92248" lon="4.73657">
        <ele>171</ele>
        <time>2017-07-01T08:46:41Z</time>
      </trkpt>
      <trkpt lat="45.92243" lon="4.73659">
        <ele>171</ele>
        <time>2017-07-01T08:46:42Z</time>
      </trkpt>
      <trkpt lat="45.92238" lon="4.73662">
        <ele>171</ele>
        <time>2017-07-01T08:46:43Z</time>
      </trkpt>
      <trkpt lat="45.92234" lon="4.73665">
        <ele>171</ele>
        <time>2017-07-01T08:46:44Z</time>
      </trkpt>
      <trkpt lat="45.92229" lon="4.73668">
        <ele>171</ele>
        <time>2017-07-01T08:46:45Z</time>
      </trkpt>
      <trkpt lat="45.92223" lon="4.73671">
        <ele>171</ele>
        <time>2017-07-01T08:46:46Z</time>
      </trkpt>
      <trkpt lat="45.92218" lon="4.73674">
        <ele>171</ele>
        <time>2017-07-01T08:46:47Z</time>
      </trkpt>
      <trkpt lat="45.92213" lon="4.73676">
        <ele>171</ele>
        <time>2017-07-01T08:46:48Z</time>
      </trkpt>
      <trkpt lat="45.92207" lon="4.73679">
        <ele>171</ele>
        <time>2017-07-01T08:46:49Z</time>
      </trkpt>
      <trkpt lat="45.92201" lon="4.73683">
        <ele>171</ele>
        <time>2017-07-01T08:46:50Z</time>
      </trkpt>
      <trkpt lat="45.92196" lon="4.73686">
        <ele>171</ele>
        <time>2017-07-01T08:46:51Z</time>
      </trkpt>
      <trkpt lat="45.9219" lon="4.73689">
        <ele>171</ele>
        <time>2017-07-01T08:46:52Z</time>
      </trkpt>
      <trkpt lat="45.92184" lon="4.73692">
        <ele>171</ele>
        <time>2017-07-01T08:46:53Z</time>
      </trkpt>
      <trkpt lat="45.92178" lon="4.73695">
        <ele>171</ele>
        <time>2017-07-01T08:46:54Z</time>
      </trkpt>
      <trkpt lat="45.92173" lon="4.73698">
        <ele>171</ele>
        <time>2017-07-01T08:46:55Z</time>
      </trkpt>
      <trkpt lat="45.92167" lon="4.737">
        <ele>171</ele>
        <time>2017-07-01T08:46:56Z</time>
      </trkpt>
      <trkpt lat="45.92162" lon="4.73703">
        <ele>171</ele>
        <time>2017-07-01T08:46:57Z</time>
      </trkpt>
      <trkpt lat="45.92157" lon="4.73705">
        <ele>171</ele>
        <time>2017-07-01T08:46:58Z</time>
      </trkpt>
      <trkpt lat="45.92152" lon="4.73707">
        <ele>171</ele>
        <time>2017-07-01T08:46:59Z</time>
      </trkpt>
      <trkpt lat="45.92147" lon="4.73709">
        <ele>171</ele>
        <time>2017-07-01T08:47:00Z</time>
      </trkpt>
      <trkpt lat="45.92141" lon="4.73712">
        <ele>171</ele>
        <time>2017-07-01T08:47:01Z</time>
      </trkpt>
      <trkpt lat="45.92136" lon="4.73713">
        <ele>171</ele>
        <time>2017-07-01T08:47:02Z</time>
      </trkpt>
      <trkpt lat="45.9213" lon="4.73715">
        <ele>171</ele>
        <time>2017-07-01T08:47:03Z</time>
      </trkpt>
      <trkpt lat="45.92124" lon="4.73717">
        <ele>171</ele>
        <time>2017-07-01T08:47:04Z</time>
      </trkpt>
      <trkpt lat="45.92118" lon="4.73719">
        <ele>171</ele>
        <time>2017-07-01T08:47:05Z</time>
      </trkpt>
      <trkpt lat="45.92112" lon="4.7372">
        <ele>171</ele>
        <time>2017-07-01T08:47:06Z</time>
      </trkpt>
      <trkpt lat="45.92106" lon="4.73722">
        <ele>171</ele>
        <time>2017-07-01T08:47:07Z</time>
      </trkpt>
      <trkpt lat="45.921" lon="4.73723">
        <ele>171</ele>
        <time>2017-07-01T08:47:08Z</time>
      </trkpt>
      <trkpt lat="45.92094" lon="4.73724">
        <ele>171</ele>
        <time>2017-07-01T08:47:09Z</time>
      </trkpt>
      <trkpt lat="45.92088" lon="4.73725">
        <ele>171</ele>
        <time>2017-07-01T08:47:10Z</time>
      </trkpt>
      <trkpt lat="45.92082" lon="4.73726">
        <ele>171</ele>
        <time>2017-07-01T08:47:11Z</time>
      </trkpt>
      <trkpt lat="45.92075" lon="4.73727">
        <ele>171</ele>
        <time>2017-07-01T08:47:12Z</time>
      </trkpt>
      <trkpt lat="45.92069" lon="4.73728">
        <ele>171</ele>
        <time>2017-07-01T08:47:13Z</time>
      </trkpt>
      <trkpt lat="45.92063" lon="4.73728">
        <ele>171</ele>
        <time>2017-07-01T08:47:14Z</time>
      </trkpt>
      <trkpt lat="45.92057" lon="4.73728">
        <ele>171</ele>
        <time>2017-07-01T08:47:15Z</time>
      </trkpt>
      <trkpt lat="45.92051" lon="4.73728">
        <ele>171</ele>
        <time>2017-07-01T08:47:16Z</time>
      </trkpt>
      <trkpt lat="45.92045" lon="4.73728">
        <ele>171</ele>
        <time>2017-07-01T08:47:17Z</time>
      </trkpt>
      <trkpt lat="45.9204" lon="4.73728">
        <ele>171</ele>
        <time>2017-07-01T08:47:18Z</time>
      </trkpt>
      <trkpt lat="45.92034" lon="4.73727">
        <ele>171</ele>
        <time>2017-07-01T08:47:19Z</time>
      </trkpt>
      <trkpt lat="45.92029" lon="4.73727">
        <ele>171</ele>
        <time>2017-07-01T08:47:20Z</time>
      </trkpt>
      <trkpt lat="45.92025" lon="4.73727">
        <ele>171</ele>
        <time>2017-07-01T08:47:21Z</time>
      </trkpt>
      <trkpt lat="45.92021" lon="4.73726">
        <ele>171</ele>
        <time>2017-07-01T08:47:23Z</time>
      </trkpt>
      <trkpt lat="45.92021" lon="4.73726">
        <ele>171</ele>
        <time>2017-07-01T08:47:24Z</time>
      </trkpt>
      <trkpt lat="45.92021" lon="4.73726">
        <ele>171</ele>
        <time>2017-07-01T08:47:45Z</time>
      </trkpt>
      <trkpt lat="45.9202" lon="4.73726">
        <ele>171</ele>
        <time>2017-07-01T08:47:46Z</time>
      </trkpt>
      <trkpt lat="45.92013" lon="4.73726">
        <ele>171</ele>
        <time>2017-07-01T08:47:50Z</time>
      </trkpt>
      <trkpt lat="45.92011" lon="4.73726">
        <ele>171</ele>
        <time>2017-07-01T08:47:51Z</time>
      </trkpt>
      <trkpt lat="45.92004" lon="4.73725">
        <ele>171</ele>
        <time>2017-07-01T08:47:53Z</time>
      </trkpt>
      <trkpt lat="45.92" lon="4.73725">
        <ele>171</ele>
        <time>2017-07-01T08:47:54Z</time>
      </trkpt>
      <trkpt lat="45.91991" lon="4.73726">
        <ele>171</ele>
        <time>2017-07-01T08:47:56Z</time>
      </trkpt>
      <trkpt lat="45.91986" lon="4.73726">
        <ele>171</ele>
        <time>2017-07-01T08:47:57Z</time>
      </trkpt>
      <trkpt lat="45.91981" lon="4.73726">
        <ele>171</ele>
        <time>2017-07-01T08:47:58Z</time>
      </trkpt>
      <trkpt lat="45.91976" lon="4.73726">
        <ele>171</ele>
        <time>2017-07-01T08:47:59Z</time>
      </trkpt>
      <trkpt lat="45.91971" lon="4.73726">
        <ele>171</ele>
        <time>2017-07-01T08:48:00Z</time>
      </trkpt>
      <trkpt lat="45.91965" lon="4.73726">
        <ele>171</ele>
        <time>2017-07-01T08:48:01Z</time>
      </trkpt>
      <trkpt lat="45.9196" lon="4.73726">
        <ele>171</ele>
        <time>2017-07-01T08:48:02Z</time>
      </trkpt>
      <trkpt lat="45.91954" lon="4.73727">
        <ele>170</ele>
        <time>2017-07-01T08:48:03Z</time>
      </trkpt>
      <trkpt lat="45.91948" lon="4.73727">
        <ele>170</ele>
        <time>2017-07-01T08:48:04Z</time>
      </trkpt>
      <trkpt lat="45.91942" lon="4.73727">
        <ele>170</ele>
        <time>2017-07-01T08:48:05Z</time>
      </trkpt>
      <trkpt lat="45.91936" lon="4.73727">
        <ele>170</ele>
        <time>2017-07-01T08:48:06Z</time>
      </trkpt>
      <trkpt lat="45.9193" lon="4.73728">
        <ele>170</ele>
        <time>2017-07-01T08:48:07Z</time>
      </trkpt>
      <trkpt lat="45.91924" lon="4.73728">
        <ele>170</ele>
        <time>2017-07-01T08:48:08Z</time>
      </trkpt>
      <trkpt lat="45.91918" lon="4.73728">
        <ele>170</ele>
        <time>2017-07-01T08:48:09Z</time>
      </trkpt>
      <trkpt lat="45.91913" lon="4.73728">
        <ele>171</ele>
        <time>2017-07-01T08:48:10Z</time>
      </trkpt>
      <trkpt lat="45.91907" lon="4.73728">
        <ele>171</ele>
        <time>2017-07-01T08:48:11Z</time>
      </trkpt>
      <trkpt lat="45.91902" lon="4.73729">
        <ele>171</ele>
        <time>2017-07-01T08:48:12Z</time>
      </trkpt>
      <trkpt lat="45.91896" lon="4.73729">
        <ele>171</ele>
        <time>2017-07-01T08:48:13Z</time>
      </trkpt>
      <trkpt lat="45.91891" lon="4.73729">
        <ele>171</ele>
        <time>2017-07-01T08:48:14Z</time>
      </trkpt>
      <trkpt lat="45.91886" lon="4.73729">
        <ele>171</ele>
        <time>2017-07-01T08:48:15Z</time>
      </trkpt>
      <trkpt lat="45.91881" lon="4.73729">
        <ele>171</ele>
        <time>2017-07-01T08:48:16Z</time>
      </trkpt>
      <trkpt lat="45.91876" lon="4.73729">
        <ele>171</ele>
        <time>2017-07-01T08:48:17Z</time>
      </trkpt>
      <trkpt lat="45.9187" lon="4.73729">
        <ele>171</ele>
        <time>2017-07-01T08:48:18Z</time>
      </trkpt>
      <trkpt lat="45.91865" lon="4.73729">
        <ele>171</ele>
        <time>2017-07-01T08:48:19Z</time>
      </trkpt>
      <trkpt lat="45.91859" lon="4.73729">
        <ele>171</ele>
        <time>2017-07-01T08:48:20Z</time>
      </trkpt>
      <trkpt lat="45.91853" lon="4.73729">
        <ele>171</ele>
        <time>2017-07-01T08:48:21Z</time>
      </trkpt>
      <trkpt lat="45.91847" lon="4.73729">
        <ele>172</ele>
        <time>2017-07-01T08:48:22Z</time>
      </trkpt>
      <trkpt lat="45.91841" lon="4.73729">
        <ele>172</ele>
        <time>2017-07-01T08:48:23Z</time>
      </trkpt>
      <trkpt lat="45.91835" lon="4.73729">
        <ele>172</ele>
        <time>2017-07-01T08:48:24Z</time>
      </trkpt>
      <trkpt lat="45.91829" lon="4.73728">
        <ele>172</ele>
        <time>2017-07-01T08:48:25Z</time>
      </trkpt>
      <trkpt lat="45.91823" lon="4.73729">
        <ele>172</ele>
        <time>2017-07-01T08:48:26Z</time>
      </trkpt>
      <trkpt lat="45.91817" lon="4.73729">
        <ele>172</ele>
        <time>2017-07-01T08:48:27Z</time>
      </trkpt>
      <trkpt lat="45.91811" lon="4.73729">
        <ele>172</ele>
        <time>2017-07-01T08:48:28Z</time>
      </trkpt>
      <trkpt lat="45.91805" lon="4.7373">
        <ele>172</ele>
        <time>2017-07-01T08:48:29Z</time>
      </trkpt>
      <trkpt lat="45.918" lon="4.73731">
        <ele>172</ele>
        <time>2017-07-01T08:48:30Z</time>
      </trkpt>
      <trkpt lat="45.91795" lon="4.73731">
        <ele>172</ele>
        <time>2017-07-01T08:48:31Z</time>
      </trkpt>
      <trkpt lat="45.9179" lon="4.73732">
        <ele>173</ele>
        <time>2017-07-01T08:48:32Z</time>
      </trkpt>
      <trkpt lat="45.91785" lon="4.73732">
        <ele>173</ele>
        <time>2017-07-01T08:48:33Z</time>
      </trkpt>
      <trkpt lat="45.91779" lon="4.73731">
        <ele>173</ele>
        <time>2017-07-01T08:48:34Z</time>
      </trkpt>
      <trkpt lat="45.91774" lon="4.73731">
        <ele>173</ele>
        <time>2017-07-01T08:48:35Z</time>
      </trkpt>
      <trkpt lat="45.91769" lon="4.73731">
        <ele>173</ele>
        <time>2017-07-01T08:48:36Z</time>
      </trkpt>
      <trkpt lat="45.91763" lon="4.73732">
        <ele>173</ele>
        <time>2017-07-01T08:48:37Z</time>
      </trkpt>
      <trkpt lat="45.91757" lon="4.73732">
        <ele>173</ele>
        <time>2017-07-01T08:48:38Z</time>
      </trkpt>
      <trkpt lat="45.91752" lon="4.73732">
        <ele>173</ele>
        <time>2017-07-01T08:48:39Z</time>
      </trkpt>
      <trkpt lat="45.91745" lon="4.73732">
        <ele>173</ele>
        <time>2017-07-01T08:48:40Z</time>
      </trkpt>
      <trkpt lat="45.91739" lon="4.73732">
        <ele>173</ele>
        <time>2017-07-01T08:48:41Z</time>
      </trkpt>
      <trkpt lat="45.91733" lon="4.73733">
        <ele>173</ele>
        <time>2017-07-01T08:48:42Z</time>
      </trkpt>
      <trkpt lat="45.91727" lon="4.73733">
        <ele>173</ele>
        <time>2017-07-01T08:48:43Z</time>
      </trkpt>
      <trkpt lat="45.91721" lon="4.73733">
        <ele>173</ele>
        <time>2017-07-01T08:48:44Z</time>
      </trkpt>
      <trkpt lat="45.91715" lon="4.73733">
        <ele>173</ele>
        <time>2017-07-01T08:48:45Z</time>
      </trkpt>
      <trkpt lat="45.91708" lon="4.73732">
        <ele>172</ele>
        <time>2017-07-01T08:48:46Z</time>
      </trkpt>
      <trkpt lat="45.91701" lon="4.73732">
        <ele>172</ele>
        <time>2017-07-01T08:48:47Z</time>
      </trkpt>
      <trkpt lat="45.91695" lon="4.73733">
        <ele>172</ele>
        <time>2017-07-01T08:48:48Z</time>
      </trkpt>
      <trkpt lat="45.91688" lon="4.73733">
        <ele>172</ele>
        <time>2017-07-01T08:48:49Z</time>
      </trkpt>
      <trkpt lat="45.9168" lon="4.73733">
        <ele>172</ele>
        <time>2017-07-01T08:48:50Z</time>
      </trkpt>
      <trkpt lat="45.91673" lon="4.73733">
        <ele>172</ele>
        <time>2017-07-01T08:48:51Z</time>
      </trkpt>
      <trkpt lat="45.91667" lon="4.73733">
        <ele>172</ele>
        <time>2017-07-01T08:48:52Z</time>
      </trkpt>
      <trkpt lat="45.9166" lon="4.73733">
        <ele>172</ele>
        <time>2017-07-01T08:48:53Z</time>
      </trkpt>
      <trkpt lat="45.91654" lon="4.73733">
        <ele>172</ele>
        <time>2017-07-01T08:48:54Z</time>
      </trkpt>
      <trkpt lat="45.91648" lon="4.73734">
        <ele>172</ele>
        <time>2017-07-01T08:48:55Z</time>
      </trkpt>
      <trkpt lat="45.91642" lon="4.73734">
        <ele>172</ele>
        <time>2017-07-01T08:48:56Z</time>
      </trkpt>
      <trkpt lat="45.91636" lon="4.73735">
        <ele>172</ele>
        <time>2017-07-01T08:48:57Z</time>
      </trkpt>
      <trkpt lat="45.91631" lon="4.73734">
        <ele>172</ele>
        <time>2017-07-01T08:48:58Z</time>
      </trkpt>
      <trkpt lat="45.91625" lon="4.73734">
        <ele>173</ele>
        <time>2017-07-01T08:48:59Z</time>
      </trkpt>
      <trkpt lat="45.91619" lon="4.73734">
        <ele>173</ele>
        <time>2017-07-01T08:49:00Z</time>
      </trkpt>
      <trkpt lat="45.91613" lon="4.73734">
        <ele>173</ele>
        <time>2017-07-01T08:49:01Z</time>
      </trkpt>
      <trkpt lat="45.91607" lon="4.73734">
        <ele>173</ele>
        <time>2017-07-01T08:49:02Z</time>
      </trkpt>
      <trkpt lat="45.916" lon="4.73734">
        <ele>173</ele>
        <time>2017-07-01T08:49:03Z</time>
      </trkpt>
      <trkpt lat="45.91594" lon="4.73735">
        <ele>173</ele>
        <time>2017-07-01T08:49:04Z</time>
      </trkpt>
      <trkpt lat="45.91587" lon="4.73735">
        <ele>173</ele>
        <time>2017-07-01T08:49:05Z</time>
      </trkpt>
      <trkpt lat="45.91581" lon="4.73735">
        <ele>173</ele>
        <time>2017-07-01T08:49:06Z</time>
      </trkpt>
      <trkpt lat="45.91574" lon="4.73735">
        <ele>173</ele>
        <time>2017-07-01T08:49:07Z</time>
      </trkpt>
      <trkpt lat="45.91567" lon="4.73735">
        <ele>173</ele>
        <time>2017-07-01T08:49:08Z</time>
      </trkpt>
      <trkpt lat="45.91561" lon="4.73735">
        <ele>173</ele>
        <time>2017-07-01T08:49:09Z</time>
      </trkpt>
      <trkpt lat="45.91554" lon="4.73735">
        <ele>174</ele>
        <time>2017-07-01T08:49:10Z</time>
      </trkpt>
      <trkpt lat="45.91548" lon="4.73736">
        <ele>174</ele>
        <time>2017-07-01T08:49:11Z</time>
      </trkpt>
      <trkpt lat="45.91542" lon="4.73736">
        <ele>174</ele>
        <time>2017-07-01T08:49:12Z</time>
      </trkpt>
      <trkpt lat="45.91536" lon="4.73736">
        <ele>174</ele>
        <time>2017-07-01T08:49:13Z</time>
      </trkpt>
      <trkpt lat="45.9153" lon="4.73736">
        <ele>174</ele>
        <time>2017-07-01T08:49:14Z</time>
      </trkpt>
      <trkpt lat="45.91524" lon="4.73736">
        <ele>174</ele>
        <time>2017-07-01T08:49:15Z</time>
      </trkpt>
      <trkpt lat="45.91518" lon="4.73737">
        <ele>174</ele>
        <time>2017-07-01T08:49:16Z</time>
      </trkpt>
      <trkpt lat="45.91512" lon="4.73737">
        <ele>174</ele>
        <time>2017-07-01T08:49:17Z</time>
      </trkpt>
      <trkpt lat="45.91507" lon="4.73737">
        <ele>174</ele>
        <time>2017-07-01T08:49:18Z</time>
      </trkpt>
      <trkpt lat="45.91501" lon="4.73737">
        <ele>174</ele>
        <time>2017-07-01T08:49:19Z</time>
      </trkpt>
      <trkpt lat="45.91495" lon="4.73737">
        <ele>174</ele>
        <time>2017-07-01T08:49:20Z</time>
      </trkpt>
      <trkpt lat="45.91488" lon="4.73737">
        <ele>174</ele>
        <time>2017-07-01T08:49:21Z</time>
      </trkpt>
      <trkpt lat="45.91482" lon="4.73737">
        <ele>174</ele>
        <time>2017-07-01T08:49:22Z</time>
      </trkpt>
      <trkpt lat="45.91476" lon="4.73737">
        <ele>174</ele>
        <time>2017-07-01T08:49:23Z</time>
      </trkpt>
      <trkpt lat="45.9147" lon="4.73737">
        <ele>174</ele>
        <time>2017-07-01T08:49:24Z</time>
      </trkpt>
      <trkpt lat="45.91463" lon="4.73737">
        <ele>174</ele>
        <time>2017-07-01T08:49:25Z</time>
      </trkpt>
      <trkpt lat="45.91456" lon="4.73737">
        <ele>173</ele>
        <time>2017-07-01T08:49:26Z</time>
      </trkpt>
      <trkpt lat="45.91449" lon="4.73738">
        <ele>173</ele>
        <time>2017-07-01T08:49:27Z</time>
      </trkpt>
      <trkpt lat="45.91442" lon="4.73738">
        <ele>173</ele>
        <time>2017-07-01T08:49:28Z</time>
      </trkpt>
      <trkpt lat="45.91435" lon="4.73738">
        <ele>173</ele>
        <time>2017-07-01T08:49:29Z</time>
      </trkpt>
      <trkpt lat="45.91428" lon="4.73738">
        <ele>173</ele>
        <time>2017-07-01T08:49:30Z</time>
      </trkpt>
      <trkpt lat="45.9142" lon="4.73738">
        <ele>173</ele>
        <time>2017-07-01T08:49:31Z</time>
      </trkpt>
      <trkpt lat="45.91414" lon="4.73738">
        <ele>173</ele>
        <time>2017-07-01T08:49:32Z</time>
      </trkpt>
      <trkpt lat="45.91407" lon="4.73738">
        <ele>173</ele>
        <time>2017-07-01T08:49:33Z</time>
      </trkpt>
      <trkpt lat="45.914" lon="4.73738">
        <ele>173</ele>
        <time>2017-07-01T08:49:34Z</time>
      </trkpt>
      <trkpt lat="45.91393" lon="4.73738">
        <ele>173</ele>
        <time>2017-07-01T08:49:35Z</time>
      </trkpt>
      <trkpt lat="45.91387" lon="4.73738">
        <ele>173</ele>
        <time>2017-07-01T08:49:36Z</time>
      </trkpt>
      <trkpt lat="45.9138" lon="4.73738">
        <ele>173</ele>
        <time>2017-07-01T08:49:37Z</time>
      </trkpt>
      <trkpt lat="45.91374" lon="4.73738">
        <ele>173</ele>
        <time>2017-07-01T08:49:38Z</time>
      </trkpt>
      <trkpt lat="45.91368" lon="4.73737">
        <ele>173</ele>
        <time>2017-07-01T08:49:39Z</time>
      </trkpt>
      <trkpt lat="45.91362" lon="4.73737">
        <ele>173</ele>
        <time>2017-07-01T08:49:40Z</time>
      </trkpt>
      <trkpt lat="45.91356" lon="4.73737">
        <ele>173</ele>
        <time>2017-07-01T08:49:41Z</time>
      </trkpt>
      <trkpt lat="45.9135" lon="4.73737">
        <ele>173</ele>
        <time>2017-07-01T08:49:42Z</time>
      </trkpt>
      <trkpt lat="45.91343" lon="4.73738">
        <ele>173</ele>
        <time>2017-07-01T08:49:43Z</time>
      </trkpt>
      <trkpt lat="45.91337" lon="4.73738">
        <ele>173</ele>
        <time>2017-07-01T08:49:44Z</time>
      </trkpt>
      <trkpt lat="45.91331" lon="4.73738">
        <ele>173</ele>
        <time>2017-07-01T08:49:45Z</time>
      </trkpt>
      <trkpt lat="45.91325" lon="4.73739">
        <ele>173</ele>
        <time>2017-07-01T08:49:46Z</time>
      </trkpt>
      <trkpt lat="45.91318" lon="4.73739">
        <ele>174</ele>
        <time>2017-07-01T08:49:47Z</time>
      </trkpt>
      <trkpt lat="45.91312" lon="4.7374">
        <ele>174</ele>
        <time>2017-07-01T08:49:48Z</time>
      </trkpt>
      <trkpt lat="45.91305" lon="4.7374">
        <ele>174</ele>
        <time>2017-07-01T08:49:49Z</time>
      </trkpt>
      <trkpt lat="45.91298" lon="4.7374">
        <ele>174</ele>
        <time>2017-07-01T08:49:50Z</time>
      </trkpt>
      <trkpt lat="45.91291" lon="4.7374">
        <ele>174</ele>
        <time>2017-07-01T08:49:51Z</time>
      </trkpt>
      <trkpt lat="45.91283" lon="4.7374">
        <ele>174</ele>
        <time>2017-07-01T08:49:52Z</time>
      </trkpt>
      <trkpt lat="45.91276" lon="4.7374">
        <ele>174</ele>
        <time>2017-07-01T08:49:53Z</time>
      </trkpt>
      <trkpt lat="45.91269" lon="4.7374">
        <ele>174</ele>
        <time>2017-07-01T08:49:54Z</time>
      </trkpt>
      <trkpt lat="45.91262" lon="4.7374">
        <ele>174</ele>
        <time>2017-07-01T08:49:55Z</time>
      </trkpt>
      <trkpt lat="45.91255" lon="4.7374">
        <ele>175</ele>
        <time>2017-07-01T08:49:56Z</time>
      </trkpt>
      <trkpt lat="45.91248" lon="4.7374">
        <ele>175</ele>
        <time>2017-07-01T08:49:57Z</time>
      </trkpt>
      <trkpt lat="45.91241" lon="4.7374">
        <ele>175</ele>
        <time>2017-07-01T08:49:58Z</time>
      </trkpt>
      <trkpt lat="45.91234" lon="4.7374">
        <ele>175</ele>
        <time>2017-07-01T08:49:59Z</time>
      </trkpt>
      <trkpt lat="45.91227" lon="4.7374">
        <ele>175</ele>
        <time>2017-07-01T08:50:00Z</time>
      </trkpt>
      <trkpt lat="45.9122" lon="4.73741">
        <ele>175</ele>
        <time>2017-07-01T08:50:01Z</time>
      </trkpt>
      <trkpt lat="45.91214" lon="4.73741">
        <ele>175</ele>
        <time>2017-07-01T08:50:02Z</time>
      </trkpt>
      <trkpt lat="45.91207" lon="4.73741">
        <ele>175</ele>
        <time>2017-07-01T08:50:03Z</time>
      </trkpt>
      <trkpt lat="45.91201" lon="4.73741">
        <ele>175</ele>
        <time>2017-07-01T08:50:04Z</time>
      </trkpt>
      <trkpt lat="45.91195" lon="4.7374">
        <ele>175</ele>
        <time>2017-07-01T08:50:05Z</time>
      </trkpt>
      <trkpt lat="45.91189" lon="4.73738">
        <ele>175</ele>
        <time>2017-07-01T08:50:06Z</time>
      </trkpt>
      <trkpt lat="45.91184" lon="4.73736">
        <ele>175</ele>
        <time>2017-07-01T08:50:07Z</time>
      </trkpt>
      <trkpt lat="45.91179" lon="4.73734">
        <ele>175</ele>
        <time>2017-07-01T08:50:08Z</time>
      </trkpt>
      <trkpt lat="45.91173" lon="4.73732">
        <ele>175</ele>
        <time>2017-07-01T08:50:09Z</time>
      </trkpt>
      <trkpt lat="45.91167" lon="4.73731">
        <ele>175</ele>
        <time>2017-07-01T08:50:10Z</time>
      </trkpt>
      <trkpt lat="45.91162" lon="4.73731">
        <ele>175</ele>
        <time>2017-07-01T08:50:11Z</time>
      </trkpt>
      <trkpt lat="45.91157" lon="4.7373">
        <ele>175</ele>
        <time>2017-07-01T08:50:12Z</time>
      </trkpt>
      <trkpt lat="45.91152" lon="4.73726">
        <ele>175</ele>
        <time>2017-07-01T08:50:13Z</time>
      </trkpt>
      <trkpt lat="45.91149" lon="4.7372">
        <ele>174</ele>
        <time>2017-07-01T08:50:14Z</time>
      </trkpt>
      <trkpt lat="45.91145" lon="4.73714">
        <ele>174</ele>
        <time>2017-07-01T08:50:15Z</time>
      </trkpt>
      <trkpt lat="45.91142" lon="4.73707">
        <ele>174</ele>
        <time>2017-07-01T08:50:16Z</time>
      </trkpt>
      <trkpt lat="45.91139" lon="4.737">
        <ele>174</ele>
        <time>2017-07-01T08:50:17Z</time>
      </trkpt>
      <trkpt lat="45.91136" lon="4.73693">
        <ele>174</ele>
        <time>2017-07-01T08:50:18Z</time>
      </trkpt>
      <trkpt lat="45.91133" lon="4.73686">
        <ele>174</ele>
        <time>2017-07-01T08:50:19Z</time>
      </trkpt>
      <trkpt lat="45.91129" lon="4.73679">
        <ele>174</ele>
        <time>2017-07-01T08:50:20Z</time>
      </trkpt>
      <trkpt lat="45.91126" lon="4.73673">
        <ele>174</ele>
        <time>2017-07-01T08:50:21Z</time>
      </trkpt>
      <trkpt lat="45.91123" lon="4.73666">
        <ele>174</ele>
        <time>2017-07-01T08:50:22Z</time>
      </trkpt>
      <trkpt lat="45.9112" lon="4.73658">
        <ele>174</ele>
        <time>2017-07-01T08:50:23Z</time>
      </trkpt>
      <trkpt lat="45.91117" lon="4.73651">
        <ele>174</ele>
        <time>2017-07-01T08:50:24Z</time>
      </trkpt>
      <trkpt lat="45.91114" lon="4.73644">
        <ele>174</ele>
        <time>2017-07-01T08:50:25Z</time>
      </trkpt>
      <trkpt lat="45.91111" lon="4.73637">
        <ele>174</ele>
        <time>2017-07-01T08:50:26Z</time>
      </trkpt>
      <trkpt lat="45.91108" lon="4.7363">
        <ele>174</ele>
        <time>2017-07-01T08:50:27Z</time>
      </trkpt>
      <trkpt lat="45.91105" lon="4.73622">
        <ele>174</ele>
        <time>2017-07-01T08:50:28Z</time>
      </trkpt>
      <trkpt lat="45.91102" lon="4.73615">
        <ele>174</ele>
        <time>2017-07-01T08:50:29Z</time>
      </trkpt>
      <trkpt lat="45.91099" lon="4.73607">
        <ele>174</ele>
        <time>2017-07-01T08:50:30Z</time>
      </trkpt>
      <trkpt lat="45.91096" lon="4.736">
        <ele>174</ele>
        <time>2017-07-01T08:50:31Z</time>
      </trkpt>
      <trkpt lat="45.91092" lon="4.73593">
        <ele>174</ele>
        <time>2017-07-01T08:50:32Z</time>
      </trkpt>
      <trkpt lat="45.91089" lon="4.73585">
        <ele>174</ele>
        <time>2017-07-01T08:50:33Z</time>
      </trkpt>
      <trkpt lat="45.91085" lon="4.73578">
        <ele>174</ele>
        <time>2017-07-01T08:50:34Z</time>
      </trkpt>
      <trkpt lat="45.91082" lon="4.73571">
        <ele>174</ele>
        <time>2017-07-01T08:50:35Z</time>
      </trkpt>
      <trkpt lat="45.91079" lon="4.73564">
        <ele>174</ele>
        <time>2017-07-01T08:50:36Z</time>
      </trkpt>
      <trkpt lat="45.91077" lon="4.73558">
        <ele>174</ele>
        <time>2017-07-01T08:50:37Z</time>
      </trkpt>
      <trkpt lat="45.91074" lon="4.73552">
        <ele>174</ele>
        <time>2017-07-01T08:50:38Z</time>
      </trkpt>
      <trkpt lat="45.91072" lon="4.73546">
        <ele>174</ele>
        <time>2017-07-01T08:50:39Z</time>
      </trkpt>
      <trkpt lat="45.91069" lon="4.7354">
        <ele>175</ele>
        <time>2017-07-01T08:50:40Z</time>
      </trkpt>
      <trkpt lat="45.91066" lon="4.73533">
        <ele>175</ele>
        <time>2017-07-01T08:50:41Z</time>
      </trkpt>
      <trkpt lat="45.91064" lon="4.73527">
        <ele>175</ele>
        <time>2017-07-01T08:50:42Z</time>
      </trkpt>
      <trkpt lat="45.91061" lon="4.73521">
        <ele>175</ele>
        <time>2017-07-01T08:50:43Z</time>
      </trkpt>
      <trkpt lat="45.91058" lon="4.73514">
        <ele>175</ele>
        <time>2017-07-01T08:50:44Z</time>
      </trkpt>
      <trkpt lat="45.91055" lon="4.73508">
        <ele>175</ele>
        <time>2017-07-01T08:50:45Z</time>
      </trkpt>
      <trkpt lat="45.91052" lon="4.73501">
        <ele>175</ele>
        <time>2017-07-01T08:50:46Z</time>
      </trkpt>
      <trkpt lat="45.91049" lon="4.73494">
        <ele>175</ele>
        <time>2017-07-01T08:50:47Z</time>
      </trkpt>
      <trkpt lat="45.91046" lon="4.73488">
        <ele>175</ele>
        <time>2017-07-01T08:50:48Z</time>
      </trkpt>
      <trkpt lat="45.91043" lon="4.73481">
        <ele>175</ele>
        <time>2017-07-01T08:50:49Z</time>
      </trkpt>
      <trkpt lat="45.9104" lon="4.73475">
        <ele>175</ele>
        <time>2017-07-01T08:50:50Z</time>
      </trkpt>
      <trkpt lat="45.91038" lon="4.73469">
        <ele>175</ele>
        <time>2017-07-01T08:50:51Z</time>
      </trkpt>
      <trkpt lat="45.91036" lon="4.73459">
        <ele>175</ele>
        <time>2017-07-01T08:50:53Z</time>
      </trkpt>
      <trkpt lat="45.91036" lon="4.73456">
        <ele>175</ele>
        <time>2017-07-01T08:50:54Z</time>
      </trkpt>
      <trkpt lat="45.91036" lon="4.73452">
        <ele>175</ele>
        <time>2017-07-01T08:50:56Z</time>
      </trkpt>
      <trkpt lat="45.91036" lon="4.73451">
        <ele>175</ele>
        <time>2017-07-01T08:50:57Z</time>
      </trkpt>
      <trkpt lat="45.91035" lon="4.73451">
        <ele>175</ele>
        <time>2017-07-01T08:51:08Z</time>
      </trkpt>
      <trkpt lat="45.91036" lon="4.73449">
        <ele>175</ele>
        <time>2017-07-01T08:51:09Z</time>
      </trkpt>
      <trkpt lat="45.91038" lon="4.73439">
        <ele>175</ele>
        <time>2017-07-01T08:51:12Z</time>
      </trkpt>
      <trkpt lat="45.91038" lon="4.73435">
        <ele>175</ele>
        <time>2017-07-01T08:51:13Z</time>
      </trkpt>
      <trkpt lat="45.91036" lon="4.73426">
        <ele>175</ele>
        <time>2017-07-01T08:51:15Z</time>
      </trkpt>
      <trkpt lat="45.91034" lon="4.73421">
        <ele>175</ele>
        <time>2017-07-01T08:51:16Z</time>
      </trkpt>
      <trkpt lat="45.91029" lon="4.73413">
        <ele>174</ele>
        <time>2017-07-01T08:51:18Z</time>
      </trkpt>
      <trkpt lat="45.91024" lon="4.73411">
        <ele>174</ele>
        <time>2017-07-01T08:51:19Z</time>
      </trkpt>
      <trkpt lat="45.9102" lon="4.73412">
        <ele>174</ele>
        <time>2017-07-01T08:51:20Z</time>
      </trkpt>
      <trkpt lat="45.91015" lon="4.73416">
        <ele>175</ele>
        <time>2017-07-01T08:51:21Z</time>
      </trkpt>
      <trkpt lat="45.9101" lon="4.73421">
        <ele>175</ele>
        <time>2017-07-01T08:51:22Z</time>
      </trkpt>
      <trkpt lat="45.91006" lon="4.73426">
        <ele>175</ele>
        <time>2017-07-01T08:51:23Z</time>
      </trkpt>
      <trkpt lat="45.91001" lon="4.73432">
        <ele>175</ele>
        <time>2017-07-01T08:51:24Z</time>
      </trkpt>
      <trkpt lat="45.90996" lon="4.73436">
        <ele>175</ele>
        <time>2017-07-01T08:51:25Z</time>
      </trkpt>
      <trkpt lat="45.90991" lon="4.7344">
        <ele>175</ele>
        <time>2017-07-01T08:51:26Z</time>
      </trkpt>
      <trkpt lat="45.90985" lon="4.73443">
        <ele>175</ele>
        <time>2017-07-01T08:51:27Z</time>
      </trkpt>
      <trkpt lat="45.90979" lon="4.73446">
        <ele>175</ele>
        <time>2017-07-01T08:51:28Z</time>
      </trkpt>
      <trkpt lat="45.90973" lon="4.73449">
        <ele>175</ele>
        <time>2017-07-01T08:51:29Z</time>
      </trkpt>
      <trkpt lat="45.90967" lon="4.73452">
        <ele>175</ele>
        <time>2017-07-01T08:51:30Z</time>
      </trkpt>
      <trkpt lat="45.90961" lon="4.73455">
        <ele>175</ele>
        <time>2017-07-01T08:51:31Z</time>
      </trkpt>
      <trkpt lat="45.90955" lon="4.73457">
        <ele>175</ele>
        <time>2017-07-01T08:51:32Z</time>
      </trkpt>
      <trkpt lat="45.90949" lon="4.7346">
        <ele>175</ele>
        <time>2017-07-01T08:51:33Z</time>
      </trkpt>
      <trkpt lat="45.90944" lon="4.73462">
        <ele>175</ele>
        <time>2017-07-01T08:51:34Z</time>
      </trkpt>
      <trkpt lat="45.90938" lon="4.73465">
        <ele>175</ele>
        <time>2017-07-01T08:51:35Z</time>
      </trkpt>
      <trkpt lat="45.90933" lon="4.73468">
        <ele>175</ele>
        <time>2017-07-01T08:51:36Z</time>
      </trkpt>
      <trkpt lat="45.90927" lon="4.7347">
        <ele>175</ele>
        <time>2017-07-01T08:51:37Z</time>
      </trkpt>
      <trkpt lat="45.90921" lon="4.73473">
        <ele>175</ele>
        <time>2017-07-01T08:51:38Z</time>
      </trkpt>
      <trkpt lat="45.90916" lon="4.73475">
        <ele>175</ele>
        <time>2017-07-01T08:51:39Z</time>
      </trkpt>
      <trkpt lat="45.9091" lon="4.73477">
        <ele>175</ele>
        <time>2017-07-01T08:51:40Z</time>
      </trkpt>
      <trkpt lat="45.90904" lon="4.7348">
        <ele>175</ele>
        <time>2017-07-01T08:51:41Z</time>
      </trkpt>
      <trkpt lat="45.90898" lon="4.73482">
        <ele>175</ele>
        <time>2017-07-01T08:51:42Z</time>
      </trkpt>
      <trkpt lat="45.90892" lon="4.73485">
        <ele>175</ele>
        <time>2017-07-01T08:51:43Z</time>
      </trkpt>
      <trkpt lat="45.90886" lon="4.73487">
        <ele>175</ele>
        <time>2017-07-01T08:51:44Z</time>
      </trkpt>
      <trkpt lat="45.9088" lon="4.7349">
        <ele>175</ele>
        <time>2017-07-01T08:51:45Z</time>
      </trkpt>
      <trkpt lat="45.90874" lon="4.73492">
        <ele>175</ele>
        <time>2017-07-01T08:51:46Z</time>
      </trkpt>
      <trkpt lat="45.90868" lon="4.73495">
        <ele>175</ele>
        <time>2017-07-01T08:51:47Z</time>
      </trkpt>
      <trkpt lat="45.90862" lon="4.73498">
        <ele>175</ele>
        <time>2017-07-01T08:51:48Z</time>
      </trkpt>
      <trkpt lat="45.90856" lon="4.735">
        <ele>174</ele>
        <time>2017-07-01T08:51:49Z</time>
      </trkpt>
      <trkpt lat="45.9085" lon="4.73503">
        <ele>174</ele>
        <time>2017-07-01T08:51:50Z</time>
      </trkpt>
      <trkpt lat="45.90843" lon="4.73505">
        <ele>174</ele>
        <time>2017-07-01T08:51:51Z</time>
      </trkpt>
      <trkpt lat="45.90837" lon="4.73507">
        <ele>174</ele>
        <time>2017-07-01T08:51:52Z</time>
      </trkpt>
      <trkpt lat="45.9083" lon="4.7351">
        <ele>175</ele>
        <time>2017-07-01T08:51:53Z</time>
      </trkpt>
      <trkpt lat="45.90824" lon="4.73513">
        <ele>175</ele>
        <time>2017-07-01T08:51:54Z</time>
      </trkpt>
      <trkpt lat="45.90818" lon="4.73516">
        <ele>175</ele>
        <time>2017-07-01T08:51:55Z</time>
      </trkpt>
      <trkpt lat="45.90811" lon="4.73519">
        <ele>175</ele>
        <time>2017-07-01T08:51:56Z</time>
      </trkpt>
      <trkpt lat="45.90805" lon="4.73522">
        <ele>175</ele>
        <time>2017-07-01T08:51:57Z</time>
      </trkpt>
      <trkpt lat="45.90799" lon="4.73525">
        <ele>175</ele>
        <time>2017-07-01T08:51:58Z</time>
      </trkpt>
      <trkpt lat="45.90792" lon="4.73528">
        <ele>176</ele>
        <time>2017-07-01T08:51:59Z</time>
      </trkpt>
      <trkpt lat="45.90786" lon="4.73531">
        <ele>176</ele>
        <time>2017-07-01T08:52:00Z</time>
      </trkpt>
      <trkpt lat="45.90779" lon="4.73534">
        <ele>176</ele>
        <time>2017-07-01T08:52:01Z</time>
      </trkpt>
      <trkpt lat="45.90773" lon="4.73536">
        <ele>176</ele>
        <time>2017-07-01T08:52:02Z</time>
      </trkpt>
      <trkpt lat="45.90767" lon="4.73539">
        <ele>176</ele>
        <time>2017-07-01T08:52:03Z</time>
      </trkpt>
      <trkpt lat="45.9076" lon="4.73542">
        <ele>176</ele>
        <time>2017-07-01T08:52:04Z</time>
      </trkpt>
      <trkpt lat="45.90754" lon="4.73545">
        <ele>176</ele>
        <time>2017-07-01T08:52:05Z</time>
      </trkpt>
      <trkpt lat="45.90747" lon="4.73547">
        <ele>178</ele>
        <time>2017-07-01T08:52:06Z</time>
      </trkpt>
      <trkpt lat="45.90741" lon="4.7355">
        <ele>178</ele>
        <time>2017-07-01T08:52:07Z</time>
      </trkpt>
      <trkpt lat="45.90735" lon="4.73552">
        <ele>178</ele>
        <time>2017-07-01T08:52:08Z</time>
      </trkpt>
      <trkpt lat="45.90729" lon="4.73554">
        <ele>178</ele>
        <time>2017-07-01T08:52:09Z</time>
      </trkpt>
      <trkpt lat="45.90723" lon="4.73556">
        <ele>178</ele>
        <time>2017-07-01T08:52:10Z</time>
      </trkpt>
      <trkpt lat="45.90717" lon="4.73558">
        <ele>178</ele>
        <time>2017-07-01T08:52:11Z</time>
      </trkpt>
      <trkpt lat="45.90711" lon="4.7356">
        <ele>178</ele>
        <time>2017-07-01T08:52:12Z</time>
      </trkpt>
      <trkpt lat="45.90705" lon="4.73563">
        <ele>178</ele>
        <time>2017-07-01T08:52:13Z</time>
      </trkpt>
      <trkpt lat="45.90699" lon="4.73565">
        <ele>178</ele>
        <time>2017-07-01T08:52:14Z</time>
      </trkpt>
      <trkpt lat="45.90693" lon="4.73567">
        <ele>178</ele>
        <time>2017-07-01T08:52:15Z</time>
      </trkpt>
      <trkpt lat="45.90687" lon="4.7357">
        <ele>178</ele>
        <time>2017-07-01T08:52:16Z</time>
      </trkpt>
      <trkpt lat="45.90681" lon="4.73572">
        <ele>179</ele>
        <time>2017-07-01T08:52:17Z</time>
      </trkpt>
      <trkpt lat="45.90675" lon="4.73574">
        <ele>179</ele>
        <time>2017-07-01T08:52:18Z</time>
      </trkpt>
      <trkpt lat="45.90669" lon="4.73577">
        <ele>179</ele>
        <time>2017-07-01T08:52:19Z</time>
      </trkpt>
      <trkpt lat="45.90664" lon="4.73579">
        <ele>179</ele>
        <time>2017-07-01T08:52:20Z</time>
      </trkpt>
      <trkpt lat="45.90658" lon="4.73581">
        <ele>179</ele>
        <time>2017-07-01T08:52:21Z</time>
      </trkpt>
      <trkpt lat="45.90652" lon="4.73584">
        <ele>180</ele>
        <time>2017-07-01T08:52:22Z</time>
      </trkpt>
      <trkpt lat="45.90647" lon="4.73586">
        <ele>181</ele>
        <time>2017-07-01T08:52:23Z</time>
      </trkpt>
      <trkpt lat="45.90641" lon="4.73589">
        <ele>181</ele>
        <time>2017-07-01T08:52:24Z</time>
      </trkpt>
      <trkpt lat="45.90636" lon="4.73591">
        <ele>181</ele>
        <time>2017-07-01T08:52:25Z</time>
      </trkpt>
      <trkpt lat="45.9063" lon="4.73593">
        <ele>181</ele>
        <time>2017-07-01T08:52:26Z</time>
      </trkpt>
      <trkpt lat="45.90625" lon="4.73594">
        <ele>181</ele>
        <time>2017-07-01T08:52:27Z</time>
      </trkpt>
      <trkpt lat="45.9062" lon="4.73597">
        <ele>180</ele>
        <time>2017-07-01T08:52:28Z</time>
      </trkpt>
      <trkpt lat="45.90615" lon="4.73599">
        <ele>180</ele>
        <time>2017-07-01T08:52:29Z</time>
      </trkpt>
      <trkpt lat="45.90609" lon="4.73601">
        <ele>180</ele>
        <time>2017-07-01T08:52:30Z</time>
      </trkpt>
      <trkpt lat="45.90604" lon="4.73604">
        <ele>180</ele>
        <time>2017-07-01T08:52:31Z</time>
      </trkpt>
      <trkpt lat="45.90599" lon="4.73606">
        <ele>180</ele>
        <time>2017-07-01T08:52:32Z</time>
      </trkpt>
      <trkpt lat="45.90593" lon="4.73608">
        <ele>180</ele>
        <time>2017-07-01T08:52:33Z</time>
      </trkpt>
      <trkpt lat="45.90588" lon="4.73611">
        <ele>180</ele>
        <time>2017-07-01T08:52:34Z</time>
      </trkpt>
      <trkpt lat="45.90583" lon="4.73613">
        <ele>178</ele>
        <time>2017-07-01T08:52:35Z</time>
      </trkpt>
      <trkpt lat="45.90578" lon="4.73615">
        <ele>178</ele>
        <time>2017-07-01T08:52:36Z</time>
      </trkpt>
      <trkpt lat="45.90573" lon="4.73618">
        <ele>179</ele>
        <time>2017-07-01T08:52:37Z</time>
      </trkpt>
      <trkpt lat="45.90568" lon="4.7362">
        <ele>179</ele>
        <time>2017-07-01T08:52:38Z</time>
      </trkpt>
      <trkpt lat="45.90563" lon="4.73622">
        <ele>178</ele>
        <time>2017-07-01T08:52:39Z</time>
      </trkpt>
      <trkpt lat="45.90558" lon="4.73624">
        <ele>178</ele>
        <time>2017-07-01T08:52:40Z</time>
      </trkpt>
      <trkpt lat="45.90553" lon="4.73626">
        <ele>178</ele>
        <time>2017-07-01T08:52:41Z</time>
      </trkpt>
      <trkpt lat="45.90548" lon="4.73628">
        <ele>178</ele>
        <time>2017-07-01T08:52:42Z</time>
      </trkpt>
      <trkpt lat="45.90543" lon="4.73631">
        <ele>178</ele>
        <time>2017-07-01T08:52:43Z</time>
      </trkpt>
      <trkpt lat="45.90538" lon="4.73633">
        <ele>178</ele>
        <time>2017-07-01T08:52:44Z</time>
      </trkpt>
      <trkpt lat="45.90534" lon="4.73635">
        <ele>178</ele>
        <time>2017-07-01T08:52:45Z</time>
      </trkpt>
      <trkpt lat="45.90529" lon="4.73637">
        <ele>178</ele>
        <time>2017-07-01T08:52:46Z</time>
      </trkpt>
      <trkpt lat="45.90524" lon="4.73639">
        <ele>178</ele>
        <time>2017-07-01T08:52:47Z</time>
      </trkpt>
      <trkpt lat="45.9052" lon="4.73641">
        <ele>178</ele>
        <time>2017-07-01T08:52:48Z</time>
      </trkpt>
      <trkpt lat="45.90515" lon="4.73643">
        <ele>178</ele>
        <time>2017-07-01T08:52:49Z</time>
      </trkpt>
      <trkpt lat="45.90511" lon="4.73645">
        <ele>178</ele>
        <time>2017-07-01T08:52:50Z</time>
      </trkpt>
      <trkpt lat="45.90506" lon="4.73647">
        <ele>178</ele>
        <time>2017-07-01T08:52:51Z</time>
      </trkpt>
      <trkpt lat="45.90501" lon="4.73649">
        <ele>178</ele>
        <time>2017-07-01T08:52:52Z</time>
      </trkpt>
      <trkpt lat="45.90496" lon="4.73652">
        <ele>177</ele>
        <time>2017-07-01T08:52:53Z</time>
      </trkpt>
      <trkpt lat="45.90491" lon="4.73654">
        <ele>177</ele>
        <time>2017-07-01T08:52:54Z</time>
      </trkpt>
      <trkpt lat="45.90485" lon="4.73656">
        <ele>177</ele>
        <time>2017-07-01T08:52:55Z</time>
      </trkpt>
      <trkpt lat="45.9048" lon="4.73659">
        <ele>177</ele>
        <time>2017-07-01T08:52:56Z</time>
      </trkpt>
      <trkpt lat="45.90474" lon="4.73661">
        <ele>177</ele>
        <time>2017-07-01T08:52:57Z</time>
      </trkpt>
      <trkpt lat="45.90468" lon="4.73664">
        <ele>177</ele>
        <time>2017-07-01T08:52:58Z</time>
      </trkpt>
      <trkpt lat="45.90462" lon="4.73667">
        <ele>177</ele>
        <time>2017-07-01T08:52:59Z</time>
      </trkpt>
      <trkpt lat="45.90457" lon="4.7367">
        <ele>176</ele>
        <time>2017-07-01T08:53:00Z</time>
      </trkpt>
      <trkpt lat="45.90451" lon="4.73672">
        <ele>176</ele>
        <time>2017-07-01T08:53:01Z</time>
      </trkpt>
      <trkpt lat="45.90445" lon="4.73674">
        <ele>176</ele>
        <time>2017-07-01T08:53:02Z</time>
      </trkpt>
      <trkpt lat="45.90439" lon="4.73677">
        <ele>176</ele>
        <time>2017-07-01T08:53:03Z</time>
      </trkpt>
      <trkpt lat="45.90433" lon="4.73679">
        <ele>176</ele>
        <time>2017-07-01T08:53:04Z</time>
      </trkpt>
      <trkpt lat="45.90427" lon="4.73682">
        <ele>177</ele>
        <time>2017-07-01T08:53:05Z</time>
      </trkpt>
      <trkpt lat="45.90421" lon="4.73684">
        <ele>177</ele>
        <time>2017-07-01T08:53:06Z</time>
      </trkpt>
      <trkpt lat="45.90415" lon="4.73687">
        <ele>177</ele>
        <time>2017-07-01T08:53:07Z</time>
      </trkpt>
      <trkpt lat="45.90408" lon="4.7369">
        <ele>177</ele>
        <time>2017-07-01T08:53:08Z</time>
      </trkpt>
      <trkpt lat="45.90402" lon="4.73693">
        <ele>177</ele>
        <time>2017-07-01T08:53:09Z</time>
      </trkpt>
      <trkpt lat="45.90395" lon="4.73696">
        <ele>177</ele>
        <time>2017-07-01T08:53:10Z</time>
      </trkpt>
      <trkpt lat="45.90388" lon="4.73698">
        <ele>177</ele>
        <time>2017-07-01T08:53:11Z</time>
      </trkpt>
      <trkpt lat="45.90381" lon="4.73701">
        <ele>177</ele>
        <time>2017-07-01T08:53:12Z</time>
      </trkpt>
      <trkpt lat="45.90374" lon="4.73704">
        <ele>177</ele>
        <time>2017-07-01T08:53:13Z</time>
      </trkpt>
      <trkpt lat="45.90367" lon="4.73707">
        <ele>177</ele>
        <time>2017-07-01T08:53:14Z</time>
      </trkpt>
      <trkpt lat="45.9036" lon="4.7371">
        <ele>177</ele>
        <time>2017-07-01T08:53:15Z</time>
      </trkpt>
      <trkpt lat="45.90352" lon="4.73714">
        <ele>177</ele>
        <time>2017-07-01T08:53:16Z</time>
      </trkpt>
      <trkpt lat="45.90345" lon="4.73717">
        <ele>177</ele>
        <time>2017-07-01T08:53:17Z</time>
      </trkpt>
      <trkpt lat="45.90337" lon="4.7372">
        <ele>177</ele>
        <time>2017-07-01T08:53:18Z</time>
      </trkpt>
      <trkpt lat="45.90329" lon="4.73723">
        <ele>177</ele>
        <time>2017-07-01T08:53:19Z</time>
      </trkpt>
      <trkpt lat="45.90321" lon="4.73726">
        <ele>177</ele>
        <time>2017-07-01T08:53:20Z</time>
      </trkpt>
      <trkpt lat="45.90314" lon="4.73729">
        <ele>177</ele>
        <time>2017-07-01T08:53:21Z</time>
      </trkpt>
      <trkpt lat="45.90306" lon="4.73732">
        <ele>177</ele>
        <time>2017-07-01T08:53:22Z</time>
      </trkpt>
      <trkpt lat="45.90298" lon="4.73735">
        <ele>177</ele>
        <time>2017-07-01T08:53:23Z</time>
      </trkpt>
      <trkpt lat="45.90291" lon="4.73738">
        <ele>177</ele>
        <time>2017-07-01T08:53:24Z</time>
      </trkpt>
      <trkpt lat="45.90283" lon="4.73742">
        <ele>177</ele>
        <time>2017-07-01T08:53:25Z</time>
      </trkpt>
      <trkpt lat="45.90276" lon="4.73745">
        <ele>177</ele>
        <time>2017-07-01T08:53:26Z</time>
      </trkpt>
      <trkpt lat="45.90268" lon="4.73747">
        <ele>178</ele>
        <time>2017-07-01T08:53:27Z</time>
      </trkpt>
      <trkpt lat="45.90261" lon="4.7375">
        <ele>178</ele>
        <time>2017-07-01T08:53:28Z</time>
      </trkpt>
      <trkpt lat="45.90254" lon="4.73753">
        <ele>178</ele>
        <time>2017-07-01T08:53:29Z</time>
      </trkpt>
      <trkpt lat="45.90248" lon="4.73757">
        <ele>178</ele>
        <time>2017-07-01T08:53:30Z</time>
      </trkpt>
      <trkpt lat="45.90241" lon="4.7376">
        <ele>178</ele>
        <time>2017-07-01T08:53:31Z</time>
      </trkpt>
      <trkpt lat="45.90234" lon="4.73763">
        <ele>177</ele>
        <time>2017-07-01T08:53:32Z</time>
      </trkpt>
      <trkpt lat="45.90228" lon="4.73765">
        <ele>177</ele>
        <time>2017-07-01T08:53:33Z</time>
      </trkpt>
      <trkpt lat="45.90222" lon="4.73769">
        <ele>177</ele>
        <time>2017-07-01T08:53:34Z</time>
      </trkpt>
      <trkpt lat="45.90215" lon="4.73772">
        <ele>177</ele>
        <time>2017-07-01T08:53:35Z</time>
      </trkpt>
      <trkpt lat="45.90209" lon="4.73775">
        <ele>177</ele>
        <time>2017-07-01T08:53:36Z</time>
      </trkpt>
      <trkpt lat="45.90203" lon="4.73777">
        <ele>177</ele>
        <time>2017-07-01T08:53:37Z</time>
      </trkpt>
      <trkpt lat="45.90197" lon="4.7378">
        <ele>177</ele>
        <time>2017-07-01T08:53:38Z</time>
      </trkpt>
      <trkpt lat="45.90191" lon="4.73782">
        <ele>177</ele>
        <time>2017-07-01T08:53:39Z</time>
      </trkpt>
      <trkpt lat="45.90184" lon="4.73785">
        <ele>177</ele>
        <time>2017-07-01T08:53:40Z</time>
      </trkpt>
      <trkpt lat="45.90178" lon="4.73788">
        <ele>177</ele>
        <time>2017-07-01T08:53:41Z</time>
      </trkpt>
      <trkpt lat="45.90172" lon="4.73791">
        <ele>177</ele>
        <time>2017-07-01T08:53:42Z</time>
      </trkpt>
      <trkpt lat="45.90165" lon="4.73793">
        <ele>176</ele>
        <time>2017-07-01T08:53:43Z</time>
      </trkpt>
      <trkpt lat="45.90159" lon="4.73796">
        <ele>176</ele>
        <time>2017-07-01T08:53:44Z</time>
      </trkpt>
      <trkpt lat="45.90152" lon="4.73799">
        <ele>177</ele>
        <time>2017-07-01T08:53:45Z</time>
      </trkpt>
      <trkpt lat="45.90145" lon="4.73801">
        <ele>177</ele>
        <time>2017-07-01T08:53:46Z</time>
      </trkpt>
      <trkpt lat="45.90139" lon="4.73804">
        <ele>177</ele>
        <time>2017-07-01T08:53:47Z</time>
      </trkpt>
      <trkpt lat="45.90132" lon="4.73808">
        <ele>177</ele>
        <time>2017-07-01T08:53:48Z</time>
      </trkpt>
      <trkpt lat="45.90125" lon="4.73811">
        <ele>177</ele>
        <time>2017-07-01T08:53:49Z</time>
      </trkpt>
      <trkpt lat="45.90119" lon="4.73814">
        <ele>177</ele>
        <time>2017-07-01T08:53:50Z</time>
      </trkpt>
      <trkpt lat="45.90112" lon="4.73817">
        <ele>177</ele>
        <time>2017-07-01T08:53:51Z</time>
      </trkpt>
      <trkpt lat="45.90105" lon="4.7382">
        <ele>177</ele>
        <time>2017-07-01T08:53:52Z</time>
      </trkpt>
      <trkpt lat="45.90099" lon="4.73823">
        <ele>177</ele>
        <time>2017-07-01T08:53:53Z</time>
      </trkpt>
      <trkpt lat="45.90092" lon="4.73825">
        <ele>177</ele>
        <time>2017-07-01T08:53:54Z</time>
      </trkpt>
      <trkpt lat="45.90086" lon="4.73828">
        <ele>178</ele>
        <time>2017-07-01T08:53:55Z</time>
      </trkpt>
      <trkpt lat="45.9008" lon="4.7383">
        <ele>178</ele>
        <time>2017-07-01T08:53:56Z</time>
      </trkpt>
      <trkpt lat="45.90074" lon="4.73833">
        <ele>178</ele>
        <time>2017-07-01T08:53:57Z</time>
      </trkpt>
      <trkpt lat="45.90068" lon="4.73835">
        <ele>178</ele>
        <time>2017-07-01T08:53:58Z</time>
      </trkpt>
      <trkpt lat="45.90061" lon="4.73838">
        <ele>178</ele>
        <time>2017-07-01T08:53:59Z</time>
      </trkpt>
      <trkpt lat="45.90055" lon="4.73841">
        <ele>178</ele>
        <time>2017-07-01T08:54:00Z</time>
      </trkpt>
      <trkpt lat="45.90049" lon="4.73843">
        <ele>178</ele>
        <time>2017-07-01T08:54:01Z</time>
      </trkpt>
      <trkpt lat="45.90042" lon="4.73846">
        <ele>178</ele>
        <time>2017-07-01T08:54:02Z</time>
      </trkpt>
      <trkpt lat="45.90036" lon="4.73849">
        <ele>178</ele>
        <time>2017-07-01T08:54:03Z</time>
      </trkpt>
      <trkpt lat="45.90029" lon="4.73852">
        <ele>178</ele>
        <time>2017-07-01T08:54:04Z</time>
      </trkpt>
      <trkpt lat="45.90022" lon="4.73855">
        <ele>178</ele>
        <time>2017-07-01T08:54:05Z</time>
      </trkpt>
      <trkpt lat="45.90015" lon="4.73859">
        <ele>178</ele>
        <time>2017-07-01T08:54:06Z</time>
      </trkpt>
      <trkpt lat="45.90008" lon="4.73861">
        <ele>178</ele>
        <time>2017-07-01T08:54:07Z</time>
      </trkpt>
      <trkpt lat="45.90002" lon="4.73864">
        <ele>178</ele>
        <time>2017-07-01T08:54:08Z</time>
      </trkpt>
      <trkpt lat="45.89996" lon="4.73866">
        <ele>178</ele>
        <time>2017-07-01T08:54:09Z</time>
      </trkpt>
      <trkpt lat="45.8999" lon="4.73868">
        <ele>178</ele>
        <time>2017-07-01T08:54:10Z</time>
      </trkpt>
      <trkpt lat="45.89983" lon="4.73869">
        <ele>178</ele>
        <time>2017-07-01T08:54:11Z</time>
      </trkpt>
      <trkpt lat="45.89977" lon="4.73871">
        <ele>178</ele>
        <time>2017-07-01T08:54:12Z</time>
      </trkpt>
      <trkpt lat="45.89971" lon="4.73874">
        <ele>178</ele>
        <time>2017-07-01T08:54:13Z</time>
      </trkpt>
      <trkpt lat="45.89965" lon="4.73877">
        <ele>178</ele>
        <time>2017-07-01T08:54:14Z</time>
      </trkpt>
      <trkpt lat="45.89958" lon="4.73879">
        <ele>178</ele>
        <time>2017-07-01T08:54:15Z</time>
      </trkpt>
      <trkpt lat="45.89952" lon="4.73882">
        <ele>178</ele>
        <time>2017-07-01T08:54:16Z</time>
      </trkpt>
      <trkpt lat="45.89946" lon="4.73885">
        <ele>178</ele>
        <time>2017-07-01T08:54:17Z</time>
      </trkpt>
      <trkpt lat="45.89939" lon="4.73888">
        <ele>178</ele>
        <time>2017-07-01T08:54:18Z</time>
      </trkpt>
      <trkpt lat="45.89933" lon="4.7389">
        <ele>178</ele>
        <time>2017-07-01T08:54:19Z</time>
      </trkpt>
      <trkpt lat="45.89926" lon="4.73893">
        <ele>178</ele>
        <time>2017-07-01T08:54:20Z</time>
      </trkpt>
      <trkpt lat="45.8992" lon="4.73895">
        <ele>178</ele>
        <time>2017-07-01T08:54:21Z</time>
      </trkpt>
      <trkpt lat="45.89913" lon="4.73898">
        <ele>178</ele>
        <time>2017-07-01T08:54:22Z</time>
      </trkpt>
      <trkpt lat="45.89907" lon="4.73901">
        <ele>178</ele>
        <time>2017-07-01T08:54:23Z</time>
      </trkpt>
      <trkpt lat="45.89901" lon="4.73904">
        <ele>178</ele>
        <time>2017-07-01T08:54:24Z</time>
      </trkpt>
      <trkpt lat="45.89895" lon="4.73906">
        <ele>178</ele>
        <time>2017-07-01T08:54:25Z</time>
      </trkpt>
      <trkpt lat="45.89889" lon="4.73908">
        <ele>179</ele>
        <time>2017-07-01T08:54:26Z</time>
      </trkpt>
      <trkpt lat="45.89883" lon="4.73911">
        <ele>179</ele>
        <time>2017-07-01T08:54:27Z</time>
      </trkpt>
      <trkpt lat="45.89877" lon="4.73913">
        <ele>179</ele>
        <time>2017-07-01T08:54:28Z</time>
      </trkpt>
      <trkpt lat="45.89872" lon="4.73916">
        <ele>179</ele>
        <time>2017-07-01T08:54:29Z</time>
      </trkpt>
      <trkpt lat="45.89866" lon="4.73918">
        <ele>179</ele>
        <time>2017-07-01T08:54:30Z</time>
      </trkpt>
      <trkpt lat="45.89861" lon="4.7392">
        <ele>179</ele>
        <time>2017-07-01T08:54:31Z</time>
      </trkpt>
      <trkpt lat="45.89856" lon="4.73923">
        <ele>179</ele>
        <time>2017-07-01T08:54:32Z</time>
      </trkpt>
      <trkpt lat="45.89851" lon="4.73925">
        <ele>179</ele>
        <time>2017-07-01T08:54:33Z</time>
      </trkpt>
      <trkpt lat="45.89845" lon="4.73928">
        <ele>179</ele>
        <time>2017-07-01T08:54:34Z</time>
      </trkpt>
      <trkpt lat="45.89839" lon="4.7393">
        <ele>179</ele>
        <time>2017-07-01T08:54:35Z</time>
      </trkpt>
      <trkpt lat="45.89834" lon="4.73933">
        <ele>179</ele>
        <time>2017-07-01T08:54:36Z</time>
      </trkpt>
      <trkpt lat="45.89828" lon="4.73935">
        <ele>179</ele>
        <time>2017-07-01T08:54:37Z</time>
      </trkpt>
      <trkpt lat="45.89822" lon="4.73938">
        <ele>179</ele>
        <time>2017-07-01T08:54:38Z</time>
      </trkpt>
      <trkpt lat="45.89815" lon="4.73941">
        <ele>179</ele>
        <time>2017-07-01T08:54:39Z</time>
      </trkpt>
      <trkpt lat="45.89809" lon="4.73943">
        <ele>179</ele>
        <time>2017-07-01T08:54:40Z</time>
      </trkpt>
      <trkpt lat="45.89803" lon="4.73946">
        <ele>179</ele>
        <time>2017-07-01T08:54:41Z</time>
      </trkpt>
      <trkpt lat="45.89797" lon="4.73949">
        <ele>179</ele>
        <time>2017-07-01T08:54:42Z</time>
      </trkpt>
      <trkpt lat="45.89791" lon="4.73952">
        <ele>179</ele>
        <time>2017-07-01T08:54:43Z</time>
      </trkpt>
      <trkpt lat="45.89784" lon="4.73954">
        <ele>179</ele>
        <time>2017-07-01T08:54:44Z</time>
      </trkpt>
      <trkpt lat="45.89778" lon="4.73957">
        <ele>179</ele>
        <time>2017-07-01T08:54:45Z</time>
      </trkpt>
      <trkpt lat="45.89771" lon="4.7396">
        <ele>179</ele>
        <time>2017-07-01T08:54:46Z</time>
      </trkpt>
      <trkpt lat="45.89765" lon="4.73962">
        <ele>179</ele>
        <time>2017-07-01T08:54:47Z</time>
      </trkpt>
      <trkpt lat="45.89759" lon="4.73965">
        <ele>178</ele>
        <time>2017-07-01T08:54:48Z</time>
      </trkpt>
      <trkpt lat="45.89752" lon="4.73968">
        <ele>178</ele>
        <time>2017-07-01T08:54:49Z</time>
      </trkpt>
      <trkpt lat="45.89745" lon="4.7397">
        <ele>178</ele>
        <time>2017-07-01T08:54:50Z</time>
      </trkpt>
      <trkpt lat="45.89738" lon="4.73973">
        <ele>178</ele>
        <time>2017-07-01T08:54:51Z</time>
      </trkpt>
      <trkpt lat="45.89732" lon="4.73976">
        <ele>178</ele>
        <time>2017-07-01T08:54:52Z</time>
      </trkpt>
      <trkpt lat="45.89725" lon="4.73979">
        <ele>178</ele>
        <time>2017-07-01T08:54:53Z</time>
      </trkpt>
      <trkpt lat="45.89719" lon="4.73982">
        <ele>178</ele>
        <time>2017-07-01T08:54:54Z</time>
      </trkpt>
      <trkpt lat="45.89713" lon="4.73984">
        <ele>178</ele>
        <time>2017-07-01T08:54:55Z</time>
      </trkpt>
      <trkpt lat="45.89707" lon="4.73987">
        <ele>178</ele>
        <time>2017-07-01T08:54:56Z</time>
      </trkpt>
      <trkpt lat="45.89702" lon="4.73989">
        <ele>178</ele>
        <time>2017-07-01T08:54:57Z</time>
      </trkpt>
      <trkpt lat="45.89696" lon="4.73992">
        <ele>178</ele>
        <time>2017-07-01T08:54:58Z</time>
      </trkpt>
      <trkpt lat="45.89691" lon="4.73994">
        <ele>179</ele>
        <time>2017-07-01T08:54:59Z</time>
      </trkpt>
      <trkpt lat="45.89685" lon="4.73997">
        <ele>179</ele>
        <time>2017-07-01T08:55:00Z</time>
      </trkpt>
      <trkpt lat="45.8968" lon="4.73999">
        <ele>179</ele>
        <time>2017-07-01T08:55:01Z</time>
      </trkpt>
      <trkpt lat="45.89674" lon="4.74002">
        <ele>179</ele>
        <time>2017-07-01T08:55:02Z</time>
      </trkpt>
      <trkpt lat="45.89669" lon="4.74004">
        <ele>179</ele>
        <time>2017-07-01T08:55:03Z</time>
      </trkpt>
      <trkpt lat="45.89663" lon="4.74006">
        <ele>179</ele>
        <time>2017-07-01T08:55:04Z</time>
      </trkpt>
      <trkpt lat="45.89657" lon="4.74008">
        <ele>179</ele>
        <time>2017-07-01T08:55:05Z</time>
      </trkpt>
      <trkpt lat="45.89651" lon="4.7401">
        <ele>180</ele>
        <time>2017-07-01T08:55:06Z</time>
      </trkpt>
      <trkpt lat="45.89646" lon="4.74013">
        <ele>180</ele>
        <time>2017-07-01T08:55:07Z</time>
      </trkpt>
      <trkpt lat="45.8964" lon="4.74016">
        <ele>180</ele>
        <time>2017-07-01T08:55:08Z</time>
      </trkpt>
      <trkpt lat="45.89634" lon="4.74018">
        <ele>180</ele>
        <time>2017-07-01T08:55:09Z</time>
      </trkpt>
      <trkpt lat="45.89628" lon="4.74021">
        <ele>180</ele>
        <time>2017-07-01T08:55:10Z</time>
      </trkpt>
      <trkpt lat="45.89622" lon="4.74023">
        <ele>180</ele>
        <time>2017-07-01T08:55:11Z</time>
      </trkpt>
      <trkpt lat="45.89616" lon="4.74025">
        <ele>180</ele>
        <time>2017-07-01T08:55:12Z</time>
      </trkpt>
      <trkpt lat="45.89609" lon="4.74028">
        <ele>180</ele>
        <time>2017-07-01T08:55:13Z</time>
      </trkpt>
      <trkpt lat="45.89604" lon="4.7403">
        <ele>180</ele>
        <time>2017-07-01T08:55:14Z</time>
      </trkpt>
      <trkpt lat="45.89597" lon="4.74033">
        <ele>180</ele>
        <time>2017-07-01T08:55:15Z</time>
      </trkpt>
      <trkpt lat="45.89591" lon="4.74036">
        <ele>180</ele>
        <time>2017-07-01T08:55:16Z</time>
      </trkpt>
      <trkpt lat="45.89584" lon="4.74038">
        <ele>180</ele>
        <time>2017-07-01T08:55:17Z</time>
      </trkpt>
      <trkpt lat="45.89578" lon="4.74041">
        <ele>181</ele>
        <time>2017-07-01T08:55:18Z</time>
      </trkpt>
      <trkpt lat="45.89572" lon="4.74044">
        <ele>181</ele>
        <time>2017-07-01T08:55:19Z</time>
      </trkpt>
      <trkpt lat="45.89566" lon="4.74047">
        <ele>181</ele>
        <time>2017-07-01T08:55:20Z</time>
      </trkpt>
      <trkpt lat="45.89561" lon="4.74048">
        <ele>181</ele>
        <time>2017-07-01T08:55:21Z</time>
      </trkpt>
      <trkpt lat="45.89555" lon="4.74051">
        <ele>181</ele>
        <time>2017-07-01T08:55:22Z</time>
      </trkpt>
      <trkpt lat="45.8955" lon="4.74053">
        <ele>181</ele>
        <time>2017-07-01T08:55:23Z</time>
      </trkpt>
      <trkpt lat="45.89544" lon="4.74055">
        <ele>181</ele>
        <time>2017-07-01T08:55:24Z</time>
      </trkpt>
      <trkpt lat="45.89539" lon="4.74057">
        <ele>181</ele>
        <time>2017-07-01T08:55:25Z</time>
      </trkpt>
      <trkpt lat="45.89533" lon="4.7406">
        <ele>181</ele>
        <time>2017-07-01T08:55:26Z</time>
      </trkpt>
      <trkpt lat="45.89528" lon="4.74062">
        <ele>181</ele>
        <time>2017-07-01T08:55:27Z</time>
      </trkpt>
      <trkpt lat="45.89522" lon="4.74065">
        <ele>181</ele>
        <time>2017-07-01T08:55:28Z</time>
      </trkpt>
      <trkpt lat="45.89516" lon="4.74068">
        <ele>181</ele>
        <time>2017-07-01T08:55:29Z</time>
      </trkpt>
      <trkpt lat="45.8951" lon="4.7407">
        <ele>181</ele>
        <time>2017-07-01T08:55:30Z</time>
      </trkpt>
      <trkpt lat="45.89504" lon="4.74073">
        <ele>181</ele>
        <time>2017-07-01T08:55:31Z</time>
      </trkpt>
      <trkpt lat="45.89499" lon="4.74076">
        <ele>181</ele>
        <time>2017-07-01T08:55:32Z</time>
      </trkpt>
      <trkpt lat="45.89493" lon="4.74078">
        <ele>181</ele>
        <time>2017-07-01T08:55:33Z</time>
      </trkpt>
      <trkpt lat="45.89487" lon="4.7408">
        <ele>181</ele>
        <time>2017-07-01T08:55:34Z</time>
      </trkpt>
      <trkpt lat="45.89481" lon="4.74083">
        <ele>181</ele>
        <time>2017-07-01T08:55:35Z</time>
      </trkpt>
      <trkpt lat="45.89474" lon="4.74086">
        <ele>182</ele>
        <time>2017-07-01T08:55:36Z</time>
      </trkpt>
      <trkpt lat="45.89468" lon="4.74089">
        <ele>182</ele>
        <time>2017-07-01T08:55:37Z</time>
      </trkpt>
      <trkpt lat="45.89462" lon="4.74092">
        <ele>182</ele>
        <time>2017-07-01T08:55:38Z</time>
      </trkpt>
      <trkpt lat="45.89456" lon="4.74094">
        <ele>182</ele>
        <time>2017-07-01T08:55:39Z</time>
      </trkpt>
      <trkpt lat="45.8945" lon="4.74097">
        <ele>182</ele>
        <time>2017-07-01T08:55:40Z</time>
      </trkpt>
      <trkpt lat="45.89444" lon="4.74099">
        <ele>182</ele>
        <time>2017-07-01T08:55:41Z</time>
      </trkpt>
      <trkpt lat="45.89439" lon="4.74102">
        <ele>182</ele>
        <time>2017-07-01T08:55:42Z</time>
      </trkpt>
      <trkpt lat="45.89433" lon="4.74104">
        <ele>182</ele>
        <time>2017-07-01T08:55:43Z</time>
      </trkpt>
      <trkpt lat="45.89428" lon="4.74106">
        <ele>183</ele>
        <time>2017-07-01T08:55:44Z</time>
      </trkpt>
      <trkpt lat="45.89422" lon="4.74109">
        <ele>183</ele>
        <time>2017-07-01T08:55:45Z</time>
      </trkpt>
      <trkpt lat="45.89416" lon="4.74111">
        <ele>183</ele>
        <time>2017-07-01T08:55:46Z</time>
      </trkpt>
      <trkpt lat="45.8941" lon="4.74114">
        <ele>183</ele>
        <time>2017-07-01T08:55:47Z</time>
      </trkpt>
      <trkpt lat="45.89404" lon="4.74117">
        <ele>184</ele>
        <time>2017-07-01T08:55:48Z</time>
      </trkpt>
      <trkpt lat="45.89398" lon="4.7412">
        <ele>184</ele>
        <time>2017-07-01T08:55:49Z</time>
      </trkpt>
      <trkpt lat="45.89392" lon="4.74123">
        <ele>184</ele>
        <time>2017-07-01T08:55:50Z</time>
      </trkpt>
      <trkpt lat="45.89387" lon="4.74126">
        <ele>184</ele>
        <time>2017-07-01T08:55:51Z</time>
      </trkpt>
      <trkpt lat="45.89381" lon="4.74129">
        <ele>184</ele>
        <time>2017-07-01T08:55:52Z</time>
      </trkpt>
      <trkpt lat="45.89375" lon="4.74132">
        <ele>184</ele>
        <time>2017-07-01T08:55:53Z</time>
      </trkpt>
      <trkpt lat="45.89369" lon="4.74135">
        <ele>184</ele>
        <time>2017-07-01T08:55:54Z</time>
      </trkpt>
      <trkpt lat="45.89362" lon="4.74137">
        <ele>184</ele>
        <time>2017-07-01T08:55:55Z</time>
      </trkpt>
      <trkpt lat="45.89356" lon="4.7414">
        <ele>184</ele>
        <time>2017-07-01T08:55:56Z</time>
      </trkpt>
      <trkpt lat="45.8935" lon="4.74142">
        <ele>185</ele>
        <time>2017-07-01T08:55:57Z</time>
      </trkpt>
      <trkpt lat="45.89343" lon="4.74145">
        <ele>185</ele>
        <time>2017-07-01T08:55:58Z</time>
      </trkpt>
      <trkpt lat="45.89337" lon="4.74147">
        <ele>185</ele>
        <time>2017-07-01T08:55:59Z</time>
      </trkpt>
      <trkpt lat="45.89331" lon="4.74149">
        <ele>185</ele>
        <time>2017-07-01T08:56:00Z</time>
      </trkpt>
      <trkpt lat="45.89325" lon="4.74151">
        <ele>185</ele>
        <time>2017-07-01T08:56:01Z</time>
      </trkpt>
      <trkpt lat="45.89319" lon="4.74154">
        <ele>185</ele>
        <time>2017-07-01T08:56:02Z</time>
      </trkpt>
      <trkpt lat="45.89314" lon="4.74156">
        <ele>185</ele>
        <time>2017-07-01T08:56:03Z</time>
      </trkpt>
      <trkpt lat="45.89308" lon="4.74158">
        <ele>185</ele>
        <time>2017-07-01T08:56:04Z</time>
      </trkpt>
      <trkpt lat="45.89303" lon="4.7416">
        <ele>185</ele>
        <time>2017-07-01T08:56:05Z</time>
      </trkpt>
      <trkpt lat="45.89298" lon="4.74162">
        <ele>185</ele>
        <time>2017-07-01T08:56:06Z</time>
      </trkpt>
      <trkpt lat="45.89293" lon="4.74163">
        <ele>185</ele>
        <time>2017-07-01T08:56:07Z</time>
      </trkpt>
      <trkpt lat="45.89288" lon="4.74165">
        <ele>185</ele>
        <time>2017-07-01T08:56:08Z</time>
      </trkpt>
      <trkpt lat="45.89283" lon="4.74168">
        <ele>186</ele>
        <time>2017-07-01T08:56:09Z</time>
      </trkpt>
      <trkpt lat="45.89277" lon="4.7417">
        <ele>186</ele>
        <time>2017-07-01T08:56:10Z</time>
      </trkpt>
      <trkpt lat="45.89272" lon="4.74172">
        <ele>186</ele>
        <time>2017-07-01T08:56:11Z</time>
      </trkpt>
      <trkpt lat="45.89266" lon="4.74174">
        <ele>186</ele>
        <time>2017-07-01T08:56:12Z</time>
      </trkpt>
      <trkpt lat="45.8926" lon="4.74176">
        <ele>185</ele>
        <time>2017-07-01T08:56:13Z</time>
      </trkpt>
      <trkpt lat="45.89254" lon="4.74179">
        <ele>185</ele>
        <time>2017-07-01T08:56:14Z</time>
      </trkpt>
      <trkpt lat="45.89248" lon="4.74181">
        <ele>185</ele>
        <time>2017-07-01T08:56:15Z</time>
      </trkpt>
      <trkpt lat="45.89241" lon="4.74183">
        <ele>186</ele>
        <time>2017-07-01T08:56:16Z</time>
      </trkpt>
      <trkpt lat="45.89235" lon="4.74185">
        <ele>186</ele>
        <time>2017-07-01T08:56:17Z</time>
      </trkpt>
      <trkpt lat="45.89229" lon="4.74188">
        <ele>186</ele>
        <time>2017-07-01T08:56:18Z</time>
      </trkpt>
      <trkpt lat="45.89223" lon="4.7419">
        <ele>186</ele>
        <time>2017-07-01T08:56:19Z</time>
      </trkpt>
      <trkpt lat="45.89216" lon="4.74193">
        <ele>186</ele>
        <time>2017-07-01T08:56:20Z</time>
      </trkpt>
      <trkpt lat="45.8921" lon="4.74195">
        <ele>186</ele>
        <time>2017-07-01T08:56:21Z</time>
      </trkpt>
      <trkpt lat="45.89204" lon="4.74198">
        <ele>186</ele>
        <time>2017-07-01T08:56:22Z</time>
      </trkpt>
      <trkpt lat="45.89198" lon="4.742">
        <ele>186</ele>
        <time>2017-07-01T08:56:23Z</time>
      </trkpt>
      <trkpt lat="45.89192" lon="4.74203">
        <ele>186</ele>
        <time>2017-07-01T08:56:24Z</time>
      </trkpt>
      <trkpt lat="45.89186" lon="4.74206">
        <ele>186</ele>
        <time>2017-07-01T08:56:25Z</time>
      </trkpt>
      <trkpt lat="45.8918" lon="4.74209">
        <ele>186</ele>
        <time>2017-07-01T08:56:26Z</time>
      </trkpt>
      <trkpt lat="45.89174" lon="4.74212">
        <ele>186</ele>
        <time>2017-07-01T08:56:27Z</time>
      </trkpt>
      <trkpt lat="45.89168" lon="4.74215">
        <ele>186</ele>
        <time>2017-07-01T08:56:28Z</time>
      </trkpt>
      <trkpt lat="45.89162" lon="4.74217">
        <ele>186</ele>
        <time>2017-07-01T08:56:29Z</time>
      </trkpt>
      <trkpt lat="45.89156" lon="4.74219">
        <ele>186</ele>
        <time>2017-07-01T08:56:30Z</time>
      </trkpt>
      <trkpt lat="45.8915" lon="4.74221">
        <ele>186</ele>
        <time>2017-07-01T08:56:31Z</time>
      </trkpt>
      <trkpt lat="45.89145" lon="4.74223">
        <ele>186</ele>
        <time>2017-07-01T08:56:32Z</time>
      </trkpt>
      <trkpt lat="45.8914" lon="4.74225">
        <ele>186</ele>
        <time>2017-07-01T08:56:33Z</time>
      </trkpt>
      <trkpt lat="45.89134" lon="4.74227">
        <ele>186</ele>
        <time>2017-07-01T08:56:34Z</time>
      </trkpt>
      <trkpt lat="45.89129" lon="4.7423">
        <ele>186</ele>
        <time>2017-07-01T08:56:35Z</time>
      </trkpt>
      <trkpt lat="45.89124" lon="4.74232">
        <ele>186</ele>
        <time>2017-07-01T08:56:36Z</time>
      </trkpt>
      <trkpt lat="45.89119" lon="4.74234">
        <ele>186</ele>
        <time>2017-07-01T08:56:37Z</time>
      </trkpt>
      <trkpt lat="45.89113" lon="4.74236">
        <ele>186</ele>
        <time>2017-07-01T08:56:38Z</time>
      </trkpt>
      <trkpt lat="45.89107" lon="4.74238">
        <ele>186</ele>
        <time>2017-07-01T08:56:39Z</time>
      </trkpt>
      <trkpt lat="45.89102" lon="4.74239">
        <ele>186</ele>
        <time>2017-07-01T08:56:40Z</time>
      </trkpt>
      <trkpt lat="45.89096" lon="4.74241">
        <ele>186</ele>
        <time>2017-07-01T08:56:41Z</time>
      </trkpt>
      <trkpt lat="45.8909" lon="4.74243">
        <ele>186</ele>
        <time>2017-07-01T08:56:42Z</time>
      </trkpt>
      <trkpt lat="45.89085" lon="4.74244">
        <ele>186</ele>
        <time>2017-07-01T08:56:43Z</time>
      </trkpt>
      <trkpt lat="45.89079" lon="4.74247">
        <ele>186</ele>
        <time>2017-07-01T08:56:44Z</time>
      </trkpt>
      <trkpt lat="45.89073" lon="4.74248">
        <ele>186</ele>
        <time>2017-07-01T08:56:45Z</time>
      </trkpt>
      <trkpt lat="45.89068" lon="4.7425">
        <ele>186</ele>
        <time>2017-07-01T08:56:46Z</time>
      </trkpt>
      <trkpt lat="45.89063" lon="4.74253">
        <ele>186</ele>
        <time>2017-07-01T08:56:47Z</time>
      </trkpt>
      <trkpt lat="45.89057" lon="4.74255">
        <ele>187</ele>
        <time>2017-07-01T08:56:48Z</time>
      </trkpt>
      <trkpt lat="45.89052" lon="4.74257">
        <ele>187</ele>
        <time>2017-07-01T08:56:49Z</time>
      </trkpt>
      <trkpt lat="45.89047" lon="4.7426">
        <ele>187</ele>
        <time>2017-07-01T08:56:50Z</time>
      </trkpt>
      <trkpt lat="45.89043" lon="4.74262">
        <ele>187</ele>
        <time>2017-07-01T08:56:51Z</time>
      </trkpt>
      <trkpt lat="45.89034" lon="4.74265">
        <ele>187</ele>
        <time>2017-07-01T08:56:53Z</time>
      </trkpt>
      <trkpt lat="45.8903" lon="4.74267">
        <ele>187</ele>
        <time>2017-07-01T08:56:54Z</time>
      </trkpt>
      <trkpt lat="45.89023" lon="4.74268">
        <ele>187</ele>
        <time>2017-07-01T08:56:56Z</time>
      </trkpt>
      <trkpt lat="45.89021" lon="4.74268">
        <ele>187</ele>
        <time>2017-07-01T08:56:57Z</time>
      </trkpt>
      <trkpt lat="45.89013" lon="4.74271">
        <ele>187</ele>
        <time>2017-07-01T08:57:03Z</time>
      </trkpt>
      <trkpt lat="45.8901" lon="4.74272">
        <ele>187</ele>
        <time>2017-07-01T08:57:04Z</time>
      </trkpt>
      <trkpt lat="45.89003" lon="4.74275">
        <ele>187</ele>
        <time>2017-07-01T08:57:06Z</time>
      </trkpt>
      <trkpt lat="45.88998" lon="4.74276">
        <ele>187</ele>
        <time>2017-07-01T08:57:07Z</time>
      </trkpt>
      <trkpt lat="45.88993" lon="4.74278">
        <ele>187</ele>
        <time>2017-07-01T08:57:08Z</time>
      </trkpt>
      <trkpt lat="45.88988" lon="4.74278">
        <ele>187</ele>
        <time>2017-07-01T08:57:09Z</time>
      </trkpt>
      <trkpt lat="45.88982" lon="4.74278">
        <ele>187</ele>
        <time>2017-07-01T08:57:10Z</time>
      </trkpt>
      <trkpt lat="45.88977" lon="4.74279">
        <ele>187</ele>
        <time>2017-07-01T08:57:11Z</time>
      </trkpt>
      <trkpt lat="45.88972" lon="4.74279">
        <ele>187</ele>
        <time>2017-07-01T08:57:12Z</time>
      </trkpt>
      <trkpt lat="45.88967" lon="4.74278">
        <ele>187</ele>
        <time>2017-07-01T08:57:13Z</time>
      </trkpt>
      <trkpt lat="45.88962" lon="4.74276">
        <ele>187</ele>
        <time>2017-07-01T08:57:14Z</time>
      </trkpt>
      <trkpt lat="45.88958" lon="4.74275">
        <ele>187</ele>
        <time>2017-07-01T08:57:15Z</time>
      </trkpt>
      <trkpt lat="45.8895" lon="4.74272">
        <ele>187</ele>
        <time>2017-07-01T08:57:17Z</time>
      </trkpt>
      <trkpt lat="45.88945" lon="4.74271">
        <ele>187</ele>
        <time>2017-07-01T08:57:18Z</time>
      </trkpt>
      <trkpt lat="45.88938" lon="4.7427">
        <ele>187</ele>
        <time>2017-07-01T08:57:20Z</time>
      </trkpt>
      <trkpt lat="45.88934" lon="4.74269">
        <ele>187</ele>
        <time>2017-07-01T08:57:21Z</time>
      </trkpt>
      <trkpt lat="45.88927" lon="4.74267">
        <ele>187</ele>
        <time>2017-07-01T08:57:23Z</time>
      </trkpt>
      <trkpt lat="45.88923" lon="4.74264">
        <ele>187</ele>
        <time>2017-07-01T08:57:24Z</time>
      </trkpt>
      <trkpt lat="45.88915" lon="4.74259">
        <ele>187</ele>
        <time>2017-07-01T08:57:26Z</time>
      </trkpt>
      <trkpt lat="45.8891" lon="4.74256">
        <ele>187</ele>
        <time>2017-07-01T08:57:27Z</time>
      </trkpt>
      <trkpt lat="45.88905" lon="4.74254">
        <ele>187</ele>
        <time>2017-07-01T08:57:28Z</time>
      </trkpt>
      <trkpt lat="45.88901" lon="4.7425">
        <ele>187</ele>
        <time>2017-07-01T08:57:29Z</time>
      </trkpt>
      <trkpt lat="45.88897" lon="4.74246">
        <ele>187</ele>
        <time>2017-07-01T08:57:30Z</time>
      </trkpt>
      <trkpt lat="45.88892" lon="4.74243">
        <ele>187</ele>
        <time>2017-07-01T08:57:31Z</time>
      </trkpt>
      <trkpt lat="45.88888" lon="4.7424">
        <ele>187</ele>
        <time>2017-07-01T08:57:32Z</time>
      </trkpt>
      <trkpt lat="45.88884" lon="4.74236">
        <ele>187</ele>
        <time>2017-07-01T08:57:33Z</time>
      </trkpt>
      <trkpt lat="45.8888" lon="4.74233">
        <ele>187</ele>
        <time>2017-07-01T08:57:34Z</time>
      </trkpt>
      <trkpt lat="45.88875" lon="4.7423">
        <ele>187</ele>
        <time>2017-07-01T08:57:35Z</time>
      </trkpt>
      <trkpt lat="45.88871" lon="4.74228">
        <ele>187</ele>
        <time>2017-07-01T08:57:36Z</time>
      </trkpt>
      <trkpt lat="45.88867" lon="4.74223">
        <ele>187</ele>
        <time>2017-07-01T08:57:37Z</time>
      </trkpt>
      <trkpt lat="45.88863" lon="4.74218">
        <ele>187</ele>
        <time>2017-07-01T08:57:38Z</time>
      </trkpt>
      <trkpt lat="45.88858" lon="4.74215">
        <ele>187</ele>
        <time>2017-07-01T08:57:39Z</time>
      </trkpt>
      <trkpt lat="45.88853" lon="4.74213">
        <ele>187</ele>
        <time>2017-07-01T08:57:40Z</time>
      </trkpt>
      <trkpt lat="45.88849" lon="4.7421">
        <ele>187</ele>
        <time>2017-07-01T08:57:41Z</time>
      </trkpt>
      <trkpt lat="45.88844" lon="4.74208">
        <ele>187</ele>
        <time>2017-07-01T08:57:42Z</time>
      </trkpt>
      <trkpt lat="45.88839" lon="4.74206">
        <ele>187</ele>
        <time>2017-07-01T08:57:43Z</time>
      </trkpt>
      <trkpt lat="45.88834" lon="4.74202">
        <ele>187</ele>
        <time>2017-07-01T08:57:44Z</time>
      </trkpt>
      <trkpt lat="45.88829" lon="4.742">
        <ele>187</ele>
        <time>2017-07-01T08:57:45Z</time>
      </trkpt>
      <trkpt lat="45.88824" lon="4.74197">
        <ele>187</ele>
        <time>2017-07-01T08:57:46Z</time>
      </trkpt>
      <trkpt lat="45.88818" lon="4.74194">
        <ele>187</ele>
        <time>2017-07-01T08:57:47Z</time>
      </trkpt>
      <trkpt lat="45.88813" lon="4.74191">
        <ele>187</ele>
        <time>2017-07-01T08:57:48Z</time>
      </trkpt>
      <trkpt lat="45.88807" lon="4.74188">
        <ele>187</ele>
        <time>2017-07-01T08:57:49Z</time>
      </trkpt>
      <trkpt lat="45.88802" lon="4.74186">
        <ele>187</ele>
        <time>2017-07-01T08:57:50Z</time>
      </trkpt>
      <trkpt lat="45.88797" lon="4.74184">
        <ele>187</ele>
        <time>2017-07-01T08:57:51Z</time>
      </trkpt>
      <trkpt lat="45.88793" lon="4.74181">
        <ele>188</ele>
        <time>2017-07-01T08:57:52Z</time>
      </trkpt>
      <trkpt lat="45.88788" lon="4.74179">
        <ele>188</ele>
        <time>2017-07-01T08:57:53Z</time>
      </trkpt>
      <trkpt lat="45.88784" lon="4.74177">
        <ele>188</ele>
        <time>2017-07-01T08:57:54Z</time>
      </trkpt>
      <trkpt lat="45.88779" lon="4.74175">
        <ele>188</ele>
        <time>2017-07-01T08:57:55Z</time>
      </trkpt>
      <trkpt lat="45.88775" lon="4.74172">
        <ele>188</ele>
        <time>2017-07-01T08:57:56Z</time>
      </trkpt>
      <trkpt lat="45.8877" lon="4.74169">
        <ele>188</ele>
        <time>2017-07-01T08:57:57Z</time>
      </trkpt>
      <trkpt lat="45.88766" lon="4.74167">
        <ele>188</ele>
        <time>2017-07-01T08:57:58Z</time>
      </trkpt>
      <trkpt lat="45.88762" lon="4.74164">
        <ele>187</ele>
        <time>2017-07-01T08:57:59Z</time>
      </trkpt>
      <trkpt lat="45.88758" lon="4.7416">
        <ele>187</ele>
        <time>2017-07-01T08:58:00Z</time>
      </trkpt>
      <trkpt lat="45.88754" lon="4.74156">
        <ele>187</ele>
        <time>2017-07-01T08:58:01Z</time>
      </trkpt>
      <trkpt lat="45.88749" lon="4.74152">
        <ele>188</ele>
        <time>2017-07-01T08:58:02Z</time>
      </trkpt>
      <trkpt lat="45.88744" lon="4.74149">
        <ele>188</ele>
        <time>2017-07-01T08:58:03Z</time>
      </trkpt>
      <trkpt lat="45.88739" lon="4.74145">
        <ele>188</ele>
        <time>2017-07-01T08:58:04Z</time>
      </trkpt>
      <trkpt lat="45.88734" lon="4.74141">
        <ele>188</ele>
        <time>2017-07-01T08:58:05Z</time>
      </trkpt>
      <trkpt lat="45.8873" lon="4.74137">
        <ele>188</ele>
        <time>2017-07-01T08:58:06Z</time>
      </trkpt>
      <trkpt lat="45.88726" lon="4.74133">
        <ele>188</ele>
        <time>2017-07-01T08:58:07Z</time>
      </trkpt>
      <trkpt lat="45.88722" lon="4.74129">
        <ele>188</ele>
        <time>2017-07-01T08:58:08Z</time>
      </trkpt>
      <trkpt lat="45.88718" lon="4.74125">
        <ele>188</ele>
        <time>2017-07-01T08:58:09Z</time>
      </trkpt>
      <trkpt lat="45.88714" lon="4.7412">
        <ele>188</ele>
        <time>2017-07-01T08:58:10Z</time>
      </trkpt>
      <trkpt lat="45.8871" lon="4.74116">
        <ele>188</ele>
        <time>2017-07-01T08:58:11Z</time>
      </trkpt>
      <trkpt lat="45.88705" lon="4.74112">
        <ele>188</ele>
        <time>2017-07-01T08:58:12Z</time>
      </trkpt>
      <trkpt lat="45.88701" lon="4.74111">
        <ele>188</ele>
        <time>2017-07-01T08:58:13Z</time>
      </trkpt>
      <trkpt lat="45.88696" lon="4.74109">
        <ele>188</ele>
        <time>2017-07-01T08:58:14Z</time>
      </trkpt>
      <trkpt lat="45.88692" lon="4.74107">
        <ele>188</ele>
        <time>2017-07-01T08:58:15Z</time>
      </trkpt>
      <trkpt lat="45.88683" lon="4.74104">
        <ele>188</ele>
        <time>2017-07-01T08:58:17Z</time>
      </trkpt>
      <trkpt lat="45.8868" lon="4.74102">
        <ele>188</ele>
        <time>2017-07-01T08:58:18Z</time>
      </trkpt>
      <trkpt lat="45.88678" lon="4.74097">
        <ele>188</ele>
        <time>2017-07-01T08:58:19Z</time>
      </trkpt>
      <trkpt lat="45.88675" lon="4.7409">
        <ele>188</ele>
        <time>2017-07-01T08:58:20Z</time>
      </trkpt>
      <trkpt lat="45.88672" lon="4.74083">
        <ele>188</ele>
        <time>2017-07-01T08:58:21Z</time>
      </trkpt>
      <trkpt lat="45.88669" lon="4.74076">
        <ele>188</ele>
        <time>2017-07-01T08:58:22Z</time>
      </trkpt>
      <trkpt lat="45.88666" lon="4.74069">
        <ele>188</ele>
        <time>2017-07-01T08:58:23Z</time>
      </trkpt>
      <trkpt lat="45.88664" lon="4.74061">
        <ele>187</ele>
        <time>2017-07-01T08:58:24Z</time>
      </trkpt>
      <trkpt lat="45.88661" lon="4.74054">
        <ele>187</ele>
        <time>2017-07-01T08:58:25Z</time>
      </trkpt>
      <trkpt lat="45.88659" lon="4.74047">
        <ele>187</ele>
        <time>2017-07-01T08:58:26Z</time>
      </trkpt>
      <trkpt lat="45.88658" lon="4.7404">
        <ele>187</ele>
        <time>2017-07-01T08:58:27Z</time>
      </trkpt>
      <trkpt lat="45.88656" lon="4.74033">
        <ele>187</ele>
        <time>2017-07-01T08:58:28Z</time>
      </trkpt>
      <trkpt lat="45.88655" lon="4.74025">
        <ele>187</ele>
        <time>2017-07-01T08:58:29Z</time>
      </trkpt>
      <trkpt lat="45.88654" lon="4.74018">
        <ele>187</ele>
        <time>2017-07-01T08:58:30Z</time>
      </trkpt>
      <trkpt lat="45.88654" lon="4.74009">
        <ele>187</ele>
        <time>2017-07-01T08:58:31Z</time>
      </trkpt>
      <trkpt lat="45.88653" lon="4.74001">
        <ele>187</ele>
        <time>2017-07-01T08:58:32Z</time>
      </trkpt>
      <trkpt lat="45.88652" lon="4.73993">
        <ele>186</ele>
        <time>2017-07-01T08:58:33Z</time>
      </trkpt>
      <trkpt lat="45.8865" lon="4.73985">
        <ele>187</ele>
        <time>2017-07-01T08:58:34Z</time>
      </trkpt>
      <trkpt lat="45.88649" lon="4.73976">
        <ele>187</ele>
        <time>2017-07-01T08:58:35Z</time>
      </trkpt>
      <trkpt lat="45.88648" lon="4.73968">
        <ele>187</ele>
        <time>2017-07-01T08:58:36Z</time>
      </trkpt>
      <trkpt lat="45.88648" lon="4.73959">
        <ele>187</ele>
        <time>2017-07-01T08:58:37Z</time>
      </trkpt>
      <trkpt lat="45.88647" lon="4.7395">
        <ele>187</ele>
        <time>2017-07-01T08:58:38Z</time>
      </trkpt>
      <trkpt lat="45.88645" lon="4.73941">
        <ele>187</ele>
        <time>2017-07-01T08:58:39Z</time>
      </trkpt>
      <trkpt lat="45.88645" lon="4.73932">
        <ele>187</ele>
        <time>2017-07-01T08:58:40Z</time>
      </trkpt>
      <trkpt lat="45.88644" lon="4.73922">
        <ele>187</ele>
        <time>2017-07-01T08:58:41Z</time>
      </trkpt>
      <trkpt lat="45.88644" lon="4.73913">
        <ele>187</ele>
        <time>2017-07-01T08:58:42Z</time>
      </trkpt>
      <trkpt lat="45.88645" lon="4.73904">
        <ele>187</ele>
        <time>2017-07-01T08:58:43Z</time>
      </trkpt>
      <trkpt lat="45.88645" lon="4.73896">
        <ele>187</ele>
        <time>2017-07-01T08:58:44Z</time>
      </trkpt>
      <trkpt lat="45.88645" lon="4.73889">
        <ele>187</ele>
        <time>2017-07-01T08:58:45Z</time>
      </trkpt>
      <trkpt lat="45.88645" lon="4.73882">
        <ele>187</ele>
        <time>2017-07-01T08:58:46Z</time>
      </trkpt>
      <trkpt lat="45.88645" lon="4.73875">
        <ele>187</ele>
        <time>2017-07-01T08:58:47Z</time>
      </trkpt>
      <trkpt lat="45.88645" lon="4.73868">
        <ele>187</ele>
        <time>2017-07-01T08:58:48Z</time>
      </trkpt>
      <trkpt lat="45.88645" lon="4.73861">
        <ele>187</ele>
        <time>2017-07-01T08:58:49Z</time>
      </trkpt>
      <trkpt lat="45.88645" lon="4.73853">
        <ele>187</ele>
        <time>2017-07-01T08:58:50Z</time>
      </trkpt>
      <trkpt lat="45.88646" lon="4.73846">
        <ele>187</ele>
        <time>2017-07-01T08:58:51Z</time>
      </trkpt>
      <trkpt lat="45.88646" lon="4.73839">
        <ele>187</ele>
        <time>2017-07-01T08:58:52Z</time>
      </trkpt>
      <trkpt lat="45.88646" lon="4.73832">
        <ele>187</ele>
        <time>2017-07-01T08:58:53Z</time>
      </trkpt>
      <trkpt lat="45.88646" lon="4.73826">
        <ele>187</ele>
        <time>2017-07-01T08:58:54Z</time>
      </trkpt>
      <trkpt lat="45.88646" lon="4.73819">
        <ele>187</ele>
        <time>2017-07-01T08:58:55Z</time>
      </trkpt>
      <trkpt lat="45.88647" lon="4.73813">
        <ele>187</ele>
        <time>2017-07-01T08:58:56Z</time>
      </trkpt>
      <trkpt lat="45.88647" lon="4.738">
        <ele>187</ele>
        <time>2017-07-01T08:58:58Z</time>
      </trkpt>
      <trkpt lat="45.88647" lon="4.73794">
        <ele>187</ele>
        <time>2017-07-01T08:58:59Z</time>
      </trkpt>
      <trkpt lat="45.88647" lon="4.73782">
        <ele>187</ele>
        <time>2017-07-01T08:59:01Z</time>
      </trkpt>
      <trkpt lat="45.88647" lon="4.73775">
        <ele>187</ele>
        <time>2017-07-01T08:59:02Z</time>
      </trkpt>
      <trkpt lat="45.88647" lon="4.73763">
        <ele>187</ele>
        <time>2017-07-01T08:59:04Z</time>
      </trkpt>
      <trkpt lat="45.88648" lon="4.73757">
        <ele>187</ele>
        <time>2017-07-01T08:59:05Z</time>
      </trkpt>
      <trkpt lat="45.88649" lon="4.73745">
        <ele>187</ele>
        <time>2017-07-01T08:59:08Z</time>
      </trkpt>
      <trkpt lat="45.88649" lon="4.73742">
        <ele>187</ele>
        <time>2017-07-01T08:59:09Z</time>
      </trkpt>
      <trkpt lat="45.88648" lon="4.73731">
        <ele>186</ele>
        <time>2017-07-01T08:59:12Z</time>
      </trkpt>
      <trkpt lat="45.88648" lon="4.73726">
        <ele>186</ele>
        <time>2017-07-01T08:59:13Z</time>
      </trkpt>
      <trkpt lat="45.88649" lon="4.73715">
        <ele>186</ele>
        <time>2017-07-01T08:59:15Z</time>
      </trkpt>
      <trkpt lat="45.88649" lon="4.7371">
        <ele>186</ele>
        <time>2017-07-01T08:59:16Z</time>
      </trkpt>
      <trkpt lat="45.88649" lon="4.73699">
        <ele>186</ele>
        <time>2017-07-01T08:59:18Z</time>
      </trkpt>
      <trkpt lat="45.88649" lon="4.73694">
        <ele>186</ele>
        <time>2017-07-01T08:59:19Z</time>
      </trkpt>
      <trkpt lat="45.88649" lon="4.73684">
        <ele>186</ele>
        <time>2017-07-01T08:59:21Z</time>
      </trkpt>
      <trkpt lat="45.88649" lon="4.73678">
        <ele>186</ele>
        <time>2017-07-01T08:59:22Z</time>
      </trkpt>
      <trkpt lat="45.88649" lon="4.73666">
        <ele>186</ele>
        <time>2017-07-01T08:59:24Z</time>
      </trkpt>
      <trkpt lat="45.88649" lon="4.7366">
        <ele>186</ele>
        <time>2017-07-01T08:59:25Z</time>
      </trkpt>
      <trkpt lat="45.8865" lon="4.73653">
        <ele>186</ele>
        <time>2017-07-01T08:59:26Z</time>
      </trkpt>
      <trkpt lat="45.8865" lon="4.73647">
        <ele>186</ele>
        <time>2017-07-01T08:59:27Z</time>
      </trkpt>
      <trkpt lat="45.8865" lon="4.7364">
        <ele>186</ele>
        <time>2017-07-01T08:59:28Z</time>
      </trkpt>
      <trkpt lat="45.8865" lon="4.73633">
        <ele>186</ele>
        <time>2017-07-01T08:59:29Z</time>
      </trkpt>
      <trkpt lat="45.8865" lon="4.73627">
        <ele>186</ele>
        <time>2017-07-01T08:59:30Z</time>
      </trkpt>
      <trkpt lat="45.8865" lon="4.7362">
        <ele>186</ele>
        <time>2017-07-01T08:59:31Z</time>
      </trkpt>
      <trkpt lat="45.8865" lon="4.73614">
        <ele>186</ele>
        <time>2017-07-01T08:59:32Z</time>
      </trkpt>
      <trkpt lat="45.8865" lon="4.73607">
        <ele>186</ele>
        <time>2017-07-01T08:59:33Z</time>
      </trkpt>
      <trkpt lat="45.8865" lon="4.73599">
        <ele>185</ele>
        <time>2017-07-01T08:59:34Z</time>
      </trkpt>
      <trkpt lat="45.88651" lon="4.73592">
        <ele>185</ele>
        <time>2017-07-01T08:59:35Z</time>
      </trkpt>
      <trkpt lat="45.88651" lon="4.73583">
        <ele>185</ele>
        <time>2017-07-01T08:59:36Z</time>
      </trkpt>
      <trkpt lat="45.88651" lon="4.73575">
        <ele>185</ele>
        <time>2017-07-01T08:59:37Z</time>
      </trkpt>
      <trkpt lat="45.88651" lon="4.73565">
        <ele>185</ele>
        <time>2017-07-01T08:59:38Z</time>
      </trkpt>
      <trkpt lat="45.88652" lon="4.73556">
        <ele>185</ele>
        <time>2017-07-01T08:59:39Z</time>
      </trkpt>
      <trkpt lat="45.88653" lon="4.73546">
        <ele>185</ele>
        <time>2017-07-01T08:59:40Z</time>
      </trkpt>
      <trkpt lat="45.88654" lon="4.73536">
        <ele>185</ele>
        <time>2017-07-01T08:59:41Z</time>
      </trkpt>
      <trkpt lat="45.88656" lon="4.73525">
        <ele>185</ele>
        <time>2017-07-01T08:59:42Z</time>
      </trkpt>
      <trkpt lat="45.88658" lon="4.73515">
        <ele>185</ele>
        <time>2017-07-01T08:59:43Z</time>
      </trkpt>
      <trkpt lat="45.88659" lon="4.73505">
        <ele>184</ele>
        <time>2017-07-01T08:59:44Z</time>
      </trkpt>
      <trkpt lat="45.88661" lon="4.73495">
        <ele>184</ele>
        <time>2017-07-01T08:59:45Z</time>
      </trkpt>
      <trkpt lat="45.88662" lon="4.73485">
        <ele>184</ele>
        <time>2017-07-01T08:59:46Z</time>
      </trkpt>
      <trkpt lat="45.88661" lon="4.73475">
        <ele>184</ele>
        <time>2017-07-01T08:59:47Z</time>
      </trkpt>
      <trkpt lat="45.88661" lon="4.73465">
        <ele>184</ele>
        <time>2017-07-01T08:59:48Z</time>
      </trkpt>
      <trkpt lat="45.88659" lon="4.73455">
        <ele>184</ele>
        <time>2017-07-01T08:59:49Z</time>
      </trkpt>
      <trkpt lat="45.88658" lon="4.73444">
        <ele>184</ele>
        <time>2017-07-01T08:59:50Z</time>
      </trkpt>
      <trkpt lat="45.88657" lon="4.73435">
        <ele>184</ele>
        <time>2017-07-01T08:59:51Z</time>
      </trkpt>
      <trkpt lat="45.88655" lon="4.73425">
        <ele>184</ele>
        <time>2017-07-01T08:59:52Z</time>
      </trkpt>
      <trkpt lat="45.88654" lon="4.73416">
        <ele>184</ele>
        <time>2017-07-01T08:59:53Z</time>
      </trkpt>
      <trkpt lat="45.88652" lon="4.73408">
        <ele>184</ele>
        <time>2017-07-01T08:59:54Z</time>
      </trkpt>
      <trkpt lat="45.88649" lon="4.734">
        <ele>184</ele>
        <time>2017-07-01T08:59:55Z</time>
      </trkpt>
      <trkpt lat="45.88645" lon="4.73393">
        <ele>184</ele>
        <time>2017-07-01T08:59:56Z</time>
      </trkpt>
      <trkpt lat="45.8864" lon="4.73389">
        <ele>184</ele>
        <time>2017-07-01T08:59:57Z</time>
      </trkpt>
      <trkpt lat="45.88634" lon="4.73386">
        <ele>184</ele>
        <time>2017-07-01T08:59:58Z</time>
      </trkpt>
      <trkpt lat="45.88627" lon="4.73384">
        <ele>183</ele>
        <time>2017-07-01T08:59:59Z</time>
      </trkpt>
      <trkpt lat="45.88621" lon="4.73385">
        <ele>183</ele>
        <time>2017-07-01T09:00:00Z</time>
      </trkpt>
      <trkpt lat="45.88615" lon="4.73385">
        <ele>183</ele>
        <time>2017-07-01T09:00:01Z</time>
      </trkpt>
      <trkpt lat="45.88609" lon="4.73387">
        <ele>183</ele>
        <time>2017-07-01T09:00:02Z</time>
      </trkpt>
      <trkpt lat="45.88602" lon="4.7339">
        <ele>183</ele>
        <time>2017-07-01T09:00:03Z</time>
      </trkpt>
      <trkpt lat="45.88596" lon="4.73392">
        <ele>183</ele>
        <time>2017-07-01T09:00:04Z</time>
      </trkpt>
      <trkpt lat="45.88589" lon="4.73393">
        <ele>183</ele>
        <time>2017-07-01T09:00:05Z</time>
      </trkpt>
      <trkpt lat="45.88583" lon="4.73395">
        <ele>183</ele>
        <time>2017-07-01T09:00:06Z</time>
      </trkpt>
      <trkpt lat="45.88577" lon="4.73397">
        <ele>183</ele>
        <time>2017-07-01T09:00:07Z</time>
      </trkpt>
      <trkpt lat="45.88572" lon="4.73398">
        <ele>183</ele>
        <time>2017-07-01T09:00:08Z</time>
      </trkpt>
      <trkpt lat="45.88566" lon="4.734">
        <ele>183</ele>
        <time>2017-07-01T09:00:09Z</time>
      </trkpt>
      <trkpt lat="45.8856" lon="4.73401">
        <ele>183</ele>
        <time>2017-07-01T09:00:10Z</time>
      </trkpt>
      <trkpt lat="45.88555" lon="4.73403">
        <ele>183</ele>
        <time>2017-07-01T09:00:11Z</time>
      </trkpt>
      <trkpt lat="45.88548" lon="4.73404">
        <ele>183</ele>
        <time>2017-07-01T09:00:12Z</time>
      </trkpt>
      <trkpt lat="45.88543" lon="4.73406">
        <ele>183</ele>
        <time>2017-07-01T09:00:13Z</time>
      </trkpt>
      <trkpt lat="45.88537" lon="4.73408">
        <ele>183</ele>
        <time>2017-07-01T09:00:14Z</time>
      </trkpt>
      <trkpt lat="45.88531" lon="4.73409">
        <ele>183</ele>
        <time>2017-07-01T09:00:15Z</time>
      </trkpt>
      <trkpt lat="45.88525" lon="4.73411">
        <ele>183</ele>
        <time>2017-07-01T09:00:16Z</time>
      </trkpt>
      <trkpt lat="45.88518" lon="4.73413">
        <ele>184</ele>
        <time>2017-07-01T09:00:17Z</time>
      </trkpt>
      <trkpt lat="45.88512" lon="4.73415">
        <ele>184</ele>
        <time>2017-07-01T09:00:18Z</time>
      </trkpt>
      <trkpt lat="45.88507" lon="4.73417">
        <ele>184</ele>
        <time>2017-07-01T09:00:19Z</time>
      </trkpt>
      <trkpt lat="45.88501" lon="4.73419">
        <ele>184</ele>
        <time>2017-07-01T09:00:20Z</time>
      </trkpt>
      <trkpt lat="45.88496" lon="4.7342">
        <ele>184</ele>
        <time>2017-07-01T09:00:21Z</time>
      </trkpt>
      <trkpt lat="45.8849" lon="4.73422">
        <ele>184</ele>
        <time>2017-07-01T09:00:22Z</time>
      </trkpt>
      <trkpt lat="45.88485" lon="4.73423">
        <ele>184</ele>
        <time>2017-07-01T09:00:23Z</time>
      </trkpt>
      <trkpt lat="45.8848" lon="4.73424">
        <ele>184</ele>
        <time>2017-07-01T09:00:24Z</time>
      </trkpt>
      <trkpt lat="45.88475" lon="4.73425">
        <ele>184</ele>
        <time>2017-07-01T09:00:25Z</time>
      </trkpt>
      <trkpt lat="45.8847" lon="4.73427">
        <ele>184</ele>
        <time>2017-07-01T09:00:26Z</time>
      </trkpt>
      <trkpt lat="45.88465" lon="4.73428">
        <ele>184</ele>
        <time>2017-07-01T09:00:27Z</time>
      </trkpt>
      <trkpt lat="45.8846" lon="4.7343">
        <ele>184</ele>
        <time>2017-07-01T09:00:28Z</time>
      </trkpt>
      <trkpt lat="45.88454" lon="4.73432">
        <ele>184</ele>
        <time>2017-07-01T09:00:29Z</time>
      </trkpt>
      <trkpt lat="45.88449" lon="4.73433">
        <ele>184</ele>
        <time>2017-07-01T09:00:30Z</time>
      </trkpt>
      <trkpt lat="45.88444" lon="4.73435">
        <ele>184</ele>
        <time>2017-07-01T09:00:31Z</time>
      </trkpt>
      <trkpt lat="45.88438" lon="4.73436">
        <ele>184</ele>
        <time>2017-07-01T09:00:32Z</time>
      </trkpt>
      <trkpt lat="45.88433" lon="4.73438">
        <ele>184</ele>
        <time>2017-07-01T09:00:33Z</time>
      </trkpt>
      <trkpt lat="45.88427" lon="4.73439">
        <ele>184</ele>
        <time>2017-07-01T09:00:34Z</time>
      </trkpt>
      <trkpt lat="45.88421" lon="4.73441">
        <ele>184</ele>
        <time>2017-07-01T09:00:35Z</time>
      </trkpt>
      <trkpt lat="45.88415" lon="4.73443">
        <ele>184</ele>
        <time>2017-07-01T09:00:36Z</time>
      </trkpt>
      <trkpt lat="45.8841" lon="4.73444">
        <ele>184</ele>
        <time>2017-07-01T09:00:37Z</time>
      </trkpt>
      <trkpt lat="45.88404" lon="4.73446">
        <ele>184</ele>
        <time>2017-07-01T09:00:38Z</time>
      </trkpt>
      <trkpt lat="45.88399" lon="4.73447">
        <ele>184</ele>
        <time>2017-07-01T09:00:39Z</time>
      </trkpt>
      <trkpt lat="45.88394" lon="4.73449">
        <ele>184</ele>
        <time>2017-07-01T09:00:40Z</time>
      </trkpt>
      <trkpt lat="45.88389" lon="4.7345">
        <ele>184</ele>
        <time>2017-07-01T09:00:41Z</time>
      </trkpt>
      <trkpt lat="45.88384" lon="4.73452">
        <ele>184</ele>
        <time>2017-07-01T09:00:42Z</time>
      </trkpt>
      <trkpt lat="45.88379" lon="4.73453">
        <ele>184</ele>
        <time>2017-07-01T09:00:43Z</time>
      </trkpt>
      <trkpt lat="45.88374" lon="4.73455">
        <ele>184</ele>
        <time>2017-07-01T09:00:44Z</time>
      </trkpt>
      <trkpt lat="45.88369" lon="4.73456">
        <ele>184</ele>
        <time>2017-07-01T09:00:45Z</time>
      </trkpt>
      <trkpt lat="45.88364" lon="4.73457">
        <ele>184</ele>
        <time>2017-07-01T09:00:46Z</time>
      </trkpt>
      <trkpt lat="45.88358" lon="4.73459">
        <ele>184</ele>
        <time>2017-07-01T09:00:47Z</time>
      </trkpt>
      <trkpt lat="45.88353" lon="4.73461">
        <ele>184</ele>
        <time>2017-07-01T09:00:48Z</time>
      </trkpt>
      <trkpt lat="45.88347" lon="4.73462">
        <ele>184</ele>
        <time>2017-07-01T09:00:49Z</time>
      </trkpt>
      <trkpt lat="45.88342" lon="4.73463">
        <ele>184</ele>
        <time>2017-07-01T09:00:50Z</time>
      </trkpt>
      <trkpt lat="45.88336" lon="4.73465">
        <ele>184</ele>
        <time>2017-07-01T09:00:51Z</time>
      </trkpt>
      <trkpt lat="45.8833" lon="4.73467">
        <ele>184</ele>
        <time>2017-07-01T09:00:52Z</time>
      </trkpt>
      <trkpt lat="45.88324" lon="4.73469">
        <ele>184</ele>
        <time>2017-07-01T09:00:53Z</time>
      </trkpt>
      <trkpt lat="45.88319" lon="4.7347">
        <ele>184</ele>
        <time>2017-07-01T09:00:54Z</time>
      </trkpt>
      <trkpt lat="45.88314" lon="4.73472">
        <ele>184</ele>
        <time>2017-07-01T09:00:55Z</time>
      </trkpt>
      <trkpt lat="45.88309" lon="4.73473">
        <ele>184</ele>
        <time>2017-07-01T09:00:56Z</time>
      </trkpt>
      <trkpt lat="45.88304" lon="4.73475">
        <ele>184</ele>
        <time>2017-07-01T09:00:57Z</time>
      </trkpt>
      <trkpt lat="45.88299" lon="4.73476">
        <ele>184</ele>
        <time>2017-07-01T09:00:58Z</time>
      </trkpt>
      <trkpt lat="45.88295" lon="4.73479">
        <ele>184</ele>
        <time>2017-07-01T09:00:59Z</time>
      </trkpt>
      <trkpt lat="45.8829" lon="4.73482">
        <ele>184</ele>
        <time>2017-07-01T09:01:00Z</time>
      </trkpt>
      <trkpt lat="45.88285" lon="4.73486">
        <ele>184</ele>
        <time>2017-07-01T09:01:01Z</time>
      </trkpt>
      <trkpt lat="45.8828" lon="4.73489">
        <ele>184</ele>
        <time>2017-07-01T09:01:02Z</time>
      </trkpt>
      <trkpt lat="45.88275" lon="4.73493">
        <ele>184</ele>
        <time>2017-07-01T09:01:03Z</time>
      </trkpt>
      <trkpt lat="45.8827" lon="4.73496">
        <ele>184</ele>
        <time>2017-07-01T09:01:04Z</time>
      </trkpt>
      <trkpt lat="45.88265" lon="4.73499">
        <ele>185</ele>
        <time>2017-07-01T09:01:05Z</time>
      </trkpt>
      <trkpt lat="45.8826" lon="4.73503">
        <ele>185</ele>
        <time>2017-07-01T09:01:06Z</time>
      </trkpt>
      <trkpt lat="45.88255" lon="4.73506">
        <ele>185</ele>
        <time>2017-07-01T09:01:07Z</time>
      </trkpt>
      <trkpt lat="45.8825" lon="4.7351">
        <ele>185</ele>
        <time>2017-07-01T09:01:08Z</time>
      </trkpt>
      <trkpt lat="45.88245" lon="4.73513">
        <ele>185</ele>
        <time>2017-07-01T09:01:09Z</time>
      </trkpt>
      <trkpt lat="45.8824" lon="4.73516">
        <ele>185</ele>
        <time>2017-07-01T09:01:10Z</time>
      </trkpt>
      <trkpt lat="45.88235" lon="4.73519">
        <ele>185</ele>
        <time>2017-07-01T09:01:11Z</time>
      </trkpt>
      <trkpt lat="45.88231" lon="4.73522">
        <ele>185</ele>
        <time>2017-07-01T09:01:12Z</time>
      </trkpt>
      <trkpt lat="45.88226" lon="4.73525">
        <ele>185</ele>
        <time>2017-07-01T09:01:13Z</time>
      </trkpt>
      <trkpt lat="45.88221" lon="4.73529">
        <ele>185</ele>
        <time>2017-07-01T09:01:14Z</time>
      </trkpt>
      <trkpt lat="45.88217" lon="4.73532">
        <ele>185</ele>
        <time>2017-07-01T09:01:15Z</time>
      </trkpt>
      <trkpt lat="45.88212" lon="4.73534">
        <ele>185</ele>
        <time>2017-07-01T09:01:16Z</time>
      </trkpt>
      <trkpt lat="45.88207" lon="4.73537">
        <ele>186</ele>
        <time>2017-07-01T09:01:17Z</time>
      </trkpt>
      <trkpt lat="45.88202" lon="4.7354">
        <ele>186</ele>
        <time>2017-07-01T09:01:18Z</time>
      </trkpt>
      <trkpt lat="45.88197" lon="4.73544">
        <ele>186</ele>
        <time>2017-07-01T09:01:19Z</time>
      </trkpt>
      <trkpt lat="45.88191" lon="4.73547">
        <ele>186</ele>
        <time>2017-07-01T09:01:20Z</time>
      </trkpt>
      <trkpt lat="45.88186" lon="4.73551">
        <ele>186</ele>
        <time>2017-07-01T09:01:21Z</time>
      </trkpt>
      <trkpt lat="45.88181" lon="4.73554">
        <ele>186</ele>
        <time>2017-07-01T09:01:22Z</time>
      </trkpt>
      <trkpt lat="45.88177" lon="4.73557">
        <ele>186</ele>
        <time>2017-07-01T09:01:23Z</time>
      </trkpt>
      <trkpt lat="45.88172" lon="4.7356">
        <ele>186</ele>
        <time>2017-07-01T09:01:24Z</time>
      </trkpt>
      <trkpt lat="45.88168" lon="4.73563">
        <ele>186</ele>
        <time>2017-07-01T09:01:25Z</time>
      </trkpt>
      <trkpt lat="45.88163" lon="4.73565">
        <ele>186</ele>
        <time>2017-07-01T09:01:26Z</time>
      </trkpt>
      <trkpt lat="45.88159" lon="4.73568">
        <ele>186</ele>
        <time>2017-07-01T09:01:27Z</time>
      </trkpt>
      <trkpt lat="45.88155" lon="4.73571">
        <ele>186</ele>
        <time>2017-07-01T09:01:28Z</time>
      </trkpt>
      <trkpt lat="45.8815" lon="4.73575">
        <ele>186</ele>
        <time>2017-07-01T09:01:29Z</time>
      </trkpt>
      <trkpt lat="45.88146" lon="4.73578">
        <ele>186</ele>
        <time>2017-07-01T09:01:30Z</time>
      </trkpt>
      <trkpt lat="45.88141" lon="4.73581">
        <ele>186</ele>
        <time>2017-07-01T09:01:31Z</time>
      </trkpt>
      <trkpt lat="45.88136" lon="4.73584">
        <ele>187</ele>
        <time>2017-07-01T09:01:32Z</time>
      </trkpt>
      <trkpt lat="45.88131" lon="4.73587">
        <ele>187</ele>
        <time>2017-07-01T09:01:33Z</time>
      </trkpt>
      <trkpt lat="45.88126" lon="4.7359">
        <ele>187</ele>
        <time>2017-07-01T09:01:34Z</time>
      </trkpt>
      <trkpt lat="45.88121" lon="4.73594">
        <ele>187</ele>
        <time>2017-07-01T09:01:35Z</time>
      </trkpt>
      <trkpt lat="45.88116" lon="4.73597">
        <ele>187</ele>
        <time>2017-07-01T09:01:36Z</time>
      </trkpt>
      <trkpt lat="45.88111" lon="4.73601">
        <ele>187</ele>
        <time>2017-07-01T09:01:37Z</time>
      </trkpt>
      <trkpt lat="45.88106" lon="4.73605">
        <ele>188</ele>
        <time>2017-07-01T09:01:38Z</time>
      </trkpt>
      <trkpt lat="45.88101" lon="4.73608">
        <ele>188</ele>
        <time>2017-07-01T09:01:39Z</time>
      </trkpt>
      <trkpt lat="45.88096" lon="4.73611">
        <ele>188</ele>
        <time>2017-07-01T09:01:40Z</time>
      </trkpt>
      <trkpt lat="45.88092" lon="4.73614">
        <ele>188</ele>
        <time>2017-07-01T09:01:41Z</time>
      </trkpt>
      <trkpt lat="45.88087" lon="4.73616">
        <ele>188</ele>
        <time>2017-07-01T09:01:42Z</time>
      </trkpt>
      <trkpt lat="45.88083" lon="4.73619">
        <ele>188</ele>
        <time>2017-07-01T09:01:43Z</time>
      </trkpt>
      <trkpt lat="45.88078" lon="4.73622">
        <ele>189</ele>
        <time>2017-07-01T09:01:44Z</time>
      </trkpt>
      <trkpt lat="45.88074" lon="4.73626">
        <ele>189</ele>
        <time>2017-07-01T09:01:45Z</time>
      </trkpt>
      <trkpt lat="45.88069" lon="4.73629">
        <ele>189</ele>
        <time>2017-07-01T09:01:46Z</time>
      </trkpt>
      <trkpt lat="45.88065" lon="4.73632">
        <ele>189</ele>
        <time>2017-07-01T09:01:47Z</time>
      </trkpt>
      <trkpt lat="45.8806" lon="4.73635">
        <ele>189</ele>
        <time>2017-07-01T09:01:48Z</time>
      </trkpt>
      <trkpt lat="45.88056" lon="4.73638">
        <ele>189</ele>
        <time>2017-07-01T09:01:49Z</time>
      </trkpt>
      <trkpt lat="45.88051" lon="4.73641">
        <ele>189</ele>
        <time>2017-07-01T09:01:50Z</time>
      </trkpt>
      <trkpt lat="45.88046" lon="4.73644">
        <ele>189</ele>
        <time>2017-07-01T09:01:51Z</time>
      </trkpt>
      <trkpt lat="45.88041" lon="4.73647">
        <ele>189</ele>
        <time>2017-07-01T09:01:52Z</time>
      </trkpt>
      <trkpt lat="45.88036" lon="4.7365">
        <ele>189</ele>
        <time>2017-07-01T09:01:53Z</time>
      </trkpt>
      <trkpt lat="45.8803" lon="4.73653">
        <ele>189</ele>
        <time>2017-07-01T09:01:54Z</time>
      </trkpt>
      <trkpt lat="45.88025" lon="4.73655">
        <ele>189</ele>
        <time>2017-07-01T09:01:55Z</time>
      </trkpt>
      <trkpt lat="45.88019" lon="4.73657">
        <ele>189</ele>
        <time>2017-07-01T09:01:56Z</time>
      </trkpt>
      <trkpt lat="45.88014" lon="4.73657">
        <ele>189</ele>
        <time>2017-07-01T09:01:57Z</time>
      </trkpt>
      <trkpt lat="45.88008" lon="4.73656">
        <ele>189</ele>
        <time>2017-07-01T09:01:58Z</time>
      </trkpt>
      <trkpt lat="45.88002" lon="4.73654">
        <ele>189</ele>
        <time>2017-07-01T09:01:59Z</time>
      </trkpt>
      <trkpt lat="45.87997" lon="4.73652">
        <ele>190</ele>
        <time>2017-07-01T09:02:00Z</time>
      </trkpt>
      <trkpt lat="45.87992" lon="4.7365">
        <ele>190</ele>
        <time>2017-07-01T09:02:01Z</time>
      </trkpt>
      <trkpt lat="45.87987" lon="4.73648">
        <ele>190</ele>
        <time>2017-07-01T09:02:02Z</time>
      </trkpt>
      <trkpt lat="45.87981" lon="4.73647">
        <ele>190</ele>
        <time>2017-07-01T09:02:03Z</time>
      </trkpt>
      <trkpt lat="45.87976" lon="4.73645">
        <ele>189</ele>
        <time>2017-07-01T09:02:04Z</time>
      </trkpt>
      <trkpt lat="45.87971" lon="4.73643">
        <ele>189</ele>
        <time>2017-07-01T09:02:05Z</time>
      </trkpt>
      <trkpt lat="45.87966" lon="4.73642">
        <ele>189</ele>
        <time>2017-07-01T09:02:06Z</time>
      </trkpt>
      <trkpt lat="45.8796" lon="4.7364">
        <ele>189</ele>
        <time>2017-07-01T09:02:07Z</time>
      </trkpt>
      <trkpt lat="45.87955" lon="4.73639">
        <ele>189</ele>
        <time>2017-07-01T09:02:08Z</time>
      </trkpt>
      <trkpt lat="45.87949" lon="4.73638">
        <ele>189</ele>
        <time>2017-07-01T09:02:09Z</time>
      </trkpt>
      <trkpt lat="45.87944" lon="4.73636">
        <ele>190</ele>
        <time>2017-07-01T09:02:10Z</time>
      </trkpt>
      <trkpt lat="45.87938" lon="4.73635">
        <ele>190</ele>
        <time>2017-07-01T09:02:11Z</time>
      </trkpt>
      <trkpt lat="45.87932" lon="4.73634">
        <ele>190</ele>
        <time>2017-07-01T09:02:12Z</time>
      </trkpt>
      <trkpt lat="45.87926" lon="4.73633">
        <ele>190</ele>
        <time>2017-07-01T09:02:13Z</time>
      </trkpt>
      <trkpt lat="45.87921" lon="4.73631">
        <ele>189</ele>
        <time>2017-07-01T09:02:14Z</time>
      </trkpt>
      <trkpt lat="45.87915" lon="4.73629">
        <ele>190</ele>
        <time>2017-07-01T09:02:15Z</time>
      </trkpt>
      <trkpt lat="45.87909" lon="4.73627">
        <ele>190</ele>
        <time>2017-07-01T09:02:16Z</time>
      </trkpt>
      <trkpt lat="45.87904" lon="4.73625">
        <ele>190</ele>
        <time>2017-07-01T09:02:17Z</time>
      </trkpt>
      <trkpt lat="45.87898" lon="4.73624">
        <ele>190</ele>
        <time>2017-07-01T09:02:18Z</time>
      </trkpt>
      <trkpt lat="45.87893" lon="4.73622">
        <ele>190</ele>
        <time>2017-07-01T09:02:19Z</time>
      </trkpt>
      <trkpt lat="45.87888" lon="4.73621">
        <ele>190</ele>
        <time>2017-07-01T09:02:20Z</time>
      </trkpt>
      <trkpt lat="45.87883" lon="4.73619">
        <ele>190</ele>
        <time>2017-07-01T09:02:21Z</time>
      </trkpt>
      <trkpt lat="45.87879" lon="4.73618">
        <ele>190</ele>
        <time>2017-07-01T09:02:22Z</time>
      </trkpt>
      <trkpt lat="45.87874" lon="4.73618">
        <ele>190</ele>
        <time>2017-07-01T09:02:23Z</time>
      </trkpt>
      <trkpt lat="45.87866" lon="4.7362">
        <ele>190</ele>
        <time>2017-07-01T09:02:25Z</time>
      </trkpt>
      <trkpt lat="45.87861" lon="4.73622">
        <ele>190</ele>
        <time>2017-07-01T09:02:26Z</time>
      </trkpt>
      <trkpt lat="45.87857" lon="4.73626">
        <ele>190</ele>
        <time>2017-07-01T09:02:27Z</time>
      </trkpt>
      <trkpt lat="45.87853" lon="4.7363">
        <ele>191</ele>
        <time>2017-07-01T09:02:28Z</time>
      </trkpt>
      <trkpt lat="45.87849" lon="4.73633">
        <ele>191</ele>
        <time>2017-07-01T09:02:29Z</time>
      </trkpt>
      <trkpt lat="45.87845" lon="4.73637">
        <ele>191</ele>
        <time>2017-07-01T09:02:30Z</time>
      </trkpt>
      <trkpt lat="45.87838" lon="4.73634">
        <ele>191</ele>
        <time>2017-07-01T09:02:32Z</time>
      </trkpt>
      <trkpt lat="45.87835" lon="4.7363">
        <ele>191</ele>
        <time>2017-07-01T09:02:33Z</time>
      </trkpt>
      <trkpt lat="45.87833" lon="4.73624">
        <ele>190</ele>
        <time>2017-07-01T09:02:34Z</time>
      </trkpt>
      <trkpt lat="45.8783" lon="4.73618">
        <ele>190</ele>
        <time>2017-07-01T09:02:35Z</time>
      </trkpt>
      <trkpt lat="45.87828" lon="4.73612">
        <ele>190</ele>
        <time>2017-07-01T09:02:36Z</time>
      </trkpt>
      <trkpt lat="45.87824" lon="4.73606">
        <ele>190</ele>
        <time>2017-07-01T09:02:37Z</time>
      </trkpt>
      <trkpt lat="45.87821" lon="4.73599">
        <ele>190</ele>
        <time>2017-07-01T09:02:38Z</time>
      </trkpt>
      <trkpt lat="45.87818" lon="4.73592">
        <ele>190</ele>
        <time>2017-07-01T09:02:39Z</time>
      </trkpt>
      <trkpt lat="45.87815" lon="4.73585">
        <ele>190</ele>
        <time>2017-07-01T09:02:40Z</time>
      </trkpt>
      <trkpt lat="45.87812" lon="4.73578">
        <ele>189</ele>
        <time>2017-07-01T09:02:41Z</time>
      </trkpt>
      <trkpt lat="45.87808" lon="4.7357">
        <ele>189</ele>
        <time>2017-07-01T09:02:42Z</time>
      </trkpt>
      <trkpt lat="45.87805" lon="4.73563">
        <ele>189</ele>
        <time>2017-07-01T09:02:43Z</time>
      </trkpt>
      <trkpt lat="45.87801" lon="4.73555">
        <ele>189</ele>
        <time>2017-07-01T09:02:44Z</time>
      </trkpt>
      <trkpt lat="45.87798" lon="4.73549">
        <ele>189</ele>
        <time>2017-07-01T09:02:45Z</time>
      </trkpt>
      <trkpt lat="45.87795" lon="4.73542">
        <ele>189</ele>
        <time>2017-07-01T09:02:46Z</time>
      </trkpt>
      <trkpt lat="45.87791" lon="4.73536">
        <ele>189</ele>
        <time>2017-07-01T09:02:47Z</time>
      </trkpt>
      <trkpt lat="45.87788" lon="4.73529">
        <ele>189</ele>
        <time>2017-07-01T09:02:48Z</time>
      </trkpt>
      <trkpt lat="45.87784" lon="4.73523">
        <ele>189</ele>
        <time>2017-07-01T09:02:49Z</time>
      </trkpt>
      <trkpt lat="45.87781" lon="4.73515">
        <ele>189</ele>
        <time>2017-07-01T09:02:50Z</time>
      </trkpt>
      <trkpt lat="45.87779" lon="4.73508">
        <ele>189</ele>
        <time>2017-07-01T09:02:51Z</time>
      </trkpt>
      <trkpt lat="45.87776" lon="4.73502">
        <ele>189</ele>
        <time>2017-07-01T09:02:52Z</time>
      </trkpt>
      <trkpt lat="45.87773" lon="4.73495">
        <ele>188</ele>
        <time>2017-07-01T09:02:53Z</time>
      </trkpt>
      <trkpt lat="45.8777" lon="4.7349">
        <ele>188</ele>
        <time>2017-07-01T09:02:54Z</time>
      </trkpt>
      <trkpt lat="45.87767" lon="4.73484">
        <ele>188</ele>
        <time>2017-07-01T09:02:55Z</time>
      </trkpt>
      <trkpt lat="45.87764" lon="4.73478">
        <ele>188</ele>
        <time>2017-07-01T09:02:56Z</time>
      </trkpt>
      <trkpt lat="45.87761" lon="4.7347">
        <ele>188</ele>
        <time>2017-07-01T09:02:57Z</time>
      </trkpt>
      <trkpt lat="45.87758" lon="4.73463">
        <ele>188</ele>
        <time>2017-07-01T09:02:58Z</time>
      </trkpt>
      <trkpt lat="45.87754" lon="4.73456">
        <ele>188</ele>
        <time>2017-07-01T09:02:59Z</time>
      </trkpt>
      <trkpt lat="45.87751" lon="4.73448">
        <ele>188</ele>
        <time>2017-07-01T09:03:00Z</time>
      </trkpt>
      <trkpt lat="45.87748" lon="4.73441">
        <ele>189</ele>
        <time>2017-07-01T09:03:01Z</time>
      </trkpt>
      <trkpt lat="45.87744" lon="4.73435">
        <ele>188</ele>
        <time>2017-07-01T09:03:02Z</time>
      </trkpt>
      <trkpt lat="45.87741" lon="4.73428">
        <ele>188</ele>
        <time>2017-07-01T09:03:03Z</time>
      </trkpt>
      <trkpt lat="45.87738" lon="4.73422">
        <ele>188</ele>
        <time>2017-07-01T09:03:04Z</time>
      </trkpt>
      <trkpt lat="45.87735" lon="4.73415">
        <ele>188</ele>
        <time>2017-07-01T09:03:05Z</time>
      </trkpt>
      <trkpt lat="45.87732" lon="4.73409">
        <ele>188</ele>
        <time>2017-07-01T09:03:06Z</time>
      </trkpt>
      <trkpt lat="45.8773" lon="4.73403">
        <ele>188</ele>
        <time>2017-07-01T09:03:07Z</time>
      </trkpt>
      <trkpt lat="45.87727" lon="4.73396">
        <ele>188</ele>
        <time>2017-07-01T09:03:08Z</time>
      </trkpt>
      <trkpt lat="45.87724" lon="4.73389">
        <ele>188</ele>
        <time>2017-07-01T09:03:09Z</time>
      </trkpt>
      <trkpt lat="45.8772" lon="4.73382">
        <ele>187</ele>
        <time>2017-07-01T09:03:10Z</time>
      </trkpt>
      <trkpt lat="45.87716" lon="4.73375">
        <ele>187</ele>
        <time>2017-07-01T09:03:11Z</time>
      </trkpt>
      <trkpt lat="45.87712" lon="4.73368">
        <ele>187</ele>
        <time>2017-07-01T09:03:12Z</time>
      </trkpt>
      <trkpt lat="45.87709" lon="4.7336">
        <ele>187</ele>
        <time>2017-07-01T09:03:13Z</time>
      </trkpt>
      <trkpt lat="45.87706" lon="4.73353">
        <ele>187</ele>
        <time>2017-07-01T09:03:14Z</time>
      </trkpt>
      <trkpt lat="45.87702" lon="4.73346">
        <ele>187</ele>
        <time>2017-07-01T09:03:15Z</time>
      </trkpt>
      <trkpt lat="45.87699" lon="4.73339">
        <ele>187</ele>
        <time>2017-07-01T09:03:16Z</time>
      </trkpt>
      <trkpt lat="45.87696" lon="4.73333">
        <ele>188</ele>
        <time>2017-07-01T09:03:17Z</time>
      </trkpt>
      <trkpt lat="45.87693" lon="4.73327">
        <ele>188</ele>
        <time>2017-07-01T09:03:18Z</time>
      </trkpt>
      <trkpt lat="45.8769" lon="4.73321">
        <ele>188</ele>
        <time>2017-07-01T09:03:19Z</time>
      </trkpt>
      <trkpt lat="45.87687" lon="4.73315">
        <ele>188</ele>
        <time>2017-07-01T09:03:20Z</time>
      </trkpt>
      <trkpt lat="45.87685" lon="4.73308">
        <ele>188</ele>
        <time>2017-07-01T09:03:21Z</time>
      </trkpt>
      <trkpt lat="45.87682" lon="4.73302">
        <ele>188</ele>
        <time>2017-07-01T09:03:22Z</time>
      </trkpt>
      <trkpt lat="45.87679" lon="4.73296">
        <ele>188</ele>
        <time>2017-07-01T09:03:23Z</time>
      </trkpt>
      <trkpt lat="45.87676" lon="4.73289">
        <ele>188</ele>
        <time>2017-07-01T09:03:24Z</time>
      </trkpt>
      <trkpt lat="45.87673" lon="4.73283">
        <ele>188</ele>
        <time>2017-07-01T09:03:25Z</time>
      </trkpt>
      <trkpt lat="45.8767" lon="4.73275">
        <ele>188</ele>
        <time>2017-07-01T09:03:26Z</time>
      </trkpt>
      <trkpt lat="45.87667" lon="4.73269">
        <ele>188</ele>
        <time>2017-07-01T09:03:27Z</time>
      </trkpt>
      <trkpt lat="45.87664" lon="4.73262">
        <ele>189</ele>
        <time>2017-07-01T09:03:28Z</time>
      </trkpt>
      <trkpt lat="45.8766" lon="4.73256">
        <ele>189</ele>
        <time>2017-07-01T09:03:29Z</time>
      </trkpt>
      <trkpt lat="45.87657" lon="4.73249">
        <ele>189</ele>
        <time>2017-07-01T09:03:30Z</time>
      </trkpt>
      <trkpt lat="45.87653" lon="4.73242">
        <ele>188</ele>
        <time>2017-07-01T09:03:31Z</time>
      </trkpt>
      <trkpt lat="45.8765" lon="4.73235">
        <ele>188</ele>
        <time>2017-07-01T09:03:32Z</time>
      </trkpt>
      <trkpt lat="45.87647" lon="4.73228">
        <ele>188</ele>
        <time>2017-07-01T09:03:33Z</time>
      </trkpt>
      <trkpt lat="45.87643" lon="4.73222">
        <ele>188</ele>
        <time>2017-07-01T09:03:34Z</time>
      </trkpt>
      <trkpt lat="45.8764" lon="4.73215">
        <ele>188</ele>
        <time>2017-07-01T09:03:35Z</time>
      </trkpt>
      <trkpt lat="45.87637" lon="4.73209">
        <ele>188</ele>
        <time>2017-07-01T09:03:36Z</time>
      </trkpt>
      <trkpt lat="45.87634" lon="4.73202">
        <ele>188</ele>
        <time>2017-07-01T09:03:37Z</time>
      </trkpt>
      <trkpt lat="45.8763" lon="4.73196">
        <ele>188</ele>
        <time>2017-07-01T09:03:38Z</time>
      </trkpt>
      <trkpt lat="45.87627" lon="4.7319">
        <ele>188</ele>
        <time>2017-07-01T09:03:39Z</time>
      </trkpt>
      <trkpt lat="45.87624" lon="4.73184">
        <ele>188</ele>
        <time>2017-07-01T09:03:40Z</time>
      </trkpt>
      <trkpt lat="45.87621" lon="4.73177">
        <ele>188</ele>
        <time>2017-07-01T09:03:41Z</time>
      </trkpt>
      <trkpt lat="45.87619" lon="4.73171">
        <ele>187</ele>
        <time>2017-07-01T09:03:42Z</time>
      </trkpt>
      <trkpt lat="45.87615" lon="4.73164">
        <ele>187</ele>
        <time>2017-07-01T09:03:43Z</time>
      </trkpt>
      <trkpt lat="45.87612" lon="4.73157">
        <ele>187</ele>
        <time>2017-07-01T09:03:44Z</time>
      </trkpt>
      <trkpt lat="45.87608" lon="4.7315">
        <ele>187</ele>
        <time>2017-07-01T09:03:45Z</time>
      </trkpt>
      <trkpt lat="45.87604" lon="4.73142">
        <ele>187</ele>
        <time>2017-07-01T09:03:46Z</time>
      </trkpt>
      <trkpt lat="45.876" lon="4.73133">
        <ele>187</ele>
        <time>2017-07-01T09:03:47Z</time>
      </trkpt>
      <trkpt lat="45.87596" lon="4.73125">
        <ele>188</ele>
        <time>2017-07-01T09:03:48Z</time>
      </trkpt>
      <trkpt lat="45.87592" lon="4.73115">
        <ele>188</ele>
        <time>2017-07-01T09:03:49Z</time>
      </trkpt>
      <trkpt lat="45.87588" lon="4.73107">
        <ele>188</ele>
        <time>2017-07-01T09:03:50Z</time>
      </trkpt>
      <trkpt lat="45.87584" lon="4.73099">
        <ele>188</ele>
        <time>2017-07-01T09:03:51Z</time>
      </trkpt>
      <trkpt lat="45.8758" lon="4.73091">
        <ele>188</ele>
        <time>2017-07-01T09:03:52Z</time>
      </trkpt>
      <trkpt lat="45.87576" lon="4.73083">
        <ele>188</ele>
        <time>2017-07-01T09:03:53Z</time>
      </trkpt>
      <trkpt lat="45.87572" lon="4.73075">
        <ele>188</ele>
        <time>2017-07-01T09:03:54Z</time>
      </trkpt>
      <trkpt lat="45.87568" lon="4.73068">
        <ele>188</ele>
        <time>2017-07-01T09:03:55Z</time>
      </trkpt>
      <trkpt lat="45.87565" lon="4.73061">
        <ele>188</ele>
        <time>2017-07-01T09:03:56Z</time>
      </trkpt>
      <trkpt lat="45.87562" lon="4.73055">
        <ele>188</ele>
        <time>2017-07-01T09:03:57Z</time>
      </trkpt>
      <trkpt lat="45.87559" lon="4.73049">
        <ele>188</ele>
        <time>2017-07-01T09:03:58Z</time>
      </trkpt>
      <trkpt lat="45.87555" lon="4.73043">
        <ele>188</ele>
        <time>2017-07-01T09:03:59Z</time>
      </trkpt>
      <trkpt lat="45.87552" lon="4.73037">
        <ele>188</ele>
        <time>2017-07-01T09:04:00Z</time>
      </trkpt>
      <trkpt lat="45.87549" lon="4.7303">
        <ele>188</ele>
        <time>2017-07-01T09:04:01Z</time>
      </trkpt>
      <trkpt lat="45.87546" lon="4.73024">
        <ele>188</ele>
        <time>2017-07-01T09:04:02Z</time>
      </trkpt>
      <trkpt lat="45.87542" lon="4.73017">
        <ele>188</ele>
        <time>2017-07-01T09:04:03Z</time>
      </trkpt>
      <trkpt lat="45.87539" lon="4.73011">
        <ele>187</ele>
        <time>2017-07-01T09:04:04Z</time>
      </trkpt>
      <trkpt lat="45.87536" lon="4.73004">
        <ele>187</ele>
        <time>2017-07-01T09:04:05Z</time>
      </trkpt>
      <trkpt lat="45.87532" lon="4.72997">
        <ele>187</ele>
        <time>2017-07-01T09:04:06Z</time>
      </trkpt>
      <trkpt lat="45.87529" lon="4.7299">
        <ele>187</ele>
        <time>2017-07-01T09:04:07Z</time>
      </trkpt>
      <trkpt lat="45.87525" lon="4.72983">
        <ele>187</ele>
        <time>2017-07-01T09:04:08Z</time>
      </trkpt>
      <trkpt lat="45.87522" lon="4.72977">
        <ele>187</ele>
        <time>2017-07-01T09:04:09Z</time>
      </trkpt>
      <trkpt lat="45.87519" lon="4.72971">
        <ele>187</ele>
        <time>2017-07-01T09:04:10Z</time>
      </trkpt>
      <trkpt lat="45.87515" lon="4.72965">
        <ele>187</ele>
        <time>2017-07-01T09:04:11Z</time>
      </trkpt>
      <trkpt lat="45.87512" lon="4.7296">
        <ele>187</ele>
        <time>2017-07-01T09:04:12Z</time>
      </trkpt>
      <trkpt lat="45.87508" lon="4.72954">
        <ele>187</ele>
        <time>2017-07-01T09:04:13Z</time>
      </trkpt>
      <trkpt lat="45.87504" lon="4.72949">
        <ele>187</ele>
        <time>2017-07-01T09:04:14Z</time>
      </trkpt>
      <trkpt lat="45.875" lon="4.72944">
        <ele>187</ele>
        <time>2017-07-01T09:04:15Z</time>
      </trkpt>
      <trkpt lat="45.87496" lon="4.7294">
        <ele>188</ele>
        <time>2017-07-01T09:04:16Z</time>
      </trkpt>
      <trkpt lat="45.87491" lon="4.72936">
        <ele>188</ele>
        <time>2017-07-01T09:04:17Z</time>
      </trkpt>
      <trkpt lat="45.87486" lon="4.72933">
        <ele>188</ele>
        <time>2017-07-01T09:04:18Z</time>
      </trkpt>
      <trkpt lat="45.87481" lon="4.72928">
        <ele>188</ele>
        <time>2017-07-01T09:04:19Z</time>
      </trkpt>
      <trkpt lat="45.87478" lon="4.72923">
        <ele>188</ele>
        <time>2017-07-01T09:04:20Z</time>
      </trkpt>
      <trkpt lat="45.87474" lon="4.72918">
        <ele>188</ele>
        <time>2017-07-01T09:04:21Z</time>
      </trkpt>
      <trkpt lat="45.87471" lon="4.72912">
        <ele>188</ele>
        <time>2017-07-01T09:04:22Z</time>
      </trkpt>
      <trkpt lat="45.87468" lon="4.72906">
        <ele>188</ele>
        <time>2017-07-01T09:04:23Z</time>
      </trkpt>
      <trkpt lat="45.87465" lon="4.72895">
        <ele>188</ele>
        <time>2017-07-01T09:04:25Z</time>
      </trkpt>
      <trkpt lat="45.87463" lon="4.7289">
        <ele>188</ele>
        <time>2017-07-01T09:04:26Z</time>
      </trkpt>
      <trkpt lat="45.8746" lon="4.7288">
        <ele>188</ele>
        <time>2017-07-01T09:04:28Z</time>
      </trkpt>
      <trkpt lat="45.87458" lon="4.72874">
        <ele>188</ele>
        <time>2017-07-01T09:04:29Z</time>
      </trkpt>
      <trkpt lat="45.87457" lon="4.72868">
        <ele>188</ele>
        <time>2017-07-01T09:04:30Z</time>
      </trkpt>
      <trkpt lat="45.87455" lon="4.72862">
        <ele>188</ele>
        <time>2017-07-01T09:04:31Z</time>
      </trkpt>
      <trkpt lat="45.87453" lon="4.72855">
        <ele>188</ele>
        <time>2017-07-01T09:04:32Z</time>
      </trkpt>
      <trkpt lat="45.8745" lon="4.72849">
        <ele>188</ele>
        <time>2017-07-01T09:04:33Z</time>
      </trkpt>
      <trkpt lat="45.87448" lon="4.72842">
        <ele>188</ele>
        <time>2017-07-01T09:04:34Z</time>
      </trkpt>
      <trkpt lat="45.87445" lon="4.72835">
        <ele>188</ele>
        <time>2017-07-01T09:04:35Z</time>
      </trkpt>
      <trkpt lat="45.87443" lon="4.72828">
        <ele>189</ele>
        <time>2017-07-01T09:04:36Z</time>
      </trkpt>
      <trkpt lat="45.8744" lon="4.72821">
        <ele>189</ele>
        <time>2017-07-01T09:04:37Z</time>
      </trkpt>
      <trkpt lat="45.87437" lon="4.72814">
        <ele>189</ele>
        <time>2017-07-01T09:04:38Z</time>
      </trkpt>
      <trkpt lat="45.87434" lon="4.72807">
        <ele>189</ele>
        <time>2017-07-01T09:04:39Z</time>
      </trkpt>
      <trkpt lat="45.87431" lon="4.728">
        <ele>189</ele>
        <time>2017-07-01T09:04:40Z</time>
      </trkpt>
      <trkpt lat="45.87427" lon="4.72792">
        <ele>189</ele>
        <time>2017-07-01T09:04:41Z</time>
      </trkpt>
      <trkpt lat="45.87424" lon="4.72785">
        <ele>189</ele>
        <time>2017-07-01T09:04:42Z</time>
      </trkpt>
      <trkpt lat="45.87421" lon="4.72778">
        <ele>189</ele>
        <time>2017-07-01T09:04:43Z</time>
      </trkpt>
      <trkpt lat="45.87417" lon="4.72771">
        <ele>189</ele>
        <time>2017-07-01T09:04:44Z</time>
      </trkpt>
      <trkpt lat="45.87414" lon="4.72763">
        <ele>189</ele>
        <time>2017-07-01T09:04:45Z</time>
      </trkpt>
      <trkpt lat="45.8741" lon="4.72756">
        <ele>189</ele>
        <time>2017-07-01T09:04:46Z</time>
      </trkpt>
      <trkpt lat="45.87407" lon="4.7275">
        <ele>189</ele>
        <time>2017-07-01T09:04:47Z</time>
      </trkpt>
      <trkpt lat="45.87404" lon="4.72744">
        <ele>189</ele>
        <time>2017-07-01T09:04:48Z</time>
      </trkpt>
      <trkpt lat="45.874" lon="4.72739">
        <ele>189</ele>
        <time>2017-07-01T09:04:49Z</time>
      </trkpt>
      <trkpt lat="45.87396" lon="4.72735">
        <ele>190</ele>
        <time>2017-07-01T09:04:50Z</time>
      </trkpt>
      <trkpt lat="45.87392" lon="4.7273">
        <ele>190</ele>
        <time>2017-07-01T09:04:51Z</time>
      </trkpt>
      <trkpt lat="45.8739" lon="4.72725">
        <ele>190</ele>
        <time>2017-07-01T09:04:52Z</time>
      </trkpt>
      <trkpt lat="45.87387" lon="4.72719">
        <ele>190</ele>
        <time>2017-07-01T09:04:53Z</time>
      </trkpt>
      <trkpt lat="45.87384" lon="4.72713">
        <ele>190</ele>
        <time>2017-07-01T09:04:54Z</time>
      </trkpt>
      <trkpt lat="45.87382" lon="4.72706">
        <ele>190</ele>
        <time>2017-07-01T09:04:55Z</time>
      </trkpt>
      <trkpt lat="45.87379" lon="4.727">
        <ele>190</ele>
        <time>2017-07-01T09:04:56Z</time>
      </trkpt>
      <trkpt lat="45.87376" lon="4.72694">
        <ele>190</ele>
        <time>2017-07-01T09:04:57Z</time>
      </trkpt>
      <trkpt lat="45.87372" lon="4.72688">
        <ele>190</ele>
        <time>2017-07-01T09:04:58Z</time>
      </trkpt>
      <trkpt lat="45.87368" lon="4.72682">
        <ele>190</ele>
        <time>2017-07-01T09:04:59Z</time>
      </trkpt>
      <trkpt lat="45.87365" lon="4.72677">
        <ele>190</ele>
        <time>2017-07-01T09:05:00Z</time>
      </trkpt>
      <trkpt lat="45.8736" lon="4.72672">
        <ele>190</ele>
        <time>2017-07-01T09:05:01Z</time>
      </trkpt>
      <trkpt lat="45.87356" lon="4.72668">
        <ele>190</ele>
        <time>2017-07-01T09:05:02Z</time>
      </trkpt>
      <trkpt lat="45.87352" lon="4.72665">
        <ele>190</ele>
        <time>2017-07-01T09:05:03Z</time>
      </trkpt>
      <trkpt lat="45.87348" lon="4.72663">
        <ele>190</ele>
        <time>2017-07-01T09:05:04Z</time>
      </trkpt>
      <trkpt lat="45.87344" lon="4.72659">
        <ele>190</ele>
        <time>2017-07-01T09:05:05Z</time>
      </trkpt>
      <trkpt lat="45.87339" lon="4.72655">
        <ele>190</ele>
        <time>2017-07-01T09:05:06Z</time>
      </trkpt>
      <trkpt lat="45.87335" lon="4.72652">
        <ele>190</ele>
        <time>2017-07-01T09:05:07Z</time>
      </trkpt>
      <trkpt lat="45.87332" lon="4.72648">
        <ele>192</ele>
        <time>2017-07-01T09:05:08Z</time>
      </trkpt>
      <trkpt lat="45.87328" lon="4.72644">
        <ele>192</ele>
        <time>2017-07-01T09:05:09Z</time>
      </trkpt>
      <trkpt lat="45.87324" lon="4.7264">
        <ele>192</ele>
        <time>2017-07-01T09:05:10Z</time>
      </trkpt>
      <trkpt lat="45.8732" lon="4.72635">
        <ele>193</ele>
        <time>2017-07-01T09:05:11Z</time>
      </trkpt>
      <trkpt lat="45.87316" lon="4.7263">
        <ele>193</ele>
        <time>2017-07-01T09:05:12Z</time>
      </trkpt>
      <trkpt lat="45.87311" lon="4.72626">
        <ele>193</ele>
        <time>2017-07-01T09:05:13Z</time>
      </trkpt>
      <trkpt lat="45.87307" lon="4.72622">
        <ele>193</ele>
        <time>2017-07-01T09:05:14Z</time>
      </trkpt>
      <trkpt lat="45.87304" lon="4.72617">
        <ele>193</ele>
        <time>2017-07-01T09:05:15Z</time>
      </trkpt>
      <trkpt lat="45.87298" lon="4.7261">
        <ele>194</ele>
        <time>2017-07-01T09:05:17Z</time>
      </trkpt>
      <trkpt lat="45.87295" lon="4.72607">
        <ele>194</ele>
        <time>2017-07-01T09:05:18Z</time>
      </trkpt>
      <trkpt lat="45.87288" lon="4.72598">
        <ele>194</ele>
        <time>2017-07-01T09:05:20Z</time>
      </trkpt>
      <trkpt lat="45.87285" lon="4.72593">
        <ele>194</ele>
        <time>2017-07-01T09:05:21Z</time>
      </trkpt>
      <trkpt lat="45.87281" lon="4.72588">
        <ele>195</ele>
        <time>2017-07-01T09:05:22Z</time>
      </trkpt>
      <trkpt lat="45.87278" lon="4.72583">
        <ele>194</ele>
        <time>2017-07-01T09:05:23Z</time>
      </trkpt>
      <trkpt lat="45.87274" lon="4.72579">
        <ele>194</ele>
        <time>2017-07-01T09:05:24Z</time>
      </trkpt>
      <trkpt lat="45.87271" lon="4.72575">
        <ele>195</ele>
        <time>2017-07-01T09:05:25Z</time>
      </trkpt>
      <trkpt lat="45.87268" lon="4.7257">
        <ele>195</ele>
        <time>2017-07-01T09:05:26Z</time>
      </trkpt>
      <trkpt lat="45.87264" lon="4.72564">
        <ele>195</ele>
        <time>2017-07-01T09:05:27Z</time>
      </trkpt>
      <trkpt lat="45.87258" lon="4.72556">
        <ele>194</ele>
        <time>2017-07-01T09:05:29Z</time>
      </trkpt>
      <trkpt lat="45.87256" lon="4.72552">
        <ele>194</ele>
        <time>2017-07-01T09:05:30Z</time>
      </trkpt>
      <trkpt lat="45.87251" lon="4.72543">
        <ele>194</ele>
        <time>2017-07-01T09:05:33Z</time>
      </trkpt>
      <trkpt lat="45.8725" lon="4.72539">
        <ele>197</ele>
        <time>2017-07-01T09:05:34Z</time>
      </trkpt>
      <trkpt lat="45.87247" lon="4.72527">
        <ele>196</ele>
        <time>2017-07-01T09:05:37Z</time>
      </trkpt>
      <trkpt lat="45.87245" lon="4.72523">
        <ele>196</ele>
        <time>2017-07-01T09:05:38Z</time>
      </trkpt>
      <trkpt lat="45.8724" lon="4.72513">
        <ele>196</ele>
        <time>2017-07-01T09:05:40Z</time>
      </trkpt>
      <trkpt lat="45.87237" lon="4.72507">
        <ele>195</ele>
        <time>2017-07-01T09:05:41Z</time>
      </trkpt>
      <trkpt lat="45.87234" lon="4.72502">
        <ele>196</ele>
        <time>2017-07-01T09:05:42Z</time>
      </trkpt>
      <trkpt lat="45.87231" lon="4.72496">
        <ele>194</ele>
        <time>2017-07-01T09:05:43Z</time>
      </trkpt>
      <trkpt lat="45.87227" lon="4.7249">
        <ele>194</ele>
        <time>2017-07-01T09:05:44Z</time>
      </trkpt>
      <trkpt lat="45.87223" lon="4.72485">
        <ele>194</ele>
        <time>2017-07-01T09:05:45Z</time>
      </trkpt>
      <trkpt lat="45.87219" lon="4.7248">
        <ele>194</ele>
        <time>2017-07-01T09:05:46Z</time>
      </trkpt>
      <trkpt lat="45.87216" lon="4.72475">
        <ele>194</ele>
        <time>2017-07-01T09:05:47Z</time>
      </trkpt>
      <trkpt lat="45.87212" lon="4.7247">
        <ele>194</ele>
        <time>2017-07-01T09:05:48Z</time>
      </trkpt>
      <trkpt lat="45.87209" lon="4.72465">
        <ele>194</ele>
        <time>2017-07-01T09:05:49Z</time>
      </trkpt>
      <trkpt lat="45.87206" lon="4.7246">
        <ele>194</ele>
        <time>2017-07-01T09:05:50Z</time>
      </trkpt>
      <trkpt lat="45.87202" lon="4.72455">
        <ele>194</ele>
        <time>2017-07-01T09:05:51Z</time>
      </trkpt>
      <trkpt lat="45.87199" lon="4.7245">
        <ele>194</ele>
        <time>2017-07-01T09:05:52Z</time>
      </trkpt>
      <trkpt lat="45.87195" lon="4.72444">
        <ele>194</ele>
        <time>2017-07-01T09:05:53Z</time>
      </trkpt>
      <trkpt lat="45.87191" lon="4.7244">
        <ele>194</ele>
        <time>2017-07-01T09:05:54Z</time>
      </trkpt>
      <trkpt lat="45.87188" lon="4.72435">
        <ele>194</ele>
        <time>2017-07-01T09:05:55Z</time>
      </trkpt>
      <trkpt lat="45.87182" lon="4.72427">
        <ele>194</ele>
        <time>2017-07-01T09:05:57Z</time>
      </trkpt>
      <trkpt lat="45.8718" lon="4.72422">
        <ele>194</ele>
        <time>2017-07-01T09:05:58Z</time>
      </trkpt>
      <trkpt lat="45.87174" lon="4.72415">
        <ele>193</ele>
        <time>2017-07-01T09:06:00Z</time>
      </trkpt>
      <trkpt lat="45.87171" lon="4.72411">
        <ele>193</ele>
        <time>2017-07-01T09:06:01Z</time>
      </trkpt>
      <trkpt lat="45.87169" lon="4.72405">
        <ele>192</ele>
        <time>2017-07-01T09:06:02Z</time>
      </trkpt>
      <trkpt lat="45.87166" lon="4.724">
        <ele>196</ele>
        <time>2017-07-01T09:06:03Z</time>
      </trkpt>
      <trkpt lat="45.87164" lon="4.72394">
        <ele>197</ele>
        <time>2017-07-01T09:06:04Z</time>
      </trkpt>
      <trkpt lat="45.87161" lon="4.72388">
        <ele>197</ele>
        <time>2017-07-01T09:06:05Z</time>
      </trkpt>
      <trkpt lat="45.87159" lon="4.72382">
        <ele>197</ele>
        <time>2017-07-01T09:06:06Z</time>
      </trkpt>
      <trkpt lat="45.87156" lon="4.72376">
        <ele>197</ele>
        <time>2017-07-01T09:06:07Z</time>
      </trkpt>
      <trkpt lat="45.87154" lon="4.72371">
        <ele>197</ele>
        <time>2017-07-01T09:06:08Z</time>
      </trkpt>
      <trkpt lat="45.87151" lon="4.72365">
        <ele>197</ele>
        <time>2017-07-01T09:06:09Z</time>
      </trkpt>
      <trkpt lat="45.87149" lon="4.72359">
        <ele>197</ele>
        <time>2017-07-01T09:06:10Z</time>
      </trkpt>
      <trkpt lat="45.87147" lon="4.72354">
        <ele>196</ele>
        <time>2017-07-01T09:06:11Z</time>
      </trkpt>
      <trkpt lat="45.87145" lon="4.72348">
        <ele>196</ele>
        <time>2017-07-01T09:06:12Z</time>
      </trkpt>
      <trkpt lat="45.87142" lon="4.72342">
        <ele>196</ele>
        <time>2017-07-01T09:06:13Z</time>
      </trkpt>
      <trkpt lat="45.8714" lon="4.72336">
        <ele>196</ele>
        <time>2017-07-01T09:06:14Z</time>
      </trkpt>
      <trkpt lat="45.87138" lon="4.7233">
        <ele>195</ele>
        <time>2017-07-01T09:06:15Z</time>
      </trkpt>
      <trkpt lat="45.87136" lon="4.72324">
        <ele>195</ele>
        <time>2017-07-01T09:06:16Z</time>
      </trkpt>
      <trkpt lat="45.87133" lon="4.72318">
        <ele>196</ele>
        <time>2017-07-01T09:06:17Z</time>
      </trkpt>
      <trkpt lat="45.8713" lon="4.72312">
        <ele>196</ele>
        <time>2017-07-01T09:06:18Z</time>
      </trkpt>
      <trkpt lat="45.87127" lon="4.72306">
        <ele>196</ele>
        <time>2017-07-01T09:06:19Z</time>
      </trkpt>
      <trkpt lat="45.87124" lon="4.723">
        <ele>196</ele>
        <time>2017-07-01T09:06:20Z</time>
      </trkpt>
      <trkpt lat="45.8712" lon="4.72294">
        <ele>196</ele>
        <time>2017-07-01T09:06:21Z</time>
      </trkpt>
      <trkpt lat="45.87117" lon="4.72288">
        <ele>197</ele>
        <time>2017-07-01T09:06:22Z</time>
      </trkpt>
      <trkpt lat="45.87113" lon="4.72282">
        <ele>197</ele>
        <time>2017-07-01T09:06:23Z</time>
      </trkpt>
      <trkpt lat="45.87109" lon="4.72276">
        <ele>197</ele>
        <time>2017-07-01T09:06:24Z</time>
      </trkpt>
      <trkpt lat="45.87105" lon="4.7227">
        <ele>197</ele>
        <time>2017-07-01T09:06:25Z</time>
      </trkpt>
      <trkpt lat="45.871" lon="4.72265">
        <ele>197</ele>
        <time>2017-07-01T09:06:26Z</time>
      </trkpt>
      <trkpt lat="45.87096" lon="4.7226">
        <ele>198</ele>
        <time>2017-07-01T09:06:27Z</time>
      </trkpt>
      <trkpt lat="45.87091" lon="4.72254">
        <ele>198</ele>
        <time>2017-07-01T09:06:28Z</time>
      </trkpt>
      <trkpt lat="45.87087" lon="4.72249">
        <ele>198</ele>
        <time>2017-07-01T09:06:29Z</time>
      </trkpt>
      <trkpt lat="45.87082" lon="4.72244">
        <ele>199</ele>
        <time>2017-07-01T09:06:30Z</time>
      </trkpt>
      <trkpt lat="45.87078" lon="4.72239">
        <ele>200</ele>
        <time>2017-07-01T09:06:31Z</time>
      </trkpt>
      <trkpt lat="45.87073" lon="4.72234">
        <ele>200</ele>
        <time>2017-07-01T09:06:32Z</time>
      </trkpt>
      <trkpt lat="45.87069" lon="4.7223">
        <ele>200</ele>
        <time>2017-07-01T09:06:33Z</time>
      </trkpt>
      <trkpt lat="45.87065" lon="4.72226">
        <ele>200</ele>
        <time>2017-07-01T09:06:34Z</time>
      </trkpt>
      <trkpt lat="45.8706" lon="4.72221">
        <ele>200</ele>
        <time>2017-07-01T09:06:35Z</time>
      </trkpt>
      <trkpt lat="45.87055" lon="4.72216">
        <ele>200</ele>
        <time>2017-07-01T09:06:36Z</time>
      </trkpt>
      <trkpt lat="45.8705" lon="4.72212">
        <ele>200</ele>
        <time>2017-07-01T09:06:37Z</time>
      </trkpt>
      <trkpt lat="45.87045" lon="4.72208">
        <ele>200</ele>
        <time>2017-07-01T09:06:38Z</time>
      </trkpt>
      <trkpt lat="45.8704" lon="4.72203">
        <ele>201</ele>
        <time>2017-07-01T09:06:39Z</time>
      </trkpt>
      <trkpt lat="45.87035" lon="4.72199">
        <ele>201</ele>
        <time>2017-07-01T09:06:40Z</time>
      </trkpt>
      <trkpt lat="45.87029" lon="4.72196">
        <ele>201</ele>
        <time>2017-07-01T09:06:41Z</time>
      </trkpt>
      <trkpt lat="45.87024" lon="4.72191">
        <ele>201</ele>
        <time>2017-07-01T09:06:42Z</time>
      </trkpt>
      <trkpt lat="45.87018" lon="4.72188">
        <ele>201</ele>
        <time>2017-07-01T09:06:43Z</time>
      </trkpt>
      <trkpt lat="45.87012" lon="4.72184">
        <ele>201</ele>
        <time>2017-07-01T09:06:44Z</time>
      </trkpt>
      <trkpt lat="45.87007" lon="4.7218">
        <ele>201</ele>
        <time>2017-07-01T09:06:45Z</time>
      </trkpt>
      <trkpt lat="45.87001" lon="4.72176">
        <ele>201</ele>
        <time>2017-07-01T09:06:46Z</time>
      </trkpt>
      <trkpt lat="45.86995" lon="4.72172">
        <ele>204</ele>
        <time>2017-07-01T09:06:47Z</time>
      </trkpt>
      <trkpt lat="45.86989" lon="4.72168">
        <ele>205</ele>
        <time>2017-07-01T09:06:48Z</time>
      </trkpt>
      <trkpt lat="45.86983" lon="4.72163">
        <ele>201</ele>
        <time>2017-07-01T09:06:49Z</time>
      </trkpt>
      <trkpt lat="45.86978" lon="4.72158">
        <ele>201</ele>
        <time>2017-07-01T09:06:50Z</time>
      </trkpt>
      <trkpt lat="45.86972" lon="4.72154">
        <ele>201</ele>
        <time>2017-07-01T09:06:51Z</time>
      </trkpt>
      <trkpt lat="45.86966" lon="4.72149">
        <ele>201</ele>
        <time>2017-07-01T09:06:52Z</time>
      </trkpt>
      <trkpt lat="45.8696" lon="4.72146">
        <ele>201</ele>
        <time>2017-07-01T09:06:53Z</time>
      </trkpt>
      <trkpt lat="45.86955" lon="4.72142">
        <ele>201</ele>
        <time>2017-07-01T09:06:54Z</time>
      </trkpt>
      <trkpt lat="45.86949" lon="4.72137">
        <ele>201</ele>
        <time>2017-07-01T09:06:55Z</time>
      </trkpt>
      <trkpt lat="45.86944" lon="4.72134">
        <ele>201</ele>
        <time>2017-07-01T09:06:56Z</time>
      </trkpt>
      <trkpt lat="45.86938" lon="4.72131">
        <ele>200</ele>
        <time>2017-07-01T09:06:57Z</time>
      </trkpt>
      <trkpt lat="45.86933" lon="4.72128">
        <ele>200</ele>
        <time>2017-07-01T09:06:58Z</time>
      </trkpt>
      <trkpt lat="45.86927" lon="4.72125">
        <ele>200</ele>
        <time>2017-07-01T09:06:59Z</time>
      </trkpt>
      <trkpt lat="45.86922" lon="4.72122">
        <ele>199</ele>
        <time>2017-07-01T09:07:00Z</time>
      </trkpt>
      <trkpt lat="45.86917" lon="4.72119">
        <ele>201</ele>
        <time>2017-07-01T09:07:01Z</time>
      </trkpt>
      <trkpt lat="45.86912" lon="4.72117">
        <ele>201</ele>
        <time>2017-07-01T09:07:02Z</time>
      </trkpt>
      <trkpt lat="45.86906" lon="4.72115">
        <ele>201</ele>
        <time>2017-07-01T09:07:03Z</time>
      </trkpt>
      <trkpt lat="45.86901" lon="4.72112">
        <ele>200</ele>
        <time>2017-07-01T09:07:04Z</time>
      </trkpt>
      <trkpt lat="45.86895" lon="4.72109">
        <ele>200</ele>
        <time>2017-07-01T09:07:05Z</time>
      </trkpt>
      <trkpt lat="45.86888" lon="4.72107">
        <ele>200</ele>
        <time>2017-07-01T09:07:06Z</time>
      </trkpt>
      <trkpt lat="45.86882" lon="4.72105">
        <ele>200</ele>
        <time>2017-07-01T09:07:07Z</time>
      </trkpt>
      <trkpt lat="45.86875" lon="4.72101">
        <ele>200</ele>
        <time>2017-07-01T09:07:08Z</time>
      </trkpt>
      <trkpt lat="45.86869" lon="4.72098">
        <ele>200</ele>
        <time>2017-07-01T09:07:09Z</time>
      </trkpt>
      <trkpt lat="45.86863" lon="4.72095">
        <ele>199</ele>
        <time>2017-07-01T09:07:10Z</time>
      </trkpt>
      <trkpt lat="45.86857" lon="4.72093">
        <ele>199</ele>
        <time>2017-07-01T09:07:11Z</time>
      </trkpt>
      <trkpt lat="45.8685" lon="4.72089">
        <ele>198</ele>
        <time>2017-07-01T09:07:12Z</time>
      </trkpt>
      <trkpt lat="45.86844" lon="4.72087">
        <ele>196</ele>
        <time>2017-07-01T09:07:13Z</time>
      </trkpt>
      <trkpt lat="45.86837" lon="4.72083">
        <ele>193</ele>
        <time>2017-07-01T09:07:14Z</time>
      </trkpt>
      <trkpt lat="45.8683" lon="4.7208">
        <ele>193</ele>
        <time>2017-07-01T09:07:15Z</time>
      </trkpt>
      <trkpt lat="45.86823" lon="4.72077">
        <ele>193</ele>
        <time>2017-07-01T09:07:16Z</time>
      </trkpt>
      <trkpt lat="45.86817" lon="4.72074">
        <ele>194</ele>
        <time>2017-07-01T09:07:17Z</time>
      </trkpt>
      <trkpt lat="45.8681" lon="4.72072">
        <ele>194</ele>
        <time>2017-07-01T09:07:18Z</time>
      </trkpt>
      <trkpt lat="45.86803" lon="4.7207">
        <ele>194</ele>
        <time>2017-07-01T09:07:19Z</time>
      </trkpt>
      <trkpt lat="45.86796" lon="4.72067">
        <ele>194</ele>
        <time>2017-07-01T09:07:20Z</time>
      </trkpt>
      <trkpt lat="45.8679" lon="4.72064">
        <ele>194</ele>
        <time>2017-07-01T09:07:21Z</time>
      </trkpt>
      <trkpt lat="45.86783" lon="4.72062">
        <ele>194</ele>
        <time>2017-07-01T09:07:22Z</time>
      </trkpt>
      <trkpt lat="45.86777" lon="4.7206">
        <ele>194</ele>
        <time>2017-07-01T09:07:23Z</time>
      </trkpt>
      <trkpt lat="45.86771" lon="4.72058">
        <ele>195</ele>
        <time>2017-07-01T09:07:24Z</time>
      </trkpt>
      <trkpt lat="45.86765" lon="4.72057">
        <ele>195</ele>
        <time>2017-07-01T09:07:25Z</time>
      </trkpt>
      <trkpt lat="45.8676" lon="4.72056">
        <ele>195</ele>
        <time>2017-07-01T09:07:26Z</time>
      </trkpt>
      <trkpt lat="45.86754" lon="4.72054">
        <ele>195</ele>
        <time>2017-07-01T09:07:27Z</time>
      </trkpt>
      <trkpt lat="45.86749" lon="4.72052">
        <ele>197</ele>
        <time>2017-07-01T09:07:28Z</time>
      </trkpt>
      <trkpt lat="45.86744" lon="4.7205">
        <ele>197</ele>
        <time>2017-07-01T09:07:29Z</time>
      </trkpt>
      <trkpt lat="45.86739" lon="4.72048">
        <ele>197</ele>
        <time>2017-07-01T09:07:30Z</time>
      </trkpt>
      <trkpt lat="45.86734" lon="4.72045">
        <ele>197</ele>
        <time>2017-07-01T09:07:31Z</time>
      </trkpt>
      <trkpt lat="45.86729" lon="4.72042">
        <ele>197</ele>
        <time>2017-07-01T09:07:32Z</time>
      </trkpt>
      <trkpt lat="45.86723" lon="4.72039">
        <ele>197</ele>
        <time>2017-07-01T09:07:33Z</time>
      </trkpt>
      <trkpt lat="45.86718" lon="4.72036">
        <ele>197</ele>
        <time>2017-07-01T09:07:34Z</time>
      </trkpt>
      <trkpt lat="45.86712" lon="4.72032">
        <ele>197</ele>
        <time>2017-07-01T09:07:35Z</time>
      </trkpt>
      <trkpt lat="45.86707" lon="4.72029">
        <ele>197</ele>
        <time>2017-07-01T09:07:36Z</time>
      </trkpt>
      <trkpt lat="45.86702" lon="4.72025">
        <ele>197</ele>
        <time>2017-07-01T09:07:37Z</time>
      </trkpt>
      <trkpt lat="45.86696" lon="4.72021">
        <ele>197</ele>
        <time>2017-07-01T09:07:38Z</time>
      </trkpt>
      <trkpt lat="45.8669" lon="4.72016">
        <ele>196</ele>
        <time>2017-07-01T09:07:39Z</time>
      </trkpt>
      <trkpt lat="45.86684" lon="4.72012">
        <ele>196</ele>
        <time>2017-07-01T09:07:40Z</time>
      </trkpt>
      <trkpt lat="45.86679" lon="4.72007">
        <ele>196</ele>
        <time>2017-07-01T09:07:41Z</time>
      </trkpt>
      <trkpt lat="45.86673" lon="4.72003">
        <ele>196</ele>
        <time>2017-07-01T09:07:42Z</time>
      </trkpt>
      <trkpt lat="45.86668" lon="4.71998">
        <ele>195</ele>
        <time>2017-07-01T09:07:43Z</time>
      </trkpt>
      <trkpt lat="45.86662" lon="4.71994">
        <ele>195</ele>
        <time>2017-07-01T09:07:44Z</time>
      </trkpt>
      <trkpt lat="45.86656" lon="4.7199">
        <ele>195</ele>
        <time>2017-07-01T09:07:45Z</time>
      </trkpt>
      <trkpt lat="45.86651" lon="4.71985">
        <ele>195</ele>
        <time>2017-07-01T09:07:46Z</time>
      </trkpt>
      <trkpt lat="45.86646" lon="4.71981">
        <ele>195</ele>
        <time>2017-07-01T09:07:47Z</time>
      </trkpt>
      <trkpt lat="45.86641" lon="4.71978">
        <ele>195</ele>
        <time>2017-07-01T09:07:48Z</time>
      </trkpt>
      <trkpt lat="45.86636" lon="4.71973">
        <ele>195</ele>
        <time>2017-07-01T09:07:49Z</time>
      </trkpt>
      <trkpt lat="45.86631" lon="4.71969">
        <ele>195</ele>
        <time>2017-07-01T09:07:50Z</time>
      </trkpt>
      <trkpt lat="45.86626" lon="4.71965">
        <ele>195</ele>
        <time>2017-07-01T09:07:51Z</time>
      </trkpt>
      <trkpt lat="45.86621" lon="4.71962">
        <ele>195</ele>
        <time>2017-07-01T09:07:52Z</time>
      </trkpt>
      <trkpt lat="45.86617" lon="4.71958">
        <ele>194</ele>
        <time>2017-07-01T09:07:53Z</time>
      </trkpt>
      <trkpt lat="45.86612" lon="4.71954">
        <ele>194</ele>
        <time>2017-07-01T09:07:54Z</time>
      </trkpt>
      <trkpt lat="45.86607" lon="4.71951">
        <ele>194</ele>
        <time>2017-07-01T09:07:55Z</time>
      </trkpt>
      <trkpt lat="45.86603" lon="4.71947">
        <ele>194</ele>
        <time>2017-07-01T09:07:56Z</time>
      </trkpt>
      <trkpt lat="45.86597" lon="4.71943">
        <ele>194</ele>
        <time>2017-07-01T09:07:57Z</time>
      </trkpt>
      <trkpt lat="45.86591" lon="4.71939">
        <ele>194</ele>
        <time>2017-07-01T09:07:58Z</time>
      </trkpt>
      <trkpt lat="45.86586" lon="4.71935">
        <ele>194</ele>
        <time>2017-07-01T09:07:59Z</time>
      </trkpt>
      <trkpt lat="45.86581" lon="4.71931">
        <ele>195</ele>
        <time>2017-07-01T09:08:00Z</time>
      </trkpt>
      <trkpt lat="45.86576" lon="4.71927">
        <ele>195</ele>
        <time>2017-07-01T09:08:01Z</time>
      </trkpt>
      <trkpt lat="45.86571" lon="4.71923">
        <ele>195</ele>
        <time>2017-07-01T09:08:02Z</time>
      </trkpt>
      <trkpt lat="45.86566" lon="4.71919">
        <ele>195</ele>
        <time>2017-07-01T09:08:03Z</time>
      </trkpt>
      <trkpt lat="45.86561" lon="4.71914">
        <ele>195</ele>
        <time>2017-07-01T09:08:04Z</time>
      </trkpt>
      <trkpt lat="45.86556" lon="4.7191">
        <ele>195</ele>
        <time>2017-07-01T09:08:05Z</time>
      </trkpt>
      <trkpt lat="45.86551" lon="4.71906">
        <ele>195</ele>
        <time>2017-07-01T09:08:06Z</time>
      </trkpt>
      <trkpt lat="45.86545" lon="4.71902">
        <ele>195</ele>
        <time>2017-07-01T09:08:07Z</time>
      </trkpt>
      <trkpt lat="45.8654" lon="4.71898">
        <ele>195</ele>
        <time>2017-07-01T09:08:08Z</time>
      </trkpt>
      <trkpt lat="45.86535" lon="4.71894">
        <ele>195</ele>
        <time>2017-07-01T09:08:09Z</time>
      </trkpt>
      <trkpt lat="45.86531" lon="4.7189">
        <ele>195</ele>
        <time>2017-07-01T09:08:10Z</time>
      </trkpt>
      <trkpt lat="45.86526" lon="4.71887">
        <ele>195</ele>
        <time>2017-07-01T09:08:11Z</time>
      </trkpt>
      <trkpt lat="45.86521" lon="4.71883">
        <ele>195</ele>
        <time>2017-07-01T09:08:12Z</time>
      </trkpt>
      <trkpt lat="45.86517" lon="4.71879">
        <ele>195</ele>
        <time>2017-07-01T09:08:13Z</time>
      </trkpt>
      <trkpt lat="45.86512" lon="4.71876">
        <ele>195</ele>
        <time>2017-07-01T09:08:14Z</time>
      </trkpt>
      <trkpt lat="45.86507" lon="4.71873">
        <ele>195</ele>
        <time>2017-07-01T09:08:15Z</time>
      </trkpt>
      <trkpt lat="45.86502" lon="4.71869">
        <ele>195</ele>
        <time>2017-07-01T09:08:16Z</time>
      </trkpt>
      <trkpt lat="45.86497" lon="4.71866">
        <ele>198</ele>
        <time>2017-07-01T09:08:17Z</time>
      </trkpt>
      <trkpt lat="45.86492" lon="4.71862">
        <ele>198</ele>
        <time>2017-07-01T09:08:18Z</time>
      </trkpt>
      <trkpt lat="45.86487" lon="4.71858">
        <ele>198</ele>
        <time>2017-07-01T09:08:19Z</time>
      </trkpt>
      <trkpt lat="45.86482" lon="4.71854">
        <ele>198</ele>
        <time>2017-07-01T09:08:20Z</time>
      </trkpt>
      <trkpt lat="45.86477" lon="4.7185">
        <ele>198</ele>
        <time>2017-07-01T09:08:21Z</time>
      </trkpt>
      <trkpt lat="45.86472" lon="4.71846">
        <ele>199</ele>
        <time>2017-07-01T09:08:22Z</time>
      </trkpt>
      <trkpt lat="45.86466" lon="4.71842">
        <ele>199</ele>
        <time>2017-07-01T09:08:23Z</time>
      </trkpt>
      <trkpt lat="45.8646" lon="4.71838">
        <ele>199</ele>
        <time>2017-07-01T09:08:24Z</time>
      </trkpt>
      <trkpt lat="45.86454" lon="4.71834">
        <ele>200</ele>
        <time>2017-07-01T09:08:25Z</time>
      </trkpt>
      <trkpt lat="45.86449" lon="4.7183">
        <ele>197</ele>
        <time>2017-07-01T09:08:26Z</time>
      </trkpt>
      <trkpt lat="45.86444" lon="4.71825">
        <ele>197</ele>
        <time>2017-07-01T09:08:27Z</time>
      </trkpt>
      <trkpt lat="45.86439" lon="4.7182">
        <ele>198</ele>
        <time>2017-07-01T09:08:28Z</time>
      </trkpt>
      <trkpt lat="45.86434" lon="4.71815">
        <ele>198</ele>
        <time>2017-07-01T09:08:29Z</time>
      </trkpt>
      <trkpt lat="45.8643" lon="4.71811">
        <ele>198</ele>
        <time>2017-07-01T09:08:30Z</time>
      </trkpt>
      <trkpt lat="45.86425" lon="4.71807">
        <ele>197</ele>
        <time>2017-07-01T09:08:31Z</time>
      </trkpt>
      <trkpt lat="45.8642" lon="4.71803">
        <ele>197</ele>
        <time>2017-07-01T09:08:32Z</time>
      </trkpt>
      <trkpt lat="45.86415" lon="4.71799">
        <ele>199</ele>
        <time>2017-07-01T09:08:33Z</time>
      </trkpt>
      <trkpt lat="45.8641" lon="4.71794">
        <ele>199</ele>
        <time>2017-07-01T09:08:34Z</time>
      </trkpt>
      <trkpt lat="45.86405" lon="4.7179">
        <ele>198</ele>
        <time>2017-07-01T09:08:35Z</time>
      </trkpt>
      <trkpt lat="45.864" lon="4.71785">
        <ele>198</ele>
        <time>2017-07-01T09:08:36Z</time>
      </trkpt>
      <trkpt lat="45.86395" lon="4.71782">
        <ele>198</ele>
        <time>2017-07-01T09:08:37Z</time>
      </trkpt>
      <trkpt lat="45.8639" lon="4.71779">
        <ele>198</ele>
        <time>2017-07-01T09:08:38Z</time>
      </trkpt>
      <trkpt lat="45.86386" lon="4.71775">
        <ele>198</ele>
        <time>2017-07-01T09:08:39Z</time>
      </trkpt>
      <trkpt lat="45.86382" lon="4.71772">
        <ele>198</ele>
        <time>2017-07-01T09:08:40Z</time>
      </trkpt>
      <trkpt lat="45.86378" lon="4.71769">
        <ele>198</ele>
        <time>2017-07-01T09:08:41Z</time>
      </trkpt>
      <trkpt lat="45.86373" lon="4.71765">
        <ele>198</ele>
        <time>2017-07-01T09:08:42Z</time>
      </trkpt>
      <trkpt lat="45.86369" lon="4.71761">
        <ele>198</ele>
        <time>2017-07-01T09:08:43Z</time>
      </trkpt>
      <trkpt lat="45.86365" lon="4.71758">
        <ele>198</ele>
        <time>2017-07-01T09:08:44Z</time>
      </trkpt>
      <trkpt lat="45.8636" lon="4.71755">
        <ele>198</ele>
        <time>2017-07-01T09:08:45Z</time>
      </trkpt>
      <trkpt lat="45.86356" lon="4.71751">
        <ele>197</ele>
        <time>2017-07-01T09:08:46Z</time>
      </trkpt>
      <trkpt lat="45.86351" lon="4.71748">
        <ele>195</ele>
        <time>2017-07-01T09:08:47Z</time>
      </trkpt>
      <trkpt lat="45.86346" lon="4.71744">
        <ele>195</ele>
        <time>2017-07-01T09:08:48Z</time>
      </trkpt>
      <trkpt lat="45.86341" lon="4.7174">
        <ele>195</ele>
        <time>2017-07-01T09:08:49Z</time>
      </trkpt>
      <trkpt lat="45.86336" lon="4.71737">
        <ele>195</ele>
        <time>2017-07-01T09:08:50Z</time>
      </trkpt>
      <trkpt lat="45.86332" lon="4.71733">
        <ele>196</ele>
        <time>2017-07-01T09:08:51Z</time>
      </trkpt>
      <trkpt lat="45.86328" lon="4.7173">
        <ele>196</ele>
        <time>2017-07-01T09:08:52Z</time>
      </trkpt>
      <trkpt lat="45.86323" lon="4.71726">
        <ele>196</ele>
        <time>2017-07-01T09:08:53Z</time>
      </trkpt>
      <trkpt lat="45.86318" lon="4.71722">
        <ele>196</ele>
        <time>2017-07-01T09:08:54Z</time>
      </trkpt>
      <trkpt lat="45.86313" lon="4.71719">
        <ele>196</ele>
        <time>2017-07-01T09:08:55Z</time>
      </trkpt>
      <trkpt lat="45.86308" lon="4.71715">
        <ele>195</ele>
        <time>2017-07-01T09:08:56Z</time>
      </trkpt>
      <trkpt lat="45.86303" lon="4.7171">
        <ele>195</ele>
        <time>2017-07-01T09:08:57Z</time>
      </trkpt>
      <trkpt lat="45.86298" lon="4.71706">
        <ele>195</ele>
        <time>2017-07-01T09:08:58Z</time>
      </trkpt>
      <trkpt lat="45.86293" lon="4.71702">
        <ele>195</ele>
        <time>2017-07-01T09:08:59Z</time>
      </trkpt>
      <trkpt lat="45.86288" lon="4.71697">
        <ele>195</ele>
        <time>2017-07-01T09:09:00Z</time>
      </trkpt>
      <trkpt lat="45.86283" lon="4.71694">
        <ele>195</ele>
        <time>2017-07-01T09:09:01Z</time>
      </trkpt>
      <trkpt lat="45.86278" lon="4.7169">
        <ele>195</ele>
        <time>2017-07-01T09:09:02Z</time>
      </trkpt>
      <trkpt lat="45.86273" lon="4.71685">
        <ele>195</ele>
        <time>2017-07-01T09:09:03Z</time>
      </trkpt>
      <trkpt lat="45.86268" lon="4.71681">
        <ele>195</ele>
        <time>2017-07-01T09:09:04Z</time>
      </trkpt>
      <trkpt lat="45.86263" lon="4.71678">
        <ele>195</ele>
        <time>2017-07-01T09:09:05Z</time>
      </trkpt>
      <trkpt lat="45.86258" lon="4.71674">
        <ele>195</ele>
        <time>2017-07-01T09:09:06Z</time>
      </trkpt>
      <trkpt lat="45.86254" lon="4.71671">
        <ele>195</ele>
        <time>2017-07-01T09:09:07Z</time>
      </trkpt>
      <trkpt lat="45.8625" lon="4.71667">
        <ele>195</ele>
        <time>2017-07-01T09:09:08Z</time>
      </trkpt>
      <trkpt lat="45.86245" lon="4.71664">
        <ele>195</ele>
        <time>2017-07-01T09:09:09Z</time>
      </trkpt>
      <trkpt lat="45.86241" lon="4.7166">
        <ele>195</ele>
        <time>2017-07-01T09:09:10Z</time>
      </trkpt>
      <trkpt lat="45.86236" lon="4.71657">
        <ele>195</ele>
        <time>2017-07-01T09:09:11Z</time>
      </trkpt>
      <trkpt lat="45.86232" lon="4.71654">
        <ele>195</ele>
        <time>2017-07-01T09:09:12Z</time>
      </trkpt>
      <trkpt lat="45.86227" lon="4.7165">
        <ele>195</ele>
        <time>2017-07-01T09:09:13Z</time>
      </trkpt>
      <trkpt lat="45.86223" lon="4.71646">
        <ele>195</ele>
        <time>2017-07-01T09:09:14Z</time>
      </trkpt>
      <trkpt lat="45.86219" lon="4.71641">
        <ele>195</ele>
        <time>2017-07-01T09:09:15Z</time>
      </trkpt>
      <trkpt lat="45.86216" lon="4.71635">
        <ele>195</ele>
        <time>2017-07-01T09:09:16Z</time>
      </trkpt>
      <trkpt lat="45.86214" lon="4.71629">
        <ele>195</ele>
        <time>2017-07-01T09:09:17Z</time>
      </trkpt>
      <trkpt lat="45.86213" lon="4.71621">
        <ele>195</ele>
        <time>2017-07-01T09:09:18Z</time>
      </trkpt>
      <trkpt lat="45.86212" lon="4.71615">
        <ele>195</ele>
        <time>2017-07-01T09:09:19Z</time>
      </trkpt>
      <trkpt lat="45.8621" lon="4.71608">
        <ele>195</ele>
        <time>2017-07-01T09:09:20Z</time>
      </trkpt>
      <trkpt lat="45.86207" lon="4.71602">
        <ele>195</ele>
        <time>2017-07-01T09:09:21Z</time>
      </trkpt>
      <trkpt lat="45.86203" lon="4.71597">
        <ele>195</ele>
        <time>2017-07-01T09:09:22Z</time>
      </trkpt>
      <trkpt lat="45.86199" lon="4.71593">
        <ele>195</ele>
        <time>2017-07-01T09:09:23Z</time>
      </trkpt>
      <trkpt lat="45.86195" lon="4.71589">
        <ele>195</ele>
        <time>2017-07-01T09:09:24Z</time>
      </trkpt>
      <trkpt lat="45.86191" lon="4.71584">
        <ele>195</ele>
        <time>2017-07-01T09:09:25Z</time>
      </trkpt>
      <trkpt lat="45.86187" lon="4.71579">
        <ele>195</ele>
        <time>2017-07-01T09:09:26Z</time>
      </trkpt>
      <trkpt lat="45.86183" lon="4.71574">
        <ele>195</ele>
        <time>2017-07-01T09:09:27Z</time>
      </trkpt>
      <trkpt lat="45.8618" lon="4.71569">
        <ele>195</ele>
        <time>2017-07-01T09:09:28Z</time>
      </trkpt>
      <trkpt lat="45.86177" lon="4.71563">
        <ele>195</ele>
        <time>2017-07-01T09:09:29Z</time>
      </trkpt>
      <trkpt lat="45.86174" lon="4.71557">
        <ele>195</ele>
        <time>2017-07-01T09:09:30Z</time>
      </trkpt>
      <trkpt lat="45.86171" lon="4.71552">
        <ele>195</ele>
        <time>2017-07-01T09:09:31Z</time>
      </trkpt>
      <trkpt lat="45.86169" lon="4.71546">
        <ele>195</ele>
        <time>2017-07-01T09:09:32Z</time>
      </trkpt>
      <trkpt lat="45.86165" lon="4.71541">
        <ele>195</ele>
        <time>2017-07-01T09:09:33Z</time>
      </trkpt>
      <trkpt lat="45.86162" lon="4.71535">
        <ele>195</ele>
        <time>2017-07-01T09:09:34Z</time>
      </trkpt>
      <trkpt lat="45.86159" lon="4.71529">
        <ele>195</ele>
        <time>2017-07-01T09:09:35Z</time>
      </trkpt>
      <trkpt lat="45.86156" lon="4.71524">
        <ele>195</ele>
        <time>2017-07-01T09:09:36Z</time>
      </trkpt>
      <trkpt lat="45.86153" lon="4.71518">
        <ele>195</ele>
        <time>2017-07-01T09:09:37Z</time>
      </trkpt>
      <trkpt lat="45.8615" lon="4.71512">
        <ele>195</ele>
        <time>2017-07-01T09:09:38Z</time>
      </trkpt>
      <trkpt lat="45.86148" lon="4.71506">
        <ele>195</ele>
        <time>2017-07-01T09:09:39Z</time>
      </trkpt>
      <trkpt lat="45.86145" lon="4.715">
        <ele>195</ele>
        <time>2017-07-01T09:09:40Z</time>
      </trkpt>
      <trkpt lat="45.86142" lon="4.71494">
        <ele>195</ele>
        <time>2017-07-01T09:09:41Z</time>
      </trkpt>
      <trkpt lat="45.86139" lon="4.71487">
        <ele>195</ele>
        <time>2017-07-01T09:09:42Z</time>
      </trkpt>
      <trkpt lat="45.86137" lon="4.71481">
        <ele>195</ele>
        <time>2017-07-01T09:09:43Z</time>
      </trkpt>
      <trkpt lat="45.86134" lon="4.71474">
        <ele>195</ele>
        <time>2017-07-01T09:09:44Z</time>
      </trkpt>
      <trkpt lat="45.86132" lon="4.71468">
        <ele>195</ele>
        <time>2017-07-01T09:09:45Z</time>
      </trkpt>
      <trkpt lat="45.8613" lon="4.71462">
        <ele>195</ele>
        <time>2017-07-01T09:09:46Z</time>
      </trkpt>
      <trkpt lat="45.86128" lon="4.71455">
        <ele>195</ele>
        <time>2017-07-01T09:09:47Z</time>
      </trkpt>
      <trkpt lat="45.86126" lon="4.71448">
        <ele>195</ele>
        <time>2017-07-01T09:09:48Z</time>
      </trkpt>
      <trkpt lat="45.86125" lon="4.71441">
        <ele>195</ele>
        <time>2017-07-01T09:09:49Z</time>
      </trkpt>
      <trkpt lat="45.86124" lon="4.71435">
        <ele>195</ele>
        <time>2017-07-01T09:09:50Z</time>
      </trkpt>
      <trkpt lat="45.86123" lon="4.71428">
        <ele>195</ele>
        <time>2017-07-01T09:09:51Z</time>
      </trkpt>
      <trkpt lat="45.86122" lon="4.71421">
        <ele>195</ele>
        <time>2017-07-01T09:09:52Z</time>
      </trkpt>
      <trkpt lat="45.86121" lon="4.71415">
        <ele>196</ele>
        <time>2017-07-01T09:09:53Z</time>
      </trkpt>
      <trkpt lat="45.8612" lon="4.71408">
        <ele>196</ele>
        <time>2017-07-01T09:09:54Z</time>
      </trkpt>
      <trkpt lat="45.8612" lon="4.71401">
        <ele>196</ele>
        <time>2017-07-01T09:09:55Z</time>
      </trkpt>
      <trkpt lat="45.86119" lon="4.71394">
        <ele>196</ele>
        <time>2017-07-01T09:09:56Z</time>
      </trkpt>
      <trkpt lat="45.86119" lon="4.71387">
        <ele>196</ele>
        <time>2017-07-01T09:09:57Z</time>
      </trkpt>
      <trkpt lat="45.86118" lon="4.7138">
        <ele>196</ele>
        <time>2017-07-01T09:09:58Z</time>
      </trkpt>
      <trkpt lat="45.86117" lon="4.71374">
        <ele>196</ele>
        <time>2017-07-01T09:09:59Z</time>
      </trkpt>
      <trkpt lat="45.86116" lon="4.71362">
        <ele>196</ele>
        <time>2017-07-01T09:10:01Z</time>
      </trkpt>
      <trkpt lat="45.86115" lon="4.71357">
        <ele>196</ele>
        <time>2017-07-01T09:10:02Z</time>
      </trkpt>
      <trkpt lat="45.86113" lon="4.71346">
        <ele>196</ele>
        <time>2017-07-01T09:10:04Z</time>
      </trkpt>
      <trkpt lat="45.86112" lon="4.71339">
        <ele>196</ele>
        <time>2017-07-01T09:10:05Z</time>
      </trkpt>
      <trkpt lat="45.86111" lon="4.71332">
        <ele>196</ele>
        <time>2017-07-01T09:10:06Z</time>
      </trkpt>
      <trkpt lat="45.86109" lon="4.71324">
        <ele>196</ele>
        <time>2017-07-01T09:10:07Z</time>
      </trkpt>
      <trkpt lat="45.86108" lon="4.71316">
        <ele>196</ele>
        <time>2017-07-01T09:10:08Z</time>
      </trkpt>
      <trkpt lat="45.86106" lon="4.71309">
        <ele>196</ele>
        <time>2017-07-01T09:10:09Z</time>
      </trkpt>
      <trkpt lat="45.86105" lon="4.71302">
        <ele>196</ele>
        <time>2017-07-01T09:10:10Z</time>
      </trkpt>
      <trkpt lat="45.86104" lon="4.71295">
        <ele>197</ele>
        <time>2017-07-01T09:10:11Z</time>
      </trkpt>
      <trkpt lat="45.86102" lon="4.71289">
        <ele>197</ele>
        <time>2017-07-01T09:10:12Z</time>
      </trkpt>
      <trkpt lat="45.86101" lon="4.71283">
        <ele>197</ele>
        <time>2017-07-01T09:10:13Z</time>
      </trkpt>
      <trkpt lat="45.86097" lon="4.71272">
        <ele>197</ele>
        <time>2017-07-01T09:10:15Z</time>
      </trkpt>
      <trkpt lat="45.86094" lon="4.71266">
        <ele>197</ele>
        <time>2017-07-01T09:10:16Z</time>
      </trkpt>
      <trkpt lat="45.86092" lon="4.71261">
        <ele>197</ele>
        <time>2017-07-01T09:10:17Z</time>
      </trkpt>
      <trkpt lat="45.8609" lon="4.71255">
        <ele>198</ele>
        <time>2017-07-01T09:10:18Z</time>
      </trkpt>
      <trkpt lat="45.86087" lon="4.7125">
        <ele>198</ele>
        <time>2017-07-01T09:10:19Z</time>
      </trkpt>
      <trkpt lat="45.86085" lon="4.71244">
        <ele>198</ele>
        <time>2017-07-01T09:10:20Z</time>
      </trkpt>
      <trkpt lat="45.86085" lon="4.71236">
        <ele>197</ele>
        <time>2017-07-01T09:10:21Z</time>
      </trkpt>
      <trkpt lat="45.86085" lon="4.71229">
        <ele>197</ele>
        <time>2017-07-01T09:10:22Z</time>
      </trkpt>
      <trkpt lat="45.86086" lon="4.71216">
        <ele>197</ele>
        <time>2017-07-01T09:10:24Z</time>
      </trkpt>
      <trkpt lat="45.86087" lon="4.7121">
        <ele>197</ele>
        <time>2017-07-01T09:10:25Z</time>
      </trkpt>
      <trkpt lat="45.86089" lon="4.71199">
        <ele>197</ele>
        <time>2017-07-01T09:10:27Z</time>
      </trkpt>
      <trkpt lat="45.86089" lon="4.71193">
        <ele>197</ele>
        <time>2017-07-01T09:10:28Z</time>
      </trkpt>
      <trkpt lat="45.86089" lon="4.71187">
        <ele>197</ele>
        <time>2017-07-01T09:10:29Z</time>
      </trkpt>
      <trkpt lat="45.8609" lon="4.7118">
        <ele>197</ele>
        <time>2017-07-01T09:10:30Z</time>
      </trkpt>
      <trkpt lat="45.86091" lon="4.71173">
        <ele>198</ele>
        <time>2017-07-01T09:10:31Z</time>
      </trkpt>
      <trkpt lat="45.86091" lon="4.71165">
        <ele>197</ele>
        <time>2017-07-01T09:10:32Z</time>
      </trkpt>
      <trkpt lat="45.86092" lon="4.71158">
        <ele>197</ele>
        <time>2017-07-01T09:10:33Z</time>
      </trkpt>
      <trkpt lat="45.86091" lon="4.71152">
        <ele>197</ele>
        <time>2017-07-01T09:10:34Z</time>
      </trkpt>
      <trkpt lat="45.8609" lon="4.71144">
        <ele>197</ele>
        <time>2017-07-01T09:10:35Z</time>
      </trkpt>
      <trkpt lat="45.86089" lon="4.71138">
        <ele>197</ele>
        <time>2017-07-01T09:10:36Z</time>
      </trkpt>
      <trkpt lat="45.86082" lon="4.71131">
        <ele>197</ele>
        <time>2017-07-01T09:10:38Z</time>
      </trkpt>
      <trkpt lat="45.86077" lon="4.71129">
        <ele>197</ele>
        <time>2017-07-01T09:10:39Z</time>
      </trkpt>
      <trkpt lat="45.86071" lon="4.71126">
        <ele>197</ele>
        <time>2017-07-01T09:10:40Z</time>
      </trkpt>
      <trkpt lat="45.86067" lon="4.71123">
        <ele>197</ele>
        <time>2017-07-01T09:10:41Z</time>
      </trkpt>
      <trkpt lat="45.86062" lon="4.71118">
        <ele>197</ele>
        <time>2017-07-01T09:10:42Z</time>
      </trkpt>
      <trkpt lat="45.86059" lon="4.71113">
        <ele>197</ele>
        <time>2017-07-01T09:10:43Z</time>
      </trkpt>
      <trkpt lat="45.86055" lon="4.71107">
        <ele>197</ele>
        <time>2017-07-01T09:10:44Z</time>
      </trkpt>
      <trkpt lat="45.86052" lon="4.71103">
        <ele>197</ele>
        <time>2017-07-01T09:10:45Z</time>
      </trkpt>
      <trkpt lat="45.86046" lon="4.71093">
        <ele>197</ele>
        <time>2017-07-01T09:10:47Z</time>
      </trkpt>
      <trkpt lat="45.86044" lon="4.71088">
        <ele>197</ele>
        <time>2017-07-01T09:10:48Z</time>
      </trkpt>
      <trkpt lat="45.86041" lon="4.71077">
        <ele>197</ele>
        <time>2017-07-01T09:10:50Z</time>
      </trkpt>
      <trkpt lat="45.8604" lon="4.7107">
        <ele>197</ele>
        <time>2017-07-01T09:10:51Z</time>
      </trkpt>
      <trkpt lat="45.86039" lon="4.71064">
        <ele>197</ele>
        <time>2017-07-01T09:10:52Z</time>
      </trkpt>
      <trkpt lat="45.86038" lon="4.71057">
        <ele>197</ele>
        <time>2017-07-01T09:10:53Z</time>
      </trkpt>
      <trkpt lat="45.86037" lon="4.7105">
        <ele>197</ele>
        <time>2017-07-01T09:10:54Z</time>
      </trkpt>
      <trkpt lat="45.86034" lon="4.71043">
        <ele>197</ele>
        <time>2017-07-01T09:10:55Z</time>
      </trkpt>
      <trkpt lat="45.86032" lon="4.71036">
        <ele>197</ele>
        <time>2017-07-01T09:10:56Z</time>
      </trkpt>
      <trkpt lat="45.8603" lon="4.71029">
        <ele>197</ele>
        <time>2017-07-01T09:10:57Z</time>
      </trkpt>
      <trkpt lat="45.86026" lon="4.71019">
        <ele>197</ele>
        <time>2017-07-01T09:10:59Z</time>
      </trkpt>
      <trkpt lat="45.86024" lon="4.71014">
        <ele>197</ele>
        <time>2017-07-01T09:11:00Z</time>
      </trkpt>
      <trkpt lat="45.86021" lon="4.71009">
        <ele>197</ele>
        <time>2017-07-01T09:11:01Z</time>
      </trkpt>
      <trkpt lat="45.86017" lon="4.71005">
        <ele>197</ele>
        <time>2017-07-01T09:11:02Z</time>
      </trkpt>
      <trkpt lat="45.86013" lon="4.71001">
        <ele>197</ele>
        <time>2017-07-01T09:11:03Z</time>
      </trkpt>
      <trkpt lat="45.86009" lon="4.70996">
        <ele>197</ele>
        <time>2017-07-01T09:11:04Z</time>
      </trkpt>
      <trkpt lat="45.86005" lon="4.70992">
        <ele>197</ele>
        <time>2017-07-01T09:11:05Z</time>
      </trkpt>
      <trkpt lat="45.86" lon="4.70987">
        <ele>197</ele>
        <time>2017-07-01T09:11:06Z</time>
      </trkpt>
      <trkpt lat="45.85995" lon="4.70984">
        <ele>197</ele>
        <time>2017-07-01T09:11:07Z</time>
      </trkpt>
      <trkpt lat="45.8599" lon="4.70981">
        <ele>197</ele>
        <time>2017-07-01T09:11:08Z</time>
      </trkpt>
      <trkpt lat="45.85986" lon="4.70978">
        <ele>197</ele>
        <time>2017-07-01T09:11:09Z</time>
      </trkpt>
      <trkpt lat="45.85981" lon="4.70976">
        <ele>197</ele>
        <time>2017-07-01T09:11:10Z</time>
      </trkpt>
      <trkpt lat="45.85976" lon="4.70974">
        <ele>197</ele>
        <time>2017-07-01T09:11:11Z</time>
      </trkpt>
      <trkpt lat="45.85971" lon="4.70972">
        <ele>197</ele>
        <time>2017-07-01T09:11:12Z</time>
      </trkpt>
      <trkpt lat="45.85967" lon="4.70971">
        <ele>197</ele>
        <time>2017-07-01T09:11:13Z</time>
      </trkpt>
      <trkpt lat="45.85962" lon="4.70971">
        <ele>197</ele>
        <time>2017-07-01T09:11:14Z</time>
      </trkpt>
      <trkpt lat="45.85953" lon="4.70971">
        <ele>197</ele>
        <time>2017-07-01T09:11:16Z</time>
      </trkpt>
      <trkpt lat="45.85949" lon="4.7097">
        <ele>197</ele>
        <time>2017-07-01T09:11:17Z</time>
      </trkpt>
      <trkpt lat="45.85942" lon="4.70964">
        <ele>197</ele>
        <time>2017-07-01T09:11:19Z</time>
      </trkpt>
      <trkpt lat="45.8594" lon="4.70959">
        <ele>197</ele>
        <time>2017-07-01T09:11:20Z</time>
      </trkpt>
      <trkpt lat="45.8594" lon="4.70952">
        <ele>197</ele>
        <time>2017-07-01T09:11:21Z</time>
      </trkpt>
      <trkpt lat="45.8594" lon="4.70945">
        <ele>197</ele>
        <time>2017-07-01T09:11:22Z</time>
      </trkpt>
      <trkpt lat="45.85942" lon="4.70938">
        <ele>197</ele>
        <time>2017-07-01T09:11:23Z</time>
      </trkpt>
      <trkpt lat="45.85945" lon="4.70931">
        <ele>197</ele>
        <time>2017-07-01T09:11:24Z</time>
      </trkpt>
      <trkpt lat="45.85946" lon="4.70924">
        <ele>197</ele>
        <time>2017-07-01T09:11:25Z</time>
      </trkpt>
      <trkpt lat="45.85948" lon="4.70917">
        <ele>197</ele>
        <time>2017-07-01T09:11:26Z</time>
      </trkpt>
      <trkpt lat="45.85949" lon="4.70909">
        <ele>197</ele>
        <time>2017-07-01T09:11:27Z</time>
      </trkpt>
      <trkpt lat="45.85951" lon="4.70902">
        <ele>197</ele>
        <time>2017-07-01T09:11:28Z</time>
      </trkpt>
      <trkpt lat="45.85953" lon="4.70895">
        <ele>197</ele>
        <time>2017-07-01T09:11:29Z</time>
      </trkpt>
      <trkpt lat="45.85954" lon="4.70889">
        <ele>197</ele>
        <time>2017-07-01T09:11:30Z</time>
      </trkpt>
      <trkpt lat="45.85956" lon="4.70882">
        <ele>197</ele>
        <time>2017-07-01T09:11:31Z</time>
      </trkpt>
      <trkpt lat="45.85957" lon="4.70876">
        <ele>197</ele>
        <time>2017-07-01T09:11:32Z</time>
      </trkpt>
      <trkpt lat="45.85958" lon="4.70869">
        <ele>196</ele>
        <time>2017-07-01T09:11:33Z</time>
      </trkpt>
      <trkpt lat="45.85959" lon="4.70862">
        <ele>196</ele>
        <time>2017-07-01T09:11:34Z</time>
      </trkpt>
      <trkpt lat="45.8596" lon="4.70855">
        <ele>196</ele>
        <time>2017-07-01T09:11:35Z</time>
      </trkpt>
      <trkpt lat="45.8596" lon="4.70848">
        <ele>196</ele>
        <time>2017-07-01T09:11:36Z</time>
      </trkpt>
      <trkpt lat="45.8596" lon="4.7084">
        <ele>196</ele>
        <time>2017-07-01T09:11:37Z</time>
      </trkpt>
      <trkpt lat="45.8596" lon="4.70833">
        <ele>196</ele>
        <time>2017-07-01T09:11:38Z</time>
      </trkpt>
      <trkpt lat="45.85959" lon="4.70826">
        <ele>196</ele>
        <time>2017-07-01T09:11:39Z</time>
      </trkpt>
      <trkpt lat="45.85958" lon="4.70818">
        <ele>195</ele>
        <time>2017-07-01T09:11:40Z</time>
      </trkpt>
      <trkpt lat="45.85957" lon="4.7081">
        <ele>195</ele>
        <time>2017-07-01T09:11:41Z</time>
      </trkpt>
      <trkpt lat="45.85956" lon="4.70803">
        <ele>195</ele>
        <time>2017-07-01T09:11:42Z</time>
      </trkpt>
      <trkpt lat="45.85955" lon="4.70794">
        <ele>195</ele>
        <time>2017-07-01T09:11:43Z</time>
      </trkpt>
      <trkpt lat="45.85956" lon="4.70786">
        <ele>195</ele>
        <time>2017-07-01T09:11:44Z</time>
      </trkpt>
      <trkpt lat="45.85957" lon="4.70778">
        <ele>195</ele>
        <time>2017-07-01T09:11:45Z</time>
      </trkpt>
      <trkpt lat="45.85958" lon="4.70771">
        <ele>195</ele>
        <time>2017-07-01T09:11:46Z</time>
      </trkpt>
      <trkpt lat="45.85958" lon="4.70763">
        <ele>195</ele>
        <time>2017-07-01T09:11:47Z</time>
      </trkpt>
      <trkpt lat="45.85959" lon="4.70756">
        <ele>195</ele>
        <time>2017-07-01T09:11:48Z</time>
      </trkpt>
      <trkpt lat="45.8596" lon="4.70749">
        <ele>194</ele>
        <time>2017-07-01T09:11:49Z</time>
      </trkpt>
      <trkpt lat="45.8596" lon="4.70741">
        <ele>194</ele>
        <time>2017-07-01T09:11:50Z</time>
      </trkpt>
      <trkpt lat="45.85961" lon="4.70734">
        <ele>194</ele>
        <time>2017-07-01T09:11:51Z</time>
      </trkpt>
      <trkpt lat="45.85962" lon="4.70726">
        <ele>194</ele>
        <time>2017-07-01T09:11:52Z</time>
      </trkpt>
      <trkpt lat="45.85963" lon="4.70718">
        <ele>194</ele>
        <time>2017-07-01T09:11:53Z</time>
      </trkpt>
      <trkpt lat="45.85963" lon="4.7071">
        <ele>194</ele>
        <time>2017-07-01T09:11:54Z</time>
      </trkpt>
      <trkpt lat="45.85964" lon="4.70703">
        <ele>194</ele>
        <time>2017-07-01T09:11:55Z</time>
      </trkpt>
      <trkpt lat="45.85964" lon="4.70696">
        <ele>194</ele>
        <time>2017-07-01T09:11:56Z</time>
      </trkpt>
      <trkpt lat="45.85964" lon="4.70688">
        <ele>194</ele>
        <time>2017-07-01T09:11:57Z</time>
      </trkpt>
      <trkpt lat="45.85963" lon="4.70682">
        <ele>194</ele>
        <time>2017-07-01T09:11:58Z</time>
      </trkpt>
      <trkpt lat="45.85961" lon="4.70675">
        <ele>194</ele>
        <time>2017-07-01T09:11:59Z</time>
      </trkpt>
      <trkpt lat="45.85958" lon="4.70669">
        <ele>194</ele>
        <time>2017-07-01T09:12:00Z</time>
      </trkpt>
      <trkpt lat="45.85955" lon="4.70663">
        <ele>194</ele>
        <time>2017-07-01T09:12:01Z</time>
      </trkpt>
      <trkpt lat="45.85951" lon="4.70657">
        <ele>194</ele>
        <time>2017-07-01T09:12:02Z</time>
      </trkpt>
      <trkpt lat="45.85947" lon="4.70651">
        <ele>194</ele>
        <time>2017-07-01T09:12:03Z</time>
      </trkpt>
      <trkpt lat="45.85943" lon="4.70644">
        <ele>194</ele>
        <time>2017-07-01T09:12:04Z</time>
      </trkpt>
      <trkpt lat="45.85939" lon="4.70637">
        <ele>194</ele>
        <time>2017-07-01T09:12:05Z</time>
      </trkpt>
      <trkpt lat="45.85935" lon="4.70631">
        <ele>194</ele>
        <time>2017-07-01T09:12:06Z</time>
      </trkpt>
      <trkpt lat="45.85932" lon="4.70625">
        <ele>194</ele>
        <time>2017-07-01T09:12:07Z</time>
      </trkpt>
      <trkpt lat="45.85929" lon="4.70619">
        <ele>194</ele>
        <time>2017-07-01T09:12:08Z</time>
      </trkpt>
      <trkpt lat="45.85925" lon="4.70614">
        <ele>194</ele>
        <time>2017-07-01T09:12:09Z</time>
      </trkpt>
      <trkpt lat="45.85922" lon="4.70608">
        <ele>194</ele>
        <time>2017-07-01T09:12:10Z</time>
      </trkpt>
      <trkpt lat="45.85918" lon="4.70603">
        <ele>194</ele>
        <time>2017-07-01T09:12:11Z</time>
      </trkpt>
      <trkpt lat="45.85915" lon="4.70598">
        <ele>195</ele>
        <time>2017-07-01T09:12:12Z</time>
      </trkpt>
      <trkpt lat="45.85911" lon="4.70593">
        <ele>195</ele>
        <time>2017-07-01T09:12:13Z</time>
      </trkpt>
      <trkpt lat="45.85907" lon="4.70587">
        <ele>195</ele>
        <time>2017-07-01T09:12:14Z</time>
      </trkpt>
      <trkpt lat="45.85903" lon="4.70583">
        <ele>195</ele>
        <time>2017-07-01T09:12:15Z</time>
      </trkpt>
      <trkpt lat="45.85898" lon="4.7058">
        <ele>195</ele>
        <time>2017-07-01T09:12:16Z</time>
      </trkpt>
      <trkpt lat="45.85893" lon="4.70578">
        <ele>195</ele>
        <time>2017-07-01T09:12:17Z</time>
      </trkpt>
      <trkpt lat="45.85887" lon="4.70577">
        <ele>195</ele>
        <time>2017-07-01T09:12:18Z</time>
      </trkpt>
      <trkpt lat="45.85882" lon="4.70576">
        <ele>195</ele>
        <time>2017-07-01T09:12:19Z</time>
      </trkpt>
      <trkpt lat="45.85876" lon="4.70575">
        <ele>195</ele>
        <time>2017-07-01T09:12:20Z</time>
      </trkpt>
      <trkpt lat="45.8587" lon="4.70573">
        <ele>195</ele>
        <time>2017-07-01T09:12:21Z</time>
      </trkpt>
      <trkpt lat="45.85865" lon="4.70572">
        <ele>195</ele>
        <time>2017-07-01T09:12:22Z</time>
      </trkpt>
      <trkpt lat="45.85859" lon="4.7057">
        <ele>195</ele>
        <time>2017-07-01T09:12:23Z</time>
      </trkpt>
      <trkpt lat="45.85854" lon="4.70568">
        <ele>195</ele>
        <time>2017-07-01T09:12:24Z</time>
      </trkpt>
      <trkpt lat="45.85849" lon="4.70567">
        <ele>195</ele>
        <time>2017-07-01T09:12:25Z</time>
      </trkpt>
      <trkpt lat="45.85843" lon="4.70565">
        <ele>195</ele>
        <time>2017-07-01T09:12:26Z</time>
      </trkpt>
      <trkpt lat="45.85839" lon="4.70563">
        <ele>195</ele>
        <time>2017-07-01T09:12:27Z</time>
      </trkpt>
      <trkpt lat="45.85834" lon="4.7056">
        <ele>195</ele>
        <time>2017-07-01T09:12:28Z</time>
      </trkpt>
      <trkpt lat="45.85829" lon="4.70557">
        <ele>195</ele>
        <time>2017-07-01T09:12:29Z</time>
      </trkpt>
      <trkpt lat="45.85824" lon="4.70555">
        <ele>195</ele>
        <time>2017-07-01T09:12:30Z</time>
      </trkpt>
      <trkpt lat="45.8582" lon="4.70552">
        <ele>195</ele>
        <time>2017-07-01T09:12:31Z</time>
      </trkpt>
      <trkpt lat="45.85815" lon="4.7055">
        <ele>195</ele>
        <time>2017-07-01T09:12:32Z</time>
      </trkpt>
      <trkpt lat="45.8581" lon="4.70548">
        <ele>195</ele>
        <time>2017-07-01T09:12:33Z</time>
      </trkpt>
      <trkpt lat="45.85806" lon="4.70546">
        <ele>195</ele>
        <time>2017-07-01T09:12:34Z</time>
      </trkpt>
      <trkpt lat="45.85801" lon="4.70544">
        <ele>195</ele>
        <time>2017-07-01T09:12:35Z</time>
      </trkpt>
      <trkpt lat="45.85796" lon="4.70541">
        <ele>195</ele>
        <time>2017-07-01T09:12:36Z</time>
      </trkpt>
      <trkpt lat="45.8579" lon="4.70537">
        <ele>196</ele>
        <time>2017-07-01T09:12:37Z</time>
      </trkpt>
      <trkpt lat="45.85784" lon="4.70534">
        <ele>196</ele>
        <time>2017-07-01T09:12:38Z</time>
      </trkpt>
      <trkpt lat="45.85779" lon="4.7053">
        <ele>196</ele>
        <time>2017-07-01T09:12:39Z</time>
      </trkpt>
      <trkpt lat="45.85774" lon="4.70526">
        <ele>196</ele>
        <time>2017-07-01T09:12:40Z</time>
      </trkpt>
      <trkpt lat="45.85769" lon="4.70523">
        <ele>196</ele>
        <time>2017-07-01T09:12:41Z</time>
      </trkpt>
      <trkpt lat="45.85765" lon="4.7052">
        <ele>196</ele>
        <time>2017-07-01T09:12:42Z</time>
      </trkpt>
      <trkpt lat="45.8576" lon="4.70516">
        <ele>196</ele>
        <time>2017-07-01T09:12:43Z</time>
      </trkpt>
      <trkpt lat="45.85756" lon="4.70513">
        <ele>196</ele>
        <time>2017-07-01T09:12:44Z</time>
      </trkpt>
      <trkpt lat="45.85751" lon="4.70511">
        <ele>196</ele>
        <time>2017-07-01T09:12:45Z</time>
      </trkpt>
      <trkpt lat="45.85747" lon="4.70508">
        <ele>196</ele>
        <time>2017-07-01T09:12:46Z</time>
      </trkpt>
      <trkpt lat="45.8574" lon="4.70502">
        <ele>196</ele>
        <time>2017-07-01T09:12:48Z</time>
      </trkpt>
      <trkpt lat="45.85738" lon="4.70498">
        <ele>196</ele>
        <time>2017-07-01T09:12:49Z</time>
      </trkpt>
      <trkpt lat="45.85732" lon="4.7049">
        <ele>196</ele>
        <time>2017-07-01T09:12:51Z</time>
      </trkpt>
      <trkpt lat="45.8573" lon="4.70484">
        <ele>196</ele>
        <time>2017-07-01T09:12:52Z</time>
      </trkpt>
      <trkpt lat="45.85728" lon="4.70478">
        <ele>196</ele>
        <time>2017-07-01T09:12:53Z</time>
      </trkpt>
      <trkpt lat="45.85726" lon="4.70471">
        <ele>196</ele>
        <time>2017-07-01T09:12:54Z</time>
      </trkpt>
      <trkpt lat="45.85725" lon="4.70464">
        <ele>196</ele>
        <time>2017-07-01T09:12:55Z</time>
      </trkpt>
      <trkpt lat="45.85724" lon="4.70457">
        <ele>196</ele>
        <time>2017-07-01T09:12:56Z</time>
      </trkpt>
      <trkpt lat="45.85723" lon="4.70449">
        <ele>196</ele>
        <time>2017-07-01T09:12:57Z</time>
      </trkpt>
      <trkpt lat="45.85722" lon="4.7044">
        <ele>196</ele>
        <time>2017-07-01T09:12:58Z</time>
      </trkpt>
      <trkpt lat="45.8572" lon="4.70432">
        <ele>196</ele>
        <time>2017-07-01T09:12:59Z</time>
      </trkpt>
      <trkpt lat="45.85719" lon="4.70424">
        <ele>196</ele>
        <time>2017-07-01T09:13:00Z</time>
      </trkpt>
      <trkpt lat="45.85718" lon="4.70415">
        <ele>196</ele>
        <time>2017-07-01T09:13:01Z</time>
      </trkpt>
      <trkpt lat="45.85717" lon="4.70407">
        <ele>196</ele>
        <time>2017-07-01T09:13:02Z</time>
      </trkpt>
      <trkpt lat="45.85716" lon="4.70398">
        <ele>196</ele>
        <time>2017-07-01T09:13:03Z</time>
      </trkpt>
      <trkpt lat="45.85715" lon="4.7039">
        <ele>196</ele>
        <time>2017-07-01T09:13:04Z</time>
      </trkpt>
      <trkpt lat="45.85714" lon="4.70381">
        <ele>196</ele>
        <time>2017-07-01T09:13:05Z</time>
      </trkpt>
      <trkpt lat="45.85713" lon="4.70373">
        <ele>196</ele>
        <time>2017-07-01T09:13:06Z</time>
      </trkpt>
      <trkpt lat="45.85713" lon="4.70366">
        <ele>196</ele>
        <time>2017-07-01T09:13:07Z</time>
      </trkpt>
      <trkpt lat="45.85712" lon="4.70359">
        <ele>196</ele>
        <time>2017-07-01T09:13:08Z</time>
      </trkpt>
      <trkpt lat="45.85711" lon="4.70351">
        <ele>196</ele>
        <time>2017-07-01T09:13:09Z</time>
      </trkpt>
      <trkpt lat="45.8571" lon="4.70343">
        <ele>196</ele>
        <time>2017-07-01T09:13:10Z</time>
      </trkpt>
      <trkpt lat="45.85709" lon="4.70335">
        <ele>196</ele>
        <time>2017-07-01T09:13:11Z</time>
      </trkpt>
      <trkpt lat="45.85708" lon="4.70327">
        <ele>197</ele>
        <time>2017-07-01T09:13:12Z</time>
      </trkpt>
      <trkpt lat="45.85707" lon="4.70318">
        <ele>197</ele>
        <time>2017-07-01T09:13:13Z</time>
      </trkpt>
      <trkpt lat="45.85706" lon="4.7031">
        <ele>197</ele>
        <time>2017-07-01T09:13:14Z</time>
      </trkpt>
      <trkpt lat="45.85706" lon="4.70301">
        <ele>197</ele>
        <time>2017-07-01T09:13:15Z</time>
      </trkpt>
      <trkpt lat="45.85705" lon="4.70292">
        <ele>197</ele>
        <time>2017-07-01T09:13:16Z</time>
      </trkpt>
      <trkpt lat="45.85703" lon="4.70283">
        <ele>197</ele>
        <time>2017-07-01T09:13:17Z</time>
      </trkpt>
      <trkpt lat="45.85702" lon="4.70274">
        <ele>197</ele>
        <time>2017-07-01T09:13:18Z</time>
      </trkpt>
      <trkpt lat="45.85701" lon="4.70266">
        <ele>197</ele>
        <time>2017-07-01T09:13:19Z</time>
      </trkpt>
      <trkpt lat="45.85699" lon="4.70258">
        <ele>197</ele>
        <time>2017-07-01T09:13:20Z</time>
      </trkpt>
      <trkpt lat="45.85699" lon="4.7025">
        <ele>197</ele>
        <time>2017-07-01T09:13:21Z</time>
      </trkpt>
      <trkpt lat="45.85698" lon="4.70243">
        <ele>197</ele>
        <time>2017-07-01T09:13:22Z</time>
      </trkpt>
      <trkpt lat="45.85697" lon="4.70235">
        <ele>197</ele>
        <time>2017-07-01T09:13:23Z</time>
      </trkpt>
      <trkpt lat="45.85696" lon="4.70228">
        <ele>197</ele>
        <time>2017-07-01T09:13:24Z</time>
      </trkpt>
      <trkpt lat="45.85696" lon="4.70221">
        <ele>197</ele>
        <time>2017-07-01T09:13:25Z</time>
      </trkpt>
      <trkpt lat="45.85695" lon="4.70215">
        <ele>197</ele>
        <time>2017-07-01T09:13:26Z</time>
      </trkpt>
      <trkpt lat="45.85692" lon="4.70203">
        <ele>197</ele>
        <time>2017-07-01T09:13:28Z</time>
      </trkpt>
      <trkpt lat="45.85691" lon="4.70197">
        <ele>197</ele>
        <time>2017-07-01T09:13:29Z</time>
      </trkpt>
      <trkpt lat="45.8569" lon="4.7019">
        <ele>197</ele>
        <time>2017-07-01T09:13:30Z</time>
      </trkpt>
      <trkpt lat="45.85689" lon="4.70184">
        <ele>197</ele>
        <time>2017-07-01T09:13:31Z</time>
      </trkpt>
      <trkpt lat="45.85687" lon="4.70176">
        <ele>197</ele>
        <time>2017-07-01T09:13:32Z</time>
      </trkpt>
      <trkpt lat="45.85686" lon="4.70168">
        <ele>197</ele>
        <time>2017-07-01T09:13:33Z</time>
      </trkpt>
      <trkpt lat="45.85684" lon="4.70161">
        <ele>197</ele>
        <time>2017-07-01T09:13:34Z</time>
      </trkpt>
      <trkpt lat="45.85682" lon="4.70153">
        <ele>197</ele>
        <time>2017-07-01T09:13:35Z</time>
      </trkpt>
      <trkpt lat="45.8568" lon="4.70144">
        <ele>197</ele>
        <time>2017-07-01T09:13:36Z</time>
      </trkpt>
      <trkpt lat="45.85679" lon="4.70136">
        <ele>197</ele>
        <time>2017-07-01T09:13:37Z</time>
      </trkpt>
      <trkpt lat="45.8568" lon="4.70128">
        <ele>197</ele>
        <time>2017-07-01T09:13:38Z</time>
      </trkpt>
      <trkpt lat="45.85679" lon="4.70121">
        <ele>197</ele>
        <time>2017-07-01T09:13:39Z</time>
      </trkpt>
      <trkpt lat="45.85679" lon="4.70113">
        <ele>197</ele>
        <time>2017-07-01T09:13:40Z</time>
      </trkpt>
      <trkpt lat="45.85679" lon="4.70105">
        <ele>196</ele>
        <time>2017-07-01T09:13:41Z</time>
      </trkpt>
      <trkpt lat="45.8568" lon="4.70097">
        <ele>196</ele>
        <time>2017-07-01T09:13:42Z</time>
      </trkpt>
      <trkpt lat="45.8568" lon="4.7009">
        <ele>196</ele>
        <time>2017-07-01T09:13:43Z</time>
      </trkpt>
      <trkpt lat="45.85681" lon="4.70082">
        <ele>196</ele>
        <time>2017-07-01T09:13:44Z</time>
      </trkpt>
      <trkpt lat="45.85682" lon="4.70075">
        <ele>196</ele>
        <time>2017-07-01T09:13:45Z</time>
      </trkpt>
      <trkpt lat="45.85683" lon="4.70068">
        <ele>196</ele>
        <time>2017-07-01T09:13:46Z</time>
      </trkpt>
      <trkpt lat="45.85684" lon="4.70062">
        <ele>196</ele>
        <time>2017-07-01T09:13:47Z</time>
      </trkpt>
      <trkpt lat="45.85686" lon="4.70049">
        <ele>195</ele>
        <time>2017-07-01T09:13:49Z</time>
      </trkpt>
      <trkpt lat="45.85687" lon="4.70043">
        <ele>195</ele>
        <time>2017-07-01T09:13:50Z</time>
      </trkpt>
      <trkpt lat="45.85688" lon="4.70036">
        <ele>195</ele>
        <time>2017-07-01T09:13:51Z</time>
      </trkpt>
      <trkpt lat="45.85689" lon="4.70029">
        <ele>195</ele>
        <time>2017-07-01T09:13:52Z</time>
      </trkpt>
      <trkpt lat="45.8569" lon="4.70021">
        <ele>195</ele>
        <time>2017-07-01T09:13:53Z</time>
      </trkpt>
      <trkpt lat="45.85691" lon="4.70013">
        <ele>195</ele>
        <time>2017-07-01T09:13:54Z</time>
      </trkpt>
      <trkpt lat="45.85692" lon="4.70005">
        <ele>195</ele>
        <time>2017-07-01T09:13:55Z</time>
      </trkpt>
      <trkpt lat="45.85692" lon="4.69996">
        <ele>195</ele>
        <time>2017-07-01T09:13:56Z</time>
      </trkpt>
      <trkpt lat="45.85692" lon="4.69988">
        <ele>195</ele>
        <time>2017-07-01T09:13:57Z</time>
      </trkpt>
      <trkpt lat="45.85691" lon="4.69979">
        <ele>195</ele>
        <time>2017-07-01T09:13:58Z</time>
      </trkpt>
      <trkpt lat="45.85689" lon="4.69971">
        <ele>195</ele>
        <time>2017-07-01T09:13:59Z</time>
      </trkpt>
      <trkpt lat="45.85688" lon="4.69963">
        <ele>195</ele>
        <time>2017-07-01T09:14:00Z</time>
      </trkpt>
      <trkpt lat="45.85685" lon="4.69955">
        <ele>195</ele>
        <time>2017-07-01T09:14:01Z</time>
      </trkpt>
      <trkpt lat="45.85684" lon="4.69946">
        <ele>195</ele>
        <time>2017-07-01T09:14:02Z</time>
      </trkpt>
      <trkpt lat="45.85682" lon="4.69938">
        <ele>195</ele>
        <time>2017-07-01T09:14:03Z</time>
      </trkpt>
      <trkpt lat="45.85679" lon="4.6993">
        <ele>195</ele>
        <time>2017-07-01T09:14:04Z</time>
      </trkpt>
      <trkpt lat="45.85678" lon="4.69922">
        <ele>195</ele>
        <time>2017-07-01T09:14:05Z</time>
      </trkpt>
      <trkpt lat="45.85676" lon="4.69914">
        <ele>195</ele>
        <time>2017-07-01T09:14:06Z</time>
      </trkpt>
      <trkpt lat="45.85674" lon="4.69907">
        <ele>195</ele>
        <time>2017-07-01T09:14:07Z</time>
      </trkpt>
      <trkpt lat="45.85672" lon="4.699">
        <ele>195</ele>
        <time>2017-07-01T09:14:08Z</time>
      </trkpt>
      <trkpt lat="45.85671" lon="4.69894">
        <ele>195</ele>
        <time>2017-07-01T09:14:09Z</time>
      </trkpt>
      <trkpt lat="45.85671" lon="4.69886">
        <ele>195</ele>
        <time>2017-07-01T09:14:10Z</time>
      </trkpt>
      <trkpt lat="45.8567" lon="4.69879">
        <ele>195</ele>
        <time>2017-07-01T09:14:11Z</time>
      </trkpt>
      <trkpt lat="45.85669" lon="4.69872">
        <ele>195</ele>
        <time>2017-07-01T09:14:12Z</time>
      </trkpt>
      <trkpt lat="45.85668" lon="4.69865">
        <ele>195</ele>
        <time>2017-07-01T09:14:13Z</time>
      </trkpt>
      <trkpt lat="45.85667" lon="4.69858">
        <ele>195</ele>
        <time>2017-07-01T09:14:14Z</time>
      </trkpt>
      <trkpt lat="45.85666" lon="4.6985">
        <ele>195</ele>
        <time>2017-07-01T09:14:15Z</time>
      </trkpt>
      <trkpt lat="45.85665" lon="4.69842">
        <ele>195</ele>
        <time>2017-07-01T09:14:16Z</time>
      </trkpt>
      <trkpt lat="45.85663" lon="4.69835">
        <ele>195</ele>
        <time>2017-07-01T09:14:17Z</time>
      </trkpt>
      <trkpt lat="45.85662" lon="4.69826">
        <ele>195</ele>
        <time>2017-07-01T09:14:18Z</time>
      </trkpt>
      <trkpt lat="45.85662" lon="4.69818">
        <ele>195</ele>
        <time>2017-07-01T09:14:19Z</time>
      </trkpt>
      <trkpt lat="45.85661" lon="4.6981">
        <ele>195</ele>
        <time>2017-07-01T09:14:20Z</time>
      </trkpt>
      <trkpt lat="45.8566" lon="4.69802">
        <ele>195</ele>
        <time>2017-07-01T09:14:21Z</time>
      </trkpt>
      <trkpt lat="45.85659" lon="4.69794">
        <ele>195</ele>
        <time>2017-07-01T09:14:22Z</time>
      </trkpt>
      <trkpt lat="45.85658" lon="4.69786">
        <ele>195</ele>
        <time>2017-07-01T09:14:23Z</time>
      </trkpt>
      <trkpt lat="45.85658" lon="4.69778">
        <ele>195</ele>
        <time>2017-07-01T09:14:24Z</time>
      </trkpt>
      <trkpt lat="45.85657" lon="4.6977">
        <ele>195</ele>
        <time>2017-07-01T09:14:25Z</time>
      </trkpt>
      <trkpt lat="45.85656" lon="4.69763">
        <ele>195</ele>
        <time>2017-07-01T09:14:26Z</time>
      </trkpt>
      <trkpt lat="45.85655" lon="4.69756">
        <ele>195</ele>
        <time>2017-07-01T09:14:27Z</time>
      </trkpt>
      <trkpt lat="45.85654" lon="4.69749">
        <ele>195</ele>
        <time>2017-07-01T09:14:28Z</time>
      </trkpt>
      <trkpt lat="45.85653" lon="4.69742">
        <ele>195</ele>
        <time>2017-07-01T09:14:29Z</time>
      </trkpt>
      <trkpt lat="45.85652" lon="4.69736">
        <ele>195</ele>
        <time>2017-07-01T09:14:30Z</time>
      </trkpt>
      <trkpt lat="45.85652" lon="4.69728">
        <ele>195</ele>
        <time>2017-07-01T09:14:31Z</time>
      </trkpt>
      <trkpt lat="45.85651" lon="4.69721">
        <ele>196</ele>
        <time>2017-07-01T09:14:32Z</time>
      </trkpt>
      <trkpt lat="45.8565" lon="4.69714">
        <ele>196</ele>
        <time>2017-07-01T09:14:33Z</time>
      </trkpt>
      <trkpt lat="45.8565" lon="4.69706">
        <ele>196</ele>
        <time>2017-07-01T09:14:34Z</time>
      </trkpt>
      <trkpt lat="45.85648" lon="4.69698">
        <ele>196</ele>
        <time>2017-07-01T09:14:35Z</time>
      </trkpt>
      <trkpt lat="45.85647" lon="4.69691">
        <ele>196</ele>
        <time>2017-07-01T09:14:36Z</time>
      </trkpt>
      <trkpt lat="45.85646" lon="4.69683">
        <ele>196</ele>
        <time>2017-07-01T09:14:37Z</time>
      </trkpt>
      <trkpt lat="45.85645" lon="4.69675">
        <ele>196</ele>
        <time>2017-07-01T09:14:38Z</time>
      </trkpt>
      <trkpt lat="45.85644" lon="4.69667">
        <ele>196</ele>
        <time>2017-07-01T09:14:39Z</time>
      </trkpt>
      <trkpt lat="45.85645" lon="4.6966">
        <ele>197</ele>
        <time>2017-07-01T09:14:40Z</time>
      </trkpt>
      <trkpt lat="45.85644" lon="4.69653">
        <ele>197</ele>
        <time>2017-07-01T09:14:41Z</time>
      </trkpt>
      <trkpt lat="45.85644" lon="4.69646">
        <ele>197</ele>
        <time>2017-07-01T09:14:42Z</time>
      </trkpt>
      <trkpt lat="45.85643" lon="4.69639">
        <ele>197</ele>
        <time>2017-07-01T09:14:43Z</time>
      </trkpt>
      <trkpt lat="45.85642" lon="4.69632">
        <ele>197</ele>
        <time>2017-07-01T09:14:44Z</time>
      </trkpt>
      <trkpt lat="45.85641" lon="4.69624">
        <ele>197</ele>
        <time>2017-07-01T09:14:45Z</time>
      </trkpt>
      <trkpt lat="45.8564" lon="4.69616">
        <ele>197</ele>
        <time>2017-07-01T09:14:46Z</time>
      </trkpt>
      <trkpt lat="45.85639" lon="4.69608">
        <ele>197</ele>
        <time>2017-07-01T09:14:47Z</time>
      </trkpt>
      <trkpt lat="45.85638" lon="4.696">
        <ele>197</ele>
        <time>2017-07-01T09:14:48Z</time>
      </trkpt>
      <trkpt lat="45.85637" lon="4.69592">
        <ele>197</ele>
        <time>2017-07-01T09:14:49Z</time>
      </trkpt>
      <trkpt lat="45.85636" lon="4.69584">
        <ele>197</ele>
        <time>2017-07-01T09:14:50Z</time>
      </trkpt>
      <trkpt lat="45.85635" lon="4.69576">
        <ele>198</ele>
        <time>2017-07-01T09:14:51Z</time>
      </trkpt>
      <trkpt lat="45.85635" lon="4.69567">
        <ele>198</ele>
        <time>2017-07-01T09:14:52Z</time>
      </trkpt>
      <trkpt lat="45.85634" lon="4.69559">
        <ele>198</ele>
        <time>2017-07-01T09:14:53Z</time>
      </trkpt>
      <trkpt lat="45.85633" lon="4.69551">
        <ele>198</ele>
        <time>2017-07-01T09:14:54Z</time>
      </trkpt>
      <trkpt lat="45.85633" lon="4.69542">
        <ele>198</ele>
        <time>2017-07-01T09:14:55Z</time>
      </trkpt>
      <trkpt lat="45.85632" lon="4.69533">
        <ele>198</ele>
        <time>2017-07-01T09:14:56Z</time>
      </trkpt>
      <trkpt lat="45.85631" lon="4.69525">
        <ele>198</ele>
        <time>2017-07-01T09:14:57Z</time>
      </trkpt>
      <trkpt lat="45.8563" lon="4.69516">
        <ele>198</ele>
        <time>2017-07-01T09:14:58Z</time>
      </trkpt>
      <trkpt lat="45.8563" lon="4.69508">
        <ele>198</ele>
        <time>2017-07-01T09:14:59Z</time>
      </trkpt>
      <trkpt lat="45.85629" lon="4.69499">
        <ele>198</ele>
        <time>2017-07-01T09:15:00Z</time>
      </trkpt>
      <trkpt lat="45.85628" lon="4.69492">
        <ele>198</ele>
        <time>2017-07-01T09:15:01Z</time>
      </trkpt>
      <trkpt lat="45.85627" lon="4.69484">
        <ele>198</ele>
        <time>2017-07-01T09:15:02Z</time>
      </trkpt>
      <trkpt lat="45.85627" lon="4.69477">
        <ele>198</ele>
        <time>2017-07-01T09:15:03Z</time>
      </trkpt>
      <trkpt lat="45.85626" lon="4.6947">
        <ele>198</ele>
        <time>2017-07-01T09:15:04Z</time>
      </trkpt>
      <trkpt lat="45.85626" lon="4.69464">
        <ele>198</ele>
        <time>2017-07-01T09:15:05Z</time>
      </trkpt>
      <trkpt lat="45.85625" lon="4.69457">
        <ele>198</ele>
        <time>2017-07-01T09:15:06Z</time>
      </trkpt>
      <trkpt lat="45.85625" lon="4.6945">
        <ele>198</ele>
        <time>2017-07-01T09:15:07Z</time>
      </trkpt>
      <trkpt lat="45.85624" lon="4.69442">
        <ele>198</ele>
        <time>2017-07-01T09:15:08Z</time>
      </trkpt>
      <trkpt lat="45.85623" lon="4.69434">
        <ele>198</ele>
        <time>2017-07-01T09:15:09Z</time>
      </trkpt>
      <trkpt lat="45.85622" lon="4.69426">
        <ele>198</ele>
        <time>2017-07-01T09:15:10Z</time>
      </trkpt>
      <trkpt lat="45.85621" lon="4.69418">
        <ele>198</ele>
        <time>2017-07-01T09:15:11Z</time>
      </trkpt>
      <trkpt lat="45.8562" lon="4.69411">
        <ele>198</ele>
        <time>2017-07-01T09:15:12Z</time>
      </trkpt>
      <trkpt lat="45.8562" lon="4.69404">
        <ele>198</ele>
        <time>2017-07-01T09:15:13Z</time>
      </trkpt>
      <trkpt lat="45.8562" lon="4.69397">
        <ele>198</ele>
        <time>2017-07-01T09:15:14Z</time>
      </trkpt>
      <trkpt lat="45.85619" lon="4.69391">
        <ele>198</ele>
        <time>2017-07-01T09:15:15Z</time>
      </trkpt>
      <trkpt lat="45.85618" lon="4.69384">
        <ele>198</ele>
        <time>2017-07-01T09:15:16Z</time>
      </trkpt>
      <trkpt lat="45.85618" lon="4.69378">
        <ele>198</ele>
        <time>2017-07-01T09:15:17Z</time>
      </trkpt>
      <trkpt lat="45.85618" lon="4.69371">
        <ele>198</ele>
        <time>2017-07-01T09:15:18Z</time>
      </trkpt>
      <trkpt lat="45.85617" lon="4.69364">
        <ele>198</ele>
        <time>2017-07-01T09:15:19Z</time>
      </trkpt>
      <trkpt lat="45.85615" lon="4.69357">
        <ele>198</ele>
        <time>2017-07-01T09:15:20Z</time>
      </trkpt>
      <trkpt lat="45.85615" lon="4.69349">
        <ele>198</ele>
        <time>2017-07-01T09:15:21Z</time>
      </trkpt>
      <trkpt lat="45.85614" lon="4.69342">
        <ele>198</ele>
        <time>2017-07-01T09:15:22Z</time>
      </trkpt>
      <trkpt lat="45.85613" lon="4.69334">
        <ele>198</ele>
        <time>2017-07-01T09:15:23Z</time>
      </trkpt>
      <trkpt lat="45.85612" lon="4.69327">
        <ele>198</ele>
        <time>2017-07-01T09:15:24Z</time>
      </trkpt>
      <trkpt lat="45.85611" lon="4.69319">
        <ele>198</ele>
        <time>2017-07-01T09:15:25Z</time>
      </trkpt>
      <trkpt lat="45.85611" lon="4.69312">
        <ele>198</ele>
        <time>2017-07-01T09:15:26Z</time>
      </trkpt>
      <trkpt lat="45.8561" lon="4.69305">
        <ele>198</ele>
        <time>2017-07-01T09:15:27Z</time>
      </trkpt>
      <trkpt lat="45.85609" lon="4.69298">
        <ele>198</ele>
        <time>2017-07-01T09:15:28Z</time>
      </trkpt>
      <trkpt lat="45.85609" lon="4.69286">
        <ele>198</ele>
        <time>2017-07-01T09:15:30Z</time>
      </trkpt>
      <trkpt lat="45.85609" lon="4.6928">
        <ele>198</ele>
        <time>2017-07-01T09:15:31Z</time>
      </trkpt>
      <trkpt lat="45.85612" lon="4.69268">
        <ele>198</ele>
        <time>2017-07-01T09:15:33Z</time>
      </trkpt>
      <trkpt lat="45.85612" lon="4.69261">
        <ele>198</ele>
        <time>2017-07-01T09:15:34Z</time>
      </trkpt>
      <trkpt lat="45.85612" lon="4.69254">
        <ele>198</ele>
        <time>2017-07-01T09:15:35Z</time>
      </trkpt>
      <trkpt lat="45.85609" lon="4.69247">
        <ele>199</ele>
        <time>2017-07-01T09:15:36Z</time>
      </trkpt>
      <trkpt lat="45.85607" lon="4.69241">
        <ele>199</ele>
        <time>2017-07-01T09:15:37Z</time>
      </trkpt>
      <trkpt lat="45.85606" lon="4.69234">
        <ele>199</ele>
        <time>2017-07-01T09:15:38Z</time>
      </trkpt>
      <trkpt lat="45.85604" lon="4.69227">
        <ele>199</ele>
        <time>2017-07-01T09:15:39Z</time>
      </trkpt>
      <trkpt lat="45.85603" lon="4.69219">
        <ele>199</ele>
        <time>2017-07-01T09:15:40Z</time>
      </trkpt>
      <trkpt lat="45.85602" lon="4.69211">
        <ele>199</ele>
        <time>2017-07-01T09:15:41Z</time>
      </trkpt>
      <trkpt lat="45.85602" lon="4.69203">
        <ele>199</ele>
        <time>2017-07-01T09:15:42Z</time>
      </trkpt>
      <trkpt lat="45.85601" lon="4.69195">
        <ele>199</ele>
        <time>2017-07-01T09:15:43Z</time>
      </trkpt>
      <trkpt lat="45.85601" lon="4.69187">
        <ele>199</ele>
        <time>2017-07-01T09:15:44Z</time>
      </trkpt>
      <trkpt lat="45.85601" lon="4.69178">
        <ele>199</ele>
        <time>2017-07-01T09:15:45Z</time>
      </trkpt>
      <trkpt lat="45.856" lon="4.69171">
        <ele>199</ele>
        <time>2017-07-01T09:15:46Z</time>
      </trkpt>
      <trkpt lat="45.856" lon="4.69163">
        <ele>199</ele>
        <time>2017-07-01T09:15:47Z</time>
      </trkpt>
      <trkpt lat="45.856" lon="4.69156">
        <ele>199</ele>
        <time>2017-07-01T09:15:48Z</time>
      </trkpt>
      <trkpt lat="45.856" lon="4.69149">
        <ele>199</ele>
        <time>2017-07-01T09:15:49Z</time>
      </trkpt>
      <trkpt lat="45.85599" lon="4.69142">
        <ele>199</ele>
        <time>2017-07-01T09:15:50Z</time>
      </trkpt>
      <trkpt lat="45.85598" lon="4.69135">
        <ele>198</ele>
        <time>2017-07-01T09:15:51Z</time>
      </trkpt>
      <trkpt lat="45.85598" lon="4.69128">
        <ele>198</ele>
        <time>2017-07-01T09:15:52Z</time>
      </trkpt>
      <trkpt lat="45.85596" lon="4.69121">
        <ele>198</ele>
        <time>2017-07-01T09:15:53Z</time>
      </trkpt>
      <trkpt lat="45.85596" lon="4.69114">
        <ele>198</ele>
        <time>2017-07-01T09:15:54Z</time>
      </trkpt>
      <trkpt lat="45.85595" lon="4.69107">
        <ele>199</ele>
        <time>2017-07-01T09:15:55Z</time>
      </trkpt>
      <trkpt lat="45.85593" lon="4.69099">
        <ele>199</ele>
        <time>2017-07-01T09:15:56Z</time>
      </trkpt>
      <trkpt lat="45.85592" lon="4.69091">
        <ele>199</ele>
        <time>2017-07-01T09:15:57Z</time>
      </trkpt>
      <trkpt lat="45.85592" lon="4.69082">
        <ele>199</ele>
        <time>2017-07-01T09:15:58Z</time>
      </trkpt>
      <trkpt lat="45.8559" lon="4.69074">
        <ele>199</ele>
        <time>2017-07-01T09:15:59Z</time>
      </trkpt>
      <trkpt lat="45.8559" lon="4.69065">
        <ele>199</ele>
        <time>2017-07-01T09:16:00Z</time>
      </trkpt>
      <trkpt lat="45.85589" lon="4.69056">
        <ele>199</ele>
        <time>2017-07-01T09:16:01Z</time>
      </trkpt>
      <trkpt lat="45.85588" lon="4.69048">
        <ele>199</ele>
        <time>2017-07-01T09:16:02Z</time>
      </trkpt>
      <trkpt lat="45.85588" lon="4.69039">
        <ele>199</ele>
        <time>2017-07-01T09:16:03Z</time>
      </trkpt>
      <trkpt lat="45.85587" lon="4.69031">
        <ele>199</ele>
        <time>2017-07-01T09:16:04Z</time>
      </trkpt>
      <trkpt lat="45.85586" lon="4.69023">
        <ele>199</ele>
        <time>2017-07-01T09:16:05Z</time>
      </trkpt>
      <trkpt lat="45.85586" lon="4.69015">
        <ele>199</ele>
        <time>2017-07-01T09:16:06Z</time>
      </trkpt>
      <trkpt lat="45.85585" lon="4.69007">
        <ele>200</ele>
        <time>2017-07-01T09:16:07Z</time>
      </trkpt>
      <trkpt lat="45.85584" lon="4.68999">
        <ele>200</ele>
        <time>2017-07-01T09:16:08Z</time>
      </trkpt>
      <trkpt lat="45.85584" lon="4.68992">
        <ele>200</ele>
        <time>2017-07-01T09:16:09Z</time>
      </trkpt>
      <trkpt lat="45.85583" lon="4.68985">
        <ele>200</ele>
        <time>2017-07-01T09:16:10Z</time>
      </trkpt>
      <trkpt lat="45.85582" lon="4.68977">
        <ele>200</ele>
        <time>2017-07-01T09:16:11Z</time>
      </trkpt>
      <trkpt lat="45.85581" lon="4.6897">
        <ele>200</ele>
        <time>2017-07-01T09:16:12Z</time>
      </trkpt>
      <trkpt lat="45.8558" lon="4.68962">
        <ele>200</ele>
        <time>2017-07-01T09:16:13Z</time>
      </trkpt>
      <trkpt lat="45.85579" lon="4.68955">
        <ele>200</ele>
        <time>2017-07-01T09:16:14Z</time>
      </trkpt>
      <trkpt lat="45.85578" lon="4.68947">
        <ele>200</ele>
        <time>2017-07-01T09:16:15Z</time>
      </trkpt>
      <trkpt lat="45.85577" lon="4.68939">
        <ele>200</ele>
        <time>2017-07-01T09:16:16Z</time>
      </trkpt>
      <trkpt lat="45.85576" lon="4.6893">
        <ele>200</ele>
        <time>2017-07-01T09:16:17Z</time>
      </trkpt>
      <trkpt lat="45.85575" lon="4.68922">
        <ele>200</ele>
        <time>2017-07-01T09:16:18Z</time>
      </trkpt>
      <trkpt lat="45.85574" lon="4.68914">
        <ele>200</ele>
        <time>2017-07-01T09:16:19Z</time>
      </trkpt>
      <trkpt lat="45.85573" lon="4.68906">
        <ele>200</ele>
        <time>2017-07-01T09:16:20Z</time>
      </trkpt>
      <trkpt lat="45.85573" lon="4.68898">
        <ele>200</ele>
        <time>2017-07-01T09:16:21Z</time>
      </trkpt>
      <trkpt lat="45.85573" lon="4.6889">
        <ele>200</ele>
        <time>2017-07-01T09:16:22Z</time>
      </trkpt>
      <trkpt lat="45.85574" lon="4.68882">
        <ele>200</ele>
        <time>2017-07-01T09:16:23Z</time>
      </trkpt>
      <trkpt lat="45.85574" lon="4.68875">
        <ele>200</ele>
        <time>2017-07-01T09:16:24Z</time>
      </trkpt>
      <trkpt lat="45.85574" lon="4.68867">
        <ele>200</ele>
        <time>2017-07-01T09:16:25Z</time>
      </trkpt>
      <trkpt lat="45.85574" lon="4.6886">
        <ele>200</ele>
        <time>2017-07-01T09:16:26Z</time>
      </trkpt>
      <trkpt lat="45.85574" lon="4.68853">
        <ele>200</ele>
        <time>2017-07-01T09:16:27Z</time>
      </trkpt>
      <trkpt lat="45.85574" lon="4.68847">
        <ele>200</ele>
        <time>2017-07-01T09:16:28Z</time>
      </trkpt>
      <trkpt lat="45.85573" lon="4.68834">
        <ele>200</ele>
        <time>2017-07-01T09:16:30Z</time>
      </trkpt>
      <trkpt lat="45.85573" lon="4.68828">
        <ele>200</ele>
        <time>2017-07-01T09:16:31Z</time>
      </trkpt>
      <trkpt lat="45.85573" lon="4.68822">
        <ele>200</ele>
        <time>2017-07-01T09:16:33Z</time>
      </trkpt>
      <trkpt lat="45.85574" lon="4.68821">
        <ele>200</ele>
        <time>2017-07-01T09:16:34Z</time>
      </trkpt>
      <trkpt lat="45.85574" lon="4.68822">
        <ele>200</ele>
        <time>2017-07-01T09:16:44Z</time>
      </trkpt>
      <trkpt lat="45.85573" lon="4.6882">
        <ele>200</ele>
        <time>2017-07-01T09:16:45Z</time>
      </trkpt>
      <trkpt lat="45.85572" lon="4.68811">
        <ele>200</ele>
        <time>2017-07-01T09:16:47Z</time>
      </trkpt>
      <trkpt lat="45.85569" lon="4.68805">
        <ele>200</ele>
        <time>2017-07-01T09:16:48Z</time>
      </trkpt>
      <trkpt lat="45.85568" lon="4.68798">
        <ele>200</ele>
        <time>2017-07-01T09:16:49Z</time>
      </trkpt>
      <trkpt lat="45.85567" lon="4.6879">
        <ele>200</ele>
        <time>2017-07-01T09:16:50Z</time>
      </trkpt>
      <trkpt lat="45.85566" lon="4.68783">
        <ele>200</ele>
        <time>2017-07-01T09:16:51Z</time>
      </trkpt>
      <trkpt lat="45.85564" lon="4.68776">
        <ele>200</ele>
        <time>2017-07-01T09:16:52Z</time>
      </trkpt>
      <trkpt lat="45.85563" lon="4.68768">
        <ele>200</ele>
        <time>2017-07-01T09:16:53Z</time>
      </trkpt>
      <trkpt lat="45.85563" lon="4.68759">
        <ele>200</ele>
        <time>2017-07-01T09:16:54Z</time>
      </trkpt>
      <trkpt lat="45.85562" lon="4.68751">
        <ele>200</ele>
        <time>2017-07-01T09:16:55Z</time>
      </trkpt>
      <trkpt lat="45.85562" lon="4.68743">
        <ele>200</ele>
        <time>2017-07-01T09:16:56Z</time>
      </trkpt>
      <trkpt lat="45.85561" lon="4.68734">
        <ele>200</ele>
        <time>2017-07-01T09:16:57Z</time>
      </trkpt>
      <trkpt lat="45.8556" lon="4.68726">
        <ele>200</ele>
        <time>2017-07-01T09:16:58Z</time>
      </trkpt>
      <trkpt lat="45.85559" lon="4.68719">
        <ele>200</ele>
        <time>2017-07-01T09:16:59Z</time>
      </trkpt>
      <trkpt lat="45.85558" lon="4.68711">
        <ele>200</ele>
        <time>2017-07-01T09:17:00Z</time>
      </trkpt>
      <trkpt lat="45.85558" lon="4.68703">
        <ele>200</ele>
        <time>2017-07-01T09:17:01Z</time>
      </trkpt>
      <trkpt lat="45.85557" lon="4.68695">
        <ele>200</ele>
        <time>2017-07-01T09:17:02Z</time>
      </trkpt>
      <trkpt lat="45.85556" lon="4.68687">
        <ele>200</ele>
        <time>2017-07-01T09:17:03Z</time>
      </trkpt>
      <trkpt lat="45.85555" lon="4.6868">
        <ele>200</ele>
        <time>2017-07-01T09:17:04Z</time>
      </trkpt>
      <trkpt lat="45.85555" lon="4.68672">
        <ele>200</ele>
        <time>2017-07-01T09:17:05Z</time>
      </trkpt>
      <trkpt lat="45.85555" lon="4.68665">
        <ele>200</ele>
        <time>2017-07-01T09:17:06Z</time>
      </trkpt>
      <trkpt lat="45.85554" lon="4.68658">
        <ele>200</ele>
        <time>2017-07-01T09:17:07Z</time>
      </trkpt>
      <trkpt lat="45.85554" lon="4.6865">
        <ele>201</ele>
        <time>2017-07-01T09:17:08Z</time>
      </trkpt>
      <trkpt lat="45.85553" lon="4.68642">
        <ele>201</ele>
        <time>2017-07-01T09:17:09Z</time>
      </trkpt>
      <trkpt lat="45.85552" lon="4.68634">
        <ele>201</ele>
        <time>2017-07-01T09:17:10Z</time>
      </trkpt>
      <trkpt lat="45.85551" lon="4.68626">
        <ele>201</ele>
        <time>2017-07-01T09:17:11Z</time>
      </trkpt>
      <trkpt lat="45.8555" lon="4.68618">
        <ele>201</ele>
        <time>2017-07-01T09:17:12Z</time>
      </trkpt>
      <trkpt lat="45.8555" lon="4.68611">
        <ele>201</ele>
        <time>2017-07-01T09:17:13Z</time>
      </trkpt>
      <trkpt lat="45.8555" lon="4.68604">
        <ele>201</ele>
        <time>2017-07-01T09:17:14Z</time>
      </trkpt>
      <trkpt lat="45.85549" lon="4.68597">
        <ele>201</ele>
        <time>2017-07-01T09:17:15Z</time>
      </trkpt>
      <trkpt lat="45.85548" lon="4.6859">
        <ele>201</ele>
        <time>2017-07-01T09:17:16Z</time>
      </trkpt>
      <trkpt lat="45.85547" lon="4.68583">
        <ele>201</ele>
        <time>2017-07-01T09:17:17Z</time>
      </trkpt>
      <trkpt lat="45.85546" lon="4.68577">
        <ele>201</ele>
        <time>2017-07-01T09:17:18Z</time>
      </trkpt>
      <trkpt lat="45.85545" lon="4.6857">
        <ele>201</ele>
        <time>2017-07-01T09:17:19Z</time>
      </trkpt>
      <trkpt lat="45.85544" lon="4.68563">
        <ele>201</ele>
        <time>2017-07-01T09:17:20Z</time>
      </trkpt>
      <trkpt lat="45.85544" lon="4.68556">
        <ele>201</ele>
        <time>2017-07-01T09:17:21Z</time>
      </trkpt>
      <trkpt lat="45.85543" lon="4.68547">
        <ele>201</ele>
        <time>2017-07-01T09:17:22Z</time>
      </trkpt>
      <trkpt lat="45.85542" lon="4.68539">
        <ele>201</ele>
        <time>2017-07-01T09:17:23Z</time>
      </trkpt>
      <trkpt lat="45.85541" lon="4.6853">
        <ele>201</ele>
        <time>2017-07-01T09:17:24Z</time>
      </trkpt>
      <trkpt lat="45.8554" lon="4.68522">
        <ele>201</ele>
        <time>2017-07-01T09:17:25Z</time>
      </trkpt>
      <trkpt lat="45.8554" lon="4.68513">
        <ele>201</ele>
        <time>2017-07-01T09:17:26Z</time>
      </trkpt>
      <trkpt lat="45.8554" lon="4.68504">
        <ele>201</ele>
        <time>2017-07-01T09:17:27Z</time>
      </trkpt>
      <trkpt lat="45.85539" lon="4.68497">
        <ele>200</ele>
        <time>2017-07-01T09:17:28Z</time>
      </trkpt>
      <trkpt lat="45.85538" lon="4.68489">
        <ele>200</ele>
        <time>2017-07-01T09:17:29Z</time>
      </trkpt>
      <trkpt lat="45.85538" lon="4.68481">
        <ele>200</ele>
        <time>2017-07-01T09:17:30Z</time>
      </trkpt>
      <trkpt lat="45.85537" lon="4.68473">
        <ele>200</ele>
        <time>2017-07-01T09:17:31Z</time>
      </trkpt>
      <trkpt lat="45.85537" lon="4.68465">
        <ele>200</ele>
        <time>2017-07-01T09:17:32Z</time>
      </trkpt>
      <trkpt lat="45.85537" lon="4.68458">
        <ele>200</ele>
        <time>2017-07-01T09:17:33Z</time>
      </trkpt>
      <trkpt lat="45.85536" lon="4.6845">
        <ele>200</ele>
        <time>2017-07-01T09:17:34Z</time>
      </trkpt>
      <trkpt lat="45.85536" lon="4.68443">
        <ele>200</ele>
        <time>2017-07-01T09:17:35Z</time>
      </trkpt>
      <trkpt lat="45.85535" lon="4.68436">
        <ele>200</ele>
        <time>2017-07-01T09:17:36Z</time>
      </trkpt>
      <trkpt lat="45.85534" lon="4.68429">
        <ele>200</ele>
        <time>2017-07-01T09:17:37Z</time>
      </trkpt>
      <trkpt lat="45.85533" lon="4.68421">
        <ele>200</ele>
        <time>2017-07-01T09:17:38Z</time>
      </trkpt>
      <trkpt lat="45.85533" lon="4.68414">
        <ele>200</ele>
        <time>2017-07-01T09:17:39Z</time>
      </trkpt>
      <trkpt lat="45.85532" lon="4.68408">
        <ele>200</ele>
        <time>2017-07-01T09:17:40Z</time>
      </trkpt>
      <trkpt lat="45.85531" lon="4.684">
        <ele>200</ele>
        <time>2017-07-01T09:17:41Z</time>
      </trkpt>
      <trkpt lat="45.8553" lon="4.68393">
        <ele>200</ele>
        <time>2017-07-01T09:17:42Z</time>
      </trkpt>
      <trkpt lat="45.85529" lon="4.68386">
        <ele>200</ele>
        <time>2017-07-01T09:17:43Z</time>
      </trkpt>
      <trkpt lat="45.85528" lon="4.68378">
        <ele>201</ele>
        <time>2017-07-01T09:17:44Z</time>
      </trkpt>
      <trkpt lat="45.85528" lon="4.6837">
        <ele>201</ele>
        <time>2017-07-01T09:17:45Z</time>
      </trkpt>
      <trkpt lat="45.85527" lon="4.68363">
        <ele>201</ele>
        <time>2017-07-01T09:17:46Z</time>
      </trkpt>
      <trkpt lat="45.85527" lon="4.68356">
        <ele>201</ele>
        <time>2017-07-01T09:17:47Z</time>
      </trkpt>
      <trkpt lat="45.85526" lon="4.68349">
        <ele>201</ele>
        <time>2017-07-01T09:17:48Z</time>
      </trkpt>
      <trkpt lat="45.85524" lon="4.68342">
        <ele>201</ele>
        <time>2017-07-01T09:17:49Z</time>
      </trkpt>
      <trkpt lat="45.85523" lon="4.68335">
        <ele>201</ele>
        <time>2017-07-01T09:17:50Z</time>
      </trkpt>
      <trkpt lat="45.85522" lon="4.68328">
        <ele>202</ele>
        <time>2017-07-01T09:17:51Z</time>
      </trkpt>
      <trkpt lat="45.85521" lon="4.68322">
        <ele>202</ele>
        <time>2017-07-01T09:17:52Z</time>
      </trkpt>
      <trkpt lat="45.8552" lon="4.68316">
        <ele>202</ele>
        <time>2017-07-01T09:17:53Z</time>
      </trkpt>
      <trkpt lat="45.8552" lon="4.68309">
        <ele>202</ele>
        <time>2017-07-01T09:17:54Z</time>
      </trkpt>
      <trkpt lat="45.8552" lon="4.68302">
        <ele>202</ele>
        <time>2017-07-01T09:17:55Z</time>
      </trkpt>
      <trkpt lat="45.8552" lon="4.68294">
        <ele>202</ele>
        <time>2017-07-01T09:17:56Z</time>
      </trkpt>
      <trkpt lat="45.85519" lon="4.68287">
        <ele>202</ele>
        <time>2017-07-01T09:17:57Z</time>
      </trkpt>
      <trkpt lat="45.85518" lon="4.68279">
        <ele>202</ele>
        <time>2017-07-01T09:17:58Z</time>
      </trkpt>
      <trkpt lat="45.85518" lon="4.68272">
        <ele>202</ele>
        <time>2017-07-01T09:17:59Z</time>
      </trkpt>
      <trkpt lat="45.85517" lon="4.68264">
        <ele>202</ele>
        <time>2017-07-01T09:18:00Z</time>
      </trkpt>
      <trkpt lat="45.85516" lon="4.68256">
        <ele>203</ele>
        <time>2017-07-01T09:18:01Z</time>
      </trkpt>
      <trkpt lat="45.85515" lon="4.68248">
        <ele>203</ele>
        <time>2017-07-01T09:18:02Z</time>
      </trkpt>
      <trkpt lat="45.85515" lon="4.6824">
        <ele>203</ele>
        <time>2017-07-01T09:18:03Z</time>
      </trkpt>
      <trkpt lat="45.85515" lon="4.68233">
        <ele>203</ele>
        <time>2017-07-01T09:18:04Z</time>
      </trkpt>
      <trkpt lat="45.85514" lon="4.68226">
        <ele>203</ele>
        <time>2017-07-01T09:18:05Z</time>
      </trkpt>
      <trkpt lat="45.85514" lon="4.68219">
        <ele>203</ele>
        <time>2017-07-01T09:18:06Z</time>
      </trkpt>
      <trkpt lat="45.85513" lon="4.68212">
        <ele>203</ele>
        <time>2017-07-01T09:18:07Z</time>
      </trkpt>
      <trkpt lat="45.85512" lon="4.68205">
        <ele>203</ele>
        <time>2017-07-01T09:18:08Z</time>
      </trkpt>
      <trkpt lat="45.85511" lon="4.68198">
        <ele>203</ele>
        <time>2017-07-01T09:18:09Z</time>
      </trkpt>
      <trkpt lat="45.85511" lon="4.68191">
        <ele>203</ele>
        <time>2017-07-01T09:18:10Z</time>
      </trkpt>
      <trkpt lat="45.8551" lon="4.68184">
        <ele>203</ele>
        <time>2017-07-01T09:18:11Z</time>
      </trkpt>
      <trkpt lat="45.85508" lon="4.68177">
        <ele>204</ele>
        <time>2017-07-01T09:18:12Z</time>
      </trkpt>
      <trkpt lat="45.85507" lon="4.6817">
        <ele>204</ele>
        <time>2017-07-01T09:18:13Z</time>
      </trkpt>
      <trkpt lat="45.85506" lon="4.68163">
        <ele>204</ele>
        <time>2017-07-01T09:18:14Z</time>
      </trkpt>
      <trkpt lat="45.85505" lon="4.68155">
        <ele>203</ele>
        <time>2017-07-01T09:18:15Z</time>
      </trkpt>
      <trkpt lat="45.85505" lon="4.68147">
        <ele>203</ele>
        <time>2017-07-01T09:18:16Z</time>
      </trkpt>
      <trkpt lat="45.85504" lon="4.6814">
        <ele>203</ele>
        <time>2017-07-01T09:18:17Z</time>
      </trkpt>
      <trkpt lat="45.85504" lon="4.68132">
        <ele>203</ele>
        <time>2017-07-01T09:18:18Z</time>
      </trkpt>
      <trkpt lat="45.85503" lon="4.68124">
        <ele>203</ele>
        <time>2017-07-01T09:18:19Z</time>
      </trkpt>
      <trkpt lat="45.85503" lon="4.68116">
        <ele>203</ele>
        <time>2017-07-01T09:18:20Z</time>
      </trkpt>
      <trkpt lat="45.85503" lon="4.68108">
        <ele>203</ele>
        <time>2017-07-01T09:18:21Z</time>
      </trkpt>
      <trkpt lat="45.85503" lon="4.681">
        <ele>203</ele>
        <time>2017-07-01T09:18:22Z</time>
      </trkpt>
      <trkpt lat="45.85502" lon="4.68092">
        <ele>204</ele>
        <time>2017-07-01T09:18:23Z</time>
      </trkpt>
      <trkpt lat="45.85501" lon="4.68085">
        <ele>204</ele>
        <time>2017-07-01T09:18:24Z</time>
      </trkpt>
      <trkpt lat="45.855" lon="4.68072">
        <ele>205</ele>
        <time>2017-07-01T09:18:26Z</time>
      </trkpt>
      <trkpt lat="45.855" lon="4.68066">
        <ele>206</ele>
        <time>2017-07-01T09:18:27Z</time>
      </trkpt>
      <trkpt lat="45.85498" lon="4.68055">
        <ele>206</ele>
        <time>2017-07-01T09:18:29Z</time>
      </trkpt>
      <trkpt lat="45.85497" lon="4.68051">
        <ele>206</ele>
        <time>2017-07-01T09:18:30Z</time>
      </trkpt>
      <trkpt lat="45.85495" lon="4.6804">
        <ele>206</ele>
        <time>2017-07-01T09:18:33Z</time>
      </trkpt>
      <trkpt lat="45.85495" lon="4.68035">
        <ele>207</ele>
        <time>2017-07-01T09:18:34Z</time>
      </trkpt>
      <trkpt lat="45.85495" lon="4.68023">
        <ele>207</ele>
        <time>2017-07-01T09:18:36Z</time>
      </trkpt>
      <trkpt lat="45.85497" lon="4.68016">
        <ele>207</ele>
        <time>2017-07-01T09:18:37Z</time>
      </trkpt>
      <trkpt lat="45.85499" lon="4.6801">
        <ele>206</ele>
        <time>2017-07-01T09:18:38Z</time>
      </trkpt>
      <trkpt lat="45.85503" lon="4.68005">
        <ele>205</ele>
        <time>2017-07-01T09:18:39Z</time>
      </trkpt>
      <trkpt lat="45.85506" lon="4.68">
        <ele>206</ele>
        <time>2017-07-01T09:18:40Z</time>
      </trkpt>
      <trkpt lat="45.8551" lon="4.67995">
        <ele>206</ele>
        <time>2017-07-01T09:18:41Z</time>
      </trkpt>
      <trkpt lat="45.85514" lon="4.67991">
        <ele>206</ele>
        <time>2017-07-01T09:18:42Z</time>
      </trkpt>
      <trkpt lat="45.85519" lon="4.67986">
        <ele>206</ele>
        <time>2017-07-01T09:18:43Z</time>
      </trkpt>
      <trkpt lat="45.85523" lon="4.67982">
        <ele>205</ele>
        <time>2017-07-01T09:18:44Z</time>
      </trkpt>
      <trkpt lat="45.85527" lon="4.67977">
        <ele>205</ele>
        <time>2017-07-01T09:18:45Z</time>
      </trkpt>
      <trkpt lat="45.8553" lon="4.67972">
        <ele>205</ele>
        <time>2017-07-01T09:18:46Z</time>
      </trkpt>
      <trkpt lat="45.85533" lon="4.67968">
        <ele>205</ele>
        <time>2017-07-01T09:18:47Z</time>
      </trkpt>
      <trkpt lat="45.8554" lon="4.67961">
        <ele>205</ele>
        <time>2017-07-01T09:18:49Z</time>
      </trkpt>
      <trkpt lat="45.85544" lon="4.67957">
        <ele>205</ele>
        <time>2017-07-01T09:18:50Z</time>
      </trkpt>
      <trkpt lat="45.85552" lon="4.67952">
        <ele>205</ele>
        <time>2017-07-01T09:18:52Z</time>
      </trkpt>
      <trkpt lat="45.85555" lon="4.6795">
        <ele>205</ele>
        <time>2017-07-01T09:18:53Z</time>
      </trkpt>
      <trkpt lat="45.85561" lon="4.67944">
        <ele>205</ele>
        <time>2017-07-01T09:18:55Z</time>
      </trkpt>
      <trkpt lat="45.85564" lon="4.67941">
        <ele>205</ele>
        <time>2017-07-01T09:18:56Z</time>
      </trkpt>
      <trkpt lat="45.8557" lon="4.67937">
        <ele>205</ele>
        <time>2017-07-01T09:18:58Z</time>
      </trkpt>
      <trkpt lat="45.85573" lon="4.67936">
        <ele>205</ele>
        <time>2017-07-01T09:18:59Z</time>
      </trkpt>
      <trkpt lat="45.85577" lon="4.67926">
        <ele>204</ele>
        <time>2017-07-01T09:19:01Z</time>
      </trkpt>
      <trkpt lat="45.85577" lon="4.67919">
        <ele>204</ele>
        <time>2017-07-01T09:19:02Z</time>
      </trkpt>
      <trkpt lat="45.85576" lon="4.67911">
        <ele>205</ele>
        <time>2017-07-01T09:19:03Z</time>
      </trkpt>
      <trkpt lat="45.85575" lon="4.67904">
        <ele>206</ele>
        <time>2017-07-01T09:19:04Z</time>
      </trkpt>
      <trkpt lat="45.85574" lon="4.67896">
        <ele>206</ele>
        <time>2017-07-01T09:19:05Z</time>
      </trkpt>
      <trkpt lat="45.85574" lon="4.67888">
        <ele>206</ele>
        <time>2017-07-01T09:19:06Z</time>
      </trkpt>
      <trkpt lat="45.85573" lon="4.67879">
        <ele>206</ele>
        <time>2017-07-01T09:19:07Z</time>
      </trkpt>
      <trkpt lat="45.85573" lon="4.67871">
        <ele>207</ele>
        <time>2017-07-01T09:19:08Z</time>
      </trkpt>
      <trkpt lat="45.85574" lon="4.67862">
        <ele>207</ele>
        <time>2017-07-01T09:19:09Z</time>
      </trkpt>
      <trkpt lat="45.85574" lon="4.67853">
        <ele>206</ele>
        <time>2017-07-01T09:19:10Z</time>
      </trkpt>
      <trkpt lat="45.85576" lon="4.67845">
        <ele>206</ele>
        <time>2017-07-01T09:19:11Z</time>
      </trkpt>
      <trkpt lat="45.85577" lon="4.67837">
        <ele>206</ele>
        <time>2017-07-01T09:19:12Z</time>
      </trkpt>
      <trkpt lat="45.85579" lon="4.67829">
        <ele>205</ele>
        <time>2017-07-01T09:19:13Z</time>
      </trkpt>
      <trkpt lat="45.85581" lon="4.67821">
        <ele>206</ele>
        <time>2017-07-01T09:19:14Z</time>
      </trkpt>
      <trkpt lat="45.85583" lon="4.67813">
        <ele>206</ele>
        <time>2017-07-01T09:19:15Z</time>
      </trkpt>
      <trkpt lat="45.85585" lon="4.67806">
        <ele>209</ele>
        <time>2017-07-01T09:19:16Z</time>
      </trkpt>
      <trkpt lat="45.85587" lon="4.67798">
        <ele>210</ele>
        <time>2017-07-01T09:19:17Z</time>
      </trkpt>
      <trkpt lat="45.8559" lon="4.6779">
        <ele>210</ele>
        <time>2017-07-01T09:19:18Z</time>
      </trkpt>
      <trkpt lat="45.85592" lon="4.67783">
        <ele>209</ele>
        <time>2017-07-01T09:19:19Z</time>
      </trkpt>
      <trkpt lat="45.85595" lon="4.67775">
        <ele>209</ele>
        <time>2017-07-01T09:19:20Z</time>
      </trkpt>
      <trkpt lat="45.85599" lon="4.67768">
        <ele>209</ele>
        <time>2017-07-01T09:19:21Z</time>
      </trkpt>
      <trkpt lat="45.85602" lon="4.67761">
        <ele>209</ele>
        <time>2017-07-01T09:19:22Z</time>
      </trkpt>
      <trkpt lat="45.85606" lon="4.67754">
        <ele>209</ele>
        <time>2017-07-01T09:19:23Z</time>
      </trkpt>
      <trkpt lat="45.8561" lon="4.67747">
        <ele>208</ele>
        <time>2017-07-01T09:19:24Z</time>
      </trkpt>
      <trkpt lat="45.85614" lon="4.6774">
        <ele>209</ele>
        <time>2017-07-01T09:19:25Z</time>
      </trkpt>
      <trkpt lat="45.85619" lon="4.67733">
        <ele>209</ele>
        <time>2017-07-01T09:19:26Z</time>
      </trkpt>
      <trkpt lat="45.85624" lon="4.67727">
        <ele>209</ele>
        <time>2017-07-01T09:19:27Z</time>
      </trkpt>
      <trkpt lat="45.85628" lon="4.67722">
        <ele>210</ele>
        <time>2017-07-01T09:19:28Z</time>
      </trkpt>
      <trkpt lat="45.85632" lon="4.67716">
        <ele>210</ele>
        <time>2017-07-01T09:19:29Z</time>
      </trkpt>
      <trkpt lat="45.85636" lon="4.67712">
        <ele>210</ele>
        <time>2017-07-01T09:19:30Z</time>
      </trkpt>
      <trkpt lat="45.8564" lon="4.67707">
        <ele>210</ele>
        <time>2017-07-01T09:19:31Z</time>
      </trkpt>
      <trkpt lat="45.85645" lon="4.67702">
        <ele>210</ele>
        <time>2017-07-01T09:19:32Z</time>
      </trkpt>
      <trkpt lat="45.8565" lon="4.67697">
        <ele>210</ele>
        <time>2017-07-01T09:19:33Z</time>
      </trkpt>
      <trkpt lat="45.85655" lon="4.67693">
        <ele>210</ele>
        <time>2017-07-01T09:19:34Z</time>
      </trkpt>
      <trkpt lat="45.8566" lon="4.67688">
        <ele>210</ele>
        <time>2017-07-01T09:19:35Z</time>
      </trkpt>
      <trkpt lat="45.85666" lon="4.67684">
        <ele>210</ele>
        <time>2017-07-01T09:19:36Z</time>
      </trkpt>
      <trkpt lat="45.85671" lon="4.67681">
        <ele>215</ele>
        <time>2017-07-01T09:19:37Z</time>
      </trkpt>
      <trkpt lat="45.85676" lon="4.67677">
        <ele>215</ele>
        <time>2017-07-01T09:19:38Z</time>
      </trkpt>
      <trkpt lat="45.85682" lon="4.67674">
        <ele>216</ele>
        <time>2017-07-01T09:19:39Z</time>
      </trkpt>
      <trkpt lat="45.85687" lon="4.67671">
        <ele>217</ele>
        <time>2017-07-01T09:19:40Z</time>
      </trkpt>
      <trkpt lat="45.85693" lon="4.67667">
        <ele>218</ele>
        <time>2017-07-01T09:19:41Z</time>
      </trkpt>
      <trkpt lat="45.85698" lon="4.67664">
        <ele>211</ele>
        <time>2017-07-01T09:19:42Z</time>
      </trkpt>
      <trkpt lat="45.85704" lon="4.6766">
        <ele>212</ele>
        <time>2017-07-01T09:19:43Z</time>
      </trkpt>
      <trkpt lat="45.85709" lon="4.67657">
        <ele>212</ele>
        <time>2017-07-01T09:19:44Z</time>
      </trkpt>
      <trkpt lat="45.85715" lon="4.67653">
        <ele>213</ele>
        <time>2017-07-01T09:19:45Z</time>
      </trkpt>
      <trkpt lat="45.8572" lon="4.67649">
        <ele>213</ele>
        <time>2017-07-01T09:19:46Z</time>
      </trkpt>
      <trkpt lat="45.85726" lon="4.67645">
        <ele>213</ele>
        <time>2017-07-01T09:19:47Z</time>
      </trkpt>
      <trkpt lat="45.85732" lon="4.67641">
        <ele>213</ele>
        <time>2017-07-01T09:19:48Z</time>
      </trkpt>
      <trkpt lat="45.85737" lon="4.67637">
        <ele>213</ele>
        <time>2017-07-01T09:19:49Z</time>
      </trkpt>
      <trkpt lat="45.85743" lon="4.67633">
        <ele>213</ele>
        <time>2017-07-01T09:19:50Z</time>
      </trkpt>
      <trkpt lat="45.85748" lon="4.67629">
        <ele>212</ele>
        <time>2017-07-01T09:19:51Z</time>
      </trkpt>
      <trkpt lat="45.85753" lon="4.67626">
        <ele>220</ele>
        <time>2017-07-01T09:19:52Z</time>
      </trkpt>
      <trkpt lat="45.85759" lon="4.67621">
        <ele>219</ele>
        <time>2017-07-01T09:19:53Z</time>
      </trkpt>
      <trkpt lat="45.85765" lon="4.67616">
        <ele>219</ele>
        <time>2017-07-01T09:19:54Z</time>
      </trkpt>
      <trkpt lat="45.85769" lon="4.67611">
        <ele>218</ele>
        <time>2017-07-01T09:19:55Z</time>
      </trkpt>
      <trkpt lat="45.85774" lon="4.67607">
        <ele>218</ele>
        <time>2017-07-01T09:19:56Z</time>
      </trkpt>
      <trkpt lat="45.85779" lon="4.67602">
        <ele>219</ele>
        <time>2017-07-01T09:19:57Z</time>
      </trkpt>
      <trkpt lat="45.85784" lon="4.67597">
        <ele>219</ele>
        <time>2017-07-01T09:19:58Z</time>
      </trkpt>
      <trkpt lat="45.85789" lon="4.67593">
        <ele>219</ele>
        <time>2017-07-01T09:19:59Z</time>
      </trkpt>
      <trkpt lat="45.85794" lon="4.67588">
        <ele>220</ele>
        <time>2017-07-01T09:20:00Z</time>
      </trkpt>
      <trkpt lat="45.85799" lon="4.67583">
        <ele>212</ele>
        <time>2017-07-01T09:20:01Z</time>
      </trkpt>
      <trkpt lat="45.85803" lon="4.67577">
        <ele>213</ele>
        <time>2017-07-01T09:20:02Z</time>
      </trkpt>
      <trkpt lat="45.85807" lon="4.67573">
        <ele>213</ele>
        <time>2017-07-01T09:20:03Z</time>
      </trkpt>
      <trkpt lat="45.85812" lon="4.67568">
        <ele>213</ele>
        <time>2017-07-01T09:20:04Z</time>
      </trkpt>
      <trkpt lat="45.85816" lon="4.67563">
        <ele>213</ele>
        <time>2017-07-01T09:20:05Z</time>
      </trkpt>
      <trkpt lat="45.8582" lon="4.67557">
        <ele>213</ele>
        <time>2017-07-01T09:20:06Z</time>
      </trkpt>
      <trkpt lat="45.85824" lon="4.67552">
        <ele>212</ele>
        <time>2017-07-01T09:20:07Z</time>
      </trkpt>
      <trkpt lat="45.85828" lon="4.67545">
        <ele>211</ele>
        <time>2017-07-01T09:20:08Z</time>
      </trkpt>
      <trkpt lat="45.85832" lon="4.67539">
        <ele>211</ele>
        <time>2017-07-01T09:20:09Z</time>
      </trkpt>
      <trkpt lat="45.85837" lon="4.67532">
        <ele>220</ele>
        <time>2017-07-01T09:20:10Z</time>
      </trkpt>
      <trkpt lat="45.8584" lon="4.67523">
        <ele>218</ele>
        <time>2017-07-01T09:20:11Z</time>
      </trkpt>
      <trkpt lat="45.85843" lon="4.67516">
        <ele>216</ele>
        <time>2017-07-01T09:20:12Z</time>
      </trkpt>
      <trkpt lat="45.85847" lon="4.67507">
        <ele>215</ele>
        <time>2017-07-01T09:20:13Z</time>
      </trkpt>
      <trkpt lat="45.85851" lon="4.67499">
        <ele>211</ele>
        <time>2017-07-01T09:20:14Z</time>
      </trkpt>
      <trkpt lat="45.85854" lon="4.67491">
        <ele>212</ele>
        <time>2017-07-01T09:20:15Z</time>
      </trkpt>
      <trkpt lat="45.85856" lon="4.67481">
        <ele>213</ele>
        <time>2017-07-01T09:20:16Z</time>
      </trkpt>
      <trkpt lat="45.85859" lon="4.67472">
        <ele>213</ele>
        <time>2017-07-01T09:20:17Z</time>
      </trkpt>
      <trkpt lat="45.85862" lon="4.67463">
        <ele>214</ele>
        <time>2017-07-01T09:20:18Z</time>
      </trkpt>
      <trkpt lat="45.85864" lon="4.67453">
        <ele>214</ele>
        <time>2017-07-01T09:20:19Z</time>
      </trkpt>
      <trkpt lat="45.85865" lon="4.67445">
        <ele>213</ele>
        <time>2017-07-01T09:20:20Z</time>
      </trkpt>
      <trkpt lat="45.85867" lon="4.67436">
        <ele>213</ele>
        <time>2017-07-01T09:20:21Z</time>
      </trkpt>
      <trkpt lat="45.85868" lon="4.67428">
        <ele>213</ele>
        <time>2017-07-01T09:20:22Z</time>
      </trkpt>
      <trkpt lat="45.85869" lon="4.67419">
        <ele>213</ele>
        <time>2017-07-01T09:20:23Z</time>
      </trkpt>
      <trkpt lat="45.85871" lon="4.67411">
        <ele>209</ele>
        <time>2017-07-01T09:20:24Z</time>
      </trkpt>
      <trkpt lat="45.85872" lon="4.67402">
        <ele>210</ele>
        <time>2017-07-01T09:20:25Z</time>
      </trkpt>
      <trkpt lat="45.85873" lon="4.67393">
        <ele>210</ele>
        <time>2017-07-01T09:20:26Z</time>
      </trkpt>
      <trkpt lat="45.85873" lon="4.67385">
        <ele>209</ele>
        <time>2017-07-01T09:20:27Z</time>
      </trkpt>
      <trkpt lat="45.85874" lon="4.67376">
        <ele>209</ele>
        <time>2017-07-01T09:20:28Z</time>
      </trkpt>
      <trkpt lat="45.85875" lon="4.67367">
        <ele>209</ele>
        <time>2017-07-01T09:20:29Z</time>
      </trkpt>
      <trkpt lat="45.85876" lon="4.67357">
        <ele>209</ele>
        <time>2017-07-01T09:20:30Z</time>
      </trkpt>
      <trkpt lat="45.85876" lon="4.67347">
        <ele>209</ele>
        <time>2017-07-01T09:20:31Z</time>
      </trkpt>
      <trkpt lat="45.85877" lon="4.67338">
        <ele>208</ele>
        <time>2017-07-01T09:20:32Z</time>
      </trkpt>
      <trkpt lat="45.85879" lon="4.67329">
        <ele>206</ele>
        <time>2017-07-01T09:20:33Z</time>
      </trkpt>
      <trkpt lat="45.8588" lon="4.67319">
        <ele>206</ele>
        <time>2017-07-01T09:20:34Z</time>
      </trkpt>
      <trkpt lat="45.85881" lon="4.6731">
        <ele>206</ele>
        <time>2017-07-01T09:20:35Z</time>
      </trkpt>
      <trkpt lat="45.85883" lon="4.67302">
        <ele>206</ele>
        <time>2017-07-01T09:20:36Z</time>
      </trkpt>
      <trkpt lat="45.85884" lon="4.67294">
        <ele>206</ele>
        <time>2017-07-01T09:20:37Z</time>
      </trkpt>
      <trkpt lat="45.85885" lon="4.67286">
        <ele>206</ele>
        <time>2017-07-01T09:20:38Z</time>
      </trkpt>
      <trkpt lat="45.85885" lon="4.67277">
        <ele>205</ele>
        <time>2017-07-01T09:20:39Z</time>
      </trkpt>
      <trkpt lat="45.85885" lon="4.67268">
        <ele>205</ele>
        <time>2017-07-01T09:20:40Z</time>
      </trkpt>
      <trkpt lat="45.85886" lon="4.67259">
        <ele>205</ele>
        <time>2017-07-01T09:20:41Z</time>
      </trkpt>
      <trkpt lat="45.85886" lon="4.6725">
        <ele>205</ele>
        <time>2017-07-01T09:20:42Z</time>
      </trkpt>
      <trkpt lat="45.85887" lon="4.67242">
        <ele>205</ele>
        <time>2017-07-01T09:20:43Z</time>
      </trkpt>
      <trkpt lat="45.85888" lon="4.67233">
        <ele>205</ele>
        <time>2017-07-01T09:20:44Z</time>
      </trkpt>
      <trkpt lat="45.85889" lon="4.67224">
        <ele>205</ele>
        <time>2017-07-01T09:20:45Z</time>
      </trkpt>
      <trkpt lat="45.85889" lon="4.67215">
        <ele>204</ele>
        <time>2017-07-01T09:20:46Z</time>
      </trkpt>
      <trkpt lat="45.8589" lon="4.67206">
        <ele>204</ele>
        <time>2017-07-01T09:20:47Z</time>
      </trkpt>
      <trkpt lat="45.8589" lon="4.67196">
        <ele>204</ele>
        <time>2017-07-01T09:20:48Z</time>
      </trkpt>
      <trkpt lat="45.85891" lon="4.67187">
        <ele>204</ele>
        <time>2017-07-01T09:20:49Z</time>
      </trkpt>
      <trkpt lat="45.85891" lon="4.67177">
        <ele>205</ele>
        <time>2017-07-01T09:20:50Z</time>
      </trkpt>
      <trkpt lat="45.85892" lon="4.67167">
        <ele>205</ele>
        <time>2017-07-01T09:20:51Z</time>
      </trkpt>
      <trkpt lat="45.85892" lon="4.67157">
        <ele>204</ele>
        <time>2017-07-01T09:20:52Z</time>
      </trkpt>
      <trkpt lat="45.85893" lon="4.67148">
        <ele>204</ele>
        <time>2017-07-01T09:20:53Z</time>
      </trkpt>
      <trkpt lat="45.85894" lon="4.6714">
        <ele>204</ele>
        <time>2017-07-01T09:20:54Z</time>
      </trkpt>
      <trkpt lat="45.85895" lon="4.67131">
        <ele>204</ele>
        <time>2017-07-01T09:20:55Z</time>
      </trkpt>
      <trkpt lat="45.85895" lon="4.67123">
        <ele>204</ele>
        <time>2017-07-01T09:20:56Z</time>
      </trkpt>
      <trkpt lat="45.85896" lon="4.67114">
        <ele>204</ele>
        <time>2017-07-01T09:20:57Z</time>
      </trkpt>
      <trkpt lat="45.85896" lon="4.67106">
        <ele>204</ele>
        <time>2017-07-01T09:20:58Z</time>
      </trkpt>
      <trkpt lat="45.85897" lon="4.67099">
        <ele>204</ele>
        <time>2017-07-01T09:20:59Z</time>
      </trkpt>
      <trkpt lat="45.85898" lon="4.67091">
        <ele>204</ele>
        <time>2017-07-01T09:21:00Z</time>
      </trkpt>
      <trkpt lat="45.85899" lon="4.67082">
        <ele>204</ele>
        <time>2017-07-01T09:21:01Z</time>
      </trkpt>
      <trkpt lat="45.859" lon="4.67074">
        <ele>205</ele>
        <time>2017-07-01T09:21:02Z</time>
      </trkpt>
      <trkpt lat="45.85901" lon="4.67066">
        <ele>205</ele>
        <time>2017-07-01T09:21:03Z</time>
      </trkpt>
      <trkpt lat="45.85902" lon="4.67058">
        <ele>205</ele>
        <time>2017-07-01T09:21:04Z</time>
      </trkpt>
      <trkpt lat="45.85903" lon="4.6705">
        <ele>205</ele>
        <time>2017-07-01T09:21:05Z</time>
      </trkpt>
      <trkpt lat="45.85904" lon="4.67042">
        <ele>205</ele>
        <time>2017-07-01T09:21:06Z</time>
      </trkpt>
      <trkpt lat="45.85905" lon="4.67035">
        <ele>205</ele>
        <time>2017-07-01T09:21:07Z</time>
      </trkpt>
      <trkpt lat="45.85906" lon="4.67028">
        <ele>205</ele>
        <time>2017-07-01T09:21:08Z</time>
      </trkpt>
      <trkpt lat="45.85907" lon="4.67021">
        <ele>205</ele>
        <time>2017-07-01T09:21:09Z</time>
      </trkpt>
      <trkpt lat="45.85909" lon="4.67014">
        <ele>206</ele>
        <time>2017-07-01T09:21:10Z</time>
      </trkpt>
      <trkpt lat="45.85911" lon="4.67008">
        <ele>206</ele>
        <time>2017-07-01T09:21:11Z</time>
      </trkpt>
      <trkpt lat="45.85914" lon="4.67001">
        <ele>206</ele>
        <time>2017-07-01T09:21:12Z</time>
      </trkpt>
      <trkpt lat="45.85917" lon="4.66996">
        <ele>207</ele>
        <time>2017-07-01T09:21:13Z</time>
      </trkpt>
      <trkpt lat="45.85921" lon="4.6699">
        <ele>207</ele>
        <time>2017-07-01T09:21:14Z</time>
      </trkpt>
      <trkpt lat="45.85924" lon="4.66985">
        <ele>208</ele>
        <time>2017-07-01T09:21:15Z</time>
      </trkpt>
      <trkpt lat="45.85926" lon="4.66978">
        <ele>208</ele>
        <time>2017-07-01T09:21:16Z</time>
      </trkpt>
      <trkpt lat="45.85926" lon="4.6697">
        <ele>208</ele>
        <time>2017-07-01T09:21:17Z</time>
      </trkpt>
      <trkpt lat="45.85925" lon="4.66962">
        <ele>209</ele>
        <time>2017-07-01T09:21:18Z</time>
      </trkpt>
      <trkpt lat="45.85924" lon="4.66954">
        <ele>209</ele>
        <time>2017-07-01T09:21:19Z</time>
      </trkpt>
      <trkpt lat="45.85923" lon="4.66946">
        <ele>209</ele>
        <time>2017-07-01T09:21:20Z</time>
      </trkpt>
      <trkpt lat="45.85924" lon="4.66938">
        <ele>208</ele>
        <time>2017-07-01T09:21:21Z</time>
      </trkpt>
      <trkpt lat="45.85925" lon="4.6693">
        <ele>208</ele>
        <time>2017-07-01T09:21:22Z</time>
      </trkpt>
      <trkpt lat="45.85926" lon="4.66922">
        <ele>208</ele>
        <time>2017-07-01T09:21:23Z</time>
      </trkpt>
      <trkpt lat="45.85927" lon="4.66915">
        <ele>208</ele>
        <time>2017-07-01T09:21:24Z</time>
      </trkpt>
      <trkpt lat="45.85929" lon="4.66908">
        <ele>209</ele>
        <time>2017-07-01T09:21:25Z</time>
      </trkpt>
      <trkpt lat="45.85931" lon="4.66901">
        <ele>209</ele>
        <time>2017-07-01T09:21:26Z</time>
      </trkpt>
      <trkpt lat="45.85933" lon="4.66894">
        <ele>210</ele>
        <time>2017-07-01T09:21:27Z</time>
      </trkpt>
      <trkpt lat="45.85934" lon="4.66887">
        <ele>210</ele>
        <time>2017-07-01T09:21:28Z</time>
      </trkpt>
      <trkpt lat="45.85936" lon="4.66879">
        <ele>210</ele>
        <time>2017-07-01T09:21:29Z</time>
      </trkpt>
      <trkpt lat="45.85938" lon="4.66872">
        <ele>210</ele>
        <time>2017-07-01T09:21:30Z</time>
      </trkpt>
      <trkpt lat="45.8594" lon="4.66865">
        <ele>210</ele>
        <time>2017-07-01T09:21:31Z</time>
      </trkpt>
      <trkpt lat="45.85943" lon="4.66857">
        <ele>210</ele>
        <time>2017-07-01T09:21:32Z</time>
      </trkpt>
      <trkpt lat="45.85945" lon="4.66849">
        <ele>210</ele>
        <time>2017-07-01T09:21:33Z</time>
      </trkpt>
      <trkpt lat="45.85947" lon="4.66841">
        <ele>211</ele>
        <time>2017-07-01T09:21:34Z</time>
      </trkpt>
      <trkpt lat="45.8595" lon="4.66833">
        <ele>212</ele>
        <time>2017-07-01T09:21:35Z</time>
      </trkpt>
      <trkpt lat="45.85952" lon="4.66825">
        <ele>212</ele>
        <time>2017-07-01T09:21:36Z</time>
      </trkpt>
      <trkpt lat="45.85954" lon="4.66817">
        <ele>213</ele>
        <time>2017-07-01T09:21:37Z</time>
      </trkpt>
      <trkpt lat="45.85957" lon="4.6681">
        <ele>213</ele>
        <time>2017-07-01T09:21:38Z</time>
      </trkpt>
      <trkpt lat="45.85959" lon="4.66803">
        <ele>213</ele>
        <time>2017-07-01T09:21:39Z</time>
      </trkpt>
      <trkpt lat="45.85962" lon="4.66796">
        <ele>213</ele>
        <time>2017-07-01T09:21:40Z</time>
      </trkpt>
      <trkpt lat="45.85964" lon="4.6679">
        <ele>213</ele>
        <time>2017-07-01T09:21:41Z</time>
      </trkpt>
      <trkpt lat="45.85965" lon="4.66784">
        <ele>214</ele>
        <time>2017-07-01T09:21:42Z</time>
      </trkpt>
      <trkpt lat="45.85968" lon="4.66778">
        <ele>214</ele>
        <time>2017-07-01T09:21:43Z</time>
      </trkpt>
      <trkpt lat="45.8597" lon="4.66771">
        <ele>214</ele>
        <time>2017-07-01T09:21:44Z</time>
      </trkpt>
      <trkpt lat="45.85972" lon="4.66765">
        <ele>214</ele>
        <time>2017-07-01T09:21:45Z</time>
      </trkpt>
      <trkpt lat="45.85974" lon="4.66759">
        <ele>215</ele>
        <time>2017-07-01T09:21:46Z</time>
      </trkpt>
      <trkpt lat="45.85977" lon="4.66753">
        <ele>215</ele>
        <time>2017-07-01T09:21:47Z</time>
      </trkpt>
      <trkpt lat="45.85979" lon="4.66747">
        <ele>216</ele>
        <time>2017-07-01T09:21:48Z</time>
      </trkpt>
      <trkpt lat="45.85982" lon="4.66741">
        <ele>216</ele>
        <time>2017-07-01T09:21:49Z</time>
      </trkpt>
      <trkpt lat="45.85985" lon="4.66735">
        <ele>216</ele>
        <time>2017-07-01T09:21:50Z</time>
      </trkpt>
      <trkpt lat="45.85988" lon="4.66729">
        <ele>216</ele>
        <time>2017-07-01T09:21:51Z</time>
      </trkpt>
      <trkpt lat="45.85991" lon="4.66723">
        <ele>216</ele>
        <time>2017-07-01T09:21:52Z</time>
      </trkpt>
      <trkpt lat="45.85994" lon="4.66717">
        <ele>215</ele>
        <time>2017-07-01T09:21:53Z</time>
      </trkpt>
      <trkpt lat="45.85998" lon="4.66712">
        <ele>215</ele>
        <time>2017-07-01T09:21:54Z</time>
      </trkpt>
      <trkpt lat="45.86002" lon="4.66706">
        <ele>219</ele>
        <time>2017-07-01T09:21:55Z</time>
      </trkpt>
      <trkpt lat="45.86005" lon="4.66701">
        <ele>219</ele>
        <time>2017-07-01T09:21:56Z</time>
      </trkpt>
      <trkpt lat="45.86009" lon="4.66696">
        <ele>219</ele>
        <time>2017-07-01T09:21:57Z</time>
      </trkpt>
      <trkpt lat="45.86013" lon="4.66692">
        <ele>218</ele>
        <time>2017-07-01T09:21:58Z</time>
      </trkpt>
      <trkpt lat="45.86016" lon="4.66687">
        <ele>218</ele>
        <time>2017-07-01T09:21:59Z</time>
      </trkpt>
      <trkpt lat="45.8602" lon="4.66682">
        <ele>218</ele>
        <time>2017-07-01T09:22:00Z</time>
      </trkpt>
      <trkpt lat="45.86024" lon="4.66678">
        <ele>218</ele>
        <time>2017-07-01T09:22:01Z</time>
      </trkpt>
      <trkpt lat="45.86028" lon="4.66673">
        <ele>219</ele>
        <time>2017-07-01T09:22:02Z</time>
      </trkpt>
      <trkpt lat="45.86033" lon="4.66668">
        <ele>219</ele>
        <time>2017-07-01T09:22:03Z</time>
      </trkpt>
      <trkpt lat="45.86038" lon="4.66664">
        <ele>214</ele>
        <time>2017-07-01T09:22:04Z</time>
      </trkpt>
      <trkpt lat="45.86042" lon="4.66659">
        <ele>215</ele>
        <time>2017-07-01T09:22:05Z</time>
      </trkpt>
      <trkpt lat="45.86047" lon="4.66655">
        <ele>215</ele>
        <time>2017-07-01T09:22:06Z</time>
      </trkpt>
      <trkpt lat="45.86052" lon="4.66651">
        <ele>215</ele>
        <time>2017-07-01T09:22:07Z</time>
      </trkpt>
      <trkpt lat="45.86056" lon="4.66646">
        <ele>216</ele>
        <time>2017-07-01T09:22:08Z</time>
      </trkpt>
      <trkpt lat="45.86061" lon="4.66642">
        <ele>216</ele>
        <time>2017-07-01T09:22:09Z</time>
      </trkpt>
      <trkpt lat="45.86066" lon="4.66638">
        <ele>216</ele>
        <time>2017-07-01T09:22:10Z</time>
      </trkpt>
      <trkpt lat="45.8607" lon="4.66633">
        <ele>215</ele>
        <time>2017-07-01T09:22:11Z</time>
      </trkpt>
      <trkpt lat="45.86075" lon="4.66628">
        <ele>215</ele>
        <time>2017-07-01T09:22:12Z</time>
      </trkpt>
      <trkpt lat="45.86079" lon="4.66624">
        <ele>215</ele>
        <time>2017-07-01T09:22:13Z</time>
      </trkpt>
      <trkpt lat="45.86084" lon="4.6662">
        <ele>221</ele>
        <time>2017-07-01T09:22:14Z</time>
      </trkpt>
      <trkpt lat="45.86089" lon="4.66616">
        <ele>220</ele>
        <time>2017-07-01T09:22:15Z</time>
      </trkpt>
      <trkpt lat="45.86094" lon="4.66613">
        <ele>220</ele>
        <time>2017-07-01T09:22:16Z</time>
      </trkpt>
      <trkpt lat="45.86099" lon="4.6661">
        <ele>220</ele>
        <time>2017-07-01T09:22:17Z</time>
      </trkpt>
      <trkpt lat="45.86105" lon="4.66607">
        <ele>220</ele>
        <time>2017-07-01T09:22:18Z</time>
      </trkpt>
      <trkpt lat="45.8611" lon="4.66604">
        <ele>221</ele>
        <time>2017-07-01T09:22:19Z</time>
      </trkpt>
      <trkpt lat="45.86116" lon="4.66601">
        <ele>221</ele>
        <time>2017-07-01T09:22:20Z</time>
      </trkpt>
      <trkpt lat="45.86121" lon="4.66598">
        <ele>221</ele>
        <time>2017-07-01T09:22:21Z</time>
      </trkpt>
      <trkpt lat="45.86126" lon="4.66594">
        <ele>222</ele>
        <time>2017-07-01T09:22:22Z</time>
      </trkpt>
      <trkpt lat="45.86131" lon="4.66591">
        <ele>222</ele>
        <time>2017-07-01T09:22:23Z</time>
      </trkpt>
      <trkpt lat="45.86136" lon="4.66587">
        <ele>222</ele>
        <time>2017-07-01T09:22:24Z</time>
      </trkpt>
      <trkpt lat="45.86141" lon="4.66583">
        <ele>216</ele>
        <time>2017-07-01T09:22:25Z</time>
      </trkpt>
      <trkpt lat="45.86145" lon="4.66578">
        <ele>216</ele>
        <time>2017-07-01T09:22:26Z</time>
      </trkpt>
      <trkpt lat="45.86149" lon="4.66573">
        <ele>217</ele>
        <time>2017-07-01T09:22:27Z</time>
      </trkpt>
      <trkpt lat="45.86153" lon="4.66567">
        <ele>216</ele>
        <time>2017-07-01T09:22:28Z</time>
      </trkpt>
      <trkpt lat="45.86158" lon="4.66562">
        <ele>216</ele>
        <time>2017-07-01T09:22:29Z</time>
      </trkpt>
      <trkpt lat="45.86164" lon="4.66557">
        <ele>216</ele>
        <time>2017-07-01T09:22:30Z</time>
      </trkpt>
      <trkpt lat="45.86168" lon="4.66551">
        <ele>220</ele>
        <time>2017-07-01T09:22:31Z</time>
      </trkpt>
      <trkpt lat="45.86172" lon="4.66544">
        <ele>220</ele>
        <time>2017-07-01T09:22:32Z</time>
      </trkpt>
      <trkpt lat="45.86175" lon="4.66538">
        <ele>219</ele>
        <time>2017-07-01T09:22:33Z</time>
      </trkpt>
      <trkpt lat="45.86179" lon="4.66533">
        <ele>219</ele>
        <time>2017-07-01T09:22:34Z</time>
      </trkpt>
      <trkpt lat="45.86183" lon="4.66526">
        <ele>218</ele>
        <time>2017-07-01T09:22:35Z</time>
      </trkpt>
      <trkpt lat="45.86187" lon="4.6652">
        <ele>218</ele>
        <time>2017-07-01T09:22:36Z</time>
      </trkpt>
      <trkpt lat="45.86191" lon="4.66513">
        <ele>218</ele>
        <time>2017-07-01T09:22:37Z</time>
      </trkpt>
      <trkpt lat="45.86195" lon="4.66505">
        <ele>218</ele>
        <time>2017-07-01T09:22:38Z</time>
      </trkpt>
      <trkpt lat="45.86199" lon="4.66497">
        <ele>213</ele>
        <time>2017-07-01T09:22:39Z</time>
      </trkpt>
      <trkpt lat="45.86203" lon="4.66489">
        <ele>213</ele>
        <time>2017-07-01T09:22:40Z</time>
      </trkpt>
      <trkpt lat="45.86207" lon="4.66482">
        <ele>213</ele>
        <time>2017-07-01T09:22:41Z</time>
      </trkpt>
      <trkpt lat="45.86211" lon="4.66475">
        <ele>214</ele>
        <time>2017-07-01T09:22:42Z</time>
      </trkpt>
      <trkpt lat="45.86215" lon="4.66468">
        <ele>214</ele>
        <time>2017-07-01T09:22:43Z</time>
      </trkpt>
      <trkpt lat="45.86219" lon="4.66461">
        <ele>214</ele>
        <time>2017-07-01T09:22:44Z</time>
      </trkpt>
      <trkpt lat="45.86222" lon="4.66454">
        <ele>214</ele>
        <time>2017-07-01T09:22:45Z</time>
      </trkpt>
      <trkpt lat="45.86225" lon="4.66447">
        <ele>214</ele>
        <time>2017-07-01T09:22:46Z</time>
      </trkpt>
      <trkpt lat="45.86228" lon="4.66441">
        <ele>214</ele>
        <time>2017-07-01T09:22:47Z</time>
      </trkpt>
      <trkpt lat="45.86231" lon="4.66435">
        <ele>214</ele>
        <time>2017-07-01T09:22:48Z</time>
      </trkpt>
      <trkpt lat="45.86235" lon="4.66429">
        <ele>214</ele>
        <time>2017-07-01T09:22:49Z</time>
      </trkpt>
      <trkpt lat="45.86239" lon="4.66422">
        <ele>214</ele>
        <time>2017-07-01T09:22:50Z</time>
      </trkpt>
      <trkpt lat="45.86242" lon="4.66416">
        <ele>213</ele>
        <time>2017-07-01T09:22:51Z</time>
      </trkpt>
      <trkpt lat="45.86245" lon="4.6641">
        <ele>213</ele>
        <time>2017-07-01T09:22:52Z</time>
      </trkpt>
      <trkpt lat="45.86248" lon="4.66404">
        <ele>213</ele>
        <time>2017-07-01T09:22:53Z</time>
      </trkpt>
      <trkpt lat="45.86252" lon="4.66397">
        <ele>216</ele>
        <time>2017-07-01T09:22:54Z</time>
      </trkpt>
      <trkpt lat="45.86255" lon="4.66391">
        <ele>216</ele>
        <time>2017-07-01T09:22:55Z</time>
      </trkpt>
      <trkpt lat="45.86259" lon="4.66384">
        <ele>216</ele>
        <time>2017-07-01T09:22:56Z</time>
      </trkpt>
      <trkpt lat="45.86262" lon="4.66378">
        <ele>216</ele>
        <time>2017-07-01T09:22:57Z</time>
      </trkpt>
      <trkpt lat="45.86266" lon="4.66372">
        <ele>216</ele>
        <time>2017-07-01T09:22:58Z</time>
      </trkpt>
      <trkpt lat="45.8627" lon="4.66365">
        <ele>216</ele>
        <time>2017-07-01T09:22:59Z</time>
      </trkpt>
      <trkpt lat="45.86273" lon="4.66359">
        <ele>216</ele>
        <time>2017-07-01T09:23:00Z</time>
      </trkpt>
      <trkpt lat="45.86277" lon="4.66353">
        <ele>216</ele>
        <time>2017-07-01T09:23:01Z</time>
      </trkpt>
      <trkpt lat="45.8628" lon="4.66347">
        <ele>216</ele>
        <time>2017-07-01T09:23:02Z</time>
      </trkpt>
      <trkpt lat="45.86284" lon="4.66341">
        <ele>217</ele>
        <time>2017-07-01T09:23:03Z</time>
      </trkpt>
      <trkpt lat="45.86288" lon="4.66335">
        <ele>217</ele>
        <time>2017-07-01T09:23:04Z</time>
      </trkpt>
      <trkpt lat="45.86292" lon="4.66329">
        <ele>215</ele>
        <time>2017-07-01T09:23:05Z</time>
      </trkpt>
      <trkpt lat="45.86296" lon="4.66323">
        <ele>215</ele>
        <time>2017-07-01T09:23:06Z</time>
      </trkpt>
      <trkpt lat="45.863" lon="4.66317">
        <ele>215</ele>
        <time>2017-07-01T09:23:07Z</time>
      </trkpt>
      <trkpt lat="45.86304" lon="4.66312">
        <ele>215</ele>
        <time>2017-07-01T09:23:08Z</time>
      </trkpt>
      <trkpt lat="45.86308" lon="4.66306">
        <ele>215</ele>
        <time>2017-07-01T09:23:09Z</time>
      </trkpt>
      <trkpt lat="45.86313" lon="4.663">
        <ele>215</ele>
        <time>2017-07-01T09:23:10Z</time>
      </trkpt>
      <trkpt lat="45.86318" lon="4.66295">
        <ele>215</ele>
        <time>2017-07-01T09:23:11Z</time>
      </trkpt>
      <trkpt lat="45.86323" lon="4.6629">
        <ele>215</ele>
        <time>2017-07-01T09:23:12Z</time>
      </trkpt>
      <trkpt lat="45.86327" lon="4.66285">
        <ele>214</ele>
        <time>2017-07-01T09:23:13Z</time>
      </trkpt>
      <trkpt lat="45.86332" lon="4.66281">
        <ele>214</ele>
        <time>2017-07-01T09:23:14Z</time>
      </trkpt>
      <trkpt lat="45.86336" lon="4.66276">
        <ele>218</ele>
        <time>2017-07-01T09:23:15Z</time>
      </trkpt>
      <trkpt lat="45.86341" lon="4.66271">
        <ele>218</ele>
        <time>2017-07-01T09:23:16Z</time>
      </trkpt>
      <trkpt lat="45.86345" lon="4.66268">
        <ele>217</ele>
        <time>2017-07-01T09:23:17Z</time>
      </trkpt>
      <trkpt lat="45.86348" lon="4.66264">
        <ele>217</ele>
        <time>2017-07-01T09:23:18Z</time>
      </trkpt>
      <trkpt lat="45.86352" lon="4.66261">
        <ele>217</ele>
        <time>2017-07-01T09:23:19Z</time>
      </trkpt>
      <trkpt lat="45.86357" lon="4.66258">
        <ele>218</ele>
        <time>2017-07-01T09:23:20Z</time>
      </trkpt>
      <trkpt lat="45.86361" lon="4.66255">
        <ele>218</ele>
        <time>2017-07-01T09:23:21Z</time>
      </trkpt>
      <trkpt lat="45.86365" lon="4.66252">
        <ele>218</ele>
        <time>2017-07-01T09:23:22Z</time>
      </trkpt>
      <trkpt lat="45.8637" lon="4.6625">
        <ele>214</ele>
        <time>2017-07-01T09:23:23Z</time>
      </trkpt>
      <trkpt lat="45.86375" lon="4.66247">
        <ele>214</ele>
        <time>2017-07-01T09:23:24Z</time>
      </trkpt>
      <trkpt lat="45.8638" lon="4.66245">
        <ele>214</ele>
        <time>2017-07-01T09:23:25Z</time>
      </trkpt>
      <trkpt lat="45.86385" lon="4.66243">
        <ele>214</ele>
        <time>2017-07-01T09:23:26Z</time>
      </trkpt>
      <trkpt lat="45.8639" lon="4.66241">
        <ele>215</ele>
        <time>2017-07-01T09:23:27Z</time>
      </trkpt>
      <trkpt lat="45.86395" lon="4.66239">
        <ele>215</ele>
        <time>2017-07-01T09:23:28Z</time>
      </trkpt>
      <trkpt lat="45.86401" lon="4.66236">
        <ele>216</ele>
        <time>2017-07-01T09:23:29Z</time>
      </trkpt>
      <trkpt lat="45.86407" lon="4.66232">
        <ele>216</ele>
        <time>2017-07-01T09:23:30Z</time>
      </trkpt>
      <trkpt lat="45.86412" lon="4.66231">
        <ele>216</ele>
        <time>2017-07-01T09:23:31Z</time>
      </trkpt>
      <trkpt lat="45.86417" lon="4.6623">
        <ele>216</ele>
        <time>2017-07-01T09:23:32Z</time>
      </trkpt>
      <trkpt lat="45.86425" lon="4.6623">
        <ele>219</ele>
        <time>2017-07-01T09:23:34Z</time>
      </trkpt>
      <trkpt lat="45.86429" lon="4.66229">
        <ele>219</ele>
        <time>2017-07-01T09:23:35Z</time>
      </trkpt>
      <trkpt lat="45.86435" lon="4.66228">
        <ele>218</ele>
        <time>2017-07-01T09:23:36Z</time>
      </trkpt>
      <trkpt lat="45.8644" lon="4.66227">
        <ele>218</ele>
        <time>2017-07-01T09:23:37Z</time>
      </trkpt>
      <trkpt lat="45.86446" lon="4.66225">
        <ele>218</ele>
        <time>2017-07-01T09:23:38Z</time>
      </trkpt>
      <trkpt lat="45.86452" lon="4.66224">
        <ele>218</ele>
        <time>2017-07-01T09:23:39Z</time>
      </trkpt>
      <trkpt lat="45.86457" lon="4.66222">
        <ele>218</ele>
        <time>2017-07-01T09:23:40Z</time>
      </trkpt>
      <trkpt lat="45.86462" lon="4.66221">
        <ele>219</ele>
        <time>2017-07-01T09:23:41Z</time>
      </trkpt>
      <trkpt lat="45.86468" lon="4.66219">
        <ele>219</ele>
        <time>2017-07-01T09:23:42Z</time>
      </trkpt>
      <trkpt lat="45.86472" lon="4.66216">
        <ele>219</ele>
        <time>2017-07-01T09:23:43Z</time>
      </trkpt>
      <trkpt lat="45.86477" lon="4.66214">
        <ele>219</ele>
        <time>2017-07-01T09:23:44Z</time>
      </trkpt>
      <trkpt lat="45.86482" lon="4.66212">
        <ele>219</ele>
        <time>2017-07-01T09:23:45Z</time>
      </trkpt>
      <trkpt lat="45.8649" lon="4.66208">
        <ele>218</ele>
        <time>2017-07-01T09:23:47Z</time>
      </trkpt>
      <trkpt lat="45.86495" lon="4.66207">
        <ele>218</ele>
        <time>2017-07-01T09:23:48Z</time>
      </trkpt>
      <trkpt lat="45.865" lon="4.66203">
        <ele>218</ele>
        <time>2017-07-01T09:23:49Z</time>
      </trkpt>
      <trkpt lat="45.86504" lon="4.662">
        <ele>224</ele>
        <time>2017-07-01T09:23:50Z</time>
      </trkpt>
      <trkpt lat="45.86509" lon="4.66198">
        <ele>224</ele>
        <time>2017-07-01T09:23:51Z</time>
      </trkpt>
      <trkpt lat="45.86514" lon="4.66195">
        <ele>224</ele>
        <time>2017-07-01T09:23:52Z</time>
      </trkpt>
      <trkpt lat="45.8652" lon="4.66191">
        <ele>224</ele>
        <time>2017-07-01T09:23:53Z</time>
      </trkpt>
      <trkpt lat="45.86525" lon="4.66188">
        <ele>224</ele>
        <time>2017-07-01T09:23:54Z</time>
      </trkpt>
      <trkpt lat="45.8653" lon="4.66184">
        <ele>224</ele>
        <time>2017-07-01T09:23:55Z</time>
      </trkpt>
      <trkpt lat="45.86535" lon="4.66181">
        <ele>225</ele>
        <time>2017-07-01T09:23:56Z</time>
      </trkpt>
      <trkpt lat="45.8654" lon="4.66176">
        <ele>225</ele>
        <time>2017-07-01T09:23:57Z</time>
      </trkpt>
      <trkpt lat="45.86545" lon="4.66172">
        <ele>225</ele>
        <time>2017-07-01T09:23:58Z</time>
      </trkpt>
      <trkpt lat="45.8655" lon="4.66168">
        <ele>226</ele>
        <time>2017-07-01T09:23:59Z</time>
      </trkpt>
      <trkpt lat="45.86555" lon="4.66164">
        <ele>219</ele>
        <time>2017-07-01T09:24:00Z</time>
      </trkpt>
      <trkpt lat="45.8656" lon="4.66161">
        <ele>220</ele>
        <time>2017-07-01T09:24:01Z</time>
      </trkpt>
      <trkpt lat="45.86565" lon="4.66157">
        <ele>220</ele>
        <time>2017-07-01T09:24:02Z</time>
      </trkpt>
      <trkpt lat="45.8657" lon="4.66154">
        <ele>221</ele>
        <time>2017-07-01T09:24:03Z</time>
      </trkpt>
      <trkpt lat="45.86575" lon="4.6615">
        <ele>221</ele>
        <time>2017-07-01T09:24:04Z</time>
      </trkpt>
      <trkpt lat="45.8658" lon="4.66146">
        <ele>220</ele>
        <time>2017-07-01T09:24:05Z</time>
      </trkpt>
      <trkpt lat="45.86585" lon="4.66142">
        <ele>226</ele>
        <time>2017-07-01T09:24:06Z</time>
      </trkpt>
      <trkpt lat="45.8659" lon="4.66138">
        <ele>225</ele>
        <time>2017-07-01T09:24:07Z</time>
      </trkpt>
      <trkpt lat="45.86595" lon="4.66134">
        <ele>225</ele>
        <time>2017-07-01T09:24:08Z</time>
      </trkpt>
      <trkpt lat="45.86599" lon="4.6613">
        <ele>225</ele>
        <time>2017-07-01T09:24:09Z</time>
      </trkpt>
      <trkpt lat="45.86604" lon="4.66126">
        <ele>224</ele>
        <time>2017-07-01T09:24:10Z</time>
      </trkpt>
      <trkpt lat="45.86609" lon="4.66123">
        <ele>224</ele>
        <time>2017-07-01T09:24:11Z</time>
      </trkpt>
      <trkpt lat="45.86613" lon="4.66119">
        <ele>224</ele>
        <time>2017-07-01T09:24:12Z</time>
      </trkpt>
      <trkpt lat="45.86617" lon="4.66116">
        <ele>224</ele>
        <time>2017-07-01T09:24:13Z</time>
      </trkpt>
      <trkpt lat="45.86621" lon="4.66113">
        <ele>224</ele>
        <time>2017-07-01T09:24:14Z</time>
      </trkpt>
      <trkpt lat="45.86625" lon="4.66111">
        <ele>224</ele>
        <time>2017-07-01T09:24:15Z</time>
      </trkpt>
      <trkpt lat="45.8663" lon="4.66108">
        <ele>224</ele>
        <time>2017-07-01T09:24:16Z</time>
      </trkpt>
      <trkpt lat="45.86634" lon="4.66106">
        <ele>224</ele>
        <time>2017-07-01T09:24:17Z</time>
      </trkpt>
      <trkpt lat="45.86639" lon="4.66104">
        <ele>224</ele>
        <time>2017-07-01T09:24:18Z</time>
      </trkpt>
      <trkpt lat="45.86644" lon="4.66103">
        <ele>224</ele>
        <time>2017-07-01T09:24:19Z</time>
      </trkpt>
      <trkpt lat="45.86648" lon="4.66101">
        <ele>224</ele>
        <time>2017-07-01T09:24:20Z</time>
      </trkpt>
      <trkpt lat="45.86653" lon="4.66098">
        <ele>223</ele>
        <time>2017-07-01T09:24:21Z</time>
      </trkpt>
      <trkpt lat="45.86658" lon="4.66096">
        <ele>223</ele>
        <time>2017-07-01T09:24:22Z</time>
      </trkpt>
      <trkpt lat="45.86663" lon="4.66094">
        <ele>222</ele>
        <time>2017-07-01T09:24:23Z</time>
      </trkpt>
      <trkpt lat="45.86667" lon="4.66093">
        <ele>226</ele>
        <time>2017-07-01T09:24:24Z</time>
      </trkpt>
      <trkpt lat="45.86675" lon="4.66089">
        <ele>227</ele>
        <time>2017-07-01T09:24:26Z</time>
      </trkpt>
      <trkpt lat="45.8668" lon="4.66087">
        <ele>228</ele>
        <time>2017-07-01T09:24:27Z</time>
      </trkpt>
      <trkpt lat="45.86684" lon="4.66085">
        <ele>230</ele>
        <time>2017-07-01T09:24:28Z</time>
      </trkpt>
      <trkpt lat="45.86689" lon="4.66083">
        <ele>221</ele>
        <time>2017-07-01T09:24:29Z</time>
      </trkpt>
      <trkpt lat="45.86693" lon="4.66081">
        <ele>222</ele>
        <time>2017-07-01T09:24:30Z</time>
      </trkpt>
      <trkpt lat="45.86698" lon="4.66079">
        <ele>223</ele>
        <time>2017-07-01T09:24:31Z</time>
      </trkpt>
      <trkpt lat="45.86702" lon="4.66077">
        <ele>223</ele>
        <time>2017-07-01T09:24:32Z</time>
      </trkpt>
      <trkpt lat="45.86707" lon="4.66075">
        <ele>224</ele>
        <time>2017-07-01T09:24:33Z</time>
      </trkpt>
      <trkpt lat="45.86712" lon="4.66073">
        <ele>224</ele>
        <time>2017-07-01T09:24:34Z</time>
      </trkpt>
      <trkpt lat="45.86717" lon="4.66069">
        <ele>225</ele>
        <time>2017-07-01T09:24:35Z</time>
      </trkpt>
      <trkpt lat="45.86723" lon="4.66066">
        <ele>226</ele>
        <time>2017-07-01T09:24:36Z</time>
      </trkpt>
      <trkpt lat="45.86728" lon="4.66062">
        <ele>226</ele>
        <time>2017-07-01T09:24:37Z</time>
      </trkpt>
      <trkpt lat="45.86733" lon="4.66058">
        <ele>226</ele>
        <time>2017-07-01T09:24:38Z</time>
      </trkpt>
      <trkpt lat="45.86738" lon="4.66054">
        <ele>226</ele>
        <time>2017-07-01T09:24:39Z</time>
      </trkpt>
      <trkpt lat="45.86743" lon="4.6605">
        <ele>225</ele>
        <time>2017-07-01T09:24:40Z</time>
      </trkpt>
      <trkpt lat="45.86748" lon="4.66047">
        <ele>225</ele>
        <time>2017-07-01T09:24:41Z</time>
      </trkpt>
      <trkpt lat="45.86753" lon="4.66043">
        <ele>234</ele>
        <time>2017-07-01T09:24:42Z</time>
      </trkpt>
      <trkpt lat="45.86757" lon="4.6604">
        <ele>234</ele>
        <time>2017-07-01T09:24:43Z</time>
      </trkpt>
      <trkpt lat="45.86761" lon="4.66035">
        <ele>233</ele>
        <time>2017-07-01T09:24:44Z</time>
      </trkpt>
      <trkpt lat="45.86765" lon="4.66031">
        <ele>233</ele>
        <time>2017-07-01T09:24:45Z</time>
      </trkpt>
      <trkpt lat="45.86769" lon="4.66027">
        <ele>232</ele>
        <time>2017-07-01T09:24:46Z</time>
      </trkpt>
      <trkpt lat="45.86773" lon="4.66023">
        <ele>232</ele>
        <time>2017-07-01T09:24:47Z</time>
      </trkpt>
      <trkpt lat="45.8678" lon="4.66016">
        <ele>232</ele>
        <time>2017-07-01T09:24:49Z</time>
      </trkpt>
      <trkpt lat="45.86783" lon="4.66012">
        <ele>232</ele>
        <time>2017-07-01T09:24:50Z</time>
      </trkpt>
      <trkpt lat="45.86787" lon="4.66007">
        <ele>233</ele>
        <time>2017-07-01T09:24:51Z</time>
      </trkpt>
      <trkpt lat="45.8679" lon="4.66003">
        <ele>233</ele>
        <time>2017-07-01T09:24:52Z</time>
      </trkpt>
      <trkpt lat="45.86794" lon="4.65999">
        <ele>223</ele>
        <time>2017-07-01T09:24:53Z</time>
      </trkpt>
      <trkpt lat="45.86797" lon="4.65994">
        <ele>224</ele>
        <time>2017-07-01T09:24:54Z</time>
      </trkpt>
      <trkpt lat="45.86801" lon="4.65989">
        <ele>224</ele>
        <time>2017-07-01T09:24:55Z</time>
      </trkpt>
      <trkpt lat="45.86804" lon="4.65984">
        <ele>224</ele>
        <time>2017-07-01T09:24:56Z</time>
      </trkpt>
      <trkpt lat="45.86807" lon="4.65979">
        <ele>224</ele>
        <time>2017-07-01T09:24:57Z</time>
      </trkpt>
      <trkpt lat="45.8681" lon="4.65974">
        <ele>224</ele>
        <time>2017-07-01T09:24:58Z</time>
      </trkpt>
      <trkpt lat="45.86813" lon="4.65969">
        <ele>224</ele>
        <time>2017-07-01T09:24:59Z</time>
      </trkpt>
      <trkpt lat="45.86817" lon="4.65964">
        <ele>224</ele>
        <time>2017-07-01T09:25:00Z</time>
      </trkpt>
      <trkpt lat="45.8682" lon="4.65958">
        <ele>223</ele>
        <time>2017-07-01T09:25:01Z</time>
      </trkpt>
      <trkpt lat="45.86822" lon="4.65952">
        <ele>223</ele>
        <time>2017-07-01T09:25:02Z</time>
      </trkpt>
      <trkpt lat="45.86825" lon="4.65947">
        <ele>222</ele>
        <time>2017-07-01T09:25:03Z</time>
      </trkpt>
      <trkpt lat="45.86827" lon="4.65941">
        <ele>222</ele>
        <time>2017-07-01T09:25:04Z</time>
      </trkpt>
      <trkpt lat="45.86834" lon="4.65932">
        <ele>231</ele>
        <time>2017-07-01T09:25:06Z</time>
      </trkpt>
      <trkpt lat="45.86837" lon="4.65926">
        <ele>229</ele>
        <time>2017-07-01T09:25:07Z</time>
      </trkpt>
      <trkpt lat="45.8684" lon="4.6592">
        <ele>227</ele>
        <time>2017-07-01T09:25:08Z</time>
      </trkpt>
      <trkpt lat="45.86843" lon="4.65914">
        <ele>224</ele>
        <time>2017-07-01T09:25:09Z</time>
      </trkpt>
      <trkpt lat="45.86847" lon="4.65907">
        <ele>225</ele>
        <time>2017-07-01T09:25:10Z</time>
      </trkpt>
      <trkpt lat="45.8685" lon="4.659">
        <ele>226</ele>
        <time>2017-07-01T09:25:11Z</time>
      </trkpt>
      <trkpt lat="45.86853" lon="4.65892">
        <ele>227</ele>
        <time>2017-07-01T09:25:12Z</time>
      </trkpt>
      <trkpt lat="45.86856" lon="4.65885">
        <ele>227</ele>
        <time>2017-07-01T09:25:13Z</time>
      </trkpt>
      <trkpt lat="45.86859" lon="4.65879">
        <ele>227</ele>
        <time>2017-07-01T09:25:14Z</time>
      </trkpt>
      <trkpt lat="45.86862" lon="4.65872">
        <ele>227</ele>
        <time>2017-07-01T09:25:15Z</time>
      </trkpt>
      <trkpt lat="45.86865" lon="4.65865">
        <ele>227</ele>
        <time>2017-07-01T09:25:16Z</time>
      </trkpt>
      <trkpt lat="45.86867" lon="4.65858">
        <ele>227</ele>
        <time>2017-07-01T09:25:17Z</time>
      </trkpt>
      <trkpt lat="45.8687" lon="4.65851">
        <ele>227</ele>
        <time>2017-07-01T09:25:18Z</time>
      </trkpt>
      <trkpt lat="45.86873" lon="4.65843">
        <ele>227</ele>
        <time>2017-07-01T09:25:19Z</time>
      </trkpt>
      <trkpt lat="45.86875" lon="4.65835">
        <ele>227</ele>
        <time>2017-07-01T09:25:20Z</time>
      </trkpt>
      <trkpt lat="45.86878" lon="4.65827">
        <ele>223</ele>
        <time>2017-07-01T09:25:21Z</time>
      </trkpt>
      <trkpt lat="45.8688" lon="4.65819">
        <ele>223</ele>
        <time>2017-07-01T09:25:22Z</time>
      </trkpt>
      <trkpt lat="45.86882" lon="4.65811">
        <ele>223</ele>
        <time>2017-07-01T09:25:23Z</time>
      </trkpt>
      <trkpt lat="45.86884" lon="4.65803">
        <ele>223</ele>
        <time>2017-07-01T09:25:24Z</time>
      </trkpt>
      <trkpt lat="45.86886" lon="4.65795">
        <ele>223</ele>
        <time>2017-07-01T09:25:25Z</time>
      </trkpt>
      <trkpt lat="45.86888" lon="4.65787">
        <ele>223</ele>
        <time>2017-07-01T09:25:26Z</time>
      </trkpt>
      <trkpt lat="45.86889" lon="4.65779">
        <ele>224</ele>
        <time>2017-07-01T09:25:27Z</time>
      </trkpt>
      <trkpt lat="45.8689" lon="4.65772">
        <ele>224</ele>
        <time>2017-07-01T09:25:28Z</time>
      </trkpt>
      <trkpt lat="45.86891" lon="4.65764">
        <ele>224</ele>
        <time>2017-07-01T09:25:29Z</time>
      </trkpt>
      <trkpt lat="45.86891" lon="4.65757">
        <ele>224</ele>
        <time>2017-07-01T09:25:30Z</time>
      </trkpt>
      <trkpt lat="45.86892" lon="4.65749">
        <ele>224</ele>
        <time>2017-07-01T09:25:31Z</time>
      </trkpt>
      <trkpt lat="45.86893" lon="4.6574">
        <ele>224</ele>
        <time>2017-07-01T09:25:32Z</time>
      </trkpt>
      <trkpt lat="45.86894" lon="4.65731">
        <ele>223</ele>
        <time>2017-07-01T09:25:33Z</time>
      </trkpt>
      <trkpt lat="45.86895" lon="4.65722">
        <ele>223</ele>
        <time>2017-07-01T09:25:34Z</time>
      </trkpt>
      <trkpt lat="45.86894" lon="4.65712">
        <ele>223</ele>
        <time>2017-07-01T09:25:35Z</time>
      </trkpt>
      <trkpt lat="45.86894" lon="4.65703">
        <ele>223</ele>
        <time>2017-07-01T09:25:36Z</time>
      </trkpt>
      <trkpt lat="45.86894" lon="4.65694">
        <ele>223</ele>
        <time>2017-07-01T09:25:37Z</time>
      </trkpt>
      <trkpt lat="45.86895" lon="4.65685">
        <ele>224</ele>
        <time>2017-07-01T09:25:38Z</time>
      </trkpt>
      <trkpt lat="45.86895" lon="4.65675">
        <ele>225</ele>
        <time>2017-07-01T09:25:39Z</time>
      </trkpt>
      <trkpt lat="45.86896" lon="4.65666">
        <ele>225</ele>
        <time>2017-07-01T09:25:40Z</time>
      </trkpt>
      <trkpt lat="45.86897" lon="4.65656">
        <ele>225</ele>
        <time>2017-07-01T09:25:41Z</time>
      </trkpt>
      <trkpt lat="45.86898" lon="4.65647">
        <ele>224</ele>
        <time>2017-07-01T09:25:42Z</time>
      </trkpt>
      <trkpt lat="45.869" lon="4.65638">
        <ele>223</ele>
        <time>2017-07-01T09:25:43Z</time>
      </trkpt>
      <trkpt lat="45.86901" lon="4.65629">
        <ele>223</ele>
        <time>2017-07-01T09:25:44Z</time>
      </trkpt>
      <trkpt lat="45.86903" lon="4.6562">
        <ele>223</ele>
        <time>2017-07-01T09:25:45Z</time>
      </trkpt>
      <trkpt lat="45.86905" lon="4.6561">
        <ele>223</ele>
        <time>2017-07-01T09:25:46Z</time>
      </trkpt>
      <trkpt lat="45.86907" lon="4.656">
        <ele>223</ele>
        <time>2017-07-01T09:25:47Z</time>
      </trkpt>
      <trkpt lat="45.8691" lon="4.65591">
        <ele>224</ele>
        <time>2017-07-01T09:25:48Z</time>
      </trkpt>
      <trkpt lat="45.86912" lon="4.65582">
        <ele>224</ele>
        <time>2017-07-01T09:25:49Z</time>
      </trkpt>
      <trkpt lat="45.86915" lon="4.65572">
        <ele>223</ele>
        <time>2017-07-01T09:25:50Z</time>
      </trkpt>
      <trkpt lat="45.86918" lon="4.65563">
        <ele>230</ele>
        <time>2017-07-01T09:25:51Z</time>
      </trkpt>
      <trkpt lat="45.86921" lon="4.65554">
        <ele>230</ele>
        <time>2017-07-01T09:25:52Z</time>
      </trkpt>
      <trkpt lat="45.86924" lon="4.65545">
        <ele>230</ele>
        <time>2017-07-01T09:25:53Z</time>
      </trkpt>
      <trkpt lat="45.86927" lon="4.65536">
        <ele>230</ele>
        <time>2017-07-01T09:25:54Z</time>
      </trkpt>
      <trkpt lat="45.8693" lon="4.65528">
        <ele>229</ele>
        <time>2017-07-01T09:25:55Z</time>
      </trkpt>
      <trkpt lat="45.86934" lon="4.65519">
        <ele>228</ele>
        <time>2017-07-01T09:25:56Z</time>
      </trkpt>
      <trkpt lat="45.86937" lon="4.65511">
        <ele>228</ele>
        <time>2017-07-01T09:25:57Z</time>
      </trkpt>
      <trkpt lat="45.86941" lon="4.65503">
        <ele>228</ele>
        <time>2017-07-01T09:25:58Z</time>
      </trkpt>
      <trkpt lat="45.86944" lon="4.65496">
        <ele>222</ele>
        <time>2017-07-01T09:25:59Z</time>
      </trkpt>
      <trkpt lat="45.86949" lon="4.65489">
        <ele>222</ele>
        <time>2017-07-01T09:26:00Z</time>
      </trkpt>
      <trkpt lat="45.86952" lon="4.65482">
        <ele>222</ele>
        <time>2017-07-01T09:26:01Z</time>
      </trkpt>
      <trkpt lat="45.86956" lon="4.65475">
        <ele>223</ele>
        <time>2017-07-01T09:26:02Z</time>
      </trkpt>
      <trkpt lat="45.8696" lon="4.65468">
        <ele>223</ele>
        <time>2017-07-01T09:26:03Z</time>
      </trkpt>
      <trkpt lat="45.86965" lon="4.65462">
        <ele>223</ele>
        <time>2017-07-01T09:26:04Z</time>
      </trkpt>
      <trkpt lat="45.8697" lon="4.65456">
        <ele>223</ele>
        <time>2017-07-01T09:26:05Z</time>
      </trkpt>
      <trkpt lat="45.86975" lon="4.6545">
        <ele>223</ele>
        <time>2017-07-01T09:26:06Z</time>
      </trkpt>
      <trkpt lat="45.8698" lon="4.65443">
        <ele>222</ele>
        <time>2017-07-01T09:26:07Z</time>
      </trkpt>
      <trkpt lat="45.86985" lon="4.65438">
        <ele>222</ele>
        <time>2017-07-01T09:26:08Z</time>
      </trkpt>
      <trkpt lat="45.86989" lon="4.65432">
        <ele>222</ele>
        <time>2017-07-01T09:26:09Z</time>
      </trkpt>
      <trkpt lat="45.86994" lon="4.65427">
        <ele>222</ele>
        <time>2017-07-01T09:26:10Z</time>
      </trkpt>
      <trkpt lat="45.87" lon="4.65421">
        <ele>221</ele>
        <time>2017-07-01T09:26:11Z</time>
      </trkpt>
      <trkpt lat="45.87005" lon="4.65415">
        <ele>222</ele>
        <time>2017-07-01T09:26:12Z</time>
      </trkpt>
      <trkpt lat="45.8701" lon="4.65408">
        <ele>223</ele>
        <time>2017-07-01T09:26:13Z</time>
      </trkpt>
      <trkpt lat="45.87015" lon="4.65402">
        <ele>223</ele>
        <time>2017-07-01T09:26:14Z</time>
      </trkpt>
      <trkpt lat="45.87021" lon="4.65396">
        <ele>224</ele>
        <time>2017-07-01T09:26:15Z</time>
      </trkpt>
      <trkpt lat="45.87026" lon="4.6539">
        <ele>224</ele>
        <time>2017-07-01T09:26:16Z</time>
      </trkpt>
      <trkpt lat="45.87031" lon="4.65384">
        <ele>224</ele>
        <time>2017-07-01T09:26:17Z</time>
      </trkpt>
      <trkpt lat="45.87036" lon="4.65377">
        <ele>224</ele>
        <time>2017-07-01T09:26:18Z</time>
      </trkpt>
      <trkpt lat="45.87041" lon="4.6537">
        <ele>224</ele>
        <time>2017-07-01T09:26:19Z</time>
      </trkpt>
      <trkpt lat="45.87046" lon="4.65362">
        <ele>224</ele>
        <time>2017-07-01T09:26:20Z</time>
      </trkpt>
      <trkpt lat="45.87051" lon="4.65355">
        <ele>224</ele>
        <time>2017-07-01T09:26:21Z</time>
      </trkpt>
      <trkpt lat="45.87056" lon="4.65347">
        <ele>224</ele>
        <time>2017-07-01T09:26:22Z</time>
      </trkpt>
      <trkpt lat="45.87061" lon="4.65338">
        <ele>224</ele>
        <time>2017-07-01T09:26:23Z</time>
      </trkpt>
      <trkpt lat="45.87065" lon="4.6533">
        <ele>219</ele>
        <time>2017-07-01T09:26:24Z</time>
      </trkpt>
      <trkpt lat="45.8707" lon="4.65321">
        <ele>219</ele>
        <time>2017-07-01T09:26:25Z</time>
      </trkpt>
      <trkpt lat="45.87074" lon="4.65313">
        <ele>219</ele>
        <time>2017-07-01T09:26:26Z</time>
      </trkpt>
      <trkpt lat="45.87077" lon="4.65305">
        <ele>218</ele>
        <time>2017-07-01T09:26:27Z</time>
      </trkpt>
      <trkpt lat="45.8708" lon="4.65296">
        <ele>217</ele>
        <time>2017-07-01T09:26:28Z</time>
      </trkpt>
      <trkpt lat="45.87084" lon="4.65288">
        <ele>227</ele>
        <time>2017-07-01T09:26:29Z</time>
      </trkpt>
      <trkpt lat="45.87087" lon="4.65281">
        <ele>226</ele>
        <time>2017-07-01T09:26:30Z</time>
      </trkpt>
      <trkpt lat="45.87091" lon="4.65273">
        <ele>224</ele>
        <time>2017-07-01T09:26:31Z</time>
      </trkpt>
      <trkpt lat="45.87094" lon="4.65265">
        <ele>223</ele>
        <time>2017-07-01T09:26:32Z</time>
      </trkpt>
      <trkpt lat="45.87097" lon="4.65257">
        <ele>222</ele>
        <time>2017-07-01T09:26:33Z</time>
      </trkpt>
      <trkpt lat="45.87101" lon="4.6525">
        <ele>217</ele>
        <time>2017-07-01T09:26:34Z</time>
      </trkpt>
      <trkpt lat="45.87104" lon="4.65243">
        <ele>218</ele>
        <time>2017-07-01T09:26:35Z</time>
      </trkpt>
      <trkpt lat="45.87108" lon="4.65235">
        <ele>219</ele>
        <time>2017-07-01T09:26:36Z</time>
      </trkpt>
      <trkpt lat="45.87112" lon="4.65229">
        <ele>219</ele>
        <time>2017-07-01T09:26:37Z</time>
      </trkpt>
      <trkpt lat="45.87117" lon="4.65223">
        <ele>220</ele>
        <time>2017-07-01T09:26:38Z</time>
      </trkpt>
      <trkpt lat="45.87121" lon="4.65218">
        <ele>220</ele>
        <time>2017-07-01T09:26:39Z</time>
      </trkpt>
      <trkpt lat="45.87126" lon="4.65213">
        <ele>221</ele>
        <time>2017-07-01T09:26:40Z</time>
      </trkpt>
      <trkpt lat="45.87131" lon="4.65208">
        <ele>221</ele>
        <time>2017-07-01T09:26:41Z</time>
      </trkpt>
      <trkpt lat="45.87136" lon="4.65202">
        <ele>221</ele>
        <time>2017-07-01T09:26:42Z</time>
      </trkpt>
      <trkpt lat="45.8714" lon="4.65197">
        <ele>221</ele>
        <time>2017-07-01T09:26:43Z</time>
      </trkpt>
      <trkpt lat="45.87144" lon="4.65192">
        <ele>221</ele>
        <time>2017-07-01T09:26:44Z</time>
      </trkpt>
      <trkpt lat="45.87149" lon="4.65187">
        <ele>221</ele>
        <time>2017-07-01T09:26:45Z</time>
      </trkpt>
      <trkpt lat="45.87153" lon="4.65183">
        <ele>221</ele>
        <time>2017-07-01T09:26:46Z</time>
      </trkpt>
      <trkpt lat="45.87157" lon="4.65179">
        <ele>220</ele>
        <time>2017-07-01T09:26:47Z</time>
      </trkpt>
      <trkpt lat="45.87161" lon="4.65174">
        <ele>220</ele>
        <time>2017-07-01T09:26:48Z</time>
      </trkpt>
      <trkpt lat="45.87165" lon="4.6517">
        <ele>220</ele>
        <time>2017-07-01T09:26:49Z</time>
      </trkpt>
      <trkpt lat="45.87169" lon="4.65165">
        <ele>220</ele>
        <time>2017-07-01T09:26:50Z</time>
      </trkpt>
      <trkpt lat="45.87174" lon="4.65162">
        <ele>221</ele>
        <time>2017-07-01T09:26:51Z</time>
      </trkpt>
      <trkpt lat="45.87179" lon="4.65157">
        <ele>221</ele>
        <time>2017-07-01T09:26:52Z</time>
      </trkpt>
      <trkpt lat="45.87184" lon="4.65153">
        <ele>222</ele>
        <time>2017-07-01T09:26:53Z</time>
      </trkpt>
      <trkpt lat="45.8719" lon="4.65148">
        <ele>222</ele>
        <time>2017-07-01T09:26:54Z</time>
      </trkpt>
      <trkpt lat="45.87195" lon="4.65143">
        <ele>222</ele>
        <time>2017-07-01T09:26:55Z</time>
      </trkpt>
      <trkpt lat="45.872" lon="4.65137">
        <ele>222</ele>
        <time>2017-07-01T09:26:56Z</time>
      </trkpt>
      <trkpt lat="45.87205" lon="4.65132">
        <ele>222</ele>
        <time>2017-07-01T09:26:57Z</time>
      </trkpt>
      <trkpt lat="45.8721" lon="4.65128">
        <ele>222</ele>
        <time>2017-07-01T09:26:58Z</time>
      </trkpt>
      <trkpt lat="45.87215" lon="4.65124">
        <ele>222</ele>
        <time>2017-07-01T09:26:59Z</time>
      </trkpt>
      <trkpt lat="45.87219" lon="4.65119">
        <ele>222</ele>
        <time>2017-07-01T09:27:00Z</time>
      </trkpt>
      <trkpt lat="45.87224" lon="4.65115">
        <ele>222</ele>
        <time>2017-07-01T09:27:01Z</time>
      </trkpt>
      <trkpt lat="45.8723" lon="4.65111">
        <ele>222</ele>
        <time>2017-07-01T09:27:02Z</time>
      </trkpt>
      <trkpt lat="45.87235" lon="4.65105">
        <ele>221</ele>
        <time>2017-07-01T09:27:03Z</time>
      </trkpt>
      <trkpt lat="45.8724" lon="4.651">
        <ele>221</ele>
        <time>2017-07-01T09:27:04Z</time>
      </trkpt>
      <trkpt lat="45.87245" lon="4.65095">
        <ele>220</ele>
        <time>2017-07-01T09:27:05Z</time>
      </trkpt>
      <trkpt lat="45.87251" lon="4.65089">
        <ele>222</ele>
        <time>2017-07-01T09:27:06Z</time>
      </trkpt>
      <trkpt lat="45.87256" lon="4.65084">
        <ele>222</ele>
        <time>2017-07-01T09:27:07Z</time>
      </trkpt>
      <trkpt lat="45.87261" lon="4.65079">
        <ele>219</ele>
        <time>2017-07-01T09:27:08Z</time>
      </trkpt>
      <trkpt lat="45.87267" lon="4.65074">
        <ele>219</ele>
        <time>2017-07-01T09:27:09Z</time>
      </trkpt>
      <trkpt lat="45.87272" lon="4.65069">
        <ele>220</ele>
        <time>2017-07-01T09:27:10Z</time>
      </trkpt>
      <trkpt lat="45.87276" lon="4.65065">
        <ele>220</ele>
        <time>2017-07-01T09:27:11Z</time>
      </trkpt>
      <trkpt lat="45.87281" lon="4.6506">
        <ele>220</ele>
        <time>2017-07-01T09:27:12Z</time>
      </trkpt>
      <trkpt lat="45.87285" lon="4.65055">
        <ele>220</ele>
        <time>2017-07-01T09:27:13Z</time>
      </trkpt>
      <trkpt lat="45.8729" lon="4.6505">
        <ele>220</ele>
        <time>2017-07-01T09:27:14Z</time>
      </trkpt>
      <trkpt lat="45.87295" lon="4.65044">
        <ele>220</ele>
        <time>2017-07-01T09:27:15Z</time>
      </trkpt>
      <trkpt lat="45.87299" lon="4.65038">
        <ele>220</ele>
        <time>2017-07-01T09:27:16Z</time>
      </trkpt>
      <trkpt lat="45.87303" lon="4.65032">
        <ele>220</ele>
        <time>2017-07-01T09:27:17Z</time>
      </trkpt>
      <trkpt lat="45.87307" lon="4.65025">
        <ele>219</ele>
        <time>2017-07-01T09:27:18Z</time>
      </trkpt>
      <trkpt lat="45.87311" lon="4.65019">
        <ele>219</ele>
        <time>2017-07-01T09:27:19Z</time>
      </trkpt>
      <trkpt lat="45.87315" lon="4.65013">
        <ele>219</ele>
        <time>2017-07-01T09:27:20Z</time>
      </trkpt>
      <trkpt lat="45.87318" lon="4.65007">
        <ele>219</ele>
        <time>2017-07-01T09:27:21Z</time>
      </trkpt>
      <trkpt lat="45.87322" lon="4.65">
        <ele>219</ele>
        <time>2017-07-01T09:27:22Z</time>
      </trkpt>
      <trkpt lat="45.87325" lon="4.64994">
        <ele>216</ele>
        <time>2017-07-01T09:27:23Z</time>
      </trkpt>
      <trkpt lat="45.87328" lon="4.64988">
        <ele>216</ele>
        <time>2017-07-01T09:27:24Z</time>
      </trkpt>
      <trkpt lat="45.87331" lon="4.64982">
        <ele>215</ele>
        <time>2017-07-01T09:27:25Z</time>
      </trkpt>
      <trkpt lat="45.87334" lon="4.64976">
        <ele>219</ele>
        <time>2017-07-01T09:27:26Z</time>
      </trkpt>
      <trkpt lat="45.87337" lon="4.6497">
        <ele>219</ele>
        <time>2017-07-01T09:27:27Z</time>
      </trkpt>
      <trkpt lat="45.8734" lon="4.64963">
        <ele>219</ele>
        <time>2017-07-01T09:27:28Z</time>
      </trkpt>
      <trkpt lat="45.87343" lon="4.64956">
        <ele>218</ele>
        <time>2017-07-01T09:27:29Z</time>
      </trkpt>
      <trkpt lat="45.87346" lon="4.6495">
        <ele>218</ele>
        <time>2017-07-01T09:27:30Z</time>
      </trkpt>
      <trkpt lat="45.87349" lon="4.64944">
        <ele>218</ele>
        <time>2017-07-01T09:27:31Z</time>
      </trkpt>
      <trkpt lat="45.87353" lon="4.64938">
        <ele>217</ele>
        <time>2017-07-01T09:27:32Z</time>
      </trkpt>
      <trkpt lat="45.87357" lon="4.64932">
        <ele>217</ele>
        <time>2017-07-01T09:27:33Z</time>
      </trkpt>
      <trkpt lat="45.8736" lon="4.64927">
        <ele>217</ele>
        <time>2017-07-01T09:27:34Z</time>
      </trkpt>
      <trkpt lat="45.87364" lon="4.64922">
        <ele>218</ele>
        <time>2017-07-01T09:27:35Z</time>
      </trkpt>
      <trkpt lat="45.87368" lon="4.64917">
        <ele>214</ele>
        <time>2017-07-01T09:27:36Z</time>
      </trkpt>
      <trkpt lat="45.87371" lon="4.64912">
        <ele>215</ele>
        <time>2017-07-01T09:27:37Z</time>
      </trkpt>
      <trkpt lat="45.87375" lon="4.64906">
        <ele>215</ele>
        <time>2017-07-01T09:27:38Z</time>
      </trkpt>
      <trkpt lat="45.87378" lon="4.64901">
        <ele>215</ele>
        <time>2017-07-01T09:27:39Z</time>
      </trkpt>
      <trkpt lat="45.87383" lon="4.64896">
        <ele>215</ele>
        <time>2017-07-01T09:27:40Z</time>
      </trkpt>
      <trkpt lat="45.87388" lon="4.64891">
        <ele>216</ele>
        <time>2017-07-01T09:27:41Z</time>
      </trkpt>
      <trkpt lat="45.87392" lon="4.64886">
        <ele>216</ele>
        <time>2017-07-01T09:27:42Z</time>
      </trkpt>
      <trkpt lat="45.87397" lon="4.64882">
        <ele>216</ele>
        <time>2017-07-01T09:27:43Z</time>
      </trkpt>
      <trkpt lat="45.87402" lon="4.64877">
        <ele>216</ele>
        <time>2017-07-01T09:27:44Z</time>
      </trkpt>
      <trkpt lat="45.87406" lon="4.64871">
        <ele>215</ele>
        <time>2017-07-01T09:27:45Z</time>
      </trkpt>
      <trkpt lat="45.87411" lon="4.64866">
        <ele>215</ele>
        <time>2017-07-01T09:27:46Z</time>
      </trkpt>
      <trkpt lat="45.87416" lon="4.6486">
        <ele>215</ele>
        <time>2017-07-01T09:27:47Z</time>
      </trkpt>
      <trkpt lat="45.8742" lon="4.64854">
        <ele>219</ele>
        <time>2017-07-01T09:27:48Z</time>
      </trkpt>
      <trkpt lat="45.87425" lon="4.64848">
        <ele>218</ele>
        <time>2017-07-01T09:27:49Z</time>
      </trkpt>
      <trkpt lat="45.8743" lon="4.64842">
        <ele>218</ele>
        <time>2017-07-01T09:27:50Z</time>
      </trkpt>
      <trkpt lat="45.87435" lon="4.64837">
        <ele>218</ele>
        <time>2017-07-01T09:27:51Z</time>
      </trkpt>
      <trkpt lat="45.87439" lon="4.64831">
        <ele>215</ele>
        <time>2017-07-01T09:27:52Z</time>
      </trkpt>
      <trkpt lat="45.87443" lon="4.64825">
        <ele>215</ele>
        <time>2017-07-01T09:27:53Z</time>
      </trkpt>
      <trkpt lat="45.87446" lon="4.64821">
        <ele>215</ele>
        <time>2017-07-01T09:27:54Z</time>
      </trkpt>
      <trkpt lat="45.8745" lon="4.64816">
        <ele>215</ele>
        <time>2017-07-01T09:27:55Z</time>
      </trkpt>
      <trkpt lat="45.87454" lon="4.64812">
        <ele>215</ele>
        <time>2017-07-01T09:27:56Z</time>
      </trkpt>
      <trkpt lat="45.87458" lon="4.64808">
        <ele>215</ele>
        <time>2017-07-01T09:27:57Z</time>
      </trkpt>
      <trkpt lat="45.87461" lon="4.64804">
        <ele>215</ele>
        <time>2017-07-01T09:27:58Z</time>
      </trkpt>
      <trkpt lat="45.87465" lon="4.64798">
        <ele>215</ele>
        <time>2017-07-01T09:27:59Z</time>
      </trkpt>
      <trkpt lat="45.87469" lon="4.64794">
        <ele>214</ele>
        <time>2017-07-01T09:28:00Z</time>
      </trkpt>
      <trkpt lat="45.87472" lon="4.64788">
        <ele>214</ele>
        <time>2017-07-01T09:28:01Z</time>
      </trkpt>
      <trkpt lat="45.87475" lon="4.64782">
        <ele>214</ele>
        <time>2017-07-01T09:28:02Z</time>
      </trkpt>
      <trkpt lat="45.87478" lon="4.64776">
        <ele>214</ele>
        <time>2017-07-01T09:28:03Z</time>
      </trkpt>
      <trkpt lat="45.87482" lon="4.64771">
        <ele>214</ele>
        <time>2017-07-01T09:28:04Z</time>
      </trkpt>
      <trkpt lat="45.87487" lon="4.64765">
        <ele>214</ele>
        <time>2017-07-01T09:28:05Z</time>
      </trkpt>
      <trkpt lat="45.87491" lon="4.6476">
        <ele>214</ele>
        <time>2017-07-01T09:28:06Z</time>
      </trkpt>
      <trkpt lat="45.87495" lon="4.64755">
        <ele>213</ele>
        <time>2017-07-01T09:28:07Z</time>
      </trkpt>
      <trkpt lat="45.87499" lon="4.64751">
        <ele>213</ele>
        <time>2017-07-01T09:28:08Z</time>
      </trkpt>
      <trkpt lat="45.87503" lon="4.64745">
        <ele>213</ele>
        <time>2017-07-01T09:28:09Z</time>
      </trkpt>
      <trkpt lat="45.87506" lon="4.6474">
        <ele>213</ele>
        <time>2017-07-01T09:28:10Z</time>
      </trkpt>
      <trkpt lat="45.8751" lon="4.64734">
        <ele>213</ele>
        <time>2017-07-01T09:28:11Z</time>
      </trkpt>
      <trkpt lat="45.87514" lon="4.64729">
        <ele>213</ele>
        <time>2017-07-01T09:28:12Z</time>
      </trkpt>
      <trkpt lat="45.87518" lon="4.64725">
        <ele>213</ele>
        <time>2017-07-01T09:28:13Z</time>
      </trkpt>
      <trkpt lat="45.87522" lon="4.6472">
        <ele>212</ele>
        <time>2017-07-01T09:28:14Z</time>
      </trkpt>
      <trkpt lat="45.87526" lon="4.64715">
        <ele>212</ele>
        <time>2017-07-01T09:28:15Z</time>
      </trkpt>
      <trkpt lat="45.8753" lon="4.6471">
        <ele>212</ele>
        <time>2017-07-01T09:28:16Z</time>
      </trkpt>
      <trkpt lat="45.87533" lon="4.64705">
        <ele>212</ele>
        <time>2017-07-01T09:28:17Z</time>
      </trkpt>
      <trkpt lat="45.87537" lon="4.647">
        <ele>212</ele>
        <time>2017-07-01T09:28:18Z</time>
      </trkpt>
      <trkpt lat="45.87542" lon="4.64694">
        <ele>212</ele>
        <time>2017-07-01T09:28:19Z</time>
      </trkpt>
      <trkpt lat="45.87546" lon="4.64689">
        <ele>212</ele>
        <time>2017-07-01T09:28:20Z</time>
      </trkpt>
      <trkpt lat="45.87549" lon="4.64683">
        <ele>212</ele>
        <time>2017-07-01T09:28:21Z</time>
      </trkpt>
      <trkpt lat="45.87553" lon="4.64677">
        <ele>212</ele>
        <time>2017-07-01T09:28:22Z</time>
      </trkpt>
      <trkpt lat="45.87557" lon="4.64671">
        <ele>212</ele>
        <time>2017-07-01T09:28:23Z</time>
      </trkpt>
      <trkpt lat="45.8756" lon="4.64665">
        <ele>212</ele>
        <time>2017-07-01T09:28:24Z</time>
      </trkpt>
      <trkpt lat="45.87563" lon="4.6466">
        <ele>212</ele>
        <time>2017-07-01T09:28:25Z</time>
      </trkpt>
      <trkpt lat="45.87567" lon="4.64655">
        <ele>212</ele>
        <time>2017-07-01T09:28:26Z</time>
      </trkpt>
      <trkpt lat="45.87571" lon="4.6465">
        <ele>212</ele>
        <time>2017-07-01T09:28:27Z</time>
      </trkpt>
      <trkpt lat="45.87575" lon="4.64645">
        <ele>212</ele>
        <time>2017-07-01T09:28:28Z</time>
      </trkpt>
      <trkpt lat="45.87579" lon="4.64639">
        <ele>212</ele>
        <time>2017-07-01T09:28:29Z</time>
      </trkpt>
      <trkpt lat="45.87583" lon="4.64633">
        <ele>212</ele>
        <time>2017-07-01T09:28:30Z</time>
      </trkpt>
      <trkpt lat="45.87587" lon="4.64627">
        <ele>212</ele>
        <time>2017-07-01T09:28:31Z</time>
      </trkpt>
      <trkpt lat="45.8759" lon="4.64622">
        <ele>212</ele>
        <time>2017-07-01T09:28:32Z</time>
      </trkpt>
      <trkpt lat="45.87594" lon="4.64617">
        <ele>212</ele>
        <time>2017-07-01T09:28:33Z</time>
      </trkpt>
      <trkpt lat="45.87597" lon="4.64612">
        <ele>212</ele>
        <time>2017-07-01T09:28:34Z</time>
      </trkpt>
      <trkpt lat="45.87601" lon="4.64608">
        <ele>212</ele>
        <time>2017-07-01T09:28:35Z</time>
      </trkpt>
      <trkpt lat="45.87604" lon="4.64603">
        <ele>212</ele>
        <time>2017-07-01T09:28:36Z</time>
      </trkpt>
      <trkpt lat="45.87608" lon="4.646">
        <ele>212</ele>
        <time>2017-07-01T09:28:37Z</time>
      </trkpt>
      <trkpt lat="45.87611" lon="4.64595">
        <ele>212</ele>
        <time>2017-07-01T09:28:38Z</time>
      </trkpt>
      <trkpt lat="45.87615" lon="4.64591">
        <ele>212</ele>
        <time>2017-07-01T09:28:39Z</time>
      </trkpt>
      <trkpt lat="45.8762" lon="4.64586">
        <ele>212</ele>
        <time>2017-07-01T09:28:40Z</time>
      </trkpt>
      <trkpt lat="45.87624" lon="4.64581">
        <ele>212</ele>
        <time>2017-07-01T09:28:41Z</time>
      </trkpt>
      <trkpt lat="45.87627" lon="4.64576">
        <ele>212</ele>
        <time>2017-07-01T09:28:42Z</time>
      </trkpt>
      <trkpt lat="45.87631" lon="4.6457">
        <ele>212</ele>
        <time>2017-07-01T09:28:43Z</time>
      </trkpt>
      <trkpt lat="45.87634" lon="4.64565">
        <ele>212</ele>
        <time>2017-07-01T09:28:44Z</time>
      </trkpt>
      <trkpt lat="45.87637" lon="4.64561">
        <ele>212</ele>
        <time>2017-07-01T09:28:45Z</time>
      </trkpt>
      <trkpt lat="45.87643" lon="4.64552">
        <ele>212</ele>
        <time>2017-07-01T09:28:47Z</time>
      </trkpt>
      <trkpt lat="45.87647" lon="4.64548">
        <ele>213</ele>
        <time>2017-07-01T09:28:48Z</time>
      </trkpt>
      <trkpt lat="45.87653" lon="4.64539">
        <ele>213</ele>
        <time>2017-07-01T09:28:50Z</time>
      </trkpt>
      <trkpt lat="45.87657" lon="4.64535">
        <ele>213</ele>
        <time>2017-07-01T09:28:51Z</time>
      </trkpt>
      <trkpt lat="45.87661" lon="4.64531">
        <ele>213</ele>
        <time>2017-07-01T09:28:52Z</time>
      </trkpt>
      <trkpt lat="45.87664" lon="4.64526">
        <ele>213</ele>
        <time>2017-07-01T09:28:53Z</time>
      </trkpt>
      <trkpt lat="45.87669" lon="4.64517">
        <ele>215</ele>
        <time>2017-07-01T09:28:55Z</time>
      </trkpt>
      <trkpt lat="45.87673" lon="4.64512">
        <ele>215</ele>
        <time>2017-07-01T09:28:56Z</time>
      </trkpt>
      <trkpt lat="45.87678" lon="4.64504">
        <ele>215</ele>
        <time>2017-07-01T09:28:58Z</time>
      </trkpt>
      <trkpt lat="45.87681" lon="4.64501">
        <ele>215</ele>
        <time>2017-07-01T09:28:59Z</time>
      </trkpt>
      <trkpt lat="45.87687" lon="4.64502">
        <ele>215</ele>
        <time>2017-07-01T09:29:01Z</time>
      </trkpt>
      <trkpt lat="45.8769" lon="4.64505">
        <ele>215</ele>
        <time>2017-07-01T09:29:02Z</time>
      </trkpt>
      <trkpt lat="45.87695" lon="4.64512">
        <ele>215</ele>
        <time>2017-07-01T09:29:04Z</time>
      </trkpt>
      <trkpt lat="45.87697" lon="4.64516">
        <ele>215</ele>
        <time>2017-07-01T09:29:05Z</time>
      </trkpt>
      <trkpt lat="45.87701" lon="4.64524">
        <ele>215</ele>
        <time>2017-07-01T09:29:07Z</time>
      </trkpt>
      <trkpt lat="45.87704" lon="4.64528">
        <ele>216</ele>
        <time>2017-07-01T09:29:08Z</time>
      </trkpt>
      <trkpt lat="45.8771" lon="4.64536">
        <ele>216</ele>
        <time>2017-07-01T09:29:10Z</time>
      </trkpt>
      <trkpt lat="45.87714" lon="4.6454">
        <ele>216</ele>
        <time>2017-07-01T09:29:11Z</time>
      </trkpt>
      <trkpt lat="45.87717" lon="4.64545">
        <ele>216</ele>
        <time>2017-07-01T09:29:12Z</time>
      </trkpt>
      <trkpt lat="45.8772" lon="4.64551">
        <ele>216</ele>
        <time>2017-07-01T09:29:13Z</time>
      </trkpt>
      <trkpt lat="45.87723" lon="4.64558">
        <ele>216</ele>
        <time>2017-07-01T09:29:14Z</time>
      </trkpt>
      <trkpt lat="45.87725" lon="4.64564">
        <ele>217</ele>
        <time>2017-07-01T09:29:15Z</time>
      </trkpt>
      <trkpt lat="45.87725" lon="4.64571">
        <ele>217</ele>
        <time>2017-07-01T09:29:16Z</time>
      </trkpt>
      <trkpt lat="45.87725" lon="4.64578">
        <ele>217</ele>
        <time>2017-07-01T09:29:17Z</time>
      </trkpt>
      <trkpt lat="45.87725" lon="4.64586">
        <ele>218</ele>
        <time>2017-07-01T09:29:18Z</time>
      </trkpt>
      <trkpt lat="45.87725" lon="4.64593">
        <ele>217</ele>
        <time>2017-07-01T09:29:19Z</time>
      </trkpt>
      <trkpt lat="45.87726" lon="4.646">
        <ele>217</ele>
        <time>2017-07-01T09:29:20Z</time>
      </trkpt>
      <trkpt lat="45.87726" lon="4.64608">
        <ele>217</ele>
        <time>2017-07-01T09:29:21Z</time>
      </trkpt>
      <trkpt lat="45.87727" lon="4.64615">
        <ele>217</ele>
        <time>2017-07-01T09:29:22Z</time>
      </trkpt>
      <trkpt lat="45.87727" lon="4.64623">
        <ele>217</ele>
        <time>2017-07-01T09:29:23Z</time>
      </trkpt>
      <trkpt lat="45.87729" lon="4.64631">
        <ele>217</ele>
        <time>2017-07-01T09:29:24Z</time>
      </trkpt>
      <trkpt lat="45.8773" lon="4.64638">
        <ele>217</ele>
        <time>2017-07-01T09:29:25Z</time>
      </trkpt>
      <trkpt lat="45.87732" lon="4.64645">
        <ele>217</ele>
        <time>2017-07-01T09:29:26Z</time>
      </trkpt>
      <trkpt lat="45.87732" lon="4.64651">
        <ele>217</ele>
        <time>2017-07-01T09:29:27Z</time>
      </trkpt>
      <trkpt lat="45.87731" lon="4.64658">
        <ele>217</ele>
        <time>2017-07-01T09:29:28Z</time>
      </trkpt>
      <trkpt lat="45.8773" lon="4.64664">
        <ele>217</ele>
        <time>2017-07-01T09:29:29Z</time>
      </trkpt>
      <trkpt lat="45.87729" lon="4.64672">
        <ele>216</ele>
        <time>2017-07-01T09:29:30Z</time>
      </trkpt>
      <trkpt lat="45.87728" lon="4.64679">
        <ele>216</ele>
        <time>2017-07-01T09:29:31Z</time>
      </trkpt>
      <trkpt lat="45.87727" lon="4.64686">
        <ele>216</ele>
        <time>2017-07-01T09:29:32Z</time>
      </trkpt>
      <trkpt lat="45.87727" lon="4.64694">
        <ele>216</ele>
        <time>2017-07-01T09:29:33Z</time>
      </trkpt>
      <trkpt lat="45.87728" lon="4.64702">
        <ele>215</ele>
        <time>2017-07-01T09:29:34Z</time>
      </trkpt>
      <trkpt lat="45.87728" lon="4.64709">
        <ele>215</ele>
        <time>2017-07-01T09:29:35Z</time>
      </trkpt>
      <trkpt lat="45.87729" lon="4.64717">
        <ele>215</ele>
        <time>2017-07-01T09:29:36Z</time>
      </trkpt>
      <trkpt lat="45.8773" lon="4.64724">
        <ele>215</ele>
        <time>2017-07-01T09:29:37Z</time>
      </trkpt>
      <trkpt lat="45.87731" lon="4.64731">
        <ele>214</ele>
        <time>2017-07-01T09:29:38Z</time>
      </trkpt>
      <trkpt lat="45.87733" lon="4.64738">
        <ele>214</ele>
        <time>2017-07-01T09:29:39Z</time>
      </trkpt>
      <trkpt lat="45.87736" lon="4.64749">
        <ele>214</ele>
        <time>2017-07-01T09:29:41Z</time>
      </trkpt>
      <trkpt lat="45.87737" lon="4.64754">
        <ele>213</ele>
        <time>2017-07-01T09:29:42Z</time>
      </trkpt>
      <trkpt lat="45.87739" lon="4.64765">
        <ele>213</ele>
        <time>2017-07-01T09:29:44Z</time>
      </trkpt>
      <trkpt lat="45.87739" lon="4.64771">
        <ele>213</ele>
        <time>2017-07-01T09:29:45Z</time>
      </trkpt>
      <trkpt lat="45.87743" lon="4.64782">
        <ele>213</ele>
        <time>2017-07-01T09:29:47Z</time>
      </trkpt>
      <trkpt lat="45.87744" lon="4.64787">
        <ele>213</ele>
        <time>2017-07-01T09:29:48Z</time>
      </trkpt>
      <trkpt lat="45.87749" lon="4.64797">
        <ele>214</ele>
        <time>2017-07-01T09:29:50Z</time>
      </trkpt>
      <trkpt lat="45.87752" lon="4.64801">
        <ele>214</ele>
        <time>2017-07-01T09:29:51Z</time>
      </trkpt>
      <trkpt lat="45.87757" lon="4.64811">
        <ele>214</ele>
        <time>2017-07-01T09:29:53Z</time>
      </trkpt>
      <trkpt lat="45.87759" lon="4.64815">
        <ele>214</ele>
        <time>2017-07-01T09:29:54Z</time>
      </trkpt>
      <trkpt lat="45.87763" lon="4.64824">
        <ele>214</ele>
        <time>2017-07-01T09:29:56Z</time>
      </trkpt>
      <trkpt lat="45.87765" lon="4.64828">
        <ele>214</ele>
        <time>2017-07-01T09:29:57Z</time>
      </trkpt>
      <trkpt lat="45.87769" lon="4.64836">
        <ele>216</ele>
        <time>2017-07-01T09:29:59Z</time>
      </trkpt>
      <trkpt lat="45.87771" lon="4.64839">
        <ele>217</ele>
        <time>2017-07-01T09:30:00Z</time>
      </trkpt>
      <trkpt lat="45.87775" lon="4.64846">
        <ele>217</ele>
        <time>2017-07-01T09:30:02Z</time>
      </trkpt>
      <trkpt lat="45.87777" lon="4.6485">
        <ele>217</ele>
        <time>2017-07-01T09:30:03Z</time>
      </trkpt>
      <trkpt lat="45.87781" lon="4.64857">
        <ele>218</ele>
        <time>2017-07-01T09:30:05Z</time>
      </trkpt>
      <trkpt lat="45.87783" lon="4.6486">
        <ele>218</ele>
        <time>2017-07-01T09:30:06Z</time>
      </trkpt>
      <trkpt lat="45.87788" lon="4.6487">
        <ele>218</ele>
        <time>2017-07-01T09:30:09Z</time>
      </trkpt>
      <trkpt lat="45.8779" lon="4.64873">
        <ele>218</ele>
        <time>2017-07-01T09:30:10Z</time>
      </trkpt>
      <trkpt lat="45.87794" lon="4.64882">
        <ele>219</ele>
        <time>2017-07-01T09:30:13Z</time>
      </trkpt>
      <trkpt lat="45.87796" lon="4.64885">
        <ele>219</ele>
        <time>2017-07-01T09:30:14Z</time>
      </trkpt>
      <trkpt lat="45.878" lon="4.64894">
        <ele>219</ele>
        <time>2017-07-01T09:30:17Z</time>
      </trkpt>
      <trkpt lat="45.87802" lon="4.64897">
        <ele>219</ele>
        <time>2017-07-01T09:30:18Z</time>
      </trkpt>
      <trkpt lat="45.87805" lon="4.64906">
        <ele>220</ele>
        <time>2017-07-01T09:30:21Z</time>
      </trkpt>
      <trkpt lat="45.87807" lon="4.64909">
        <ele>220</ele>
        <time>2017-07-01T09:30:22Z</time>
      </trkpt>
      <trkpt lat="45.87811" lon="4.64918">
        <ele>224</ele>
        <time>2017-07-01T09:30:25Z</time>
      </trkpt>
      <trkpt lat="45.87812" lon="4.64921">
        <ele>224</ele>
        <time>2017-07-01T09:30:26Z</time>
      </trkpt>
      <trkpt lat="45.87816" lon="4.64931">
        <ele>224</ele>
        <time>2017-07-01T09:30:29Z</time>
      </trkpt>
      <trkpt lat="45.87817" lon="4.64935">
        <ele>225</ele>
        <time>2017-07-01T09:30:30Z</time>
      </trkpt>
      <trkpt lat="45.87822" lon="4.64944">
        <ele>225</ele>
        <time>2017-07-01T09:30:33Z</time>
      </trkpt>
      <trkpt lat="45.87824" lon="4.64946">
        <ele>225</ele>
        <time>2017-07-01T09:30:34Z</time>
      </trkpt>
      <trkpt lat="45.87831" lon="4.64951">
        <ele>225</ele>
        <time>2017-07-01T09:30:37Z</time>
      </trkpt>
      <trkpt lat="45.87833" lon="4.64953">
        <ele>226</ele>
        <time>2017-07-01T09:30:38Z</time>
      </trkpt>
      <trkpt lat="45.87839" lon="4.64958">
        <ele>228</ele>
        <time>2017-07-01T09:30:42Z</time>
      </trkpt>
      <trkpt lat="45.87841" lon="4.6496">
        <ele>228</ele>
        <time>2017-07-01T09:30:43Z</time>
      </trkpt>
      <trkpt lat="45.87848" lon="4.64966">
        <ele>229</ele>
        <time>2017-07-01T09:30:46Z</time>
      </trkpt>
      <trkpt lat="45.8785" lon="4.64968">
        <ele>229</ele>
        <time>2017-07-01T09:30:47Z</time>
      </trkpt>
      <trkpt lat="45.87855" lon="4.64975">
        <ele>229</ele>
        <time>2017-07-01T09:30:50Z</time>
      </trkpt>
      <trkpt lat="45.87857" lon="4.64977">
        <ele>229</ele>
        <time>2017-07-01T09:30:51Z</time>
      </trkpt>
      <trkpt lat="45.87865" lon="4.64981">
        <ele>230</ele>
        <time>2017-07-01T09:30:55Z</time>
      </trkpt>
      <trkpt lat="45.87867" lon="4.64982">
        <ele>230</ele>
        <time>2017-07-01T09:30:56Z</time>
      </trkpt>
      <trkpt lat="45.87876" lon="4.64986">
        <ele>230</ele>
        <time>2017-07-01T09:31:00Z</time>
      </trkpt>
      <trkpt lat="45.87878" lon="4.64986">
        <ele>230</ele>
        <time>2017-07-01T09:31:01Z</time>
      </trkpt>
      <trkpt lat="45.87886" lon="4.64989">
        <ele>231</ele>
        <time>2017-07-01T09:31:05Z</time>
      </trkpt>
      <trkpt lat="45.87888" lon="4.64989">
        <ele>231</ele>
        <time>2017-07-01T09:31:06Z</time>
      </trkpt>
      <trkpt lat="45.87896" lon="4.64989">
        <ele>232</ele>
        <time>2017-07-01T09:31:10Z</time>
      </trkpt>
      <trkpt lat="45.87898" lon="4.6499">
        <ele>232</ele>
        <time>2017-07-01T09:31:11Z</time>
      </trkpt>
      <trkpt lat="45.87906" lon="4.64991">
        <ele>234</ele>
        <time>2017-07-01T09:31:15Z</time>
      </trkpt>
      <trkpt lat="45.87908" lon="4.64992">
        <ele>234</ele>
        <time>2017-07-01T09:31:16Z</time>
      </trkpt>
      <trkpt lat="45.87915" lon="4.64993">
        <ele>235</ele>
        <time>2017-07-01T09:31:19Z</time>
      </trkpt>
      <trkpt lat="45.87918" lon="4.64994">
        <ele>237</ele>
        <time>2017-07-01T09:31:20Z</time>
      </trkpt>
      <trkpt lat="45.87925" lon="4.64991">
        <ele>237</ele>
        <time>2017-07-01T09:31:24Z</time>
      </trkpt>
      <trkpt lat="45.87927" lon="4.64991">
        <ele>237</ele>
        <time>2017-07-01T09:31:25Z</time>
      </trkpt>
      <trkpt lat="45.87934" lon="4.64988">
        <ele>237</ele>
        <time>2017-07-01T09:31:29Z</time>
      </trkpt>
      <trkpt lat="45.87936" lon="4.64988">
        <ele>237</ele>
        <time>2017-07-01T09:31:30Z</time>
      </trkpt>
      <trkpt lat="45.87944" lon="4.64983">
        <ele>238</ele>
        <time>2017-07-01T09:31:34Z</time>
      </trkpt>
      <trkpt lat="45.87946" lon="4.64982">
        <ele>238</ele>
        <time>2017-07-01T09:31:35Z</time>
      </trkpt>
      <trkpt lat="45.87954" lon="4.64978">
        <ele>238</ele>
        <time>2017-07-01T09:31:39Z</time>
      </trkpt>
      <trkpt lat="45.87956" lon="4.64977">
        <ele>238</ele>
        <time>2017-07-01T09:31:40Z</time>
      </trkpt>
      <trkpt lat="45.87963" lon="4.64972">
        <ele>238</ele>
        <time>2017-07-01T09:31:44Z</time>
      </trkpt>
      <trkpt lat="45.87965" lon="4.64971">
        <ele>238</ele>
        <time>2017-07-01T09:31:45Z</time>
      </trkpt>
      <trkpt lat="45.87972" lon="4.64964">
        <ele>238</ele>
        <time>2017-07-01T09:31:49Z</time>
      </trkpt>
      <trkpt lat="45.87974" lon="4.64962">
        <ele>238</ele>
        <time>2017-07-01T09:31:50Z</time>
      </trkpt>
      <trkpt lat="45.87981" lon="4.64957">
        <ele>238</ele>
        <time>2017-07-01T09:31:54Z</time>
      </trkpt>
      <trkpt lat="45.87983" lon="4.64957">
        <ele>238</ele>
        <time>2017-07-01T09:31:55Z</time>
      </trkpt>
      <trkpt lat="45.87989" lon="4.64952">
        <ele>238</ele>
        <time>2017-07-01T09:31:58Z</time>
      </trkpt>
      <trkpt lat="45.87991" lon="4.6495">
        <ele>238</ele>
        <time>2017-07-01T09:31:59Z</time>
      </trkpt>
      <trkpt lat="45.87998" lon="4.64942">
        <ele>237</ele>
        <time>2017-07-01T09:32:03Z</time>
      </trkpt>
      <trkpt lat="45.88" lon="4.64941">
        <ele>237</ele>
        <time>2017-07-01T09:32:04Z</time>
      </trkpt>
      <trkpt lat="45.88007" lon="4.64934">
        <ele>244</ele>
        <time>2017-07-01T09:32:08Z</time>
      </trkpt>
      <trkpt lat="45.88009" lon="4.64932">
        <ele>243</ele>
        <time>2017-07-01T09:32:09Z</time>
      </trkpt>
      <trkpt lat="45.88016" lon="4.64927">
        <ele>244</ele>
        <time>2017-07-01T09:32:13Z</time>
      </trkpt>
      <trkpt lat="45.88019" lon="4.64925">
        <ele>244</ele>
        <time>2017-07-01T09:32:14Z</time>
      </trkpt>
      <trkpt lat="45.88025" lon="4.64918">
        <ele>246</ele>
        <time>2017-07-01T09:32:17Z</time>
      </trkpt>
      <trkpt lat="45.88027" lon="4.64916">
        <ele>238</ele>
        <time>2017-07-01T09:32:18Z</time>
      </trkpt>
      <trkpt lat="45.88034" lon="4.6491">
        <ele>239</ele>
        <time>2017-07-01T09:32:22Z</time>
      </trkpt>
      <trkpt lat="45.88036" lon="4.64908">
        <ele>239</ele>
        <time>2017-07-01T09:32:23Z</time>
      </trkpt>
      <trkpt lat="45.88042" lon="4.64902">
        <ele>240</ele>
        <time>2017-07-01T09:32:27Z</time>
      </trkpt>
      <trkpt lat="45.88044" lon="4.64901">
        <ele>240</ele>
        <time>2017-07-01T09:32:28Z</time>
      </trkpt>
      <trkpt lat="45.8805" lon="4.64893">
        <ele>240</ele>
        <time>2017-07-01T09:32:33Z</time>
      </trkpt>
      <trkpt lat="45.88052" lon="4.64891">
        <ele>240</ele>
        <time>2017-07-01T09:32:34Z</time>
      </trkpt>
      <trkpt lat="45.88059" lon="4.64884">
        <ele>240</ele>
        <time>2017-07-01T09:32:38Z</time>
      </trkpt>
      <trkpt lat="45.88061" lon="4.64883">
        <ele>240</ele>
        <time>2017-07-01T09:32:39Z</time>
      </trkpt>
      <trkpt lat="45.88068" lon="4.64877">
        <ele>240</ele>
        <time>2017-07-01T09:32:43Z</time>
      </trkpt>
      <trkpt lat="45.8807" lon="4.64876">
        <ele>240</ele>
        <time>2017-07-01T09:32:44Z</time>
      </trkpt>
      <trkpt lat="45.88077" lon="4.64872">
        <ele>240</ele>
        <time>2017-07-01T09:32:48Z</time>
      </trkpt>
      <trkpt lat="45.88079" lon="4.64872">
        <ele>240</ele>
        <time>2017-07-01T09:32:49Z</time>
      </trkpt>
      <trkpt lat="45.88087" lon="4.64868">
        <ele>247</ele>
        <time>2017-07-01T09:32:54Z</time>
      </trkpt>
      <trkpt lat="45.88089" lon="4.64868">
        <ele>247</ele>
        <time>2017-07-01T09:32:55Z</time>
      </trkpt>
      <trkpt lat="45.88096" lon="4.64863">
        <ele>246</ele>
        <time>2017-07-01T09:32:59Z</time>
      </trkpt>
      <trkpt lat="45.88098" lon="4.64862">
        <ele>246</ele>
        <time>2017-07-01T09:33:00Z</time>
      </trkpt>
      <trkpt lat="45.88106" lon="4.64859">
        <ele>246</ele>
        <time>2017-07-01T09:33:04Z</time>
      </trkpt>
      <trkpt lat="45.88108" lon="4.64858">
        <ele>246</ele>
        <time>2017-07-01T09:33:05Z</time>
      </trkpt>
      <trkpt lat="45.88117" lon="4.64857">
        <ele>247</ele>
        <time>2017-07-01T09:33:10Z</time>
      </trkpt>
      <trkpt lat="45.88119" lon="4.64856">
        <ele>247</ele>
        <time>2017-07-01T09:33:11Z</time>
      </trkpt>
      <trkpt lat="45.88126" lon="4.64854">
        <ele>247</ele>
        <time>2017-07-01T09:33:15Z</time>
      </trkpt>
      <trkpt lat="45.88128" lon="4.64854">
        <ele>248</ele>
        <time>2017-07-01T09:33:16Z</time>
      </trkpt>
      <trkpt lat="45.88136" lon="4.64854">
        <ele>248</ele>
        <time>2017-07-01T09:33:20Z</time>
      </trkpt>
      <trkpt lat="45.88138" lon="4.64854">
        <ele>248</ele>
        <time>2017-07-01T09:33:21Z</time>
      </trkpt>
      <trkpt lat="45.88146" lon="4.64853">
        <ele>248</ele>
        <time>2017-07-01T09:33:25Z</time>
      </trkpt>
      <trkpt lat="45.88148" lon="4.64852">
        <ele>248</ele>
        <time>2017-07-01T09:33:26Z</time>
      </trkpt>
      <trkpt lat="45.88157" lon="4.64851">
        <ele>248</ele>
        <time>2017-07-01T09:33:30Z</time>
      </trkpt>
      <trkpt lat="45.88159" lon="4.6485">
        <ele>248</ele>
        <time>2017-07-01T09:33:31Z</time>
      </trkpt>
      <trkpt lat="45.88167" lon="4.64849">
        <ele>251</ele>
        <time>2017-07-01T09:33:35Z</time>
      </trkpt>
      <trkpt lat="45.88169" lon="4.64848">
        <ele>251</ele>
        <time>2017-07-01T09:33:36Z</time>
      </trkpt>
      <trkpt lat="45.88178" lon="4.64844">
        <ele>251</ele>
        <time>2017-07-01T09:33:40Z</time>
      </trkpt>
      <trkpt lat="45.8818" lon="4.64843">
        <ele>251</ele>
        <time>2017-07-01T09:33:41Z</time>
      </trkpt>
      <trkpt lat="45.88187" lon="4.6484">
        <ele>253</ele>
        <time>2017-07-01T09:33:45Z</time>
      </trkpt>
      <trkpt lat="45.88189" lon="4.6484">
        <ele>253</ele>
        <time>2017-07-01T09:33:46Z</time>
      </trkpt>
      <trkpt lat="45.88196" lon="4.6484">
        <ele>254</ele>
        <time>2017-07-01T09:33:50Z</time>
      </trkpt>
      <trkpt lat="45.88198" lon="4.64841">
        <ele>254</ele>
        <time>2017-07-01T09:33:51Z</time>
      </trkpt>
      <trkpt lat="45.88205" lon="4.6484">
        <ele>255</ele>
        <time>2017-07-01T09:33:55Z</time>
      </trkpt>
      <trkpt lat="45.88207" lon="4.6484">
        <ele>256</ele>
        <time>2017-07-01T09:33:56Z</time>
      </trkpt>
      <trkpt lat="45.88215" lon="4.64837">
        <ele>256</ele>
        <time>2017-07-01T09:34:00Z</time>
      </trkpt>
      <trkpt lat="45.88217" lon="4.64837">
        <ele>256</ele>
        <time>2017-07-01T09:34:01Z</time>
      </trkpt>
      <trkpt lat="45.88224" lon="4.64834">
        <ele>257</ele>
        <time>2017-07-01T09:34:05Z</time>
      </trkpt>
      <trkpt lat="45.88226" lon="4.64833">
        <ele>249</ele>
        <time>2017-07-01T09:34:06Z</time>
      </trkpt>
      <trkpt lat="45.88234" lon="4.64832">
        <ele>251</ele>
        <time>2017-07-01T09:34:10Z</time>
      </trkpt>
      <trkpt lat="45.88236" lon="4.64832">
        <ele>251</ele>
        <time>2017-07-01T09:34:11Z</time>
      </trkpt>
      <trkpt lat="45.88244" lon="4.64829">
        <ele>253</ele>
        <time>2017-07-01T09:34:17Z</time>
      </trkpt>
      <trkpt lat="45.88245" lon="4.64828">
        <ele>254</ele>
        <time>2017-07-01T09:34:18Z</time>
      </trkpt>
      <trkpt lat="45.88253" lon="4.64827">
        <ele>257</ele>
        <time>2017-07-01T09:34:24Z</time>
      </trkpt>
      <trkpt lat="45.88254" lon="4.64827">
        <ele>257</ele>
        <time>2017-07-01T09:34:25Z</time>
      </trkpt>
      <trkpt lat="45.88261" lon="4.64824">
        <ele>257</ele>
        <time>2017-07-01T09:34:29Z</time>
      </trkpt>
      <trkpt lat="45.88263" lon="4.64823">
        <ele>257</ele>
        <time>2017-07-01T09:34:30Z</time>
      </trkpt>
      <trkpt lat="45.88271" lon="4.64823">
        <ele>258</ele>
        <time>2017-07-01T09:34:35Z</time>
      </trkpt>
      <trkpt lat="45.88273" lon="4.64822">
        <ele>258</ele>
        <time>2017-07-01T09:34:36Z</time>
      </trkpt>
      <trkpt lat="45.8828" lon="4.6482">
        <ele>258</ele>
        <time>2017-07-01T09:34:41Z</time>
      </trkpt>
      <trkpt lat="45.88281" lon="4.64819">
        <ele>258</ele>
        <time>2017-07-01T09:34:42Z</time>
      </trkpt>
      <trkpt lat="45.88288" lon="4.64818">
        <ele>259</ele>
        <time>2017-07-01T09:34:47Z</time>
      </trkpt>
      <trkpt lat="45.8829" lon="4.64817">
        <ele>259</ele>
        <time>2017-07-01T09:34:48Z</time>
      </trkpt>
      <trkpt lat="45.88299" lon="4.64817">
        <ele>260</ele>
        <time>2017-07-01T09:34:53Z</time>
      </trkpt>
      <trkpt lat="45.883" lon="4.64816">
        <ele>260</ele>
        <time>2017-07-01T09:34:54Z</time>
      </trkpt>
      <trkpt lat="45.88309" lon="4.64815">
        <ele>262</ele>
        <time>2017-07-01T09:34:59Z</time>
      </trkpt>
      <trkpt lat="45.8831" lon="4.64816">
        <ele>262</ele>
        <time>2017-07-01T09:35:00Z</time>
      </trkpt>
      <trkpt lat="45.88319" lon="4.64811">
        <ele>263</ele>
        <time>2017-07-01T09:35:05Z</time>
      </trkpt>
      <trkpt lat="45.88321" lon="4.6481">
        <ele>263</ele>
        <time>2017-07-01T09:35:06Z</time>
      </trkpt>
      <trkpt lat="45.88329" lon="4.64813">
        <ele>264</ele>
        <time>2017-07-01T09:35:11Z</time>
      </trkpt>
      <trkpt lat="45.88331" lon="4.64813">
        <ele>264</ele>
        <time>2017-07-01T09:35:12Z</time>
      </trkpt>
      <trkpt lat="45.88338" lon="4.64807">
        <ele>269</ele>
        <time>2017-07-01T09:35:17Z</time>
      </trkpt>
      <trkpt lat="45.88339" lon="4.64806">
        <ele>268</ele>
        <time>2017-07-01T09:35:18Z</time>
      </trkpt>
      <trkpt lat="45.88348" lon="4.64806">
        <ele>268</ele>
        <time>2017-07-01T09:35:23Z</time>
      </trkpt>
      <trkpt lat="45.88349" lon="4.64805">
        <ele>268</ele>
        <time>2017-07-01T09:35:24Z</time>
      </trkpt>
      <trkpt lat="45.88355" lon="4.64801">
        <ele>268</ele>
        <time>2017-07-01T09:35:27Z</time>
      </trkpt>
      <trkpt lat="45.88357" lon="4.64799">
        <ele>268</ele>
        <time>2017-07-01T09:35:28Z</time>
      </trkpt>
      <trkpt lat="45.88365" lon="4.64799">
        <ele>268</ele>
        <time>2017-07-01T09:35:33Z</time>
      </trkpt>
      <trkpt lat="45.88367" lon="4.64798">
        <ele>268</ele>
        <time>2017-07-01T09:35:34Z</time>
      </trkpt>
      <trkpt lat="45.88375" lon="4.64796">
        <ele>268</ele>
        <time>2017-07-01T09:35:38Z</time>
      </trkpt>
      <trkpt lat="45.88377" lon="4.64796">
        <ele>268</ele>
        <time>2017-07-01T09:35:39Z</time>
      </trkpt>
      <trkpt lat="45.88385" lon="4.64794">
        <ele>268</ele>
        <time>2017-07-01T09:35:44Z</time>
      </trkpt>
      <trkpt lat="45.88387" lon="4.64794">
        <ele>268</ele>
        <time>2017-07-01T09:35:45Z</time>
      </trkpt>
      <trkpt lat="45.88394" lon="4.64793">
        <ele>268</ele>
        <time>2017-07-01T09:35:50Z</time>
      </trkpt>
      <trkpt lat="45.88396" lon="4.64793">
        <ele>268</ele>
        <time>2017-07-01T09:35:51Z</time>
      </trkpt>
      <trkpt lat="45.88402" lon="4.64792">
        <ele>268</ele>
        <time>2017-07-01T09:35:54Z</time>
      </trkpt>
      <trkpt lat="45.88406" lon="4.64791">
        <ele>268</ele>
        <time>2017-07-01T09:35:55Z</time>
      </trkpt>
      <trkpt lat="45.88414" lon="4.6479">
        <ele>268</ele>
        <time>2017-07-01T09:35:58Z</time>
      </trkpt>
      <trkpt lat="45.88416" lon="4.64789">
        <ele>268</ele>
        <time>2017-07-01T09:35:59Z</time>
      </trkpt>
      <trkpt lat="45.88425" lon="4.64787">
        <ele>271</ele>
        <time>2017-07-01T09:36:03Z</time>
      </trkpt>
      <trkpt lat="45.88426" lon="4.64786">
        <ele>271</ele>
        <time>2017-07-01T09:36:04Z</time>
      </trkpt>
      <trkpt lat="45.88434" lon="4.64783">
        <ele>271</ele>
        <time>2017-07-01T09:36:08Z</time>
      </trkpt>
      <trkpt lat="45.88435" lon="4.64783">
        <ele>271</ele>
        <time>2017-07-01T09:36:09Z</time>
      </trkpt>
      <trkpt lat="45.88443" lon="4.64784">
        <ele>271</ele>
        <time>2017-07-01T09:36:13Z</time>
      </trkpt>
      <trkpt lat="45.88445" lon="4.64784">
        <ele>271</ele>
        <time>2017-07-01T09:36:14Z</time>
      </trkpt>
      <trkpt lat="45.88453" lon="4.64783">
        <ele>271</ele>
        <time>2017-07-01T09:36:18Z</time>
      </trkpt>
      <trkpt lat="45.88455" lon="4.64782">
        <ele>271</ele>
        <time>2017-07-01T09:36:19Z</time>
      </trkpt>
      <trkpt lat="45.88462" lon="4.64782">
        <ele>272</ele>
        <time>2017-07-01T09:36:23Z</time>
      </trkpt>
      <trkpt lat="45.88464" lon="4.64783">
        <ele>272</ele>
        <time>2017-07-01T09:36:24Z</time>
      </trkpt>
      <trkpt lat="45.88473" lon="4.64784">
        <ele>272</ele>
        <time>2017-07-01T09:36:28Z</time>
      </trkpt>
      <trkpt lat="45.88474" lon="4.64783">
        <ele>272</ele>
        <time>2017-07-01T09:36:29Z</time>
      </trkpt>
      <trkpt lat="45.88483" lon="4.64779">
        <ele>271</ele>
        <time>2017-07-01T09:36:33Z</time>
      </trkpt>
      <trkpt lat="45.88485" lon="4.64779">
        <ele>271</ele>
        <time>2017-07-01T09:36:34Z</time>
      </trkpt>
      <trkpt lat="45.88493" lon="4.64779">
        <ele>271</ele>
        <time>2017-07-01T09:36:38Z</time>
      </trkpt>
      <trkpt lat="45.88495" lon="4.64779">
        <ele>271</ele>
        <time>2017-07-01T09:36:39Z</time>
      </trkpt>
      <trkpt lat="45.88503" lon="4.64777">
        <ele>271</ele>
        <time>2017-07-01T09:36:43Z</time>
      </trkpt>
      <trkpt lat="45.88506" lon="4.64776">
        <ele>271</ele>
        <time>2017-07-01T09:36:44Z</time>
      </trkpt>
      <trkpt lat="45.88514" lon="4.64774">
        <ele>271</ele>
        <time>2017-07-01T09:36:48Z</time>
      </trkpt>
      <trkpt lat="45.88516" lon="4.64774">
        <ele>271</ele>
        <time>2017-07-01T09:36:49Z</time>
      </trkpt>
      <trkpt lat="45.88523" lon="4.64775">
        <ele>271</ele>
        <time>2017-07-01T09:36:53Z</time>
      </trkpt>
      <trkpt lat="45.88525" lon="4.64776">
        <ele>271</ele>
        <time>2017-07-01T09:36:54Z</time>
      </trkpt>
      <trkpt lat="45.88532" lon="4.64782">
        <ele>271</ele>
        <time>2017-07-01T09:36:58Z</time>
      </trkpt>
      <trkpt lat="45.88534" lon="4.64784">
        <ele>271</ele>
        <time>2017-07-01T09:36:59Z</time>
      </trkpt>
      <trkpt lat="45.88541" lon="4.64788">
        <ele>272</ele>
        <time>2017-07-01T09:37:03Z</time>
      </trkpt>
      <trkpt lat="45.88543" lon="4.6479">
        <ele>272</ele>
        <time>2017-07-01T09:37:04Z</time>
      </trkpt>
      <trkpt lat="45.88546" lon="4.64799">
        <ele>272</ele>
        <time>2017-07-01T09:37:08Z</time>
      </trkpt>
      <trkpt lat="45.88546" lon="4.64802">
        <ele>272</ele>
        <time>2017-07-01T09:37:09Z</time>
      </trkpt>
      <trkpt lat="45.88551" lon="4.64812">
        <ele>272</ele>
        <time>2017-07-01T09:37:13Z</time>
      </trkpt>
      <trkpt lat="45.88551" lon="4.64815">
        <ele>273</ele>
        <time>2017-07-01T09:37:14Z</time>
      </trkpt>
      <trkpt lat="45.88551" lon="4.64827">
        <ele>273</ele>
        <time>2017-07-01T09:37:18Z</time>
      </trkpt>
      <trkpt lat="45.88551" lon="4.6483">
        <ele>273</ele>
        <time>2017-07-01T09:37:19Z</time>
      </trkpt>
      <trkpt lat="45.8855" lon="4.64842">
        <ele>276</ele>
        <time>2017-07-01T09:37:23Z</time>
      </trkpt>
      <trkpt lat="45.8855" lon="4.64845">
        <ele>276</ele>
        <time>2017-07-01T09:37:24Z</time>
      </trkpt>
      <trkpt lat="45.88549" lon="4.64856">
        <ele>277</ele>
        <time>2017-07-01T09:37:28Z</time>
      </trkpt>
      <trkpt lat="45.88548" lon="4.6486">
        <ele>277</ele>
        <time>2017-07-01T09:37:29Z</time>
      </trkpt>
      <trkpt lat="45.88547" lon="4.6487">
        <ele>277</ele>
        <time>2017-07-01T09:37:32Z</time>
      </trkpt>
      <trkpt lat="45.88546" lon="4.64873">
        <ele>277</ele>
        <time>2017-07-01T09:37:33Z</time>
      </trkpt>
      <trkpt lat="45.88543" lon="4.64883">
        <ele>277</ele>
        <time>2017-07-01T09:37:37Z</time>
      </trkpt>
      <trkpt lat="45.88542" lon="4.64886">
        <ele>277</ele>
        <time>2017-07-01T09:37:38Z</time>
      </trkpt>
      <trkpt lat="45.8854" lon="4.64897">
        <ele>278</ele>
        <time>2017-07-01T09:37:42Z</time>
      </trkpt>
      <trkpt lat="45.8854" lon="4.64899">
        <ele>278</ele>
        <time>2017-07-01T09:37:43Z</time>
      </trkpt>
      <trkpt lat="45.88537" lon="4.64911">
        <ele>278</ele>
        <time>2017-07-01T09:37:48Z</time>
      </trkpt>
      <trkpt lat="45.88536" lon="4.64914">
        <ele>278</ele>
        <time>2017-07-01T09:37:49Z</time>
      </trkpt>
      <trkpt lat="45.88535" lon="4.64925">
        <ele>280</ele>
        <time>2017-07-01T09:37:53Z</time>
      </trkpt>
      <trkpt lat="45.88534" lon="4.64928">
        <ele>281</ele>
        <time>2017-07-01T09:37:54Z</time>
      </trkpt>
      <trkpt lat="45.88532" lon="4.6494">
        <ele>281</ele>
        <time>2017-07-01T09:37:59Z</time>
      </trkpt>
      <trkpt lat="45.88531" lon="4.64943">
        <ele>281</ele>
        <time>2017-07-01T09:38:00Z</time>
      </trkpt>
      <trkpt lat="45.88529" lon="4.64953">
        <ele>281</ele>
        <time>2017-07-01T09:38:04Z</time>
      </trkpt>
      <trkpt lat="45.8853" lon="4.64955">
        <ele>281</ele>
        <time>2017-07-01T09:38:05Z</time>
      </trkpt>
      <trkpt lat="45.88529" lon="4.64967">
        <ele>282</ele>
        <time>2017-07-01T09:38:09Z</time>
      </trkpt>
      <trkpt lat="45.88528" lon="4.64969">
        <ele>282</ele>
        <time>2017-07-01T09:38:10Z</time>
      </trkpt>
      <trkpt lat="45.88525" lon="4.64981">
        <ele>283</ele>
        <time>2017-07-01T09:38:15Z</time>
      </trkpt>
      <trkpt lat="45.88525" lon="4.64983">
        <ele>283</ele>
        <time>2017-07-01T09:38:16Z</time>
      </trkpt>
      <trkpt lat="45.88523" lon="4.64994">
        <ele>284</ele>
        <time>2017-07-01T09:38:20Z</time>
      </trkpt>
      <trkpt lat="45.88522" lon="4.64997">
        <ele>284</ele>
        <time>2017-07-01T09:38:21Z</time>
      </trkpt>
      <trkpt lat="45.8852" lon="4.65007">
        <ele>286</ele>
        <time>2017-07-01T09:38:25Z</time>
      </trkpt>
      <trkpt lat="45.8852" lon="4.6501">
        <ele>286</ele>
        <time>2017-07-01T09:38:26Z</time>
      </trkpt>
      <trkpt lat="45.88518" lon="4.6502">
        <ele>285</ele>
        <time>2017-07-01T09:38:30Z</time>
      </trkpt>
      <trkpt lat="45.88518" lon="4.65023">
        <ele>285</ele>
        <time>2017-07-01T09:38:31Z</time>
      </trkpt>
      <trkpt lat="45.88514" lon="4.65032">
        <ele>285</ele>
        <time>2017-07-01T09:38:34Z</time>
      </trkpt>
      <trkpt lat="45.88514" lon="4.65035">
        <ele>285</ele>
        <time>2017-07-01T09:38:35Z</time>
      </trkpt>
      <trkpt lat="45.88511" lon="4.65046">
        <ele>286</ele>
        <time>2017-07-01T09:38:39Z</time>
      </trkpt>
      <trkpt lat="45.88511" lon="4.65049">
        <ele>286</ele>
        <time>2017-07-01T09:38:40Z</time>
      </trkpt>
      <trkpt lat="45.88507" lon="4.6506">
        <ele>286</ele>
        <time>2017-07-01T09:38:44Z</time>
      </trkpt>
      <trkpt lat="45.88507" lon="4.65064">
        <ele>287</ele>
        <time>2017-07-01T09:38:45Z</time>
      </trkpt>
      <trkpt lat="45.88503" lon="4.65072">
        <ele>288</ele>
        <time>2017-07-01T09:38:48Z</time>
      </trkpt>
      <trkpt lat="45.88502" lon="4.65075">
        <ele>288</ele>
        <time>2017-07-01T09:38:49Z</time>
      </trkpt>
      <trkpt lat="45.88497" lon="4.65083">
        <ele>290</ele>
        <time>2017-07-01T09:38:52Z</time>
      </trkpt>
      <trkpt lat="45.88496" lon="4.65086">
        <ele>291</ele>
        <time>2017-07-01T09:38:53Z</time>
      </trkpt>
      <trkpt lat="45.88491" lon="4.65095">
        <ele>292</ele>
        <time>2017-07-01T09:38:57Z</time>
      </trkpt>
      <trkpt lat="45.8849" lon="4.65098">
        <ele>292</ele>
        <time>2017-07-01T09:38:58Z</time>
      </trkpt>
      <trkpt lat="45.88486" lon="4.65106">
        <ele>293</ele>
        <time>2017-07-01T09:39:01Z</time>
      </trkpt>
      <trkpt lat="45.88484" lon="4.65109">
        <ele>293</ele>
        <time>2017-07-01T09:39:02Z</time>
      </trkpt>
      <trkpt lat="45.88478" lon="4.65117">
        <ele>293</ele>
        <time>2017-07-01T09:39:06Z</time>
      </trkpt>
      <trkpt lat="45.88477" lon="4.65119">
        <ele>293</ele>
        <time>2017-07-01T09:39:07Z</time>
      </trkpt>
      <trkpt lat="45.88471" lon="4.65129">
        <ele>294</ele>
        <time>2017-07-01T09:39:11Z</time>
      </trkpt>
      <trkpt lat="45.88469" lon="4.65131">
        <ele>294</ele>
        <time>2017-07-01T09:39:12Z</time>
      </trkpt>
      <trkpt lat="45.88463" lon="4.65138">
        <ele>294</ele>
        <time>2017-07-01T09:39:16Z</time>
      </trkpt>
      <trkpt lat="45.88461" lon="4.6514">
        <ele>294</ele>
        <time>2017-07-01T09:39:17Z</time>
      </trkpt>
      <trkpt lat="45.88455" lon="4.65146">
        <ele>295</ele>
        <time>2017-07-01T09:39:20Z</time>
      </trkpt>
      <trkpt lat="45.88453" lon="4.65148">
        <ele>295</ele>
        <time>2017-07-01T09:39:21Z</time>
      </trkpt>
      <trkpt lat="45.88448" lon="4.65154">
        <ele>295</ele>
        <time>2017-07-01T09:39:24Z</time>
      </trkpt>
      <trkpt lat="45.88446" lon="4.65156">
        <ele>295</ele>
        <time>2017-07-01T09:39:25Z</time>
      </trkpt>
      <trkpt lat="45.8844" lon="4.65162">
        <ele>296</ele>
        <time>2017-07-01T09:39:28Z</time>
      </trkpt>
      <trkpt lat="45.88438" lon="4.65165">
        <ele>296</ele>
        <time>2017-07-01T09:39:29Z</time>
      </trkpt>
      <trkpt lat="45.88432" lon="4.6517">
        <ele>298</ele>
        <time>2017-07-01T09:39:32Z</time>
      </trkpt>
      <trkpt lat="45.88429" lon="4.65172">
        <ele>298</ele>
        <time>2017-07-01T09:39:33Z</time>
      </trkpt>
      <trkpt lat="45.88423" lon="4.65178">
        <ele>298</ele>
        <time>2017-07-01T09:39:36Z</time>
      </trkpt>
      <trkpt lat="45.88421" lon="4.6518">
        <ele>298</ele>
        <time>2017-07-01T09:39:37Z</time>
      </trkpt>
      <trkpt lat="45.88416" lon="4.65189">
        <ele>299</ele>
        <time>2017-07-01T09:39:41Z</time>
      </trkpt>
      <trkpt lat="45.88414" lon="4.65191">
        <ele>299</ele>
        <time>2017-07-01T09:39:42Z</time>
      </trkpt>
      <trkpt lat="45.88407" lon="4.65197">
        <ele>299</ele>
        <time>2017-07-01T09:39:46Z</time>
      </trkpt>
      <trkpt lat="45.88405" lon="4.65198">
        <ele>299</ele>
        <time>2017-07-01T09:39:47Z</time>
      </trkpt>
      <trkpt lat="45.884" lon="4.65204">
        <ele>300</ele>
        <time>2017-07-01T09:39:50Z</time>
      </trkpt>
      <trkpt lat="45.88398" lon="4.65206">
        <ele>300</ele>
        <time>2017-07-01T09:39:51Z</time>
      </trkpt>
      <trkpt lat="45.88393" lon="4.65212">
        <ele>300</ele>
        <time>2017-07-01T09:39:54Z</time>
      </trkpt>
      <trkpt lat="45.88391" lon="4.65215">
        <ele>300</ele>
        <time>2017-07-01T09:39:55Z</time>
      </trkpt>
      <trkpt lat="45.88385" lon="4.65221">
        <ele>300</ele>
        <time>2017-07-01T09:39:58Z</time>
      </trkpt>
      <trkpt lat="45.88383" lon="4.65223">
        <ele>300</ele>
        <time>2017-07-01T09:39:59Z</time>
      </trkpt>
      <trkpt lat="45.88377" lon="4.65231">
        <ele>300</ele>
        <time>2017-07-01T09:40:03Z</time>
      </trkpt>
      <trkpt lat="45.88376" lon="4.65234">
        <ele>300</ele>
        <time>2017-07-01T09:40:04Z</time>
      </trkpt>
      <trkpt lat="45.8837" lon="4.65241">
        <ele>300</ele>
        <time>2017-07-01T09:40:08Z</time>
      </trkpt>
      <trkpt lat="45.88368" lon="4.65243">
        <ele>300</ele>
        <time>2017-07-01T09:40:09Z</time>
      </trkpt>
      <trkpt lat="45.88361" lon="4.65247">
        <ele>300</ele>
        <time>2017-07-01T09:40:12Z</time>
      </trkpt>
      <trkpt lat="45.88359" lon="4.6525">
        <ele>300</ele>
        <time>2017-07-01T09:40:13Z</time>
      </trkpt>
      <trkpt lat="45.88353" lon="4.65256">
        <ele>301</ele>
        <time>2017-07-01T09:40:16Z</time>
      </trkpt>
      <trkpt lat="45.88351" lon="4.65259">
        <ele>301</ele>
        <time>2017-07-01T09:40:17Z</time>
      </trkpt>
      <trkpt lat="45.88346" lon="4.65267">
        <ele>301</ele>
        <time>2017-07-01T09:40:21Z</time>
      </trkpt>
      <trkpt lat="45.88344" lon="4.65268">
        <ele>301</ele>
        <time>2017-07-01T09:40:22Z</time>
      </trkpt>
      <trkpt lat="45.88338" lon="4.65273">
        <ele>302</ele>
        <time>2017-07-01T09:40:25Z</time>
      </trkpt>
      <trkpt lat="45.88336" lon="4.65275">
        <ele>302</ele>
        <time>2017-07-01T09:40:26Z</time>
      </trkpt>
      <trkpt lat="45.8833" lon="4.65283">
        <ele>304</ele>
        <time>2017-07-01T09:40:30Z</time>
      </trkpt>
      <trkpt lat="45.88329" lon="4.65285">
        <ele>304</ele>
        <time>2017-07-01T09:40:31Z</time>
      </trkpt>
      <trkpt lat="45.88324" lon="4.65293">
        <ele>304</ele>
        <time>2017-07-01T09:40:35Z</time>
      </trkpt>
      <trkpt lat="45.88322" lon="4.65294">
        <ele>304</ele>
        <time>2017-07-01T09:40:36Z</time>
      </trkpt>
      <trkpt lat="45.88315" lon="4.65301">
        <ele>305</ele>
        <time>2017-07-01T09:40:40Z</time>
      </trkpt>
      <trkpt lat="45.88314" lon="4.65303">
        <ele>305</ele>
        <time>2017-07-01T09:40:41Z</time>
      </trkpt>
      <trkpt lat="45.88309" lon="4.65312">
        <ele>305</ele>
        <time>2017-07-01T09:40:45Z</time>
      </trkpt>
      <trkpt lat="45.88308" lon="4.65314">
        <ele>305</ele>
        <time>2017-07-01T09:40:46Z</time>
      </trkpt>
      <trkpt lat="45.88303" lon="4.65321">
        <ele>305</ele>
        <time>2017-07-01T09:40:49Z</time>
      </trkpt>
      <trkpt lat="45.88302" lon="4.65324">
        <ele>305</ele>
        <time>2017-07-01T09:40:50Z</time>
      </trkpt>
      <trkpt lat="45.88299" lon="4.65334">
        <ele>307</ele>
        <time>2017-07-01T09:40:54Z</time>
      </trkpt>
      <trkpt lat="45.88298" lon="4.65336">
        <ele>307</ele>
        <time>2017-07-01T09:40:55Z</time>
      </trkpt>
      <trkpt lat="45.88295" lon="4.65347">
        <ele>307</ele>
        <time>2017-07-01T09:40:59Z</time>
      </trkpt>
      <trkpt lat="45.88294" lon="4.6535">
        <ele>307</ele>
        <time>2017-07-01T09:41:00Z</time>
      </trkpt>
      <trkpt lat="45.88291" lon="4.65359">
        <ele>308</ele>
        <time>2017-07-01T09:41:03Z</time>
      </trkpt>
      <trkpt lat="45.8829" lon="4.65361">
        <ele>308</ele>
        <time>2017-07-01T09:41:04Z</time>
      </trkpt>
      <trkpt lat="45.88286" lon="4.6537">
        <ele>308</ele>
        <time>2017-07-01T09:41:07Z</time>
      </trkpt>
      <trkpt lat="45.88284" lon="4.65374">
        <ele>308</ele>
        <time>2017-07-01T09:41:08Z</time>
      </trkpt>
      <trkpt lat="45.88281" lon="4.65385">
        <ele>308</ele>
        <time>2017-07-01T09:41:12Z</time>
      </trkpt>
      <trkpt lat="45.8828" lon="4.65387">
        <ele>308</ele>
        <time>2017-07-01T09:41:13Z</time>
      </trkpt>
      <trkpt lat="45.88276" lon="4.65398">
        <ele>309</ele>
        <time>2017-07-01T09:41:17Z</time>
      </trkpt>
      <trkpt lat="45.88275" lon="4.65401">
        <ele>309</ele>
        <time>2017-07-01T09:41:18Z</time>
      </trkpt>
      <trkpt lat="45.88272" lon="4.65411">
        <ele>309</ele>
        <time>2017-07-01T09:41:22Z</time>
      </trkpt>
      <trkpt lat="45.88271" lon="4.65414">
        <ele>309</ele>
        <time>2017-07-01T09:41:23Z</time>
      </trkpt>
      <trkpt lat="45.88269" lon="4.65423">
        <ele>311</ele>
        <time>2017-07-01T09:41:26Z</time>
      </trkpt>
      <trkpt lat="45.88267" lon="4.65426">
        <ele>311</ele>
        <time>2017-07-01T09:41:27Z</time>
      </trkpt>
      <trkpt lat="45.88263" lon="4.65437">
        <ele>311</ele>
        <time>2017-07-01T09:41:31Z</time>
      </trkpt>
      <trkpt lat="45.88262" lon="4.6544">
        <ele>311</ele>
        <time>2017-07-01T09:41:32Z</time>
      </trkpt>
      <trkpt lat="45.8826" lon="4.65449">
        <ele>311</ele>
        <time>2017-07-01T09:41:35Z</time>
      </trkpt>
      <trkpt lat="45.88259" lon="4.65452">
        <ele>311</ele>
        <time>2017-07-01T09:41:36Z</time>
      </trkpt>
      <trkpt lat="45.88256" lon="4.65463">
        <ele>311</ele>
        <time>2017-07-01T09:41:40Z</time>
      </trkpt>
      <trkpt lat="45.88255" lon="4.65466">
        <ele>312</ele>
        <time>2017-07-01T09:41:41Z</time>
      </trkpt>
      <trkpt lat="45.88252" lon="4.65476">
        <ele>312</ele>
        <time>2017-07-01T09:41:45Z</time>
      </trkpt>
      <trkpt lat="45.88251" lon="4.65479">
        <ele>312</ele>
        <time>2017-07-01T09:41:46Z</time>
      </trkpt>
      <trkpt lat="45.88248" lon="4.65491">
        <ele>316</ele>
        <time>2017-07-01T09:41:50Z</time>
      </trkpt>
      <trkpt lat="45.88247" lon="4.65494">
        <ele>315</ele>
        <time>2017-07-01T09:41:51Z</time>
      </trkpt>
      <trkpt lat="45.88243" lon="4.65503">
        <ele>317</ele>
        <time>2017-07-01T09:41:55Z</time>
      </trkpt>
      <trkpt lat="45.88242" lon="4.65506">
        <ele>317</ele>
        <time>2017-07-01T09:41:56Z</time>
      </trkpt>
      <trkpt lat="45.88238" lon="4.65515">
        <ele>318</ele>
        <time>2017-07-01T09:42:00Z</time>
      </trkpt>
      <trkpt lat="45.88238" lon="4.65518">
        <ele>318</ele>
        <time>2017-07-01T09:42:01Z</time>
      </trkpt>
      <trkpt lat="45.88234" lon="4.65529">
        <ele>319</ele>
        <time>2017-07-01T09:42:05Z</time>
      </trkpt>
      <trkpt lat="45.88234" lon="4.65532">
        <ele>319</ele>
        <time>2017-07-01T09:42:06Z</time>
      </trkpt>
      <trkpt lat="45.8823" lon="4.65543">
        <ele>320</ele>
        <time>2017-07-01T09:42:10Z</time>
      </trkpt>
      <trkpt lat="45.88229" lon="4.65545">
        <ele>320</ele>
        <time>2017-07-01T09:42:11Z</time>
      </trkpt>
      <trkpt lat="45.88226" lon="4.65556">
        <ele>320</ele>
        <time>2017-07-01T09:42:15Z</time>
      </trkpt>
      <trkpt lat="45.88226" lon="4.65559">
        <ele>320</ele>
        <time>2017-07-01T09:42:16Z</time>
      </trkpt>
      <trkpt lat="45.88221" lon="4.65569">
        <ele>320</ele>
        <time>2017-07-01T09:42:21Z</time>
      </trkpt>
      <trkpt lat="45.8822" lon="4.65571">
        <ele>320</ele>
        <time>2017-07-01T09:42:22Z</time>
      </trkpt>
      <trkpt lat="45.88218" lon="4.65581">
        <ele>321</ele>
        <time>2017-07-01T09:42:26Z</time>
      </trkpt>
      <trkpt lat="45.88217" lon="4.65584">
        <ele>321</ele>
        <time>2017-07-01T09:42:27Z</time>
      </trkpt>
      <trkpt lat="45.88212" lon="4.65594">
        <ele>321</ele>
        <time>2017-07-01T09:42:32Z</time>
      </trkpt>
      <trkpt lat="45.8821" lon="4.65597">
        <ele>321</ele>
        <time>2017-07-01T09:42:33Z</time>
      </trkpt>
      <trkpt lat="45.88207" lon="4.65608">
        <ele>321</ele>
        <time>2017-07-01T09:42:37Z</time>
      </trkpt>
      <trkpt lat="45.88207" lon="4.6561">
        <ele>321</ele>
        <time>2017-07-01T09:42:38Z</time>
      </trkpt>
      <trkpt lat="45.88204" lon="4.65621">
        <ele>321</ele>
        <time>2017-07-01T09:42:42Z</time>
      </trkpt>
      <trkpt lat="45.88203" lon="4.65623">
        <ele>321</ele>
        <time>2017-07-01T09:42:43Z</time>
      </trkpt>
      <trkpt lat="45.882" lon="4.65634">
        <ele>321</ele>
        <time>2017-07-01T09:42:47Z</time>
      </trkpt>
      <trkpt lat="45.88199" lon="4.65637">
        <ele>321</ele>
        <time>2017-07-01T09:42:48Z</time>
      </trkpt>
      <trkpt lat="45.88194" lon="4.65646">
        <ele>322</ele>
        <time>2017-07-01T09:42:51Z</time>
      </trkpt>
      <trkpt lat="45.88193" lon="4.65648">
        <ele>322</ele>
        <time>2017-07-01T09:42:52Z</time>
      </trkpt>
      <trkpt lat="45.88189" lon="4.65658">
        <ele>322</ele>
        <time>2017-07-01T09:42:56Z</time>
      </trkpt>
      <trkpt lat="45.88188" lon="4.65661">
        <ele>322</ele>
        <time>2017-07-01T09:42:57Z</time>
      </trkpt>
      <trkpt lat="45.88183" lon="4.6567">
        <ele>323</ele>
        <time>2017-07-01T09:43:01Z</time>
      </trkpt>
      <trkpt lat="45.88181" lon="4.65673">
        <ele>323</ele>
        <time>2017-07-01T09:43:02Z</time>
      </trkpt>
      <trkpt lat="45.88178" lon="4.65684">
        <ele>322</ele>
        <time>2017-07-01T09:43:06Z</time>
      </trkpt>
      <trkpt lat="45.88176" lon="4.65686">
        <ele>322</ele>
        <time>2017-07-01T09:43:07Z</time>
      </trkpt>
      <trkpt lat="45.88172" lon="4.65694">
        <ele>322</ele>
        <time>2017-07-01T09:43:10Z</time>
      </trkpt>
      <trkpt lat="45.88171" lon="4.65697">
        <ele>322</ele>
        <time>2017-07-01T09:43:11Z</time>
      </trkpt>
      <trkpt lat="45.88164" lon="4.65705">
        <ele>331</ele>
        <time>2017-07-01T09:43:15Z</time>
      </trkpt>
      <trkpt lat="45.88163" lon="4.65707">
        <ele>331</ele>
        <time>2017-07-01T09:43:16Z</time>
      </trkpt>
      <trkpt lat="45.88157" lon="4.65717">
        <ele>331</ele>
        <time>2017-07-01T09:43:21Z</time>
      </trkpt>
      <trkpt lat="45.88156" lon="4.65719">
        <ele>331</ele>
        <time>2017-07-01T09:43:22Z</time>
      </trkpt>
      <trkpt lat="45.88152" lon="4.65728">
        <ele>331</ele>
        <time>2017-07-01T09:43:26Z</time>
      </trkpt>
      <trkpt lat="45.8815" lon="4.6573">
        <ele>331</ele>
        <time>2017-07-01T09:43:27Z</time>
      </trkpt>
      <trkpt lat="45.88144" lon="4.65738">
        <ele>331</ele>
        <time>2017-07-01T09:43:31Z</time>
      </trkpt>
      <trkpt lat="45.88143" lon="4.6574">
        <ele>331</ele>
        <time>2017-07-01T09:43:32Z</time>
      </trkpt>
      <trkpt lat="45.88138" lon="4.65749">
        <ele>332</ele>
        <time>2017-07-01T09:43:36Z</time>
      </trkpt>
      <trkpt lat="45.88137" lon="4.6575">
        <ele>332</ele>
        <time>2017-07-01T09:43:37Z</time>
      </trkpt>
      <trkpt lat="45.88131" lon="4.65755">
        <ele>332</ele>
        <time>2017-07-01T09:43:40Z</time>
      </trkpt>
      <trkpt lat="45.88129" lon="4.65757">
        <ele>332</ele>
        <time>2017-07-01T09:43:41Z</time>
      </trkpt>
      <trkpt lat="45.88123" lon="4.65764">
        <ele>333</ele>
        <time>2017-07-01T09:43:45Z</time>
      </trkpt>
      <trkpt lat="45.88121" lon="4.65766">
        <ele>333</ele>
        <time>2017-07-01T09:43:46Z</time>
      </trkpt>
      <trkpt lat="45.88114" lon="4.65771">
        <ele>334</ele>
        <time>2017-07-01T09:43:50Z</time>
      </trkpt>
      <trkpt lat="45.88112" lon="4.65773">
        <ele>334</ele>
        <time>2017-07-01T09:43:51Z</time>
      </trkpt>
      <trkpt lat="45.88105" lon="4.6578">
        <ele>334</ele>
        <time>2017-07-01T09:43:55Z</time>
      </trkpt>
      <trkpt lat="45.88103" lon="4.65781">
        <ele>334</ele>
        <time>2017-07-01T09:43:56Z</time>
      </trkpt>
      <trkpt lat="45.88098" lon="4.65788">
        <ele>334</ele>
        <time>2017-07-01T09:43:59Z</time>
      </trkpt>
      <trkpt lat="45.88096" lon="4.65789">
        <ele>334</ele>
        <time>2017-07-01T09:44:00Z</time>
      </trkpt>
      <trkpt lat="45.88089" lon="4.65796">
        <ele>334</ele>
        <time>2017-07-01T09:44:04Z</time>
      </trkpt>
      <trkpt lat="45.88088" lon="4.65797">
        <ele>334</ele>
        <time>2017-07-01T09:44:05Z</time>
      </trkpt>
      <trkpt lat="45.8808" lon="4.65803">
        <ele>341</ele>
        <time>2017-07-01T09:44:09Z</time>
      </trkpt>
      <trkpt lat="45.88079" lon="4.65805">
        <ele>341</ele>
        <time>2017-07-01T09:44:10Z</time>
      </trkpt>
      <trkpt lat="45.88073" lon="4.65811">
        <ele>340</ele>
        <time>2017-07-01T09:44:13Z</time>
      </trkpt>
      <trkpt lat="45.8807" lon="4.65813">
        <ele>340</ele>
        <time>2017-07-01T09:44:14Z</time>
      </trkpt>
      <trkpt lat="45.88064" lon="4.65817">
        <ele>341</ele>
        <time>2017-07-01T09:44:16Z</time>
      </trkpt>
      <trkpt lat="45.88061" lon="4.65819">
        <ele>341</ele>
        <time>2017-07-01T09:44:17Z</time>
      </trkpt>
      <trkpt lat="45.88054" lon="4.65822">
        <ele>341</ele>
        <time>2017-07-01T09:44:20Z</time>
      </trkpt>
      <trkpt lat="45.88053" lon="4.65823">
        <ele>342</ele>
        <time>2017-07-01T09:44:21Z</time>
      </trkpt>
      <trkpt lat="45.88046" lon="4.65827">
        <ele>342</ele>
        <time>2017-07-01T09:44:25Z</time>
      </trkpt>
      <trkpt lat="45.88043" lon="4.65828">
        <ele>342</ele>
        <time>2017-07-01T09:44:26Z</time>
      </trkpt>
      <trkpt lat="45.88037" lon="4.65833">
        <ele>343</ele>
        <time>2017-07-01T09:44:29Z</time>
      </trkpt>
      <trkpt lat="45.88035" lon="4.65834">
        <ele>338</ele>
        <time>2017-07-01T09:44:30Z</time>
      </trkpt>
      <trkpt lat="45.88028" lon="4.65838">
        <ele>339</ele>
        <time>2017-07-01T09:44:34Z</time>
      </trkpt>
      <trkpt lat="45.88025" lon="4.65839">
        <ele>339</ele>
        <time>2017-07-01T09:44:35Z</time>
      </trkpt>
      <trkpt lat="45.88018" lon="4.65844">
        <ele>340</ele>
        <time>2017-07-01T09:44:38Z</time>
      </trkpt>
      <trkpt lat="45.88016" lon="4.65846">
        <ele>340</ele>
        <time>2017-07-01T09:44:39Z</time>
      </trkpt>
      <trkpt lat="45.88009" lon="4.65849">
        <ele>340</ele>
        <time>2017-07-01T09:44:43Z</time>
      </trkpt>
      <trkpt lat="45.88007" lon="4.65852">
        <ele>340</ele>
        <time>2017-07-01T09:44:44Z</time>
      </trkpt>
      <trkpt lat="45.88002" lon="4.65857">
        <ele>340</ele>
        <time>2017-07-01T09:44:47Z</time>
      </trkpt>
      <trkpt lat="45.87999" lon="4.65859">
        <ele>344</ele>
        <time>2017-07-01T09:44:48Z</time>
      </trkpt>
      <trkpt lat="45.87992" lon="4.65866">
        <ele>343</ele>
        <time>2017-07-01T09:44:51Z</time>
      </trkpt>
      <trkpt lat="45.8799" lon="4.6587">
        <ele>343</ele>
        <time>2017-07-01T09:44:52Z</time>
      </trkpt>
      <trkpt lat="45.87984" lon="4.65877">
        <ele>343</ele>
        <time>2017-07-01T09:44:55Z</time>
      </trkpt>
      <trkpt lat="45.87981" lon="4.6588">
        <ele>343</ele>
        <time>2017-07-01T09:44:56Z</time>
      </trkpt>
      <trkpt lat="45.87975" lon="4.65887">
        <ele>343</ele>
        <time>2017-07-01T09:44:59Z</time>
      </trkpt>
      <trkpt lat="45.87973" lon="4.6589">
        <ele>343</ele>
        <time>2017-07-01T09:45:00Z</time>
      </trkpt>
      <trkpt lat="45.87966" lon="4.65898">
        <ele>343</ele>
        <time>2017-07-01T09:45:04Z</time>
      </trkpt>
      <trkpt lat="45.87964" lon="4.65901">
        <ele>343</ele>
        <time>2017-07-01T09:45:05Z</time>
      </trkpt>
      <trkpt lat="45.8796" lon="4.65908">
        <ele>343</ele>
        <time>2017-07-01T09:45:07Z</time>
      </trkpt>
      <trkpt lat="45.87957" lon="4.65911">
        <ele>343</ele>
        <time>2017-07-01T09:45:08Z</time>
      </trkpt>
      <trkpt lat="45.87952" lon="4.65918">
        <ele>340</ele>
        <time>2017-07-01T09:45:10Z</time>
      </trkpt>
      <trkpt lat="45.8795" lon="4.65921">
        <ele>341</ele>
        <time>2017-07-01T09:45:11Z</time>
      </trkpt>
      <trkpt lat="45.87944" lon="4.6593">
        <ele>341</ele>
        <time>2017-07-01T09:45:14Z</time>
      </trkpt>
      <trkpt lat="45.87942" lon="4.65932">
        <ele>341</ele>
        <time>2017-07-01T09:45:15Z</time>
      </trkpt>
      <trkpt lat="45.87938" lon="4.6594">
        <ele>341</ele>
        <time>2017-07-01T09:45:18Z</time>
      </trkpt>
      <trkpt lat="45.87937" lon="4.65944">
        <ele>341</ele>
        <time>2017-07-01T09:45:19Z</time>
      </trkpt>
      <trkpt lat="45.87932" lon="4.65954">
        <ele>341</ele>
        <time>2017-07-01T09:45:22Z</time>
      </trkpt>
      <trkpt lat="45.87932" lon="4.65958">
        <ele>341</ele>
        <time>2017-07-01T09:45:23Z</time>
      </trkpt>
      <trkpt lat="45.87929" lon="4.65968">
        <ele>341</ele>
        <time>2017-07-01T09:45:27Z</time>
      </trkpt>
      <trkpt lat="45.87928" lon="4.65971">
        <ele>341</ele>
        <time>2017-07-01T09:45:28Z</time>
      </trkpt>
      <trkpt lat="45.87927" lon="4.65983">
        <ele>341</ele>
        <time>2017-07-01T09:45:31Z</time>
      </trkpt>
      <trkpt lat="45.87927" lon="4.65987">
        <ele>342</ele>
        <time>2017-07-01T09:45:32Z</time>
      </trkpt>
      <trkpt lat="45.87926" lon="4.66">
        <ele>342</ele>
        <time>2017-07-01T09:45:35Z</time>
      </trkpt>
      <trkpt lat="45.87926" lon="4.66003">
        <ele>342</ele>
        <time>2017-07-01T09:45:36Z</time>
      </trkpt>
      <trkpt lat="45.87925" lon="4.66013">
        <ele>342</ele>
        <time>2017-07-01T09:45:39Z</time>
      </trkpt>
      <trkpt lat="45.87925" lon="4.66016">
        <ele>342</ele>
        <time>2017-07-01T09:45:40Z</time>
      </trkpt>
      <trkpt lat="45.87925" lon="4.66029">
        <ele>342</ele>
        <time>2017-07-01T09:45:43Z</time>
      </trkpt>
      <trkpt lat="45.87925" lon="4.66033">
        <ele>342</ele>
        <time>2017-07-01T09:45:44Z</time>
      </trkpt>
      <trkpt lat="45.87925" lon="4.66045">
        <ele>342</ele>
        <time>2017-07-01T09:45:47Z</time>
      </trkpt>
      <trkpt lat="45.87925" lon="4.66049">
        <ele>342</ele>
        <time>2017-07-01T09:45:48Z</time>
      </trkpt>
      <trkpt lat="45.87927" lon="4.6606">
        <ele>342</ele>
        <time>2017-07-01T09:45:51Z</time>
      </trkpt>
      <trkpt lat="45.87927" lon="4.66063">
        <ele>343</ele>
        <time>2017-07-01T09:45:52Z</time>
      </trkpt>
      <trkpt lat="45.87927" lon="4.66074">
        <ele>343</ele>
        <time>2017-07-01T09:45:55Z</time>
      </trkpt>
      <trkpt lat="45.87926" lon="4.66078">
        <ele>343</ele>
        <time>2017-07-01T09:45:56Z</time>
      </trkpt>
      <trkpt lat="45.87926" lon="4.66089">
        <ele>345</ele>
        <time>2017-07-01T09:45:59Z</time>
      </trkpt>
      <trkpt lat="45.87927" lon="4.66093">
        <ele>345</ele>
        <time>2017-07-01T09:46:00Z</time>
      </trkpt>
      <trkpt lat="45.87927" lon="4.66105">
        <ele>346</ele>
        <time>2017-07-01T09:46:03Z</time>
      </trkpt>
      <trkpt lat="45.87927" lon="4.66109">
        <ele>347</ele>
        <time>2017-07-01T09:46:04Z</time>
      </trkpt>
      <trkpt lat="45.87927" lon="4.66121">
        <ele>348</ele>
        <time>2017-07-01T09:46:07Z</time>
      </trkpt>
      <trkpt lat="45.87927" lon="4.66125">
        <ele>348</ele>
        <time>2017-07-01T09:46:08Z</time>
      </trkpt>
      <trkpt lat="45.87932" lon="4.66135">
        <ele>348</ele>
        <time>2017-07-01T09:46:11Z</time>
      </trkpt>
      <trkpt lat="45.87934" lon="4.66136">
        <ele>349</ele>
        <time>2017-07-01T09:46:12Z</time>
      </trkpt>
      <trkpt lat="45.87942" lon="4.66138">
        <ele>349</ele>
        <time>2017-07-01T09:46:15Z</time>
      </trkpt>
      <trkpt lat="45.87945" lon="4.66139">
        <ele>348</ele>
        <time>2017-07-01T09:46:16Z</time>
      </trkpt>
      <trkpt lat="45.87951" lon="4.6614">
        <ele>348</ele>
        <time>2017-07-01T09:46:19Z</time>
      </trkpt>
      <trkpt lat="45.87954" lon="4.66141">
        <ele>348</ele>
        <time>2017-07-01T09:46:20Z</time>
      </trkpt>
      <trkpt lat="45.87961" lon="4.66142">
        <ele>348</ele>
        <time>2017-07-01T09:46:23Z</time>
      </trkpt>
      <trkpt lat="45.87964" lon="4.66142">
        <ele>348</ele>
        <time>2017-07-01T09:46:24Z</time>
      </trkpt>
      <trkpt lat="45.87973" lon="4.66142">
        <ele>348</ele>
        <time>2017-07-01T09:46:27Z</time>
      </trkpt>
      <trkpt lat="45.87976" lon="4.66143">
        <ele>348</ele>
        <time>2017-07-01T09:46:28Z</time>
      </trkpt>
      <trkpt lat="45.87983" lon="4.66144">
        <ele>348</ele>
        <time>2017-07-01T09:46:31Z</time>
      </trkpt>
      <trkpt lat="45.87986" lon="4.66144">
        <ele>349</ele>
        <time>2017-07-01T09:46:32Z</time>
      </trkpt>
      <trkpt lat="45.87994" lon="4.66144">
        <ele>349</ele>
        <time>2017-07-01T09:46:35Z</time>
      </trkpt>
      <trkpt lat="45.87997" lon="4.66145">
        <ele>349</ele>
        <time>2017-07-01T09:46:36Z</time>
      </trkpt>
      <trkpt lat="45.88003" lon="4.66144">
        <ele>348</ele>
        <time>2017-07-01T09:46:38Z</time>
      </trkpt>
      <trkpt lat="45.88007" lon="4.66144">
        <ele>348</ele>
        <time>2017-07-01T09:46:39Z</time>
      </trkpt>
      <trkpt lat="45.88015" lon="4.66144">
        <ele>348</ele>
        <time>2017-07-01T09:46:42Z</time>
      </trkpt>
      <trkpt lat="45.88018" lon="4.66143">
        <ele>348</ele>
        <time>2017-07-01T09:46:43Z</time>
      </trkpt>
      <trkpt lat="45.88027" lon="4.66143">
        <ele>348</ele>
        <time>2017-07-01T09:46:46Z</time>
      </trkpt>
      <trkpt lat="45.8803" lon="4.66143">
        <ele>348</ele>
        <time>2017-07-01T09:46:47Z</time>
      </trkpt>
      <trkpt lat="45.88038" lon="4.66142">
        <ele>348</ele>
        <time>2017-07-01T09:46:50Z</time>
      </trkpt>
      <trkpt lat="45.88041" lon="4.66142">
        <ele>348</ele>
        <time>2017-07-01T09:46:51Z</time>
      </trkpt>
      <trkpt lat="45.88048" lon="4.66141">
        <ele>348</ele>
        <time>2017-07-01T09:46:53Z</time>
      </trkpt>
      <trkpt lat="45.88052" lon="4.66141">
        <ele>348</ele>
        <time>2017-07-01T09:46:54Z</time>
      </trkpt>
      <trkpt lat="45.88059" lon="4.66141">
        <ele>348</ele>
        <time>2017-07-01T09:46:56Z</time>
      </trkpt>
      <trkpt lat="45.88062" lon="4.66141">
        <ele>348</ele>
        <time>2017-07-01T09:46:57Z</time>
      </trkpt>
      <trkpt lat="45.88069" lon="4.6614">
        <ele>348</ele>
        <time>2017-07-01T09:46:59Z</time>
      </trkpt>
      <trkpt lat="45.88072" lon="4.6614">
        <ele>348</ele>
        <time>2017-07-01T09:47:00Z</time>
      </trkpt>
      <trkpt lat="45.88078" lon="4.6614">
        <ele>348</ele>
        <time>2017-07-01T09:47:02Z</time>
      </trkpt>
      <trkpt lat="45.88081" lon="4.6614">
        <ele>348</ele>
        <time>2017-07-01T09:47:03Z</time>
      </trkpt>
      <trkpt lat="45.88088" lon="4.6614">
        <ele>349</ele>
        <time>2017-07-01T09:47:05Z</time>
      </trkpt>
      <trkpt lat="45.88092" lon="4.66139">
        <ele>349</ele>
        <time>2017-07-01T09:47:06Z</time>
      </trkpt>
      <trkpt lat="45.88098" lon="4.66139">
        <ele>349</ele>
        <time>2017-07-01T09:47:08Z</time>
      </trkpt>
      <trkpt lat="45.88102" lon="4.66138">
        <ele>349</ele>
        <time>2017-07-01T09:47:09Z</time>
      </trkpt>
      <trkpt lat="45.8811" lon="4.66137">
        <ele>349</ele>
        <time>2017-07-01T09:47:12Z</time>
      </trkpt>
      <trkpt lat="45.88112" lon="4.66136">
        <ele>349</ele>
        <time>2017-07-01T09:47:13Z</time>
      </trkpt>
      <trkpt lat="45.88119" lon="4.66135">
        <ele>349</ele>
        <time>2017-07-01T09:47:15Z</time>
      </trkpt>
      <trkpt lat="45.88123" lon="4.66135">
        <ele>349</ele>
        <time>2017-07-01T09:47:16Z</time>
      </trkpt>
      <trkpt lat="45.88131" lon="4.66134">
        <ele>349</ele>
        <time>2017-07-01T09:47:18Z</time>
      </trkpt>
      <trkpt lat="45.88135" lon="4.66134">
        <ele>349</ele>
        <time>2017-07-01T09:47:19Z</time>
      </trkpt>
      <trkpt lat="45.88141" lon="4.66133">
        <ele>349</ele>
        <time>2017-07-01T09:47:21Z</time>
      </trkpt>
      <trkpt lat="45.88145" lon="4.66133">
        <ele>349</ele>
        <time>2017-07-01T09:47:22Z</time>
      </trkpt>
      <trkpt lat="45.88151" lon="4.66132">
        <ele>349</ele>
        <time>2017-07-01T09:47:24Z</time>
      </trkpt>
      <trkpt lat="45.88154" lon="4.66131">
        <ele>349</ele>
        <time>2017-07-01T09:47:25Z</time>
      </trkpt>
      <trkpt lat="45.8816" lon="4.66131">
        <ele>349</ele>
        <time>2017-07-01T09:47:27Z</time>
      </trkpt>
      <trkpt lat="45.88164" lon="4.66131">
        <ele>349</ele>
        <time>2017-07-01T09:47:28Z</time>
      </trkpt>
      <trkpt lat="45.88171" lon="4.6613">
        <ele>350</ele>
        <time>2017-07-01T09:47:30Z</time>
      </trkpt>
      <trkpt lat="45.88175" lon="4.6613">
        <ele>350</ele>
        <time>2017-07-01T09:47:31Z</time>
      </trkpt>
      <trkpt lat="45.88182" lon="4.6613">
        <ele>350</ele>
        <time>2017-07-01T09:47:33Z</time>
      </trkpt>
      <trkpt lat="45.88186" lon="4.6613">
        <ele>350</ele>
        <time>2017-07-01T09:47:34Z</time>
      </trkpt>
      <trkpt lat="45.88193" lon="4.6613">
        <ele>350</ele>
        <time>2017-07-01T09:47:36Z</time>
      </trkpt>
      <trkpt lat="45.88196" lon="4.6613">
        <ele>350</ele>
        <time>2017-07-01T09:47:37Z</time>
      </trkpt>
      <trkpt lat="45.88204" lon="4.66132">
        <ele>350</ele>
        <time>2017-07-01T09:47:40Z</time>
      </trkpt>
      <trkpt lat="45.88207" lon="4.66132">
        <ele>350</ele>
        <time>2017-07-01T09:47:41Z</time>
      </trkpt>
      <trkpt lat="45.88213" lon="4.66133">
        <ele>350</ele>
        <time>2017-07-01T09:47:43Z</time>
      </trkpt>
      <trkpt lat="45.88216" lon="4.66134">
        <ele>350</ele>
        <time>2017-07-01T09:47:44Z</time>
      </trkpt>
      <trkpt lat="45.88224" lon="4.66135">
        <ele>350</ele>
        <time>2017-07-01T09:47:47Z</time>
      </trkpt>
      <trkpt lat="45.88227" lon="4.66135">
        <ele>350</ele>
        <time>2017-07-01T09:47:48Z</time>
      </trkpt>
      <trkpt lat="45.88236" lon="4.66134">
        <ele>350</ele>
        <time>2017-07-01T09:47:51Z</time>
      </trkpt>
      <trkpt lat="45.88239" lon="4.66134">
        <ele>350</ele>
        <time>2017-07-01T09:47:52Z</time>
      </trkpt>
      <trkpt lat="45.88245" lon="4.66135">
        <ele>350</ele>
        <time>2017-07-01T09:47:54Z</time>
      </trkpt>
      <trkpt lat="45.88248" lon="4.66135">
        <ele>350</ele>
        <time>2017-07-01T09:47:55Z</time>
      </trkpt>
      <trkpt lat="45.88254" lon="4.66135">
        <ele>352</ele>
        <time>2017-07-01T09:47:57Z</time>
      </trkpt>
      <trkpt lat="45.88257" lon="4.66136">
        <ele>352</ele>
        <time>2017-07-01T09:47:58Z</time>
      </trkpt>
      <trkpt lat="45.88264" lon="4.66137">
        <ele>352</ele>
        <time>2017-07-01T09:48:00Z</time>
      </trkpt>
      <trkpt lat="45.88268" lon="4.66137">
        <ele>352</ele>
        <time>2017-07-01T09:48:01Z</time>
      </trkpt>
      <trkpt lat="45.88275" lon="4.66138">
        <ele>352</ele>
        <time>2017-07-01T09:48:03Z</time>
      </trkpt>
      <trkpt lat="45.88278" lon="4.66138">
        <ele>352</ele>
        <time>2017-07-01T09:48:04Z</time>
      </trkpt>
      <trkpt lat="45.88285" lon="4.66138">
        <ele>352</ele>
        <time>2017-07-01T09:48:06Z</time>
      </trkpt>
      <trkpt lat="45.88288" lon="4.66138">
        <ele>352</ele>
        <time>2017-07-01T09:48:07Z</time>
      </trkpt>
      <trkpt lat="45.88295" lon="4.66139">
        <ele>353</ele>
        <time>2017-07-01T09:48:09Z</time>
      </trkpt>
      <trkpt lat="45.88298" lon="4.66139">
        <ele>353</ele>
        <time>2017-07-01T09:48:10Z</time>
      </trkpt>
      <trkpt lat="45.88305" lon="4.6614">
        <ele>353</ele>
        <time>2017-07-01T09:48:13Z</time>
      </trkpt>
      <trkpt lat="45.88307" lon="4.6614">
        <ele>353</ele>
        <time>2017-07-01T09:48:14Z</time>
      </trkpt>
      <trkpt lat="45.88316" lon="4.66141">
        <ele>354</ele>
        <time>2017-07-01T09:48:17Z</time>
      </trkpt>
      <trkpt lat="45.88319" lon="4.66142">
        <ele>354</ele>
        <time>2017-07-01T09:48:18Z</time>
      </trkpt>
      <trkpt lat="45.88327" lon="4.66142">
        <ele>354</ele>
        <time>2017-07-01T09:48:21Z</time>
      </trkpt>
      <trkpt lat="45.8833" lon="4.66142">
        <ele>354</ele>
        <time>2017-07-01T09:48:22Z</time>
      </trkpt>
      <trkpt lat="45.88338" lon="4.66143">
        <ele>357</ele>
        <time>2017-07-01T09:48:26Z</time>
      </trkpt>
      <trkpt lat="45.88341" lon="4.66143">
        <ele>357</ele>
        <time>2017-07-01T09:48:27Z</time>
      </trkpt>
      <trkpt lat="45.88349" lon="4.66143">
        <ele>357</ele>
        <time>2017-07-01T09:48:30Z</time>
      </trkpt>
      <trkpt lat="45.88351" lon="4.66143">
        <ele>357</ele>
        <time>2017-07-01T09:48:31Z</time>
      </trkpt>
      <trkpt lat="45.88359" lon="4.66142">
        <ele>357</ele>
        <time>2017-07-01T09:48:34Z</time>
      </trkpt>
      <trkpt lat="45.88361" lon="4.66143">
        <ele>357</ele>
        <time>2017-07-01T09:48:35Z</time>
      </trkpt>
      <trkpt lat="45.8837" lon="4.66144">
        <ele>357</ele>
        <time>2017-07-01T09:48:39Z</time>
      </trkpt>
      <trkpt lat="45.88372" lon="4.66144">
        <ele>357</ele>
        <time>2017-07-01T09:48:40Z</time>
      </trkpt>
      <trkpt lat="45.88381" lon="4.66143">
        <ele>357</ele>
        <time>2017-07-01T09:48:44Z</time>
      </trkpt>
      <trkpt lat="45.88383" lon="4.66144">
        <ele>357</ele>
        <time>2017-07-01T09:48:45Z</time>
      </trkpt>
      <trkpt lat="45.88391" lon="4.66145">
        <ele>358</ele>
        <time>2017-07-01T09:48:49Z</time>
      </trkpt>
      <trkpt lat="45.88393" lon="4.66146">
        <ele>358</ele>
        <time>2017-07-01T09:48:50Z</time>
      </trkpt>
      <trkpt lat="45.88401" lon="4.66146">
        <ele>359</ele>
        <time>2017-07-01T09:48:54Z</time>
      </trkpt>
      <trkpt lat="45.88403" lon="4.66146">
        <ele>359</ele>
        <time>2017-07-01T09:48:55Z</time>
      </trkpt>
      <trkpt lat="45.88412" lon="4.66147">
        <ele>359</ele>
        <time>2017-07-01T09:48:59Z</time>
      </trkpt>
      <trkpt lat="45.88414" lon="4.66147">
        <ele>359</ele>
        <time>2017-07-01T09:49:00Z</time>
      </trkpt>
      <trkpt lat="45.88421" lon="4.66148">
        <ele>361</ele>
        <time>2017-07-01T09:49:04Z</time>
      </trkpt>
      <trkpt lat="45.88423" lon="4.66148">
        <ele>361</ele>
        <time>2017-07-01T09:49:05Z</time>
      </trkpt>
      <trkpt lat="45.88431" lon="4.66149">
        <ele>361</ele>
        <time>2017-07-01T09:49:09Z</time>
      </trkpt>
      <trkpt lat="45.88432" lon="4.66149">
        <ele>361</ele>
        <time>2017-07-01T09:49:10Z</time>
      </trkpt>
      <trkpt lat="45.8844" lon="4.66149">
        <ele>361</ele>
        <time>2017-07-01T09:49:14Z</time>
      </trkpt>
      <trkpt lat="45.88442" lon="4.66149">
        <ele>361</ele>
        <time>2017-07-01T09:49:15Z</time>
      </trkpt>
      <trkpt lat="45.88449" lon="4.6615">
        <ele>361</ele>
        <time>2017-07-01T09:49:18Z</time>
      </trkpt>
      <trkpt lat="45.88452" lon="4.6615">
        <ele>361</ele>
        <time>2017-07-01T09:49:19Z</time>
      </trkpt>
      <trkpt lat="45.88459" lon="4.6615">
        <ele>361</ele>
        <time>2017-07-01T09:49:23Z</time>
      </trkpt>
      <trkpt lat="45.88461" lon="4.6615">
        <ele>361</ele>
        <time>2017-07-01T09:49:24Z</time>
      </trkpt>
      <trkpt lat="45.88469" lon="4.6615">
        <ele>362</ele>
        <time>2017-07-01T09:49:28Z</time>
      </trkpt>
      <trkpt lat="45.88471" lon="4.66151">
        <ele>362</ele>
        <time>2017-07-01T09:49:29Z</time>
      </trkpt>
      <trkpt lat="45.88478" lon="4.66156">
        <ele>363</ele>
        <time>2017-07-01T09:49:33Z</time>
      </trkpt>
      <trkpt lat="45.88481" lon="4.66157">
        <ele>363</ele>
        <time>2017-07-01T09:49:34Z</time>
      </trkpt>
      <trkpt lat="45.88489" lon="4.66162">
        <ele>364</ele>
        <time>2017-07-01T09:49:38Z</time>
      </trkpt>
      <trkpt lat="45.88491" lon="4.66163">
        <ele>365</ele>
        <time>2017-07-01T09:49:39Z</time>
      </trkpt>
      <trkpt lat="45.88498" lon="4.66168">
        <ele>367</ele>
        <time>2017-07-01T09:49:43Z</time>
      </trkpt>
      <trkpt lat="45.88499" lon="4.6617">
        <ele>368</ele>
        <time>2017-07-01T09:49:44Z</time>
      </trkpt>
      <trkpt lat="45.88505" lon="4.66177">
        <ele>368</ele>
        <time>2017-07-01T09:49:47Z</time>
      </trkpt>
      <trkpt lat="45.88506" lon="4.66179">
        <ele>368</ele>
        <time>2017-07-01T09:49:48Z</time>
      </trkpt>
      <trkpt lat="45.88512" lon="4.66183">
        <ele>369</ele>
        <time>2017-07-01T09:49:52Z</time>
      </trkpt>
      <trkpt lat="45.88514" lon="4.66185">
        <ele>369</ele>
        <time>2017-07-01T09:49:53Z</time>
      </trkpt>
      <trkpt lat="45.88521" lon="4.66191">
        <ele>369</ele>
        <time>2017-07-01T09:49:57Z</time>
      </trkpt>
      <trkpt lat="45.88523" lon="4.66193">
        <ele>369</ele>
        <time>2017-07-01T09:49:58Z</time>
      </trkpt>
      <trkpt lat="45.88528" lon="4.66197">
        <ele>370</ele>
        <time>2017-07-01T09:50:01Z</time>
      </trkpt>
      <trkpt lat="45.88531" lon="4.66198">
        <ele>370</ele>
        <time>2017-07-01T09:50:02Z</time>
      </trkpt>
      <trkpt lat="45.88538" lon="4.66204">
        <ele>370</ele>
        <time>2017-07-01T09:50:06Z</time>
      </trkpt>
      <trkpt lat="45.88539" lon="4.66206">
        <ele>370</ele>
        <time>2017-07-01T09:50:07Z</time>
      </trkpt>
      <trkpt lat="45.88546" lon="4.66211">
        <ele>370</ele>
        <time>2017-07-01T09:50:11Z</time>
      </trkpt>
      <trkpt lat="45.88548" lon="4.66213">
        <ele>370</ele>
        <time>2017-07-01T09:50:12Z</time>
      </trkpt>
      <trkpt lat="45.88555" lon="4.66219">
        <ele>370</ele>
        <time>2017-07-01T09:50:16Z</time>
      </trkpt>
      <trkpt lat="45.88557" lon="4.6622">
        <ele>370</ele>
        <time>2017-07-01T09:50:17Z</time>
      </trkpt>
      <trkpt lat="45.88564" lon="4.66225">
        <ele>370</ele>
        <time>2017-07-01T09:50:21Z</time>
      </trkpt>
      <trkpt lat="45.88565" lon="4.66227">
        <ele>370</ele>
        <time>2017-07-01T09:50:22Z</time>
      </trkpt>
      <trkpt lat="45.88572" lon="4.66236">
        <ele>371</ele>
        <time>2017-07-01T09:50:26Z</time>
      </trkpt>
      <trkpt lat="45.88573" lon="4.66238">
        <ele>371</ele>
        <time>2017-07-01T09:50:27Z</time>
      </trkpt>
      <trkpt lat="45.88579" lon="4.66247">
        <ele>371</ele>
        <time>2017-07-01T09:50:31Z</time>
      </trkpt>
      <trkpt lat="45.8858" lon="4.66249">
        <ele>371</ele>
        <time>2017-07-01T09:50:32Z</time>
      </trkpt>
      <trkpt lat="45.88586" lon="4.66257">
        <ele>371</ele>
        <time>2017-07-01T09:50:36Z</time>
      </trkpt>
      <trkpt lat="45.88588" lon="4.66259">
        <ele>371</ele>
        <time>2017-07-01T09:50:37Z</time>
      </trkpt>
      <trkpt lat="45.88594" lon="4.66267">
        <ele>372</ele>
        <time>2017-07-01T09:50:41Z</time>
      </trkpt>
      <trkpt lat="45.88595" lon="4.66269">
        <ele>372</ele>
        <time>2017-07-01T09:50:42Z</time>
      </trkpt>
      <trkpt lat="45.88601" lon="4.66277">
        <ele>372</ele>
        <time>2017-07-01T09:50:46Z</time>
      </trkpt>
      <trkpt lat="45.88602" lon="4.66278">
        <ele>372</ele>
        <time>2017-07-01T09:50:47Z</time>
      </trkpt>
      <trkpt lat="45.88606" lon="4.66287">
        <ele>373</ele>
        <time>2017-07-01T09:50:51Z</time>
      </trkpt>
      <trkpt lat="45.88608" lon="4.66289">
        <ele>373</ele>
        <time>2017-07-01T09:50:52Z</time>
      </trkpt>
      <trkpt lat="45.88613" lon="4.66298">
        <ele>373</ele>
        <time>2017-07-01T09:50:56Z</time>
      </trkpt>
      <trkpt lat="45.88614" lon="4.66301">
        <ele>373</ele>
        <time>2017-07-01T09:50:57Z</time>
      </trkpt>
      <trkpt lat="45.88619" lon="4.66311">
        <ele>374</ele>
        <time>2017-07-01T09:51:01Z</time>
      </trkpt>
      <trkpt lat="45.88621" lon="4.66313">
        <ele>374</ele>
        <time>2017-07-01T09:51:02Z</time>
      </trkpt>
      <trkpt lat="45.88625" lon="4.66324">
        <ele>374</ele>
        <time>2017-07-01T09:51:06Z</time>
      </trkpt>
      <trkpt lat="45.88626" lon="4.66327">
        <ele>374</ele>
        <time>2017-07-01T09:51:07Z</time>
      </trkpt>
      <trkpt lat="45.88632" lon="4.66336">
        <ele>380</ele>
        <time>2017-07-01T09:51:11Z</time>
      </trkpt>
      <trkpt lat="45.88633" lon="4.66339">
        <ele>380</ele>
        <time>2017-07-01T09:51:12Z</time>
      </trkpt>
      <trkpt lat="45.88637" lon="4.66346">
        <ele>379</ele>
        <time>2017-07-01T09:51:15Z</time>
      </trkpt>
      <trkpt lat="45.88639" lon="4.66349">
        <ele>379</ele>
        <time>2017-07-01T09:51:16Z</time>
      </trkpt>
      <trkpt lat="45.88644" lon="4.66358">
        <ele>380</ele>
        <time>2017-07-01T09:51:20Z</time>
      </trkpt>
      <trkpt lat="45.88646" lon="4.6636">
        <ele>380</ele>
        <time>2017-07-01T09:51:21Z</time>
      </trkpt>
      <trkpt lat="45.88651" lon="4.66367">
        <ele>380</ele>
        <time>2017-07-01T09:51:24Z</time>
      </trkpt>
      <trkpt lat="45.88652" lon="4.6637">
        <ele>380</ele>
        <time>2017-07-01T09:51:25Z</time>
      </trkpt>
      <trkpt lat="45.88659" lon="4.66378">
        <ele>381</ele>
        <time>2017-07-01T09:51:29Z</time>
      </trkpt>
      <trkpt lat="45.88661" lon="4.6638">
        <ele>381</ele>
        <time>2017-07-01T09:51:30Z</time>
      </trkpt>
      <trkpt lat="45.88668" lon="4.66388">
        <ele>378</ele>
        <time>2017-07-01T09:51:34Z</time>
      </trkpt>
      <trkpt lat="45.8867" lon="4.6639">
        <ele>378</ele>
        <time>2017-07-01T09:51:35Z</time>
      </trkpt>
      <trkpt lat="45.88677" lon="4.66396">
        <ele>378</ele>
        <time>2017-07-01T09:51:39Z</time>
      </trkpt>
      <trkpt lat="45.88679" lon="4.66398">
        <ele>378</ele>
        <time>2017-07-01T09:51:40Z</time>
      </trkpt>
      <trkpt lat="45.88685" lon="4.66403">
        <ele>378</ele>
        <time>2017-07-01T09:51:43Z</time>
      </trkpt>
      <trkpt lat="45.88687" lon="4.66405">
        <ele>378</ele>
        <time>2017-07-01T09:51:44Z</time>
      </trkpt>
      <trkpt lat="45.88692" lon="4.66411">
        <ele>378</ele>
        <time>2017-07-01T09:51:47Z</time>
      </trkpt>
      <trkpt lat="45.88694" lon="4.66413">
        <ele>378</ele>
        <time>2017-07-01T09:51:48Z</time>
      </trkpt>
      <trkpt lat="45.887" lon="4.66419">
        <ele>383</ele>
        <time>2017-07-01T09:51:51Z</time>
      </trkpt>
      <trkpt lat="45.88702" lon="4.6642">
        <ele>383</ele>
        <time>2017-07-01T09:51:52Z</time>
      </trkpt>
      <trkpt lat="45.88708" lon="4.66426">
        <ele>383</ele>
        <time>2017-07-01T09:51:55Z</time>
      </trkpt>
      <trkpt lat="45.88709" lon="4.66429">
        <ele>383</ele>
        <time>2017-07-01T09:51:56Z</time>
      </trkpt>
      <trkpt lat="45.88715" lon="4.66435">
        <ele>383</ele>
        <time>2017-07-01T09:51:59Z</time>
      </trkpt>
      <trkpt lat="45.88718" lon="4.66437">
        <ele>383</ele>
        <time>2017-07-01T09:52:00Z</time>
      </trkpt>
      <trkpt lat="45.88724" lon="4.66442">
        <ele>383</ele>
        <time>2017-07-01T09:52:03Z</time>
      </trkpt>
      <trkpt lat="45.88726" lon="4.66444">
        <ele>383</ele>
        <time>2017-07-01T09:52:04Z</time>
      </trkpt>
      <trkpt lat="45.88731" lon="4.66451">
        <ele>384</ele>
        <time>2017-07-01T09:52:07Z</time>
      </trkpt>
      <trkpt lat="45.88733" lon="4.66453">
        <ele>384</ele>
        <time>2017-07-01T09:52:08Z</time>
      </trkpt>
      <trkpt lat="45.8874" lon="4.66461">
        <ele>384</ele>
        <time>2017-07-01T09:52:12Z</time>
      </trkpt>
      <trkpt lat="45.88741" lon="4.66463">
        <ele>384</ele>
        <time>2017-07-01T09:52:13Z</time>
      </trkpt>
      <trkpt lat="45.88748" lon="4.66471">
        <ele>385</ele>
        <time>2017-07-01T09:52:17Z</time>
      </trkpt>
      <trkpt lat="45.88749" lon="4.66473">
        <ele>385</ele>
        <time>2017-07-01T09:52:18Z</time>
      </trkpt>
      <trkpt lat="45.88756" lon="4.6648">
        <ele>383</ele>
        <time>2017-07-01T09:52:22Z</time>
      </trkpt>
      <trkpt lat="45.88758" lon="4.66481">
        <ele>384</ele>
        <time>2017-07-01T09:52:23Z</time>
      </trkpt>
      <trkpt lat="45.88763" lon="4.66489">
        <ele>384</ele>
        <time>2017-07-01T09:52:27Z</time>
      </trkpt>
      <trkpt lat="45.88765" lon="4.66492">
        <ele>384</ele>
        <time>2017-07-01T09:52:28Z</time>
      </trkpt>
      <trkpt lat="45.8877" lon="4.66499">
        <ele>384</ele>
        <time>2017-07-01T09:52:31Z</time>
      </trkpt>
      <trkpt lat="45.88772" lon="4.66502">
        <ele>389</ele>
        <time>2017-07-01T09:52:32Z</time>
      </trkpt>
      <trkpt lat="45.88778" lon="4.66509">
        <ele>390</ele>
        <time>2017-07-01T09:52:35Z</time>
      </trkpt>
      <trkpt lat="45.88779" lon="4.66511">
        <ele>390</ele>
        <time>2017-07-01T09:52:36Z</time>
      </trkpt>
      <trkpt lat="45.88786" lon="4.66518">
        <ele>390</ele>
        <time>2017-07-01T09:52:39Z</time>
      </trkpt>
      <trkpt lat="45.88788" lon="4.66519">
        <ele>390</ele>
        <time>2017-07-01T09:52:40Z</time>
      </trkpt>
      <trkpt lat="45.88794" lon="4.66528">
        <ele>391</ele>
        <time>2017-07-01T09:52:44Z</time>
      </trkpt>
      <trkpt lat="45.88796" lon="4.6653">
        <ele>391</ele>
        <time>2017-07-01T09:52:45Z</time>
      </trkpt>
      <trkpt lat="45.88802" lon="4.66536">
        <ele>391</ele>
        <time>2017-07-01T09:52:48Z</time>
      </trkpt>
      <trkpt lat="45.88805" lon="4.66537">
        <ele>391</ele>
        <time>2017-07-01T09:52:49Z</time>
      </trkpt>
      <trkpt lat="45.88812" lon="4.66543">
        <ele>391</ele>
        <time>2017-07-01T09:52:53Z</time>
      </trkpt>
      <trkpt lat="45.88814" lon="4.66544">
        <ele>392</ele>
        <time>2017-07-01T09:52:54Z</time>
      </trkpt>
      <trkpt lat="45.88822" lon="4.66549">
        <ele>392</ele>
        <time>2017-07-01T09:52:58Z</time>
      </trkpt>
      <trkpt lat="45.88824" lon="4.66551">
        <ele>392</ele>
        <time>2017-07-01T09:52:59Z</time>
      </trkpt>
      <trkpt lat="45.88831" lon="4.66556">
        <ele>393</ele>
        <time>2017-07-01T09:53:04Z</time>
      </trkpt>
      <trkpt lat="45.88833" lon="4.66556">
        <ele>393</ele>
        <time>2017-07-01T09:53:05Z</time>
      </trkpt>
      <trkpt lat="45.8884" lon="4.6656">
        <ele>392</ele>
        <time>2017-07-01T09:53:09Z</time>
      </trkpt>
      <trkpt lat="45.88842" lon="4.66561">
        <ele>392</ele>
        <time>2017-07-01T09:53:10Z</time>
      </trkpt>
      <trkpt lat="45.8885" lon="4.66565">
        <ele>392</ele>
        <time>2017-07-01T09:53:15Z</time>
      </trkpt>
      <trkpt lat="45.88851" lon="4.66566">
        <ele>392</ele>
        <time>2017-07-01T09:53:16Z</time>
      </trkpt>
      <trkpt lat="45.88858" lon="4.66572">
        <ele>392</ele>
        <time>2017-07-01T09:53:20Z</time>
      </trkpt>
      <trkpt lat="45.88859" lon="4.66573">
        <ele>392</ele>
        <time>2017-07-01T09:53:21Z</time>
      </trkpt>
      <trkpt lat="45.88865" lon="4.6658">
        <ele>392</ele>
        <time>2017-07-01T09:53:25Z</time>
      </trkpt>
      <trkpt lat="45.88867" lon="4.66582">
        <ele>392</ele>
        <time>2017-07-01T09:53:26Z</time>
      </trkpt>
      <trkpt lat="45.88873" lon="4.66589">
        <ele>399</ele>
        <time>2017-07-01T09:53:29Z</time>
      </trkpt>
      <trkpt lat="45.88874" lon="4.66591">
        <ele>399</ele>
        <time>2017-07-01T09:53:30Z</time>
      </trkpt>
      <trkpt lat="45.8888" lon="4.666">
        <ele>400</ele>
        <time>2017-07-01T09:53:35Z</time>
      </trkpt>
      <trkpt lat="45.88881" lon="4.66602">
        <ele>400</ele>
        <time>2017-07-01T09:53:36Z</time>
      </trkpt>
      <trkpt lat="45.88887" lon="4.6661">
        <ele>400</ele>
        <time>2017-07-01T09:53:40Z</time>
      </trkpt>
      <trkpt lat="45.88888" lon="4.66613">
        <ele>400</ele>
        <time>2017-07-01T09:53:41Z</time>
      </trkpt>
      <trkpt lat="45.88891" lon="4.66621">
        <ele>401</ele>
        <time>2017-07-01T09:53:44Z</time>
      </trkpt>
      <trkpt lat="45.88893" lon="4.66624">
        <ele>401</ele>
        <time>2017-07-01T09:53:45Z</time>
      </trkpt>
      <trkpt lat="45.88898" lon="4.66634">
        <ele>402</ele>
        <time>2017-07-01T09:53:49Z</time>
      </trkpt>
      <trkpt lat="45.88901" lon="4.66636">
        <ele>402</ele>
        <time>2017-07-01T09:53:50Z</time>
      </trkpt>
      <trkpt lat="45.88907" lon="4.66644">
        <ele>403</ele>
        <time>2017-07-01T09:53:53Z</time>
      </trkpt>
      <trkpt lat="45.88909" lon="4.66646">
        <ele>403</ele>
        <time>2017-07-01T09:53:54Z</time>
      </trkpt>
      <trkpt lat="45.88914" lon="4.66653">
        <ele>404</ele>
        <time>2017-07-01T09:53:57Z</time>
      </trkpt>
      <trkpt lat="45.88916" lon="4.66655">
        <ele>404</ele>
        <time>2017-07-01T09:53:58Z</time>
      </trkpt>
      <trkpt lat="45.88922" lon="4.66661">
        <ele>404</ele>
        <time>2017-07-01T09:54:01Z</time>
      </trkpt>
      <trkpt lat="45.88924" lon="4.66663">
        <ele>404</ele>
        <time>2017-07-01T09:54:02Z</time>
      </trkpt>
      <trkpt lat="45.88931" lon="4.66668">
        <ele>407</ele>
        <time>2017-07-01T09:54:05Z</time>
      </trkpt>
      <trkpt lat="45.88933" lon="4.66669">
        <ele>408</ele>
        <time>2017-07-01T09:54:06Z</time>
      </trkpt>
      <trkpt lat="45.88939" lon="4.66674">
        <ele>408</ele>
        <time>2017-07-01T09:54:09Z</time>
      </trkpt>
      <trkpt lat="45.88941" lon="4.66676">
        <ele>408</ele>
        <time>2017-07-01T09:54:10Z</time>
      </trkpt>
      <trkpt lat="45.88947" lon="4.66682">
        <ele>408</ele>
        <time>2017-07-01T09:54:13Z</time>
      </trkpt>
      <trkpt lat="45.88949" lon="4.66683">
        <ele>408</ele>
        <time>2017-07-01T09:54:14Z</time>
      </trkpt>
      <trkpt lat="45.88956" lon="4.66689">
        <ele>409</ele>
        <time>2017-07-01T09:54:18Z</time>
      </trkpt>
      <trkpt lat="45.88959" lon="4.66691">
        <ele>409</ele>
        <time>2017-07-01T09:54:19Z</time>
      </trkpt>
      <trkpt lat="45.88966" lon="4.66696">
        <ele>409</ele>
        <time>2017-07-01T09:54:22Z</time>
      </trkpt>
      <trkpt lat="45.88969" lon="4.66697">
        <ele>409</ele>
        <time>2017-07-01T09:54:23Z</time>
      </trkpt>
      <trkpt lat="45.88976" lon="4.66701">
        <ele>409</ele>
        <time>2017-07-01T09:54:26Z</time>
      </trkpt>
      <trkpt lat="45.88979" lon="4.66703">
        <ele>409</ele>
        <time>2017-07-01T09:54:27Z</time>
      </trkpt>
      <trkpt lat="45.88987" lon="4.66706">
        <ele>409</ele>
        <time>2017-07-01T09:54:30Z</time>
      </trkpt>
      <trkpt lat="45.88989" lon="4.66707">
        <ele>409</ele>
        <time>2017-07-01T09:54:31Z</time>
      </trkpt>
      <trkpt lat="45.88997" lon="4.66708">
        <ele>409</ele>
        <time>2017-07-01T09:54:34Z</time>
      </trkpt>
      <trkpt lat="45.88999" lon="4.66709">
        <ele>409</ele>
        <time>2017-07-01T09:54:35Z</time>
      </trkpt>
      <trkpt lat="45.89007" lon="4.66712">
        <ele>407</ele>
        <time>2017-07-01T09:54:38Z</time>
      </trkpt>
      <trkpt lat="45.89009" lon="4.66712">
        <ele>407</ele>
        <time>2017-07-01T09:54:39Z</time>
      </trkpt>
      <trkpt lat="45.89015" lon="4.66716">
        <ele>407</ele>
        <time>2017-07-01T09:54:42Z</time>
      </trkpt>
      <trkpt lat="45.89017" lon="4.66718">
        <ele>407</ele>
        <time>2017-07-01T09:54:43Z</time>
      </trkpt>
      <trkpt lat="45.89025" lon="4.66721">
        <ele>407</ele>
        <time>2017-07-01T09:54:46Z</time>
      </trkpt>
      <trkpt lat="45.89027" lon="4.66722">
        <ele>407</ele>
        <time>2017-07-01T09:54:47Z</time>
      </trkpt>
      <trkpt lat="45.89034" lon="4.66727">
        <ele>407</ele>
        <time>2017-07-01T09:54:50Z</time>
      </trkpt>
      <trkpt lat="45.89036" lon="4.66728">
        <ele>407</ele>
        <time>2017-07-01T09:54:51Z</time>
      </trkpt>
      <trkpt lat="45.89043" lon="4.66733">
        <ele>407</ele>
        <time>2017-07-01T09:54:55Z</time>
      </trkpt>
      <trkpt lat="45.89045" lon="4.66736">
        <ele>407</ele>
        <time>2017-07-01T09:54:56Z</time>
      </trkpt>
      <trkpt lat="45.89052" lon="4.66743">
        <ele>407</ele>
        <time>2017-07-01T09:55:01Z</time>
      </trkpt>
      <trkpt lat="45.89053" lon="4.66745">
        <ele>407</ele>
        <time>2017-07-01T09:55:02Z</time>
      </trkpt>
      <trkpt lat="45.89058" lon="4.66751">
        <ele>412</ele>
        <time>2017-07-01T09:55:04Z</time>
      </trkpt>
      <trkpt lat="45.8906" lon="4.66755">
        <ele>412</ele>
        <time>2017-07-01T09:55:05Z</time>
      </trkpt>
      <trkpt lat="45.89064" lon="4.66762">
        <ele>412</ele>
        <time>2017-07-01T09:55:07Z</time>
      </trkpt>
      <trkpt lat="45.89066" lon="4.66766">
        <ele>412</ele>
        <time>2017-07-01T09:55:08Z</time>
      </trkpt>
      <trkpt lat="45.89071" lon="4.66771">
        <ele>412</ele>
        <time>2017-07-01T09:55:10Z</time>
      </trkpt>
      <trkpt lat="45.89075" lon="4.66771">
        <ele>412</ele>
        <time>2017-07-01T09:55:11Z</time>
      </trkpt>
      <trkpt lat="45.89081" lon="4.66773">
        <ele>412</ele>
        <time>2017-07-01T09:55:13Z</time>
      </trkpt>
      <trkpt lat="45.89084" lon="4.66774">
        <ele>410</ele>
        <time>2017-07-01T09:55:14Z</time>
      </trkpt>
      <trkpt lat="45.8909" lon="4.66781">
        <ele>410</ele>
        <time>2017-07-01T09:55:17Z</time>
      </trkpt>
      <trkpt lat="45.89091" lon="4.66785">
        <ele>410</ele>
        <time>2017-07-01T09:55:18Z</time>
      </trkpt>
      <trkpt lat="45.89096" lon="4.66794">
        <ele>411</ele>
        <time>2017-07-01T09:55:21Z</time>
      </trkpt>
      <trkpt lat="45.89099" lon="4.66797">
        <ele>411</ele>
        <time>2017-07-01T09:55:22Z</time>
      </trkpt>
      <trkpt lat="45.89107" lon="4.668">
        <ele>411</ele>
        <time>2017-07-01T09:55:24Z</time>
      </trkpt>
      <trkpt lat="45.8911" lon="4.66802">
        <ele>411</ele>
        <time>2017-07-01T09:55:25Z</time>
      </trkpt>
      <trkpt lat="45.89116" lon="4.66807">
        <ele>411</ele>
        <time>2017-07-01T09:55:28Z</time>
      </trkpt>
      <trkpt lat="45.89118" lon="4.66808">
        <ele>411</ele>
        <time>2017-07-01T09:55:29Z</time>
      </trkpt>
      <trkpt lat="45.89122" lon="4.66814">
        <ele>411</ele>
        <time>2017-07-01T09:55:32Z</time>
      </trkpt>
      <trkpt lat="45.89124" lon="4.66817">
        <ele>411</ele>
        <time>2017-07-01T09:55:33Z</time>
      </trkpt>
      <trkpt lat="45.89133" lon="4.66818">
        <ele>411</ele>
        <time>2017-07-01T10:00:32Z</time>
      </trkpt>
      <trkpt lat="45.89136" lon="4.66817">
        <ele>411</ele>
        <time>2017-07-01T10:00:33Z</time>
      </trkpt>
      <trkpt lat="45.89144" lon="4.66813">
        <ele>411</ele>
        <time>2017-07-01T10:00:37Z</time>
      </trkpt>
      <trkpt lat="45.89147" lon="4.66816">
        <ele>411</ele>
        <time>2017-07-01T10:00:38Z</time>
      </trkpt>
      <trkpt lat="45.89154" lon="4.66821">
        <ele>412</ele>
        <time>2017-07-01T10:00:41Z</time>
      </trkpt>
      <trkpt lat="45.89157" lon="4.66821">
        <ele>412</ele>
        <time>2017-07-01T10:00:42Z</time>
      </trkpt>
      <trkpt lat="45.89161" lon="4.66832">
        <ele>413</ele>
        <time>2017-07-01T10:00:45Z</time>
      </trkpt>
      <trkpt lat="45.89161" lon="4.66836">
        <ele>414</ele>
        <time>2017-07-01T10:00:46Z</time>
      </trkpt>
      <trkpt lat="45.89161" lon="4.66845">
        <ele>414</ele>
        <time>2017-07-01T10:00:48Z</time>
      </trkpt>
      <trkpt lat="45.89161" lon="4.6685">
        <ele>414</ele>
        <time>2017-07-01T10:00:49Z</time>
      </trkpt>
      <trkpt lat="45.8916" lon="4.66859">
        <ele>414</ele>
        <time>2017-07-01T10:00:51Z</time>
      </trkpt>
      <trkpt lat="45.8916" lon="4.66864">
        <ele>414</ele>
        <time>2017-07-01T10:00:52Z</time>
      </trkpt>
      <trkpt lat="45.8916" lon="4.66874">
        <ele>414</ele>
        <time>2017-07-01T10:00:54Z</time>
      </trkpt>
      <trkpt lat="45.89159" lon="4.6688">
        <ele>414</ele>
        <time>2017-07-01T10:00:55Z</time>
      </trkpt>
      <trkpt lat="45.8916" lon="4.66891">
        <ele>414</ele>
        <time>2017-07-01T10:00:57Z</time>
      </trkpt>
      <trkpt lat="45.89162" lon="4.66897">
        <ele>415</ele>
        <time>2017-07-01T10:00:58Z</time>
      </trkpt>
      <trkpt lat="45.89166" lon="4.66906">
        <ele>415</ele>
        <time>2017-07-01T10:01:00Z</time>
      </trkpt>
      <trkpt lat="45.89167" lon="4.66911">
        <ele>415</ele>
        <time>2017-07-01T10:01:01Z</time>
      </trkpt>
      <trkpt lat="45.89169" lon="4.6692">
        <ele>415</ele>
        <time>2017-07-01T10:01:03Z</time>
      </trkpt>
      <trkpt lat="45.8917" lon="4.66925">
        <ele>415</ele>
        <time>2017-07-01T10:01:04Z</time>
      </trkpt>
      <trkpt lat="45.89172" lon="4.66935">
        <ele>415</ele>
        <time>2017-07-01T10:01:06Z</time>
      </trkpt>
      <trkpt lat="45.89174" lon="4.66941">
        <ele>415</ele>
        <time>2017-07-01T10:01:07Z</time>
      </trkpt>
      <trkpt lat="45.89177" lon="4.66951">
        <ele>415</ele>
        <time>2017-07-01T10:01:09Z</time>
      </trkpt>
      <trkpt lat="45.89178" lon="4.66957">
        <ele>415</ele>
        <time>2017-07-01T10:01:10Z</time>
      </trkpt>
      <trkpt lat="45.89181" lon="4.66968">
        <ele>415</ele>
        <time>2017-07-01T10:01:12Z</time>
      </trkpt>
      <trkpt lat="45.89182" lon="4.66974">
        <ele>415</ele>
        <time>2017-07-01T10:01:13Z</time>
      </trkpt>
      <trkpt lat="45.89186" lon="4.66984">
        <ele>414</ele>
        <time>2017-07-01T10:01:15Z</time>
      </trkpt>
      <trkpt lat="45.89188" lon="4.66989">
        <ele>414</ele>
        <time>2017-07-01T10:01:16Z</time>
      </trkpt>
      <trkpt lat="45.8919" lon="4.66999">
        <ele>414</ele>
        <time>2017-07-01T10:01:18Z</time>
      </trkpt>
      <trkpt lat="45.89191" lon="4.67005">
        <ele>413</ele>
        <time>2017-07-01T10:01:19Z</time>
      </trkpt>
      <trkpt lat="45.89191" lon="4.67011">
        <ele>413</ele>
        <time>2017-07-01T10:01:20Z</time>
      </trkpt>
      <trkpt lat="45.89192" lon="4.67018">
        <ele>413</ele>
        <time>2017-07-01T10:01:21Z</time>
      </trkpt>
      <trkpt lat="45.89193" lon="4.67024">
        <ele>413</ele>
        <time>2017-07-01T10:01:22Z</time>
      </trkpt>
      <trkpt lat="45.89194" lon="4.67031">
        <ele>413</ele>
        <time>2017-07-01T10:01:23Z</time>
      </trkpt>
      <trkpt lat="45.89196" lon="4.67037">
        <ele>413</ele>
        <time>2017-07-01T10:01:24Z</time>
      </trkpt>
      <trkpt lat="45.89198" lon="4.67043">
        <ele>413</ele>
        <time>2017-07-01T10:01:25Z</time>
      </trkpt>
      <trkpt lat="45.89201" lon="4.67054">
        <ele>412</ele>
        <time>2017-07-01T10:01:27Z</time>
      </trkpt>
      <trkpt lat="45.89204" lon="4.67059">
        <ele>412</ele>
        <time>2017-07-01T10:01:28Z</time>
      </trkpt>
      <trkpt lat="45.89208" lon="4.67069">
        <ele>413</ele>
        <time>2017-07-01T10:01:30Z</time>
      </trkpt>
      <trkpt lat="45.89209" lon="4.67074">
        <ele>413</ele>
        <time>2017-07-01T10:01:31Z</time>
      </trkpt>
      <trkpt lat="45.89213" lon="4.67086">
        <ele>410</ele>
        <time>2017-07-01T10:01:33Z</time>
      </trkpt>
      <trkpt lat="45.89215" lon="4.67092">
        <ele>411</ele>
        <time>2017-07-01T10:01:34Z</time>
      </trkpt>
      <trkpt lat="45.89217" lon="4.67098">
        <ele>411</ele>
        <time>2017-07-01T10:01:35Z</time>
      </trkpt>
      <trkpt lat="45.8922" lon="4.67104">
        <ele>411</ele>
        <time>2017-07-01T10:01:36Z</time>
      </trkpt>
      <trkpt lat="45.89223" lon="4.67109">
        <ele>411</ele>
        <time>2017-07-01T10:01:37Z</time>
      </trkpt>
      <trkpt lat="45.89226" lon="4.67114">
        <ele>411</ele>
        <time>2017-07-01T10:01:38Z</time>
      </trkpt>
      <trkpt lat="45.89229" lon="4.67119">
        <ele>411</ele>
        <time>2017-07-01T10:01:39Z</time>
      </trkpt>
      <trkpt lat="45.89232" lon="4.67124">
        <ele>411</ele>
        <time>2017-07-01T10:01:40Z</time>
      </trkpt>
      <trkpt lat="45.89235" lon="4.67129">
        <ele>411</ele>
        <time>2017-07-01T10:01:41Z</time>
      </trkpt>
      <trkpt lat="45.89238" lon="4.67134">
        <ele>411</ele>
        <time>2017-07-01T10:01:42Z</time>
      </trkpt>
      <trkpt lat="45.89241" lon="4.67139">
        <ele>411</ele>
        <time>2017-07-01T10:01:43Z</time>
      </trkpt>
      <trkpt lat="45.89244" lon="4.67144">
        <ele>411</ele>
        <time>2017-07-01T10:01:44Z</time>
      </trkpt>
      <trkpt lat="45.89247" lon="4.6715">
        <ele>411</ele>
        <time>2017-07-01T10:01:45Z</time>
      </trkpt>
      <trkpt lat="45.8925" lon="4.67155">
        <ele>415</ele>
        <time>2017-07-01T10:01:46Z</time>
      </trkpt>
      <trkpt lat="45.89254" lon="4.67161">
        <ele>414</ele>
        <time>2017-07-01T10:01:47Z</time>
      </trkpt>
      <trkpt lat="45.89258" lon="4.67166">
        <ele>414</ele>
        <time>2017-07-01T10:01:48Z</time>
      </trkpt>
      <trkpt lat="45.89262" lon="4.67171">
        <ele>412</ele>
        <time>2017-07-01T10:01:49Z</time>
      </trkpt>
      <trkpt lat="45.89266" lon="4.67176">
        <ele>412</ele>
        <time>2017-07-01T10:01:50Z</time>
      </trkpt>
      <trkpt lat="45.89271" lon="4.6718">
        <ele>412</ele>
        <time>2017-07-01T10:01:51Z</time>
      </trkpt>
      <trkpt lat="45.89276" lon="4.67185">
        <ele>412</ele>
        <time>2017-07-01T10:01:52Z</time>
      </trkpt>
      <trkpt lat="45.89281" lon="4.67189">
        <ele>412</ele>
        <time>2017-07-01T10:01:53Z</time>
      </trkpt>
      <trkpt lat="45.89287" lon="4.67193">
        <ele>412</ele>
        <time>2017-07-01T10:01:54Z</time>
      </trkpt>
      <trkpt lat="45.89292" lon="4.67196">
        <ele>412</ele>
        <time>2017-07-01T10:01:55Z</time>
      </trkpt>
      <trkpt lat="45.89298" lon="4.67199">
        <ele>412</ele>
        <time>2017-07-01T10:01:56Z</time>
      </trkpt>
      <trkpt lat="45.89304" lon="4.67202">
        <ele>412</ele>
        <time>2017-07-01T10:01:57Z</time>
      </trkpt>
      <trkpt lat="45.89309" lon="4.67205">
        <ele>412</ele>
        <time>2017-07-01T10:01:58Z</time>
      </trkpt>
      <trkpt lat="45.89315" lon="4.67207">
        <ele>412</ele>
        <time>2017-07-01T10:01:59Z</time>
      </trkpt>
      <trkpt lat="45.8932" lon="4.6721">
        <ele>411</ele>
        <time>2017-07-01T10:02:00Z</time>
      </trkpt>
      <trkpt lat="45.89325" lon="4.67213">
        <ele>411</ele>
        <time>2017-07-01T10:02:01Z</time>
      </trkpt>
      <trkpt lat="45.8933" lon="4.67215">
        <ele>411</ele>
        <time>2017-07-01T10:02:02Z</time>
      </trkpt>
      <trkpt lat="45.89336" lon="4.67218">
        <ele>415</ele>
        <time>2017-07-01T10:02:03Z</time>
      </trkpt>
      <trkpt lat="45.89341" lon="4.67221">
        <ele>415</ele>
        <time>2017-07-01T10:02:04Z</time>
      </trkpt>
      <trkpt lat="45.89346" lon="4.67224">
        <ele>415</ele>
        <time>2017-07-01T10:02:05Z</time>
      </trkpt>
      <trkpt lat="45.89351" lon="4.67227">
        <ele>415</ele>
        <time>2017-07-01T10:02:06Z</time>
      </trkpt>
      <trkpt lat="45.89356" lon="4.6723">
        <ele>415</ele>
        <time>2017-07-01T10:02:07Z</time>
      </trkpt>
      <trkpt lat="45.89361" lon="4.67233">
        <ele>415</ele>
        <time>2017-07-01T10:02:08Z</time>
      </trkpt>
      <trkpt lat="45.89366" lon="4.67238">
        <ele>415</ele>
        <time>2017-07-01T10:02:09Z</time>
      </trkpt>
      <trkpt lat="45.8937" lon="4.67245">
        <ele>415</ele>
        <time>2017-07-01T10:02:10Z</time>
      </trkpt>
      <trkpt lat="45.89374" lon="4.67252">
        <ele>409</ele>
        <time>2017-07-01T10:02:11Z</time>
      </trkpt>
      <trkpt lat="45.89378" lon="4.67259">
        <ele>409</ele>
        <time>2017-07-01T10:02:12Z</time>
      </trkpt>
      <trkpt lat="45.89382" lon="4.67265">
        <ele>409</ele>
        <time>2017-07-01T10:02:13Z</time>
      </trkpt>
      <trkpt lat="45.89385" lon="4.67271">
        <ele>409</ele>
        <time>2017-07-01T10:02:14Z</time>
      </trkpt>
      <trkpt lat="45.89388" lon="4.67278">
        <ele>409</ele>
        <time>2017-07-01T10:02:15Z</time>
      </trkpt>
      <trkpt lat="45.89391" lon="4.67284">
        <ele>409</ele>
        <time>2017-07-01T10:02:16Z</time>
      </trkpt>
      <trkpt lat="45.89395" lon="4.67294">
        <ele>408</ele>
        <time>2017-07-01T10:02:19Z</time>
      </trkpt>
      <trkpt lat="45.89395" lon="4.67294">
        <ele>408</ele>
        <time>2017-07-01T10:02:20Z</time>
      </trkpt>
      <trkpt lat="45.89394" lon="4.67294">
        <ele>408</ele>
        <time>2017-07-01T10:02:43Z</time>
      </trkpt>
      <trkpt lat="45.89394" lon="4.67294">
        <ele>408</ele>
        <time>2017-07-01T10:02:44Z</time>
      </trkpt>
      <trkpt lat="45.894" lon="4.67303">
        <ele>408</ele>
        <time>2017-07-01T10:02:49Z</time>
      </trkpt>
      <trkpt lat="45.89402" lon="4.67307">
        <ele>408</ele>
        <time>2017-07-01T10:02:50Z</time>
      </trkpt>
      <trkpt lat="45.89407" lon="4.67316">
        <ele>407</ele>
        <time>2017-07-01T10:02:52Z</time>
      </trkpt>
      <trkpt lat="45.89411" lon="4.67321">
        <ele>407</ele>
        <time>2017-07-01T10:02:53Z</time>
      </trkpt>
      <trkpt lat="45.89415" lon="4.67326">
        <ele>407</ele>
        <time>2017-07-01T10:02:54Z</time>
      </trkpt>
      <trkpt lat="45.89419" lon="4.67331">
        <ele>408</ele>
        <time>2017-07-01T10:02:55Z</time>
      </trkpt>
      <trkpt lat="45.89423" lon="4.67335">
        <ele>407</ele>
        <time>2017-07-01T10:02:56Z</time>
      </trkpt>
      <trkpt lat="45.89427" lon="4.6734">
        <ele>407</ele>
        <time>2017-07-01T10:02:57Z</time>
      </trkpt>
      <trkpt lat="45.89431" lon="4.67345">
        <ele>407</ele>
        <time>2017-07-01T10:02:58Z</time>
      </trkpt>
      <trkpt lat="45.89436" lon="4.67349">
        <ele>407</ele>
        <time>2017-07-01T10:02:59Z</time>
      </trkpt>
      <trkpt lat="45.89441" lon="4.67354">
        <ele>407</ele>
        <time>2017-07-01T10:03:00Z</time>
      </trkpt>
      <trkpt lat="45.89446" lon="4.67359">
        <ele>407</ele>
        <time>2017-07-01T10:03:01Z</time>
      </trkpt>
      <trkpt lat="45.8945" lon="4.67364">
        <ele>407</ele>
        <time>2017-07-01T10:03:02Z</time>
      </trkpt>
      <trkpt lat="45.89456" lon="4.67369">
        <ele>407</ele>
        <time>2017-07-01T10:03:03Z</time>
      </trkpt>
      <trkpt lat="45.89461" lon="4.67373">
        <ele>407</ele>
        <time>2017-07-01T10:03:04Z</time>
      </trkpt>
      <trkpt lat="45.89466" lon="4.67378">
        <ele>407</ele>
        <time>2017-07-01T10:03:05Z</time>
      </trkpt>
      <trkpt lat="45.89472" lon="4.67382">
        <ele>407</ele>
        <time>2017-07-01T10:03:06Z</time>
      </trkpt>
      <trkpt lat="45.89477" lon="4.67387">
        <ele>407</ele>
        <time>2017-07-01T10:03:07Z</time>
      </trkpt>
      <trkpt lat="45.89483" lon="4.67391">
        <ele>407</ele>
        <time>2017-07-01T10:03:08Z</time>
      </trkpt>
      <trkpt lat="45.89489" lon="4.67395">
        <ele>406</ele>
        <time>2017-07-01T10:03:09Z</time>
      </trkpt>
      <trkpt lat="45.89494" lon="4.67399">
        <ele>406</ele>
        <time>2017-07-01T10:03:10Z</time>
      </trkpt>
      <trkpt lat="45.895" lon="4.67403">
        <ele>406</ele>
        <time>2017-07-01T10:03:11Z</time>
      </trkpt>
      <trkpt lat="45.89506" lon="4.67408">
        <ele>407</ele>
        <time>2017-07-01T10:03:12Z</time>
      </trkpt>
      <trkpt lat="45.89511" lon="4.67412">
        <ele>407</ele>
        <time>2017-07-01T10:03:13Z</time>
      </trkpt>
      <trkpt lat="45.89516" lon="4.67415">
        <ele>408</ele>
        <time>2017-07-01T10:03:14Z</time>
      </trkpt>
      <trkpt lat="45.89521" lon="4.67418">
        <ele>402</ele>
        <time>2017-07-01T10:03:15Z</time>
      </trkpt>
      <trkpt lat="45.89527" lon="4.67421">
        <ele>402</ele>
        <time>2017-07-01T10:03:16Z</time>
      </trkpt>
      <trkpt lat="45.89534" lon="4.67425">
        <ele>402</ele>
        <time>2017-07-01T10:03:17Z</time>
      </trkpt>
      <trkpt lat="45.8954" lon="4.67431">
        <ele>402</ele>
        <time>2017-07-01T10:03:18Z</time>
      </trkpt>
      <trkpt lat="45.89547" lon="4.67434">
        <ele>402</ele>
        <time>2017-07-01T10:03:19Z</time>
      </trkpt>
      <trkpt lat="45.89553" lon="4.67437">
        <ele>402</ele>
        <time>2017-07-01T10:03:20Z</time>
      </trkpt>
      <trkpt lat="45.89559" lon="4.67439">
        <ele>402</ele>
        <time>2017-07-01T10:03:21Z</time>
      </trkpt>
      <trkpt lat="45.89565" lon="4.67442">
        <ele>402</ele>
        <time>2017-07-01T10:03:22Z</time>
      </trkpt>
      <trkpt lat="45.89571" lon="4.67444">
        <ele>402</ele>
        <time>2017-07-01T10:03:23Z</time>
      </trkpt>
      <trkpt lat="45.89577" lon="4.67446">
        <ele>402</ele>
        <time>2017-07-01T10:03:24Z</time>
      </trkpt>
      <trkpt lat="45.89583" lon="4.67449">
        <ele>402</ele>
        <time>2017-07-01T10:03:25Z</time>
      </trkpt>
      <trkpt lat="45.89589" lon="4.67451">
        <ele>404</ele>
        <time>2017-07-01T10:03:26Z</time>
      </trkpt>
      <trkpt lat="45.89596" lon="4.67453">
        <ele>404</ele>
        <time>2017-07-01T10:03:27Z</time>
      </trkpt>
      <trkpt lat="45.89604" lon="4.67455">
        <ele>403</ele>
        <time>2017-07-01T10:03:28Z</time>
      </trkpt>
      <trkpt lat="45.89612" lon="4.67458">
        <ele>403</ele>
        <time>2017-07-01T10:03:29Z</time>
      </trkpt>
      <trkpt lat="45.8962" lon="4.6746">
        <ele>403</ele>
        <time>2017-07-01T10:03:30Z</time>
      </trkpt>
      <trkpt lat="45.89627" lon="4.67463">
        <ele>403</ele>
        <time>2017-07-01T10:03:31Z</time>
      </trkpt>
      <trkpt lat="45.89634" lon="4.67465">
        <ele>403</ele>
        <time>2017-07-01T10:03:32Z</time>
      </trkpt>
      <trkpt lat="45.89641" lon="4.67467">
        <ele>403</ele>
        <time>2017-07-01T10:03:33Z</time>
      </trkpt>
      <trkpt lat="45.89648" lon="4.67469">
        <ele>403</ele>
        <time>2017-07-01T10:03:34Z</time>
      </trkpt>
      <trkpt lat="45.89655" lon="4.67471">
        <ele>402</ele>
        <time>2017-07-01T10:03:35Z</time>
      </trkpt>
      <trkpt lat="45.89662" lon="4.67474">
        <ele>402</ele>
        <time>2017-07-01T10:03:36Z</time>
      </trkpt>
      <trkpt lat="45.89669" lon="4.67477">
        <ele>402</ele>
        <time>2017-07-01T10:03:37Z</time>
      </trkpt>
      <trkpt lat="45.89676" lon="4.6748">
        <ele>402</ele>
        <time>2017-07-01T10:03:38Z</time>
      </trkpt>
      <trkpt lat="45.89683" lon="4.67482">
        <ele>402</ele>
        <time>2017-07-01T10:03:39Z</time>
      </trkpt>
      <trkpt lat="45.89691" lon="4.67485">
        <ele>402</ele>
        <time>2017-07-01T10:03:40Z</time>
      </trkpt>
      <trkpt lat="45.89698" lon="4.67487">
        <ele>402</ele>
        <time>2017-07-01T10:03:41Z</time>
      </trkpt>
      <trkpt lat="45.89705" lon="4.67489">
        <ele>402</ele>
        <time>2017-07-01T10:03:42Z</time>
      </trkpt>
      <trkpt lat="45.89712" lon="4.67491">
        <ele>402</ele>
        <time>2017-07-01T10:03:43Z</time>
      </trkpt>
      <trkpt lat="45.89719" lon="4.67493">
        <ele>402</ele>
        <time>2017-07-01T10:03:44Z</time>
      </trkpt>
      <trkpt lat="45.89725" lon="4.67495">
        <ele>402</ele>
        <time>2017-07-01T10:03:45Z</time>
      </trkpt>
      <trkpt lat="45.89733" lon="4.67497">
        <ele>401</ele>
        <time>2017-07-01T10:03:46Z</time>
      </trkpt>
      <trkpt lat="45.8974" lon="4.67498">
        <ele>401</ele>
        <time>2017-07-01T10:03:47Z</time>
      </trkpt>
      <trkpt lat="45.89747" lon="4.67498">
        <ele>400</ele>
        <time>2017-07-01T10:03:48Z</time>
      </trkpt>
      <trkpt lat="45.89756" lon="4.67498">
        <ele>399</ele>
        <time>2017-07-01T10:03:49Z</time>
      </trkpt>
      <trkpt lat="45.89764" lon="4.67498">
        <ele>399</ele>
        <time>2017-07-01T10:03:50Z</time>
      </trkpt>
      <trkpt lat="45.89772" lon="4.67496">
        <ele>399</ele>
        <time>2017-07-01T10:03:51Z</time>
      </trkpt>
      <trkpt lat="45.8978" lon="4.67493">
        <ele>399</ele>
        <time>2017-07-01T10:03:52Z</time>
      </trkpt>
      <trkpt lat="45.89788" lon="4.6749">
        <ele>399</ele>
        <time>2017-07-01T10:03:53Z</time>
      </trkpt>
      <trkpt lat="45.89795" lon="4.67486">
        <ele>399</ele>
        <time>2017-07-01T10:03:54Z</time>
      </trkpt>
      <trkpt lat="45.89803" lon="4.6748">
        <ele>398</ele>
        <time>2017-07-01T10:03:55Z</time>
      </trkpt>
      <trkpt lat="45.89809" lon="4.67472">
        <ele>398</ele>
        <time>2017-07-01T10:03:56Z</time>
      </trkpt>
      <trkpt lat="45.89814" lon="4.67461">
        <ele>399</ele>
        <time>2017-07-01T10:03:57Z</time>
      </trkpt>
      <trkpt lat="45.89818" lon="4.6745">
        <ele>399</ele>
        <time>2017-07-01T10:03:58Z</time>
      </trkpt>
      <trkpt lat="45.8982" lon="4.67438">
        <ele>399</ele>
        <time>2017-07-01T10:03:59Z</time>
      </trkpt>
      <trkpt lat="45.89822" lon="4.67426">
        <ele>398</ele>
        <time>2017-07-01T10:04:00Z</time>
      </trkpt>
      <trkpt lat="45.89824" lon="4.67415">
        <ele>400</ele>
        <time>2017-07-01T10:04:01Z</time>
      </trkpt>
      <trkpt lat="45.89827" lon="4.67403">
        <ele>401</ele>
        <time>2017-07-01T10:04:02Z</time>
      </trkpt>
      <trkpt lat="45.8983" lon="4.67393">
        <ele>403</ele>
        <time>2017-07-01T10:04:03Z</time>
      </trkpt>
      <trkpt lat="45.89834" lon="4.67383">
        <ele>398</ele>
        <time>2017-07-01T10:04:04Z</time>
      </trkpt>
      <trkpt lat="45.89839" lon="4.67374">
        <ele>398</ele>
        <time>2017-07-01T10:04:05Z</time>
      </trkpt>
      <trkpt lat="45.89845" lon="4.67366">
        <ele>399</ele>
        <time>2017-07-01T10:04:06Z</time>
      </trkpt>
      <trkpt lat="45.89851" lon="4.6736">
        <ele>399</ele>
        <time>2017-07-01T10:04:07Z</time>
      </trkpt>
      <trkpt lat="45.89858" lon="4.67355">
        <ele>399</ele>
        <time>2017-07-01T10:04:08Z</time>
      </trkpt>
      <trkpt lat="45.89866" lon="4.67352">
        <ele>399</ele>
        <time>2017-07-01T10:04:09Z</time>
      </trkpt>
      <trkpt lat="45.89874" lon="4.67349">
        <ele>399</ele>
        <time>2017-07-01T10:04:10Z</time>
      </trkpt>
      <trkpt lat="45.89882" lon="4.67348">
        <ele>398</ele>
        <time>2017-07-01T10:04:11Z</time>
      </trkpt>
      <trkpt lat="45.89891" lon="4.67348">
        <ele>398</ele>
        <time>2017-07-01T10:04:12Z</time>
      </trkpt>
      <trkpt lat="45.89899" lon="4.6735">
        <ele>398</ele>
        <time>2017-07-01T10:04:13Z</time>
      </trkpt>
      <trkpt lat="45.89908" lon="4.67353">
        <ele>398</ele>
        <time>2017-07-01T10:04:14Z</time>
      </trkpt>
      <trkpt lat="45.89916" lon="4.67356">
        <ele>398</ele>
        <time>2017-07-01T10:04:15Z</time>
      </trkpt>
      <trkpt lat="45.89924" lon="4.67359">
        <ele>396</ele>
        <time>2017-07-01T10:04:16Z</time>
      </trkpt>
      <trkpt lat="45.89932" lon="4.67363">
        <ele>395</ele>
        <time>2017-07-01T10:04:17Z</time>
      </trkpt>
      <trkpt lat="45.8994" lon="4.67366">
        <ele>394</ele>
        <time>2017-07-01T10:04:18Z</time>
      </trkpt>
      <trkpt lat="45.89949" lon="4.67369">
        <ele>394</ele>
        <time>2017-07-01T10:04:19Z</time>
      </trkpt>
      <trkpt lat="45.89957" lon="4.67373">
        <ele>394</ele>
        <time>2017-07-01T10:04:20Z</time>
      </trkpt>
      <trkpt lat="45.89965" lon="4.67375">
        <ele>394</ele>
        <time>2017-07-01T10:04:21Z</time>
      </trkpt>
      <trkpt lat="45.89974" lon="4.67378">
        <ele>393</ele>
        <time>2017-07-01T10:04:22Z</time>
      </trkpt>
      <trkpt lat="45.89983" lon="4.67382">
        <ele>393</ele>
        <time>2017-07-01T10:04:23Z</time>
      </trkpt>
      <trkpt lat="45.89991" lon="4.67386">
        <ele>392</ele>
        <time>2017-07-01T10:04:24Z</time>
      </trkpt>
      <trkpt lat="45.9" lon="4.6739">
        <ele>391</ele>
        <time>2017-07-01T10:04:25Z</time>
      </trkpt>
      <trkpt lat="45.90009" lon="4.67396">
        <ele>393</ele>
        <time>2017-07-01T10:04:26Z</time>
      </trkpt>
      <trkpt lat="45.90017" lon="4.67402">
        <ele>393</ele>
        <time>2017-07-01T10:04:27Z</time>
      </trkpt>
      <trkpt lat="45.90025" lon="4.67408">
        <ele>394</ele>
        <time>2017-07-01T10:04:28Z</time>
      </trkpt>
      <trkpt lat="45.90033" lon="4.67413">
        <ele>394</ele>
        <time>2017-07-01T10:04:29Z</time>
      </trkpt>
      <trkpt lat="45.9004" lon="4.6742">
        <ele>385</ele>
        <time>2017-07-01T10:04:30Z</time>
      </trkpt>
      <trkpt lat="45.90048" lon="4.67428">
        <ele>385</ele>
        <time>2017-07-01T10:04:31Z</time>
      </trkpt>
      <trkpt lat="45.90054" lon="4.67435">
        <ele>385</ele>
        <time>2017-07-01T10:04:32Z</time>
      </trkpt>
      <trkpt lat="45.90061" lon="4.67444">
        <ele>385</ele>
        <time>2017-07-01T10:04:33Z</time>
      </trkpt>
      <trkpt lat="45.90068" lon="4.67452">
        <ele>384</ele>
        <time>2017-07-01T10:04:34Z</time>
      </trkpt>
      <trkpt lat="45.90076" lon="4.6746">
        <ele>383</ele>
        <time>2017-07-01T10:04:35Z</time>
      </trkpt>
      <trkpt lat="45.90083" lon="4.67467">
        <ele>382</ele>
        <time>2017-07-01T10:04:36Z</time>
      </trkpt>
      <trkpt lat="45.9009" lon="4.67475">
        <ele>385</ele>
        <time>2017-07-01T10:04:37Z</time>
      </trkpt>
      <trkpt lat="45.90097" lon="4.67483">
        <ele>384</ele>
        <time>2017-07-01T10:04:38Z</time>
      </trkpt>
      <trkpt lat="45.90104" lon="4.67491">
        <ele>384</ele>
        <time>2017-07-01T10:04:39Z</time>
      </trkpt>
      <trkpt lat="45.9011" lon="4.67501">
        <ele>377</ele>
        <time>2017-07-01T10:04:40Z</time>
      </trkpt>
      <trkpt lat="45.90116" lon="4.67511">
        <ele>377</ele>
        <time>2017-07-01T10:04:41Z</time>
      </trkpt>
      <trkpt lat="45.90122" lon="4.6752">
        <ele>378</ele>
        <time>2017-07-01T10:04:42Z</time>
      </trkpt>
      <trkpt lat="45.90128" lon="4.67531">
        <ele>377</ele>
        <time>2017-07-01T10:04:43Z</time>
      </trkpt>
      <trkpt lat="45.90134" lon="4.67541">
        <ele>377</ele>
        <time>2017-07-01T10:04:44Z</time>
      </trkpt>
      <trkpt lat="45.90139" lon="4.67552">
        <ele>377</ele>
        <time>2017-07-01T10:04:45Z</time>
      </trkpt>
      <trkpt lat="45.90145" lon="4.67563">
        <ele>376</ele>
        <time>2017-07-01T10:04:46Z</time>
      </trkpt>
      <trkpt lat="45.90151" lon="4.67573">
        <ele>376</ele>
        <time>2017-07-01T10:04:47Z</time>
      </trkpt>
      <trkpt lat="45.90158" lon="4.67582">
        <ele>376</ele>
        <time>2017-07-01T10:04:48Z</time>
      </trkpt>
      <trkpt lat="45.90165" lon="4.6759">
        <ele>374</ele>
        <time>2017-07-01T10:04:49Z</time>
      </trkpt>
      <trkpt lat="45.90173" lon="4.67598">
        <ele>376</ele>
        <time>2017-07-01T10:04:50Z</time>
      </trkpt>
      <trkpt lat="45.9018" lon="4.67606">
        <ele>376</ele>
        <time>2017-07-01T10:04:51Z</time>
      </trkpt>
      <trkpt lat="45.90187" lon="4.67614">
        <ele>376</ele>
        <time>2017-07-01T10:04:52Z</time>
      </trkpt>
      <trkpt lat="45.90195" lon="4.67623">
        <ele>376</ele>
        <time>2017-07-01T10:04:53Z</time>
      </trkpt>
      <trkpt lat="45.90202" lon="4.67631">
        <ele>375</ele>
        <time>2017-07-01T10:04:54Z</time>
      </trkpt>
      <trkpt lat="45.9021" lon="4.67639">
        <ele>375</ele>
        <time>2017-07-01T10:04:55Z</time>
      </trkpt>
      <trkpt lat="45.90218" lon="4.67647">
        <ele>375</ele>
        <time>2017-07-01T10:04:56Z</time>
      </trkpt>
      <trkpt lat="45.90225" lon="4.67655">
        <ele>375</ele>
        <time>2017-07-01T10:04:57Z</time>
      </trkpt>
      <trkpt lat="45.90233" lon="4.67662">
        <ele>375</ele>
        <time>2017-07-01T10:04:58Z</time>
      </trkpt>
      <trkpt lat="45.90241" lon="4.67668">
        <ele>373</ele>
        <time>2017-07-01T10:04:59Z</time>
      </trkpt>
      <trkpt lat="45.90248" lon="4.67673">
        <ele>373</ele>
        <time>2017-07-01T10:05:00Z</time>
      </trkpt>
      <trkpt lat="45.90256" lon="4.67678">
        <ele>374</ele>
        <time>2017-07-01T10:05:01Z</time>
      </trkpt>
      <trkpt lat="45.90264" lon="4.67682">
        <ele>374</ele>
        <time>2017-07-01T10:05:02Z</time>
      </trkpt>
      <trkpt lat="45.90272" lon="4.67685">
        <ele>374</ele>
        <time>2017-07-01T10:05:03Z</time>
      </trkpt>
      <trkpt lat="45.90279" lon="4.67689">
        <ele>374</ele>
        <time>2017-07-01T10:05:04Z</time>
      </trkpt>
      <trkpt lat="45.90287" lon="4.67691">
        <ele>374</ele>
        <time>2017-07-01T10:05:05Z</time>
      </trkpt>
      <trkpt lat="45.90295" lon="4.67694">
        <ele>374</ele>
        <time>2017-07-01T10:05:06Z</time>
      </trkpt>
      <trkpt lat="45.90303" lon="4.67697">
        <ele>374</ele>
        <time>2017-07-01T10:05:07Z</time>
      </trkpt>
      <trkpt lat="45.90311" lon="4.677">
        <ele>374</ele>
        <time>2017-07-01T10:05:08Z</time>
      </trkpt>
      <trkpt lat="45.90319" lon="4.67703">
        <ele>374</ele>
        <time>2017-07-01T10:05:09Z</time>
      </trkpt>
      <trkpt lat="45.90327" lon="4.67706">
        <ele>374</ele>
        <time>2017-07-01T10:05:10Z</time>
      </trkpt>
      <trkpt lat="45.90335" lon="4.6771">
        <ele>372</ele>
        <time>2017-07-01T10:05:11Z</time>
      </trkpt>
      <trkpt lat="45.90343" lon="4.67713">
        <ele>372</ele>
        <time>2017-07-01T10:05:12Z</time>
      </trkpt>
      <trkpt lat="45.90351" lon="4.67716">
        <ele>371</ele>
        <time>2017-07-01T10:05:13Z</time>
      </trkpt>
      <trkpt lat="45.9036" lon="4.6772">
        <ele>371</ele>
        <time>2017-07-01T10:05:14Z</time>
      </trkpt>
      <trkpt lat="45.90368" lon="4.67723">
        <ele>371</ele>
        <time>2017-07-01T10:05:15Z</time>
      </trkpt>
      <trkpt lat="45.90377" lon="4.67725">
        <ele>370</ele>
        <time>2017-07-01T10:05:16Z</time>
      </trkpt>
      <trkpt lat="45.90385" lon="4.67728">
        <ele>370</ele>
        <time>2017-07-01T10:05:17Z</time>
      </trkpt>
      <trkpt lat="45.90394" lon="4.67732">
        <ele>369</ele>
        <time>2017-07-01T10:05:18Z</time>
      </trkpt>
      <trkpt lat="45.90403" lon="4.67735">
        <ele>368</ele>
        <time>2017-07-01T10:05:19Z</time>
      </trkpt>
      <trkpt lat="45.90411" lon="4.67738">
        <ele>367</ele>
        <time>2017-07-01T10:05:20Z</time>
      </trkpt>
      <trkpt lat="45.9042" lon="4.67741">
        <ele>366</ele>
        <time>2017-07-01T10:05:21Z</time>
      </trkpt>
      <trkpt lat="45.90429" lon="4.67744">
        <ele>366</ele>
        <time>2017-07-01T10:05:22Z</time>
      </trkpt>
      <trkpt lat="45.90437" lon="4.67747">
        <ele>366</ele>
        <time>2017-07-01T10:05:23Z</time>
      </trkpt>
      <trkpt lat="45.90446" lon="4.6775">
        <ele>367</ele>
        <time>2017-07-01T10:05:24Z</time>
      </trkpt>
      <trkpt lat="45.90455" lon="4.67753">
        <ele>364</ele>
        <time>2017-07-01T10:05:25Z</time>
      </trkpt>
      <trkpt lat="45.90463" lon="4.67757">
        <ele>364</ele>
        <time>2017-07-01T10:05:26Z</time>
      </trkpt>
      <trkpt lat="45.90472" lon="4.6776">
        <ele>364</ele>
        <time>2017-07-01T10:05:27Z</time>
      </trkpt>
      <trkpt lat="45.9048" lon="4.67763">
        <ele>364</ele>
        <time>2017-07-01T10:05:28Z</time>
      </trkpt>
      <trkpt lat="45.90489" lon="4.67766">
        <ele>364</ele>
        <time>2017-07-01T10:05:29Z</time>
      </trkpt>
      <trkpt lat="45.90497" lon="4.67769">
        <ele>364</ele>
        <time>2017-07-01T10:05:30Z</time>
      </trkpt>
      <trkpt lat="45.90506" lon="4.67772">
        <ele>364</ele>
        <time>2017-07-01T10:05:31Z</time>
      </trkpt>
      <trkpt lat="45.90514" lon="4.67776">
        <ele>365</ele>
        <time>2017-07-01T10:05:32Z</time>
      </trkpt>
      <trkpt lat="45.90522" lon="4.67779">
        <ele>365</ele>
        <time>2017-07-01T10:05:33Z</time>
      </trkpt>
      <trkpt lat="45.9053" lon="4.67781">
        <ele>365</ele>
        <time>2017-07-01T10:05:34Z</time>
      </trkpt>
      <trkpt lat="45.90537" lon="4.67784">
        <ele>365</ele>
        <time>2017-07-01T10:05:35Z</time>
      </trkpt>
      <trkpt lat="45.90544" lon="4.67786">
        <ele>365</ele>
        <time>2017-07-01T10:05:36Z</time>
      </trkpt>
      <trkpt lat="45.90551" lon="4.6779">
        <ele>365</ele>
        <time>2017-07-01T10:05:37Z</time>
      </trkpt>
      <trkpt lat="45.90558" lon="4.67792">
        <ele>365</ele>
        <time>2017-07-01T10:05:38Z</time>
      </trkpt>
      <trkpt lat="45.90565" lon="4.67794">
        <ele>365</ele>
        <time>2017-07-01T10:05:39Z</time>
      </trkpt>
      <trkpt lat="45.90571" lon="4.67795">
        <ele>365</ele>
        <time>2017-07-01T10:05:40Z</time>
      </trkpt>
      <trkpt lat="45.90577" lon="4.67796">
        <ele>366</ele>
        <time>2017-07-01T10:05:41Z</time>
      </trkpt>
      <trkpt lat="45.90583" lon="4.67797">
        <ele>366</ele>
        <time>2017-07-01T10:05:42Z</time>
      </trkpt>
      <trkpt lat="45.90589" lon="4.67797">
        <ele>367</ele>
        <time>2017-07-01T10:05:43Z</time>
      </trkpt>
      <trkpt lat="45.90596" lon="4.67798">
        <ele>367</ele>
        <time>2017-07-01T10:05:44Z</time>
      </trkpt>
      <trkpt lat="45.90603" lon="4.67798">
        <ele>367</ele>
        <time>2017-07-01T10:05:45Z</time>
      </trkpt>
      <trkpt lat="45.90609" lon="4.67798">
        <ele>367</ele>
        <time>2017-07-01T10:05:46Z</time>
      </trkpt>
      <trkpt lat="45.90615" lon="4.67799">
        <ele>367</ele>
        <time>2017-07-01T10:05:47Z</time>
      </trkpt>
      <trkpt lat="45.90621" lon="4.67799">
        <ele>367</ele>
        <time>2017-07-01T10:05:48Z</time>
      </trkpt>
      <trkpt lat="45.90627" lon="4.67799">
        <ele>367</ele>
        <time>2017-07-01T10:05:49Z</time>
      </trkpt>
      <trkpt lat="45.90633" lon="4.67798">
        <ele>367</ele>
        <time>2017-07-01T10:05:50Z</time>
      </trkpt>
      <trkpt lat="45.90639" lon="4.67798">
        <ele>367</ele>
        <time>2017-07-01T10:05:51Z</time>
      </trkpt>
      <trkpt lat="45.90645" lon="4.67799">
        <ele>368</ele>
        <time>2017-07-01T10:05:52Z</time>
      </trkpt>
      <trkpt lat="45.90651" lon="4.67799">
        <ele>368</ele>
        <time>2017-07-01T10:05:53Z</time>
      </trkpt>
      <trkpt lat="45.90656" lon="4.67799">
        <ele>368</ele>
        <time>2017-07-01T10:05:54Z</time>
      </trkpt>
      <trkpt lat="45.90662" lon="4.678">
        <ele>368</ele>
        <time>2017-07-01T10:05:55Z</time>
      </trkpt>
      <trkpt lat="45.90668" lon="4.678">
        <ele>368</ele>
        <time>2017-07-01T10:05:56Z</time>
      </trkpt>
      <trkpt lat="45.90674" lon="4.67802">
        <ele>368</ele>
        <time>2017-07-01T10:05:57Z</time>
      </trkpt>
      <trkpt lat="45.90679" lon="4.67802">
        <ele>368</ele>
        <time>2017-07-01T10:05:58Z</time>
      </trkpt>
      <trkpt lat="45.90685" lon="4.67804">
        <ele>368</ele>
        <time>2017-07-01T10:05:59Z</time>
      </trkpt>
      <trkpt lat="45.90691" lon="4.67805">
        <ele>368</ele>
        <time>2017-07-01T10:06:00Z</time>
      </trkpt>
      <trkpt lat="45.90697" lon="4.67806">
        <ele>368</ele>
        <time>2017-07-01T10:06:01Z</time>
      </trkpt>
      <trkpt lat="45.90703" lon="4.67808">
        <ele>368</ele>
        <time>2017-07-01T10:06:02Z</time>
      </trkpt>
      <trkpt lat="45.90709" lon="4.6781">
        <ele>368</ele>
        <time>2017-07-01T10:06:03Z</time>
      </trkpt>
      <trkpt lat="45.90715" lon="4.67813">
        <ele>369</ele>
        <time>2017-07-01T10:06:04Z</time>
      </trkpt>
      <trkpt lat="45.9072" lon="4.67815">
        <ele>369</ele>
        <time>2017-07-01T10:06:05Z</time>
      </trkpt>
      <trkpt lat="45.90726" lon="4.67817">
        <ele>369</ele>
        <time>2017-07-01T10:06:06Z</time>
      </trkpt>
      <trkpt lat="45.90731" lon="4.6782">
        <ele>369</ele>
        <time>2017-07-01T10:06:07Z</time>
      </trkpt>
      <trkpt lat="45.90737" lon="4.67822">
        <ele>369</ele>
        <time>2017-07-01T10:06:08Z</time>
      </trkpt>
      <trkpt lat="45.90742" lon="4.67824">
        <ele>370</ele>
        <time>2017-07-01T10:06:09Z</time>
      </trkpt>
      <trkpt lat="45.90748" lon="4.67826">
        <ele>370</ele>
        <time>2017-07-01T10:06:10Z</time>
      </trkpt>
      <trkpt lat="45.90753" lon="4.67828">
        <ele>370</ele>
        <time>2017-07-01T10:06:11Z</time>
      </trkpt>
      <trkpt lat="45.90759" lon="4.67831">
        <ele>370</ele>
        <time>2017-07-01T10:06:12Z</time>
      </trkpt>
      <trkpt lat="45.90765" lon="4.67833">
        <ele>369</ele>
        <time>2017-07-01T10:06:13Z</time>
      </trkpt>
      <trkpt lat="45.9077" lon="4.67835">
        <ele>371</ele>
        <time>2017-07-01T10:06:14Z</time>
      </trkpt>
      <trkpt lat="45.90775" lon="4.67837">
        <ele>371</ele>
        <time>2017-07-01T10:06:15Z</time>
      </trkpt>
      <trkpt lat="45.9078" lon="4.67839">
        <ele>371</ele>
        <time>2017-07-01T10:06:16Z</time>
      </trkpt>
      <trkpt lat="45.90785" lon="4.67841">
        <ele>371</ele>
        <time>2017-07-01T10:06:17Z</time>
      </trkpt>
      <trkpt lat="45.9079" lon="4.67842">
        <ele>371</ele>
        <time>2017-07-01T10:06:18Z</time>
      </trkpt>
      <trkpt lat="45.90794" lon="4.67843">
        <ele>371</ele>
        <time>2017-07-01T10:06:19Z</time>
      </trkpt>
      <trkpt lat="45.90798" lon="4.67845">
        <ele>371</ele>
        <time>2017-07-01T10:06:20Z</time>
      </trkpt>
      <trkpt lat="45.90803" lon="4.67847">
        <ele>371</ele>
        <time>2017-07-01T10:06:21Z</time>
      </trkpt>
      <trkpt lat="45.90807" lon="4.67849">
        <ele>371</ele>
        <time>2017-07-01T10:06:22Z</time>
      </trkpt>
      <trkpt lat="45.90812" lon="4.6785">
        <ele>371</ele>
        <time>2017-07-01T10:06:23Z</time>
      </trkpt>
      <trkpt lat="45.90816" lon="4.67852">
        <ele>371</ele>
        <time>2017-07-01T10:06:24Z</time>
      </trkpt>
      <trkpt lat="45.90821" lon="4.67853">
        <ele>371</ele>
        <time>2017-07-01T10:06:25Z</time>
      </trkpt>
      <trkpt lat="45.90825" lon="4.67855">
        <ele>371</ele>
        <time>2017-07-01T10:06:26Z</time>
      </trkpt>
      <trkpt lat="45.9083" lon="4.67856">
        <ele>371</ele>
        <time>2017-07-01T10:06:27Z</time>
      </trkpt>
      <trkpt lat="45.90838" lon="4.67859">
        <ele>370</ele>
        <time>2017-07-01T10:06:29Z</time>
      </trkpt>
      <trkpt lat="45.90842" lon="4.6786">
        <ele>370</ele>
        <time>2017-07-01T10:06:30Z</time>
      </trkpt>
      <trkpt lat="45.90851" lon="4.67863">
        <ele>370</ele>
        <time>2017-07-01T10:06:32Z</time>
      </trkpt>
      <trkpt lat="45.90855" lon="4.67864">
        <ele>370</ele>
        <time>2017-07-01T10:06:33Z</time>
      </trkpt>
      <trkpt lat="45.90862" lon="4.67867">
        <ele>370</ele>
        <time>2017-07-01T10:06:35Z</time>
      </trkpt>
      <trkpt lat="45.90866" lon="4.67868">
        <ele>370</ele>
        <time>2017-07-01T10:06:36Z</time>
      </trkpt>
      <trkpt lat="45.90875" lon="4.67871">
        <ele>370</ele>
        <time>2017-07-01T10:06:38Z</time>
      </trkpt>
      <trkpt lat="45.9088" lon="4.67873">
        <ele>370</ele>
        <time>2017-07-01T10:06:39Z</time>
      </trkpt>
      <trkpt lat="45.90884" lon="4.67875">
        <ele>370</ele>
        <time>2017-07-01T10:06:40Z</time>
      </trkpt>
      <trkpt lat="45.90888" lon="4.67876">
        <ele>370</ele>
        <time>2017-07-01T10:06:41Z</time>
      </trkpt>
      <trkpt lat="45.90893" lon="4.67878">
        <ele>370</ele>
        <time>2017-07-01T10:06:42Z</time>
      </trkpt>
      <trkpt lat="45.90897" lon="4.6788">
        <ele>370</ele>
        <time>2017-07-01T10:06:43Z</time>
      </trkpt>
      <trkpt lat="45.90906" lon="4.67883">
        <ele>370</ele>
        <time>2017-07-01T10:06:45Z</time>
      </trkpt>
      <trkpt lat="45.9091" lon="4.67885">
        <ele>370</ele>
        <time>2017-07-01T10:06:46Z</time>
      </trkpt>
      <trkpt lat="45.90919" lon="4.67888">
        <ele>370</ele>
        <time>2017-07-01T10:06:48Z</time>
      </trkpt>
      <trkpt lat="45.90923" lon="4.6789">
        <ele>370</ele>
        <time>2017-07-01T10:06:49Z</time>
      </trkpt>
      <trkpt lat="45.90932" lon="4.67893">
        <ele>370</ele>
        <time>2017-07-01T10:06:51Z</time>
      </trkpt>
      <trkpt lat="45.90936" lon="4.67895">
        <ele>370</ele>
        <time>2017-07-01T10:06:52Z</time>
      </trkpt>
      <trkpt lat="45.90945" lon="4.67898">
        <ele>370</ele>
        <time>2017-07-01T10:06:54Z</time>
      </trkpt>
      <trkpt lat="45.90949" lon="4.67899">
        <ele>370</ele>
        <time>2017-07-01T10:06:55Z</time>
      </trkpt>
      <trkpt lat="45.90954" lon="4.67901">
        <ele>370</ele>
        <time>2017-07-01T10:06:56Z</time>
      </trkpt>
      <trkpt lat="45.90958" lon="4.67902">
        <ele>370</ele>
        <time>2017-07-01T10:06:57Z</time>
      </trkpt>
      <trkpt lat="45.90963" lon="4.67904">
        <ele>370</ele>
        <time>2017-07-01T10:06:58Z</time>
      </trkpt>
      <trkpt lat="45.90967" lon="4.67906">
        <ele>370</ele>
        <time>2017-07-01T10:06:59Z</time>
      </trkpt>
      <trkpt lat="45.90975" lon="4.6791">
        <ele>370</ele>
        <time>2017-07-01T10:07:01Z</time>
      </trkpt>
      <trkpt lat="45.90979" lon="4.67912">
        <ele>370</ele>
        <time>2017-07-01T10:07:02Z</time>
      </trkpt>
      <trkpt lat="45.90986" lon="4.67916">
        <ele>371</ele>
        <time>2017-07-01T10:07:04Z</time>
      </trkpt>
      <trkpt lat="45.9099" lon="4.67917">
        <ele>372</ele>
        <time>2017-07-01T10:07:05Z</time>
      </trkpt>
      <trkpt lat="45.90999" lon="4.67922">
        <ele>372</ele>
        <time>2017-07-01T10:07:07Z</time>
      </trkpt>
      <trkpt lat="45.91003" lon="4.67924">
        <ele>373</ele>
        <time>2017-07-01T10:07:08Z</time>
      </trkpt>
      <trkpt lat="45.91011" lon="4.67929">
        <ele>373</ele>
        <time>2017-07-01T10:07:10Z</time>
      </trkpt>
      <trkpt lat="45.91015" lon="4.67931">
        <ele>373</ele>
        <time>2017-07-01T10:07:11Z</time>
      </trkpt>
      <trkpt lat="45.91023" lon="4.67935">
        <ele>374</ele>
        <time>2017-07-01T10:07:13Z</time>
      </trkpt>
      <trkpt lat="45.91027" lon="4.67937">
        <ele>374</ele>
        <time>2017-07-01T10:07:14Z</time>
      </trkpt>
      <trkpt lat="45.91034" lon="4.67941">
        <ele>374</ele>
        <time>2017-07-01T10:07:16Z</time>
      </trkpt>
      <trkpt lat="45.91038" lon="4.67943">
        <ele>374</ele>
        <time>2017-07-01T10:07:17Z</time>
      </trkpt>
      <trkpt lat="45.91046" lon="4.67946">
        <ele>374</ele>
        <time>2017-07-01T10:07:19Z</time>
      </trkpt>
      <trkpt lat="45.9105" lon="4.67949">
        <ele>375</ele>
        <time>2017-07-01T10:07:20Z</time>
      </trkpt>
      <trkpt lat="45.91058" lon="4.67952">
        <ele>375</ele>
        <time>2017-07-01T10:07:22Z</time>
      </trkpt>
      <trkpt lat="45.91061" lon="4.67954">
        <ele>375</ele>
        <time>2017-07-01T10:07:23Z</time>
      </trkpt>
      <trkpt lat="45.91069" lon="4.67956">
        <ele>375</ele>
        <time>2017-07-01T10:07:25Z</time>
      </trkpt>
      <trkpt lat="45.91073" lon="4.67957">
        <ele>375</ele>
        <time>2017-07-01T10:07:26Z</time>
      </trkpt>
      <trkpt lat="45.91081" lon="4.67959">
        <ele>375</ele>
        <time>2017-07-01T10:07:28Z</time>
      </trkpt>
      <trkpt lat="45.91084" lon="4.6796">
        <ele>376</ele>
        <time>2017-07-01T10:07:29Z</time>
      </trkpt>
      <trkpt lat="45.91092" lon="4.67961">
        <ele>377</ele>
        <time>2017-07-01T10:07:31Z</time>
      </trkpt>
      <trkpt lat="45.91097" lon="4.67962">
        <ele>377</ele>
        <time>2017-07-01T10:07:32Z</time>
      </trkpt>
      <trkpt lat="45.91101" lon="4.67964">
        <ele>377</ele>
        <time>2017-07-01T10:07:33Z</time>
      </trkpt>
      <trkpt lat="45.91106" lon="4.67965">
        <ele>377</ele>
        <time>2017-07-01T10:07:34Z</time>
      </trkpt>
      <trkpt lat="45.91114" lon="4.67967">
        <ele>377</ele>
        <time>2017-07-01T10:07:36Z</time>
      </trkpt>
      <trkpt lat="45.91118" lon="4.67968">
        <ele>377</ele>
        <time>2017-07-01T10:07:37Z</time>
      </trkpt>
      <trkpt lat="45.91125" lon="4.6797">
        <ele>377</ele>
        <time>2017-07-01T10:07:39Z</time>
      </trkpt>
      <trkpt lat="45.91128" lon="4.67971">
        <ele>377</ele>
        <time>2017-07-01T10:07:40Z</time>
      </trkpt>
      <trkpt lat="45.91136" lon="4.67974">
        <ele>377</ele>
        <time>2017-07-01T10:07:42Z</time>
      </trkpt>
      <trkpt lat="45.91139" lon="4.67976">
        <ele>378</ele>
        <time>2017-07-01T10:07:43Z</time>
      </trkpt>
      <trkpt lat="45.91148" lon="4.6798">
        <ele>378</ele>
        <time>2017-07-01T10:07:45Z</time>
      </trkpt>
      <trkpt lat="45.91152" lon="4.67981">
        <ele>378</ele>
        <time>2017-07-01T10:07:46Z</time>
      </trkpt>
      <trkpt lat="45.9116" lon="4.67985">
        <ele>379</ele>
        <time>2017-07-01T10:07:48Z</time>
      </trkpt>
      <trkpt lat="45.91164" lon="4.67987">
        <ele>379</ele>
        <time>2017-07-01T10:07:49Z</time>
      </trkpt>
      <trkpt lat="45.91171" lon="4.67991">
        <ele>380</ele>
        <time>2017-07-01T10:07:51Z</time>
      </trkpt>
      <trkpt lat="45.91175" lon="4.67993">
        <ele>380</ele>
        <time>2017-07-01T10:07:52Z</time>
      </trkpt>
      <trkpt lat="45.91182" lon="4.67997">
        <ele>380</ele>
        <time>2017-07-01T10:07:54Z</time>
      </trkpt>
      <trkpt lat="45.91185" lon="4.67998">
        <ele>380</ele>
        <time>2017-07-01T10:07:55Z</time>
      </trkpt>
      <trkpt lat="45.91192" lon="4.68002">
        <ele>383</ele>
        <time>2017-07-01T10:07:57Z</time>
      </trkpt>
      <trkpt lat="45.91195" lon="4.68004">
        <ele>383</ele>
        <time>2017-07-01T10:07:58Z</time>
      </trkpt>
      <trkpt lat="45.91202" lon="4.68009">
        <ele>383</ele>
        <time>2017-07-01T10:08:00Z</time>
      </trkpt>
      <trkpt lat="45.91206" lon="4.68011">
        <ele>383</ele>
        <time>2017-07-01T10:08:01Z</time>
      </trkpt>
      <trkpt lat="45.91211" lon="4.68014">
        <ele>383</ele>
        <time>2017-07-01T10:08:02Z</time>
      </trkpt>
      <trkpt lat="45.91215" lon="4.68016">
        <ele>383</ele>
        <time>2017-07-01T10:08:03Z</time>
      </trkpt>
      <trkpt lat="45.91223" lon="4.68019">
        <ele>384</ele>
        <time>2017-07-01T10:08:05Z</time>
      </trkpt>
      <trkpt lat="45.91227" lon="4.68021">
        <ele>384</ele>
        <time>2017-07-01T10:08:06Z</time>
      </trkpt>
      <trkpt lat="45.91234" lon="4.68024">
        <ele>384</ele>
        <time>2017-07-01T10:08:08Z</time>
      </trkpt>
      <trkpt lat="45.91237" lon="4.68025">
        <ele>384</ele>
        <time>2017-07-01T10:08:09Z</time>
      </trkpt>
      <trkpt lat="45.91244" lon="4.68029">
        <ele>384</ele>
        <time>2017-07-01T10:08:11Z</time>
      </trkpt>
      <trkpt lat="45.91247" lon="4.68031">
        <ele>384</ele>
        <time>2017-07-01T10:08:12Z</time>
      </trkpt>
      <trkpt lat="45.91254" lon="4.68034">
        <ele>385</ele>
        <time>2017-07-01T10:08:14Z</time>
      </trkpt>
      <trkpt lat="45.91259" lon="4.68035">
        <ele>385</ele>
        <time>2017-07-01T10:08:15Z</time>
      </trkpt>
      <trkpt lat="45.91266" lon="4.68039">
        <ele>385</ele>
        <time>2017-07-01T10:08:17Z</time>
      </trkpt>
      <trkpt lat="45.9127" lon="4.6804">
        <ele>385</ele>
        <time>2017-07-01T10:08:18Z</time>
      </trkpt>
      <trkpt lat="45.91276" lon="4.68043">
        <ele>385</ele>
        <time>2017-07-01T10:08:20Z</time>
      </trkpt>
      <trkpt lat="45.91279" lon="4.68045">
        <ele>385</ele>
        <time>2017-07-01T10:08:21Z</time>
      </trkpt>
      <trkpt lat="45.91286" lon="4.68048">
        <ele>385</ele>
        <time>2017-07-01T10:08:23Z</time>
      </trkpt>
      <trkpt lat="45.9129" lon="4.68049">
        <ele>385</ele>
        <time>2017-07-01T10:08:24Z</time>
      </trkpt>
      <trkpt lat="45.91297" lon="4.68052">
        <ele>385</ele>
        <time>2017-07-01T10:08:26Z</time>
      </trkpt>
      <trkpt lat="45.913" lon="4.68053">
        <ele>385</ele>
        <time>2017-07-01T10:08:27Z</time>
      </trkpt>
      <trkpt lat="45.91307" lon="4.68058">
        <ele>385</ele>
        <time>2017-07-01T10:08:30Z</time>
      </trkpt>
      <trkpt lat="45.9131" lon="4.68059">
        <ele>385</ele>
        <time>2017-07-01T10:08:31Z</time>
      </trkpt>
      <trkpt lat="45.91317" lon="4.68064">
        <ele>385</ele>
        <time>2017-07-01T10:08:34Z</time>
      </trkpt>
      <trkpt lat="45.91321" lon="4.68065">
        <ele>385</ele>
        <time>2017-07-01T10:08:35Z</time>
      </trkpt>
      <trkpt lat="45.91327" lon="4.68068">
        <ele>385</ele>
        <time>2017-07-01T10:08:37Z</time>
      </trkpt>
      <trkpt lat="45.9133" lon="4.6807">
        <ele>385</ele>
        <time>2017-07-01T10:08:38Z</time>
      </trkpt>
      <trkpt lat="45.91337" lon="4.68072">
        <ele>385</ele>
        <time>2017-07-01T10:08:40Z</time>
      </trkpt>
      <trkpt lat="45.91341" lon="4.68073">
        <ele>385</ele>
        <time>2017-07-01T10:08:41Z</time>
      </trkpt>
      <trkpt lat="45.91348" lon="4.68077">
        <ele>385</ele>
        <time>2017-07-01T10:08:43Z</time>
      </trkpt>
      <trkpt lat="45.91353" lon="4.68079">
        <ele>385</ele>
        <time>2017-07-01T10:08:44Z</time>
      </trkpt>
      <trkpt lat="45.91359" lon="4.68082">
        <ele>385</ele>
        <time>2017-07-01T10:08:46Z</time>
      </trkpt>
      <trkpt lat="45.91363" lon="4.68084">
        <ele>386</ele>
        <time>2017-07-01T10:08:47Z</time>
      </trkpt>
      <trkpt lat="45.91368" lon="4.68085">
        <ele>386</ele>
        <time>2017-07-01T10:08:48Z</time>
      </trkpt>
      <trkpt lat="45.91372" lon="4.68086">
        <ele>386</ele>
        <time>2017-07-01T10:08:49Z</time>
      </trkpt>
      <trkpt lat="45.91381" lon="4.68088">
        <ele>386</ele>
        <time>2017-07-01T10:08:51Z</time>
      </trkpt>
      <trkpt lat="45.91385" lon="4.6809">
        <ele>386</ele>
        <time>2017-07-01T10:08:52Z</time>
      </trkpt>
      <trkpt lat="45.91393" lon="4.68091">
        <ele>386</ele>
        <time>2017-07-01T10:08:54Z</time>
      </trkpt>
      <trkpt lat="45.91397" lon="4.68091">
        <ele>386</ele>
        <time>2017-07-01T10:08:55Z</time>
      </trkpt>
      <trkpt lat="45.91406" lon="4.68089">
        <ele>386</ele>
        <time>2017-07-01T10:08:57Z</time>
      </trkpt>
      <trkpt lat="45.9141" lon="4.68088">
        <ele>386</ele>
        <time>2017-07-01T10:08:58Z</time>
      </trkpt>
      <trkpt lat="45.91418" lon="4.68086">
        <ele>386</ele>
        <time>2017-07-01T10:09:00Z</time>
      </trkpt>
      <trkpt lat="45.91423" lon="4.68085">
        <ele>386</ele>
        <time>2017-07-01T10:09:01Z</time>
      </trkpt>
      <trkpt lat="45.91431" lon="4.68085">
        <ele>385</ele>
        <time>2017-07-01T10:09:03Z</time>
      </trkpt>
      <trkpt lat="45.91436" lon="4.68085">
        <ele>385</ele>
        <time>2017-07-01T10:09:04Z</time>
      </trkpt>
      <trkpt lat="45.9144" lon="4.68086">
        <ele>385</ele>
        <time>2017-07-01T10:09:05Z</time>
      </trkpt>
      <trkpt lat="45.91445" lon="4.68087">
        <ele>384</ele>
        <time>2017-07-01T10:09:06Z</time>
      </trkpt>
      <trkpt lat="45.9145" lon="4.68089">
        <ele>384</ele>
        <time>2017-07-01T10:09:07Z</time>
      </trkpt>
      <trkpt lat="45.91454" lon="4.68091">
        <ele>384</ele>
        <time>2017-07-01T10:09:08Z</time>
      </trkpt>
      <trkpt lat="45.91459" lon="4.68093">
        <ele>384</ele>
        <time>2017-07-01T10:09:09Z</time>
      </trkpt>
      <trkpt lat="45.91465" lon="4.68096">
        <ele>384</ele>
        <time>2017-07-01T10:09:10Z</time>
      </trkpt>
      <trkpt lat="45.9147" lon="4.68099">
        <ele>384</ele>
        <time>2017-07-01T10:09:11Z</time>
      </trkpt>
      <trkpt lat="45.91476" lon="4.68103">
        <ele>383</ele>
        <time>2017-07-01T10:09:12Z</time>
      </trkpt>
      <trkpt lat="45.91482" lon="4.68106">
        <ele>383</ele>
        <time>2017-07-01T10:09:13Z</time>
      </trkpt>
      <trkpt lat="45.91487" lon="4.6811">
        <ele>383</ele>
        <time>2017-07-01T10:09:14Z</time>
      </trkpt>
      <trkpt lat="45.91493" lon="4.68114">
        <ele>383</ele>
        <time>2017-07-01T10:09:15Z</time>
      </trkpt>
      <trkpt lat="45.91499" lon="4.68118">
        <ele>383</ele>
        <time>2017-07-01T10:09:16Z</time>
      </trkpt>
      <trkpt lat="45.91505" lon="4.68122">
        <ele>380</ele>
        <time>2017-07-01T10:09:17Z</time>
      </trkpt>
      <trkpt lat="45.91512" lon="4.68126">
        <ele>380</ele>
        <time>2017-07-01T10:09:18Z</time>
      </trkpt>
      <trkpt lat="45.91519" lon="4.6813">
        <ele>380</ele>
        <time>2017-07-01T10:09:19Z</time>
      </trkpt>
      <trkpt lat="45.91526" lon="4.68134">
        <ele>379</ele>
        <time>2017-07-01T10:09:20Z</time>
      </trkpt>
      <trkpt lat="45.91533" lon="4.68137">
        <ele>379</ele>
        <time>2017-07-01T10:09:21Z</time>
      </trkpt>
      <trkpt lat="45.9154" lon="4.68141">
        <ele>379</ele>
        <time>2017-07-01T10:09:22Z</time>
      </trkpt>
      <trkpt lat="45.91548" lon="4.68144">
        <ele>379</ele>
        <time>2017-07-01T10:09:23Z</time>
      </trkpt>
      <trkpt lat="45.91556" lon="4.68148">
        <ele>379</ele>
        <time>2017-07-01T10:09:24Z</time>
      </trkpt>
      <trkpt lat="45.91564" lon="4.68152">
        <ele>378</ele>
        <time>2017-07-01T10:09:25Z</time>
      </trkpt>
      <trkpt lat="45.91571" lon="4.68157">
        <ele>378</ele>
        <time>2017-07-01T10:09:26Z</time>
      </trkpt>
      <trkpt lat="45.91579" lon="4.68162">
        <ele>378</ele>
        <time>2017-07-01T10:09:27Z</time>
      </trkpt>
      <trkpt lat="45.91587" lon="4.68167">
        <ele>378</ele>
        <time>2017-07-01T10:09:28Z</time>
      </trkpt>
      <trkpt lat="45.91595" lon="4.68173">
        <ele>377</ele>
        <time>2017-07-01T10:09:29Z</time>
      </trkpt>
      <trkpt lat="45.91603" lon="4.68179">
        <ele>376</ele>
        <time>2017-07-01T10:09:30Z</time>
      </trkpt>
      <trkpt lat="45.91611" lon="4.68185">
        <ele>375</ele>
        <time>2017-07-01T10:09:31Z</time>
      </trkpt>
      <trkpt lat="45.9162" lon="4.68192">
        <ele>375</ele>
        <time>2017-07-01T10:09:32Z</time>
      </trkpt>
      <trkpt lat="45.91629" lon="4.68198">
        <ele>375</ele>
        <time>2017-07-01T10:09:33Z</time>
      </trkpt>
      <trkpt lat="45.91638" lon="4.68204">
        <ele>374</ele>
        <time>2017-07-01T10:09:34Z</time>
      </trkpt>
      <trkpt lat="45.91647" lon="4.6821">
        <ele>374</ele>
        <time>2017-07-01T10:09:35Z</time>
      </trkpt>
      <trkpt lat="45.91657" lon="4.68216">
        <ele>374</ele>
        <time>2017-07-01T10:09:36Z</time>
      </trkpt>
      <trkpt lat="45.91666" lon="4.68222">
        <ele>374</ele>
        <time>2017-07-01T10:09:37Z</time>
      </trkpt>
      <trkpt lat="45.91675" lon="4.68228">
        <ele>371</ele>
        <time>2017-07-01T10:09:38Z</time>
      </trkpt>
      <trkpt lat="45.91684" lon="4.68234">
        <ele>371</ele>
        <time>2017-07-01T10:09:39Z</time>
      </trkpt>
      <trkpt lat="45.91692" lon="4.6824">
        <ele>371</ele>
        <time>2017-07-01T10:09:40Z</time>
      </trkpt>
      <trkpt lat="45.917" lon="4.68246">
        <ele>370</ele>
        <time>2017-07-01T10:09:41Z</time>
      </trkpt>
      <trkpt lat="45.91709" lon="4.68251">
        <ele>373</ele>
        <time>2017-07-01T10:09:42Z</time>
      </trkpt>
      <trkpt lat="45.91718" lon="4.68255">
        <ele>372</ele>
        <time>2017-07-01T10:09:43Z</time>
      </trkpt>
      <trkpt lat="45.91728" lon="4.68257">
        <ele>372</ele>
        <time>2017-07-01T10:09:44Z</time>
      </trkpt>
      <trkpt lat="45.91736" lon="4.68259">
        <ele>372</ele>
        <time>2017-07-01T10:09:45Z</time>
      </trkpt>
      <trkpt lat="45.91744" lon="4.68261">
        <ele>371</ele>
        <time>2017-07-01T10:09:46Z</time>
      </trkpt>
      <trkpt lat="45.91752" lon="4.68263">
        <ele>371</ele>
        <time>2017-07-01T10:09:47Z</time>
      </trkpt>
      <trkpt lat="45.9176" lon="4.68264">
        <ele>371</ele>
        <time>2017-07-01T10:09:48Z</time>
      </trkpt>
      <trkpt lat="45.91767" lon="4.68266">
        <ele>372</ele>
        <time>2017-07-01T10:09:49Z</time>
      </trkpt>
      <trkpt lat="45.91774" lon="4.68269">
        <ele>372</ele>
        <time>2017-07-01T10:09:50Z</time>
      </trkpt>
      <trkpt lat="45.9178" lon="4.6827">
        <ele>372</ele>
        <time>2017-07-01T10:09:51Z</time>
      </trkpt>
      <trkpt lat="45.91787" lon="4.68272">
        <ele>372</ele>
        <time>2017-07-01T10:09:52Z</time>
      </trkpt>
      <trkpt lat="45.91793" lon="4.68274">
        <ele>372</ele>
        <time>2017-07-01T10:09:53Z</time>
      </trkpt>
      <trkpt lat="45.91798" lon="4.68275">
        <ele>372</ele>
        <time>2017-07-01T10:09:54Z</time>
      </trkpt>
      <trkpt lat="45.91803" lon="4.68276">
        <ele>372</ele>
        <time>2017-07-01T10:09:55Z</time>
      </trkpt>
      <trkpt lat="45.91808" lon="4.68277">
        <ele>372</ele>
        <time>2017-07-01T10:09:56Z</time>
      </trkpt>
      <trkpt lat="45.91812" lon="4.68279">
        <ele>373</ele>
        <time>2017-07-01T10:09:57Z</time>
      </trkpt>
      <trkpt lat="45.91817" lon="4.68281">
        <ele>373</ele>
        <time>2017-07-01T10:09:58Z</time>
      </trkpt>
      <trkpt lat="45.91822" lon="4.68281">
        <ele>373</ele>
        <time>2017-07-01T10:09:59Z</time>
      </trkpt>
      <trkpt lat="45.91827" lon="4.68283">
        <ele>373</ele>
        <time>2017-07-01T10:10:00Z</time>
      </trkpt>
      <trkpt lat="45.91832" lon="4.68284">
        <ele>373</ele>
        <time>2017-07-01T10:10:01Z</time>
      </trkpt>
      <trkpt lat="45.91836" lon="4.68286">
        <ele>375</ele>
        <time>2017-07-01T10:10:02Z</time>
      </trkpt>
      <trkpt lat="45.91842" lon="4.68288">
        <ele>375</ele>
        <time>2017-07-01T10:10:03Z</time>
      </trkpt>
      <trkpt lat="45.91848" lon="4.68289">
        <ele>375</ele>
        <time>2017-07-01T10:10:04Z</time>
      </trkpt>
      <trkpt lat="45.91854" lon="4.6829">
        <ele>375</ele>
        <time>2017-07-01T10:10:05Z</time>
      </trkpt>
      <trkpt lat="45.91859" lon="4.6829">
        <ele>375</ele>
        <time>2017-07-01T10:10:06Z</time>
      </trkpt>
      <trkpt lat="45.91864" lon="4.6829">
        <ele>375</ele>
        <time>2017-07-01T10:10:07Z</time>
      </trkpt>
      <trkpt lat="45.9187" lon="4.6829">
        <ele>376</ele>
        <time>2017-07-01T10:10:08Z</time>
      </trkpt>
      <trkpt lat="45.91875" lon="4.6829">
        <ele>376</ele>
        <time>2017-07-01T10:10:09Z</time>
      </trkpt>
      <trkpt lat="45.9188" lon="4.6829">
        <ele>376</ele>
        <time>2017-07-01T10:10:10Z</time>
      </trkpt>
      <trkpt lat="45.91885" lon="4.68291">
        <ele>376</ele>
        <time>2017-07-01T10:10:11Z</time>
      </trkpt>
      <trkpt lat="45.9189" lon="4.68291">
        <ele>376</ele>
        <time>2017-07-01T10:10:12Z</time>
      </trkpt>
      <trkpt lat="45.91895" lon="4.68291">
        <ele>376</ele>
        <time>2017-07-01T10:10:13Z</time>
      </trkpt>
      <trkpt lat="45.919" lon="4.68292">
        <ele>376</ele>
        <time>2017-07-01T10:10:14Z</time>
      </trkpt>
      <trkpt lat="45.91904" lon="4.68293">
        <ele>376</ele>
        <time>2017-07-01T10:10:15Z</time>
      </trkpt>
      <trkpt lat="45.9191" lon="4.68293">
        <ele>377</ele>
        <time>2017-07-01T10:10:16Z</time>
      </trkpt>
      <trkpt lat="45.91915" lon="4.68294">
        <ele>377</ele>
        <time>2017-07-01T10:10:17Z</time>
      </trkpt>
      <trkpt lat="45.9192" lon="4.68295">
        <ele>379</ele>
        <time>2017-07-01T10:10:18Z</time>
      </trkpt>
      <trkpt lat="45.91925" lon="4.68296">
        <ele>379</ele>
        <time>2017-07-01T10:10:19Z</time>
      </trkpt>
      <trkpt lat="45.9193" lon="4.68296">
        <ele>379</ele>
        <time>2017-07-01T10:10:20Z</time>
      </trkpt>
      <trkpt lat="45.91935" lon="4.68297">
        <ele>379</ele>
        <time>2017-07-01T10:10:21Z</time>
      </trkpt>
      <trkpt lat="45.9194" lon="4.68297">
        <ele>379</ele>
        <time>2017-07-01T10:10:22Z</time>
      </trkpt>
      <trkpt lat="45.91945" lon="4.68297">
        <ele>379</ele>
        <time>2017-07-01T10:10:23Z</time>
      </trkpt>
      <trkpt lat="45.9195" lon="4.68299">
        <ele>379</ele>
        <time>2017-07-01T10:10:24Z</time>
      </trkpt>
      <trkpt lat="45.91958" lon="4.68301">
        <ele>379</ele>
        <time>2017-07-01T10:10:26Z</time>
      </trkpt>
      <trkpt lat="45.91963" lon="4.68303">
        <ele>379</ele>
        <time>2017-07-01T10:10:27Z</time>
      </trkpt>
      <trkpt lat="45.91968" lon="4.68305">
        <ele>380</ele>
        <time>2017-07-01T10:10:28Z</time>
      </trkpt>
      <trkpt lat="45.91973" lon="4.68307">
        <ele>380</ele>
        <time>2017-07-01T10:10:29Z</time>
      </trkpt>
      <trkpt lat="45.91977" lon="4.68308">
        <ele>380</ele>
        <time>2017-07-01T10:10:30Z</time>
      </trkpt>
      <trkpt lat="45.91982" lon="4.68309">
        <ele>380</ele>
        <time>2017-07-01T10:10:31Z</time>
      </trkpt>
      <trkpt lat="45.91987" lon="4.6831">
        <ele>380</ele>
        <time>2017-07-01T10:10:32Z</time>
      </trkpt>
      <trkpt lat="45.91992" lon="4.68311">
        <ele>380</ele>
        <time>2017-07-01T10:10:33Z</time>
      </trkpt>
      <trkpt lat="45.91996" lon="4.68313">
        <ele>381</ele>
        <time>2017-07-01T10:10:34Z</time>
      </trkpt>
      <trkpt lat="45.92001" lon="4.68315">
        <ele>381</ele>
        <time>2017-07-01T10:10:35Z</time>
      </trkpt>
      <trkpt lat="45.92006" lon="4.68317">
        <ele>381</ele>
        <time>2017-07-01T10:10:36Z</time>
      </trkpt>
      <trkpt lat="45.9201" lon="4.68318">
        <ele>381</ele>
        <time>2017-07-01T10:10:37Z</time>
      </trkpt>
      <trkpt lat="45.92015" lon="4.68318">
        <ele>380</ele>
        <time>2017-07-01T10:10:38Z</time>
      </trkpt>
      <trkpt lat="45.92019" lon="4.68318">
        <ele>380</ele>
        <time>2017-07-01T10:10:39Z</time>
      </trkpt>
      <trkpt lat="45.92028" lon="4.68319">
        <ele>380</ele>
        <time>2017-07-01T10:10:41Z</time>
      </trkpt>
      <trkpt lat="45.92031" lon="4.68319">
        <ele>380</ele>
        <time>2017-07-01T10:10:42Z</time>
      </trkpt>
      <trkpt lat="45.92039" lon="4.68321">
        <ele>380</ele>
        <time>2017-07-01T10:10:44Z</time>
      </trkpt>
      <trkpt lat="45.92042" lon="4.68322">
        <ele>380</ele>
        <time>2017-07-01T10:10:45Z</time>
      </trkpt>
      <trkpt lat="45.92049" lon="4.68324">
        <ele>380</ele>
        <time>2017-07-01T10:10:47Z</time>
      </trkpt>
      <trkpt lat="45.92053" lon="4.68324">
        <ele>380</ele>
        <time>2017-07-01T10:10:48Z</time>
      </trkpt>
      <trkpt lat="45.9206" lon="4.68326">
        <ele>380</ele>
        <time>2017-07-01T10:10:50Z</time>
      </trkpt>
      <trkpt lat="45.92064" lon="4.68327">
        <ele>380</ele>
        <time>2017-07-01T10:10:51Z</time>
      </trkpt>
      <trkpt lat="45.92073" lon="4.6833">
        <ele>381</ele>
        <time>2017-07-01T10:10:53Z</time>
      </trkpt>
      <trkpt lat="45.92077" lon="4.68331">
        <ele>381</ele>
        <time>2017-07-01T10:10:54Z</time>
      </trkpt>
      <trkpt lat="45.92086" lon="4.68334">
        <ele>382</ele>
        <time>2017-07-01T10:10:56Z</time>
      </trkpt>
      <trkpt lat="45.9209" lon="4.68335">
        <ele>382</ele>
        <time>2017-07-01T10:10:57Z</time>
      </trkpt>
      <trkpt lat="45.92097" lon="4.68337">
        <ele>383</ele>
        <time>2017-07-01T10:10:59Z</time>
      </trkpt>
      <trkpt lat="45.92101" lon="4.68338">
        <ele>383</ele>
        <time>2017-07-01T10:11:00Z</time>
      </trkpt>
      <trkpt lat="45.92109" lon="4.68341">
        <ele>383</ele>
        <time>2017-07-01T10:11:02Z</time>
      </trkpt>
      <trkpt lat="45.92113" lon="4.68344">
        <ele>383</ele>
        <time>2017-07-01T10:11:03Z</time>
      </trkpt>
      <trkpt lat="45.92118" lon="4.68346">
        <ele>383</ele>
        <time>2017-07-01T10:11:04Z</time>
      </trkpt>
      <trkpt lat="45.92122" lon="4.68349">
        <ele>383</ele>
        <time>2017-07-01T10:11:05Z</time>
      </trkpt>
      <trkpt lat="45.9213" lon="4.68353">
        <ele>383</ele>
        <time>2017-07-01T10:11:07Z</time>
      </trkpt>
      <trkpt lat="45.92134" lon="4.68356">
        <ele>383</ele>
        <time>2017-07-01T10:11:08Z</time>
      </trkpt>
      <trkpt lat="45.92141" lon="4.68361">
        <ele>383</ele>
        <time>2017-07-01T10:11:10Z</time>
      </trkpt>
      <trkpt lat="45.92145" lon="4.68364">
        <ele>383</ele>
        <time>2017-07-01T10:11:11Z</time>
      </trkpt>
      <trkpt lat="45.92152" lon="4.68371">
        <ele>383</ele>
        <time>2017-07-01T10:11:13Z</time>
      </trkpt>
      <trkpt lat="45.92156" lon="4.68374">
        <ele>383</ele>
        <time>2017-07-01T10:11:14Z</time>
      </trkpt>
      <trkpt lat="45.9216" lon="4.68378">
        <ele>384</ele>
        <time>2017-07-01T10:11:15Z</time>
      </trkpt>
      <trkpt lat="45.92164" lon="4.68381">
        <ele>384</ele>
        <time>2017-07-01T10:11:16Z</time>
      </trkpt>
      <trkpt lat="45.9217" lon="4.68389">
        <ele>383</ele>
        <time>2017-07-01T10:11:18Z</time>
      </trkpt>
      <trkpt lat="45.92173" lon="4.68392">
        <ele>383</ele>
        <time>2017-07-01T10:11:19Z</time>
      </trkpt>
      <trkpt lat="45.92178" lon="4.684">
        <ele>383</ele>
        <time>2017-07-01T10:11:21Z</time>
      </trkpt>
      <trkpt lat="45.92181" lon="4.68404">
        <ele>384</ele>
        <time>2017-07-01T10:11:22Z</time>
      </trkpt>
      <trkpt lat="45.92187" lon="4.68412">
        <ele>383</ele>
        <time>2017-07-01T10:11:24Z</time>
      </trkpt>
      <trkpt lat="45.92191" lon="4.68416">
        <ele>383</ele>
        <time>2017-07-01T10:11:25Z</time>
      </trkpt>
      <trkpt lat="45.92195" lon="4.6842">
        <ele>386</ele>
        <time>2017-07-01T10:11:26Z</time>
      </trkpt>
      <trkpt lat="45.922" lon="4.68422">
        <ele>386</ele>
        <time>2017-07-01T10:11:27Z</time>
      </trkpt>
      <trkpt lat="45.92204" lon="4.68424">
        <ele>386</ele>
        <time>2017-07-01T10:11:28Z</time>
      </trkpt>
      <trkpt lat="45.92209" lon="4.68427">
        <ele>386</ele>
        <time>2017-07-01T10:11:29Z</time>
      </trkpt>
      <trkpt lat="45.92213" lon="4.68429">
        <ele>386</ele>
        <time>2017-07-01T10:11:30Z</time>
      </trkpt>
      <trkpt lat="45.92218" lon="4.68432">
        <ele>385</ele>
        <time>2017-07-01T10:11:31Z</time>
      </trkpt>
      <trkpt lat="45.92224" lon="4.68438">
        <ele>385</ele>
        <time>2017-07-01T10:11:33Z</time>
      </trkpt>
      <trkpt lat="45.92228" lon="4.68442">
        <ele>385</ele>
        <time>2017-07-01T10:11:34Z</time>
      </trkpt>
      <trkpt lat="45.92231" lon="4.68446">
        <ele>385</ele>
        <time>2017-07-01T10:11:35Z</time>
      </trkpt>
      <trkpt lat="45.92235" lon="4.6845">
        <ele>386</ele>
        <time>2017-07-01T10:11:36Z</time>
      </trkpt>
      <trkpt lat="45.92239" lon="4.68454">
        <ele>386</ele>
        <time>2017-07-01T10:11:37Z</time>
      </trkpt>
      <trkpt lat="45.92243" lon="4.68458">
        <ele>386</ele>
        <time>2017-07-01T10:11:38Z</time>
      </trkpt>
      <trkpt lat="45.9225" lon="4.68466">
        <ele>386</ele>
        <time>2017-07-01T10:11:40Z</time>
      </trkpt>
      <trkpt lat="45.92253" lon="4.6847">
        <ele>384</ele>
        <time>2017-07-01T10:11:41Z</time>
      </trkpt>
      <trkpt lat="45.92259" lon="4.68477">
        <ele>384</ele>
        <time>2017-07-01T10:11:43Z</time>
      </trkpt>
      <trkpt lat="45.92263" lon="4.6848">
        <ele>384</ele>
        <time>2017-07-01T10:11:44Z</time>
      </trkpt>
      <trkpt lat="45.92269" lon="4.68487">
        <ele>384</ele>
        <time>2017-07-01T10:11:46Z</time>
      </trkpt>
      <trkpt lat="45.92273" lon="4.68491">
        <ele>384</ele>
        <time>2017-07-01T10:11:47Z</time>
      </trkpt>
      <trkpt lat="45.92276" lon="4.68495">
        <ele>384</ele>
        <time>2017-07-01T10:11:48Z</time>
      </trkpt>
      <trkpt lat="45.9228" lon="4.68499">
        <ele>384</ele>
        <time>2017-07-01T10:11:49Z</time>
      </trkpt>
      <trkpt lat="45.92284" lon="4.68503">
        <ele>387</ele>
        <time>2017-07-01T10:11:50Z</time>
      </trkpt>
      <trkpt lat="45.92288" lon="4.68506">
        <ele>387</ele>
        <time>2017-07-01T10:11:51Z</time>
      </trkpt>
      <trkpt lat="45.92294" lon="4.68515">
        <ele>387</ele>
        <time>2017-07-01T10:11:53Z</time>
      </trkpt>
      <trkpt lat="45.92296" lon="4.68519">
        <ele>387</ele>
        <time>2017-07-01T10:11:54Z</time>
      </trkpt>
      <trkpt lat="45.923" lon="4.68523">
        <ele>387</ele>
        <time>2017-07-01T10:11:55Z</time>
      </trkpt>
      <trkpt lat="45.92304" lon="4.68527">
        <ele>387</ele>
        <time>2017-07-01T10:11:56Z</time>
      </trkpt>
      <trkpt lat="45.92311" lon="4.68532">
        <ele>387</ele>
        <time>2017-07-01T10:11:58Z</time>
      </trkpt>
      <trkpt lat="45.92314" lon="4.68535">
        <ele>388</ele>
        <time>2017-07-01T10:11:59Z</time>
      </trkpt>
      <trkpt lat="45.92321" lon="4.6854">
        <ele>388</ele>
        <time>2017-07-01T10:12:01Z</time>
      </trkpt>
      <trkpt lat="45.92325" lon="4.68543">
        <ele>388</ele>
        <time>2017-07-01T10:12:02Z</time>
      </trkpt>
      <trkpt lat="45.9233" lon="4.68547">
        <ele>388</ele>
        <time>2017-07-01T10:12:03Z</time>
      </trkpt>
      <trkpt lat="45.92334" lon="4.6855">
        <ele>385</ele>
        <time>2017-07-01T10:12:04Z</time>
      </trkpt>
      <trkpt lat="45.92339" lon="4.68554">
        <ele>385</ele>
        <time>2017-07-01T10:12:05Z</time>
      </trkpt>
      <trkpt lat="45.92344" lon="4.68558">
        <ele>385</ele>
        <time>2017-07-01T10:12:06Z</time>
      </trkpt>
      <trkpt lat="45.92349" lon="4.68561">
        <ele>385</ele>
        <time>2017-07-01T10:12:07Z</time>
      </trkpt>
      <trkpt lat="45.92354" lon="4.68564">
        <ele>385</ele>
        <time>2017-07-01T10:12:08Z</time>
      </trkpt>
      <trkpt lat="45.92359" lon="4.68567">
        <ele>385</ele>
        <time>2017-07-01T10:12:09Z</time>
      </trkpt>
      <trkpt lat="45.92365" lon="4.6857">
        <ele>385</ele>
        <time>2017-07-01T10:12:10Z</time>
      </trkpt>
      <trkpt lat="45.9237" lon="4.68574">
        <ele>384</ele>
        <time>2017-07-01T10:12:11Z</time>
      </trkpt>
      <trkpt lat="45.92374" lon="4.68577">
        <ele>384</ele>
        <time>2017-07-01T10:12:12Z</time>
      </trkpt>
      <trkpt lat="45.9238" lon="4.6858">
        <ele>384</ele>
        <time>2017-07-01T10:12:13Z</time>
      </trkpt>
      <trkpt lat="45.92385" lon="4.68583">
        <ele>383</ele>
        <time>2017-07-01T10:12:14Z</time>
      </trkpt>
      <trkpt lat="45.92391" lon="4.68587">
        <ele>386</ele>
        <time>2017-07-01T10:12:15Z</time>
      </trkpt>
      <trkpt lat="45.92397" lon="4.68591">
        <ele>386</ele>
        <time>2017-07-01T10:12:16Z</time>
      </trkpt>
      <trkpt lat="45.92403" lon="4.68594">
        <ele>385</ele>
        <time>2017-07-01T10:12:17Z</time>
      </trkpt>
      <trkpt lat="45.92409" lon="4.68597">
        <ele>385</ele>
        <time>2017-07-01T10:12:18Z</time>
      </trkpt>
      <trkpt lat="45.92415" lon="4.686">
        <ele>385</ele>
        <time>2017-07-01T10:12:19Z</time>
      </trkpt>
      <trkpt lat="45.92422" lon="4.68604">
        <ele>381</ele>
        <time>2017-07-01T10:12:20Z</time>
      </trkpt>
      <trkpt lat="45.92429" lon="4.68607">
        <ele>381</ele>
        <time>2017-07-01T10:12:21Z</time>
      </trkpt>
      <trkpt lat="45.92435" lon="4.68611">
        <ele>381</ele>
        <time>2017-07-01T10:12:22Z</time>
      </trkpt>
      <trkpt lat="45.92442" lon="4.68615">
        <ele>381</ele>
        <time>2017-07-01T10:12:23Z</time>
      </trkpt>
      <trkpt lat="45.92449" lon="4.6862">
        <ele>380</ele>
        <time>2017-07-01T10:12:24Z</time>
      </trkpt>
      <trkpt lat="45.92456" lon="4.68623">
        <ele>380</ele>
        <time>2017-07-01T10:12:25Z</time>
      </trkpt>
      <trkpt lat="45.92463" lon="4.68628">
        <ele>380</ele>
        <time>2017-07-01T10:12:26Z</time>
      </trkpt>
      <trkpt lat="45.9247" lon="4.68632">
        <ele>380</ele>
        <time>2017-07-01T10:12:27Z</time>
      </trkpt>
      <trkpt lat="45.92477" lon="4.68635">
        <ele>379</ele>
        <time>2017-07-01T10:12:28Z</time>
      </trkpt>
      <trkpt lat="45.92485" lon="4.68638">
        <ele>379</ele>
        <time>2017-07-01T10:12:29Z</time>
      </trkpt>
      <trkpt lat="45.92493" lon="4.68641">
        <ele>379</ele>
        <time>2017-07-01T10:12:30Z</time>
      </trkpt>
      <trkpt lat="45.92501" lon="4.68643">
        <ele>376</ele>
        <time>2017-07-01T10:12:31Z</time>
      </trkpt>
      <trkpt lat="45.92508" lon="4.68645">
        <ele>376</ele>
        <time>2017-07-01T10:12:32Z</time>
      </trkpt>
      <trkpt lat="45.92516" lon="4.68647">
        <ele>375</ele>
        <time>2017-07-01T10:12:33Z</time>
      </trkpt>
      <trkpt lat="45.92524" lon="4.68649">
        <ele>375</ele>
        <time>2017-07-01T10:12:34Z</time>
      </trkpt>
      <trkpt lat="45.92532" lon="4.6865">
        <ele>375</ele>
        <time>2017-07-01T10:12:35Z</time>
      </trkpt>
      <trkpt lat="45.92538" lon="4.68652">
        <ele>375</ele>
        <time>2017-07-01T10:12:36Z</time>
      </trkpt>
      <trkpt lat="45.92546" lon="4.68655">
        <ele>374</ele>
        <time>2017-07-01T10:12:37Z</time>
      </trkpt>
      <trkpt lat="45.92553" lon="4.68657">
        <ele>374</ele>
        <time>2017-07-01T10:12:38Z</time>
      </trkpt>
      <trkpt lat="45.9256" lon="4.68657">
        <ele>374</ele>
        <time>2017-07-01T10:12:39Z</time>
      </trkpt>
      <trkpt lat="45.92567" lon="4.68656">
        <ele>374</ele>
        <time>2017-07-01T10:12:40Z</time>
      </trkpt>
      <trkpt lat="45.92574" lon="4.68652">
        <ele>374</ele>
        <time>2017-07-01T10:12:41Z</time>
      </trkpt>
      <trkpt lat="45.92579" lon="4.68648">
        <ele>373</ele>
        <time>2017-07-01T10:12:42Z</time>
      </trkpt>
      <trkpt lat="45.92585" lon="4.68644">
        <ele>370</ele>
        <time>2017-07-01T10:12:43Z</time>
      </trkpt>
      <trkpt lat="45.9259" lon="4.68641">
        <ele>370</ele>
        <time>2017-07-01T10:12:44Z</time>
      </trkpt>
      <trkpt lat="45.92595" lon="4.68639">
        <ele>370</ele>
        <time>2017-07-01T10:12:45Z</time>
      </trkpt>
      <trkpt lat="45.926" lon="4.68637">
        <ele>370</ele>
        <time>2017-07-01T10:12:46Z</time>
      </trkpt>
      <trkpt lat="45.92608" lon="4.68633">
        <ele>369</ele>
        <time>2017-07-01T10:12:49Z</time>
      </trkpt>
      <trkpt lat="45.9261" lon="4.68633">
        <ele>369</ele>
        <time>2017-07-01T10:12:50Z</time>
      </trkpt>
      <trkpt lat="45.92616" lon="4.68633">
        <ele>369</ele>
        <time>2017-07-01T10:12:52Z</time>
      </trkpt>
      <trkpt lat="45.9262" lon="4.68632">
        <ele>369</ele>
        <time>2017-07-01T10:12:53Z</time>
      </trkpt>
      <trkpt lat="45.92627" lon="4.68627">
        <ele>368</ele>
        <time>2017-07-01T10:12:55Z</time>
      </trkpt>
      <trkpt lat="45.92631" lon="4.68624">
        <ele>368</ele>
        <time>2017-07-01T10:12:56Z</time>
      </trkpt>
      <trkpt lat="45.92639" lon="4.68619">
        <ele>368</ele>
        <time>2017-07-01T10:12:58Z</time>
      </trkpt>
      <trkpt lat="45.92644" lon="4.68617">
        <ele>367</ele>
        <time>2017-07-01T10:12:59Z</time>
      </trkpt>
      <trkpt lat="45.9265" lon="4.68616">
        <ele>367</ele>
        <time>2017-07-01T10:13:00Z</time>
      </trkpt>
      <trkpt lat="45.92655" lon="4.68614">
        <ele>367</ele>
        <time>2017-07-01T10:13:01Z</time>
      </trkpt>
      <trkpt lat="45.92661" lon="4.68611">
        <ele>367</ele>
        <time>2017-07-01T10:13:02Z</time>
      </trkpt>
      <trkpt lat="45.92666" lon="4.68609">
        <ele>367</ele>
        <time>2017-07-01T10:13:03Z</time>
      </trkpt>
      <trkpt lat="45.92671" lon="4.68608">
        <ele>364</ele>
        <time>2017-07-01T10:13:04Z</time>
      </trkpt>
      <trkpt lat="45.92677" lon="4.68606">
        <ele>364</ele>
        <time>2017-07-01T10:13:05Z</time>
      </trkpt>
      <trkpt lat="45.92682" lon="4.68604">
        <ele>364</ele>
        <time>2017-07-01T10:13:06Z</time>
      </trkpt>
      <trkpt lat="45.92688" lon="4.68602">
        <ele>364</ele>
        <time>2017-07-01T10:13:07Z</time>
      </trkpt>
      <trkpt lat="45.92693" lon="4.68599">
        <ele>364</ele>
        <time>2017-07-01T10:13:08Z</time>
      </trkpt>
      <trkpt lat="45.92699" lon="4.68596">
        <ele>364</ele>
        <time>2017-07-01T10:13:09Z</time>
      </trkpt>
      <trkpt lat="45.92705" lon="4.68593">
        <ele>364</ele>
        <time>2017-07-01T10:13:10Z</time>
      </trkpt>
      <trkpt lat="45.9271" lon="4.6859">
        <ele>364</ele>
        <time>2017-07-01T10:13:11Z</time>
      </trkpt>
      <trkpt lat="45.92716" lon="4.68588">
        <ele>364</ele>
        <time>2017-07-01T10:13:12Z</time>
      </trkpt>
      <trkpt lat="45.92723" lon="4.68585">
        <ele>364</ele>
        <time>2017-07-01T10:13:13Z</time>
      </trkpt>
      <trkpt lat="45.92729" lon="4.68582">
        <ele>366</ele>
        <time>2017-07-01T10:13:14Z</time>
      </trkpt>
      <trkpt lat="45.92736" lon="4.6858">
        <ele>366</ele>
        <time>2017-07-01T10:13:15Z</time>
      </trkpt>
      <trkpt lat="45.92743" lon="4.68578">
        <ele>366</ele>
        <time>2017-07-01T10:13:16Z</time>
      </trkpt>
      <trkpt lat="45.9275" lon="4.68576">
        <ele>366</ele>
        <time>2017-07-01T10:13:17Z</time>
      </trkpt>
      <trkpt lat="45.92758" lon="4.68576">
        <ele>366</ele>
        <time>2017-07-01T10:13:18Z</time>
      </trkpt>
      <trkpt lat="45.92766" lon="4.68575">
        <ele>365</ele>
        <time>2017-07-01T10:13:19Z</time>
      </trkpt>
      <trkpt lat="45.92774" lon="4.68575">
        <ele>365</ele>
        <time>2017-07-01T10:13:20Z</time>
      </trkpt>
      <trkpt lat="45.92782" lon="4.68576">
        <ele>365</ele>
        <time>2017-07-01T10:13:21Z</time>
      </trkpt>
      <trkpt lat="45.9279" lon="4.68577">
        <ele>364</ele>
        <time>2017-07-01T10:13:22Z</time>
      </trkpt>
      <trkpt lat="45.92799" lon="4.68578">
        <ele>364</ele>
        <time>2017-07-01T10:13:23Z</time>
      </trkpt>
      <trkpt lat="45.92808" lon="4.6858">
        <ele>363</ele>
        <time>2017-07-01T10:13:24Z</time>
      </trkpt>
      <trkpt lat="45.92816" lon="4.68581">
        <ele>363</ele>
        <time>2017-07-01T10:13:25Z</time>
      </trkpt>
      <trkpt lat="45.92825" lon="4.68582">
        <ele>362</ele>
        <time>2017-07-01T10:13:26Z</time>
      </trkpt>
      <trkpt lat="45.92833" lon="4.68584">
        <ele>361</ele>
        <time>2017-07-01T10:13:27Z</time>
      </trkpt>
      <trkpt lat="45.92842" lon="4.68585">
        <ele>360</ele>
        <time>2017-07-01T10:13:28Z</time>
      </trkpt>
      <trkpt lat="45.9285" lon="4.68587">
        <ele>359</ele>
        <time>2017-07-01T10:13:29Z</time>
      </trkpt>
      <trkpt lat="45.92858" lon="4.68589">
        <ele>359</ele>
        <time>2017-07-01T10:13:30Z</time>
      </trkpt>
      <trkpt lat="45.92867" lon="4.6859">
        <ele>359</ele>
        <time>2017-07-01T10:13:31Z</time>
      </trkpt>
      <trkpt lat="45.92874" lon="4.68591">
        <ele>359</ele>
        <time>2017-07-01T10:13:32Z</time>
      </trkpt>
      <trkpt lat="45.92882" lon="4.68593">
        <ele>358</ele>
        <time>2017-07-01T10:13:33Z</time>
      </trkpt>
      <trkpt lat="45.9289" lon="4.68595">
        <ele>358</ele>
        <time>2017-07-01T10:13:34Z</time>
      </trkpt>
      <trkpt lat="45.92898" lon="4.68596">
        <ele>358</ele>
        <time>2017-07-01T10:13:35Z</time>
      </trkpt>
      <trkpt lat="45.92906" lon="4.68598">
        <ele>358</ele>
        <time>2017-07-01T10:13:36Z</time>
      </trkpt>
      <trkpt lat="45.92915" lon="4.68599">
        <ele>358</ele>
        <time>2017-07-01T10:13:37Z</time>
      </trkpt>
      <trkpt lat="45.92923" lon="4.686">
        <ele>359</ele>
        <time>2017-07-01T10:13:38Z</time>
      </trkpt>
      <trkpt lat="45.92931" lon="4.68602">
        <ele>358</ele>
        <time>2017-07-01T10:13:39Z</time>
      </trkpt>
      <trkpt lat="45.92939" lon="4.68604">
        <ele>358</ele>
        <time>2017-07-01T10:13:40Z</time>
      </trkpt>
      <trkpt lat="45.92947" lon="4.68606">
        <ele>358</ele>
        <time>2017-07-01T10:13:41Z</time>
      </trkpt>
      <trkpt lat="45.92955" lon="4.68607">
        <ele>358</ele>
        <time>2017-07-01T10:13:42Z</time>
      </trkpt>
      <trkpt lat="45.92963" lon="4.68609">
        <ele>358</ele>
        <time>2017-07-01T10:13:43Z</time>
      </trkpt>
      <trkpt lat="45.92972" lon="4.6861">
        <ele>358</ele>
        <time>2017-07-01T10:13:44Z</time>
      </trkpt>
      <trkpt lat="45.9298" lon="4.68612">
        <ele>358</ele>
        <time>2017-07-01T10:13:45Z</time>
      </trkpt>
      <trkpt lat="45.92988" lon="4.68613">
        <ele>358</ele>
        <time>2017-07-01T10:13:46Z</time>
      </trkpt>
      <trkpt lat="45.92996" lon="4.68615">
        <ele>358</ele>
        <time>2017-07-01T10:13:47Z</time>
      </trkpt>
      <trkpt lat="45.93004" lon="4.68616">
        <ele>356</ele>
        <time>2017-07-01T10:13:48Z</time>
      </trkpt>
      <trkpt lat="45.93012" lon="4.68618">
        <ele>356</ele>
        <time>2017-07-01T10:13:49Z</time>
      </trkpt>
      <trkpt lat="45.9302" lon="4.68619">
        <ele>356</ele>
        <time>2017-07-01T10:13:50Z</time>
      </trkpt>
      <trkpt lat="45.93029" lon="4.68621">
        <ele>356</ele>
        <time>2017-07-01T10:13:51Z</time>
      </trkpt>
      <trkpt lat="45.93038" lon="4.68623">
        <ele>355</ele>
        <time>2017-07-01T10:13:52Z</time>
      </trkpt>
      <trkpt lat="45.93046" lon="4.68625">
        <ele>355</ele>
        <time>2017-07-01T10:13:53Z</time>
      </trkpt>
      <trkpt lat="45.93055" lon="4.68627">
        <ele>354</ele>
        <time>2017-07-01T10:13:54Z</time>
      </trkpt>
      <trkpt lat="45.93063" lon="4.68629">
        <ele>354</ele>
        <time>2017-07-01T10:13:55Z</time>
      </trkpt>
      <trkpt lat="45.93072" lon="4.68631">
        <ele>354</ele>
        <time>2017-07-01T10:13:56Z</time>
      </trkpt>
      <trkpt lat="45.9308" lon="4.68634">
        <ele>354</ele>
        <time>2017-07-01T10:13:57Z</time>
      </trkpt>
      <trkpt lat="45.93089" lon="4.68636">
        <ele>349</ele>
        <time>2017-07-01T10:13:58Z</time>
      </trkpt>
      <trkpt lat="45.93098" lon="4.68638">
        <ele>349</ele>
        <time>2017-07-01T10:13:59Z</time>
      </trkpt>
      <trkpt lat="45.93107" lon="4.6864">
        <ele>349</ele>
        <time>2017-07-01T10:14:00Z</time>
      </trkpt>
      <trkpt lat="45.93117" lon="4.68642">
        <ele>348</ele>
        <time>2017-07-01T10:14:01Z</time>
      </trkpt>
      <trkpt lat="45.93127" lon="4.68644">
        <ele>348</ele>
        <time>2017-07-01T10:14:02Z</time>
      </trkpt>
      <trkpt lat="45.93137" lon="4.68647">
        <ele>347</ele>
        <time>2017-07-01T10:14:03Z</time>
      </trkpt>
      <trkpt lat="45.93148" lon="4.6865">
        <ele>347</ele>
        <time>2017-07-01T10:14:04Z</time>
      </trkpt>
      <trkpt lat="45.93158" lon="4.68652">
        <ele>347</ele>
        <time>2017-07-01T10:14:05Z</time>
      </trkpt>
      <trkpt lat="45.93169" lon="4.68655">
        <ele>345</ele>
        <time>2017-07-01T10:14:06Z</time>
      </trkpt>
      <trkpt lat="45.9318" lon="4.68657">
        <ele>345</ele>
        <time>2017-07-01T10:14:07Z</time>
      </trkpt>
      <trkpt lat="45.93191" lon="4.68659">
        <ele>345</ele>
        <time>2017-07-01T10:14:08Z</time>
      </trkpt>
      <trkpt lat="45.93201" lon="4.68662">
        <ele>344</ele>
        <time>2017-07-01T10:14:09Z</time>
      </trkpt>
      <trkpt lat="45.93212" lon="4.68664">
        <ele>344</ele>
        <time>2017-07-01T10:14:10Z</time>
      </trkpt>
      <trkpt lat="45.93222" lon="4.68667">
        <ele>345</ele>
        <time>2017-07-01T10:14:11Z</time>
      </trkpt>
      <trkpt lat="45.93233" lon="4.68669">
        <ele>345</ele>
        <time>2017-07-01T10:14:12Z</time>
      </trkpt>
      <trkpt lat="45.93244" lon="4.68671">
        <ele>344</ele>
        <time>2017-07-01T10:14:13Z</time>
      </trkpt>
      <trkpt lat="45.93254" lon="4.68674">
        <ele>344</ele>
        <time>2017-07-01T10:14:14Z</time>
      </trkpt>
      <trkpt lat="45.93263" lon="4.68676">
        <ele>344</ele>
        <time>2017-07-01T10:14:15Z</time>
      </trkpt>
      <trkpt lat="45.93273" lon="4.68678">
        <ele>344</ele>
        <time>2017-07-01T10:14:16Z</time>
      </trkpt>
      <trkpt lat="45.93282" lon="4.6868">
        <ele>344</ele>
        <time>2017-07-01T10:14:17Z</time>
      </trkpt>
      <trkpt lat="45.93291" lon="4.68682">
        <ele>344</ele>
        <time>2017-07-01T10:14:18Z</time>
      </trkpt>
      <trkpt lat="45.93299" lon="4.68684">
        <ele>344</ele>
        <time>2017-07-01T10:14:19Z</time>
      </trkpt>
      <trkpt lat="45.93308" lon="4.68686">
        <ele>344</ele>
        <time>2017-07-01T10:14:20Z</time>
      </trkpt>
      <trkpt lat="45.93317" lon="4.68688">
        <ele>344</ele>
        <time>2017-07-01T10:14:21Z</time>
      </trkpt>
      <trkpt lat="45.93326" lon="4.6869">
        <ele>344</ele>
        <time>2017-07-01T10:14:22Z</time>
      </trkpt>
      <trkpt lat="45.93334" lon="4.68692">
        <ele>344</ele>
        <time>2017-07-01T10:14:23Z</time>
      </trkpt>
      <trkpt lat="45.93342" lon="4.68694">
        <ele>344</ele>
        <time>2017-07-01T10:14:24Z</time>
      </trkpt>
      <trkpt lat="45.93349" lon="4.68696">
        <ele>344</ele>
        <time>2017-07-01T10:14:25Z</time>
      </trkpt>
      <trkpt lat="45.93357" lon="4.68698">
        <ele>344</ele>
        <time>2017-07-01T10:14:26Z</time>
      </trkpt>
      <trkpt lat="45.93364" lon="4.687">
        <ele>344</ele>
        <time>2017-07-01T10:14:27Z</time>
      </trkpt>
      <trkpt lat="45.93372" lon="4.68702">
        <ele>344</ele>
        <time>2017-07-01T10:14:28Z</time>
      </trkpt>
      <trkpt lat="45.93379" lon="4.68703">
        <ele>344</ele>
        <time>2017-07-01T10:14:29Z</time>
      </trkpt>
      <trkpt lat="45.93386" lon="4.68705">
        <ele>344</ele>
        <time>2017-07-01T10:14:30Z</time>
      </trkpt>
      <trkpt lat="45.93394" lon="4.68706">
        <ele>344</ele>
        <time>2017-07-01T10:14:31Z</time>
      </trkpt>
      <trkpt lat="45.93402" lon="4.68708">
        <ele>344</ele>
        <time>2017-07-01T10:14:32Z</time>
      </trkpt>
      <trkpt lat="45.93409" lon="4.6871">
        <ele>343</ele>
        <time>2017-07-01T10:14:33Z</time>
      </trkpt>
      <trkpt lat="45.93416" lon="4.68711">
        <ele>343</ele>
        <time>2017-07-01T10:14:34Z</time>
      </trkpt>
      <trkpt lat="45.93423" lon="4.68713">
        <ele>343</ele>
        <time>2017-07-01T10:14:35Z</time>
      </trkpt>
      <trkpt lat="45.9343" lon="4.68714">
        <ele>343</ele>
        <time>2017-07-01T10:14:36Z</time>
      </trkpt>
      <trkpt lat="45.93436" lon="4.68715">
        <ele>343</ele>
        <time>2017-07-01T10:14:37Z</time>
      </trkpt>
      <trkpt lat="45.93443" lon="4.68716">
        <ele>343</ele>
        <time>2017-07-01T10:14:38Z</time>
      </trkpt>
      <trkpt lat="45.93449" lon="4.68718">
        <ele>343</ele>
        <time>2017-07-01T10:14:39Z</time>
      </trkpt>
      <trkpt lat="45.93456" lon="4.68719">
        <ele>342</ele>
        <time>2017-07-01T10:14:40Z</time>
      </trkpt>
      <trkpt lat="45.93462" lon="4.68721">
        <ele>342</ele>
        <time>2017-07-01T10:14:41Z</time>
      </trkpt>
      <trkpt lat="45.93469" lon="4.68723">
        <ele>342</ele>
        <time>2017-07-01T10:14:42Z</time>
      </trkpt>
      <trkpt lat="45.93477" lon="4.68724">
        <ele>342</ele>
        <time>2017-07-01T10:14:43Z</time>
      </trkpt>
      <trkpt lat="45.93485" lon="4.68726">
        <ele>342</ele>
        <time>2017-07-01T10:14:44Z</time>
      </trkpt>
      <trkpt lat="45.93492" lon="4.68728">
        <ele>342</ele>
        <time>2017-07-01T10:14:45Z</time>
      </trkpt>
      <trkpt lat="45.935" lon="4.6873">
        <ele>342</ele>
        <time>2017-07-01T10:14:46Z</time>
      </trkpt>
      <trkpt lat="45.93508" lon="4.68732">
        <ele>342</ele>
        <time>2017-07-01T10:14:47Z</time>
      </trkpt>
      <trkpt lat="45.93515" lon="4.68734">
        <ele>342</ele>
        <time>2017-07-01T10:14:48Z</time>
      </trkpt>
      <trkpt lat="45.93522" lon="4.68736">
        <ele>342</ele>
        <time>2017-07-01T10:14:49Z</time>
      </trkpt>
      <trkpt lat="45.9353" lon="4.68737">
        <ele>342</ele>
        <time>2017-07-01T10:14:50Z</time>
      </trkpt>
      <trkpt lat="45.93537" lon="4.68739">
        <ele>342</ele>
        <time>2017-07-01T10:14:51Z</time>
      </trkpt>
      <trkpt lat="45.93544" lon="4.68741">
        <ele>342</ele>
        <time>2017-07-01T10:14:52Z</time>
      </trkpt>
      <trkpt lat="45.93551" lon="4.68743">
        <ele>342</ele>
        <time>2017-07-01T10:14:53Z</time>
      </trkpt>
      <trkpt lat="45.93558" lon="4.68745">
        <ele>342</ele>
        <time>2017-07-01T10:14:54Z</time>
      </trkpt>
      <trkpt lat="45.93565" lon="4.68746">
        <ele>343</ele>
        <time>2017-07-01T10:14:55Z</time>
      </trkpt>
      <trkpt lat="45.93572" lon="4.68748">
        <ele>343</ele>
        <time>2017-07-01T10:14:56Z</time>
      </trkpt>
      <trkpt lat="45.93579" lon="4.6875">
        <ele>344</ele>
        <time>2017-07-01T10:14:57Z</time>
      </trkpt>
      <trkpt lat="45.93585" lon="4.68751">
        <ele>344</ele>
        <time>2017-07-01T10:14:58Z</time>
      </trkpt>
      <trkpt lat="45.93591" lon="4.68753">
        <ele>344</ele>
        <time>2017-07-01T10:14:59Z</time>
      </trkpt>
      <trkpt lat="45.93598" lon="4.68755">
        <ele>344</ele>
        <time>2017-07-01T10:15:00Z</time>
      </trkpt>
      <trkpt lat="45.93605" lon="4.68756">
        <ele>344</ele>
        <time>2017-07-01T10:15:01Z</time>
      </trkpt>
      <trkpt lat="45.93611" lon="4.68758">
        <ele>344</ele>
        <time>2017-07-01T10:15:02Z</time>
      </trkpt>
      <trkpt lat="45.93617" lon="4.68759">
        <ele>343</ele>
        <time>2017-07-01T10:15:03Z</time>
      </trkpt>
      <trkpt lat="45.93623" lon="4.68761">
        <ele>343</ele>
        <time>2017-07-01T10:15:04Z</time>
      </trkpt>
      <trkpt lat="45.93629" lon="4.68762">
        <ele>343</ele>
        <time>2017-07-01T10:15:05Z</time>
      </trkpt>
      <trkpt lat="45.93635" lon="4.68764">
        <ele>343</ele>
        <time>2017-07-01T10:15:06Z</time>
      </trkpt>
      <trkpt lat="45.93641" lon="4.68767">
        <ele>343</ele>
        <time>2017-07-01T10:15:07Z</time>
      </trkpt>
      <trkpt lat="45.93647" lon="4.68771">
        <ele>343</ele>
        <time>2017-07-01T10:15:08Z</time>
      </trkpt>
      <trkpt lat="45.93654" lon="4.68773">
        <ele>343</ele>
        <time>2017-07-01T10:15:09Z</time>
      </trkpt>
      <trkpt lat="45.9366" lon="4.68774">
        <ele>343</ele>
        <time>2017-07-01T10:15:10Z</time>
      </trkpt>
      <trkpt lat="45.93667" lon="4.68774">
        <ele>342</ele>
        <time>2017-07-01T10:15:11Z</time>
      </trkpt>
      <trkpt lat="45.93674" lon="4.68775">
        <ele>342</ele>
        <time>2017-07-01T10:15:12Z</time>
      </trkpt>
      <trkpt lat="45.93681" lon="4.68776">
        <ele>342</ele>
        <time>2017-07-01T10:15:13Z</time>
      </trkpt>
      <trkpt lat="45.93688" lon="4.68777">
        <ele>342</ele>
        <time>2017-07-01T10:15:14Z</time>
      </trkpt>
      <trkpt lat="45.93694" lon="4.68779">
        <ele>342</ele>
        <time>2017-07-01T10:15:15Z</time>
      </trkpt>
      <trkpt lat="45.93701" lon="4.6878">
        <ele>342</ele>
        <time>2017-07-01T10:15:16Z</time>
      </trkpt>
      <trkpt lat="45.93707" lon="4.68782">
        <ele>342</ele>
        <time>2017-07-01T10:15:17Z</time>
      </trkpt>
      <trkpt lat="45.93712" lon="4.68784">
        <ele>342</ele>
        <time>2017-07-01T10:15:18Z</time>
      </trkpt>
      <trkpt lat="45.93718" lon="4.68786">
        <ele>342</ele>
        <time>2017-07-01T10:15:19Z</time>
      </trkpt>
      <trkpt lat="45.93724" lon="4.68788">
        <ele>342</ele>
        <time>2017-07-01T10:15:20Z</time>
      </trkpt>
      <trkpt lat="45.9373" lon="4.6879">
        <ele>342</ele>
        <time>2017-07-01T10:15:21Z</time>
      </trkpt>
      <trkpt lat="45.93736" lon="4.68792">
        <ele>342</ele>
        <time>2017-07-01T10:15:22Z</time>
      </trkpt>
      <trkpt lat="45.93743" lon="4.68794">
        <ele>342</ele>
        <time>2017-07-01T10:15:23Z</time>
      </trkpt>
      <trkpt lat="45.9375" lon="4.68796">
        <ele>342</ele>
        <time>2017-07-01T10:15:24Z</time>
      </trkpt>
      <trkpt lat="45.93757" lon="4.68798">
        <ele>341</ele>
        <time>2017-07-01T10:15:25Z</time>
      </trkpt>
      <trkpt lat="45.93764" lon="4.68799">
        <ele>341</ele>
        <time>2017-07-01T10:15:26Z</time>
      </trkpt>
      <trkpt lat="45.93771" lon="4.68801">
        <ele>341</ele>
        <time>2017-07-01T10:15:27Z</time>
      </trkpt>
      <trkpt lat="45.93778" lon="4.68804">
        <ele>341</ele>
        <time>2017-07-01T10:15:28Z</time>
      </trkpt>
      <trkpt lat="45.93785" lon="4.68808">
        <ele>341</ele>
        <time>2017-07-01T10:15:29Z</time>
      </trkpt>
      <trkpt lat="45.93792" lon="4.68812">
        <ele>341</ele>
        <time>2017-07-01T10:15:30Z</time>
      </trkpt>
      <trkpt lat="45.93799" lon="4.68816">
        <ele>341</ele>
        <time>2017-07-01T10:15:31Z</time>
      </trkpt>
      <trkpt lat="45.93806" lon="4.6882">
        <ele>341</ele>
        <time>2017-07-01T10:15:32Z</time>
      </trkpt>
      <trkpt lat="45.93813" lon="4.68825">
        <ele>341</ele>
        <time>2017-07-01T10:15:33Z</time>
      </trkpt>
      <trkpt lat="45.9382" lon="4.68829">
        <ele>341</ele>
        <time>2017-07-01T10:15:34Z</time>
      </trkpt>
      <trkpt lat="45.93827" lon="4.68833">
        <ele>342</ele>
        <time>2017-07-01T10:15:35Z</time>
      </trkpt>
      <trkpt lat="45.93833" lon="4.68837">
        <ele>342</ele>
        <time>2017-07-01T10:15:36Z</time>
      </trkpt>
      <trkpt lat="45.93839" lon="4.6884">
        <ele>342</ele>
        <time>2017-07-01T10:15:37Z</time>
      </trkpt>
      <trkpt lat="45.93845" lon="4.68844">
        <ele>342</ele>
        <time>2017-07-01T10:15:38Z</time>
      </trkpt>
      <trkpt lat="45.93851" lon="4.68848">
        <ele>342</ele>
        <time>2017-07-01T10:15:39Z</time>
      </trkpt>
      <trkpt lat="45.93857" lon="4.6885">
        <ele>342</ele>
        <time>2017-07-01T10:15:40Z</time>
      </trkpt>
      <trkpt lat="45.93863" lon="4.68854">
        <ele>342</ele>
        <time>2017-07-01T10:15:41Z</time>
      </trkpt>
      <trkpt lat="45.93868" lon="4.68857">
        <ele>342</ele>
        <time>2017-07-01T10:15:42Z</time>
      </trkpt>
      <trkpt lat="45.93873" lon="4.68861">
        <ele>342</ele>
        <time>2017-07-01T10:15:43Z</time>
      </trkpt>
      <trkpt lat="45.93879" lon="4.68865">
        <ele>343</ele>
        <time>2017-07-01T10:15:44Z</time>
      </trkpt>
      <trkpt lat="45.93885" lon="4.68869">
        <ele>343</ele>
        <time>2017-07-01T10:15:45Z</time>
      </trkpt>
      <trkpt lat="45.93891" lon="4.68873">
        <ele>343</ele>
        <time>2017-07-01T10:15:46Z</time>
      </trkpt>
      <trkpt lat="45.93897" lon="4.68876">
        <ele>342</ele>
        <time>2017-07-01T10:15:47Z</time>
      </trkpt>
      <trkpt lat="45.93903" lon="4.68879">
        <ele>342</ele>
        <time>2017-07-01T10:15:48Z</time>
      </trkpt>
      <trkpt lat="45.93909" lon="4.68882">
        <ele>342</ele>
        <time>2017-07-01T10:15:49Z</time>
      </trkpt>
      <trkpt lat="45.93916" lon="4.68885">
        <ele>342</ele>
        <time>2017-07-01T10:15:50Z</time>
      </trkpt>
      <trkpt lat="45.93923" lon="4.68887">
        <ele>342</ele>
        <time>2017-07-01T10:15:51Z</time>
      </trkpt>
      <trkpt lat="45.9393" lon="4.68889">
        <ele>342</ele>
        <time>2017-07-01T10:15:52Z</time>
      </trkpt>
      <trkpt lat="45.93937" lon="4.68891">
        <ele>342</ele>
        <time>2017-07-01T10:15:53Z</time>
      </trkpt>
      <trkpt lat="45.93943" lon="4.68893">
        <ele>342</ele>
        <time>2017-07-01T10:15:54Z</time>
      </trkpt>
      <trkpt lat="45.93948" lon="4.68895">
        <ele>342</ele>
        <time>2017-07-01T10:15:55Z</time>
      </trkpt>
      <trkpt lat="45.93954" lon="4.68897">
        <ele>342</ele>
        <time>2017-07-01T10:15:56Z</time>
      </trkpt>
      <trkpt lat="45.9396" lon="4.68899">
        <ele>342</ele>
        <time>2017-07-01T10:15:57Z</time>
      </trkpt>
      <trkpt lat="45.93966" lon="4.68901">
        <ele>342</ele>
        <time>2017-07-01T10:15:58Z</time>
      </trkpt>
      <trkpt lat="45.93971" lon="4.68903">
        <ele>342</ele>
        <time>2017-07-01T10:15:59Z</time>
      </trkpt>
      <trkpt lat="45.93975" lon="4.68906">
        <ele>342</ele>
        <time>2017-07-01T10:16:00Z</time>
      </trkpt>
      <trkpt lat="45.93981" lon="4.68908">
        <ele>342</ele>
        <time>2017-07-01T10:16:01Z</time>
      </trkpt>
      <trkpt lat="45.93986" lon="4.6891">
        <ele>342</ele>
        <time>2017-07-01T10:16:02Z</time>
      </trkpt>
      <trkpt lat="45.93991" lon="4.68911">
        <ele>342</ele>
        <time>2017-07-01T10:16:03Z</time>
      </trkpt>
      <trkpt lat="45.93996" lon="4.68913">
        <ele>342</ele>
        <time>2017-07-01T10:16:04Z</time>
      </trkpt>
      <trkpt lat="45.94002" lon="4.68915">
        <ele>342</ele>
        <time>2017-07-01T10:16:05Z</time>
      </trkpt>
      <trkpt lat="45.94007" lon="4.68917">
        <ele>342</ele>
        <time>2017-07-01T10:16:06Z</time>
      </trkpt>
      <trkpt lat="45.94013" lon="4.6892">
        <ele>342</ele>
        <time>2017-07-01T10:16:07Z</time>
      </trkpt>
      <trkpt lat="45.94019" lon="4.68922">
        <ele>341</ele>
        <time>2017-07-01T10:16:08Z</time>
      </trkpt>
      <trkpt lat="45.94025" lon="4.68925">
        <ele>341</ele>
        <time>2017-07-01T10:16:09Z</time>
      </trkpt>
      <trkpt lat="45.9403" lon="4.68927">
        <ele>341</ele>
        <time>2017-07-01T10:16:10Z</time>
      </trkpt>
      <trkpt lat="45.94036" lon="4.6893">
        <ele>341</ele>
        <time>2017-07-01T10:16:11Z</time>
      </trkpt>
      <trkpt lat="45.94042" lon="4.68932">
        <ele>341</ele>
        <time>2017-07-01T10:16:12Z</time>
      </trkpt>
      <trkpt lat="45.94048" lon="4.68935">
        <ele>341</ele>
        <time>2017-07-01T10:16:13Z</time>
      </trkpt>
      <trkpt lat="45.94054" lon="4.68938">
        <ele>341</ele>
        <time>2017-07-01T10:16:14Z</time>
      </trkpt>
      <trkpt lat="45.9406" lon="4.68941">
        <ele>341</ele>
        <time>2017-07-01T10:16:15Z</time>
      </trkpt>
      <trkpt lat="45.94066" lon="4.68945">
        <ele>341</ele>
        <time>2017-07-01T10:16:16Z</time>
      </trkpt>
      <trkpt lat="45.94071" lon="4.68948">
        <ele>341</ele>
        <time>2017-07-01T10:16:17Z</time>
      </trkpt>
      <trkpt lat="45.94078" lon="4.6895">
        <ele>341</ele>
        <time>2017-07-01T10:16:18Z</time>
      </trkpt>
      <trkpt lat="45.94083" lon="4.68952">
        <ele>341</ele>
        <time>2017-07-01T10:16:19Z</time>
      </trkpt>
      <trkpt lat="45.94089" lon="4.68952">
        <ele>340</ele>
        <time>2017-07-01T10:16:20Z</time>
      </trkpt>
      <trkpt lat="45.94096" lon="4.68952">
        <ele>340</ele>
        <time>2017-07-01T10:16:21Z</time>
      </trkpt>
      <trkpt lat="45.94102" lon="4.68953">
        <ele>340</ele>
        <time>2017-07-01T10:16:22Z</time>
      </trkpt>
      <trkpt lat="45.94108" lon="4.68955">
        <ele>340</ele>
        <time>2017-07-01T10:16:23Z</time>
      </trkpt>
      <trkpt lat="45.94115" lon="4.68957">
        <ele>340</ele>
        <time>2017-07-01T10:16:24Z</time>
      </trkpt>
      <trkpt lat="45.94121" lon="4.6896">
        <ele>340</ele>
        <time>2017-07-01T10:16:25Z</time>
      </trkpt>
      <trkpt lat="45.94128" lon="4.68963">
        <ele>340</ele>
        <time>2017-07-01T10:16:26Z</time>
      </trkpt>
      <trkpt lat="45.94135" lon="4.68965">
        <ele>340</ele>
        <time>2017-07-01T10:16:27Z</time>
      </trkpt>
      <trkpt lat="45.94142" lon="4.68967">
        <ele>340</ele>
        <time>2017-07-01T10:16:28Z</time>
      </trkpt>
      <trkpt lat="45.94149" lon="4.68969">
        <ele>340</ele>
        <time>2017-07-01T10:16:29Z</time>
      </trkpt>
      <trkpt lat="45.94155" lon="4.68971">
        <ele>340</ele>
        <time>2017-07-01T10:16:30Z</time>
      </trkpt>
      <trkpt lat="45.94162" lon="4.68973">
        <ele>340</ele>
        <time>2017-07-01T10:16:31Z</time>
      </trkpt>
      <trkpt lat="45.94168" lon="4.68975">
        <ele>339</ele>
        <time>2017-07-01T10:16:32Z</time>
      </trkpt>
      <trkpt lat="45.94174" lon="4.68977">
        <ele>339</ele>
        <time>2017-07-01T10:16:33Z</time>
      </trkpt>
      <trkpt lat="45.9418" lon="4.6898">
        <ele>339</ele>
        <time>2017-07-01T10:16:34Z</time>
      </trkpt>
      <trkpt lat="45.94186" lon="4.68982">
        <ele>338</ele>
        <time>2017-07-01T10:16:35Z</time>
      </trkpt>
      <trkpt lat="45.94191" lon="4.68984">
        <ele>338</ele>
        <time>2017-07-01T10:16:36Z</time>
      </trkpt>
      <trkpt lat="45.94197" lon="4.68986">
        <ele>338</ele>
        <time>2017-07-01T10:16:37Z</time>
      </trkpt>
      <trkpt lat="45.94203" lon="4.68988">
        <ele>338</ele>
        <time>2017-07-01T10:16:38Z</time>
      </trkpt>
      <trkpt lat="45.9421" lon="4.6899">
        <ele>338</ele>
        <time>2017-07-01T10:16:39Z</time>
      </trkpt>
      <trkpt lat="45.94216" lon="4.68992">
        <ele>338</ele>
        <time>2017-07-01T10:16:40Z</time>
      </trkpt>
      <trkpt lat="45.94222" lon="4.68993">
        <ele>338</ele>
        <time>2017-07-01T10:16:41Z</time>
      </trkpt>
      <trkpt lat="45.94228" lon="4.68994">
        <ele>338</ele>
        <time>2017-07-01T10:16:42Z</time>
      </trkpt>
      <trkpt lat="45.94235" lon="4.68995">
        <ele>338</ele>
        <time>2017-07-01T10:16:43Z</time>
      </trkpt>
      <trkpt lat="45.94241" lon="4.68996">
        <ele>338</ele>
        <time>2017-07-01T10:16:44Z</time>
      </trkpt>
      <trkpt lat="45.94248" lon="4.68998">
        <ele>338</ele>
        <time>2017-07-01T10:16:45Z</time>
      </trkpt>
      <trkpt lat="45.94254" lon="4.68999">
        <ele>338</ele>
        <time>2017-07-01T10:16:46Z</time>
      </trkpt>
      <trkpt lat="45.94261" lon="4.69">
        <ele>337</ele>
        <time>2017-07-01T10:16:47Z</time>
      </trkpt>
      <trkpt lat="45.94268" lon="4.69001">
        <ele>337</ele>
        <time>2017-07-01T10:16:48Z</time>
      </trkpt>
      <trkpt lat="45.94276" lon="4.69002">
        <ele>337</ele>
        <time>2017-07-01T10:16:49Z</time>
      </trkpt>
      <trkpt lat="45.94283" lon="4.69003">
        <ele>337</ele>
        <time>2017-07-01T10:16:50Z</time>
      </trkpt>
      <trkpt lat="45.9429" lon="4.69004">
        <ele>337</ele>
        <time>2017-07-01T10:16:51Z</time>
      </trkpt>
      <trkpt lat="45.94298" lon="4.69005">
        <ele>337</ele>
        <time>2017-07-01T10:16:52Z</time>
      </trkpt>
      <trkpt lat="45.94305" lon="4.69006">
        <ele>337</ele>
        <time>2017-07-01T10:16:53Z</time>
      </trkpt>
      <trkpt lat="45.94312" lon="4.69007">
        <ele>337</ele>
        <time>2017-07-01T10:16:54Z</time>
      </trkpt>
      <trkpt lat="45.94319" lon="4.69008">
        <ele>337</ele>
        <time>2017-07-01T10:16:55Z</time>
      </trkpt>
      <trkpt lat="45.94325" lon="4.69009">
        <ele>337</ele>
        <time>2017-07-01T10:16:56Z</time>
      </trkpt>
      <trkpt lat="45.94331" lon="4.6901">
        <ele>337</ele>
        <time>2017-07-01T10:16:57Z</time>
      </trkpt>
      <trkpt lat="45.94337" lon="4.6901">
        <ele>337</ele>
        <time>2017-07-01T10:16:58Z</time>
      </trkpt>
      <trkpt lat="45.94342" lon="4.6901">
        <ele>337</ele>
        <time>2017-07-01T10:16:59Z</time>
      </trkpt>
      <trkpt lat="45.94347" lon="4.6901">
        <ele>338</ele>
        <time>2017-07-01T10:17:00Z</time>
      </trkpt>
      <trkpt lat="45.94352" lon="4.69011">
        <ele>338</ele>
        <time>2017-07-01T10:17:01Z</time>
      </trkpt>
      <trkpt lat="45.94358" lon="4.69011">
        <ele>338</ele>
        <time>2017-07-01T10:17:02Z</time>
      </trkpt>
      <trkpt lat="45.94363" lon="4.69011">
        <ele>338</ele>
        <time>2017-07-01T10:17:03Z</time>
      </trkpt>
      <trkpt lat="45.94368" lon="4.69011">
        <ele>338</ele>
        <time>2017-07-01T10:17:04Z</time>
      </trkpt>
      <trkpt lat="45.94373" lon="4.69012">
        <ele>338</ele>
        <time>2017-07-01T10:17:05Z</time>
      </trkpt>
      <trkpt lat="45.94378" lon="4.69011">
        <ele>338</ele>
        <time>2017-07-01T10:17:06Z</time>
      </trkpt>
      <trkpt lat="45.94384" lon="4.69011">
        <ele>338</ele>
        <time>2017-07-01T10:17:07Z</time>
      </trkpt>
      <trkpt lat="45.94389" lon="4.69011">
        <ele>338</ele>
        <time>2017-07-01T10:17:08Z</time>
      </trkpt>
      <trkpt lat="45.94395" lon="4.69011">
        <ele>339</ele>
        <time>2017-07-01T10:17:09Z</time>
      </trkpt>
      <trkpt lat="45.94401" lon="4.69012">
        <ele>339</ele>
        <time>2017-07-01T10:17:10Z</time>
      </trkpt>
      <trkpt lat="45.94407" lon="4.69012">
        <ele>339</ele>
        <time>2017-07-01T10:17:11Z</time>
      </trkpt>
      <trkpt lat="45.94414" lon="4.69012">
        <ele>339</ele>
        <time>2017-07-01T10:17:12Z</time>
      </trkpt>
      <trkpt lat="45.9442" lon="4.69012">
        <ele>340</ele>
        <time>2017-07-01T10:17:13Z</time>
      </trkpt>
      <trkpt lat="45.94426" lon="4.69012">
        <ele>340</ele>
        <time>2017-07-01T10:17:14Z</time>
      </trkpt>
      <trkpt lat="45.94432" lon="4.69012">
        <ele>340</ele>
        <time>2017-07-01T10:17:15Z</time>
      </trkpt>
      <trkpt lat="45.94437" lon="4.69012">
        <ele>340</ele>
        <time>2017-07-01T10:17:16Z</time>
      </trkpt>
      <trkpt lat="45.94443" lon="4.69012">
        <ele>340</ele>
        <time>2017-07-01T10:17:17Z</time>
      </trkpt>
      <trkpt lat="45.94448" lon="4.69011">
        <ele>340</ele>
        <time>2017-07-01T10:17:18Z</time>
      </trkpt>
      <trkpt lat="45.94453" lon="4.69011">
        <ele>340</ele>
        <time>2017-07-01T10:17:19Z</time>
      </trkpt>
      <trkpt lat="45.94459" lon="4.69011">
        <ele>341</ele>
        <time>2017-07-01T10:17:20Z</time>
      </trkpt>
      <trkpt lat="45.94464" lon="4.69011">
        <ele>341</ele>
        <time>2017-07-01T10:17:21Z</time>
      </trkpt>
      <trkpt lat="45.9447" lon="4.69011">
        <ele>341</ele>
        <time>2017-07-01T10:17:22Z</time>
      </trkpt>
      <trkpt lat="45.94476" lon="4.69012">
        <ele>341</ele>
        <time>2017-07-01T10:17:23Z</time>
      </trkpt>
      <trkpt lat="45.94482" lon="4.69012">
        <ele>341</ele>
        <time>2017-07-01T10:17:24Z</time>
      </trkpt>
      <trkpt lat="45.94488" lon="4.69013">
        <ele>341</ele>
        <time>2017-07-01T10:17:25Z</time>
      </trkpt>
      <trkpt lat="45.94494" lon="4.69014">
        <ele>341</ele>
        <time>2017-07-01T10:17:26Z</time>
      </trkpt>
      <trkpt lat="45.94501" lon="4.69015">
        <ele>341</ele>
        <time>2017-07-01T10:17:27Z</time>
      </trkpt>
      <trkpt lat="45.94506" lon="4.69017">
        <ele>342</ele>
        <time>2017-07-01T10:17:28Z</time>
      </trkpt>
      <trkpt lat="45.94512" lon="4.69018">
        <ele>342</ele>
        <time>2017-07-01T10:17:29Z</time>
      </trkpt>
      <trkpt lat="45.94517" lon="4.6902">
        <ele>342</ele>
        <time>2017-07-01T10:17:30Z</time>
      </trkpt>
      <trkpt lat="45.94522" lon="4.69021">
        <ele>342</ele>
        <time>2017-07-01T10:17:31Z</time>
      </trkpt>
      <trkpt lat="45.94527" lon="4.69022">
        <ele>342</ele>
        <time>2017-07-01T10:17:32Z</time>
      </trkpt>
      <trkpt lat="45.94531" lon="4.69024">
        <ele>342</ele>
        <time>2017-07-01T10:17:33Z</time>
      </trkpt>
      <trkpt lat="45.94536" lon="4.69026">
        <ele>342</ele>
        <time>2017-07-01T10:17:34Z</time>
      </trkpt>
      <trkpt lat="45.9454" lon="4.69027">
        <ele>342</ele>
        <time>2017-07-01T10:17:35Z</time>
      </trkpt>
      <trkpt lat="45.94545" lon="4.69029">
        <ele>342</ele>
        <time>2017-07-01T10:17:36Z</time>
      </trkpt>
      <trkpt lat="45.94551" lon="4.6903">
        <ele>342</ele>
        <time>2017-07-01T10:17:37Z</time>
      </trkpt>
      <trkpt lat="45.94557" lon="4.69031">
        <ele>342</ele>
        <time>2017-07-01T10:17:38Z</time>
      </trkpt>
      <trkpt lat="45.94563" lon="4.69033">
        <ele>342</ele>
        <time>2017-07-01T10:17:39Z</time>
      </trkpt>
      <trkpt lat="45.94569" lon="4.69034">
        <ele>342</ele>
        <time>2017-07-01T10:17:40Z</time>
      </trkpt>
      <trkpt lat="45.94575" lon="4.69036">
        <ele>342</ele>
        <time>2017-07-01T10:17:41Z</time>
      </trkpt>
      <trkpt lat="45.94581" lon="4.69038">
        <ele>342</ele>
        <time>2017-07-01T10:17:42Z</time>
      </trkpt>
      <trkpt lat="45.94586" lon="4.69039">
        <ele>342</ele>
        <time>2017-07-01T10:17:43Z</time>
      </trkpt>
      <trkpt lat="45.94591" lon="4.69041">
        <ele>342</ele>
        <time>2017-07-01T10:17:44Z</time>
      </trkpt>
      <trkpt lat="45.94596" lon="4.69043">
        <ele>342</ele>
        <time>2017-07-01T10:17:45Z</time>
      </trkpt>
      <trkpt lat="45.94601" lon="4.69044">
        <ele>342</ele>
        <time>2017-07-01T10:17:46Z</time>
      </trkpt>
      <trkpt lat="45.94605" lon="4.69046">
        <ele>342</ele>
        <time>2017-07-01T10:17:47Z</time>
      </trkpt>
      <trkpt lat="45.9461" lon="4.69047">
        <ele>342</ele>
        <time>2017-07-01T10:17:48Z</time>
      </trkpt>
      <trkpt lat="45.94615" lon="4.69049">
        <ele>342</ele>
        <time>2017-07-01T10:17:49Z</time>
      </trkpt>
      <trkpt lat="45.9462" lon="4.6905">
        <ele>342</ele>
        <time>2017-07-01T10:17:50Z</time>
      </trkpt>
      <trkpt lat="45.94625" lon="4.69052">
        <ele>342</ele>
        <time>2017-07-01T10:17:51Z</time>
      </trkpt>
      <trkpt lat="45.9463" lon="4.69054">
        <ele>342</ele>
        <time>2017-07-01T10:17:52Z</time>
      </trkpt>
      <trkpt lat="45.94636" lon="4.69055">
        <ele>342</ele>
        <time>2017-07-01T10:17:53Z</time>
      </trkpt>
      <trkpt lat="45.94641" lon="4.69057">
        <ele>342</ele>
        <time>2017-07-01T10:17:54Z</time>
      </trkpt>
      <trkpt lat="45.94645" lon="4.69058">
        <ele>342</ele>
        <time>2017-07-01T10:17:55Z</time>
      </trkpt>
      <trkpt lat="45.94654" lon="4.69061">
        <ele>342</ele>
        <time>2017-07-01T10:17:57Z</time>
      </trkpt>
      <trkpt lat="45.94658" lon="4.69063">
        <ele>342</ele>
        <time>2017-07-01T10:17:58Z</time>
      </trkpt>
      <trkpt lat="45.94662" lon="4.69064">
        <ele>342</ele>
        <time>2017-07-01T10:17:59Z</time>
      </trkpt>
      <trkpt lat="45.94667" lon="4.69065">
        <ele>342</ele>
        <time>2017-07-01T10:18:00Z</time>
      </trkpt>
      <trkpt lat="45.94671" lon="4.69067">
        <ele>342</ele>
        <time>2017-07-01T10:18:01Z</time>
      </trkpt>
      <trkpt lat="45.94676" lon="4.69068">
        <ele>342</ele>
        <time>2017-07-01T10:18:02Z</time>
      </trkpt>
      <trkpt lat="45.94684" lon="4.69072">
        <ele>342</ele>
        <time>2017-07-01T10:18:04Z</time>
      </trkpt>
      <trkpt lat="45.94688" lon="4.69073">
        <ele>342</ele>
        <time>2017-07-01T10:18:05Z</time>
      </trkpt>
      <trkpt lat="45.94696" lon="4.69076">
        <ele>342</ele>
        <time>2017-07-01T10:18:07Z</time>
      </trkpt>
      <trkpt lat="45.94701" lon="4.69077">
        <ele>342</ele>
        <time>2017-07-01T10:18:08Z</time>
      </trkpt>
      <trkpt lat="45.94706" lon="4.69079">
        <ele>342</ele>
        <time>2017-07-01T10:18:09Z</time>
      </trkpt>
      <trkpt lat="45.94711" lon="4.6908">
        <ele>343</ele>
        <time>2017-07-01T10:18:10Z</time>
      </trkpt>
      <trkpt lat="45.94716" lon="4.69082">
        <ele>343</ele>
        <time>2017-07-01T10:18:11Z</time>
      </trkpt>
      <trkpt lat="45.94721" lon="4.69083">
        <ele>343</ele>
        <time>2017-07-01T10:18:12Z</time>
      </trkpt>
      <trkpt lat="45.94726" lon="4.69085">
        <ele>344</ele>
        <time>2017-07-01T10:18:13Z</time>
      </trkpt>
      <trkpt lat="45.9473" lon="4.69086">
        <ele>344</ele>
        <time>2017-07-01T10:18:14Z</time>
      </trkpt>
      <trkpt lat="45.94739" lon="4.69089">
        <ele>344</ele>
        <time>2017-07-01T10:18:16Z</time>
      </trkpt>
      <trkpt lat="45.94743" lon="4.69091">
        <ele>345</ele>
        <time>2017-07-01T10:18:17Z</time>
      </trkpt>
      <trkpt lat="45.94751" lon="4.69093">
        <ele>345</ele>
        <time>2017-07-01T10:18:19Z</time>
      </trkpt>
      <trkpt lat="45.94755" lon="4.69094">
        <ele>345</ele>
        <time>2017-07-01T10:18:20Z</time>
      </trkpt>
      <trkpt lat="45.9476" lon="4.69096">
        <ele>345</ele>
        <time>2017-07-01T10:18:21Z</time>
      </trkpt>
      <trkpt lat="45.94765" lon="4.69098">
        <ele>344</ele>
        <time>2017-07-01T10:18:22Z</time>
      </trkpt>
      <trkpt lat="45.9477" lon="4.69099">
        <ele>344</ele>
        <time>2017-07-01T10:18:23Z</time>
      </trkpt>
      <trkpt lat="45.94774" lon="4.69101">
        <ele>344</ele>
        <time>2017-07-01T10:18:24Z</time>
      </trkpt>
      <trkpt lat="45.94779" lon="4.69103">
        <ele>344</ele>
        <time>2017-07-01T10:18:25Z</time>
      </trkpt>
      <trkpt lat="45.94783" lon="4.69105">
        <ele>344</ele>
        <time>2017-07-01T10:18:26Z</time>
      </trkpt>
      <trkpt lat="45.94788" lon="4.69106">
        <ele>344</ele>
        <time>2017-07-01T10:18:27Z</time>
      </trkpt>
      <trkpt lat="45.94792" lon="4.69108">
        <ele>344</ele>
        <time>2017-07-01T10:18:28Z</time>
      </trkpt>
      <trkpt lat="45.94796" lon="4.69109">
        <ele>344</ele>
        <time>2017-07-01T10:18:29Z</time>
      </trkpt>
      <trkpt lat="45.94801" lon="4.69111">
        <ele>344</ele>
        <time>2017-07-01T10:18:30Z</time>
      </trkpt>
      <trkpt lat="45.94806" lon="4.69112">
        <ele>344</ele>
        <time>2017-07-01T10:18:31Z</time>
      </trkpt>
      <trkpt lat="45.94811" lon="4.69114">
        <ele>344</ele>
        <time>2017-07-01T10:18:32Z</time>
      </trkpt>
      <trkpt lat="45.94816" lon="4.69116">
        <ele>344</ele>
        <time>2017-07-01T10:18:33Z</time>
      </trkpt>
      <trkpt lat="45.94821" lon="4.69117">
        <ele>344</ele>
        <time>2017-07-01T10:18:34Z</time>
      </trkpt>
      <trkpt lat="45.94826" lon="4.69119">
        <ele>344</ele>
        <time>2017-07-01T10:18:35Z</time>
      </trkpt>
      <trkpt lat="45.94831" lon="4.6912">
        <ele>344</ele>
        <time>2017-07-01T10:18:36Z</time>
      </trkpt>
      <trkpt lat="45.94836" lon="4.69122">
        <ele>342</ele>
        <time>2017-07-01T10:18:37Z</time>
      </trkpt>
      <trkpt lat="45.94841" lon="4.69124">
        <ele>342</ele>
        <time>2017-07-01T10:18:38Z</time>
      </trkpt>
      <trkpt lat="45.94846" lon="4.69126">
        <ele>342</ele>
        <time>2017-07-01T10:18:39Z</time>
      </trkpt>
      <trkpt lat="45.94851" lon="4.69128">
        <ele>342</ele>
        <time>2017-07-01T10:18:40Z</time>
      </trkpt>
      <trkpt lat="45.94856" lon="4.6913">
        <ele>342</ele>
        <time>2017-07-01T10:18:41Z</time>
      </trkpt>
      <trkpt lat="45.94861" lon="4.69132">
        <ele>342</ele>
        <time>2017-07-01T10:18:42Z</time>
      </trkpt>
      <trkpt lat="45.94866" lon="4.69134">
        <ele>342</ele>
        <time>2017-07-01T10:18:43Z</time>
      </trkpt>
      <trkpt lat="45.94871" lon="4.69136">
        <ele>342</ele>
        <time>2017-07-01T10:18:44Z</time>
      </trkpt>
      <trkpt lat="45.94876" lon="4.69138">
        <ele>342</ele>
        <time>2017-07-01T10:18:45Z</time>
      </trkpt>
      <trkpt lat="45.94881" lon="4.6914">
        <ele>342</ele>
        <time>2017-07-01T10:18:46Z</time>
      </trkpt>
      <trkpt lat="45.94886" lon="4.69143">
        <ele>342</ele>
        <time>2017-07-01T10:18:47Z</time>
      </trkpt>
      <trkpt lat="45.94891" lon="4.69145">
        <ele>342</ele>
        <time>2017-07-01T10:18:48Z</time>
      </trkpt>
      <trkpt lat="45.94896" lon="4.69148">
        <ele>342</ele>
        <time>2017-07-01T10:18:49Z</time>
      </trkpt>
      <trkpt lat="45.94901" lon="4.69151">
        <ele>342</ele>
        <time>2017-07-01T10:18:50Z</time>
      </trkpt>
      <trkpt lat="45.94907" lon="4.69153">
        <ele>342</ele>
        <time>2017-07-01T10:18:51Z</time>
      </trkpt>
      <trkpt lat="45.94913" lon="4.69156">
        <ele>342</ele>
        <time>2017-07-01T10:18:52Z</time>
      </trkpt>
      <trkpt lat="45.94919" lon="4.69159">
        <ele>341</ele>
        <time>2017-07-01T10:18:53Z</time>
      </trkpt>
      <trkpt lat="45.94925" lon="4.69162">
        <ele>341</ele>
        <time>2017-07-01T10:18:54Z</time>
      </trkpt>
      <trkpt lat="45.94931" lon="4.69166">
        <ele>340</ele>
        <time>2017-07-01T10:18:55Z</time>
      </trkpt>
      <trkpt lat="45.94938" lon="4.6917">
        <ele>341</ele>
        <time>2017-07-01T10:18:56Z</time>
      </trkpt>
      <trkpt lat="45.94944" lon="4.69174">
        <ele>341</ele>
        <time>2017-07-01T10:18:57Z</time>
      </trkpt>
      <trkpt lat="45.94951" lon="4.69178">
        <ele>340</ele>
        <time>2017-07-01T10:18:58Z</time>
      </trkpt>
      <trkpt lat="45.94957" lon="4.69182">
        <ele>340</ele>
        <time>2017-07-01T10:18:59Z</time>
      </trkpt>
      <trkpt lat="45.94964" lon="4.69187">
        <ele>340</ele>
        <time>2017-07-01T10:19:00Z</time>
      </trkpt>
      <trkpt lat="45.9497" lon="4.69192">
        <ele>340</ele>
        <time>2017-07-01T10:19:01Z</time>
      </trkpt>
      <trkpt lat="45.94977" lon="4.69198">
        <ele>340</ele>
        <time>2017-07-01T10:19:02Z</time>
      </trkpt>
      <trkpt lat="45.94984" lon="4.69205">
        <ele>340</ele>
        <time>2017-07-01T10:19:03Z</time>
      </trkpt>
      <trkpt lat="45.94991" lon="4.6921">
        <ele>340</ele>
        <time>2017-07-01T10:19:04Z</time>
      </trkpt>
      <trkpt lat="45.94998" lon="4.69214">
        <ele>340</ele>
        <time>2017-07-01T10:19:05Z</time>
      </trkpt>
      <trkpt lat="45.95006" lon="4.69217">
        <ele>337</ele>
        <time>2017-07-01T10:19:06Z</time>
      </trkpt>
      <trkpt lat="45.95014" lon="4.6922">
        <ele>337</ele>
        <time>2017-07-01T10:19:07Z</time>
      </trkpt>
      <trkpt lat="45.95022" lon="4.69226">
        <ele>337</ele>
        <time>2017-07-01T10:19:08Z</time>
      </trkpt>
      <trkpt lat="45.95029" lon="4.69232">
        <ele>337</ele>
        <time>2017-07-01T10:19:09Z</time>
      </trkpt>
      <trkpt lat="45.95037" lon="4.69239">
        <ele>336</ele>
        <time>2017-07-01T10:19:10Z</time>
      </trkpt>
      <trkpt lat="45.95045" lon="4.69246">
        <ele>336</ele>
        <time>2017-07-01T10:19:11Z</time>
      </trkpt>
      <trkpt lat="45.95052" lon="4.69253">
        <ele>336</ele>
        <time>2017-07-01T10:19:12Z</time>
      </trkpt>
      <trkpt lat="45.95059" lon="4.69261">
        <ele>336</ele>
        <time>2017-07-01T10:19:13Z</time>
      </trkpt>
      <trkpt lat="45.95067" lon="4.69269">
        <ele>336</ele>
        <time>2017-07-01T10:19:14Z</time>
      </trkpt>
      <trkpt lat="45.95074" lon="4.69276">
        <ele>336</ele>
        <time>2017-07-01T10:19:15Z</time>
      </trkpt>
      <trkpt lat="45.95082" lon="4.69283">
        <ele>336</ele>
        <time>2017-07-01T10:19:16Z</time>
      </trkpt>
      <trkpt lat="45.95089" lon="4.69291">
        <ele>334</ele>
        <time>2017-07-01T10:19:17Z</time>
      </trkpt>
      <trkpt lat="45.95096" lon="4.69299">
        <ele>334</ele>
        <time>2017-07-01T10:19:18Z</time>
      </trkpt>
      <trkpt lat="45.95103" lon="4.69307">
        <ele>334</ele>
        <time>2017-07-01T10:19:19Z</time>
      </trkpt>
      <trkpt lat="45.95109" lon="4.69314">
        <ele>334</ele>
        <time>2017-07-01T10:19:20Z</time>
      </trkpt>
      <trkpt lat="45.95116" lon="4.69322">
        <ele>334</ele>
        <time>2017-07-01T10:19:21Z</time>
      </trkpt>
      <trkpt lat="45.95123" lon="4.69328">
        <ele>334</ele>
        <time>2017-07-01T10:19:22Z</time>
      </trkpt>
      <trkpt lat="45.95129" lon="4.69335">
        <ele>336</ele>
        <time>2017-07-01T10:19:23Z</time>
      </trkpt>
      <trkpt lat="45.95136" lon="4.69341">
        <ele>337</ele>
        <time>2017-07-01T10:19:24Z</time>
      </trkpt>
      <trkpt lat="45.95143" lon="4.69347">
        <ele>337</ele>
        <time>2017-07-01T10:19:25Z</time>
      </trkpt>
      <trkpt lat="45.95149" lon="4.69353">
        <ele>337</ele>
        <time>2017-07-01T10:19:26Z</time>
      </trkpt>
      <trkpt lat="45.95155" lon="4.69359">
        <ele>337</ele>
        <time>2017-07-01T10:19:27Z</time>
      </trkpt>
      <trkpt lat="45.9516" lon="4.69365">
        <ele>337</ele>
        <time>2017-07-01T10:19:28Z</time>
      </trkpt>
      <trkpt lat="45.95165" lon="4.6937">
        <ele>337</ele>
        <time>2017-07-01T10:19:29Z</time>
      </trkpt>
      <trkpt lat="45.95171" lon="4.69375">
        <ele>337</ele>
        <time>2017-07-01T10:19:30Z</time>
      </trkpt>
      <trkpt lat="45.95176" lon="4.6938">
        <ele>337</ele>
        <time>2017-07-01T10:19:31Z</time>
      </trkpt>
      <trkpt lat="45.95181" lon="4.69384">
        <ele>337</ele>
        <time>2017-07-01T10:19:32Z</time>
      </trkpt>
      <trkpt lat="45.95186" lon="4.69389">
        <ele>337</ele>
        <time>2017-07-01T10:19:33Z</time>
      </trkpt>
      <trkpt lat="45.95191" lon="4.69393">
        <ele>337</ele>
        <time>2017-07-01T10:19:34Z</time>
      </trkpt>
      <trkpt lat="45.95197" lon="4.69398">
        <ele>337</ele>
        <time>2017-07-01T10:19:35Z</time>
      </trkpt>
      <trkpt lat="45.95203" lon="4.69401">
        <ele>337</ele>
        <time>2017-07-01T10:19:36Z</time>
      </trkpt>
      <trkpt lat="45.95209" lon="4.69405">
        <ele>337</ele>
        <time>2017-07-01T10:19:37Z</time>
      </trkpt>
      <trkpt lat="45.95215" lon="4.69408">
        <ele>337</ele>
        <time>2017-07-01T10:19:38Z</time>
      </trkpt>
      <trkpt lat="45.95221" lon="4.69411">
        <ele>337</ele>
        <time>2017-07-01T10:19:39Z</time>
      </trkpt>
      <trkpt lat="45.95226" lon="4.69414">
        <ele>337</ele>
        <time>2017-07-01T10:19:40Z</time>
      </trkpt>
      <trkpt lat="45.95231" lon="4.69418">
        <ele>339</ele>
        <time>2017-07-01T10:19:41Z</time>
      </trkpt>
      <trkpt lat="45.95236" lon="4.6942">
        <ele>339</ele>
        <time>2017-07-01T10:19:42Z</time>
      </trkpt>
      <trkpt lat="45.95241" lon="4.69423">
        <ele>339</ele>
        <time>2017-07-01T10:19:43Z</time>
      </trkpt>
      <trkpt lat="45.95247" lon="4.69425">
        <ele>339</ele>
        <time>2017-07-01T10:19:44Z</time>
      </trkpt>
      <trkpt lat="45.95252" lon="4.69428">
        <ele>338</ele>
        <time>2017-07-01T10:19:45Z</time>
      </trkpt>
      <trkpt lat="45.95258" lon="4.6943">
        <ele>338</ele>
        <time>2017-07-01T10:19:46Z</time>
      </trkpt>
      <trkpt lat="45.95263" lon="4.69433">
        <ele>338</ele>
        <time>2017-07-01T10:19:47Z</time>
      </trkpt>
      <trkpt lat="45.95269" lon="4.69436">
        <ele>338</ele>
        <time>2017-07-01T10:19:48Z</time>
      </trkpt>
      <trkpt lat="45.95275" lon="4.69438">
        <ele>338</ele>
        <time>2017-07-01T10:19:49Z</time>
      </trkpt>
      <trkpt lat="45.95281" lon="4.69442">
        <ele>338</ele>
        <time>2017-07-01T10:19:50Z</time>
      </trkpt>
      <trkpt lat="45.95286" lon="4.69445">
        <ele>338</ele>
        <time>2017-07-01T10:19:51Z</time>
      </trkpt>
      <trkpt lat="45.95291" lon="4.69448">
        <ele>338</ele>
        <time>2017-07-01T10:19:52Z</time>
      </trkpt>
      <trkpt lat="45.95297" lon="4.69451">
        <ele>338</ele>
        <time>2017-07-01T10:19:53Z</time>
      </trkpt>
      <trkpt lat="45.95302" lon="4.69454">
        <ele>338</ele>
        <time>2017-07-01T10:19:54Z</time>
      </trkpt>
      <trkpt lat="45.95307" lon="4.69456">
        <ele>338</ele>
        <time>2017-07-01T10:19:55Z</time>
      </trkpt>
      <trkpt lat="45.95312" lon="4.69459">
        <ele>338</ele>
        <time>2017-07-01T10:19:56Z</time>
      </trkpt>
      <trkpt lat="45.95317" lon="4.69461">
        <ele>338</ele>
        <time>2017-07-01T10:19:57Z</time>
      </trkpt>
      <trkpt lat="45.95322" lon="4.69463">
        <ele>339</ele>
        <time>2017-07-01T10:19:58Z</time>
      </trkpt>
      <trkpt lat="45.95328" lon="4.69466">
        <ele>339</ele>
        <time>2017-07-01T10:19:59Z</time>
      </trkpt>
      <trkpt lat="45.95334" lon="4.69468">
        <ele>337</ele>
        <time>2017-07-01T10:20:00Z</time>
      </trkpt>
      <trkpt lat="45.9534" lon="4.69471">
        <ele>337</ele>
        <time>2017-07-01T10:20:01Z</time>
      </trkpt>
      <trkpt lat="45.95346" lon="4.69474">
        <ele>337</ele>
        <time>2017-07-01T10:20:02Z</time>
      </trkpt>
      <trkpt lat="45.95351" lon="4.69477">
        <ele>337</ele>
        <time>2017-07-01T10:20:03Z</time>
      </trkpt>
      <trkpt lat="45.95356" lon="4.69481">
        <ele>337</ele>
        <time>2017-07-01T10:20:04Z</time>
      </trkpt>
      <trkpt lat="45.95361" lon="4.69484">
        <ele>337</ele>
        <time>2017-07-01T10:20:05Z</time>
      </trkpt>
      <trkpt lat="45.95365" lon="4.69488">
        <ele>337</ele>
        <time>2017-07-01T10:20:06Z</time>
      </trkpt>
      <trkpt lat="45.95371" lon="4.69491">
        <ele>337</ele>
        <time>2017-07-01T10:20:07Z</time>
      </trkpt>
      <trkpt lat="45.95376" lon="4.69495">
        <ele>337</ele>
        <time>2017-07-01T10:20:08Z</time>
      </trkpt>
      <trkpt lat="45.95382" lon="4.69499">
        <ele>337</ele>
        <time>2017-07-01T10:20:09Z</time>
      </trkpt>
      <trkpt lat="45.95388" lon="4.69505">
        <ele>340</ele>
        <time>2017-07-01T10:20:10Z</time>
      </trkpt>
      <trkpt lat="45.95393" lon="4.69508">
        <ele>339</ele>
        <time>2017-07-01T10:20:11Z</time>
      </trkpt>
      <trkpt lat="45.95399" lon="4.69511">
        <ele>339</ele>
        <time>2017-07-01T10:20:12Z</time>
      </trkpt>
      <trkpt lat="45.95404" lon="4.69514">
        <ele>339</ele>
        <time>2017-07-01T10:20:13Z</time>
      </trkpt>
      <trkpt lat="45.9541" lon="4.69518">
        <ele>339</ele>
        <time>2017-07-01T10:20:14Z</time>
      </trkpt>
      <trkpt lat="45.95415" lon="4.69522">
        <ele>339</ele>
        <time>2017-07-01T10:20:15Z</time>
      </trkpt>
      <trkpt lat="45.9542" lon="4.69525">
        <ele>337</ele>
        <time>2017-07-01T10:20:16Z</time>
      </trkpt>
      <trkpt lat="45.95425" lon="4.69528">
        <ele>337</ele>
        <time>2017-07-01T10:20:17Z</time>
      </trkpt>
      <trkpt lat="45.9543" lon="4.69531">
        <ele>337</ele>
        <time>2017-07-01T10:20:18Z</time>
      </trkpt>
      <trkpt lat="45.95435" lon="4.69534">
        <ele>337</ele>
        <time>2017-07-01T10:20:19Z</time>
      </trkpt>
      <trkpt lat="45.9544" lon="4.69536">
        <ele>337</ele>
        <time>2017-07-01T10:20:20Z</time>
      </trkpt>
      <trkpt lat="45.95445" lon="4.69538">
        <ele>337</ele>
        <time>2017-07-01T10:20:21Z</time>
      </trkpt>
      <trkpt lat="45.9545" lon="4.69541">
        <ele>337</ele>
        <time>2017-07-01T10:20:22Z</time>
      </trkpt>
      <trkpt lat="45.95456" lon="4.69544">
        <ele>337</ele>
        <time>2017-07-01T10:20:23Z</time>
      </trkpt>
      <trkpt lat="45.95462" lon="4.69547">
        <ele>337</ele>
        <time>2017-07-01T10:20:24Z</time>
      </trkpt>
      <trkpt lat="45.95468" lon="4.6955">
        <ele>336</ele>
        <time>2017-07-01T10:20:25Z</time>
      </trkpt>
      <trkpt lat="45.95474" lon="4.69554">
        <ele>336</ele>
        <time>2017-07-01T10:20:26Z</time>
      </trkpt>
      <trkpt lat="45.95481" lon="4.69557">
        <ele>336</ele>
        <time>2017-07-01T10:20:27Z</time>
      </trkpt>
      <trkpt lat="45.95487" lon="4.6956">
        <ele>336</ele>
        <time>2017-07-01T10:20:28Z</time>
      </trkpt>
      <trkpt lat="45.95493" lon="4.69563">
        <ele>336</ele>
        <time>2017-07-01T10:20:29Z</time>
      </trkpt>
      <trkpt lat="45.955" lon="4.69566">
        <ele>337</ele>
        <time>2017-07-01T10:20:30Z</time>
      </trkpt>
      <trkpt lat="45.95507" lon="4.69569">
        <ele>334</ele>
        <time>2017-07-01T10:20:31Z</time>
      </trkpt>
      <trkpt lat="45.95515" lon="4.69572">
        <ele>334</ele>
        <time>2017-07-01T10:20:32Z</time>
      </trkpt>
      <trkpt lat="45.95522" lon="4.69575">
        <ele>333</ele>
        <time>2017-07-01T10:20:33Z</time>
      </trkpt>
      <trkpt lat="45.9553" lon="4.69578">
        <ele>333</ele>
        <time>2017-07-01T10:20:34Z</time>
      </trkpt>
      <trkpt lat="45.95537" lon="4.69581">
        <ele>332</ele>
        <time>2017-07-01T10:20:35Z</time>
      </trkpt>
      <trkpt lat="45.95545" lon="4.69584">
        <ele>331</ele>
        <time>2017-07-01T10:20:36Z</time>
      </trkpt>
      <trkpt lat="45.95553" lon="4.69587">
        <ele>331</ele>
        <time>2017-07-01T10:20:37Z</time>
      </trkpt>
      <trkpt lat="45.95561" lon="4.69591">
        <ele>330</ele>
        <time>2017-07-01T10:20:38Z</time>
      </trkpt>
      <trkpt lat="45.95569" lon="4.69594">
        <ele>330</ele>
        <time>2017-07-01T10:20:39Z</time>
      </trkpt>
      <trkpt lat="45.95577" lon="4.69598">
        <ele>330</ele>
        <time>2017-07-01T10:20:40Z</time>
      </trkpt>
      <trkpt lat="45.95584" lon="4.69602">
        <ele>328</ele>
        <time>2017-07-01T10:20:41Z</time>
      </trkpt>
      <trkpt lat="45.95593" lon="4.69605">
        <ele>328</ele>
        <time>2017-07-01T10:20:42Z</time>
      </trkpt>
      <trkpt lat="45.95601" lon="4.69609">
        <ele>328</ele>
        <time>2017-07-01T10:20:43Z</time>
      </trkpt>
      <trkpt lat="45.95609" lon="4.69613">
        <ele>328</ele>
        <time>2017-07-01T10:20:44Z</time>
      </trkpt>
      <trkpt lat="45.95617" lon="4.69617">
        <ele>328</ele>
        <time>2017-07-01T10:20:45Z</time>
      </trkpt>
      <trkpt lat="45.95626" lon="4.6962">
        <ele>328</ele>
        <time>2017-07-01T10:20:46Z</time>
      </trkpt>
      <trkpt lat="45.95635" lon="4.69624">
        <ele>328</ele>
        <time>2017-07-01T10:20:47Z</time>
      </trkpt>
      <trkpt lat="45.95643" lon="4.69627">
        <ele>328</ele>
        <time>2017-07-01T10:20:48Z</time>
      </trkpt>
      <trkpt lat="45.95652" lon="4.6963">
        <ele>328</ele>
        <time>2017-07-01T10:20:49Z</time>
      </trkpt>
      <trkpt lat="45.9566" lon="4.69634">
        <ele>327</ele>
        <time>2017-07-01T10:20:50Z</time>
      </trkpt>
      <trkpt lat="45.95669" lon="4.69638">
        <ele>326</ele>
        <time>2017-07-01T10:20:51Z</time>
      </trkpt>
      <trkpt lat="45.95677" lon="4.69641">
        <ele>326</ele>
        <time>2017-07-01T10:20:52Z</time>
      </trkpt>
      <trkpt lat="45.95686" lon="4.69644">
        <ele>326</ele>
        <time>2017-07-01T10:20:53Z</time>
      </trkpt>
      <trkpt lat="45.95694" lon="4.69647">
        <ele>326</ele>
        <time>2017-07-01T10:20:54Z</time>
      </trkpt>
      <trkpt lat="45.95702" lon="4.6965">
        <ele>326</ele>
        <time>2017-07-01T10:20:55Z</time>
      </trkpt>
      <trkpt lat="45.9571" lon="4.69654">
        <ele>326</ele>
        <time>2017-07-01T10:20:56Z</time>
      </trkpt>
      <trkpt lat="45.95719" lon="4.69657">
        <ele>326</ele>
        <time>2017-07-01T10:20:57Z</time>
      </trkpt>
      <trkpt lat="45.95727" lon="4.6966">
        <ele>326</ele>
        <time>2017-07-01T10:20:58Z</time>
      </trkpt>
      <trkpt lat="45.95735" lon="4.69663">
        <ele>326</ele>
        <time>2017-07-01T10:20:59Z</time>
      </trkpt>
      <trkpt lat="45.95742" lon="4.69667">
        <ele>326</ele>
        <time>2017-07-01T10:21:00Z</time>
      </trkpt>
      <trkpt lat="45.9575" lon="4.69671">
        <ele>326</ele>
        <time>2017-07-01T10:21:01Z</time>
      </trkpt>
      <trkpt lat="45.95757" lon="4.69676">
        <ele>326</ele>
        <time>2017-07-01T10:21:02Z</time>
      </trkpt>
      <trkpt lat="45.95764" lon="4.6968">
        <ele>326</ele>
        <time>2017-07-01T10:21:03Z</time>
      </trkpt>
      <trkpt lat="45.9577" lon="4.69683">
        <ele>326</ele>
        <time>2017-07-01T10:21:04Z</time>
      </trkpt>
      <trkpt lat="45.95776" lon="4.69685">
        <ele>326</ele>
        <time>2017-07-01T10:21:05Z</time>
      </trkpt>
      <trkpt lat="45.95782" lon="4.69688">
        <ele>326</ele>
        <time>2017-07-01T10:21:06Z</time>
      </trkpt>
      <trkpt lat="45.95787" lon="4.69692">
        <ele>326</ele>
        <time>2017-07-01T10:21:07Z</time>
      </trkpt>
      <trkpt lat="45.95792" lon="4.69697">
        <ele>326</ele>
        <time>2017-07-01T10:21:08Z</time>
      </trkpt>
      <trkpt lat="45.95797" lon="4.69703">
        <ele>326</ele>
        <time>2017-07-01T10:21:09Z</time>
      </trkpt>
      <trkpt lat="45.958" lon="4.69709">
        <ele>326</ele>
        <time>2017-07-01T10:21:10Z</time>
      </trkpt>
      <trkpt lat="45.95804" lon="4.69715">
        <ele>326</ele>
        <time>2017-07-01T10:21:11Z</time>
      </trkpt>
      <trkpt lat="45.95808" lon="4.69721">
        <ele>326</ele>
        <time>2017-07-01T10:21:12Z</time>
      </trkpt>
      <trkpt lat="45.95812" lon="4.69727">
        <ele>326</ele>
        <time>2017-07-01T10:21:13Z</time>
      </trkpt>
      <trkpt lat="45.95815" lon="4.69733">
        <ele>327</ele>
        <time>2017-07-01T10:21:14Z</time>
      </trkpt>
      <trkpt lat="45.95819" lon="4.6974">
        <ele>327</ele>
        <time>2017-07-01T10:21:15Z</time>
      </trkpt>
      <trkpt lat="45.95823" lon="4.69747">
        <ele>327</ele>
        <time>2017-07-01T10:21:16Z</time>
      </trkpt>
      <trkpt lat="45.95826" lon="4.69753">
        <ele>327</ele>
        <time>2017-07-01T10:21:17Z</time>
      </trkpt>
      <trkpt lat="45.9583" lon="4.69759">
        <ele>327</ele>
        <time>2017-07-01T10:21:18Z</time>
      </trkpt>
      <trkpt lat="45.95834" lon="4.69765">
        <ele>327</ele>
        <time>2017-07-01T10:21:19Z</time>
      </trkpt>
      <trkpt lat="45.95837" lon="4.69771">
        <ele>327</ele>
        <time>2017-07-01T10:21:20Z</time>
      </trkpt>
      <trkpt lat="45.95841" lon="4.69776">
        <ele>327</ele>
        <time>2017-07-01T10:21:21Z</time>
      </trkpt>
      <trkpt lat="45.95845" lon="4.69782">
        <ele>327</ele>
        <time>2017-07-01T10:21:22Z</time>
      </trkpt>
      <trkpt lat="45.95848" lon="4.69788">
        <ele>327</ele>
        <time>2017-07-01T10:21:23Z</time>
      </trkpt>
      <trkpt lat="45.95851" lon="4.69794">
        <ele>327</ele>
        <time>2017-07-01T10:21:24Z</time>
      </trkpt>
      <trkpt lat="45.95854" lon="4.698">
        <ele>327</ele>
        <time>2017-07-01T10:21:25Z</time>
      </trkpt>
      <trkpt lat="45.95858" lon="4.69807">
        <ele>327</ele>
        <time>2017-07-01T10:21:26Z</time>
      </trkpt>
      <trkpt lat="45.95861" lon="4.69813">
        <ele>327</ele>
        <time>2017-07-01T10:21:27Z</time>
      </trkpt>
      <trkpt lat="45.95864" lon="4.6982">
        <ele>327</ele>
        <time>2017-07-01T10:21:28Z</time>
      </trkpt>
      <trkpt lat="45.95866" lon="4.69827">
        <ele>327</ele>
        <time>2017-07-01T10:21:29Z</time>
      </trkpt>
      <trkpt lat="45.95869" lon="4.69834">
        <ele>329</ele>
        <time>2017-07-01T10:21:30Z</time>
      </trkpt>
      <trkpt lat="45.95872" lon="4.69841">
        <ele>329</ele>
        <time>2017-07-01T10:21:31Z</time>
      </trkpt>
      <trkpt lat="45.95874" lon="4.69849">
        <ele>329</ele>
        <time>2017-07-01T10:21:32Z</time>
      </trkpt>
      <trkpt lat="45.95876" lon="4.69856">
        <ele>329</ele>
        <time>2017-07-01T10:21:33Z</time>
      </trkpt>
      <trkpt lat="45.95877" lon="4.69864">
        <ele>329</ele>
        <time>2017-07-01T10:21:34Z</time>
      </trkpt>
      <trkpt lat="45.95879" lon="4.69871">
        <ele>329</ele>
        <time>2017-07-01T10:21:35Z</time>
      </trkpt>
      <trkpt lat="45.95881" lon="4.69878">
        <ele>329</ele>
        <time>2017-07-01T10:21:36Z</time>
      </trkpt>
      <trkpt lat="45.95883" lon="4.69884">
        <ele>329</ele>
        <time>2017-07-01T10:21:37Z</time>
      </trkpt>
      <trkpt lat="45.95885" lon="4.69891">
        <ele>329</ele>
        <time>2017-07-01T10:21:38Z</time>
      </trkpt>
      <trkpt lat="45.95887" lon="4.69898">
        <ele>329</ele>
        <time>2017-07-01T10:21:39Z</time>
      </trkpt>
      <trkpt lat="45.95889" lon="4.69904">
        <ele>329</ele>
        <time>2017-07-01T10:21:40Z</time>
      </trkpt>
      <trkpt lat="45.95891" lon="4.69911">
        <ele>329</ele>
        <time>2017-07-01T10:21:41Z</time>
      </trkpt>
      <trkpt lat="45.95893" lon="4.69917">
        <ele>328</ele>
        <time>2017-07-01T10:21:42Z</time>
      </trkpt>
      <trkpt lat="45.95895" lon="4.69924">
        <ele>328</ele>
        <time>2017-07-01T10:21:43Z</time>
      </trkpt>
      <trkpt lat="45.95897" lon="4.6993">
        <ele>328</ele>
        <time>2017-07-01T10:21:44Z</time>
      </trkpt>
      <trkpt lat="45.95899" lon="4.69937">
        <ele>328</ele>
        <time>2017-07-01T10:21:45Z</time>
      </trkpt>
      <trkpt lat="45.959" lon="4.69945">
        <ele>328</ele>
        <time>2017-07-01T10:21:46Z</time>
      </trkpt>
      <trkpt lat="45.95903" lon="4.69952">
        <ele>328</ele>
        <time>2017-07-01T10:21:47Z</time>
      </trkpt>
      <trkpt lat="45.95904" lon="4.6996">
        <ele>328</ele>
        <time>2017-07-01T10:21:48Z</time>
      </trkpt>
      <trkpt lat="45.95906" lon="4.69969">
        <ele>328</ele>
        <time>2017-07-01T10:21:49Z</time>
      </trkpt>
      <trkpt lat="45.95908" lon="4.69977">
        <ele>328</ele>
        <time>2017-07-01T10:21:50Z</time>
      </trkpt>
      <trkpt lat="45.9591" lon="4.69984">
        <ele>328</ele>
        <time>2017-07-01T10:21:51Z</time>
      </trkpt>
      <trkpt lat="45.95912" lon="4.69991">
        <ele>328</ele>
        <time>2017-07-01T10:21:52Z</time>
      </trkpt>
      <trkpt lat="45.95914" lon="4.69998">
        <ele>328</ele>
        <time>2017-07-01T10:21:53Z</time>
      </trkpt>
      <trkpt lat="45.95917" lon="4.70004">
        <ele>328</ele>
        <time>2017-07-01T10:21:54Z</time>
      </trkpt>
      <trkpt lat="45.9592" lon="4.7001">
        <ele>328</ele>
        <time>2017-07-01T10:21:55Z</time>
      </trkpt>
      <trkpt lat="45.95922" lon="4.70017">
        <ele>328</ele>
        <time>2017-07-01T10:21:56Z</time>
      </trkpt>
      <trkpt lat="45.95924" lon="4.70023">
        <ele>328</ele>
        <time>2017-07-01T10:21:57Z</time>
      </trkpt>
      <trkpt lat="45.95927" lon="4.70028">
        <ele>328</ele>
        <time>2017-07-01T10:21:58Z</time>
      </trkpt>
      <trkpt lat="45.9593" lon="4.70034">
        <ele>328</ele>
        <time>2017-07-01T10:21:59Z</time>
      </trkpt>
      <trkpt lat="45.95934" lon="4.70039">
        <ele>328</ele>
        <time>2017-07-01T10:22:00Z</time>
      </trkpt>
      <trkpt lat="45.95937" lon="4.70045">
        <ele>328</ele>
        <time>2017-07-01T10:22:01Z</time>
      </trkpt>
      <trkpt lat="45.95941" lon="4.7005">
        <ele>328</ele>
        <time>2017-07-01T10:22:02Z</time>
      </trkpt>
      <trkpt lat="45.95944" lon="4.70055">
        <ele>328</ele>
        <time>2017-07-01T10:22:03Z</time>
      </trkpt>
      <trkpt lat="45.95949" lon="4.70061">
        <ele>328</ele>
        <time>2017-07-01T10:22:04Z</time>
      </trkpt>
      <trkpt lat="45.95953" lon="4.70067">
        <ele>328</ele>
        <time>2017-07-01T10:22:05Z</time>
      </trkpt>
      <trkpt lat="45.95958" lon="4.70072">
        <ele>327</ele>
        <time>2017-07-01T10:22:06Z</time>
      </trkpt>
      <trkpt lat="45.95962" lon="4.70077">
        <ele>327</ele>
        <time>2017-07-01T10:22:07Z</time>
      </trkpt>
      <trkpt lat="45.95966" lon="4.70082">
        <ele>327</ele>
        <time>2017-07-01T10:22:08Z</time>
      </trkpt>
      <trkpt lat="45.9597" lon="4.70086">
        <ele>328</ele>
        <time>2017-07-01T10:22:09Z</time>
      </trkpt>
      <trkpt lat="45.95977" lon="4.70094">
        <ele>328</ele>
        <time>2017-07-01T10:22:11Z</time>
      </trkpt>
      <trkpt lat="45.9598" lon="4.70098">
        <ele>328</ele>
        <time>2017-07-01T10:22:12Z</time>
      </trkpt>
      <trkpt lat="45.95984" lon="4.70102">
        <ele>328</ele>
        <time>2017-07-01T10:22:13Z</time>
      </trkpt>
      <trkpt lat="45.95988" lon="4.70106">
        <ele>328</ele>
        <time>2017-07-01T10:22:14Z</time>
      </trkpt>
      <trkpt lat="45.95992" lon="4.70111">
        <ele>328</ele>
        <time>2017-07-01T10:22:15Z</time>
      </trkpt>
      <trkpt lat="45.95996" lon="4.70116">
        <ele>328</ele>
        <time>2017-07-01T10:22:16Z</time>
      </trkpt>
      <trkpt lat="45.96" lon="4.7012">
        <ele>328</ele>
        <time>2017-07-01T10:22:17Z</time>
      </trkpt>
      <trkpt lat="45.96004" lon="4.70124">
        <ele>328</ele>
        <time>2017-07-01T10:22:18Z</time>
      </trkpt>
      <trkpt lat="45.96008" lon="4.70128">
        <ele>328</ele>
        <time>2017-07-01T10:22:19Z</time>
      </trkpt>
      <trkpt lat="45.96012" lon="4.70132">
        <ele>328</ele>
        <time>2017-07-01T10:22:20Z</time>
      </trkpt>
      <trkpt lat="45.96016" lon="4.70135">
        <ele>328</ele>
        <time>2017-07-01T10:22:21Z</time>
      </trkpt>
      <trkpt lat="45.9602" lon="4.70139">
        <ele>328</ele>
        <time>2017-07-01T10:22:22Z</time>
      </trkpt>
      <trkpt lat="45.96024" lon="4.70143">
        <ele>329</ele>
        <time>2017-07-01T10:22:23Z</time>
      </trkpt>
      <trkpt lat="45.96028" lon="4.70147">
        <ele>329</ele>
        <time>2017-07-01T10:22:24Z</time>
      </trkpt>
      <trkpt lat="45.96032" lon="4.7015">
        <ele>329</ele>
        <time>2017-07-01T10:22:25Z</time>
      </trkpt>
      <trkpt lat="45.96036" lon="4.70154">
        <ele>329</ele>
        <time>2017-07-01T10:22:26Z</time>
      </trkpt>
      <trkpt lat="45.9604" lon="4.70158">
        <ele>329</ele>
        <time>2017-07-01T10:22:27Z</time>
      </trkpt>
      <trkpt lat="45.96044" lon="4.70162">
        <ele>328</ele>
        <time>2017-07-01T10:22:28Z</time>
      </trkpt>
      <trkpt lat="45.96049" lon="4.70167">
        <ele>328</ele>
        <time>2017-07-01T10:22:29Z</time>
      </trkpt>
      <trkpt lat="45.96054" lon="4.70171">
        <ele>327</ele>
        <time>2017-07-01T10:22:30Z</time>
      </trkpt>
      <trkpt lat="45.96059" lon="4.70175">
        <ele>327</ele>
        <time>2017-07-01T10:22:31Z</time>
      </trkpt>
      <trkpt lat="45.96064" lon="4.70179">
        <ele>327</ele>
        <time>2017-07-01T10:22:32Z</time>
      </trkpt>
      <trkpt lat="45.96069" lon="4.70183">
        <ele>327</ele>
        <time>2017-07-01T10:22:33Z</time>
      </trkpt>
      <trkpt lat="45.96074" lon="4.70188">
        <ele>327</ele>
        <time>2017-07-01T10:22:34Z</time>
      </trkpt>
      <trkpt lat="45.96079" lon="4.70192">
        <ele>327</ele>
        <time>2017-07-01T10:22:35Z</time>
      </trkpt>
      <trkpt lat="45.96085" lon="4.70197">
        <ele>327</ele>
        <time>2017-07-01T10:22:36Z</time>
      </trkpt>
      <trkpt lat="45.96091" lon="4.70201">
        <ele>327</ele>
        <time>2017-07-01T10:22:37Z</time>
      </trkpt>
      <trkpt lat="45.96097" lon="4.70206">
        <ele>327</ele>
        <time>2017-07-01T10:22:38Z</time>
      </trkpt>
      <trkpt lat="45.96102" lon="4.70211">
        <ele>327</ele>
        <time>2017-07-01T10:22:39Z</time>
      </trkpt>
      <trkpt lat="45.96108" lon="4.70216">
        <ele>327</ele>
        <time>2017-07-01T10:22:40Z</time>
      </trkpt>
      <trkpt lat="45.96114" lon="4.70222">
        <ele>327</ele>
        <time>2017-07-01T10:22:41Z</time>
      </trkpt>
      <trkpt lat="45.9612" lon="4.70228">
        <ele>327</ele>
        <time>2017-07-01T10:22:42Z</time>
      </trkpt>
      <trkpt lat="45.96126" lon="4.70233">
        <ele>327</ele>
        <time>2017-07-01T10:22:43Z</time>
      </trkpt>
      <trkpt lat="45.96132" lon="4.70239">
        <ele>327</ele>
        <time>2017-07-01T10:22:44Z</time>
      </trkpt>
      <trkpt lat="45.96138" lon="4.70245">
        <ele>327</ele>
        <time>2017-07-01T10:22:45Z</time>
      </trkpt>
      <trkpt lat="45.96145" lon="4.70251">
        <ele>324</ele>
        <time>2017-07-01T10:22:46Z</time>
      </trkpt>
      <trkpt lat="45.96151" lon="4.70258">
        <ele>325</ele>
        <time>2017-07-01T10:22:47Z</time>
      </trkpt>
      <trkpt lat="45.96157" lon="4.70265">
        <ele>324</ele>
        <time>2017-07-01T10:22:48Z</time>
      </trkpt>
      <trkpt lat="45.96163" lon="4.70272">
        <ele>324</ele>
        <time>2017-07-01T10:22:49Z</time>
      </trkpt>
      <trkpt lat="45.9617" lon="4.70279">
        <ele>327</ele>
        <time>2017-07-01T10:22:50Z</time>
      </trkpt>
      <trkpt lat="45.96176" lon="4.70286">
        <ele>326</ele>
        <time>2017-07-01T10:22:51Z</time>
      </trkpt>
      <trkpt lat="45.96182" lon="4.70294">
        <ele>326</ele>
        <time>2017-07-01T10:22:52Z</time>
      </trkpt>
      <trkpt lat="45.96188" lon="4.70301">
        <ele>326</ele>
        <time>2017-07-01T10:22:53Z</time>
      </trkpt>
      <trkpt lat="45.96195" lon="4.70309">
        <ele>326</ele>
        <time>2017-07-01T10:22:54Z</time>
      </trkpt>
      <trkpt lat="45.96201" lon="4.70317">
        <ele>326</ele>
        <time>2017-07-01T10:22:55Z</time>
      </trkpt>
      <trkpt lat="45.96207" lon="4.70325">
        <ele>326</ele>
        <time>2017-07-01T10:22:56Z</time>
      </trkpt>
      <trkpt lat="45.96213" lon="4.70333">
        <ele>327</ele>
        <time>2017-07-01T10:22:57Z</time>
      </trkpt>
      <trkpt lat="45.96219" lon="4.70342">
        <ele>322</ele>
        <time>2017-07-01T10:22:58Z</time>
      </trkpt>
      <trkpt lat="45.96224" lon="4.70351">
        <ele>322</ele>
        <time>2017-07-01T10:22:59Z</time>
      </trkpt>
      <trkpt lat="45.9623" lon="4.7036">
        <ele>322</ele>
        <time>2017-07-01T10:23:00Z</time>
      </trkpt>
      <trkpt lat="45.96236" lon="4.70369">
        <ele>321</ele>
        <time>2017-07-01T10:23:01Z</time>
      </trkpt>
      <trkpt lat="45.96241" lon="4.70378">
        <ele>321</ele>
        <time>2017-07-01T10:23:02Z</time>
      </trkpt>
      <trkpt lat="45.96247" lon="4.70388">
        <ele>320</ele>
        <time>2017-07-01T10:23:03Z</time>
      </trkpt>
      <trkpt lat="45.96253" lon="4.70397">
        <ele>325</ele>
        <time>2017-07-01T10:23:04Z</time>
      </trkpt>
      <trkpt lat="45.9626" lon="4.70406">
        <ele>324</ele>
        <time>2017-07-01T10:23:05Z</time>
      </trkpt>
      <trkpt lat="45.96266" lon="4.70416">
        <ele>324</ele>
        <time>2017-07-01T10:23:06Z</time>
      </trkpt>
      <trkpt lat="45.96272" lon="4.70425">
        <ele>321</ele>
        <time>2017-07-01T10:23:07Z</time>
      </trkpt>
      <trkpt lat="45.96278" lon="4.70435">
        <ele>321</ele>
        <time>2017-07-01T10:23:08Z</time>
      </trkpt>
      <trkpt lat="45.96285" lon="4.70445">
        <ele>321</ele>
        <time>2017-07-01T10:23:09Z</time>
      </trkpt>
      <trkpt lat="45.96292" lon="4.70454">
        <ele>321</ele>
        <time>2017-07-01T10:23:10Z</time>
      </trkpt>
      <trkpt lat="45.96298" lon="4.70464">
        <ele>321</ele>
        <time>2017-07-01T10:23:11Z</time>
      </trkpt>
      <trkpt lat="45.96304" lon="4.70474">
        <ele>321</ele>
        <time>2017-07-01T10:23:12Z</time>
      </trkpt>
      <trkpt lat="45.96311" lon="4.70484">
        <ele>320</ele>
        <time>2017-07-01T10:23:13Z</time>
      </trkpt>
      <trkpt lat="45.96318" lon="4.70493">
        <ele>320</ele>
        <time>2017-07-01T10:23:14Z</time>
      </trkpt>
      <trkpt lat="45.96324" lon="4.70502">
        <ele>318</ele>
        <time>2017-07-01T10:23:15Z</time>
      </trkpt>
      <trkpt lat="45.96331" lon="4.70511">
        <ele>317</ele>
        <time>2017-07-01T10:23:16Z</time>
      </trkpt>
      <trkpt lat="45.96338" lon="4.7052">
        <ele>319</ele>
        <time>2017-07-01T10:23:17Z</time>
      </trkpt>
      <trkpt lat="45.96345" lon="4.70529">
        <ele>319</ele>
        <time>2017-07-01T10:23:18Z</time>
      </trkpt>
      <trkpt lat="45.96353" lon="4.70538">
        <ele>319</ele>
        <time>2017-07-01T10:23:19Z</time>
      </trkpt>
      <trkpt lat="45.9636" lon="4.70548">
        <ele>318</ele>
        <time>2017-07-01T10:23:20Z</time>
      </trkpt>
      <trkpt lat="45.96368" lon="4.70557">
        <ele>318</ele>
        <time>2017-07-01T10:23:21Z</time>
      </trkpt>
      <trkpt lat="45.96376" lon="4.70567">
        <ele>318</ele>
        <time>2017-07-01T10:23:22Z</time>
      </trkpt>
      <trkpt lat="45.96383" lon="4.70577">
        <ele>318</ele>
        <time>2017-07-01T10:23:23Z</time>
      </trkpt>
      <trkpt lat="45.96391" lon="4.70586">
        <ele>313</ele>
        <time>2017-07-01T10:23:24Z</time>
      </trkpt>
      <trkpt lat="45.96399" lon="4.70596">
        <ele>313</ele>
        <time>2017-07-01T10:23:25Z</time>
      </trkpt>
      <trkpt lat="45.96406" lon="4.70606">
        <ele>313</ele>
        <time>2017-07-01T10:23:26Z</time>
      </trkpt>
      <trkpt lat="45.96414" lon="4.70616">
        <ele>312</ele>
        <time>2017-07-01T10:23:27Z</time>
      </trkpt>
      <trkpt lat="45.96421" lon="4.70625">
        <ele>314</ele>
        <time>2017-07-01T10:23:28Z</time>
      </trkpt>
      <trkpt lat="45.96429" lon="4.70635">
        <ele>313</ele>
        <time>2017-07-01T10:23:29Z</time>
      </trkpt>
      <trkpt lat="45.96438" lon="4.70645">
        <ele>312</ele>
        <time>2017-07-01T10:23:30Z</time>
      </trkpt>
      <trkpt lat="45.96447" lon="4.70653">
        <ele>312</ele>
        <time>2017-07-01T10:23:31Z</time>
      </trkpt>
      <trkpt lat="45.96456" lon="4.70662">
        <ele>312</ele>
        <time>2017-07-01T10:23:32Z</time>
      </trkpt>
      <trkpt lat="45.96465" lon="4.70671">
        <ele>306</ele>
        <time>2017-07-01T10:23:33Z</time>
      </trkpt>
      <trkpt lat="45.96475" lon="4.7068">
        <ele>306</ele>
        <time>2017-07-01T10:23:34Z</time>
      </trkpt>
      <trkpt lat="45.96484" lon="4.70689">
        <ele>306</ele>
        <time>2017-07-01T10:23:35Z</time>
      </trkpt>
      <trkpt lat="45.96495" lon="4.70697">
        <ele>305</ele>
        <time>2017-07-01T10:23:36Z</time>
      </trkpt>
      <trkpt lat="45.96504" lon="4.70705">
        <ele>306</ele>
        <time>2017-07-01T10:23:37Z</time>
      </trkpt>
      <trkpt lat="45.96515" lon="4.70714">
        <ele>306</ele>
        <time>2017-07-01T10:23:38Z</time>
      </trkpt>
      <trkpt lat="45.96526" lon="4.70722">
        <ele>305</ele>
        <time>2017-07-01T10:23:39Z</time>
      </trkpt>
      <trkpt lat="45.96536" lon="4.70731">
        <ele>305</ele>
        <time>2017-07-01T10:23:40Z</time>
      </trkpt>
      <trkpt lat="45.96547" lon="4.70741">
        <ele>305</ele>
        <time>2017-07-01T10:23:41Z</time>
      </trkpt>
      <trkpt lat="45.96557" lon="4.7075">
        <ele>305</ele>
        <time>2017-07-01T10:23:42Z</time>
      </trkpt>
      <trkpt lat="45.96569" lon="4.70758">
        <ele>300</ele>
        <time>2017-07-01T10:23:43Z</time>
      </trkpt>
      <trkpt lat="45.9658" lon="4.70766">
        <ele>299</ele>
        <time>2017-07-01T10:23:44Z</time>
      </trkpt>
      <trkpt lat="45.96591" lon="4.70774">
        <ele>300</ele>
        <time>2017-07-01T10:23:45Z</time>
      </trkpt>
      <trkpt lat="45.96602" lon="4.70782">
        <ele>299</ele>
        <time>2017-07-01T10:23:46Z</time>
      </trkpt>
      <trkpt lat="45.96613" lon="4.70789">
        <ele>299</ele>
        <time>2017-07-01T10:23:47Z</time>
      </trkpt>
      <trkpt lat="45.96625" lon="4.70797">
        <ele>298</ele>
        <time>2017-07-01T10:23:48Z</time>
      </trkpt>
      <trkpt lat="45.96637" lon="4.70805">
        <ele>298</ele>
        <time>2017-07-01T10:23:49Z</time>
      </trkpt>
      <trkpt lat="45.96649" lon="4.70812">
        <ele>297</ele>
        <time>2017-07-01T10:23:50Z</time>
      </trkpt>
      <trkpt lat="45.96661" lon="4.7082">
        <ele>297</ele>
        <time>2017-07-01T10:23:51Z</time>
      </trkpt>
      <trkpt lat="45.96673" lon="4.70828">
        <ele>296</ele>
        <time>2017-07-01T10:23:52Z</time>
      </trkpt>
      <trkpt lat="45.96685" lon="4.70836">
        <ele>292</ele>
        <time>2017-07-01T10:23:53Z</time>
      </trkpt>
      <trkpt lat="45.96698" lon="4.70844">
        <ele>290</ele>
        <time>2017-07-01T10:23:54Z</time>
      </trkpt>
      <trkpt lat="45.9671" lon="4.70852">
        <ele>290</ele>
        <time>2017-07-01T10:23:55Z</time>
      </trkpt>
      <trkpt lat="45.96721" lon="4.7086">
        <ele>289</ele>
        <time>2017-07-01T10:23:56Z</time>
      </trkpt>
      <trkpt lat="45.96733" lon="4.70868">
        <ele>289</ele>
        <time>2017-07-01T10:23:57Z</time>
      </trkpt>
      <trkpt lat="45.96744" lon="4.70876">
        <ele>288</ele>
        <time>2017-07-01T10:23:58Z</time>
      </trkpt>
      <trkpt lat="45.96756" lon="4.70883">
        <ele>289</ele>
        <time>2017-07-01T10:23:59Z</time>
      </trkpt>
      <trkpt lat="45.96768" lon="4.70891">
        <ele>288</ele>
        <time>2017-07-01T10:24:00Z</time>
      </trkpt>
      <trkpt lat="45.96779" lon="4.70899">
        <ele>288</ele>
        <time>2017-07-01T10:24:01Z</time>
      </trkpt>
      <trkpt lat="45.96791" lon="4.70906">
        <ele>288</ele>
        <time>2017-07-01T10:24:02Z</time>
      </trkpt>
      <trkpt lat="45.96802" lon="4.70914">
        <ele>288</ele>
        <time>2017-07-01T10:24:03Z</time>
      </trkpt>
      <trkpt lat="45.96814" lon="4.7092">
        <ele>282</ele>
        <time>2017-07-01T10:24:04Z</time>
      </trkpt>
      <trkpt lat="45.96826" lon="4.70927">
        <ele>283</ele>
        <time>2017-07-01T10:24:05Z</time>
      </trkpt>
      <trkpt lat="45.96838" lon="4.70934">
        <ele>282</ele>
        <time>2017-07-01T10:24:06Z</time>
      </trkpt>
      <trkpt lat="45.9685" lon="4.70941">
        <ele>281</ele>
        <time>2017-07-01T10:24:07Z</time>
      </trkpt>
      <trkpt lat="45.96861" lon="4.70949">
        <ele>280</ele>
        <time>2017-07-01T10:24:08Z</time>
      </trkpt>
      <trkpt lat="45.96872" lon="4.70957">
        <ele>279</ele>
        <time>2017-07-01T10:24:09Z</time>
      </trkpt>
      <trkpt lat="45.96883" lon="4.70963">
        <ele>279</ele>
        <time>2017-07-01T10:24:10Z</time>
      </trkpt>
      <trkpt lat="45.96894" lon="4.70968">
        <ele>278</ele>
        <time>2017-07-01T10:24:11Z</time>
      </trkpt>
      <trkpt lat="45.96906" lon="4.70972">
        <ele>278</ele>
        <time>2017-07-01T10:24:12Z</time>
      </trkpt>
      <trkpt lat="45.96917" lon="4.70976">
        <ele>276</ele>
        <time>2017-07-01T10:24:13Z</time>
      </trkpt>
      <trkpt lat="45.96929" lon="4.70978">
        <ele>275</ele>
        <time>2017-07-01T10:24:14Z</time>
      </trkpt>
      <trkpt lat="45.9694" lon="4.7098">
        <ele>275</ele>
        <time>2017-07-01T10:24:15Z</time>
      </trkpt>
      <trkpt lat="45.96953" lon="4.70983">
        <ele>275</ele>
        <time>2017-07-01T10:24:16Z</time>
      </trkpt>
      <trkpt lat="45.96965" lon="4.70985">
        <ele>274</ele>
        <time>2017-07-01T10:24:17Z</time>
      </trkpt>
      <trkpt lat="45.96976" lon="4.70987">
        <ele>273</ele>
        <time>2017-07-01T10:24:18Z</time>
      </trkpt>
      <trkpt lat="45.96988" lon="4.70989">
        <ele>272</ele>
        <time>2017-07-01T10:24:19Z</time>
      </trkpt>
      <trkpt lat="45.97" lon="4.70989">
        <ele>269</ele>
        <time>2017-07-01T10:24:20Z</time>
      </trkpt>
      <trkpt lat="45.97012" lon="4.70989">
        <ele>269</ele>
        <time>2017-07-01T10:24:21Z</time>
      </trkpt>
      <trkpt lat="45.97024" lon="4.70989">
        <ele>269</ele>
        <time>2017-07-01T10:24:22Z</time>
      </trkpt>
      <trkpt lat="45.97037" lon="4.70988">
        <ele>269</ele>
        <time>2017-07-01T10:24:23Z</time>
      </trkpt>
      <trkpt lat="45.97048" lon="4.70987">
        <ele>269</ele>
        <time>2017-07-01T10:24:24Z</time>
      </trkpt>
      <trkpt lat="45.9706" lon="4.70985">
        <ele>268</ele>
        <time>2017-07-01T10:24:25Z</time>
      </trkpt>
      <trkpt lat="45.97072" lon="4.70984">
        <ele>268</ele>
        <time>2017-07-01T10:24:26Z</time>
      </trkpt>
      <trkpt lat="45.97084" lon="4.70982">
        <ele>264</ele>
        <time>2017-07-01T10:24:27Z</time>
      </trkpt>
      <trkpt lat="45.97094" lon="4.70979">
        <ele>264</ele>
        <time>2017-07-01T10:24:28Z</time>
      </trkpt>
      <trkpt lat="45.97105" lon="4.70975">
        <ele>264</ele>
        <time>2017-07-01T10:24:29Z</time>
      </trkpt>
      <trkpt lat="45.97116" lon="4.7097">
        <ele>264</ele>
        <time>2017-07-01T10:24:30Z</time>
      </trkpt>
      <trkpt lat="45.97127" lon="4.70966">
        <ele>264</ele>
        <time>2017-07-01T10:24:31Z</time>
      </trkpt>
      <trkpt lat="45.97137" lon="4.70962">
        <ele>263</ele>
        <time>2017-07-01T10:24:32Z</time>
      </trkpt>
      <trkpt lat="45.97147" lon="4.70957">
        <ele>263</ele>
        <time>2017-07-01T10:24:33Z</time>
      </trkpt>
      <trkpt lat="45.97157" lon="4.70952">
        <ele>263</ele>
        <time>2017-07-01T10:24:34Z</time>
      </trkpt>
      <trkpt lat="45.97166" lon="4.70947">
        <ele>263</ele>
        <time>2017-07-01T10:24:35Z</time>
      </trkpt>
      <trkpt lat="45.97175" lon="4.70943">
        <ele>258</ele>
        <time>2017-07-01T10:24:36Z</time>
      </trkpt>
      <trkpt lat="45.97183" lon="4.70939">
        <ele>258</ele>
        <time>2017-07-01T10:24:37Z</time>
      </trkpt>
      <trkpt lat="45.97192" lon="4.70935">
        <ele>257</ele>
        <time>2017-07-01T10:24:38Z</time>
      </trkpt>
      <trkpt lat="45.972" lon="4.70929">
        <ele>257</ele>
        <time>2017-07-01T10:24:39Z</time>
      </trkpt>
      <trkpt lat="45.97208" lon="4.70923">
        <ele>256</ele>
        <time>2017-07-01T10:24:40Z</time>
      </trkpt>
      <trkpt lat="45.97216" lon="4.70916">
        <ele>259</ele>
        <time>2017-07-01T10:24:41Z</time>
      </trkpt>
      <trkpt lat="45.97223" lon="4.70908">
        <ele>259</ele>
        <time>2017-07-01T10:24:42Z</time>
      </trkpt>
      <trkpt lat="45.97231" lon="4.70899">
        <ele>258</ele>
        <time>2017-07-01T10:24:43Z</time>
      </trkpt>
      <trkpt lat="45.97238" lon="4.7089">
        <ele>258</ele>
        <time>2017-07-01T10:24:44Z</time>
      </trkpt>
      <trkpt lat="45.97245" lon="4.7088">
        <ele>259</ele>
        <time>2017-07-01T10:24:45Z</time>
      </trkpt>
      <trkpt lat="45.97253" lon="4.7087">
        <ele>252</ele>
        <time>2017-07-01T10:24:46Z</time>
      </trkpt>
      <trkpt lat="45.9726" lon="4.7086">
        <ele>253</ele>
        <time>2017-07-01T10:24:47Z</time>
      </trkpt>
      <trkpt lat="45.97268" lon="4.7085">
        <ele>253</ele>
        <time>2017-07-01T10:24:48Z</time>
      </trkpt>
      <trkpt lat="45.97276" lon="4.70839">
        <ele>253</ele>
        <time>2017-07-01T10:24:49Z</time>
      </trkpt>
      <trkpt lat="45.97283" lon="4.70829">
        <ele>254</ele>
        <time>2017-07-01T10:24:50Z</time>
      </trkpt>
      <trkpt lat="45.97291" lon="4.70818">
        <ele>253</ele>
        <time>2017-07-01T10:24:51Z</time>
      </trkpt>
      <trkpt lat="45.97297" lon="4.70809">
        <ele>253</ele>
        <time>2017-07-01T10:24:52Z</time>
      </trkpt>
      <trkpt lat="45.97304" lon="4.70801">
        <ele>253</ele>
        <time>2017-07-01T10:24:53Z</time>
      </trkpt>
      <trkpt lat="45.9731" lon="4.70794">
        <ele>253</ele>
        <time>2017-07-01T10:24:54Z</time>
      </trkpt>
      <trkpt lat="45.97316" lon="4.70787">
        <ele>252</ele>
        <time>2017-07-01T10:24:55Z</time>
      </trkpt>
      <trkpt lat="45.97321" lon="4.70781">
        <ele>252</ele>
        <time>2017-07-01T10:24:56Z</time>
      </trkpt>
      <trkpt lat="45.97326" lon="4.70776">
        <ele>252</ele>
        <time>2017-07-01T10:24:57Z</time>
      </trkpt>
      <trkpt lat="45.97333" lon="4.70772">
        <ele>251</ele>
        <time>2017-07-01T10:24:58Z</time>
      </trkpt>
      <trkpt lat="45.9734" lon="4.70769">
        <ele>246</ele>
        <time>2017-07-01T10:24:59Z</time>
      </trkpt>
      <trkpt lat="45.97348" lon="4.70765">
        <ele>246</ele>
        <time>2017-07-01T10:25:00Z</time>
      </trkpt>
      <trkpt lat="45.97356" lon="4.70761">
        <ele>245</ele>
        <time>2017-07-01T10:25:01Z</time>
      </trkpt>
      <trkpt lat="45.97365" lon="4.70757">
        <ele>245</ele>
        <time>2017-07-01T10:25:02Z</time>
      </trkpt>
      <trkpt lat="45.97374" lon="4.70753">
        <ele>244</ele>
        <time>2017-07-01T10:25:03Z</time>
      </trkpt>
      <trkpt lat="45.97383" lon="4.70749">
        <ele>244</ele>
        <time>2017-07-01T10:25:04Z</time>
      </trkpt>
      <trkpt lat="45.97392" lon="4.70747">
        <ele>243</ele>
        <time>2017-07-01T10:25:05Z</time>
      </trkpt>
      <trkpt lat="45.97401" lon="4.70746">
        <ele>242</ele>
        <time>2017-07-01T10:25:06Z</time>
      </trkpt>
      <trkpt lat="45.97409" lon="4.70747">
        <ele>241</ele>
        <time>2017-07-01T10:25:07Z</time>
      </trkpt>
      <trkpt lat="45.97419" lon="4.70748">
        <ele>240</ele>
        <time>2017-07-01T10:25:08Z</time>
      </trkpt>
      <trkpt lat="45.97429" lon="4.70749">
        <ele>239</ele>
        <time>2017-07-01T10:25:09Z</time>
      </trkpt>
      <trkpt lat="45.97438" lon="4.7075">
        <ele>239</ele>
        <time>2017-07-01T10:25:10Z</time>
      </trkpt>
      <trkpt lat="45.97447" lon="4.70751">
        <ele>238</ele>
        <time>2017-07-01T10:25:11Z</time>
      </trkpt>
      <trkpt lat="45.97454" lon="4.70751">
        <ele>238</ele>
        <time>2017-07-01T10:25:12Z</time>
      </trkpt>
      <trkpt lat="45.97461" lon="4.70752">
        <ele>237</ele>
        <time>2017-07-01T10:25:13Z</time>
      </trkpt>
      <trkpt lat="45.97467" lon="4.70752">
        <ele>237</ele>
        <time>2017-07-01T10:25:14Z</time>
      </trkpt>
      <trkpt lat="45.97476" lon="4.7075">
        <ele>237</ele>
        <time>2017-07-01T10:25:16Z</time>
      </trkpt>
      <trkpt lat="45.97478" lon="4.7075">
        <ele>237</ele>
        <time>2017-07-01T10:25:17Z</time>
      </trkpt>
      <trkpt lat="45.97484" lon="4.70746">
        <ele>237</ele>
        <time>2017-07-01T10:25:22Z</time>
      </trkpt>
      <trkpt lat="45.97487" lon="4.70746">
        <ele>237</ele>
        <time>2017-07-01T10:25:23Z</time>
      </trkpt>
      <trkpt lat="45.97494" lon="4.70746">
        <ele>236</ele>
        <time>2017-07-01T10:25:25Z</time>
      </trkpt>
      <trkpt lat="45.975" lon="4.70745">
        <ele>236</ele>
        <time>2017-07-01T10:25:26Z</time>
      </trkpt>
      <trkpt lat="45.97505" lon="4.70743">
        <ele>235</ele>
        <time>2017-07-01T10:25:27Z</time>
      </trkpt>
      <trkpt lat="45.97511" lon="4.70741">
        <ele>235</ele>
        <time>2017-07-01T10:25:28Z</time>
      </trkpt>
      <trkpt lat="45.97516" lon="4.70739">
        <ele>235</ele>
        <time>2017-07-01T10:25:29Z</time>
      </trkpt>
      <trkpt lat="45.97521" lon="4.70738">
        <ele>234</ele>
        <time>2017-07-01T10:25:30Z</time>
      </trkpt>
      <trkpt lat="45.97526" lon="4.70736">
        <ele>234</ele>
        <time>2017-07-01T10:25:31Z</time>
      </trkpt>
      <trkpt lat="45.97532" lon="4.70735">
        <ele>234</ele>
        <time>2017-07-01T10:25:32Z</time>
      </trkpt>
      <trkpt lat="45.97539" lon="4.70735">
        <ele>234</ele>
        <time>2017-07-01T10:25:33Z</time>
      </trkpt>
      <trkpt lat="45.97547" lon="4.70733">
        <ele>233</ele>
        <time>2017-07-01T10:25:34Z</time>
      </trkpt>
      <trkpt lat="45.97555" lon="4.70733">
        <ele>233</ele>
        <time>2017-07-01T10:25:35Z</time>
      </trkpt>
      <trkpt lat="45.97564" lon="4.70734">
        <ele>233</ele>
        <time>2017-07-01T10:25:36Z</time>
      </trkpt>
      <trkpt lat="45.97573" lon="4.70732">
        <ele>232</ele>
        <time>2017-07-01T10:25:37Z</time>
      </trkpt>
      <trkpt lat="45.97582" lon="4.7073">
        <ele>232</ele>
        <time>2017-07-01T10:25:38Z</time>
      </trkpt>
      <trkpt lat="45.9759" lon="4.7073">
        <ele>229</ele>
        <time>2017-07-01T10:25:39Z</time>
      </trkpt>
      <trkpt lat="45.97598" lon="4.70732">
        <ele>229</ele>
        <time>2017-07-01T10:25:40Z</time>
      </trkpt>
      <trkpt lat="45.97607" lon="4.70734">
        <ele>229</ele>
        <time>2017-07-01T10:25:41Z</time>
      </trkpt>
      <trkpt lat="45.97616" lon="4.70736">
        <ele>228</ele>
        <time>2017-07-01T10:25:42Z</time>
      </trkpt>
      <trkpt lat="45.97625" lon="4.70738">
        <ele>228</ele>
        <time>2017-07-01T10:25:43Z</time>
      </trkpt>
      <trkpt lat="45.97635" lon="4.70741">
        <ele>227</ele>
        <time>2017-07-01T10:25:44Z</time>
      </trkpt>
      <trkpt lat="45.97644" lon="4.70743">
        <ele>227</ele>
        <time>2017-07-01T10:25:45Z</time>
      </trkpt>
      <trkpt lat="45.97653" lon="4.70746">
        <ele>226</ele>
        <time>2017-07-01T10:25:46Z</time>
      </trkpt>
      <trkpt lat="45.97663" lon="4.7075">
        <ele>225</ele>
        <time>2017-07-01T10:25:47Z</time>
      </trkpt>
      <trkpt lat="45.97672" lon="4.70753">
        <ele>224</ele>
        <time>2017-07-01T10:25:48Z</time>
      </trkpt>
      <trkpt lat="45.97682" lon="4.70757">
        <ele>223</ele>
        <time>2017-07-01T10:25:49Z</time>
      </trkpt>
      <trkpt lat="45.97692" lon="4.70761">
        <ele>223</ele>
        <time>2017-07-01T10:25:50Z</time>
      </trkpt>
      <trkpt lat="45.97701" lon="4.70765">
        <ele>223</ele>
        <time>2017-07-01T10:25:51Z</time>
      </trkpt>
      <trkpt lat="45.97711" lon="4.70768">
        <ele>223</ele>
        <time>2017-07-01T10:25:52Z</time>
      </trkpt>
      <trkpt lat="45.9772" lon="4.70771">
        <ele>222</ele>
        <time>2017-07-01T10:25:53Z</time>
      </trkpt>
      <trkpt lat="45.9773" lon="4.70774">
        <ele>222</ele>
        <time>2017-07-01T10:25:54Z</time>
      </trkpt>
      <trkpt lat="45.9774" lon="4.70777">
        <ele>222</ele>
        <time>2017-07-01T10:25:55Z</time>
      </trkpt>
      <trkpt lat="45.9775" lon="4.70781">
        <ele>222</ele>
        <time>2017-07-01T10:25:56Z</time>
      </trkpt>
      <trkpt lat="45.97758" lon="4.70784">
        <ele>221</ele>
        <time>2017-07-01T10:25:57Z</time>
      </trkpt>
      <trkpt lat="45.97767" lon="4.70786">
        <ele>221</ele>
        <time>2017-07-01T10:25:58Z</time>
      </trkpt>
      <trkpt lat="45.97774" lon="4.70788">
        <ele>221</ele>
        <time>2017-07-01T10:25:59Z</time>
      </trkpt>
      <trkpt lat="45.97783" lon="4.7079">
        <ele>221</ele>
        <time>2017-07-01T10:26:00Z</time>
      </trkpt>
      <trkpt lat="45.9779" lon="4.70793">
        <ele>221</ele>
        <time>2017-07-01T10:26:01Z</time>
      </trkpt>
      <trkpt lat="45.97797" lon="4.70799">
        <ele>221</ele>
        <time>2017-07-01T10:26:02Z</time>
      </trkpt>
      <trkpt lat="45.97803" lon="4.70805">
        <ele>221</ele>
        <time>2017-07-01T10:26:03Z</time>
      </trkpt>
      <trkpt lat="45.97809" lon="4.70813">
        <ele>221</ele>
        <time>2017-07-01T10:26:04Z</time>
      </trkpt>
      <trkpt lat="45.97815" lon="4.70821">
        <ele>221</ele>
        <time>2017-07-01T10:26:05Z</time>
      </trkpt>
      <trkpt lat="45.97819" lon="4.70831">
        <ele>221</ele>
        <time>2017-07-01T10:26:06Z</time>
      </trkpt>
      <trkpt lat="45.97822" lon="4.70841">
        <ele>221</ele>
        <time>2017-07-01T10:26:07Z</time>
      </trkpt>
      <trkpt lat="45.97824" lon="4.70852">
        <ele>220</ele>
        <time>2017-07-01T10:26:08Z</time>
      </trkpt>
      <trkpt lat="45.97824" lon="4.70864">
        <ele>220</ele>
        <time>2017-07-01T10:26:09Z</time>
      </trkpt>
      <trkpt lat="45.97826" lon="4.70875">
        <ele>220</ele>
        <time>2017-07-01T10:26:10Z</time>
      </trkpt>
      <trkpt lat="45.9783" lon="4.70884">
        <ele>220</ele>
        <time>2017-07-01T10:26:11Z</time>
      </trkpt>
      <trkpt lat="45.97831" lon="4.70893">
        <ele>220</ele>
        <time>2017-07-01T10:26:12Z</time>
      </trkpt>
      <trkpt lat="45.9783" lon="4.70902">
        <ele>219</ele>
        <time>2017-07-01T10:26:13Z</time>
      </trkpt>
      <trkpt lat="45.97829" lon="4.70911">
        <ele>219</ele>
        <time>2017-07-01T10:26:14Z</time>
      </trkpt>
      <trkpt lat="45.97828" lon="4.70921">
        <ele>219</ele>
        <time>2017-07-01T10:26:15Z</time>
      </trkpt>
      <trkpt lat="45.97828" lon="4.70931">
        <ele>219</ele>
        <time>2017-07-01T10:26:16Z</time>
      </trkpt>
      <trkpt lat="45.97829" lon="4.70941">
        <ele>218</ele>
        <time>2017-07-01T10:26:17Z</time>
      </trkpt>
      <trkpt lat="45.97832" lon="4.7095">
        <ele>218</ele>
        <time>2017-07-01T10:26:18Z</time>
      </trkpt>
      <trkpt lat="45.97833" lon="4.7096">
        <ele>218</ele>
        <time>2017-07-01T10:26:19Z</time>
      </trkpt>
      <trkpt lat="45.97834" lon="4.70971">
        <ele>217</ele>
        <time>2017-07-01T10:26:20Z</time>
      </trkpt>
      <trkpt lat="45.97835" lon="4.70982">
        <ele>217</ele>
        <time>2017-07-01T10:26:21Z</time>
      </trkpt>
      <trkpt lat="45.97836" lon="4.70994">
        <ele>216</ele>
        <time>2017-07-01T10:26:22Z</time>
      </trkpt>
      <trkpt lat="45.97837" lon="4.71006">
        <ele>216</ele>
        <time>2017-07-01T10:26:23Z</time>
      </trkpt>
      <trkpt lat="45.97839" lon="4.71019">
        <ele>216</ele>
        <time>2017-07-01T10:26:24Z</time>
      </trkpt>
      <trkpt lat="45.9784" lon="4.71031">
        <ele>216</ele>
        <time>2017-07-01T10:26:25Z</time>
      </trkpt>
      <trkpt lat="45.97841" lon="4.71044">
        <ele>215</ele>
        <time>2017-07-01T10:26:26Z</time>
      </trkpt>
      <trkpt lat="45.97842" lon="4.71058">
        <ele>215</ele>
        <time>2017-07-01T10:26:27Z</time>
      </trkpt>
      <trkpt lat="45.97844" lon="4.7107">
        <ele>215</ele>
        <time>2017-07-01T10:26:28Z</time>
      </trkpt>
      <trkpt lat="45.97846" lon="4.71083">
        <ele>215</ele>
        <time>2017-07-01T10:26:29Z</time>
      </trkpt>
      <trkpt lat="45.97847" lon="4.71097">
        <ele>213</ele>
        <time>2017-07-01T10:26:30Z</time>
      </trkpt>
      <trkpt lat="45.97848" lon="4.7111">
        <ele>213</ele>
        <time>2017-07-01T10:26:31Z</time>
      </trkpt>
      <trkpt lat="45.97849" lon="4.71124">
        <ele>213</ele>
        <time>2017-07-01T10:26:32Z</time>
      </trkpt>
      <trkpt lat="45.97851" lon="4.71137">
        <ele>212</ele>
        <time>2017-07-01T10:26:33Z</time>
      </trkpt>
      <trkpt lat="45.97852" lon="4.71151">
        <ele>212</ele>
        <time>2017-07-01T10:26:34Z</time>
      </trkpt>
      <trkpt lat="45.97852" lon="4.71166">
        <ele>212</ele>
        <time>2017-07-01T10:26:35Z</time>
      </trkpt>
      <trkpt lat="45.97853" lon="4.7118">
        <ele>209</ele>
        <time>2017-07-01T10:26:36Z</time>
      </trkpt>
      <trkpt lat="45.97853" lon="4.71194">
        <ele>209</ele>
        <time>2017-07-01T10:26:37Z</time>
      </trkpt>
      <trkpt lat="45.97853" lon="4.71208">
        <ele>209</ele>
        <time>2017-07-01T10:26:38Z</time>
      </trkpt>
      <trkpt lat="45.97853" lon="4.71222">
        <ele>208</ele>
        <time>2017-07-01T10:26:39Z</time>
      </trkpt>
      <trkpt lat="45.97853" lon="4.71236">
        <ele>208</ele>
        <time>2017-07-01T10:26:40Z</time>
      </trkpt>
      <trkpt lat="45.97853" lon="4.71251">
        <ele>207</ele>
        <time>2017-07-01T10:26:41Z</time>
      </trkpt>
      <trkpt lat="45.97852" lon="4.71266">
        <ele>206</ele>
        <time>2017-07-01T10:26:42Z</time>
      </trkpt>
      <trkpt lat="45.97853" lon="4.7128">
        <ele>206</ele>
        <time>2017-07-01T10:26:43Z</time>
      </trkpt>
      <trkpt lat="45.97853" lon="4.71295">
        <ele>206</ele>
        <time>2017-07-01T10:26:44Z</time>
      </trkpt>
      <trkpt lat="45.97853" lon="4.71309">
        <ele>205</ele>
        <time>2017-07-01T10:26:45Z</time>
      </trkpt>
      <trkpt lat="45.97853" lon="4.71324">
        <ele>205</ele>
        <time>2017-07-01T10:26:46Z</time>
      </trkpt>
      <trkpt lat="45.97854" lon="4.71338">
        <ele>204</ele>
        <time>2017-07-01T10:26:47Z</time>
      </trkpt>
      <trkpt lat="45.97855" lon="4.71352">
        <ele>204</ele>
        <time>2017-07-01T10:26:48Z</time>
      </trkpt>
      <trkpt lat="45.97855" lon="4.71366">
        <ele>203</ele>
        <time>2017-07-01T10:26:49Z</time>
      </trkpt>
      <trkpt lat="45.97856" lon="4.7138">
        <ele>203</ele>
        <time>2017-07-01T10:26:50Z</time>
      </trkpt>
      <trkpt lat="45.97857" lon="4.71393">
        <ele>203</ele>
        <time>2017-07-01T10:26:51Z</time>
      </trkpt>
      <trkpt lat="45.97858" lon="4.71407">
        <ele>203</ele>
        <time>2017-07-01T10:26:52Z</time>
      </trkpt>
      <trkpt lat="45.97859" lon="4.7142">
        <ele>201</ele>
        <time>2017-07-01T10:26:53Z</time>
      </trkpt>
      <trkpt lat="45.97861" lon="4.71433">
        <ele>201</ele>
        <time>2017-07-01T10:26:54Z</time>
      </trkpt>
      <trkpt lat="45.97863" lon="4.71446">
        <ele>201</ele>
        <time>2017-07-01T10:26:55Z</time>
      </trkpt>
      <trkpt lat="45.97865" lon="4.7146">
        <ele>201</ele>
        <time>2017-07-01T10:26:56Z</time>
      </trkpt>
      <trkpt lat="45.97868" lon="4.71472">
        <ele>201</ele>
        <time>2017-07-01T10:26:57Z</time>
      </trkpt>
      <trkpt lat="45.9787" lon="4.71485">
        <ele>201</ele>
        <time>2017-07-01T10:26:58Z</time>
      </trkpt>
      <trkpt lat="45.97872" lon="4.71498">
        <ele>201</ele>
        <time>2017-07-01T10:26:59Z</time>
      </trkpt>
      <trkpt lat="45.97874" lon="4.71512">
        <ele>199</ele>
        <time>2017-07-01T10:27:00Z</time>
      </trkpt>
      <trkpt lat="45.97877" lon="4.71524">
        <ele>199</ele>
        <time>2017-07-01T10:27:01Z</time>
      </trkpt>
      <trkpt lat="45.97879" lon="4.71537">
        <ele>199</ele>
        <time>2017-07-01T10:27:02Z</time>
      </trkpt>
      <trkpt lat="45.97882" lon="4.71549">
        <ele>198</ele>
        <time>2017-07-01T10:27:03Z</time>
      </trkpt>
      <trkpt lat="45.97884" lon="4.71562">
        <ele>198</ele>
        <time>2017-07-01T10:27:04Z</time>
      </trkpt>
      <trkpt lat="45.97885" lon="4.71574">
        <ele>198</ele>
        <time>2017-07-01T10:27:05Z</time>
      </trkpt>
      <trkpt lat="45.97885" lon="4.71587">
        <ele>197</ele>
        <time>2017-07-01T10:27:06Z</time>
      </trkpt>
      <trkpt lat="45.97886" lon="4.71599">
        <ele>197</ele>
        <time>2017-07-01T10:27:07Z</time>
      </trkpt>
      <trkpt lat="45.97886" lon="4.71612">
        <ele>197</ele>
        <time>2017-07-01T10:27:08Z</time>
      </trkpt>
      <trkpt lat="45.97886" lon="4.71624">
        <ele>197</ele>
        <time>2017-07-01T10:27:09Z</time>
      </trkpt>
      <trkpt lat="45.97886" lon="4.71636">
        <ele>197</ele>
        <time>2017-07-01T10:27:10Z</time>
      </trkpt>
      <trkpt lat="45.97885" lon="4.71648">
        <ele>197</ele>
        <time>2017-07-01T10:27:11Z</time>
      </trkpt>
      <trkpt lat="45.97882" lon="4.71659">
        <ele>197</ele>
        <time>2017-07-01T10:27:12Z</time>
      </trkpt>
      <trkpt lat="45.97882" lon="4.71668">
        <ele>196</ele>
        <time>2017-07-01T10:27:13Z</time>
      </trkpt>
      <trkpt lat="45.97876" lon="4.71678">
        <ele>196</ele>
        <time>2017-07-01T10:27:14Z</time>
      </trkpt>
      <trkpt lat="45.97874" lon="4.71689">
        <ele>196</ele>
        <time>2017-07-01T10:27:15Z</time>
      </trkpt>
      <trkpt lat="45.97871" lon="4.71697">
        <ele>196</ele>
        <time>2017-07-01T10:27:16Z</time>
      </trkpt>
      <trkpt lat="45.9787" lon="4.71704">
        <ele>196</ele>
        <time>2017-07-01T10:27:17Z</time>
      </trkpt>
      <trkpt lat="45.97867" lon="4.7171">
        <ele>196</ele>
        <time>2017-07-01T10:27:18Z</time>
      </trkpt>
      <trkpt lat="45.97864" lon="4.71715">
        <ele>196</ele>
        <time>2017-07-01T10:27:19Z</time>
      </trkpt>
      <trkpt lat="45.97861" lon="4.71719">
        <ele>196</ele>
        <time>2017-07-01T10:27:20Z</time>
      </trkpt>
      <trkpt lat="45.97858" lon="4.71725">
        <ele>196</ele>
        <time>2017-07-01T10:27:21Z</time>
      </trkpt>
      <trkpt lat="45.97855" lon="4.7173">
        <ele>196</ele>
        <time>2017-07-01T10:27:22Z</time>
      </trkpt>
      <trkpt lat="45.97852" lon="4.71736">
        <ele>196</ele>
        <time>2017-07-01T10:27:23Z</time>
      </trkpt>
      <trkpt lat="45.97849" lon="4.7174">
        <ele>196</ele>
        <time>2017-07-01T10:27:24Z</time>
      </trkpt>
      <trkpt lat="45.97844" lon="4.71743">
        <ele>195</ele>
        <time>2017-07-01T10:27:25Z</time>
      </trkpt>
      <trkpt lat="45.97838" lon="4.71745">
        <ele>195</ele>
        <time>2017-07-01T10:27:26Z</time>
      </trkpt>
      <trkpt lat="45.97833" lon="4.71746">
        <ele>195</ele>
        <time>2017-07-01T10:27:27Z</time>
      </trkpt>
      <trkpt lat="45.97827" lon="4.71745">
        <ele>195</ele>
        <time>2017-07-01T10:27:28Z</time>
      </trkpt>
      <trkpt lat="45.97821" lon="4.71744">
        <ele>196</ele>
        <time>2017-07-01T10:27:29Z</time>
      </trkpt>
      <trkpt lat="45.97816" lon="4.71743">
        <ele>196</ele>
        <time>2017-07-01T10:27:30Z</time>
      </trkpt>
      <trkpt lat="45.9781" lon="4.71742">
        <ele>196</ele>
        <time>2017-07-01T10:27:31Z</time>
      </trkpt>
      <trkpt lat="45.97804" lon="4.71741">
        <ele>196</ele>
        <time>2017-07-01T10:27:32Z</time>
      </trkpt>
      <trkpt lat="45.97797" lon="4.71741">
        <ele>196</ele>
        <time>2017-07-01T10:27:33Z</time>
      </trkpt>
      <trkpt lat="45.97791" lon="4.7174">
        <ele>196</ele>
        <time>2017-07-01T10:27:34Z</time>
      </trkpt>
      <trkpt lat="45.97785" lon="4.71739">
        <ele>196</ele>
        <time>2017-07-01T10:27:35Z</time>
      </trkpt>
      <trkpt lat="45.97779" lon="4.71738">
        <ele>196</ele>
        <time>2017-07-01T10:27:36Z</time>
      </trkpt>
      <trkpt lat="45.97773" lon="4.71737">
        <ele>196</ele>
        <time>2017-07-01T10:27:37Z</time>
      </trkpt>
      <trkpt lat="45.97767" lon="4.71736">
        <ele>196</ele>
        <time>2017-07-01T10:27:38Z</time>
      </trkpt>
      <trkpt lat="45.9776" lon="4.71735">
        <ele>196</ele>
        <time>2017-07-01T10:27:39Z</time>
      </trkpt>
      <trkpt lat="45.97754" lon="4.71734">
        <ele>196</ele>
        <time>2017-07-01T10:27:40Z</time>
      </trkpt>
      <trkpt lat="45.97748" lon="4.71733">
        <ele>196</ele>
        <time>2017-07-01T10:27:41Z</time>
      </trkpt>
      <trkpt lat="45.97743" lon="4.71732">
        <ele>196</ele>
        <time>2017-07-01T10:27:42Z</time>
      </trkpt>
      <trkpt lat="45.97737" lon="4.71731">
        <ele>196</ele>
        <time>2017-07-01T10:27:43Z</time>
      </trkpt>
      <trkpt lat="45.97731" lon="4.71729">
        <ele>196</ele>
        <time>2017-07-01T10:27:44Z</time>
      </trkpt>
      <trkpt lat="45.97726" lon="4.71728">
        <ele>196</ele>
        <time>2017-07-01T10:27:45Z</time>
      </trkpt>
      <trkpt lat="45.9772" lon="4.71728">
        <ele>196</ele>
        <time>2017-07-01T10:27:46Z</time>
      </trkpt>
      <trkpt lat="45.97714" lon="4.71728">
        <ele>196</ele>
        <time>2017-07-01T10:27:47Z</time>
      </trkpt>
      <trkpt lat="45.97708" lon="4.71728">
        <ele>196</ele>
        <time>2017-07-01T10:27:48Z</time>
      </trkpt>
      <trkpt lat="45.97702" lon="4.71727">
        <ele>196</ele>
        <time>2017-07-01T10:27:49Z</time>
      </trkpt>
      <trkpt lat="45.97696" lon="4.71728">
        <ele>196</ele>
        <time>2017-07-01T10:27:50Z</time>
      </trkpt>
      <trkpt lat="45.9769" lon="4.71728">
        <ele>196</ele>
        <time>2017-07-01T10:27:51Z</time>
      </trkpt>
      <trkpt lat="45.97685" lon="4.71727">
        <ele>196</ele>
        <time>2017-07-01T10:27:52Z</time>
      </trkpt>
      <trkpt lat="45.9768" lon="4.71727">
        <ele>196</ele>
        <time>2017-07-01T10:27:53Z</time>
      </trkpt>
      <trkpt lat="45.97675" lon="4.71726">
        <ele>196</ele>
        <time>2017-07-01T10:27:54Z</time>
      </trkpt>
      <trkpt lat="45.9767" lon="4.71726">
        <ele>196</ele>
        <time>2017-07-01T10:27:55Z</time>
      </trkpt>
      <trkpt lat="45.97665" lon="4.71726">
        <ele>196</ele>
        <time>2017-07-01T10:27:56Z</time>
      </trkpt>
      <trkpt lat="45.9766" lon="4.71726">
        <ele>196</ele>
        <time>2017-07-01T10:27:57Z</time>
      </trkpt>
      <trkpt lat="45.97655" lon="4.71726">
        <ele>196</ele>
        <time>2017-07-01T10:27:58Z</time>
      </trkpt>
      <trkpt lat="45.97648" lon="4.71725">
        <ele>196</ele>
        <time>2017-07-01T10:27:59Z</time>
      </trkpt>
      <trkpt lat="45.97643" lon="4.71723">
        <ele>196</ele>
        <time>2017-07-01T10:28:00Z</time>
      </trkpt>
      <trkpt lat="45.97639" lon="4.7172">
        <ele>197</ele>
        <time>2017-07-01T10:28:01Z</time>
      </trkpt>
      <trkpt lat="45.97634" lon="4.71715">
        <ele>197</ele>
        <time>2017-07-01T10:28:02Z</time>
      </trkpt>
      <trkpt lat="45.9763" lon="4.71711">
        <ele>197</ele>
        <time>2017-07-01T10:28:03Z</time>
      </trkpt>
      <trkpt lat="45.97625" lon="4.71708">
        <ele>197</ele>
        <time>2017-07-01T10:28:04Z</time>
      </trkpt>
      <trkpt lat="45.9762" lon="4.71706">
        <ele>197</ele>
        <time>2017-07-01T10:28:05Z</time>
      </trkpt>
      <trkpt lat="45.97614" lon="4.71707">
        <ele>197</ele>
        <time>2017-07-01T10:28:06Z</time>
      </trkpt>
      <trkpt lat="45.97609" lon="4.7171">
        <ele>197</ele>
        <time>2017-07-01T10:28:07Z</time>
      </trkpt>
      <trkpt lat="45.97603" lon="4.71713">
        <ele>197</ele>
        <time>2017-07-01T10:28:08Z</time>
      </trkpt>
      <trkpt lat="45.97598" lon="4.71717">
        <ele>197</ele>
        <time>2017-07-01T10:28:09Z</time>
      </trkpt>
      <trkpt lat="45.97593" lon="4.7172">
        <ele>197</ele>
        <time>2017-07-01T10:28:10Z</time>
      </trkpt>
      <trkpt lat="45.97587" lon="4.7172">
        <ele>197</ele>
        <time>2017-07-01T10:28:11Z</time>
      </trkpt>
      <trkpt lat="45.97582" lon="4.7172">
        <ele>198</ele>
        <time>2017-07-01T10:28:12Z</time>
      </trkpt>
      <trkpt lat="45.97576" lon="4.71719">
        <ele>198</ele>
        <time>2017-07-01T10:28:13Z</time>
      </trkpt>
      <trkpt lat="45.97571" lon="4.71718">
        <ele>198</ele>
        <time>2017-07-01T10:28:14Z</time>
      </trkpt>
      <trkpt lat="45.97565" lon="4.71718">
        <ele>198</ele>
        <time>2017-07-01T10:28:15Z</time>
      </trkpt>
      <trkpt lat="45.9756" lon="4.71718">
        <ele>198</ele>
        <time>2017-07-01T10:28:16Z</time>
      </trkpt>
      <trkpt lat="45.97554" lon="4.71718">
        <ele>198</ele>
        <time>2017-07-01T10:28:17Z</time>
      </trkpt>
      <trkpt lat="45.97548" lon="4.71718">
        <ele>198</ele>
        <time>2017-07-01T10:28:18Z</time>
      </trkpt>
      <trkpt lat="45.97542" lon="4.71717">
        <ele>198</ele>
        <time>2017-07-01T10:28:19Z</time>
      </trkpt>
      <trkpt lat="45.97536" lon="4.71717">
        <ele>198</ele>
        <time>2017-07-01T10:28:20Z</time>
      </trkpt>
      <trkpt lat="45.9753" lon="4.71717">
        <ele>198</ele>
        <time>2017-07-01T10:28:21Z</time>
      </trkpt>
      <trkpt lat="45.97524" lon="4.71716">
        <ele>198</ele>
        <time>2017-07-01T10:28:22Z</time>
      </trkpt>
      <trkpt lat="45.97519" lon="4.71716">
        <ele>198</ele>
        <time>2017-07-01T10:28:23Z</time>
      </trkpt>
      <trkpt lat="45.97513" lon="4.71716">
        <ele>198</ele>
        <time>2017-07-01T10:28:24Z</time>
      </trkpt>
      <trkpt lat="45.97509" lon="4.71715">
        <ele>198</ele>
        <time>2017-07-01T10:28:25Z</time>
      </trkpt>
      <trkpt lat="45.97503" lon="4.71715">
        <ele>198</ele>
        <time>2017-07-01T10:28:26Z</time>
      </trkpt>
      <trkpt lat="45.97498" lon="4.71715">
        <ele>198</ele>
        <time>2017-07-01T10:28:27Z</time>
      </trkpt>
      <trkpt lat="45.97492" lon="4.71715">
        <ele>198</ele>
        <time>2017-07-01T10:28:28Z</time>
      </trkpt>
      <trkpt lat="45.97487" lon="4.71715">
        <ele>198</ele>
        <time>2017-07-01T10:28:29Z</time>
      </trkpt>
      <trkpt lat="45.9748" lon="4.71714">
        <ele>198</ele>
        <time>2017-07-01T10:28:30Z</time>
      </trkpt>
      <trkpt lat="45.97474" lon="4.71713">
        <ele>197</ele>
        <time>2017-07-01T10:28:31Z</time>
      </trkpt>
      <trkpt lat="45.97468" lon="4.71712">
        <ele>197</ele>
        <time>2017-07-01T10:28:32Z</time>
      </trkpt>
      <trkpt lat="45.97461" lon="4.71711">
        <ele>197</ele>
        <time>2017-07-01T10:28:33Z</time>
      </trkpt>
      <trkpt lat="45.97455" lon="4.7171">
        <ele>197</ele>
        <time>2017-07-01T10:28:34Z</time>
      </trkpt>
      <trkpt lat="45.9745" lon="4.7171">
        <ele>197</ele>
        <time>2017-07-01T10:28:35Z</time>
      </trkpt>
      <trkpt lat="45.97444" lon="4.7171">
        <ele>197</ele>
        <time>2017-07-01T10:28:36Z</time>
      </trkpt>
      <trkpt lat="45.97439" lon="4.7171">
        <ele>197</ele>
        <time>2017-07-01T10:28:37Z</time>
      </trkpt>
      <trkpt lat="45.97433" lon="4.7171">
        <ele>197</ele>
        <time>2017-07-01T10:28:38Z</time>
      </trkpt>
      <trkpt lat="45.97428" lon="4.71709">
        <ele>197</ele>
        <time>2017-07-01T10:28:39Z</time>
      </trkpt>
      <trkpt lat="45.97422" lon="4.71708">
        <ele>196</ele>
        <time>2017-07-01T10:28:40Z</time>
      </trkpt>
      <trkpt lat="45.97415" lon="4.71708">
        <ele>195</ele>
        <time>2017-07-01T10:28:41Z</time>
      </trkpt>
      <trkpt lat="45.97409" lon="4.71708">
        <ele>195</ele>
        <time>2017-07-01T10:28:42Z</time>
      </trkpt>
      <trkpt lat="45.97403" lon="4.71707">
        <ele>195</ele>
        <time>2017-07-01T10:28:43Z</time>
      </trkpt>
      <trkpt lat="45.97398" lon="4.71707">
        <ele>195</ele>
        <time>2017-07-01T10:28:44Z</time>
      </trkpt>
      <trkpt lat="45.97392" lon="4.71706">
        <ele>195</ele>
        <time>2017-07-01T10:28:45Z</time>
      </trkpt>
      <trkpt lat="45.97386" lon="4.71706">
        <ele>195</ele>
        <time>2017-07-01T10:28:46Z</time>
      </trkpt>
      <trkpt lat="45.97379" lon="4.71706">
        <ele>195</ele>
        <time>2017-07-01T10:28:47Z</time>
      </trkpt>
      <trkpt lat="45.97373" lon="4.71705">
        <ele>195</ele>
        <time>2017-07-01T10:28:48Z</time>
      </trkpt>
      <trkpt lat="45.97367" lon="4.71705">
        <ele>195</ele>
        <time>2017-07-01T10:28:49Z</time>
      </trkpt>
      <trkpt lat="45.97362" lon="4.71705">
        <ele>195</ele>
        <time>2017-07-01T10:28:50Z</time>
      </trkpt>
      <trkpt lat="45.97356" lon="4.71705">
        <ele>195</ele>
        <time>2017-07-01T10:28:51Z</time>
      </trkpt>
      <trkpt lat="45.97351" lon="4.71705">
        <ele>195</ele>
        <time>2017-07-01T10:28:52Z</time>
      </trkpt>
      <trkpt lat="45.97346" lon="4.71705">
        <ele>195</ele>
        <time>2017-07-01T10:28:53Z</time>
      </trkpt>
      <trkpt lat="45.97341" lon="4.71704">
        <ele>195</ele>
        <time>2017-07-01T10:28:54Z</time>
      </trkpt>
      <trkpt lat="45.97333" lon="4.71703">
        <ele>196</ele>
        <time>2017-07-01T10:28:56Z</time>
      </trkpt>
      <trkpt lat="45.97329" lon="4.71701">
        <ele>196</ele>
        <time>2017-07-01T10:28:57Z</time>
      </trkpt>
      <trkpt lat="45.97322" lon="4.71695">
        <ele>196</ele>
        <time>2017-07-01T10:28:59Z</time>
      </trkpt>
      <trkpt lat="45.97317" lon="4.71692">
        <ele>196</ele>
        <time>2017-07-01T10:29:00Z</time>
      </trkpt>
      <trkpt lat="45.97311" lon="4.7169">
        <ele>196</ele>
        <time>2017-07-01T10:29:01Z</time>
      </trkpt>
      <trkpt lat="45.97305" lon="4.71691">
        <ele>196</ele>
        <time>2017-07-01T10:29:02Z</time>
      </trkpt>
      <trkpt lat="45.97299" lon="4.71694">
        <ele>196</ele>
        <time>2017-07-01T10:29:03Z</time>
      </trkpt>
      <trkpt lat="45.97294" lon="4.71697">
        <ele>196</ele>
        <time>2017-07-01T10:29:04Z</time>
      </trkpt>
      <trkpt lat="45.97289" lon="4.717">
        <ele>196</ele>
        <time>2017-07-01T10:29:05Z</time>
      </trkpt>
      <trkpt lat="45.97284" lon="4.71701">
        <ele>196</ele>
        <time>2017-07-01T10:29:06Z</time>
      </trkpt>
      <trkpt lat="45.97278" lon="4.71701">
        <ele>197</ele>
        <time>2017-07-01T10:29:07Z</time>
      </trkpt>
      <trkpt lat="45.97272" lon="4.717">
        <ele>197</ele>
        <time>2017-07-01T10:29:08Z</time>
      </trkpt>
      <trkpt lat="45.97266" lon="4.71699">
        <ele>197</ele>
        <time>2017-07-01T10:29:09Z</time>
      </trkpt>
      <trkpt lat="45.9726" lon="4.71697">
        <ele>197</ele>
        <time>2017-07-01T10:29:10Z</time>
      </trkpt>
      <trkpt lat="45.97254" lon="4.71696">
        <ele>197</ele>
        <time>2017-07-01T10:29:11Z</time>
      </trkpt>
      <trkpt lat="45.97247" lon="4.71696">
        <ele>197</ele>
        <time>2017-07-01T10:29:12Z</time>
      </trkpt>
      <trkpt lat="45.97241" lon="4.71695">
        <ele>197</ele>
        <time>2017-07-01T10:29:13Z</time>
      </trkpt>
      <trkpt lat="45.97234" lon="4.71694">
        <ele>197</ele>
        <time>2017-07-01T10:29:14Z</time>
      </trkpt>
      <trkpt lat="45.97229" lon="4.71693">
        <ele>197</ele>
        <time>2017-07-01T10:29:15Z</time>
      </trkpt>
      <trkpt lat="45.97223" lon="4.71693">
        <ele>197</ele>
        <time>2017-07-01T10:29:16Z</time>
      </trkpt>
      <trkpt lat="45.97217" lon="4.71692">
        <ele>197</ele>
        <time>2017-07-01T10:29:17Z</time>
      </trkpt>
      <trkpt lat="45.97211" lon="4.71692">
        <ele>197</ele>
        <time>2017-07-01T10:29:18Z</time>
      </trkpt>
      <trkpt lat="45.97205" lon="4.71691">
        <ele>197</ele>
        <time>2017-07-01T10:29:19Z</time>
      </trkpt>
      <trkpt lat="45.972" lon="4.71691">
        <ele>197</ele>
        <time>2017-07-01T10:29:20Z</time>
      </trkpt>
      <trkpt lat="45.97195" lon="4.71691">
        <ele>197</ele>
        <time>2017-07-01T10:29:21Z</time>
      </trkpt>
      <trkpt lat="45.9719" lon="4.71691">
        <ele>197</ele>
        <time>2017-07-01T10:29:22Z</time>
      </trkpt>
      <trkpt lat="45.97184" lon="4.71691">
        <ele>197</ele>
        <time>2017-07-01T10:29:23Z</time>
      </trkpt>
      <trkpt lat="45.97179" lon="4.7169">
        <ele>197</ele>
        <time>2017-07-01T10:29:24Z</time>
      </trkpt>
      <trkpt lat="45.97173" lon="4.71689">
        <ele>197</ele>
        <time>2017-07-01T10:29:25Z</time>
      </trkpt>
      <trkpt lat="45.97166" lon="4.71688">
        <ele>196</ele>
        <time>2017-07-01T10:29:26Z</time>
      </trkpt>
      <trkpt lat="45.9716" lon="4.71688">
        <ele>196</ele>
        <time>2017-07-01T10:29:27Z</time>
      </trkpt>
      <trkpt lat="45.97154" lon="4.71687">
        <ele>195</ele>
        <time>2017-07-01T10:29:28Z</time>
      </trkpt>
      <trkpt lat="45.97148" lon="4.71686">
        <ele>195</ele>
        <time>2017-07-01T10:29:29Z</time>
      </trkpt>
      <trkpt lat="45.97141" lon="4.71686">
        <ele>195</ele>
        <time>2017-07-01T10:29:30Z</time>
      </trkpt>
      <trkpt lat="45.97134" lon="4.71685">
        <ele>195</ele>
        <time>2017-07-01T10:29:31Z</time>
      </trkpt>
      <trkpt lat="45.97128" lon="4.71684">
        <ele>195</ele>
        <time>2017-07-01T10:29:32Z</time>
      </trkpt>
      <trkpt lat="45.97122" lon="4.71684">
        <ele>195</ele>
        <time>2017-07-01T10:29:33Z</time>
      </trkpt>
      <trkpt lat="45.97116" lon="4.71684">
        <ele>195</ele>
        <time>2017-07-01T10:29:34Z</time>
      </trkpt>
      <trkpt lat="45.97111" lon="4.71683">
        <ele>194</ele>
        <time>2017-07-01T10:29:35Z</time>
      </trkpt>
      <trkpt lat="45.97105" lon="4.71683">
        <ele>194</ele>
        <time>2017-07-01T10:29:36Z</time>
      </trkpt>
      <trkpt lat="45.97099" lon="4.71682">
        <ele>194</ele>
        <time>2017-07-01T10:29:37Z</time>
      </trkpt>
      <trkpt lat="45.97093" lon="4.71682">
        <ele>194</ele>
        <time>2017-07-01T10:29:38Z</time>
      </trkpt>
      <trkpt lat="45.97087" lon="4.71681">
        <ele>194</ele>
        <time>2017-07-01T10:29:39Z</time>
      </trkpt>
      <trkpt lat="45.97081" lon="4.7168">
        <ele>194</ele>
        <time>2017-07-01T10:29:40Z</time>
      </trkpt>
      <trkpt lat="45.97074" lon="4.71679">
        <ele>194</ele>
        <time>2017-07-01T10:29:41Z</time>
      </trkpt>
      <trkpt lat="45.97067" lon="4.71677">
        <ele>193</ele>
        <time>2017-07-01T10:29:42Z</time>
      </trkpt>
      <trkpt lat="45.9706" lon="4.71676">
        <ele>193</ele>
        <time>2017-07-01T10:29:43Z</time>
      </trkpt>
      <trkpt lat="45.97053" lon="4.71675">
        <ele>193</ele>
        <time>2017-07-01T10:29:44Z</time>
      </trkpt>
      <trkpt lat="45.97045" lon="4.71674">
        <ele>193</ele>
        <time>2017-07-01T10:29:45Z</time>
      </trkpt>
      <trkpt lat="45.97038" lon="4.71673">
        <ele>193</ele>
        <time>2017-07-01T10:29:46Z</time>
      </trkpt>
      <trkpt lat="45.97031" lon="4.71673">
        <ele>193</ele>
        <time>2017-07-01T10:29:47Z</time>
      </trkpt>
      <trkpt lat="45.97026" lon="4.71674">
        <ele>193</ele>
        <time>2017-07-01T10:29:48Z</time>
      </trkpt>
      <trkpt lat="45.97018" lon="4.71674">
        <ele>193</ele>
        <time>2017-07-01T10:29:49Z</time>
      </trkpt>
      <trkpt lat="45.97011" lon="4.71674">
        <ele>193</ele>
        <time>2017-07-01T10:29:50Z</time>
      </trkpt>
      <trkpt lat="45.97003" lon="4.71674">
        <ele>193</ele>
        <time>2017-07-01T10:29:51Z</time>
      </trkpt>
      <trkpt lat="45.96996" lon="4.71674">
        <ele>193</ele>
        <time>2017-07-01T10:29:52Z</time>
      </trkpt>
      <trkpt lat="45.96989" lon="4.71674">
        <ele>193</ele>
        <time>2017-07-01T10:29:53Z</time>
      </trkpt>
      <trkpt lat="45.96983" lon="4.71674">
        <ele>192</ele>
        <time>2017-07-01T10:29:54Z</time>
      </trkpt>
      <trkpt lat="45.96976" lon="4.71673">
        <ele>192</ele>
        <time>2017-07-01T10:29:55Z</time>
      </trkpt>
      <trkpt lat="45.9697" lon="4.71673">
        <ele>192</ele>
        <time>2017-07-01T10:29:56Z</time>
      </trkpt>
      <trkpt lat="45.96964" lon="4.71672">
        <ele>192</ele>
        <time>2017-07-01T10:29:57Z</time>
      </trkpt>
      <trkpt lat="45.96958" lon="4.71672">
        <ele>192</ele>
        <time>2017-07-01T10:29:58Z</time>
      </trkpt>
      <trkpt lat="45.96951" lon="4.71671">
        <ele>192</ele>
        <time>2017-07-01T10:29:59Z</time>
      </trkpt>
      <trkpt lat="45.96945" lon="4.7167">
        <ele>192</ele>
        <time>2017-07-01T10:30:00Z</time>
      </trkpt>
      <trkpt lat="45.96938" lon="4.71669">
        <ele>193</ele>
        <time>2017-07-01T10:30:01Z</time>
      </trkpt>
      <trkpt lat="45.96931" lon="4.71668">
        <ele>193</ele>
        <time>2017-07-01T10:30:02Z</time>
      </trkpt>
      <trkpt lat="45.96924" lon="4.71668">
        <ele>194</ele>
        <time>2017-07-01T10:30:03Z</time>
      </trkpt>
      <trkpt lat="45.96917" lon="4.71667">
        <ele>195</ele>
        <time>2017-07-01T10:30:04Z</time>
      </trkpt>
      <trkpt lat="45.9691" lon="4.71666">
        <ele>195</ele>
        <time>2017-07-01T10:30:05Z</time>
      </trkpt>
      <trkpt lat="45.96903" lon="4.71666">
        <ele>195</ele>
        <time>2017-07-01T10:30:06Z</time>
      </trkpt>
      <trkpt lat="45.96896" lon="4.71666">
        <ele>195</ele>
        <time>2017-07-01T10:30:07Z</time>
      </trkpt>
      <trkpt lat="45.96889" lon="4.71665">
        <ele>195</ele>
        <time>2017-07-01T10:30:08Z</time>
      </trkpt>
      <trkpt lat="45.96883" lon="4.71664">
        <ele>195</ele>
        <time>2017-07-01T10:30:09Z</time>
      </trkpt>
      <trkpt lat="45.96876" lon="4.71664">
        <ele>195</ele>
        <time>2017-07-01T10:30:10Z</time>
      </trkpt>
      <trkpt lat="45.96869" lon="4.71663">
        <ele>195</ele>
        <time>2017-07-01T10:30:11Z</time>
      </trkpt>
      <trkpt lat="45.96862" lon="4.71663">
        <ele>195</ele>
        <time>2017-07-01T10:30:12Z</time>
      </trkpt>
      <trkpt lat="45.96855" lon="4.71662">
        <ele>194</ele>
        <time>2017-07-01T10:30:13Z</time>
      </trkpt>
      <trkpt lat="45.96849" lon="4.71661">
        <ele>194</ele>
        <time>2017-07-01T10:30:14Z</time>
      </trkpt>
      <trkpt lat="45.96842" lon="4.71659">
        <ele>193</ele>
        <time>2017-07-01T10:30:15Z</time>
      </trkpt>
      <trkpt lat="45.96835" lon="4.71658">
        <ele>193</ele>
        <time>2017-07-01T10:30:16Z</time>
      </trkpt>
      <trkpt lat="45.96828" lon="4.71657">
        <ele>192</ele>
        <time>2017-07-01T10:30:17Z</time>
      </trkpt>
      <trkpt lat="45.96821" lon="4.71656">
        <ele>193</ele>
        <time>2017-07-01T10:30:18Z</time>
      </trkpt>
      <trkpt lat="45.96814" lon="4.71655">
        <ele>193</ele>
        <time>2017-07-01T10:30:19Z</time>
      </trkpt>
      <trkpt lat="45.96808" lon="4.71653">
        <ele>193</ele>
        <time>2017-07-01T10:30:20Z</time>
      </trkpt>
      <trkpt lat="45.968" lon="4.71652">
        <ele>193</ele>
        <time>2017-07-01T10:30:21Z</time>
      </trkpt>
      <trkpt lat="45.96793" lon="4.71651">
        <ele>193</ele>
        <time>2017-07-01T10:30:22Z</time>
      </trkpt>
      <trkpt lat="45.96786" lon="4.7165">
        <ele>192</ele>
        <time>2017-07-01T10:30:23Z</time>
      </trkpt>
      <trkpt lat="45.96778" lon="4.7165">
        <ele>192</ele>
        <time>2017-07-01T10:30:24Z</time>
      </trkpt>
      <trkpt lat="45.96771" lon="4.71649">
        <ele>192</ele>
        <time>2017-07-01T10:30:25Z</time>
      </trkpt>
      <trkpt lat="45.96765" lon="4.71649">
        <ele>192</ele>
        <time>2017-07-01T10:30:26Z</time>
      </trkpt>
      <trkpt lat="45.96758" lon="4.71647">
        <ele>191</ele>
        <time>2017-07-01T10:30:27Z</time>
      </trkpt>
      <trkpt lat="45.96752" lon="4.71646">
        <ele>191</ele>
        <time>2017-07-01T10:30:28Z</time>
      </trkpt>
      <trkpt lat="45.96745" lon="4.71645">
        <ele>190</ele>
        <time>2017-07-01T10:30:29Z</time>
      </trkpt>
      <trkpt lat="45.96739" lon="4.71644">
        <ele>190</ele>
        <time>2017-07-01T10:30:30Z</time>
      </trkpt>
      <trkpt lat="45.96732" lon="4.71643">
        <ele>190</ele>
        <time>2017-07-01T10:30:31Z</time>
      </trkpt>
      <trkpt lat="45.96725" lon="4.71642">
        <ele>190</ele>
        <time>2017-07-01T10:30:32Z</time>
      </trkpt>
      <trkpt lat="45.96719" lon="4.71641">
        <ele>190</ele>
        <time>2017-07-01T10:30:33Z</time>
      </trkpt>
      <trkpt lat="45.96712" lon="4.7164">
        <ele>190</ele>
        <time>2017-07-01T10:30:34Z</time>
      </trkpt>
      <trkpt lat="45.96705" lon="4.71639">
        <ele>190</ele>
        <time>2017-07-01T10:30:35Z</time>
      </trkpt>
      <trkpt lat="45.96698" lon="4.71638">
        <ele>190</ele>
        <time>2017-07-01T10:30:36Z</time>
      </trkpt>
      <trkpt lat="45.96691" lon="4.71637">
        <ele>190</ele>
        <time>2017-07-01T10:30:37Z</time>
      </trkpt>
      <trkpt lat="45.96684" lon="4.71636">
        <ele>190</ele>
        <time>2017-07-01T10:30:38Z</time>
      </trkpt>
      <trkpt lat="45.96676" lon="4.71635">
        <ele>190</ele>
        <time>2017-07-01T10:30:39Z</time>
      </trkpt>
      <trkpt lat="45.96669" lon="4.71634">
        <ele>190</ele>
        <time>2017-07-01T10:30:40Z</time>
      </trkpt>
      <trkpt lat="45.96662" lon="4.71632">
        <ele>188</ele>
        <time>2017-07-01T10:30:41Z</time>
      </trkpt>
      <trkpt lat="45.96656" lon="4.71631">
        <ele>188</ele>
        <time>2017-07-01T10:30:42Z</time>
      </trkpt>
      <trkpt lat="45.96649" lon="4.7163">
        <ele>188</ele>
        <time>2017-07-01T10:30:43Z</time>
      </trkpt>
      <trkpt lat="45.96642" lon="4.71629">
        <ele>188</ele>
        <time>2017-07-01T10:30:44Z</time>
      </trkpt>
      <trkpt lat="45.96635" lon="4.71628">
        <ele>188</ele>
        <time>2017-07-01T10:30:45Z</time>
      </trkpt>
      <trkpt lat="45.96629" lon="4.71627">
        <ele>188</ele>
        <time>2017-07-01T10:30:46Z</time>
      </trkpt>
      <trkpt lat="45.96622" lon="4.71626">
        <ele>188</ele>
        <time>2017-07-01T10:30:47Z</time>
      </trkpt>
      <trkpt lat="45.96616" lon="4.71624">
        <ele>188</ele>
        <time>2017-07-01T10:30:48Z</time>
      </trkpt>
      <trkpt lat="45.96609" lon="4.71623">
        <ele>188</ele>
        <time>2017-07-01T10:30:49Z</time>
      </trkpt>
      <trkpt lat="45.96603" lon="4.71622">
        <ele>187</ele>
        <time>2017-07-01T10:30:50Z</time>
      </trkpt>
      <trkpt lat="45.96597" lon="4.71622">
        <ele>187</ele>
        <time>2017-07-01T10:30:51Z</time>
      </trkpt>
      <trkpt lat="45.9659" lon="4.71621">
        <ele>187</ele>
        <time>2017-07-01T10:30:52Z</time>
      </trkpt>
      <trkpt lat="45.96583" lon="4.7162">
        <ele>185</ele>
        <time>2017-07-01T10:30:53Z</time>
      </trkpt>
      <trkpt lat="45.96577" lon="4.71619">
        <ele>185</ele>
        <time>2017-07-01T10:30:54Z</time>
      </trkpt>
      <trkpt lat="45.9657" lon="4.71618">
        <ele>185</ele>
        <time>2017-07-01T10:30:55Z</time>
      </trkpt>
      <trkpt lat="45.96563" lon="4.71617">
        <ele>185</ele>
        <time>2017-07-01T10:30:56Z</time>
      </trkpt>
      <trkpt lat="45.96557" lon="4.71615">
        <ele>185</ele>
        <time>2017-07-01T10:30:57Z</time>
      </trkpt>
      <trkpt lat="45.96551" lon="4.71612">
        <ele>185</ele>
        <time>2017-07-01T10:30:58Z</time>
      </trkpt>
      <trkpt lat="45.96546" lon="4.71607">
        <ele>185</ele>
        <time>2017-07-01T10:30:59Z</time>
      </trkpt>
      <trkpt lat="45.9654" lon="4.71603">
        <ele>185</ele>
        <time>2017-07-01T10:31:00Z</time>
      </trkpt>
      <trkpt lat="45.96533" lon="4.71601">
        <ele>185</ele>
        <time>2017-07-01T10:31:01Z</time>
      </trkpt>
      <trkpt lat="45.96527" lon="4.71602">
        <ele>185</ele>
        <time>2017-07-01T10:31:02Z</time>
      </trkpt>
      <trkpt lat="45.9652" lon="4.71605">
        <ele>184</ele>
        <time>2017-07-01T10:31:03Z</time>
      </trkpt>
      <trkpt lat="45.96514" lon="4.71607">
        <ele>184</ele>
        <time>2017-07-01T10:31:04Z</time>
      </trkpt>
      <trkpt lat="45.96506" lon="4.71608">
        <ele>184</ele>
        <time>2017-07-01T10:31:05Z</time>
      </trkpt>
      <trkpt lat="45.96499" lon="4.71606">
        <ele>183</ele>
        <time>2017-07-01T10:31:06Z</time>
      </trkpt>
      <trkpt lat="45.96492" lon="4.71605">
        <ele>183</ele>
        <time>2017-07-01T10:31:07Z</time>
      </trkpt>
      <trkpt lat="45.96484" lon="4.71604">
        <ele>183</ele>
        <time>2017-07-01T10:31:08Z</time>
      </trkpt>
      <trkpt lat="45.96477" lon="4.71603">
        <ele>183</ele>
        <time>2017-07-01T10:31:09Z</time>
      </trkpt>
      <trkpt lat="45.9647" lon="4.71602">
        <ele>183</ele>
        <time>2017-07-01T10:31:10Z</time>
      </trkpt>
      <trkpt lat="45.96463" lon="4.71601">
        <ele>183</ele>
        <time>2017-07-01T10:31:11Z</time>
      </trkpt>
      <trkpt lat="45.96455" lon="4.71599">
        <ele>183</ele>
        <time>2017-07-01T10:31:12Z</time>
      </trkpt>
      <trkpt lat="45.96448" lon="4.71598">
        <ele>183</ele>
        <time>2017-07-01T10:31:13Z</time>
      </trkpt>
      <trkpt lat="45.96441" lon="4.71597">
        <ele>183</ele>
        <time>2017-07-01T10:31:14Z</time>
      </trkpt>
      <trkpt lat="45.96434" lon="4.71595">
        <ele>184</ele>
        <time>2017-07-01T10:31:15Z</time>
      </trkpt>
      <trkpt lat="45.96426" lon="4.71595">
        <ele>184</ele>
        <time>2017-07-01T10:31:16Z</time>
      </trkpt>
      <trkpt lat="45.9642" lon="4.71594">
        <ele>184</ele>
        <time>2017-07-01T10:31:17Z</time>
      </trkpt>
      <trkpt lat="45.96413" lon="4.71592">
        <ele>184</ele>
        <time>2017-07-01T10:31:18Z</time>
      </trkpt>
      <trkpt lat="45.96405" lon="4.71591">
        <ele>184</ele>
        <time>2017-07-01T10:31:19Z</time>
      </trkpt>
      <trkpt lat="45.96398" lon="4.7159">
        <ele>183</ele>
        <time>2017-07-01T10:31:20Z</time>
      </trkpt>
      <trkpt lat="45.96391" lon="4.71589">
        <ele>183</ele>
        <time>2017-07-01T10:31:21Z</time>
      </trkpt>
      <trkpt lat="45.96383" lon="4.71587">
        <ele>183</ele>
        <time>2017-07-01T10:31:22Z</time>
      </trkpt>
      <trkpt lat="45.96376" lon="4.71586">
        <ele>182</ele>
        <time>2017-07-01T10:31:23Z</time>
      </trkpt>
      <trkpt lat="45.96369" lon="4.71585">
        <ele>182</ele>
        <time>2017-07-01T10:31:24Z</time>
      </trkpt>
      <trkpt lat="45.96362" lon="4.71584">
        <ele>182</ele>
        <time>2017-07-01T10:31:25Z</time>
      </trkpt>
      <trkpt lat="45.96356" lon="4.71583">
        <ele>185</ele>
        <time>2017-07-01T10:31:26Z</time>
      </trkpt>
      <trkpt lat="45.96349" lon="4.71583">
        <ele>185</ele>
        <time>2017-07-01T10:31:27Z</time>
      </trkpt>
      <trkpt lat="45.96343" lon="4.71582">
        <ele>184</ele>
        <time>2017-07-01T10:31:28Z</time>
      </trkpt>
      <trkpt lat="45.96336" lon="4.71581">
        <ele>184</ele>
        <time>2017-07-01T10:31:29Z</time>
      </trkpt>
      <trkpt lat="45.96329" lon="4.71579">
        <ele>183</ele>
        <time>2017-07-01T10:31:30Z</time>
      </trkpt>
      <trkpt lat="45.96322" lon="4.71578">
        <ele>184</ele>
        <time>2017-07-01T10:31:31Z</time>
      </trkpt>
      <trkpt lat="45.96315" lon="4.71577">
        <ele>184</ele>
        <time>2017-07-01T10:31:32Z</time>
      </trkpt>
      <trkpt lat="45.96308" lon="4.71575">
        <ele>184</ele>
        <time>2017-07-01T10:31:33Z</time>
      </trkpt>
      <trkpt lat="45.96302" lon="4.71573">
        <ele>184</ele>
        <time>2017-07-01T10:31:34Z</time>
      </trkpt>
      <trkpt lat="45.96295" lon="4.71572">
        <ele>184</ele>
        <time>2017-07-01T10:31:35Z</time>
      </trkpt>
      <trkpt lat="45.96288" lon="4.71571">
        <ele>184</ele>
        <time>2017-07-01T10:31:36Z</time>
      </trkpt>
      <trkpt lat="45.96282" lon="4.7157">
        <ele>184</ele>
        <time>2017-07-01T10:31:37Z</time>
      </trkpt>
      <trkpt lat="45.96276" lon="4.71569">
        <ele>184</ele>
        <time>2017-07-01T10:31:38Z</time>
      </trkpt>
      <trkpt lat="45.9627" lon="4.71568">
        <ele>184</ele>
        <time>2017-07-01T10:31:39Z</time>
      </trkpt>
      <trkpt lat="45.96264" lon="4.71567">
        <ele>183</ele>
        <time>2017-07-01T10:31:40Z</time>
      </trkpt>
      <trkpt lat="45.96258" lon="4.71566">
        <ele>183</ele>
        <time>2017-07-01T10:31:41Z</time>
      </trkpt>
      <trkpt lat="45.96252" lon="4.71565">
        <ele>183</ele>
        <time>2017-07-01T10:31:42Z</time>
      </trkpt>
      <trkpt lat="45.96246" lon="4.71564">
        <ele>183</ele>
        <time>2017-07-01T10:31:43Z</time>
      </trkpt>
      <trkpt lat="45.9624" lon="4.71563">
        <ele>183</ele>
        <time>2017-07-01T10:31:44Z</time>
      </trkpt>
      <trkpt lat="45.96233" lon="4.71563">
        <ele>183</ele>
        <time>2017-07-01T10:31:45Z</time>
      </trkpt>
      <trkpt lat="45.96227" lon="4.71562">
        <ele>183</ele>
        <time>2017-07-01T10:31:46Z</time>
      </trkpt>
      <trkpt lat="45.96221" lon="4.7156">
        <ele>183</ele>
        <time>2017-07-01T10:31:47Z</time>
      </trkpt>
      <trkpt lat="45.96215" lon="4.71559">
        <ele>184</ele>
        <time>2017-07-01T10:31:48Z</time>
      </trkpt>
      <trkpt lat="45.96209" lon="4.71559">
        <ele>184</ele>
        <time>2017-07-01T10:31:49Z</time>
      </trkpt>
      <trkpt lat="45.96204" lon="4.71558">
        <ele>184</ele>
        <time>2017-07-01T10:31:50Z</time>
      </trkpt>
      <trkpt lat="45.96198" lon="4.71557">
        <ele>184</ele>
        <time>2017-07-01T10:31:51Z</time>
      </trkpt>
      <trkpt lat="45.96192" lon="4.71556">
        <ele>183</ele>
        <time>2017-07-01T10:31:52Z</time>
      </trkpt>
      <trkpt lat="45.96186" lon="4.71554">
        <ele>183</ele>
        <time>2017-07-01T10:31:53Z</time>
      </trkpt>
      <trkpt lat="45.9618" lon="4.71553">
        <ele>183</ele>
        <time>2017-07-01T10:31:54Z</time>
      </trkpt>
      <trkpt lat="45.96174" lon="4.71552">
        <ele>183</ele>
        <time>2017-07-01T10:31:55Z</time>
      </trkpt>
      <trkpt lat="45.96168" lon="4.71551">
        <ele>183</ele>
        <time>2017-07-01T10:31:56Z</time>
      </trkpt>
      <trkpt lat="45.96162" lon="4.71549">
        <ele>184</ele>
        <time>2017-07-01T10:31:57Z</time>
      </trkpt>
      <trkpt lat="45.96156" lon="4.71548">
        <ele>184</ele>
        <time>2017-07-01T10:31:58Z</time>
      </trkpt>
      <trkpt lat="45.96149" lon="4.71547">
        <ele>184</ele>
        <time>2017-07-01T10:31:59Z</time>
      </trkpt>
      <trkpt lat="45.96142" lon="4.71545">
        <ele>184</ele>
        <time>2017-07-01T10:32:00Z</time>
      </trkpt>
      <trkpt lat="45.96136" lon="4.71544">
        <ele>185</ele>
        <time>2017-07-01T10:32:01Z</time>
      </trkpt>
      <trkpt lat="45.96129" lon="4.71543">
        <ele>185</ele>
        <time>2017-07-01T10:32:02Z</time>
      </trkpt>
      <trkpt lat="45.96122" lon="4.71542">
        <ele>185</ele>
        <time>2017-07-01T10:32:03Z</time>
      </trkpt>
      <trkpt lat="45.96116" lon="4.71541">
        <ele>185</ele>
        <time>2017-07-01T10:32:04Z</time>
      </trkpt>
      <trkpt lat="45.9611" lon="4.7154">
        <ele>185</ele>
        <time>2017-07-01T10:32:05Z</time>
      </trkpt>
      <trkpt lat="45.96103" lon="4.71539">
        <ele>185</ele>
        <time>2017-07-01T10:32:06Z</time>
      </trkpt>
      <trkpt lat="45.96098" lon="4.71538">
        <ele>185</ele>
        <time>2017-07-01T10:32:07Z</time>
      </trkpt>
      <trkpt lat="45.96092" lon="4.71537">
        <ele>185</ele>
        <time>2017-07-01T10:32:08Z</time>
      </trkpt>
      <trkpt lat="45.96087" lon="4.71536">
        <ele>185</ele>
        <time>2017-07-01T10:32:09Z</time>
      </trkpt>
      <trkpt lat="45.96081" lon="4.71535">
        <ele>186</ele>
        <time>2017-07-01T10:32:10Z</time>
      </trkpt>
      <trkpt lat="45.96076" lon="4.71534">
        <ele>186</ele>
        <time>2017-07-01T10:32:11Z</time>
      </trkpt>
      <trkpt lat="45.9607" lon="4.71533">
        <ele>186</ele>
        <time>2017-07-01T10:32:12Z</time>
      </trkpt>
      <trkpt lat="45.96064" lon="4.71532">
        <ele>186</ele>
        <time>2017-07-01T10:32:13Z</time>
      </trkpt>
      <trkpt lat="45.96058" lon="4.71531">
        <ele>186</ele>
        <time>2017-07-01T10:32:14Z</time>
      </trkpt>
      <trkpt lat="45.96051" lon="4.7153">
        <ele>186</ele>
        <time>2017-07-01T10:32:15Z</time>
      </trkpt>
      <trkpt lat="45.96045" lon="4.71528">
        <ele>186</ele>
        <time>2017-07-01T10:32:16Z</time>
      </trkpt>
      <trkpt lat="45.96039" lon="4.71527">
        <ele>186</ele>
        <time>2017-07-01T10:32:17Z</time>
      </trkpt>
      <trkpt lat="45.96033" lon="4.71526">
        <ele>186</ele>
        <time>2017-07-01T10:32:18Z</time>
      </trkpt>
      <trkpt lat="45.96028" lon="4.71526">
        <ele>186</ele>
        <time>2017-07-01T10:32:19Z</time>
      </trkpt>
      <trkpt lat="45.96022" lon="4.71525">
        <ele>186</ele>
        <time>2017-07-01T10:32:20Z</time>
      </trkpt>
      <trkpt lat="45.96017" lon="4.71523">
        <ele>186</ele>
        <time>2017-07-01T10:32:21Z</time>
      </trkpt>
      <trkpt lat="45.96012" lon="4.71522">
        <ele>186</ele>
        <time>2017-07-01T10:32:22Z</time>
      </trkpt>
      <trkpt lat="45.96008" lon="4.71519">
        <ele>186</ele>
        <time>2017-07-01T10:32:23Z</time>
      </trkpt>
      <trkpt lat="45.96003" lon="4.71515">
        <ele>187</ele>
        <time>2017-07-01T10:32:24Z</time>
      </trkpt>
      <trkpt lat="45.95998" lon="4.71512">
        <ele>186</ele>
        <time>2017-07-01T10:32:25Z</time>
      </trkpt>
      <trkpt lat="45.95993" lon="4.7151">
        <ele>186</ele>
        <time>2017-07-01T10:32:26Z</time>
      </trkpt>
      <trkpt lat="45.95986" lon="4.71511">
        <ele>186</ele>
        <time>2017-07-01T10:32:27Z</time>
      </trkpt>
      <trkpt lat="45.95979" lon="4.71512">
        <ele>185</ele>
        <time>2017-07-01T10:32:28Z</time>
      </trkpt>
      <trkpt lat="45.95974" lon="4.71514">
        <ele>185</ele>
        <time>2017-07-01T10:32:29Z</time>
      </trkpt>
      <trkpt lat="45.95968" lon="4.71516">
        <ele>184</ele>
        <time>2017-07-01T10:32:30Z</time>
      </trkpt>
      <trkpt lat="45.95961" lon="4.71518">
        <ele>184</ele>
        <time>2017-07-01T10:32:31Z</time>
      </trkpt>
      <trkpt lat="45.95955" lon="4.7152">
        <ele>184</ele>
        <time>2017-07-01T10:32:32Z</time>
      </trkpt>
      <trkpt lat="45.95948" lon="4.71521">
        <ele>184</ele>
        <time>2017-07-01T10:32:33Z</time>
      </trkpt>
      <trkpt lat="45.95942" lon="4.71521">
        <ele>184</ele>
        <time>2017-07-01T10:32:34Z</time>
      </trkpt>
      <trkpt lat="45.95936" lon="4.71521">
        <ele>184</ele>
        <time>2017-07-01T10:32:35Z</time>
      </trkpt>
      <trkpt lat="45.9593" lon="4.71521">
        <ele>184</ele>
        <time>2017-07-01T10:32:36Z</time>
      </trkpt>
      <trkpt lat="45.95924" lon="4.71521">
        <ele>184</ele>
        <time>2017-07-01T10:32:37Z</time>
      </trkpt>
      <trkpt lat="45.95917" lon="4.7152">
        <ele>184</ele>
        <time>2017-07-01T10:32:38Z</time>
      </trkpt>
      <trkpt lat="45.95911" lon="4.7152">
        <ele>183</ele>
        <time>2017-07-01T10:32:39Z</time>
      </trkpt>
      <trkpt lat="45.95905" lon="4.71521">
        <ele>183</ele>
        <time>2017-07-01T10:32:40Z</time>
      </trkpt>
      <trkpt lat="45.95898" lon="4.7152">
        <ele>182</ele>
        <time>2017-07-01T10:32:41Z</time>
      </trkpt>
      <trkpt lat="45.95892" lon="4.7152">
        <ele>182</ele>
        <time>2017-07-01T10:32:42Z</time>
      </trkpt>
      <trkpt lat="45.95885" lon="4.7152">
        <ele>182</ele>
        <time>2017-07-01T10:32:43Z</time>
      </trkpt>
      <trkpt lat="45.95878" lon="4.7152">
        <ele>182</ele>
        <time>2017-07-01T10:32:44Z</time>
      </trkpt>
      <trkpt lat="45.95871" lon="4.71519">
        <ele>182</ele>
        <time>2017-07-01T10:32:45Z</time>
      </trkpt>
      <trkpt lat="45.95865" lon="4.71518">
        <ele>182</ele>
        <time>2017-07-01T10:32:46Z</time>
      </trkpt>
      <trkpt lat="45.95858" lon="4.71518">
        <ele>182</ele>
        <time>2017-07-01T10:32:47Z</time>
      </trkpt>
      <trkpt lat="45.95852" lon="4.71518">
        <ele>182</ele>
        <time>2017-07-01T10:32:48Z</time>
      </trkpt>
      <trkpt lat="45.95846" lon="4.71518">
        <ele>182</ele>
        <time>2017-07-01T10:32:49Z</time>
      </trkpt>
      <trkpt lat="45.95839" lon="4.71517">
        <ele>183</ele>
        <time>2017-07-01T10:32:50Z</time>
      </trkpt>
      <trkpt lat="45.95833" lon="4.71517">
        <ele>182</ele>
        <time>2017-07-01T10:32:51Z</time>
      </trkpt>
      <trkpt lat="45.95827" lon="4.71517">
        <ele>182</ele>
        <time>2017-07-01T10:32:52Z</time>
      </trkpt>
      <trkpt lat="45.95821" lon="4.71516">
        <ele>182</ele>
        <time>2017-07-01T10:32:53Z</time>
      </trkpt>
      <trkpt lat="45.95814" lon="4.71517">
        <ele>182</ele>
        <time>2017-07-01T10:32:54Z</time>
      </trkpt>
      <trkpt lat="45.95808" lon="4.71517">
        <ele>181</ele>
        <time>2017-07-01T10:32:55Z</time>
      </trkpt>
      <trkpt lat="45.95801" lon="4.71517">
        <ele>181</ele>
        <time>2017-07-01T10:32:56Z</time>
      </trkpt>
      <trkpt lat="45.95794" lon="4.71517">
        <ele>181</ele>
        <time>2017-07-01T10:32:57Z</time>
      </trkpt>
      <trkpt lat="45.95787" lon="4.71516">
        <ele>181</ele>
        <time>2017-07-01T10:32:58Z</time>
      </trkpt>
      <trkpt lat="45.9578" lon="4.71516">
        <ele>181</ele>
        <time>2017-07-01T10:32:59Z</time>
      </trkpt>
      <trkpt lat="45.95772" lon="4.71515">
        <ele>181</ele>
        <time>2017-07-01T10:33:00Z</time>
      </trkpt>
      <trkpt lat="45.95765" lon="4.71514">
        <ele>181</ele>
        <time>2017-07-01T10:33:01Z</time>
      </trkpt>
      <trkpt lat="45.95757" lon="4.71514">
        <ele>181</ele>
        <time>2017-07-01T10:33:02Z</time>
      </trkpt>
      <trkpt lat="45.9575" lon="4.71513">
        <ele>181</ele>
        <time>2017-07-01T10:33:03Z</time>
      </trkpt>
      <trkpt lat="45.95743" lon="4.71512">
        <ele>181</ele>
        <time>2017-07-01T10:33:04Z</time>
      </trkpt>
      <trkpt lat="45.95736" lon="4.71512">
        <ele>181</ele>
        <time>2017-07-01T10:33:05Z</time>
      </trkpt>
      <trkpt lat="45.95728" lon="4.71511">
        <ele>181</ele>
        <time>2017-07-01T10:33:06Z</time>
      </trkpt>
      <trkpt lat="45.95721" lon="4.71511">
        <ele>180</ele>
        <time>2017-07-01T10:33:07Z</time>
      </trkpt>
      <trkpt lat="45.95713" lon="4.7151">
        <ele>180</ele>
        <time>2017-07-01T10:33:08Z</time>
      </trkpt>
      <trkpt lat="45.95706" lon="4.71509">
        <ele>180</ele>
        <time>2017-07-01T10:33:09Z</time>
      </trkpt>
      <trkpt lat="45.95698" lon="4.71509">
        <ele>180</ele>
        <time>2017-07-01T10:33:10Z</time>
      </trkpt>
      <trkpt lat="45.95691" lon="4.71508">
        <ele>181</ele>
        <time>2017-07-01T10:33:11Z</time>
      </trkpt>
      <trkpt lat="45.95684" lon="4.71508">
        <ele>181</ele>
        <time>2017-07-01T10:33:12Z</time>
      </trkpt>
      <trkpt lat="45.95677" lon="4.71507">
        <ele>181</ele>
        <time>2017-07-01T10:33:13Z</time>
      </trkpt>
      <trkpt lat="45.95669" lon="4.71507">
        <ele>181</ele>
        <time>2017-07-01T10:33:14Z</time>
      </trkpt>
      <trkpt lat="45.95662" lon="4.71507">
        <ele>181</ele>
        <time>2017-07-01T10:33:15Z</time>
      </trkpt>
      <trkpt lat="45.95654" lon="4.71506">
        <ele>181</ele>
        <time>2017-07-01T10:33:16Z</time>
      </trkpt>
      <trkpt lat="45.95646" lon="4.71506">
        <ele>180</ele>
        <time>2017-07-01T10:33:17Z</time>
      </trkpt>
      <trkpt lat="45.95639" lon="4.71505">
        <ele>180</ele>
        <time>2017-07-01T10:33:18Z</time>
      </trkpt>
      <trkpt lat="45.95631" lon="4.71505">
        <ele>180</ele>
        <time>2017-07-01T10:33:19Z</time>
      </trkpt>
      <trkpt lat="45.95623" lon="4.71504">
        <ele>180</ele>
        <time>2017-07-01T10:33:20Z</time>
      </trkpt>
      <trkpt lat="45.95615" lon="4.71504">
        <ele>179</ele>
        <time>2017-07-01T10:33:21Z</time>
      </trkpt>
      <trkpt lat="45.95607" lon="4.71503">
        <ele>179</ele>
        <time>2017-07-01T10:33:22Z</time>
      </trkpt>
      <trkpt lat="45.956" lon="4.71503">
        <ele>180</ele>
        <time>2017-07-01T10:33:23Z</time>
      </trkpt>
      <trkpt lat="45.95592" lon="4.71503">
        <ele>180</ele>
        <time>2017-07-01T10:33:24Z</time>
      </trkpt>
      <trkpt lat="45.95584" lon="4.71503">
        <ele>180</ele>
        <time>2017-07-01T10:33:25Z</time>
      </trkpt>
      <trkpt lat="45.95577" lon="4.71502">
        <ele>179</ele>
        <time>2017-07-01T10:33:26Z</time>
      </trkpt>
      <trkpt lat="45.95569" lon="4.71502">
        <ele>179</ele>
        <time>2017-07-01T10:33:27Z</time>
      </trkpt>
      <trkpt lat="45.95562" lon="4.71501">
        <ele>178</ele>
        <time>2017-07-01T10:33:28Z</time>
      </trkpt>
      <trkpt lat="45.95555" lon="4.715">
        <ele>178</ele>
        <time>2017-07-01T10:33:29Z</time>
      </trkpt>
      <trkpt lat="45.95547" lon="4.715">
        <ele>178</ele>
        <time>2017-07-01T10:33:30Z</time>
      </trkpt>
      <trkpt lat="45.9554" lon="4.715">
        <ele>179</ele>
        <time>2017-07-01T10:33:31Z</time>
      </trkpt>
      <trkpt lat="45.95532" lon="4.71499">
        <ele>179</ele>
        <time>2017-07-01T10:33:32Z</time>
      </trkpt>
      <trkpt lat="45.95525" lon="4.71499">
        <ele>178</ele>
        <time>2017-07-01T10:33:33Z</time>
      </trkpt>
      <trkpt lat="45.95518" lon="4.71499">
        <ele>178</ele>
        <time>2017-07-01T10:33:34Z</time>
      </trkpt>
      <trkpt lat="45.95511" lon="4.71498">
        <ele>178</ele>
        <time>2017-07-01T10:33:35Z</time>
      </trkpt>
      <trkpt lat="45.95504" lon="4.71498">
        <ele>177</ele>
        <time>2017-07-01T10:33:36Z</time>
      </trkpt>
      <trkpt lat="45.95497" lon="4.71497">
        <ele>177</ele>
        <time>2017-07-01T10:33:37Z</time>
      </trkpt>
      <trkpt lat="45.9549" lon="4.71497">
        <ele>177</ele>
        <time>2017-07-01T10:33:38Z</time>
      </trkpt>
      <trkpt lat="45.95482" lon="4.71497">
        <ele>177</ele>
        <time>2017-07-01T10:33:39Z</time>
      </trkpt>
      <trkpt lat="45.95475" lon="4.71497">
        <ele>176</ele>
        <time>2017-07-01T10:33:40Z</time>
      </trkpt>
      <trkpt lat="45.95467" lon="4.71497">
        <ele>176</ele>
        <time>2017-07-01T10:33:41Z</time>
      </trkpt>
      <trkpt lat="45.9546" lon="4.71496">
        <ele>176</ele>
        <time>2017-07-01T10:33:42Z</time>
      </trkpt>
      <trkpt lat="45.95452" lon="4.71496">
        <ele>176</ele>
        <time>2017-07-01T10:33:43Z</time>
      </trkpt>
      <trkpt lat="45.95444" lon="4.71496">
        <ele>176</ele>
        <time>2017-07-01T10:33:44Z</time>
      </trkpt>
      <trkpt lat="45.95435" lon="4.71495">
        <ele>175</ele>
        <time>2017-07-01T10:33:45Z</time>
      </trkpt>
      <trkpt lat="45.95427" lon="4.71494">
        <ele>175</ele>
        <time>2017-07-01T10:33:46Z</time>
      </trkpt>
      <trkpt lat="45.95419" lon="4.71494">
        <ele>175</ele>
        <time>2017-07-01T10:33:47Z</time>
      </trkpt>
      <trkpt lat="45.95412" lon="4.71493">
        <ele>174</ele>
        <time>2017-07-01T10:33:48Z</time>
      </trkpt>
      <trkpt lat="45.95404" lon="4.71491">
        <ele>175</ele>
        <time>2017-07-01T10:33:49Z</time>
      </trkpt>
      <trkpt lat="45.95396" lon="4.7149">
        <ele>175</ele>
        <time>2017-07-01T10:33:50Z</time>
      </trkpt>
      <trkpt lat="45.95388" lon="4.71489">
        <ele>175</ele>
        <time>2017-07-01T10:33:51Z</time>
      </trkpt>
      <trkpt lat="45.95381" lon="4.71488">
        <ele>175</ele>
        <time>2017-07-01T10:33:52Z</time>
      </trkpt>
      <trkpt lat="45.95373" lon="4.71487">
        <ele>175</ele>
        <time>2017-07-01T10:33:53Z</time>
      </trkpt>
      <trkpt lat="45.95366" lon="4.71486">
        <ele>175</ele>
        <time>2017-07-01T10:33:54Z</time>
      </trkpt>
      <trkpt lat="45.95359" lon="4.71485">
        <ele>175</ele>
        <time>2017-07-01T10:33:55Z</time>
      </trkpt>
      <trkpt lat="45.95352" lon="4.71484">
        <ele>175</ele>
        <time>2017-07-01T10:33:56Z</time>
      </trkpt>
      <trkpt lat="45.95346" lon="4.71484">
        <ele>175</ele>
        <time>2017-07-01T10:33:57Z</time>
      </trkpt>
      <trkpt lat="45.95339" lon="4.71483">
        <ele>175</ele>
        <time>2017-07-01T10:33:58Z</time>
      </trkpt>
      <trkpt lat="45.95332" lon="4.71482">
        <ele>175</ele>
        <time>2017-07-01T10:33:59Z</time>
      </trkpt>
      <trkpt lat="45.95326" lon="4.71482">
        <ele>175</ele>
        <time>2017-07-01T10:34:00Z</time>
      </trkpt>
      <trkpt lat="45.9532" lon="4.71482">
        <ele>175</ele>
        <time>2017-07-01T10:34:01Z</time>
      </trkpt>
      <trkpt lat="45.95313" lon="4.71481">
        <ele>175</ele>
        <time>2017-07-01T10:34:02Z</time>
      </trkpt>
      <trkpt lat="45.95306" lon="4.7148">
        <ele>175</ele>
        <time>2017-07-01T10:34:03Z</time>
      </trkpt>
      <trkpt lat="45.953" lon="4.7148">
        <ele>176</ele>
        <time>2017-07-01T10:34:04Z</time>
      </trkpt>
      <trkpt lat="45.95294" lon="4.7148">
        <ele>176</ele>
        <time>2017-07-01T10:34:05Z</time>
      </trkpt>
      <trkpt lat="45.95287" lon="4.71479">
        <ele>176</ele>
        <time>2017-07-01T10:34:06Z</time>
      </trkpt>
      <trkpt lat="45.9528" lon="4.71479">
        <ele>176</ele>
        <time>2017-07-01T10:34:07Z</time>
      </trkpt>
      <trkpt lat="45.95274" lon="4.71478">
        <ele>176</ele>
        <time>2017-07-01T10:34:08Z</time>
      </trkpt>
      <trkpt lat="45.95267" lon="4.71478">
        <ele>176</ele>
        <time>2017-07-01T10:34:09Z</time>
      </trkpt>
      <trkpt lat="45.9526" lon="4.71477">
        <ele>176</ele>
        <time>2017-07-01T10:34:10Z</time>
      </trkpt>
      <trkpt lat="45.95254" lon="4.71477">
        <ele>176</ele>
        <time>2017-07-01T10:34:11Z</time>
      </trkpt>
      <trkpt lat="45.95248" lon="4.71477">
        <ele>177</ele>
        <time>2017-07-01T10:34:12Z</time>
      </trkpt>
      <trkpt lat="45.95242" lon="4.71476">
        <ele>177</ele>
        <time>2017-07-01T10:34:13Z</time>
      </trkpt>
      <trkpt lat="45.95236" lon="4.71475">
        <ele>177</ele>
        <time>2017-07-01T10:34:14Z</time>
      </trkpt>
      <trkpt lat="45.9523" lon="4.71475">
        <ele>177</ele>
        <time>2017-07-01T10:34:15Z</time>
      </trkpt>
      <trkpt lat="45.95224" lon="4.71474">
        <ele>177</ele>
        <time>2017-07-01T10:34:16Z</time>
      </trkpt>
      <trkpt lat="45.95218" lon="4.71473">
        <ele>177</ele>
        <time>2017-07-01T10:34:17Z</time>
      </trkpt>
      <trkpt lat="45.95212" lon="4.71472">
        <ele>177</ele>
        <time>2017-07-01T10:34:18Z</time>
      </trkpt>
      <trkpt lat="45.95206" lon="4.71472">
        <ele>177</ele>
        <time>2017-07-01T10:34:19Z</time>
      </trkpt>
      <trkpt lat="45.95201" lon="4.71471">
        <ele>177</ele>
        <time>2017-07-01T10:34:20Z</time>
      </trkpt>
      <trkpt lat="45.95195" lon="4.71471">
        <ele>177</ele>
        <time>2017-07-01T10:34:21Z</time>
      </trkpt>
      <trkpt lat="45.95189" lon="4.7147">
        <ele>177</ele>
        <time>2017-07-01T10:34:22Z</time>
      </trkpt>
      <trkpt lat="45.95182" lon="4.71469">
        <ele>177</ele>
        <time>2017-07-01T10:34:23Z</time>
      </trkpt>
      <trkpt lat="45.95176" lon="4.71469">
        <ele>177</ele>
        <time>2017-07-01T10:34:24Z</time>
      </trkpt>
      <trkpt lat="45.9517" lon="4.71468">
        <ele>177</ele>
        <time>2017-07-01T10:34:25Z</time>
      </trkpt>
      <trkpt lat="45.95164" lon="4.71468">
        <ele>178</ele>
        <time>2017-07-01T10:34:26Z</time>
      </trkpt>
      <trkpt lat="45.95158" lon="4.71468">
        <ele>178</ele>
        <time>2017-07-01T10:34:27Z</time>
      </trkpt>
      <trkpt lat="45.95152" lon="4.71467">
        <ele>178</ele>
        <time>2017-07-01T10:34:28Z</time>
      </trkpt>
      <trkpt lat="45.95146" lon="4.71466">
        <ele>178</ele>
        <time>2017-07-01T10:34:29Z</time>
      </trkpt>
      <trkpt lat="45.95141" lon="4.71466">
        <ele>178</ele>
        <time>2017-07-01T10:34:30Z</time>
      </trkpt>
      <trkpt lat="45.95136" lon="4.71466">
        <ele>178</ele>
        <time>2017-07-01T10:34:31Z</time>
      </trkpt>
      <trkpt lat="45.9513" lon="4.71465">
        <ele>178</ele>
        <time>2017-07-01T10:34:32Z</time>
      </trkpt>
      <trkpt lat="45.95124" lon="4.71465">
        <ele>178</ele>
        <time>2017-07-01T10:34:33Z</time>
      </trkpt>
      <trkpt lat="45.95119" lon="4.71465">
        <ele>179</ele>
        <time>2017-07-01T10:34:34Z</time>
      </trkpt>
      <trkpt lat="45.95115" lon="4.71465">
        <ele>179</ele>
        <time>2017-07-01T10:34:35Z</time>
      </trkpt>
      <trkpt lat="45.9511" lon="4.71465">
        <ele>179</ele>
        <time>2017-07-01T10:34:36Z</time>
      </trkpt>
      <trkpt lat="45.95105" lon="4.71465">
        <ele>179</ele>
        <time>2017-07-01T10:34:37Z</time>
      </trkpt>
      <trkpt lat="45.95101" lon="4.71465">
        <ele>179</ele>
        <time>2017-07-01T10:34:38Z</time>
      </trkpt>
      <trkpt lat="45.95096" lon="4.71465">
        <ele>179</ele>
        <time>2017-07-01T10:34:39Z</time>
      </trkpt>
      <trkpt lat="45.95091" lon="4.71465">
        <ele>179</ele>
        <time>2017-07-01T10:34:40Z</time>
      </trkpt>
      <trkpt lat="45.95086" lon="4.71465">
        <ele>179</ele>
        <time>2017-07-01T10:34:41Z</time>
      </trkpt>
      <trkpt lat="45.95082" lon="4.71465">
        <ele>181</ele>
        <time>2017-07-01T10:34:42Z</time>
      </trkpt>
      <trkpt lat="45.95077" lon="4.71465">
        <ele>181</ele>
        <time>2017-07-01T10:34:43Z</time>
      </trkpt>
      <trkpt lat="45.95072" lon="4.71465">
        <ele>181</ele>
        <time>2017-07-01T10:34:44Z</time>
      </trkpt>
      <trkpt lat="45.95067" lon="4.71465">
        <ele>181</ele>
        <time>2017-07-01T10:34:45Z</time>
      </trkpt>
      <trkpt lat="45.95062" lon="4.71465">
        <ele>181</ele>
        <time>2017-07-01T10:34:46Z</time>
      </trkpt>
      <trkpt lat="45.95053" lon="4.71464">
        <ele>181</ele>
        <time>2017-07-01T10:34:48Z</time>
      </trkpt>
      <trkpt lat="45.95049" lon="4.71463">
        <ele>181</ele>
        <time>2017-07-01T10:34:49Z</time>
      </trkpt>
      <trkpt lat="45.9504" lon="4.71463">
        <ele>182</ele>
        <time>2017-07-01T10:34:51Z</time>
      </trkpt>
      <trkpt lat="45.95036" lon="4.71462">
        <ele>182</ele>
        <time>2017-07-01T10:34:52Z</time>
      </trkpt>
      <trkpt lat="45.95031" lon="4.71462">
        <ele>182</ele>
        <time>2017-07-01T10:34:53Z</time>
      </trkpt>
      <trkpt lat="45.95026" lon="4.71462">
        <ele>182</ele>
        <time>2017-07-01T10:34:54Z</time>
      </trkpt>
      <trkpt lat="45.95019" lon="4.71461">
        <ele>182</ele>
        <time>2017-07-01T10:34:56Z</time>
      </trkpt>
      <trkpt lat="45.95014" lon="4.7146">
        <ele>182</ele>
        <time>2017-07-01T10:34:57Z</time>
      </trkpt>
      <trkpt lat="45.95006" lon="4.71459">
        <ele>182</ele>
        <time>2017-07-01T10:34:59Z</time>
      </trkpt>
      <trkpt lat="45.95002" lon="4.71458">
        <ele>182</ele>
        <time>2017-07-01T10:35:00Z</time>
      </trkpt>
      <trkpt lat="45.94996" lon="4.71451">
        <ele>184</ele>
        <time>2017-07-01T10:35:02Z</time>
      </trkpt>
      <trkpt lat="45.94993" lon="4.71446">
        <ele>184</ele>
        <time>2017-07-01T10:35:03Z</time>
      </trkpt>
      <trkpt lat="45.94988" lon="4.71437">
        <ele>185</ele>
        <time>2017-07-01T10:35:05Z</time>
      </trkpt>
      <trkpt lat="45.94985" lon="4.71433">
        <ele>185</ele>
        <time>2017-07-01T10:35:06Z</time>
      </trkpt>
      <trkpt lat="45.94979" lon="4.71429">
        <ele>185</ele>
        <time>2017-07-01T10:35:08Z</time>
      </trkpt>
      <trkpt lat="45.94975" lon="4.71429">
        <ele>185</ele>
        <time>2017-07-01T10:35:09Z</time>
      </trkpt>
      <trkpt lat="45.94967" lon="4.71431">
        <ele>185</ele>
        <time>2017-07-01T10:35:11Z</time>
      </trkpt>
      <trkpt lat="45.94963" lon="4.71434">
        <ele>184</ele>
        <time>2017-07-01T10:35:12Z</time>
      </trkpt>
      <trkpt lat="45.94959" lon="4.71438">
        <ele>184</ele>
        <time>2017-07-01T10:35:13Z</time>
      </trkpt>
      <trkpt lat="45.94956" lon="4.71442">
        <ele>184</ele>
        <time>2017-07-01T10:35:14Z</time>
      </trkpt>
      <trkpt lat="45.94952" lon="4.71446">
        <ele>184</ele>
        <time>2017-07-01T10:35:15Z</time>
      </trkpt>
      <trkpt lat="45.94948" lon="4.7145">
        <ele>184</ele>
        <time>2017-07-01T10:35:16Z</time>
      </trkpt>
      <trkpt lat="45.94944" lon="4.71453">
        <ele>184</ele>
        <time>2017-07-01T10:35:17Z</time>
      </trkpt>
      <trkpt lat="45.9494" lon="4.71454">
        <ele>184</ele>
        <time>2017-07-01T10:35:18Z</time>
      </trkpt>
      <trkpt lat="45.94935" lon="4.71455">
        <ele>184</ele>
        <time>2017-07-01T10:35:19Z</time>
      </trkpt>
      <trkpt lat="45.9493" lon="4.71455">
        <ele>184</ele>
        <time>2017-07-01T10:35:20Z</time>
      </trkpt>
      <trkpt lat="45.94921" lon="4.71456">
        <ele>184</ele>
        <time>2017-07-01T10:35:22Z</time>
      </trkpt>
      <trkpt lat="45.94917" lon="4.71456">
        <ele>184</ele>
        <time>2017-07-01T10:35:23Z</time>
      </trkpt>
      <trkpt lat="45.94912" lon="4.71456">
        <ele>184</ele>
        <time>2017-07-01T10:35:24Z</time>
      </trkpt>
      <trkpt lat="45.94907" lon="4.71456">
        <ele>184</ele>
        <time>2017-07-01T10:35:25Z</time>
      </trkpt>
      <trkpt lat="45.94902" lon="4.71456">
        <ele>184</ele>
        <time>2017-07-01T10:35:26Z</time>
      </trkpt>
      <trkpt lat="45.94897" lon="4.71455">
        <ele>184</ele>
        <time>2017-07-01T10:35:27Z</time>
      </trkpt>
      <trkpt lat="45.94892" lon="4.71455">
        <ele>184</ele>
        <time>2017-07-01T10:35:28Z</time>
      </trkpt>
      <trkpt lat="45.94886" lon="4.71454">
        <ele>184</ele>
        <time>2017-07-01T10:35:29Z</time>
      </trkpt>
      <trkpt lat="45.94878" lon="4.71451">
        <ele>184</ele>
        <time>2017-07-01T10:35:31Z</time>
      </trkpt>
      <trkpt lat="45.94875" lon="4.7145">
        <ele>184</ele>
        <time>2017-07-01T10:35:32Z</time>
      </trkpt>
      <trkpt lat="45.94866" lon="4.71448">
        <ele>184</ele>
        <time>2017-07-01T10:35:34Z</time>
      </trkpt>
      <trkpt lat="45.94861" lon="4.71447">
        <ele>184</ele>
        <time>2017-07-01T10:35:35Z</time>
      </trkpt>
      <trkpt lat="45.94856" lon="4.71447">
        <ele>184</ele>
        <time>2017-07-01T10:35:36Z</time>
      </trkpt>
      <trkpt lat="45.94851" lon="4.71446">
        <ele>184</ele>
        <time>2017-07-01T10:35:37Z</time>
      </trkpt>
      <trkpt lat="45.94846" lon="4.71446">
        <ele>184</ele>
        <time>2017-07-01T10:35:38Z</time>
      </trkpt>
      <trkpt lat="45.94841" lon="4.71446">
        <ele>184</ele>
        <time>2017-07-01T10:35:39Z</time>
      </trkpt>
      <trkpt lat="45.94836" lon="4.71445">
        <ele>184</ele>
        <time>2017-07-01T10:35:40Z</time>
      </trkpt>
      <trkpt lat="45.94832" lon="4.71445">
        <ele>184</ele>
        <time>2017-07-01T10:35:41Z</time>
      </trkpt>
      <trkpt lat="45.94823" lon="4.71444">
        <ele>184</ele>
        <time>2017-07-01T10:35:43Z</time>
      </trkpt>
      <trkpt lat="45.94818" lon="4.71443">
        <ele>184</ele>
        <time>2017-07-01T10:35:44Z</time>
      </trkpt>
      <trkpt lat="45.94814" lon="4.71442">
        <ele>184</ele>
        <time>2017-07-01T10:35:45Z</time>
      </trkpt>
      <trkpt lat="45.94809" lon="4.71442">
        <ele>184</ele>
        <time>2017-07-01T10:35:46Z</time>
      </trkpt>
      <trkpt lat="45.94804" lon="4.71442">
        <ele>184</ele>
        <time>2017-07-01T10:35:47Z</time>
      </trkpt>
      <trkpt lat="45.94799" lon="4.71441">
        <ele>184</ele>
        <time>2017-07-01T10:35:48Z</time>
      </trkpt>
      <trkpt lat="45.94794" lon="4.71441">
        <ele>184</ele>
        <time>2017-07-01T10:35:49Z</time>
      </trkpt>
      <trkpt lat="45.94788" lon="4.7144">
        <ele>184</ele>
        <time>2017-07-01T10:35:50Z</time>
      </trkpt>
      <trkpt lat="45.94782" lon="4.71439">
        <ele>184</ele>
        <time>2017-07-01T10:35:51Z</time>
      </trkpt>
      <trkpt lat="45.94775" lon="4.71439">
        <ele>184</ele>
        <time>2017-07-01T10:35:52Z</time>
      </trkpt>
      <trkpt lat="45.94768" lon="4.71439">
        <ele>184</ele>
        <time>2017-07-01T10:35:53Z</time>
      </trkpt>
      <trkpt lat="45.94762" lon="4.71439">
        <ele>184</ele>
        <time>2017-07-01T10:35:54Z</time>
      </trkpt>
      <trkpt lat="45.94756" lon="4.71439">
        <ele>184</ele>
        <time>2017-07-01T10:35:55Z</time>
      </trkpt>
      <trkpt lat="45.9475" lon="4.71439">
        <ele>183</ele>
        <time>2017-07-01T10:35:56Z</time>
      </trkpt>
      <trkpt lat="45.94743" lon="4.71439">
        <ele>183</ele>
        <time>2017-07-01T10:35:57Z</time>
      </trkpt>
      <trkpt lat="45.94737" lon="4.71439">
        <ele>183</ele>
        <time>2017-07-01T10:35:58Z</time>
      </trkpt>
      <trkpt lat="45.94731" lon="4.71439">
        <ele>183</ele>
        <time>2017-07-01T10:35:59Z</time>
      </trkpt>
      <trkpt lat="45.94724" lon="4.71439">
        <ele>183</ele>
        <time>2017-07-01T10:36:00Z</time>
      </trkpt>
      <trkpt lat="45.94717" lon="4.71438">
        <ele>182</ele>
        <time>2017-07-01T10:36:01Z</time>
      </trkpt>
      <trkpt lat="45.94711" lon="4.71437">
        <ele>182</ele>
        <time>2017-07-01T10:36:02Z</time>
      </trkpt>
      <trkpt lat="45.94706" lon="4.71437">
        <ele>182</ele>
        <time>2017-07-01T10:36:03Z</time>
      </trkpt>
      <trkpt lat="45.94702" lon="4.71437">
        <ele>182</ele>
        <time>2017-07-01T10:36:04Z</time>
      </trkpt>
      <trkpt lat="45.94694" lon="4.71438">
        <ele>182</ele>
        <time>2017-07-01T10:36:06Z</time>
      </trkpt>
      <trkpt lat="45.94689" lon="4.71436">
        <ele>182</ele>
        <time>2017-07-01T10:36:07Z</time>
      </trkpt>
      <trkpt lat="45.94684" lon="4.71436">
        <ele>182</ele>
        <time>2017-07-01T10:36:08Z</time>
      </trkpt>
      <trkpt lat="45.9468" lon="4.71436">
        <ele>182</ele>
        <time>2017-07-01T10:36:09Z</time>
      </trkpt>
      <trkpt lat="45.94675" lon="4.71436">
        <ele>182</ele>
        <time>2017-07-01T10:36:10Z</time>
      </trkpt>
      <trkpt lat="45.94669" lon="4.71435">
        <ele>183</ele>
        <time>2017-07-01T10:36:11Z</time>
      </trkpt>
      <trkpt lat="45.94664" lon="4.71435">
        <ele>182</ele>
        <time>2017-07-01T10:36:12Z</time>
      </trkpt>
      <trkpt lat="45.94658" lon="4.71435">
        <ele>182</ele>
        <time>2017-07-01T10:36:13Z</time>
      </trkpt>
      <trkpt lat="45.94652" lon="4.71435">
        <ele>182</ele>
        <time>2017-07-01T10:36:14Z</time>
      </trkpt>
      <trkpt lat="45.94647" lon="4.71435">
        <ele>182</ele>
        <time>2017-07-01T10:36:15Z</time>
      </trkpt>
      <trkpt lat="45.94641" lon="4.71435">
        <ele>182</ele>
        <time>2017-07-01T10:36:16Z</time>
      </trkpt>
      <trkpt lat="45.94636" lon="4.71435">
        <ele>182</ele>
        <time>2017-07-01T10:36:17Z</time>
      </trkpt>
      <trkpt lat="45.94631" lon="4.71434">
        <ele>182</ele>
        <time>2017-07-01T10:36:18Z</time>
      </trkpt>
      <trkpt lat="45.94626" lon="4.71434">
        <ele>182</ele>
        <time>2017-07-01T10:36:19Z</time>
      </trkpt>
      <trkpt lat="45.94621" lon="4.71434">
        <ele>182</ele>
        <time>2017-07-01T10:36:20Z</time>
      </trkpt>
      <trkpt lat="45.94616" lon="4.71434">
        <ele>182</ele>
        <time>2017-07-01T10:36:21Z</time>
      </trkpt>
      <trkpt lat="45.94611" lon="4.71434">
        <ele>182</ele>
        <time>2017-07-01T10:36:22Z</time>
      </trkpt>
      <trkpt lat="45.94606" lon="4.71433">
        <ele>182</ele>
        <time>2017-07-01T10:36:23Z</time>
      </trkpt>
      <trkpt lat="45.94601" lon="4.71433">
        <ele>182</ele>
        <time>2017-07-01T10:36:24Z</time>
      </trkpt>
      <trkpt lat="45.94596" lon="4.71433">
        <ele>182</ele>
        <time>2017-07-01T10:36:25Z</time>
      </trkpt>
      <trkpt lat="45.94591" lon="4.71433">
        <ele>183</ele>
        <time>2017-07-01T10:36:26Z</time>
      </trkpt>
      <trkpt lat="45.94585" lon="4.71433">
        <ele>183</ele>
        <time>2017-07-01T10:36:27Z</time>
      </trkpt>
      <trkpt lat="45.94579" lon="4.71433">
        <ele>182</ele>
        <time>2017-07-01T10:36:28Z</time>
      </trkpt>
      <trkpt lat="45.94573" lon="4.71434">
        <ele>182</ele>
        <time>2017-07-01T10:36:29Z</time>
      </trkpt>
      <trkpt lat="45.94567" lon="4.71434">
        <ele>182</ele>
        <time>2017-07-01T10:36:30Z</time>
      </trkpt>
      <trkpt lat="45.94562" lon="4.71436">
        <ele>181</ele>
        <time>2017-07-01T10:36:31Z</time>
      </trkpt>
      <trkpt lat="45.94556" lon="4.71437">
        <ele>181</ele>
        <time>2017-07-01T10:36:32Z</time>
      </trkpt>
      <trkpt lat="45.9455" lon="4.71439">
        <ele>181</ele>
        <time>2017-07-01T10:36:33Z</time>
      </trkpt>
      <trkpt lat="45.94542" lon="4.71441">
        <ele>181</ele>
        <time>2017-07-01T10:36:34Z</time>
      </trkpt>
      <trkpt lat="45.94535" lon="4.71444">
        <ele>181</ele>
        <time>2017-07-01T10:36:35Z</time>
      </trkpt>
      <trkpt lat="45.94529" lon="4.71446">
        <ele>180</ele>
        <time>2017-07-01T10:36:36Z</time>
      </trkpt>
      <trkpt lat="45.94523" lon="4.71449">
        <ele>180</ele>
        <time>2017-07-01T10:36:37Z</time>
      </trkpt>
      <trkpt lat="45.94516" lon="4.71451">
        <ele>180</ele>
        <time>2017-07-01T10:36:38Z</time>
      </trkpt>
      <trkpt lat="45.9451" lon="4.71454">
        <ele>180</ele>
        <time>2017-07-01T10:36:39Z</time>
      </trkpt>
      <trkpt lat="45.94504" lon="4.71456">
        <ele>180</ele>
        <time>2017-07-01T10:36:40Z</time>
      </trkpt>
      <trkpt lat="45.94498" lon="4.71459">
        <ele>179</ele>
        <time>2017-07-01T10:36:41Z</time>
      </trkpt>
      <trkpt lat="45.94491" lon="4.71462">
        <ele>179</ele>
        <time>2017-07-01T10:36:42Z</time>
      </trkpt>
      <trkpt lat="45.94483" lon="4.71464">
        <ele>179</ele>
        <time>2017-07-01T10:36:43Z</time>
      </trkpt>
      <trkpt lat="45.94476" lon="4.71467">
        <ele>179</ele>
        <time>2017-07-01T10:36:44Z</time>
      </trkpt>
      <trkpt lat="45.94469" lon="4.71469">
        <ele>179</ele>
        <time>2017-07-01T10:36:45Z</time>
      </trkpt>
      <trkpt lat="45.94462" lon="4.71472">
        <ele>179</ele>
        <time>2017-07-01T10:36:46Z</time>
      </trkpt>
      <trkpt lat="45.94455" lon="4.71474">
        <ele>179</ele>
        <time>2017-07-01T10:36:47Z</time>
      </trkpt>
      <trkpt lat="45.94448" lon="4.71477">
        <ele>179</ele>
        <time>2017-07-01T10:36:48Z</time>
      </trkpt>
      <trkpt lat="45.94441" lon="4.71479">
        <ele>179</ele>
        <time>2017-07-01T10:36:49Z</time>
      </trkpt>
      <trkpt lat="45.94434" lon="4.71482">
        <ele>179</ele>
        <time>2017-07-01T10:36:50Z</time>
      </trkpt>
      <trkpt lat="45.94426" lon="4.71485">
        <ele>178</ele>
        <time>2017-07-01T10:36:51Z</time>
      </trkpt>
      <trkpt lat="45.94418" lon="4.71488">
        <ele>178</ele>
        <time>2017-07-01T10:36:52Z</time>
      </trkpt>
      <trkpt lat="45.94411" lon="4.71491">
        <ele>178</ele>
        <time>2017-07-01T10:36:53Z</time>
      </trkpt>
      <trkpt lat="45.94404" lon="4.71495">
        <ele>178</ele>
        <time>2017-07-01T10:36:54Z</time>
      </trkpt>
      <trkpt lat="45.94396" lon="4.71498">
        <ele>178</ele>
        <time>2017-07-01T10:36:55Z</time>
      </trkpt>
      <trkpt lat="45.94389" lon="4.71501">
        <ele>177</ele>
        <time>2017-07-01T10:36:56Z</time>
      </trkpt>
      <trkpt lat="45.9438" lon="4.71504">
        <ele>177</ele>
        <time>2017-07-01T10:36:57Z</time>
      </trkpt>
      <trkpt lat="45.94372" lon="4.71507">
        <ele>176</ele>
        <time>2017-07-01T10:36:58Z</time>
      </trkpt>
      <trkpt lat="45.94363" lon="4.71511">
        <ele>176</ele>
        <time>2017-07-01T10:36:59Z</time>
      </trkpt>
      <trkpt lat="45.94354" lon="4.71514">
        <ele>176</ele>
        <time>2017-07-01T10:37:00Z</time>
      </trkpt>
      <trkpt lat="45.94345" lon="4.71517">
        <ele>176</ele>
        <time>2017-07-01T10:37:01Z</time>
      </trkpt>
      <trkpt lat="45.94336" lon="4.7152">
        <ele>176</ele>
        <time>2017-07-01T10:37:02Z</time>
      </trkpt>
      <trkpt lat="45.94328" lon="4.71523">
        <ele>176</ele>
        <time>2017-07-01T10:37:03Z</time>
      </trkpt>
      <trkpt lat="45.9432" lon="4.71526">
        <ele>176</ele>
        <time>2017-07-01T10:37:04Z</time>
      </trkpt>
      <trkpt lat="45.94312" lon="4.7153">
        <ele>175</ele>
        <time>2017-07-01T10:37:05Z</time>
      </trkpt>
      <trkpt lat="45.94304" lon="4.71533">
        <ele>175</ele>
        <time>2017-07-01T10:37:06Z</time>
      </trkpt>
      <trkpt lat="45.94295" lon="4.71536">
        <ele>175</ele>
        <time>2017-07-01T10:37:07Z</time>
      </trkpt>
      <trkpt lat="45.94289" lon="4.71539">
        <ele>175</ele>
        <time>2017-07-01T10:37:08Z</time>
      </trkpt>
      <trkpt lat="45.94282" lon="4.71543">
        <ele>175</ele>
        <time>2017-07-01T10:37:09Z</time>
      </trkpt>
      <trkpt lat="45.94273" lon="4.71546">
        <ele>175</ele>
        <time>2017-07-01T10:37:10Z</time>
      </trkpt>
      <trkpt lat="45.94266" lon="4.71548">
        <ele>175</ele>
        <time>2017-07-01T10:37:11Z</time>
      </trkpt>
      <trkpt lat="45.94259" lon="4.7155">
        <ele>175</ele>
        <time>2017-07-01T10:37:12Z</time>
      </trkpt>
      <trkpt lat="45.94251" lon="4.71553">
        <ele>175</ele>
        <time>2017-07-01T10:37:13Z</time>
      </trkpt>
      <trkpt lat="45.94245" lon="4.71555">
        <ele>174</ele>
        <time>2017-07-01T10:37:14Z</time>
      </trkpt>
      <trkpt lat="45.94239" lon="4.71558">
        <ele>174</ele>
        <time>2017-07-01T10:37:15Z</time>
      </trkpt>
      <trkpt lat="45.94232" lon="4.71561">
        <ele>174</ele>
        <time>2017-07-01T10:37:16Z</time>
      </trkpt>
      <trkpt lat="45.94224" lon="4.71564">
        <ele>174</ele>
        <time>2017-07-01T10:37:17Z</time>
      </trkpt>
      <trkpt lat="45.94216" lon="4.71566">
        <ele>174</ele>
        <time>2017-07-01T10:37:18Z</time>
      </trkpt>
      <trkpt lat="45.9421" lon="4.71568">
        <ele>174</ele>
        <time>2017-07-01T10:37:19Z</time>
      </trkpt>
      <trkpt lat="45.94203" lon="4.71571">
        <ele>174</ele>
        <time>2017-07-01T10:37:20Z</time>
      </trkpt>
      <trkpt lat="45.94197" lon="4.71574">
        <ele>174</ele>
        <time>2017-07-01T10:37:21Z</time>
      </trkpt>
      <trkpt lat="45.94191" lon="4.71577">
        <ele>174</ele>
        <time>2017-07-01T10:37:22Z</time>
      </trkpt>
      <trkpt lat="45.94185" lon="4.7158">
        <ele>174</ele>
        <time>2017-07-01T10:37:23Z</time>
      </trkpt>
      <trkpt lat="45.94179" lon="4.71583">
        <ele>174</ele>
        <time>2017-07-01T10:37:24Z</time>
      </trkpt>
      <trkpt lat="45.94173" lon="4.71586">
        <ele>174</ele>
        <time>2017-07-01T10:37:25Z</time>
      </trkpt>
      <trkpt lat="45.94167" lon="4.71588">
        <ele>174</ele>
        <time>2017-07-01T10:37:26Z</time>
      </trkpt>
      <trkpt lat="45.94161" lon="4.71591">
        <ele>174</ele>
        <time>2017-07-01T10:37:27Z</time>
      </trkpt>
      <trkpt lat="45.94155" lon="4.71593">
        <ele>173</ele>
        <time>2017-07-01T10:37:28Z</time>
      </trkpt>
      <trkpt lat="45.94148" lon="4.71596">
        <ele>173</ele>
        <time>2017-07-01T10:37:29Z</time>
      </trkpt>
      <trkpt lat="45.94141" lon="4.71599">
        <ele>173</ele>
        <time>2017-07-01T10:37:30Z</time>
      </trkpt>
      <trkpt lat="45.94134" lon="4.71601">
        <ele>173</ele>
        <time>2017-07-01T10:37:31Z</time>
      </trkpt>
      <trkpt lat="45.94128" lon="4.71604">
        <ele>173</ele>
        <time>2017-07-01T10:37:32Z</time>
      </trkpt>
      <trkpt lat="45.94121" lon="4.71606">
        <ele>173</ele>
        <time>2017-07-01T10:37:33Z</time>
      </trkpt>
      <trkpt lat="45.94115" lon="4.71608">
        <ele>173</ele>
        <time>2017-07-01T10:37:34Z</time>
      </trkpt>
      <trkpt lat="45.94108" lon="4.71611">
        <ele>173</ele>
        <time>2017-07-01T10:37:35Z</time>
      </trkpt>
      <trkpt lat="45.94102" lon="4.71613">
        <ele>173</ele>
        <time>2017-07-01T10:37:36Z</time>
      </trkpt>
      <trkpt lat="45.94096" lon="4.71616">
        <ele>173</ele>
        <time>2017-07-01T10:37:37Z</time>
      </trkpt>
      <trkpt lat="45.94091" lon="4.71618">
        <ele>173</ele>
        <time>2017-07-01T10:37:38Z</time>
      </trkpt>
      <trkpt lat="45.94086" lon="4.7162">
        <ele>173</ele>
        <time>2017-07-01T10:37:39Z</time>
      </trkpt>
      <trkpt lat="45.94081" lon="4.71622">
        <ele>174</ele>
        <time>2017-07-01T10:37:40Z</time>
      </trkpt>
      <trkpt lat="45.94075" lon="4.71623">
        <ele>174</ele>
        <time>2017-07-01T10:37:41Z</time>
      </trkpt>
      <trkpt lat="45.94068" lon="4.71626">
        <ele>174</ele>
        <time>2017-07-01T10:37:42Z</time>
      </trkpt>
      <trkpt lat="45.94062" lon="4.71628">
        <ele>174</ele>
        <time>2017-07-01T10:37:43Z</time>
      </trkpt>
      <trkpt lat="45.94055" lon="4.71631">
        <ele>174</ele>
        <time>2017-07-01T10:37:44Z</time>
      </trkpt>
      <trkpt lat="45.94049" lon="4.71632">
        <ele>175</ele>
        <time>2017-07-01T10:37:45Z</time>
      </trkpt>
      <trkpt lat="45.94043" lon="4.71635">
        <ele>175</ele>
        <time>2017-07-01T10:37:46Z</time>
      </trkpt>
      <trkpt lat="45.94038" lon="4.71638">
        <ele>175</ele>
        <time>2017-07-01T10:37:47Z</time>
      </trkpt>
      <trkpt lat="45.94032" lon="4.7164">
        <ele>175</ele>
        <time>2017-07-01T10:37:48Z</time>
      </trkpt>
      <trkpt lat="45.94027" lon="4.71642">
        <ele>175</ele>
        <time>2017-07-01T10:37:49Z</time>
      </trkpt>
      <trkpt lat="45.94022" lon="4.71645">
        <ele>175</ele>
        <time>2017-07-01T10:37:50Z</time>
      </trkpt>
      <trkpt lat="45.94016" lon="4.71649">
        <ele>176</ele>
        <time>2017-07-01T10:37:51Z</time>
      </trkpt>
      <trkpt lat="45.94011" lon="4.71653">
        <ele>176</ele>
        <time>2017-07-01T10:37:52Z</time>
      </trkpt>
      <trkpt lat="45.94005" lon="4.71656">
        <ele>176</ele>
        <time>2017-07-01T10:37:53Z</time>
      </trkpt>
      <trkpt lat="45.93998" lon="4.71658">
        <ele>177</ele>
        <time>2017-07-01T10:37:54Z</time>
      </trkpt>
      <trkpt lat="45.93992" lon="4.71659">
        <ele>177</ele>
        <time>2017-07-01T10:37:55Z</time>
      </trkpt>
      <trkpt lat="45.93987" lon="4.7166">
        <ele>177</ele>
        <time>2017-07-01T10:37:56Z</time>
      </trkpt>
      <trkpt lat="45.93981" lon="4.71662">
        <ele>177</ele>
        <time>2017-07-01T10:37:57Z</time>
      </trkpt>
      <trkpt lat="45.93974" lon="4.71664">
        <ele>177</ele>
        <time>2017-07-01T10:37:58Z</time>
      </trkpt>
      <trkpt lat="45.93969" lon="4.71666">
        <ele>177</ele>
        <time>2017-07-01T10:37:59Z</time>
      </trkpt>
      <trkpt lat="45.93963" lon="4.71669">
        <ele>175</ele>
        <time>2017-07-01T10:38:00Z</time>
      </trkpt>
      <trkpt lat="45.93958" lon="4.71671">
        <ele>175</ele>
        <time>2017-07-01T10:38:01Z</time>
      </trkpt>
      <trkpt lat="45.93953" lon="4.71673">
        <ele>175</ele>
        <time>2017-07-01T10:38:02Z</time>
      </trkpt>
      <trkpt lat="45.93947" lon="4.71675">
        <ele>175</ele>
        <time>2017-07-01T10:38:03Z</time>
      </trkpt>
      <trkpt lat="45.93941" lon="4.71678">
        <ele>175</ele>
        <time>2017-07-01T10:38:04Z</time>
      </trkpt>
      <trkpt lat="45.93934" lon="4.71679">
        <ele>175</ele>
        <time>2017-07-01T10:38:05Z</time>
      </trkpt>
      <trkpt lat="45.93928" lon="4.71682">
        <ele>175</ele>
        <time>2017-07-01T10:38:06Z</time>
      </trkpt>
      <trkpt lat="45.93922" lon="4.71684">
        <ele>175</ele>
        <time>2017-07-01T10:38:07Z</time>
      </trkpt>
      <trkpt lat="45.93914" lon="4.71687">
        <ele>174</ele>
        <time>2017-07-01T10:38:08Z</time>
      </trkpt>
      <trkpt lat="45.93907" lon="4.71691">
        <ele>174</ele>
        <time>2017-07-01T10:38:09Z</time>
      </trkpt>
      <trkpt lat="45.939" lon="4.71693">
        <ele>174</ele>
        <time>2017-07-01T10:38:10Z</time>
      </trkpt>
      <trkpt lat="45.93893" lon="4.71696">
        <ele>174</ele>
        <time>2017-07-01T10:38:11Z</time>
      </trkpt>
      <trkpt lat="45.93886" lon="4.71698">
        <ele>174</ele>
        <time>2017-07-01T10:38:12Z</time>
      </trkpt>
      <trkpt lat="45.9388" lon="4.71701">
        <ele>174</ele>
        <time>2017-07-01T10:38:13Z</time>
      </trkpt>
      <trkpt lat="45.93873" lon="4.71703">
        <ele>174</ele>
        <time>2017-07-01T10:38:14Z</time>
      </trkpt>
      <trkpt lat="45.93865" lon="4.71705">
        <ele>174</ele>
        <time>2017-07-01T10:38:15Z</time>
      </trkpt>
      <trkpt lat="45.93858" lon="4.71708">
        <ele>174</ele>
        <time>2017-07-01T10:38:16Z</time>
      </trkpt>
      <trkpt lat="45.93852" lon="4.71711">
        <ele>174</ele>
        <time>2017-07-01T10:38:17Z</time>
      </trkpt>
      <trkpt lat="45.93846" lon="4.71713">
        <ele>174</ele>
        <time>2017-07-01T10:38:18Z</time>
      </trkpt>
      <trkpt lat="45.9384" lon="4.71716">
        <ele>175</ele>
        <time>2017-07-01T10:38:19Z</time>
      </trkpt>
      <trkpt lat="45.93834" lon="4.71718">
        <ele>175</ele>
        <time>2017-07-01T10:38:20Z</time>
      </trkpt>
      <trkpt lat="45.93827" lon="4.7172">
        <ele>175</ele>
        <time>2017-07-01T10:38:21Z</time>
      </trkpt>
      <trkpt lat="45.93822" lon="4.71722">
        <ele>175</ele>
        <time>2017-07-01T10:38:22Z</time>
      </trkpt>
      <trkpt lat="45.93815" lon="4.71724">
        <ele>175</ele>
        <time>2017-07-01T10:38:23Z</time>
      </trkpt>
      <trkpt lat="45.9381" lon="4.71726">
        <ele>175</ele>
        <time>2017-07-01T10:38:24Z</time>
      </trkpt>
      <trkpt lat="45.93803" lon="4.71728">
        <ele>175</ele>
        <time>2017-07-01T10:38:25Z</time>
      </trkpt>
      <trkpt lat="45.93797" lon="4.7173">
        <ele>175</ele>
        <time>2017-07-01T10:38:26Z</time>
      </trkpt>
      <trkpt lat="45.93792" lon="4.71732">
        <ele>175</ele>
        <time>2017-07-01T10:38:27Z</time>
      </trkpt>
      <trkpt lat="45.93786" lon="4.71734">
        <ele>175</ele>
        <time>2017-07-01T10:38:28Z</time>
      </trkpt>
      <trkpt lat="45.93781" lon="4.71736">
        <ele>175</ele>
        <time>2017-07-01T10:38:29Z</time>
      </trkpt>
      <trkpt lat="45.93776" lon="4.71738">
        <ele>175</ele>
        <time>2017-07-01T10:38:30Z</time>
      </trkpt>
      <trkpt lat="45.93771" lon="4.71741">
        <ele>175</ele>
        <time>2017-07-01T10:38:31Z</time>
      </trkpt>
      <trkpt lat="45.93766" lon="4.71744">
        <ele>175</ele>
        <time>2017-07-01T10:38:32Z</time>
      </trkpt>
      <trkpt lat="45.9376" lon="4.71746">
        <ele>175</ele>
        <time>2017-07-01T10:38:33Z</time>
      </trkpt>
      <trkpt lat="45.93756" lon="4.71748">
        <ele>175</ele>
        <time>2017-07-01T10:38:34Z</time>
      </trkpt>
      <trkpt lat="45.93751" lon="4.71751">
        <ele>175</ele>
        <time>2017-07-01T10:38:35Z</time>
      </trkpt>
      <trkpt lat="45.93746" lon="4.71753">
        <ele>175</ele>
        <time>2017-07-01T10:38:36Z</time>
      </trkpt>
      <trkpt lat="45.93741" lon="4.71755">
        <ele>175</ele>
        <time>2017-07-01T10:38:37Z</time>
      </trkpt>
      <trkpt lat="45.93737" lon="4.71757">
        <ele>176</ele>
        <time>2017-07-01T10:38:38Z</time>
      </trkpt>
      <trkpt lat="45.9373" lon="4.71762">
        <ele>176</ele>
        <time>2017-07-01T10:38:39Z</time>
      </trkpt>
      <trkpt lat="45.93729" lon="4.71764">
        <ele>176</ele>
        <time>2017-07-01T10:38:40Z</time>
      </trkpt>
      <trkpt lat="45.93727" lon="4.71773">
        <ele>176</ele>
        <time>2017-07-01T10:38:59Z</time>
      </trkpt>
      <trkpt lat="45.93726" lon="4.71777">
        <ele>176</ele>
        <time>2017-07-01T10:39:00Z</time>
      </trkpt>
      <trkpt lat="45.93725" lon="4.71787">
        <ele>176</ele>
        <time>2017-07-01T10:39:02Z</time>
      </trkpt>
      <trkpt lat="45.93723" lon="4.71793">
        <ele>176</ele>
        <time>2017-07-01T10:39:03Z</time>
      </trkpt>
      <trkpt lat="45.93721" lon="4.718">
        <ele>176</ele>
        <time>2017-07-01T10:39:04Z</time>
      </trkpt>
      <trkpt lat="45.9372" lon="4.71808">
        <ele>176</ele>
        <time>2017-07-01T10:39:05Z</time>
      </trkpt>
      <trkpt lat="45.93718" lon="4.71815">
        <ele>176</ele>
        <time>2017-07-01T10:39:06Z</time>
      </trkpt>
      <trkpt lat="45.93716" lon="4.71823">
        <ele>176</ele>
        <time>2017-07-01T10:39:07Z</time>
      </trkpt>
      <trkpt lat="45.93712" lon="4.7183">
        <ele>176</ele>
        <time>2017-07-01T10:39:08Z</time>
      </trkpt>
      <trkpt lat="45.93708" lon="4.71836">
        <ele>175</ele>
        <time>2017-07-01T10:39:09Z</time>
      </trkpt>
      <trkpt lat="45.93702" lon="4.71842">
        <ele>175</ele>
        <time>2017-07-01T10:39:10Z</time>
      </trkpt>
      <trkpt lat="45.93699" lon="4.71849">
        <ele>175</ele>
        <time>2017-07-01T10:39:11Z</time>
      </trkpt>
      <trkpt lat="45.93694" lon="4.71857">
        <ele>175</ele>
        <time>2017-07-01T10:39:12Z</time>
      </trkpt>
      <trkpt lat="45.93691" lon="4.71865">
        <ele>175</ele>
        <time>2017-07-01T10:39:13Z</time>
      </trkpt>
      <trkpt lat="45.93689" lon="4.71871">
        <ele>175</ele>
        <time>2017-07-01T10:39:14Z</time>
      </trkpt>
      <trkpt lat="45.93686" lon="4.71877">
        <ele>175</ele>
        <time>2017-07-01T10:39:15Z</time>
      </trkpt>
      <trkpt lat="45.93681" lon="4.71887">
        <ele>175</ele>
        <time>2017-07-01T10:39:17Z</time>
      </trkpt>
      <trkpt lat="45.93678" lon="4.71893">
        <ele>175</ele>
        <time>2017-07-01T10:39:18Z</time>
      </trkpt>
      <trkpt lat="45.93675" lon="4.71898">
        <ele>175</ele>
        <time>2017-07-01T10:39:19Z</time>
      </trkpt>
      <trkpt lat="45.93672" lon="4.71905">
        <ele>175</ele>
        <time>2017-07-01T10:39:20Z</time>
      </trkpt>
      <trkpt lat="45.93668" lon="4.71916">
        <ele>175</ele>
        <time>2017-07-01T10:39:22Z</time>
      </trkpt>
      <trkpt lat="45.93666" lon="4.71922">
        <ele>175</ele>
        <time>2017-07-01T10:39:23Z</time>
      </trkpt>
      <trkpt lat="45.93658" lon="4.71927">
        <ele>175</ele>
        <time>2017-07-01T10:39:24Z</time>
      </trkpt>
      <trkpt lat="45.93655" lon="4.71932">
        <ele>175</ele>
        <time>2017-07-01T10:39:25Z</time>
      </trkpt>
      <trkpt lat="45.93653" lon="4.71938">
        <ele>175</ele>
        <time>2017-07-01T10:39:26Z</time>
      </trkpt>
      <trkpt lat="45.93651" lon="4.71944">
        <ele>175</ele>
        <time>2017-07-01T10:39:27Z</time>
      </trkpt>
      <trkpt lat="45.93649" lon="4.71951">
        <ele>175</ele>
        <time>2017-07-01T10:39:28Z</time>
      </trkpt>
      <trkpt lat="45.93646" lon="4.71959">
        <ele>175</ele>
        <time>2017-07-01T10:39:29Z</time>
      </trkpt>
      <trkpt lat="45.93644" lon="4.71967">
        <ele>175</ele>
        <time>2017-07-01T10:39:30Z</time>
      </trkpt>
      <trkpt lat="45.9364" lon="4.71976">
        <ele>175</ele>
        <time>2017-07-01T10:39:31Z</time>
      </trkpt>
      <trkpt lat="45.93637" lon="4.71984">
        <ele>175</ele>
        <time>2017-07-01T10:39:32Z</time>
      </trkpt>
      <trkpt lat="45.93634" lon="4.71992">
        <ele>175</ele>
        <time>2017-07-01T10:39:33Z</time>
      </trkpt>
      <trkpt lat="45.93632" lon="4.72">
        <ele>175</ele>
        <time>2017-07-01T10:39:34Z</time>
      </trkpt>
      <trkpt lat="45.9363" lon="4.72007">
        <ele>175</ele>
        <time>2017-07-01T10:39:35Z</time>
      </trkpt>
      <trkpt lat="45.93627" lon="4.72015">
        <ele>175</ele>
        <time>2017-07-01T10:39:36Z</time>
      </trkpt>
      <trkpt lat="45.93622" lon="4.72023">
        <ele>175</ele>
        <time>2017-07-01T10:39:37Z</time>
      </trkpt>
      <trkpt lat="45.93619" lon="4.7203">
        <ele>175</ele>
        <time>2017-07-01T10:39:38Z</time>
      </trkpt>
      <trkpt lat="45.93616" lon="4.72036">
        <ele>175</ele>
        <time>2017-07-01T10:39:39Z</time>
      </trkpt>
      <trkpt lat="45.93612" lon="4.72042">
        <ele>175</ele>
        <time>2017-07-01T10:39:40Z</time>
      </trkpt>
      <trkpt lat="45.93608" lon="4.72049">
        <ele>175</ele>
        <time>2017-07-01T10:39:41Z</time>
      </trkpt>
      <trkpt lat="45.93605" lon="4.72055">
        <ele>175</ele>
        <time>2017-07-01T10:39:42Z</time>
      </trkpt>
      <trkpt lat="45.93602" lon="4.72062">
        <ele>175</ele>
        <time>2017-07-01T10:39:43Z</time>
      </trkpt>
      <trkpt lat="45.93598" lon="4.72068">
        <ele>175</ele>
        <time>2017-07-01T10:39:44Z</time>
      </trkpt>
      <trkpt lat="45.93596" lon="4.72075">
        <ele>175</ele>
        <time>2017-07-01T10:39:45Z</time>
      </trkpt>
      <trkpt lat="45.93594" lon="4.72082">
        <ele>175</ele>
        <time>2017-07-01T10:39:46Z</time>
      </trkpt>
      <trkpt lat="45.93591" lon="4.72089">
        <ele>175</ele>
        <time>2017-07-01T10:39:47Z</time>
      </trkpt>
      <trkpt lat="45.93588" lon="4.72095">
        <ele>175</ele>
        <time>2017-07-01T10:39:48Z</time>
      </trkpt>
      <trkpt lat="45.93585" lon="4.72101">
        <ele>175</ele>
        <time>2017-07-01T10:39:49Z</time>
      </trkpt>
      <trkpt lat="45.93584" lon="4.72107">
        <ele>174</ele>
        <time>2017-07-01T10:39:50Z</time>
      </trkpt>
      <trkpt lat="45.93581" lon="4.72113">
        <ele>175</ele>
        <time>2017-07-01T10:39:51Z</time>
      </trkpt>
      <trkpt lat="45.9358" lon="4.72119">
        <ele>175</ele>
        <time>2017-07-01T10:39:52Z</time>
      </trkpt>
      <trkpt lat="45.93578" lon="4.72126">
        <ele>174</ele>
        <time>2017-07-01T10:39:53Z</time>
      </trkpt>
      <trkpt lat="45.93576" lon="4.72132">
        <ele>174</ele>
        <time>2017-07-01T10:39:54Z</time>
      </trkpt>
      <trkpt lat="45.93574" lon="4.7214">
        <ele>174</ele>
        <time>2017-07-01T10:39:55Z</time>
      </trkpt>
      <trkpt lat="45.93573" lon="4.72149">
        <ele>174</ele>
        <time>2017-07-01T10:39:56Z</time>
      </trkpt>
      <trkpt lat="45.93571" lon="4.72158">
        <ele>174</ele>
        <time>2017-07-01T10:39:57Z</time>
      </trkpt>
      <trkpt lat="45.93567" lon="4.72167">
        <ele>173</ele>
        <time>2017-07-01T10:39:58Z</time>
      </trkpt>
      <trkpt lat="45.93564" lon="4.72177">
        <ele>173</ele>
        <time>2017-07-01T10:39:59Z</time>
      </trkpt>
      <trkpt lat="45.93559" lon="4.72186">
        <ele>173</ele>
        <time>2017-07-01T10:40:00Z</time>
      </trkpt>
      <trkpt lat="45.93557" lon="4.72197">
        <ele>173</ele>
        <time>2017-07-01T10:40:01Z</time>
      </trkpt>
      <trkpt lat="45.9355" lon="4.72206">
        <ele>173</ele>
        <time>2017-07-01T10:40:02Z</time>
      </trkpt>
      <trkpt lat="45.93545" lon="4.72214">
        <ele>172</ele>
        <time>2017-07-01T10:40:03Z</time>
      </trkpt>
      <trkpt lat="45.93542" lon="4.72222">
        <ele>172</ele>
        <time>2017-07-01T10:40:04Z</time>
      </trkpt>
      <trkpt lat="45.93538" lon="4.72228">
        <ele>172</ele>
        <time>2017-07-01T10:40:05Z</time>
      </trkpt>
      <trkpt lat="45.93536" lon="4.72235">
        <ele>172</ele>
        <time>2017-07-01T10:40:06Z</time>
      </trkpt>
      <trkpt lat="45.93533" lon="4.72242">
        <ele>172</ele>
        <time>2017-07-01T10:40:07Z</time>
      </trkpt>
      <trkpt lat="45.9353" lon="4.72249">
        <ele>172</ele>
        <time>2017-07-01T10:40:08Z</time>
      </trkpt>
      <trkpt lat="45.93527" lon="4.72258">
        <ele>172</ele>
        <time>2017-07-01T10:40:09Z</time>
      </trkpt>
      <trkpt lat="45.93524" lon="4.72265">
        <ele>172</ele>
        <time>2017-07-01T10:40:10Z</time>
      </trkpt>
      <trkpt lat="45.93521" lon="4.72273">
        <ele>172</ele>
        <time>2017-07-01T10:40:11Z</time>
      </trkpt>
      <trkpt lat="45.93518" lon="4.72281">
        <ele>172</ele>
        <time>2017-07-01T10:40:12Z</time>
      </trkpt>
      <trkpt lat="45.93514" lon="4.72288">
        <ele>172</ele>
        <time>2017-07-01T10:40:13Z</time>
      </trkpt>
      <trkpt lat="45.93511" lon="4.72295">
        <ele>172</ele>
        <time>2017-07-01T10:40:14Z</time>
      </trkpt>
      <trkpt lat="45.93507" lon="4.72302">
        <ele>172</ele>
        <time>2017-07-01T10:40:15Z</time>
      </trkpt>
      <trkpt lat="45.93503" lon="4.72308">
        <ele>173</ele>
        <time>2017-07-01T10:40:16Z</time>
      </trkpt>
      <trkpt lat="45.93498" lon="4.72315">
        <ele>173</ele>
        <time>2017-07-01T10:40:17Z</time>
      </trkpt>
      <trkpt lat="45.93494" lon="4.72322">
        <ele>173</ele>
        <time>2017-07-01T10:40:18Z</time>
      </trkpt>
      <trkpt lat="45.9349" lon="4.72328">
        <ele>173</ele>
        <time>2017-07-01T10:40:19Z</time>
      </trkpt>
      <trkpt lat="45.93485" lon="4.72335">
        <ele>173</ele>
        <time>2017-07-01T10:40:20Z</time>
      </trkpt>
      <trkpt lat="45.93481" lon="4.72342">
        <ele>173</ele>
        <time>2017-07-01T10:40:21Z</time>
      </trkpt>
      <trkpt lat="45.93477" lon="4.72349">
        <ele>173</ele>
        <time>2017-07-01T10:40:22Z</time>
      </trkpt>
      <trkpt lat="45.93472" lon="4.72355">
        <ele>173</ele>
        <time>2017-07-01T10:40:23Z</time>
      </trkpt>
      <trkpt lat="45.93467" lon="4.72361">
        <ele>173</ele>
        <time>2017-07-01T10:40:24Z</time>
      </trkpt>
      <trkpt lat="45.93463" lon="4.72367">
        <ele>173</ele>
        <time>2017-07-01T10:40:25Z</time>
      </trkpt>
      <trkpt lat="45.93459" lon="4.72372">
        <ele>173</ele>
        <time>2017-07-01T10:40:26Z</time>
      </trkpt>
      <trkpt lat="45.93454" lon="4.72378">
        <ele>173</ele>
        <time>2017-07-01T10:40:27Z</time>
      </trkpt>
      <trkpt lat="45.9345" lon="4.72382">
        <ele>173</ele>
        <time>2017-07-01T10:40:28Z</time>
      </trkpt>
      <trkpt lat="45.93446" lon="4.72386">
        <ele>173</ele>
        <time>2017-07-01T10:40:29Z</time>
      </trkpt>
      <trkpt lat="45.93441" lon="4.7239">
        <ele>173</ele>
        <time>2017-07-01T10:40:30Z</time>
      </trkpt>
      <trkpt lat="45.93435" lon="4.72397">
        <ele>173</ele>
        <time>2017-07-01T10:40:32Z</time>
      </trkpt>
      <trkpt lat="45.93428" lon="4.724">
        <ele>174</ele>
        <time>2017-07-01T10:40:33Z</time>
      </trkpt>
      <trkpt lat="45.93422" lon="4.72401">
        <ele>174</ele>
        <time>2017-07-01T10:40:34Z</time>
      </trkpt>
      <trkpt lat="45.93417" lon="4.72403">
        <ele>174</ele>
        <time>2017-07-01T10:40:35Z</time>
      </trkpt>
      <trkpt lat="45.93411" lon="4.72404">
        <ele>174</ele>
        <time>2017-07-01T10:40:36Z</time>
      </trkpt>
      <trkpt lat="45.93405" lon="4.72404">
        <ele>174</ele>
        <time>2017-07-01T10:40:37Z</time>
      </trkpt>
      <trkpt lat="45.93399" lon="4.72403">
        <ele>174</ele>
        <time>2017-07-01T10:40:38Z</time>
      </trkpt>
      <trkpt lat="45.93393" lon="4.72404">
        <ele>174</ele>
        <time>2017-07-01T10:40:39Z</time>
      </trkpt>
      <trkpt lat="45.93389" lon="4.72407">
        <ele>174</ele>
        <time>2017-07-01T10:40:40Z</time>
      </trkpt>
      <trkpt lat="45.93386" lon="4.72413">
        <ele>174</ele>
        <time>2017-07-01T10:40:41Z</time>
      </trkpt>
      <trkpt lat="45.93385" lon="4.72421">
        <ele>173</ele>
        <time>2017-07-01T10:40:42Z</time>
      </trkpt>
      <trkpt lat="45.93385" lon="4.72429">
        <ele>173</ele>
        <time>2017-07-01T10:40:43Z</time>
      </trkpt>
      <trkpt lat="45.93386" lon="4.72437">
        <ele>173</ele>
        <time>2017-07-01T10:40:44Z</time>
      </trkpt>
      <trkpt lat="45.93388" lon="4.72445">
        <ele>173</ele>
        <time>2017-07-01T10:40:45Z</time>
      </trkpt>
      <trkpt lat="45.93389" lon="4.72453">
        <ele>173</ele>
        <time>2017-07-01T10:40:46Z</time>
      </trkpt>
      <trkpt lat="45.93388" lon="4.72461">
        <ele>173</ele>
        <time>2017-07-01T10:40:47Z</time>
      </trkpt>
      <trkpt lat="45.93385" lon="4.72468">
        <ele>173</ele>
        <time>2017-07-01T10:40:48Z</time>
      </trkpt>
      <trkpt lat="45.93381" lon="4.72474">
        <ele>173</ele>
        <time>2017-07-01T10:40:49Z</time>
      </trkpt>
      <trkpt lat="45.93376" lon="4.72479">
        <ele>173</ele>
        <time>2017-07-01T10:40:50Z</time>
      </trkpt>
      <trkpt lat="45.93371" lon="4.72484">
        <ele>173</ele>
        <time>2017-07-01T10:40:51Z</time>
      </trkpt>
      <trkpt lat="45.93367" lon="4.72489">
        <ele>173</ele>
        <time>2017-07-01T10:40:52Z</time>
      </trkpt>
      <trkpt lat="45.93362" lon="4.72494">
        <ele>173</ele>
        <time>2017-07-01T10:40:53Z</time>
      </trkpt>
      <trkpt lat="45.93358" lon="4.725">
        <ele>173</ele>
        <time>2017-07-01T10:40:54Z</time>
      </trkpt>
      <trkpt lat="45.93352" lon="4.72506">
        <ele>172</ele>
        <time>2017-07-01T10:40:55Z</time>
      </trkpt>
      <trkpt lat="45.93347" lon="4.72511">
        <ele>172</ele>
        <time>2017-07-01T10:40:56Z</time>
      </trkpt>
      <trkpt lat="45.93341" lon="4.72516">
        <ele>172</ele>
        <time>2017-07-01T10:40:57Z</time>
      </trkpt>
      <trkpt lat="45.93336" lon="4.72522">
        <ele>172</ele>
        <time>2017-07-01T10:40:58Z</time>
      </trkpt>
      <trkpt lat="45.9333" lon="4.72528">
        <ele>172</ele>
        <time>2017-07-01T10:40:59Z</time>
      </trkpt>
      <trkpt lat="45.93325" lon="4.72533">
        <ele>172</ele>
        <time>2017-07-01T10:41:00Z</time>
      </trkpt>
      <trkpt lat="45.93321" lon="4.72539">
        <ele>172</ele>
        <time>2017-07-01T10:41:01Z</time>
      </trkpt>
      <trkpt lat="45.93316" lon="4.72545">
        <ele>172</ele>
        <time>2017-07-01T10:41:02Z</time>
      </trkpt>
      <trkpt lat="45.93311" lon="4.72551">
        <ele>172</ele>
        <time>2017-07-01T10:41:03Z</time>
      </trkpt>
      <trkpt lat="45.93308" lon="4.72558">
        <ele>172</ele>
        <time>2017-07-01T10:41:04Z</time>
      </trkpt>
      <trkpt lat="45.93305" lon="4.72564">
        <ele>171</ele>
        <time>2017-07-01T10:41:05Z</time>
      </trkpt>
      <trkpt lat="45.93301" lon="4.72569">
        <ele>171</ele>
        <time>2017-07-01T10:41:06Z</time>
      </trkpt>
      <trkpt lat="45.93297" lon="4.72575">
        <ele>171</ele>
        <time>2017-07-01T10:41:07Z</time>
      </trkpt>
      <trkpt lat="45.93292" lon="4.72581">
        <ele>171</ele>
        <time>2017-07-01T10:41:08Z</time>
      </trkpt>
      <trkpt lat="45.93288" lon="4.72586">
        <ele>170</ele>
        <time>2017-07-01T10:41:09Z</time>
      </trkpt>
      <trkpt lat="45.93284" lon="4.72591">
        <ele>170</ele>
        <time>2017-07-01T10:41:10Z</time>
      </trkpt>
      <trkpt lat="45.93279" lon="4.72596">
        <ele>170</ele>
        <time>2017-07-01T10:41:11Z</time>
      </trkpt>
      <trkpt lat="45.93275" lon="4.726">
        <ele>170</ele>
        <time>2017-07-01T10:41:12Z</time>
      </trkpt>
      <trkpt lat="45.93271" lon="4.72605">
        <ele>170</ele>
        <time>2017-07-01T10:41:13Z</time>
      </trkpt>
      <trkpt lat="45.93267" lon="4.72611">
        <ele>170</ele>
        <time>2017-07-01T10:41:14Z</time>
      </trkpt>
      <trkpt lat="45.93263" lon="4.72616">
        <ele>170</ele>
        <time>2017-07-01T10:41:15Z</time>
      </trkpt>
      <trkpt lat="45.93256" lon="4.72623">
        <ele>170</ele>
        <time>2017-07-01T10:41:16Z</time>
      </trkpt>
      <trkpt lat="45.9325" lon="4.72629">
        <ele>170</ele>
        <time>2017-07-01T10:41:17Z</time>
      </trkpt>
      <trkpt lat="45.93245" lon="4.72634">
        <ele>170</ele>
        <time>2017-07-01T10:41:18Z</time>
      </trkpt>
      <trkpt lat="45.9324" lon="4.7264">
        <ele>170</ele>
        <time>2017-07-01T10:41:19Z</time>
      </trkpt>
      <trkpt lat="45.93234" lon="4.72645">
        <ele>170</ele>
        <time>2017-07-01T10:41:20Z</time>
      </trkpt>
      <trkpt lat="45.9323" lon="4.72651">
        <ele>170</ele>
        <time>2017-07-01T10:41:21Z</time>
      </trkpt>
      <trkpt lat="45.93225" lon="4.72656">
        <ele>170</ele>
        <time>2017-07-01T10:41:22Z</time>
      </trkpt>
      <trkpt lat="45.93221" lon="4.72662">
        <ele>170</ele>
        <time>2017-07-01T10:41:23Z</time>
      </trkpt>
      <trkpt lat="45.93215" lon="4.72668">
        <ele>169</ele>
        <time>2017-07-01T10:41:24Z</time>
      </trkpt>
      <trkpt lat="45.93211" lon="4.72672">
        <ele>169</ele>
        <time>2017-07-01T10:41:25Z</time>
      </trkpt>
      <trkpt lat="45.93207" lon="4.72677">
        <ele>169</ele>
        <time>2017-07-01T10:41:26Z</time>
      </trkpt>
      <trkpt lat="45.93203" lon="4.72681">
        <ele>169</ele>
        <time>2017-07-01T10:41:27Z</time>
      </trkpt>
      <trkpt lat="45.93198" lon="4.72686">
        <ele>169</ele>
        <time>2017-07-01T10:41:28Z</time>
      </trkpt>
      <trkpt lat="45.93194" lon="4.72691">
        <ele>169</ele>
        <time>2017-07-01T10:41:29Z</time>
      </trkpt>
      <trkpt lat="45.93189" lon="4.72696">
        <ele>169</ele>
        <time>2017-07-01T10:41:30Z</time>
      </trkpt>
      <trkpt lat="45.93184" lon="4.72702">
        <ele>169</ele>
        <time>2017-07-01T10:41:31Z</time>
      </trkpt>
      <trkpt lat="45.93179" lon="4.72708">
        <ele>169</ele>
        <time>2017-07-01T10:41:32Z</time>
      </trkpt>
      <trkpt lat="45.93174" lon="4.72713">
        <ele>170</ele>
        <time>2017-07-01T10:41:33Z</time>
      </trkpt>
      <trkpt lat="45.93168" lon="4.72719">
        <ele>170</ele>
        <time>2017-07-01T10:41:34Z</time>
      </trkpt>
      <trkpt lat="45.93162" lon="4.72725">
        <ele>170</ele>
        <time>2017-07-01T10:41:35Z</time>
      </trkpt>
      <trkpt lat="45.93157" lon="4.7273">
        <ele>170</ele>
        <time>2017-07-01T10:41:36Z</time>
      </trkpt>
      <trkpt lat="45.93151" lon="4.72736">
        <ele>170</ele>
        <time>2017-07-01T10:41:37Z</time>
      </trkpt>
      <trkpt lat="45.93146" lon="4.72742">
        <ele>170</ele>
        <time>2017-07-01T10:41:38Z</time>
      </trkpt>
      <trkpt lat="45.9314" lon="4.72749">
        <ele>170</ele>
        <time>2017-07-01T10:41:39Z</time>
      </trkpt>
      <trkpt lat="45.93135" lon="4.72755">
        <ele>171</ele>
        <time>2017-07-01T10:41:40Z</time>
      </trkpt>
      <trkpt lat="45.9313" lon="4.72762">
        <ele>171</ele>
        <time>2017-07-01T10:41:41Z</time>
      </trkpt>
      <trkpt lat="45.93124" lon="4.72768">
        <ele>171</ele>
        <time>2017-07-01T10:41:42Z</time>
      </trkpt>
      <trkpt lat="45.93119" lon="4.72775">
        <ele>171</ele>
        <time>2017-07-01T10:41:43Z</time>
      </trkpt>
      <trkpt lat="45.93114" lon="4.72781">
        <ele>171</ele>
        <time>2017-07-01T10:41:44Z</time>
      </trkpt>
      <trkpt lat="45.9311" lon="4.72787">
        <ele>171</ele>
        <time>2017-07-01T10:41:45Z</time>
      </trkpt>
      <trkpt lat="45.93105" lon="4.72793">
        <ele>171</ele>
        <time>2017-07-01T10:41:46Z</time>
      </trkpt>
      <trkpt lat="45.93101" lon="4.72799">
        <ele>171</ele>
        <time>2017-07-01T10:41:47Z</time>
      </trkpt>
      <trkpt lat="45.93096" lon="4.72804">
        <ele>171</ele>
        <time>2017-07-01T10:41:48Z</time>
      </trkpt>
      <trkpt lat="45.93092" lon="4.72808">
        <ele>172</ele>
        <time>2017-07-01T10:41:49Z</time>
      </trkpt>
      <trkpt lat="45.93087" lon="4.72814">
        <ele>172</ele>
        <time>2017-07-01T10:41:50Z</time>
      </trkpt>
      <trkpt lat="45.93082" lon="4.72819">
        <ele>173</ele>
        <time>2017-07-01T10:41:51Z</time>
      </trkpt>
      <trkpt lat="45.93077" lon="4.72824">
        <ele>173</ele>
        <time>2017-07-01T10:41:52Z</time>
      </trkpt>
      <trkpt lat="45.93072" lon="4.72828">
        <ele>173</ele>
        <time>2017-07-01T10:41:53Z</time>
      </trkpt>
      <trkpt lat="45.93067" lon="4.72833">
        <ele>173</ele>
        <time>2017-07-01T10:41:54Z</time>
      </trkpt>
      <trkpt lat="45.93061" lon="4.72838">
        <ele>173</ele>
        <time>2017-07-01T10:41:55Z</time>
      </trkpt>
      <trkpt lat="45.93057" lon="4.72846">
        <ele>172</ele>
        <time>2017-07-01T10:41:56Z</time>
      </trkpt>
      <trkpt lat="45.93051" lon="4.72851">
        <ele>172</ele>
        <time>2017-07-01T10:41:57Z</time>
      </trkpt>
      <trkpt lat="45.93046" lon="4.72857">
        <ele>172</ele>
        <time>2017-07-01T10:41:58Z</time>
      </trkpt>
      <trkpt lat="45.93041" lon="4.72862">
        <ele>172</ele>
        <time>2017-07-01T10:41:59Z</time>
      </trkpt>
      <trkpt lat="45.93036" lon="4.72868">
        <ele>172</ele>
        <time>2017-07-01T10:42:00Z</time>
      </trkpt>
      <trkpt lat="45.9303" lon="4.72875">
        <ele>172</ele>
        <time>2017-07-01T10:42:01Z</time>
      </trkpt>
      <trkpt lat="45.93024" lon="4.72882">
        <ele>172</ele>
        <time>2017-07-01T10:42:02Z</time>
      </trkpt>
      <trkpt lat="45.93019" lon="4.72889">
        <ele>172</ele>
        <time>2017-07-01T10:42:03Z</time>
      </trkpt>
      <trkpt lat="45.93014" lon="4.72895">
        <ele>172</ele>
        <time>2017-07-01T10:42:04Z</time>
      </trkpt>
      <trkpt lat="45.9301" lon="4.72902">
        <ele>172</ele>
        <time>2017-07-01T10:42:05Z</time>
      </trkpt>
      <trkpt lat="45.93006" lon="4.72908">
        <ele>171</ele>
        <time>2017-07-01T10:42:06Z</time>
      </trkpt>
      <trkpt lat="45.93002" lon="4.72913">
        <ele>171</ele>
        <time>2017-07-01T10:42:07Z</time>
      </trkpt>
      <trkpt lat="45.92998" lon="4.72918">
        <ele>171</ele>
        <time>2017-07-01T10:42:08Z</time>
      </trkpt>
      <trkpt lat="45.92995" lon="4.72923">
        <ele>171</ele>
        <time>2017-07-01T10:42:09Z</time>
      </trkpt>
      <trkpt lat="45.92991" lon="4.72928">
        <ele>171</ele>
        <time>2017-07-01T10:42:10Z</time>
      </trkpt>
      <trkpt lat="45.92987" lon="4.72933">
        <ele>171</ele>
        <time>2017-07-01T10:42:11Z</time>
      </trkpt>
      <trkpt lat="45.92983" lon="4.72937">
        <ele>171</ele>
        <time>2017-07-01T10:42:12Z</time>
      </trkpt>
      <trkpt lat="45.92978" lon="4.72942">
        <ele>171</ele>
        <time>2017-07-01T10:42:13Z</time>
      </trkpt>
      <trkpt lat="45.92974" lon="4.72947">
        <ele>171</ele>
        <time>2017-07-01T10:42:14Z</time>
      </trkpt>
      <trkpt lat="45.9297" lon="4.72952">
        <ele>171</ele>
        <time>2017-07-01T10:42:15Z</time>
      </trkpt>
      <trkpt lat="45.92965" lon="4.72957">
        <ele>171</ele>
        <time>2017-07-01T10:42:16Z</time>
      </trkpt>
      <trkpt lat="45.92961" lon="4.72962">
        <ele>171</ele>
        <time>2017-07-01T10:42:17Z</time>
      </trkpt>
      <trkpt lat="45.92956" lon="4.72967">
        <ele>171</ele>
        <time>2017-07-01T10:42:18Z</time>
      </trkpt>
      <trkpt lat="45.92952" lon="4.72972">
        <ele>171</ele>
        <time>2017-07-01T10:42:19Z</time>
      </trkpt>
      <trkpt lat="45.92948" lon="4.72977">
        <ele>171</ele>
        <time>2017-07-01T10:42:20Z</time>
      </trkpt>
      <trkpt lat="45.92944" lon="4.72982">
        <ele>171</ele>
        <time>2017-07-01T10:42:21Z</time>
      </trkpt>
      <trkpt lat="45.9294" lon="4.72987">
        <ele>171</ele>
        <time>2017-07-01T10:42:22Z</time>
      </trkpt>
      <trkpt lat="45.92936" lon="4.72991">
        <ele>171</ele>
        <time>2017-07-01T10:42:23Z</time>
      </trkpt>
      <trkpt lat="45.92932" lon="4.72995">
        <ele>172</ele>
        <time>2017-07-01T10:42:24Z</time>
      </trkpt>
      <trkpt lat="45.92928" lon="4.73">
        <ele>172</ele>
        <time>2017-07-01T10:42:25Z</time>
      </trkpt>
      <trkpt lat="45.92924" lon="4.73005">
        <ele>172</ele>
        <time>2017-07-01T10:42:26Z</time>
      </trkpt>
      <trkpt lat="45.9292" lon="4.7301">
        <ele>172</ele>
        <time>2017-07-01T10:42:27Z</time>
      </trkpt>
      <trkpt lat="45.92916" lon="4.73016">
        <ele>172</ele>
        <time>2017-07-01T10:42:28Z</time>
      </trkpt>
      <trkpt lat="45.92912" lon="4.73021">
        <ele>172</ele>
        <time>2017-07-01T10:42:29Z</time>
      </trkpt>
      <trkpt lat="45.92908" lon="4.73026">
        <ele>172</ele>
        <time>2017-07-01T10:42:30Z</time>
      </trkpt>
      <trkpt lat="45.92904" lon="4.73032">
        <ele>172</ele>
        <time>2017-07-01T10:42:31Z</time>
      </trkpt>
      <trkpt lat="45.929" lon="4.73037">
        <ele>172</ele>
        <time>2017-07-01T10:42:32Z</time>
      </trkpt>
      <trkpt lat="45.92897" lon="4.73043">
        <ele>172</ele>
        <time>2017-07-01T10:42:33Z</time>
      </trkpt>
      <trkpt lat="45.92893" lon="4.73048">
        <ele>172</ele>
        <time>2017-07-01T10:42:34Z</time>
      </trkpt>
      <trkpt lat="45.9289" lon="4.73054">
        <ele>172</ele>
        <time>2017-07-01T10:42:35Z</time>
      </trkpt>
      <trkpt lat="45.92887" lon="4.73059">
        <ele>172</ele>
        <time>2017-07-01T10:42:36Z</time>
      </trkpt>
      <trkpt lat="45.92884" lon="4.73064">
        <ele>172</ele>
        <time>2017-07-01T10:42:37Z</time>
      </trkpt>
      <trkpt lat="45.92881" lon="4.73069">
        <ele>172</ele>
        <time>2017-07-01T10:42:38Z</time>
      </trkpt>
      <trkpt lat="45.92877" lon="4.73072">
        <ele>172</ele>
        <time>2017-07-01T10:42:39Z</time>
      </trkpt>
      <trkpt lat="45.9287" lon="4.7308">
        <ele>172</ele>
        <time>2017-07-01T10:42:41Z</time>
      </trkpt>
      <trkpt lat="45.92866" lon="4.73085">
        <ele>172</ele>
        <time>2017-07-01T10:42:42Z</time>
      </trkpt>
      <trkpt lat="45.92863" lon="4.7309">
        <ele>171</ele>
        <time>2017-07-01T10:42:43Z</time>
      </trkpt>
      <trkpt lat="45.92859" lon="4.73095">
        <ele>171</ele>
        <time>2017-07-01T10:42:44Z</time>
      </trkpt>
      <trkpt lat="45.92852" lon="4.73101">
        <ele>171</ele>
        <time>2017-07-01T10:42:46Z</time>
      </trkpt>
      <trkpt lat="45.92849" lon="4.731">
        <ele>171</ele>
        <time>2017-07-01T10:42:47Z</time>
      </trkpt>
      <trkpt lat="45.92847" lon="4.73091">
        <ele>171</ele>
        <time>2017-07-01T10:42:49Z</time>
      </trkpt>
      <trkpt lat="45.92847" lon="4.73084">
        <ele>171</ele>
        <time>2017-07-01T10:42:50Z</time>
      </trkpt>
      <trkpt lat="45.92847" lon="4.73077">
        <ele>171</ele>
        <time>2017-07-01T10:42:51Z</time>
      </trkpt>
      <trkpt lat="45.92846" lon="4.7307">
        <ele>171</ele>
        <time>2017-07-01T10:42:52Z</time>
      </trkpt>
      <trkpt lat="45.92845" lon="4.73063">
        <ele>171</ele>
        <time>2017-07-01T10:42:53Z</time>
      </trkpt>
      <trkpt lat="45.92843" lon="4.73056">
        <ele>171</ele>
        <time>2017-07-01T10:42:54Z</time>
      </trkpt>
      <trkpt lat="45.92841" lon="4.73048">
        <ele>171</ele>
        <time>2017-07-01T10:42:55Z</time>
      </trkpt>
      <trkpt lat="45.9284" lon="4.7304">
        <ele>171</ele>
        <time>2017-07-01T10:42:56Z</time>
      </trkpt>
      <trkpt lat="45.92839" lon="4.73032">
        <ele>171</ele>
        <time>2017-07-01T10:42:57Z</time>
      </trkpt>
      <trkpt lat="45.92837" lon="4.73024">
        <ele>171</ele>
        <time>2017-07-01T10:42:58Z</time>
      </trkpt>
      <trkpt lat="45.92836" lon="4.73017">
        <ele>171</ele>
        <time>2017-07-01T10:42:59Z</time>
      </trkpt>
      <trkpt lat="45.92834" lon="4.7301">
        <ele>170</ele>
        <time>2017-07-01T10:43:00Z</time>
      </trkpt>
      <trkpt lat="45.92834" lon="4.73003">
        <ele>170</ele>
        <time>2017-07-01T10:43:01Z</time>
      </trkpt>
      <trkpt lat="45.92833" lon="4.72996">
        <ele>170</ele>
        <time>2017-07-01T10:43:02Z</time>
      </trkpt>
      <trkpt lat="45.92833" lon="4.7299">
        <ele>170</ele>
        <time>2017-07-01T10:43:03Z</time>
      </trkpt>
      <trkpt lat="45.92833" lon="4.72982">
        <ele>170</ele>
        <time>2017-07-01T10:43:04Z</time>
      </trkpt>
      <trkpt lat="45.92833" lon="4.72975">
        <ele>170</ele>
        <time>2017-07-01T10:43:05Z</time>
      </trkpt>
      <trkpt lat="45.92832" lon="4.72967">
        <ele>170</ele>
        <time>2017-07-01T10:43:06Z</time>
      </trkpt>
      <trkpt lat="45.92832" lon="4.72959">
        <ele>170</ele>
        <time>2017-07-01T10:43:07Z</time>
      </trkpt>
      <trkpt lat="45.92831" lon="4.72951">
        <ele>170</ele>
        <time>2017-07-01T10:43:08Z</time>
      </trkpt>
      <trkpt lat="45.92831" lon="4.72943">
        <ele>170</ele>
        <time>2017-07-01T10:43:09Z</time>
      </trkpt>
      <trkpt lat="45.9283" lon="4.72935">
        <ele>170</ele>
        <time>2017-07-01T10:43:10Z</time>
      </trkpt>
      <trkpt lat="45.92829" lon="4.72929">
        <ele>170</ele>
        <time>2017-07-01T10:43:11Z</time>
      </trkpt>
      <trkpt lat="45.92828" lon="4.72921">
        <ele>170</ele>
        <time>2017-07-01T10:43:12Z</time>
      </trkpt>
      <trkpt lat="45.92827" lon="4.72914">
        <ele>170</ele>
        <time>2017-07-01T10:43:13Z</time>
      </trkpt>
      <trkpt lat="45.92827" lon="4.72907">
        <ele>170</ele>
        <time>2017-07-01T10:43:14Z</time>
      </trkpt>
      <trkpt lat="45.92826" lon="4.729">
        <ele>170</ele>
        <time>2017-07-01T10:43:15Z</time>
      </trkpt>
      <trkpt lat="45.92825" lon="4.72894">
        <ele>170</ele>
        <time>2017-07-01T10:43:16Z</time>
      </trkpt>
      <trkpt lat="45.92824" lon="4.72887">
        <ele>170</ele>
        <time>2017-07-01T10:43:17Z</time>
      </trkpt>
      <trkpt lat="45.92823" lon="4.7288">
        <ele>170</ele>
        <time>2017-07-01T10:43:18Z</time>
      </trkpt>
      <trkpt lat="45.92821" lon="4.72874">
        <ele>170</ele>
        <time>2017-07-01T10:43:19Z</time>
      </trkpt>
      <trkpt lat="45.9282" lon="4.72867">
        <ele>170</ele>
        <time>2017-07-01T10:43:20Z</time>
      </trkpt>
      <trkpt lat="45.92818" lon="4.7286">
        <ele>170</ele>
        <time>2017-07-01T10:43:21Z</time>
      </trkpt>
      <trkpt lat="45.92817" lon="4.72853">
        <ele>170</ele>
        <time>2017-07-01T10:43:22Z</time>
      </trkpt>
      <trkpt lat="45.92816" lon="4.72845">
        <ele>170</ele>
        <time>2017-07-01T10:43:23Z</time>
      </trkpt>
      <trkpt lat="45.92814" lon="4.72838">
        <ele>170</ele>
        <time>2017-07-01T10:43:24Z</time>
      </trkpt>
      <trkpt lat="45.92812" lon="4.72831">
        <ele>171</ele>
        <time>2017-07-01T10:43:25Z</time>
      </trkpt>
      <trkpt lat="45.92811" lon="4.72823">
        <ele>171</ele>
        <time>2017-07-01T10:43:26Z</time>
      </trkpt>
      <trkpt lat="45.92809" lon="4.72816">
        <ele>171</ele>
        <time>2017-07-01T10:43:27Z</time>
      </trkpt>
      <trkpt lat="45.92807" lon="4.7281">
        <ele>171</ele>
        <time>2017-07-01T10:43:28Z</time>
      </trkpt>
      <trkpt lat="45.92806" lon="4.72803">
        <ele>171</ele>
        <time>2017-07-01T10:43:29Z</time>
      </trkpt>
      <trkpt lat="45.92805" lon="4.72796">
        <ele>171</ele>
        <time>2017-07-01T10:43:30Z</time>
      </trkpt>
      <trkpt lat="45.92799" lon="4.72787">
        <ele>171</ele>
        <time>2017-07-01T10:43:32Z</time>
      </trkpt>
      <trkpt lat="45.92794" lon="4.72788">
        <ele>171</ele>
        <time>2017-07-01T10:43:33Z</time>
      </trkpt>
      <trkpt lat="45.9279" lon="4.7279">
        <ele>171</ele>
        <time>2017-07-01T10:43:34Z</time>
      </trkpt>
      <trkpt lat="45.92785" lon="4.72792">
        <ele>170</ele>
        <time>2017-07-01T10:43:35Z</time>
      </trkpt>
      <trkpt lat="45.92781" lon="4.72795">
        <ele>170</ele>
        <time>2017-07-01T10:43:36Z</time>
      </trkpt>
      <trkpt lat="45.92776" lon="4.72798">
        <ele>170</ele>
        <time>2017-07-01T10:43:37Z</time>
      </trkpt>
      <trkpt lat="45.92772" lon="4.72801">
        <ele>170</ele>
        <time>2017-07-01T10:43:38Z</time>
      </trkpt>
      <trkpt lat="45.92767" lon="4.72805">
        <ele>170</ele>
        <time>2017-07-01T10:43:39Z</time>
      </trkpt>
      <trkpt lat="45.92762" lon="4.72809">
        <ele>170</ele>
        <time>2017-07-01T10:43:40Z</time>
      </trkpt>
      <trkpt lat="45.92756" lon="4.72813">
        <ele>170</ele>
        <time>2017-07-01T10:43:41Z</time>
      </trkpt>
      <trkpt lat="45.92752" lon="4.72817">
        <ele>170</ele>
        <time>2017-07-01T10:43:42Z</time>
      </trkpt>
      <trkpt lat="45.92746" lon="4.72821">
        <ele>169</ele>
        <time>2017-07-01T10:43:43Z</time>
      </trkpt>
      <trkpt lat="45.92742" lon="4.72825">
        <ele>169</ele>
        <time>2017-07-01T10:43:44Z</time>
      </trkpt>
      <trkpt lat="45.92737" lon="4.72828">
        <ele>169</ele>
        <time>2017-07-01T10:43:45Z</time>
      </trkpt>
      <trkpt lat="45.92733" lon="4.72831">
        <ele>169</ele>
        <time>2017-07-01T10:43:46Z</time>
      </trkpt>
      <trkpt lat="45.92729" lon="4.72835">
        <ele>169</ele>
        <time>2017-07-01T10:43:47Z</time>
      </trkpt>
      <trkpt lat="45.92725" lon="4.72838">
        <ele>169</ele>
        <time>2017-07-01T10:43:48Z</time>
      </trkpt>
      <trkpt lat="45.9272" lon="4.72842">
        <ele>169</ele>
        <time>2017-07-01T10:43:49Z</time>
      </trkpt>
      <trkpt lat="45.92715" lon="4.72846">
        <ele>169</ele>
        <time>2017-07-01T10:43:50Z</time>
      </trkpt>
      <trkpt lat="45.9271" lon="4.7285">
        <ele>169</ele>
        <time>2017-07-01T10:43:51Z</time>
      </trkpt>
      <trkpt lat="45.92704" lon="4.72854">
        <ele>169</ele>
        <time>2017-07-01T10:43:52Z</time>
      </trkpt>
      <trkpt lat="45.92699" lon="4.72858">
        <ele>169</ele>
        <time>2017-07-01T10:43:53Z</time>
      </trkpt>
      <trkpt lat="45.92694" lon="4.72862">
        <ele>169</ele>
        <time>2017-07-01T10:43:54Z</time>
      </trkpt>
      <trkpt lat="45.92689" lon="4.72866">
        <ele>169</ele>
        <time>2017-07-01T10:43:55Z</time>
      </trkpt>
      <trkpt lat="45.92684" lon="4.72869">
        <ele>169</ele>
        <time>2017-07-01T10:43:56Z</time>
      </trkpt>
      <trkpt lat="45.9268" lon="4.72873">
        <ele>169</ele>
        <time>2017-07-01T10:43:57Z</time>
      </trkpt>
      <trkpt lat="45.92675" lon="4.72877">
        <ele>170</ele>
        <time>2017-07-01T10:43:58Z</time>
      </trkpt>
      <trkpt lat="45.92671" lon="4.7288">
        <ele>170</ele>
        <time>2017-07-01T10:43:59Z</time>
      </trkpt>
      <trkpt lat="45.92666" lon="4.72883">
        <ele>169</ele>
        <time>2017-07-01T10:44:00Z</time>
      </trkpt>
      <trkpt lat="45.92662" lon="4.72886">
        <ele>169</ele>
        <time>2017-07-01T10:44:01Z</time>
      </trkpt>
      <trkpt lat="45.92657" lon="4.7289">
        <ele>169</ele>
        <time>2017-07-01T10:44:02Z</time>
      </trkpt>
      <trkpt lat="45.92652" lon="4.72894">
        <ele>169</ele>
        <time>2017-07-01T10:44:03Z</time>
      </trkpt>
      <trkpt lat="45.92647" lon="4.72898">
        <ele>169</ele>
        <time>2017-07-01T10:44:04Z</time>
      </trkpt>
      <trkpt lat="45.92642" lon="4.72903">
        <ele>169</ele>
        <time>2017-07-01T10:44:05Z</time>
      </trkpt>
      <trkpt lat="45.92637" lon="4.72907">
        <ele>169</ele>
        <time>2017-07-01T10:44:06Z</time>
      </trkpt>
      <trkpt lat="45.92633" lon="4.7291">
        <ele>169</ele>
        <time>2017-07-01T10:44:07Z</time>
      </trkpt>
      <trkpt lat="45.92629" lon="4.72914">
        <ele>169</ele>
        <time>2017-07-01T10:44:08Z</time>
      </trkpt>
      <trkpt lat="45.92624" lon="4.72917">
        <ele>169</ele>
        <time>2017-07-01T10:44:09Z</time>
      </trkpt>
      <trkpt lat="45.9262" lon="4.72921">
        <ele>169</ele>
        <time>2017-07-01T10:44:10Z</time>
      </trkpt>
      <trkpt lat="45.92615" lon="4.72926">
        <ele>169</ele>
        <time>2017-07-01T10:44:11Z</time>
      </trkpt>
      <trkpt lat="45.92611" lon="4.7293">
        <ele>169</ele>
        <time>2017-07-01T10:44:12Z</time>
      </trkpt>
      <trkpt lat="45.92606" lon="4.72935">
        <ele>169</ele>
        <time>2017-07-01T10:44:13Z</time>
      </trkpt>
      <trkpt lat="45.92601" lon="4.72941">
        <ele>169</ele>
        <time>2017-07-01T10:44:14Z</time>
      </trkpt>
      <trkpt lat="45.92597" lon="4.72946">
        <ele>169</ele>
        <time>2017-07-01T10:44:15Z</time>
      </trkpt>
      <trkpt lat="45.92592" lon="4.72951">
        <ele>169</ele>
        <time>2017-07-01T10:44:16Z</time>
      </trkpt>
      <trkpt lat="45.92587" lon="4.72956">
        <ele>169</ele>
        <time>2017-07-01T10:44:17Z</time>
      </trkpt>
      <trkpt lat="45.92583" lon="4.72961">
        <ele>169</ele>
        <time>2017-07-01T10:44:18Z</time>
      </trkpt>
      <trkpt lat="45.92578" lon="4.72966">
        <ele>169</ele>
        <time>2017-07-01T10:44:19Z</time>
      </trkpt>
      <trkpt lat="45.92573" lon="4.7297">
        <ele>169</ele>
        <time>2017-07-01T10:44:20Z</time>
      </trkpt>
      <trkpt lat="45.92569" lon="4.72974">
        <ele>169</ele>
        <time>2017-07-01T10:44:21Z</time>
      </trkpt>
      <trkpt lat="45.92564" lon="4.72978">
        <ele>169</ele>
        <time>2017-07-01T10:44:22Z</time>
      </trkpt>
      <trkpt lat="45.9256" lon="4.72982">
        <ele>169</ele>
        <time>2017-07-01T10:44:23Z</time>
      </trkpt>
      <trkpt lat="45.92556" lon="4.72987">
        <ele>169</ele>
        <time>2017-07-01T10:44:24Z</time>
      </trkpt>
      <trkpt lat="45.92552" lon="4.72991">
        <ele>169</ele>
        <time>2017-07-01T10:44:25Z</time>
      </trkpt>
      <trkpt lat="45.92547" lon="4.72996">
        <ele>169</ele>
        <time>2017-07-01T10:44:26Z</time>
      </trkpt>
      <trkpt lat="45.92543" lon="4.73001">
        <ele>169</ele>
        <time>2017-07-01T10:44:27Z</time>
      </trkpt>
      <trkpt lat="45.92538" lon="4.73006">
        <ele>169</ele>
        <time>2017-07-01T10:44:28Z</time>
      </trkpt>
      <trkpt lat="45.92533" lon="4.73011">
        <ele>169</ele>
        <time>2017-07-01T10:44:29Z</time>
      </trkpt>
      <trkpt lat="45.92528" lon="4.73015">
        <ele>169</ele>
        <time>2017-07-01T10:44:30Z</time>
      </trkpt>
      <trkpt lat="45.92523" lon="4.7302">
        <ele>169</ele>
        <time>2017-07-01T10:44:31Z</time>
      </trkpt>
      <trkpt lat="45.92518" lon="4.73024">
        <ele>169</ele>
        <time>2017-07-01T10:44:32Z</time>
      </trkpt>
      <trkpt lat="45.92513" lon="4.73028">
        <ele>169</ele>
        <time>2017-07-01T10:44:33Z</time>
      </trkpt>
      <trkpt lat="45.92509" lon="4.73032">
        <ele>169</ele>
        <time>2017-07-01T10:44:34Z</time>
      </trkpt>
      <trkpt lat="45.92505" lon="4.73036">
        <ele>169</ele>
        <time>2017-07-01T10:44:35Z</time>
      </trkpt>
      <trkpt lat="45.92501" lon="4.7304">
        <ele>169</ele>
        <time>2017-07-01T10:44:36Z</time>
      </trkpt>
      <trkpt lat="45.92496" lon="4.73043">
        <ele>170</ele>
        <time>2017-07-01T10:44:37Z</time>
      </trkpt>
      <trkpt lat="45.92492" lon="4.73047">
        <ele>170</ele>
        <time>2017-07-01T10:44:38Z</time>
      </trkpt>
      <trkpt lat="45.92488" lon="4.7305">
        <ele>170</ele>
        <time>2017-07-01T10:44:39Z</time>
      </trkpt>
      <trkpt lat="45.92483" lon="4.73054">
        <ele>170</ele>
        <time>2017-07-01T10:44:40Z</time>
      </trkpt>
      <trkpt lat="45.92478" lon="4.73059">
        <ele>170</ele>
        <time>2017-07-01T10:44:41Z</time>
      </trkpt>
      <trkpt lat="45.92474" lon="4.73063">
        <ele>170</ele>
        <time>2017-07-01T10:44:42Z</time>
      </trkpt>
      <trkpt lat="45.92469" lon="4.73068">
        <ele>170</ele>
        <time>2017-07-01T10:44:43Z</time>
      </trkpt>
      <trkpt lat="45.92464" lon="4.73072">
        <ele>170</ele>
        <time>2017-07-01T10:44:44Z</time>
      </trkpt>
      <trkpt lat="45.92459" lon="4.73076">
        <ele>170</ele>
        <time>2017-07-01T10:44:45Z</time>
      </trkpt>
      <trkpt lat="45.92454" lon="4.73081">
        <ele>170</ele>
        <time>2017-07-01T10:44:46Z</time>
      </trkpt>
      <trkpt lat="45.92449" lon="4.73085">
        <ele>170</ele>
        <time>2017-07-01T10:44:47Z</time>
      </trkpt>
      <trkpt lat="45.92444" lon="4.7309">
        <ele>170</ele>
        <time>2017-07-01T10:44:48Z</time>
      </trkpt>
      <trkpt lat="45.9244" lon="4.73094">
        <ele>170</ele>
        <time>2017-07-01T10:44:49Z</time>
      </trkpt>
      <trkpt lat="45.92435" lon="4.73098">
        <ele>171</ele>
        <time>2017-07-01T10:44:50Z</time>
      </trkpt>
      <trkpt lat="45.92431" lon="4.73102">
        <ele>171</ele>
        <time>2017-07-01T10:44:51Z</time>
      </trkpt>
      <trkpt lat="45.92427" lon="4.73105">
        <ele>171</ele>
        <time>2017-07-01T10:44:52Z</time>
      </trkpt>
      <trkpt lat="45.92422" lon="4.73108">
        <ele>171</ele>
        <time>2017-07-01T10:44:53Z</time>
      </trkpt>
      <trkpt lat="45.92418" lon="4.73111">
        <ele>170</ele>
        <time>2017-07-01T10:44:54Z</time>
      </trkpt>
      <trkpt lat="45.92414" lon="4.73115">
        <ele>171</ele>
        <time>2017-07-01T10:44:55Z</time>
      </trkpt>
      <trkpt lat="45.92411" lon="4.73119">
        <ele>171</ele>
        <time>2017-07-01T10:44:56Z</time>
      </trkpt>
      <trkpt lat="45.92408" lon="4.73125">
        <ele>171</ele>
        <time>2017-07-01T10:44:57Z</time>
      </trkpt>
      <trkpt lat="45.92407" lon="4.73132">
        <ele>171</ele>
        <time>2017-07-01T10:44:58Z</time>
      </trkpt>
      <trkpt lat="45.92406" lon="4.7314">
        <ele>171</ele>
        <time>2017-07-01T10:44:59Z</time>
      </trkpt>
      <trkpt lat="45.92406" lon="4.73148">
        <ele>171</ele>
        <time>2017-07-01T10:45:00Z</time>
      </trkpt>
      <trkpt lat="45.92406" lon="4.73156">
        <ele>170</ele>
        <time>2017-07-01T10:45:01Z</time>
      </trkpt>
      <trkpt lat="45.92406" lon="4.73164">
        <ele>170</ele>
        <time>2017-07-01T10:45:02Z</time>
      </trkpt>
      <trkpt lat="45.92406" lon="4.73173">
        <ele>171</ele>
        <time>2017-07-01T10:45:03Z</time>
      </trkpt>
      <trkpt lat="45.92406" lon="4.73182">
        <ele>171</ele>
        <time>2017-07-01T10:45:04Z</time>
      </trkpt>
      <trkpt lat="45.92406" lon="4.73191">
        <ele>171</ele>
        <time>2017-07-01T10:45:05Z</time>
      </trkpt>
      <trkpt lat="45.92406" lon="4.732">
        <ele>171</ele>
        <time>2017-07-01T10:45:06Z</time>
      </trkpt>
      <trkpt lat="45.92406" lon="4.73209">
        <ele>171</ele>
        <time>2017-07-01T10:45:07Z</time>
      </trkpt>
      <trkpt lat="45.92407" lon="4.73218">
        <ele>171</ele>
        <time>2017-07-01T10:45:08Z</time>
      </trkpt>
      <trkpt lat="45.92407" lon="4.73226">
        <ele>171</ele>
        <time>2017-07-01T10:45:09Z</time>
      </trkpt>
      <trkpt lat="45.92408" lon="4.73234">
        <ele>171</ele>
        <time>2017-07-01T10:45:10Z</time>
      </trkpt>
      <trkpt lat="45.92408" lon="4.73242">
        <ele>171</ele>
        <time>2017-07-01T10:45:11Z</time>
      </trkpt>
      <trkpt lat="45.92408" lon="4.7325">
        <ele>171</ele>
        <time>2017-07-01T10:45:12Z</time>
      </trkpt>
      <trkpt lat="45.92409" lon="4.73258">
        <ele>171</ele>
        <time>2017-07-01T10:45:13Z</time>
      </trkpt>
      <trkpt lat="45.92409" lon="4.73265">
        <ele>171</ele>
        <time>2017-07-01T10:45:14Z</time>
      </trkpt>
      <trkpt lat="45.92409" lon="4.73272">
        <ele>171</ele>
        <time>2017-07-01T10:45:15Z</time>
      </trkpt>
      <trkpt lat="45.9241" lon="4.73279">
        <ele>171</ele>
        <time>2017-07-01T10:45:16Z</time>
      </trkpt>
      <trkpt lat="45.9241" lon="4.73286">
        <ele>171</ele>
        <time>2017-07-01T10:45:17Z</time>
      </trkpt>
      <trkpt lat="45.92411" lon="4.73293">
        <ele>171</ele>
        <time>2017-07-01T10:45:18Z</time>
      </trkpt>
      <trkpt lat="45.92411" lon="4.733">
        <ele>171</ele>
        <time>2017-07-01T10:45:19Z</time>
      </trkpt>
      <trkpt lat="45.92412" lon="4.73307">
        <ele>171</ele>
        <time>2017-07-01T10:45:20Z</time>
      </trkpt>
      <trkpt lat="45.92412" lon="4.73314">
        <ele>171</ele>
        <time>2017-07-01T10:45:21Z</time>
      </trkpt>
      <trkpt lat="45.92413" lon="4.73322">
        <ele>171</ele>
        <time>2017-07-01T10:45:22Z</time>
      </trkpt>
      <trkpt lat="45.92413" lon="4.7333">
        <ele>171</ele>
        <time>2017-07-01T10:45:23Z</time>
      </trkpt>
      <trkpt lat="45.92414" lon="4.73339">
        <ele>171</ele>
        <time>2017-07-01T10:45:24Z</time>
      </trkpt>
      <trkpt lat="45.92415" lon="4.73347">
        <ele>171</ele>
        <time>2017-07-01T10:45:25Z</time>
      </trkpt>
      <trkpt lat="45.92416" lon="4.73356">
        <ele>171</ele>
        <time>2017-07-01T10:45:26Z</time>
      </trkpt>
      <trkpt lat="45.92418" lon="4.73364">
        <ele>172</ele>
        <time>2017-07-01T10:45:27Z</time>
      </trkpt>
      <trkpt lat="45.9242" lon="4.73373">
        <ele>172</ele>
        <time>2017-07-01T10:45:28Z</time>
      </trkpt>
      <trkpt lat="45.92422" lon="4.73381">
        <ele>172</ele>
        <time>2017-07-01T10:45:29Z</time>
      </trkpt>
      <trkpt lat="45.92423" lon="4.7339">
        <ele>172</ele>
        <time>2017-07-01T10:45:30Z</time>
      </trkpt>
      <trkpt lat="45.92425" lon="4.73397">
        <ele>172</ele>
        <time>2017-07-01T10:45:31Z</time>
      </trkpt>
      <trkpt lat="45.92427" lon="4.73404">
        <ele>172</ele>
        <time>2017-07-01T10:45:32Z</time>
      </trkpt>
      <trkpt lat="45.92431" lon="4.7341">
        <ele>172</ele>
        <time>2017-07-01T10:45:33Z</time>
      </trkpt>
      <trkpt lat="45.92435" lon="4.73414">
        <ele>172</ele>
        <time>2017-07-01T10:45:34Z</time>
      </trkpt>
      <trkpt lat="45.92439" lon="4.73417">
        <ele>173</ele>
        <time>2017-07-01T10:45:35Z</time>
      </trkpt>
      <trkpt lat="45.92446" lon="4.73423">
        <ele>173</ele>
        <time>2017-07-01T10:45:37Z</time>
      </trkpt>
      <trkpt lat="45.9245" lon="4.73425">
        <ele>173</ele>
        <time>2017-07-01T10:45:38Z</time>
      </trkpt>
      <trkpt lat="45.92456" lon="4.73432">
        <ele>173</ele>
        <time>2017-07-01T10:45:40Z</time>
      </trkpt>
      <trkpt lat="45.92459" lon="4.73437">
        <ele>173</ele>
        <time>2017-07-01T10:45:41Z</time>
      </trkpt>
      <trkpt lat="45.92462" lon="4.73443">
        <ele>173</ele>
        <time>2017-07-01T10:45:42Z</time>
      </trkpt>
      <trkpt lat="45.92464" lon="4.7345">
        <ele>173</ele>
        <time>2017-07-01T10:45:43Z</time>
      </trkpt>
      <trkpt lat="45.92466" lon="4.73456">
        <ele>173</ele>
        <time>2017-07-01T10:45:44Z</time>
      </trkpt>
      <trkpt lat="45.92467" lon="4.73463">
        <ele>173</ele>
        <time>2017-07-01T10:45:45Z</time>
      </trkpt>
      <trkpt lat="45.92466" lon="4.73471">
        <ele>173</ele>
        <time>2017-07-01T10:45:46Z</time>
      </trkpt>
      <trkpt lat="45.92466" lon="4.73478">
        <ele>173</ele>
        <time>2017-07-01T10:45:47Z</time>
      </trkpt>
      <trkpt lat="45.92467" lon="4.73484">
        <ele>173</ele>
        <time>2017-07-01T10:45:48Z</time>
      </trkpt>
      <trkpt lat="45.92467" lon="4.73491">
        <ele>173</ele>
        <time>2017-07-01T10:45:49Z</time>
      </trkpt>
      <trkpt lat="45.92467" lon="4.73503">
        <ele>174</ele>
        <time>2017-07-01T10:45:51Z</time>
      </trkpt>
      <trkpt lat="45.92466" lon="4.73509">
        <ele>174</ele>
        <time>2017-07-01T10:45:52Z</time>
      </trkpt>
      <trkpt lat="45.92466" lon="4.73521">
        <ele>174</ele>
        <time>2017-07-01T10:45:54Z</time>
      </trkpt>
      <trkpt lat="45.92466" lon="4.73527">
        <ele>174</ele>
        <time>2017-07-01T10:45:55Z</time>
      </trkpt>
      <trkpt lat="45.92465" lon="4.73538">
        <ele>174</ele>
        <time>2017-07-01T10:45:57Z</time>
      </trkpt>
      <trkpt lat="45.92465" lon="4.73543">
        <ele>173</ele>
        <time>2017-07-01T10:45:58Z</time>
      </trkpt>
      <trkpt lat="45.92464" lon="4.73553">
        <ele>173</ele>
        <time>2017-07-01T10:46:00Z</time>
      </trkpt>
      <trkpt lat="45.92464" lon="4.73559">
        <ele>173</ele>
        <time>2017-07-01T10:46:01Z</time>
      </trkpt>
      <trkpt lat="45.92464" lon="4.73572">
        <ele>173</ele>
        <time>2017-07-01T10:46:03Z</time>
      </trkpt>
      <trkpt lat="45.92464" lon="4.73579">
        <ele>173</ele>
        <time>2017-07-01T10:46:04Z</time>
      </trkpt>
      <trkpt lat="45.92464" lon="4.73586">
        <ele>174</ele>
        <time>2017-07-01T10:46:05Z</time>
      </trkpt>
      <trkpt lat="45.92465" lon="4.73593">
        <ele>174</ele>
        <time>2017-07-01T10:46:06Z</time>
      </trkpt>
      <trkpt lat="45.92465" lon="4.73601">
        <ele>174</ele>
        <time>2017-07-01T10:46:07Z</time>
      </trkpt>
      <trkpt lat="45.92467" lon="4.73609">
        <ele>174</ele>
        <time>2017-07-01T10:46:08Z</time>
      </trkpt>
      <trkpt lat="45.92468" lon="4.73616">
        <ele>174</ele>
        <time>2017-07-01T10:46:09Z</time>
      </trkpt>
      <trkpt lat="45.92469" lon="4.73623">
        <ele>174</ele>
        <time>2017-07-01T10:46:10Z</time>
      </trkpt>
      <trkpt lat="45.92469" lon="4.7363">
        <ele>174</ele>
        <time>2017-07-01T10:46:11Z</time>
      </trkpt>
      <trkpt lat="45.9247" lon="4.73637">
        <ele>174</ele>
        <time>2017-07-01T10:46:12Z</time>
      </trkpt>
      <trkpt lat="45.92471" lon="4.73649">
        <ele>174</ele>
        <time>2017-07-01T10:46:14Z</time>
      </trkpt>
      <trkpt lat="45.92471" lon="4.73656">
        <ele>174</ele>
        <time>2017-07-01T10:46:15Z</time>
      </trkpt>
      <trkpt lat="45.9247" lon="4.73662">
        <ele>174</ele>
        <time>2017-07-01T10:46:16Z</time>
      </trkpt>
      <trkpt lat="45.9247" lon="4.73669">
        <ele>174</ele>
        <time>2017-07-01T10:46:17Z</time>
      </trkpt>
      <trkpt lat="45.92468" lon="4.73682">
        <ele>174</ele>
        <time>2017-07-01T10:46:19Z</time>
      </trkpt>
      <trkpt lat="45.92467" lon="4.73687">
        <ele>174</ele>
        <time>2017-07-01T10:46:20Z</time>
      </trkpt>
      <trkpt lat="45.92466" lon="4.73698">
        <ele>174</ele>
        <time>2017-07-01T10:46:22Z</time>
      </trkpt>
      <trkpt lat="45.92465" lon="4.73702">
        <ele>174</ele>
        <time>2017-07-01T10:46:23Z</time>
      </trkpt>
      <trkpt lat="45.92464" lon="4.73705">
        <ele>174</ele>
        <time>2017-07-01T10:46:24Z</time>
      </trkpt>
      <trkpt lat="45.92464" lon="4.73706">
        <ele>174</ele>
        <time>2017-07-01T10:46:25Z</time>
      </trkpt>
      <trkpt lat="45.92465" lon="4.73706">
        <ele>174</ele>
        <time>2017-07-01T10:47:27.735Z</time>
      </trkpt>
    </trkseg>
  </trk>
</gpx>